<?xml version="1.0" encoding="UTF-8" standalone="no" ?>
<gpx xmlns="http://www.topografix.com/GPX/1/1" xmlns:xsi="http://www.w3.org/2001/XMLSchema-instance" xsi:schemaLocation="http://www.topografix.com/GPX/1/1 http://www.topografix.com/GPX/1/1/gpx.xsd" version="1.1" creator="VisuGPX - https://www.visugpx.com">
  <metadata>
    <name>CMC St Bertrand de C</name>
    <desc><![CDATA[Entre les gouttes, gelées ou pas.
Beau tour, avec St Bertrand sous tous les angles.
Attention aux glissades.]]></desc>
  </metadata>
  <trk>
    <name><![CDATA[Saint-Bertrand-de-Comminges Marche à pied]]></name>
    <trkseg>
      <trkpt lat="43.02612" lon="0.56838">
        <ele>489</ele>
        <time>2018-03-18T08:01:51.000Z</time>
      </trkpt>
      <trkpt lat="43.02607" lon="0.56838">
        <ele>488</ele>
        <time>2018-03-18T08:01:53.000Z</time>
      </trkpt>
      <trkpt lat="43.0262" lon="0.56854">
        <ele>491</ele>
        <time>2018-03-18T08:01:55.000Z</time>
      </trkpt>
      <trkpt lat="43.02626" lon="0.56853">
        <ele>492</ele>
        <time>2018-03-18T08:01:57.000Z</time>
      </trkpt>
      <trkpt lat="43.02625" lon="0.56856">
        <ele>492</ele>
        <time>2018-03-18T08:01:59.000Z</time>
      </trkpt>
      <trkpt lat="43.02621" lon="0.56859">
        <ele>491</ele>
        <time>2018-03-18T08:02:01.000Z</time>
      </trkpt>
      <trkpt lat="43.02619" lon="0.56859">
        <ele>491</ele>
        <time>2018-03-18T08:02:03.000Z</time>
      </trkpt>
      <trkpt lat="43.02616" lon="0.56858">
        <ele>490</ele>
        <time>2018-03-18T08:02:05.000Z</time>
      </trkpt>
      <trkpt lat="43.02611" lon="0.56862">
        <ele>490</ele>
        <time>2018-03-18T08:02:07.000Z</time>
      </trkpt>
      <trkpt lat="43.02612" lon="0.56862">
        <ele>490</ele>
        <time>2018-03-18T08:02:09.000Z</time>
      </trkpt>
      <trkpt lat="43.02609" lon="0.56862">
        <ele>490</ele>
        <time>2018-03-18T08:02:11.000Z</time>
      </trkpt>
      <trkpt lat="43.02608" lon="0.56863">
        <ele>489</ele>
        <time>2018-03-18T08:02:13.000Z</time>
      </trkpt>
      <trkpt lat="43.02606" lon="0.56864">
        <ele>489</ele>
        <time>2018-03-18T08:02:15.000Z</time>
      </trkpt>
      <trkpt lat="43.02604" lon="0.56864">
        <ele>489</ele>
        <time>2018-03-18T08:02:17.000Z</time>
      </trkpt>
      <trkpt lat="43.02602" lon="0.56866">
        <ele>489</ele>
        <time>2018-03-18T08:02:19.000Z</time>
      </trkpt>
      <trkpt lat="43.026" lon="0.56867">
        <ele>488</ele>
        <time>2018-03-18T08:02:21.000Z</time>
      </trkpt>
      <trkpt lat="43.02598" lon="0.56869">
        <ele>488</ele>
        <time>2018-03-18T08:02:23.000Z</time>
      </trkpt>
      <trkpt lat="43.02596" lon="0.56871">
        <ele>488</ele>
        <time>2018-03-18T08:02:25.000Z</time>
      </trkpt>
      <trkpt lat="43.02594" lon="0.56873">
        <ele>488</ele>
        <time>2018-03-18T08:02:27.000Z</time>
      </trkpt>
      <trkpt lat="43.02593" lon="0.56874">
        <ele>488</ele>
        <time>2018-03-18T08:02:29.000Z</time>
      </trkpt>
      <trkpt lat="43.02591" lon="0.56877">
        <ele>488</ele>
        <time>2018-03-18T08:02:31.000Z</time>
      </trkpt>
      <trkpt lat="43.02589" lon="0.56879">
        <ele>488</ele>
        <time>2018-03-18T08:02:33.000Z</time>
      </trkpt>
      <trkpt lat="43.02588" lon="0.56881">
        <ele>488</ele>
        <time>2018-03-18T08:02:35.000Z</time>
      </trkpt>
      <trkpt lat="43.02586" lon="0.56882">
        <ele>488</ele>
        <time>2018-03-18T08:02:37.000Z</time>
      </trkpt>
      <trkpt lat="43.02584" lon="0.56882">
        <ele>488</ele>
        <time>2018-03-18T08:02:39.000Z</time>
      </trkpt>
      <trkpt lat="43.02583" lon="0.5688">
        <ele>488</ele>
        <time>2018-03-18T08:02:41.000Z</time>
      </trkpt>
      <trkpt lat="43.02583" lon="0.5688">
        <ele>488</ele>
        <time>2018-03-18T08:02:43.000Z</time>
      </trkpt>
      <trkpt lat="43.02583" lon="0.5688">
        <ele>488</ele>
        <time>2018-03-18T08:02:45.000Z</time>
      </trkpt>
      <trkpt lat="43.02583" lon="0.5688">
        <ele>488</ele>
        <time>2018-03-18T08:02:47.000Z</time>
      </trkpt>
      <trkpt lat="43.02583" lon="0.56879">
        <ele>488</ele>
        <time>2018-03-18T08:02:49.000Z</time>
      </trkpt>
      <trkpt lat="43.02583" lon="0.56879">
        <ele>488</ele>
        <time>2018-03-18T08:02:51.000Z</time>
      </trkpt>
      <trkpt lat="43.02584" lon="0.56879">
        <ele>488</ele>
        <time>2018-03-18T08:02:53.000Z</time>
      </trkpt>
      <trkpt lat="43.02584" lon="0.5688">
        <ele>488</ele>
        <time>2018-03-18T08:02:55.000Z</time>
      </trkpt>
      <trkpt lat="43.02583" lon="0.56881">
        <ele>488</ele>
        <time>2018-03-18T08:02:57.000Z</time>
      </trkpt>
      <trkpt lat="43.02581" lon="0.56883">
        <ele>487</ele>
        <time>2018-03-18T08:02:59.000Z</time>
      </trkpt>
      <trkpt lat="43.0258" lon="0.56885">
        <ele>487</ele>
        <time>2018-03-18T08:03:01.000Z</time>
      </trkpt>
      <trkpt lat="43.02579" lon="0.56888">
        <ele>487</ele>
        <time>2018-03-18T08:03:03.000Z</time>
      </trkpt>
      <trkpt lat="43.02578" lon="0.56889">
        <ele>487</ele>
        <time>2018-03-18T08:03:05.000Z</time>
      </trkpt>
      <trkpt lat="43.02577" lon="0.56892">
        <ele>487</ele>
        <time>2018-03-18T08:03:07.000Z</time>
      </trkpt>
      <trkpt lat="43.02577" lon="0.56895">
        <ele>487</ele>
        <time>2018-03-18T08:03:09.000Z</time>
      </trkpt>
      <trkpt lat="43.02576" lon="0.56897">
        <ele>487</ele>
        <time>2018-03-18T08:03:11.000Z</time>
      </trkpt>
      <trkpt lat="43.02575" lon="0.56899">
        <ele>486</ele>
        <time>2018-03-18T08:03:13.000Z</time>
      </trkpt>
      <trkpt lat="43.02575" lon="0.569">
        <ele>486</ele>
        <time>2018-03-18T08:03:15.000Z</time>
      </trkpt>
      <trkpt lat="43.02575" lon="0.56901">
        <ele>486</ele>
        <time>2018-03-18T08:03:17.000Z</time>
      </trkpt>
      <trkpt lat="43.02575" lon="0.56901">
        <ele>486</ele>
        <time>2018-03-18T08:03:19.000Z</time>
      </trkpt>
      <trkpt lat="43.02576" lon="0.56901">
        <ele>486</ele>
        <time>2018-03-18T08:03:21.000Z</time>
      </trkpt>
      <trkpt lat="43.02576" lon="0.56902">
        <ele>486</ele>
        <time>2018-03-18T08:03:23.000Z</time>
      </trkpt>
      <trkpt lat="43.02576" lon="0.56902">
        <ele>486</ele>
        <time>2018-03-18T08:03:25.000Z</time>
      </trkpt>
      <trkpt lat="43.02575" lon="0.56902">
        <ele>486</ele>
        <time>2018-03-18T08:03:27.000Z</time>
      </trkpt>
      <trkpt lat="43.02574" lon="0.56904">
        <ele>486</ele>
        <time>2018-03-18T08:03:29.000Z</time>
      </trkpt>
      <trkpt lat="43.02565" lon="0.56903">
        <ele>486</ele>
        <time>2018-03-18T08:03:31.000Z</time>
      </trkpt>
      <trkpt lat="43.02565" lon="0.56904">
        <ele>486</ele>
        <time>2018-03-18T08:03:33.000Z</time>
      </trkpt>
      <trkpt lat="43.02565" lon="0.56906">
        <ele>486</ele>
        <time>2018-03-18T08:03:35.000Z</time>
      </trkpt>
      <trkpt lat="43.02565" lon="0.56907">
        <ele>485</ele>
        <time>2018-03-18T08:03:37.000Z</time>
      </trkpt>
      <trkpt lat="43.02565" lon="0.56909">
        <ele>485</ele>
        <time>2018-03-18T08:03:39.000Z</time>
      </trkpt>
      <trkpt lat="43.02565" lon="0.56911">
        <ele>485</ele>
        <time>2018-03-18T08:03:41.000Z</time>
      </trkpt>
      <trkpt lat="43.02565" lon="0.56911">
        <ele>485</ele>
        <time>2018-03-18T08:03:43.000Z</time>
      </trkpt>
      <trkpt lat="43.02565" lon="0.56911">
        <ele>485</ele>
        <time>2018-03-18T08:03:45.000Z</time>
      </trkpt>
      <trkpt lat="43.02566" lon="0.56911">
        <ele>485</ele>
        <time>2018-03-18T08:03:47.000Z</time>
      </trkpt>
      <trkpt lat="43.02565" lon="0.56912">
        <ele>485</ele>
        <time>2018-03-18T08:03:49.000Z</time>
      </trkpt>
      <trkpt lat="43.02564" lon="0.56913">
        <ele>485</ele>
        <time>2018-03-18T08:03:51.000Z</time>
      </trkpt>
      <trkpt lat="43.02563" lon="0.56915">
        <ele>485</ele>
        <time>2018-03-18T08:03:53.000Z</time>
      </trkpt>
      <trkpt lat="43.02562" lon="0.56917">
        <ele>485</ele>
        <time>2018-03-18T08:03:55.000Z</time>
      </trkpt>
      <trkpt lat="43.02561" lon="0.56919">
        <ele>485</ele>
        <time>2018-03-18T08:03:57.000Z</time>
      </trkpt>
      <trkpt lat="43.0256" lon="0.56922">
        <ele>485</ele>
        <time>2018-03-18T08:03:59.000Z</time>
      </trkpt>
      <trkpt lat="43.02559" lon="0.56925">
        <ele>485</ele>
        <time>2018-03-18T08:04:01.000Z</time>
      </trkpt>
      <trkpt lat="43.02558" lon="0.56928">
        <ele>485</ele>
        <time>2018-03-18T08:04:03.000Z</time>
      </trkpt>
      <trkpt lat="43.02557" lon="0.5693">
        <ele>484</ele>
        <time>2018-03-18T08:04:05.000Z</time>
      </trkpt>
      <trkpt lat="43.02556" lon="0.56933">
        <ele>484</ele>
        <time>2018-03-18T08:04:07.000Z</time>
      </trkpt>
      <trkpt lat="43.02555" lon="0.56936">
        <ele>484</ele>
        <time>2018-03-18T08:04:09.000Z</time>
      </trkpt>
      <trkpt lat="43.02554" lon="0.56939">
        <ele>483</ele>
        <time>2018-03-18T08:04:11.000Z</time>
      </trkpt>
      <trkpt lat="43.02552" lon="0.56942">
        <ele>483</ele>
        <time>2018-03-18T08:04:13.000Z</time>
      </trkpt>
      <trkpt lat="43.02552" lon="0.56946">
        <ele>483</ele>
        <time>2018-03-18T08:04:15.000Z</time>
      </trkpt>
      <trkpt lat="43.02551" lon="0.56949">
        <ele>482</ele>
        <time>2018-03-18T08:04:17.000Z</time>
      </trkpt>
      <trkpt lat="43.0255" lon="0.56952">
        <ele>482</ele>
        <time>2018-03-18T08:04:19.000Z</time>
      </trkpt>
      <trkpt lat="43.0255" lon="0.56955">
        <ele>481</ele>
        <time>2018-03-18T08:04:21.000Z</time>
      </trkpt>
      <trkpt lat="43.02549" lon="0.56958">
        <ele>481</ele>
        <time>2018-03-18T08:04:23.000Z</time>
      </trkpt>
      <trkpt lat="43.02549" lon="0.5696">
        <ele>481</ele>
        <time>2018-03-18T08:04:25.000Z</time>
      </trkpt>
      <trkpt lat="43.02549" lon="0.56961">
        <ele>481</ele>
        <time>2018-03-18T08:04:27.000Z</time>
      </trkpt>
      <trkpt lat="43.02548" lon="0.56962">
        <ele>481</ele>
        <time>2018-03-18T08:04:29.000Z</time>
      </trkpt>
      <trkpt lat="43.02548" lon="0.56964">
        <ele>481</ele>
        <time>2018-03-18T08:04:31.000Z</time>
      </trkpt>
      <trkpt lat="43.02548" lon="0.56964">
        <ele>480</ele>
        <time>2018-03-18T08:04:33.000Z</time>
      </trkpt>
      <trkpt lat="43.02548" lon="0.56964">
        <ele>480</ele>
        <time>2018-03-18T08:04:35.000Z</time>
      </trkpt>
      <trkpt lat="43.02548" lon="0.56964">
        <ele>480</ele>
        <time>2018-03-18T08:04:37.000Z</time>
      </trkpt>
      <trkpt lat="43.02548" lon="0.56964">
        <ele>480</ele>
        <time>2018-03-18T08:04:39.000Z</time>
      </trkpt>
      <trkpt lat="43.02548" lon="0.56964">
        <ele>480</ele>
        <time>2018-03-18T08:04:41.000Z</time>
      </trkpt>
      <trkpt lat="43.02548" lon="0.56964">
        <ele>480</ele>
        <time>2018-03-18T08:04:43.000Z</time>
      </trkpt>
      <trkpt lat="43.02547" lon="0.56965">
        <ele>480</ele>
        <time>2018-03-18T08:04:45.000Z</time>
      </trkpt>
      <trkpt lat="43.02548" lon="0.56966">
        <ele>480</ele>
        <time>2018-03-18T08:04:47.000Z</time>
      </trkpt>
      <trkpt lat="43.02547" lon="0.56966">
        <ele>480</ele>
        <time>2018-03-18T08:04:49.000Z</time>
      </trkpt>
      <trkpt lat="43.02548" lon="0.56966">
        <ele>480</ele>
        <time>2018-03-18T08:04:51.000Z</time>
      </trkpt>
      <trkpt lat="43.02548" lon="0.56966">
        <ele>480</ele>
        <time>2018-03-18T08:04:53.000Z</time>
      </trkpt>
      <trkpt lat="43.02548" lon="0.56966">
        <ele>480</ele>
        <time>2018-03-18T08:04:55.000Z</time>
      </trkpt>
      <trkpt lat="43.02548" lon="0.56966">
        <ele>480</ele>
        <time>2018-03-18T08:04:57.000Z</time>
      </trkpt>
      <trkpt lat="43.02548" lon="0.56966">
        <ele>480</ele>
        <time>2018-03-18T08:04:59.000Z</time>
      </trkpt>
      <trkpt lat="43.02549" lon="0.56966">
        <ele>480</ele>
        <time>2018-03-18T08:05:01.000Z</time>
      </trkpt>
      <trkpt lat="43.02548" lon="0.56966">
        <ele>480</ele>
        <time>2018-03-18T08:05:03.000Z</time>
      </trkpt>
      <trkpt lat="43.02548" lon="0.56966">
        <ele>480</ele>
        <time>2018-03-18T08:05:05.000Z</time>
      </trkpt>
      <trkpt lat="43.02548" lon="0.56965">
        <ele>480</ele>
        <time>2018-03-18T08:05:07.000Z</time>
      </trkpt>
      <trkpt lat="43.02548" lon="0.56965">
        <ele>480</ele>
        <time>2018-03-18T08:05:09.000Z</time>
      </trkpt>
      <trkpt lat="43.0255" lon="0.56965">
        <ele>481</ele>
        <time>2018-03-18T08:05:11.000Z</time>
      </trkpt>
      <trkpt lat="43.0255" lon="0.56965">
        <ele>481</ele>
        <time>2018-03-18T08:05:13.000Z</time>
      </trkpt>
      <trkpt lat="43.0255" lon="0.56965">
        <ele>481</ele>
        <time>2018-03-18T08:05:15.000Z</time>
      </trkpt>
      <trkpt lat="43.0255" lon="0.56965">
        <ele>481</ele>
        <time>2018-03-18T08:05:17.000Z</time>
      </trkpt>
      <trkpt lat="43.02551" lon="0.56965">
        <ele>481</ele>
        <time>2018-03-18T08:05:19.000Z</time>
      </trkpt>
      <trkpt lat="43.02551" lon="0.56964">
        <ele>481</ele>
        <time>2018-03-18T08:05:21.000Z</time>
      </trkpt>
      <trkpt lat="43.02551" lon="0.56965">
        <ele>481</ele>
        <time>2018-03-18T08:05:23.000Z</time>
      </trkpt>
      <trkpt lat="43.02552" lon="0.56965">
        <ele>481</ele>
        <time>2018-03-18T08:05:25.000Z</time>
      </trkpt>
      <trkpt lat="43.02551" lon="0.56966">
        <ele>481</ele>
        <time>2018-03-18T08:05:27.000Z</time>
      </trkpt>
      <trkpt lat="43.0255" lon="0.56969">
        <ele>480</ele>
        <time>2018-03-18T08:05:29.000Z</time>
      </trkpt>
      <trkpt lat="43.02549" lon="0.56973">
        <ele>480</ele>
        <time>2018-03-18T08:05:31.000Z</time>
      </trkpt>
      <trkpt lat="43.02547" lon="0.56977">
        <ele>480</ele>
        <time>2018-03-18T08:05:33.000Z</time>
      </trkpt>
      <trkpt lat="43.02546" lon="0.5698">
        <ele>480</ele>
        <time>2018-03-18T08:05:35.000Z</time>
      </trkpt>
      <trkpt lat="43.02545" lon="0.56983">
        <ele>479</ele>
        <time>2018-03-18T08:05:37.000Z</time>
      </trkpt>
      <trkpt lat="43.02543" lon="0.56987">
        <ele>479</ele>
        <time>2018-03-18T08:05:39.000Z</time>
      </trkpt>
      <trkpt lat="43.02539" lon="0.56989">
        <ele>478</ele>
        <time>2018-03-18T08:05:41.000Z</time>
      </trkpt>
      <trkpt lat="43.02535" lon="0.56992">
        <ele>478</ele>
        <time>2018-03-18T08:05:43.000Z</time>
      </trkpt>
      <trkpt lat="43.02532" lon="0.56994">
        <ele>477</ele>
        <time>2018-03-18T08:05:45.000Z</time>
      </trkpt>
      <trkpt lat="43.0253" lon="0.56996">
        <ele>477</ele>
        <time>2018-03-18T08:05:47.000Z</time>
      </trkpt>
      <trkpt lat="43.02527" lon="0.56998">
        <ele>477</ele>
        <time>2018-03-18T08:05:49.000Z</time>
      </trkpt>
      <trkpt lat="43.02525" lon="0.56998">
        <ele>476</ele>
        <time>2018-03-18T08:05:51.000Z</time>
      </trkpt>
      <trkpt lat="43.02522" lon="0.57">
        <ele>476</ele>
        <time>2018-03-18T08:05:53.000Z</time>
      </trkpt>
      <trkpt lat="43.02519" lon="0.57001">
        <ele>476</ele>
        <time>2018-03-18T08:05:55.000Z</time>
      </trkpt>
      <trkpt lat="43.02517" lon="0.57001">
        <ele>475</ele>
        <time>2018-03-18T08:05:57.000Z</time>
      </trkpt>
      <trkpt lat="43.02515" lon="0.57002">
        <ele>475</ele>
        <time>2018-03-18T08:05:59.000Z</time>
      </trkpt>
      <trkpt lat="43.02513" lon="0.57003">
        <ele>475</ele>
        <time>2018-03-18T08:06:01.000Z</time>
      </trkpt>
      <trkpt lat="43.02511" lon="0.57004">
        <ele>474</ele>
        <time>2018-03-18T08:06:03.000Z</time>
      </trkpt>
      <trkpt lat="43.02508" lon="0.57006">
        <ele>474</ele>
        <time>2018-03-18T08:06:05.000Z</time>
      </trkpt>
      <trkpt lat="43.02506" lon="0.57007">
        <ele>476</ele>
        <time>2018-03-18T08:06:07.000Z</time>
      </trkpt>
      <trkpt lat="43.02503" lon="0.57008">
        <ele>477</ele>
        <time>2018-03-18T08:06:09.000Z</time>
      </trkpt>
      <trkpt lat="43.02499" lon="0.57009">
        <ele>480</ele>
        <time>2018-03-18T08:06:11.000Z</time>
      </trkpt>
      <trkpt lat="43.02497" lon="0.57009">
        <ele>481</ele>
        <time>2018-03-18T08:06:13.000Z</time>
      </trkpt>
      <trkpt lat="43.02495" lon="0.57009">
        <ele>482</ele>
        <time>2018-03-18T08:06:15.000Z</time>
      </trkpt>
      <trkpt lat="43.02493" lon="0.5701">
        <ele>483</ele>
        <time>2018-03-18T08:06:17.000Z</time>
      </trkpt>
      <trkpt lat="43.0249" lon="0.5701">
        <ele>485</ele>
        <time>2018-03-18T08:06:19.000Z</time>
      </trkpt>
      <trkpt lat="43.02488" lon="0.57011">
        <ele>486</ele>
        <time>2018-03-18T08:06:21.000Z</time>
      </trkpt>
      <trkpt lat="43.02486" lon="0.57012">
        <ele>487</ele>
        <time>2018-03-18T08:06:23.000Z</time>
      </trkpt>
      <trkpt lat="43.02484" lon="0.57012">
        <ele>488</ele>
        <time>2018-03-18T08:06:25.000Z</time>
      </trkpt>
      <trkpt lat="43.0248" lon="0.57014">
        <ele>490</ele>
        <time>2018-03-18T08:06:27.000Z</time>
      </trkpt>
      <trkpt lat="43.02478" lon="0.57014">
        <ele>491</ele>
        <time>2018-03-18T08:06:29.000Z</time>
      </trkpt>
      <trkpt lat="43.02477" lon="0.57014">
        <ele>492</ele>
        <time>2018-03-18T08:06:31.000Z</time>
      </trkpt>
      <trkpt lat="43.02476" lon="0.57015">
        <ele>492</ele>
        <time>2018-03-18T08:06:33.000Z</time>
      </trkpt>
      <trkpt lat="43.02477" lon="0.57014">
        <ele>492</ele>
        <time>2018-03-18T08:06:35.000Z</time>
      </trkpt>
      <trkpt lat="43.02478" lon="0.57014">
        <ele>491</ele>
        <time>2018-03-18T08:06:37.000Z</time>
      </trkpt>
      <trkpt lat="43.02479" lon="0.57014">
        <ele>491</ele>
        <time>2018-03-18T08:06:39.000Z</time>
      </trkpt>
      <trkpt lat="43.02479" lon="0.57013">
        <ele>491</ele>
        <time>2018-03-18T08:06:41.000Z</time>
      </trkpt>
      <trkpt lat="43.0248" lon="0.57013">
        <ele>490</ele>
        <time>2018-03-18T08:06:43.000Z</time>
      </trkpt>
      <trkpt lat="43.02479" lon="0.57014">
        <ele>491</ele>
        <time>2018-03-18T08:06:45.000Z</time>
      </trkpt>
      <trkpt lat="43.0248" lon="0.57014">
        <ele>490</ele>
        <time>2018-03-18T08:06:47.000Z</time>
      </trkpt>
      <trkpt lat="43.02481" lon="0.57014">
        <ele>489</ele>
        <time>2018-03-18T08:06:49.000Z</time>
      </trkpt>
      <trkpt lat="43.02482" lon="0.57014">
        <ele>489</ele>
        <time>2018-03-18T08:06:51.000Z</time>
      </trkpt>
      <trkpt lat="43.02483" lon="0.57013">
        <ele>489</ele>
        <time>2018-03-18T08:06:53.000Z</time>
      </trkpt>
      <trkpt lat="43.02483" lon="0.57012">
        <ele>489</ele>
        <time>2018-03-18T08:06:55.000Z</time>
      </trkpt>
      <trkpt lat="43.02482" lon="0.57011">
        <ele>489</ele>
        <time>2018-03-18T08:06:57.000Z</time>
      </trkpt>
      <trkpt lat="43.02481" lon="0.57011">
        <ele>490</ele>
        <time>2018-03-18T08:06:59.000Z</time>
      </trkpt>
      <trkpt lat="43.0248" lon="0.5701">
        <ele>490</ele>
        <time>2018-03-18T08:07:01.000Z</time>
      </trkpt>
      <trkpt lat="43.0248" lon="0.57009">
        <ele>490</ele>
        <time>2018-03-18T08:07:03.000Z</time>
      </trkpt>
      <trkpt lat="43.0248" lon="0.57007">
        <ele>490</ele>
        <time>2018-03-18T08:07:05.000Z</time>
      </trkpt>
      <trkpt lat="43.02479" lon="0.57006">
        <ele>491</ele>
        <time>2018-03-18T08:07:07.000Z</time>
      </trkpt>
      <trkpt lat="43.0248" lon="0.57005">
        <ele>490</ele>
        <time>2018-03-18T08:07:09.000Z</time>
      </trkpt>
      <trkpt lat="43.0248" lon="0.57004">
        <ele>490</ele>
        <time>2018-03-18T08:07:11.000Z</time>
      </trkpt>
      <trkpt lat="43.0248" lon="0.57003">
        <ele>490</ele>
        <time>2018-03-18T08:07:13.000Z</time>
      </trkpt>
      <trkpt lat="43.0248" lon="0.57003">
        <ele>490</ele>
        <time>2018-03-18T08:07:15.000Z</time>
      </trkpt>
      <trkpt lat="43.02481" lon="0.57001">
        <ele>490</ele>
        <time>2018-03-18T08:07:17.000Z</time>
      </trkpt>
      <trkpt lat="43.02481" lon="0.57001">
        <ele>490</ele>
        <time>2018-03-18T08:07:19.000Z</time>
      </trkpt>
      <trkpt lat="43.02479" lon="0.57002">
        <ele>491</ele>
        <time>2018-03-18T08:07:21.000Z</time>
      </trkpt>
      <trkpt lat="43.0248" lon="0.57003">
        <ele>490</ele>
        <time>2018-03-18T08:07:23.000Z</time>
      </trkpt>
      <trkpt lat="43.02482" lon="0.57003">
        <ele>489</ele>
        <time>2018-03-18T08:07:25.000Z</time>
      </trkpt>
      <trkpt lat="43.02484" lon="0.57003">
        <ele>488</ele>
        <time>2018-03-18T08:07:27.000Z</time>
      </trkpt>
      <trkpt lat="43.02487" lon="0.57005">
        <ele>487</ele>
        <time>2018-03-18T08:07:29.000Z</time>
      </trkpt>
      <trkpt lat="43.02487" lon="0.57005">
        <ele>486</ele>
        <time>2018-03-18T08:07:31.000Z</time>
      </trkpt>
      <trkpt lat="43.0249" lon="0.57006">
        <ele>485</ele>
        <time>2018-03-18T08:07:33.000Z</time>
      </trkpt>
      <trkpt lat="43.02492" lon="0.57007">
        <ele>483</ele>
        <time>2018-03-18T08:07:35.000Z</time>
      </trkpt>
      <trkpt lat="43.02495" lon="0.57008">
        <ele>482</ele>
        <time>2018-03-18T08:07:37.000Z</time>
      </trkpt>
      <trkpt lat="43.02496" lon="0.57008">
        <ele>481</ele>
        <time>2018-03-18T08:07:39.000Z</time>
      </trkpt>
      <trkpt lat="43.02498" lon="0.57008">
        <ele>480</ele>
        <time>2018-03-18T08:07:41.000Z</time>
      </trkpt>
      <trkpt lat="43.02499" lon="0.57009">
        <ele>479</ele>
        <time>2018-03-18T08:07:43.000Z</time>
      </trkpt>
      <trkpt lat="43.02501" lon="0.57008">
        <ele>478</ele>
        <time>2018-03-18T08:07:45.000Z</time>
      </trkpt>
      <trkpt lat="43.02503" lon="0.57008">
        <ele>477</ele>
        <time>2018-03-18T08:07:47.000Z</time>
      </trkpt>
      <trkpt lat="43.02505" lon="0.57007">
        <ele>476</ele>
        <time>2018-03-18T08:07:49.000Z</time>
      </trkpt>
      <trkpt lat="43.02505" lon="0.57007">
        <ele>476</ele>
        <time>2018-03-18T08:07:51.000Z</time>
      </trkpt>
      <trkpt lat="43.02504" lon="0.57008">
        <ele>477</ele>
        <time>2018-03-18T08:07:53.000Z</time>
      </trkpt>
      <trkpt lat="43.02504" lon="0.57008">
        <ele>477</ele>
        <time>2018-03-18T08:07:55.000Z</time>
      </trkpt>
      <trkpt lat="43.02505" lon="0.57008">
        <ele>476</ele>
        <time>2018-03-18T08:07:57.000Z</time>
      </trkpt>
      <trkpt lat="43.02504" lon="0.57008">
        <ele>477</ele>
        <time>2018-03-18T08:07:59.000Z</time>
      </trkpt>
      <trkpt lat="43.02504" lon="0.57007">
        <ele>477</ele>
        <time>2018-03-18T08:08:01.000Z</time>
      </trkpt>
      <trkpt lat="43.02505" lon="0.57006">
        <ele>476</ele>
        <time>2018-03-18T08:08:03.000Z</time>
      </trkpt>
      <trkpt lat="43.02506" lon="0.57005">
        <ele>476</ele>
        <time>2018-03-18T08:08:05.000Z</time>
      </trkpt>
      <trkpt lat="43.02507" lon="0.57003">
        <ele>475</ele>
        <time>2018-03-18T08:08:07.000Z</time>
      </trkpt>
      <trkpt lat="43.02507" lon="0.57002">
        <ele>475</ele>
        <time>2018-03-18T08:08:09.000Z</time>
      </trkpt>
      <trkpt lat="43.02509" lon="0.57001">
        <ele>474</ele>
        <time>2018-03-18T08:08:11.000Z</time>
      </trkpt>
      <trkpt lat="43.02511" lon="0.57">
        <ele>474</ele>
        <time>2018-03-18T08:08:13.000Z</time>
      </trkpt>
      <trkpt lat="43.02512" lon="0.57001">
        <ele>475</ele>
        <time>2018-03-18T08:08:15.000Z</time>
      </trkpt>
      <trkpt lat="43.02513" lon="0.57">
        <ele>475</ele>
        <time>2018-03-18T08:08:17.000Z</time>
      </trkpt>
      <trkpt lat="43.02514" lon="0.57">
        <ele>475</ele>
        <time>2018-03-18T08:08:19.000Z</time>
      </trkpt>
      <trkpt lat="43.02516" lon="0.56999">
        <ele>475</ele>
        <time>2018-03-18T08:08:21.000Z</time>
      </trkpt>
      <trkpt lat="43.02517" lon="0.56999">
        <ele>475</ele>
        <time>2018-03-18T08:08:23.000Z</time>
      </trkpt>
      <trkpt lat="43.02519" lon="0.56998">
        <ele>476</ele>
        <time>2018-03-18T08:08:25.000Z</time>
      </trkpt>
      <trkpt lat="43.02521" lon="0.56998">
        <ele>476</ele>
        <time>2018-03-18T08:08:27.000Z</time>
      </trkpt>
      <trkpt lat="43.02523" lon="0.56999">
        <ele>476</ele>
        <time>2018-03-18T08:08:29.000Z</time>
      </trkpt>
      <trkpt lat="43.02526" lon="0.57">
        <ele>477</ele>
        <time>2018-03-18T08:08:31.000Z</time>
      </trkpt>
      <trkpt lat="43.02528" lon="0.57003">
        <ele>477</ele>
        <time>2018-03-18T08:08:33.000Z</time>
      </trkpt>
      <trkpt lat="43.0253" lon="0.57006">
        <ele>477</ele>
        <time>2018-03-18T08:08:35.000Z</time>
      </trkpt>
      <trkpt lat="43.02532" lon="0.57009">
        <ele>477</ele>
        <time>2018-03-18T08:08:37.000Z</time>
      </trkpt>
      <trkpt lat="43.02533" lon="0.57012">
        <ele>477</ele>
        <time>2018-03-18T08:08:39.000Z</time>
      </trkpt>
      <trkpt lat="43.02534" lon="0.57015">
        <ele>477</ele>
        <time>2018-03-18T08:08:41.000Z</time>
      </trkpt>
      <trkpt lat="43.02535" lon="0.57018">
        <ele>477</ele>
        <time>2018-03-18T08:08:43.000Z</time>
      </trkpt>
      <trkpt lat="43.02536" lon="0.57021">
        <ele>477</ele>
        <time>2018-03-18T08:08:45.000Z</time>
      </trkpt>
      <trkpt lat="43.02537" lon="0.57024">
        <ele>477</ele>
        <time>2018-03-18T08:08:47.000Z</time>
      </trkpt>
      <trkpt lat="43.02538" lon="0.57027">
        <ele>477</ele>
        <time>2018-03-18T08:08:49.000Z</time>
      </trkpt>
      <trkpt lat="43.02539" lon="0.57031">
        <ele>477</ele>
        <time>2018-03-18T08:08:51.000Z</time>
      </trkpt>
      <trkpt lat="43.0254" lon="0.57033">
        <ele>478</ele>
        <time>2018-03-18T08:08:53.000Z</time>
      </trkpt>
      <trkpt lat="43.02542" lon="0.57036">
        <ele>478</ele>
        <time>2018-03-18T08:08:55.000Z</time>
      </trkpt>
      <trkpt lat="43.02544" lon="0.57039">
        <ele>478</ele>
        <time>2018-03-18T08:08:57.000Z</time>
      </trkpt>
      <trkpt lat="43.02544" lon="0.57042">
        <ele>478</ele>
        <time>2018-03-18T08:08:59.000Z</time>
      </trkpt>
      <trkpt lat="43.02545" lon="0.57046">
        <ele>478</ele>
        <time>2018-03-18T08:09:01.000Z</time>
      </trkpt>
      <trkpt lat="43.02546" lon="0.57049">
        <ele>478</ele>
        <time>2018-03-18T08:09:03.000Z</time>
      </trkpt>
      <trkpt lat="43.02547" lon="0.57052">
        <ele>478</ele>
        <time>2018-03-18T08:09:05.000Z</time>
      </trkpt>
      <trkpt lat="43.02548" lon="0.57055">
        <ele>478</ele>
        <time>2018-03-18T08:09:07.000Z</time>
      </trkpt>
      <trkpt lat="43.02549" lon="0.57059">
        <ele>478</ele>
        <time>2018-03-18T08:09:09.000Z</time>
      </trkpt>
      <trkpt lat="43.0255" lon="0.57062">
        <ele>478</ele>
        <time>2018-03-18T08:09:11.000Z</time>
      </trkpt>
      <trkpt lat="43.02551" lon="0.57065">
        <ele>478</ele>
        <time>2018-03-18T08:09:13.000Z</time>
      </trkpt>
      <trkpt lat="43.0255" lon="0.57069">
        <ele>478</ele>
        <time>2018-03-18T08:09:15.000Z</time>
      </trkpt>
      <trkpt lat="43.02551" lon="0.57073">
        <ele>478</ele>
        <time>2018-03-18T08:09:17.000Z</time>
      </trkpt>
      <trkpt lat="43.0255" lon="0.57076">
        <ele>478</ele>
        <time>2018-03-18T08:09:19.000Z</time>
      </trkpt>
      <trkpt lat="43.02549" lon="0.5708">
        <ele>478</ele>
        <time>2018-03-18T08:09:21.000Z</time>
      </trkpt>
      <trkpt lat="43.02549" lon="0.57083">
        <ele>477</ele>
        <time>2018-03-18T08:09:23.000Z</time>
      </trkpt>
      <trkpt lat="43.02547" lon="0.57087">
        <ele>477</ele>
        <time>2018-03-18T08:09:25.000Z</time>
      </trkpt>
      <trkpt lat="43.02546" lon="0.5709">
        <ele>477</ele>
        <time>2018-03-18T08:09:27.000Z</time>
      </trkpt>
      <trkpt lat="43.02546" lon="0.57094">
        <ele>477</ele>
        <time>2018-03-18T08:09:29.000Z</time>
      </trkpt>
      <trkpt lat="43.02545" lon="0.57097">
        <ele>477</ele>
        <time>2018-03-18T08:09:31.000Z</time>
      </trkpt>
      <trkpt lat="43.02545" lon="0.571">
        <ele>476</ele>
        <time>2018-03-18T08:09:33.000Z</time>
      </trkpt>
      <trkpt lat="43.02544" lon="0.57103">
        <ele>476</ele>
        <time>2018-03-18T08:09:35.000Z</time>
      </trkpt>
      <trkpt lat="43.02543" lon="0.57106">
        <ele>476</ele>
        <time>2018-03-18T08:09:37.000Z</time>
      </trkpt>
      <trkpt lat="43.02542" lon="0.5711">
        <ele>476</ele>
        <time>2018-03-18T08:09:39.000Z</time>
      </trkpt>
      <trkpt lat="43.02542" lon="0.57113">
        <ele>476</ele>
        <time>2018-03-18T08:09:41.000Z</time>
      </trkpt>
      <trkpt lat="43.02541" lon="0.57116">
        <ele>475</ele>
        <time>2018-03-18T08:09:43.000Z</time>
      </trkpt>
      <trkpt lat="43.02542" lon="0.57119">
        <ele>475</ele>
        <time>2018-03-18T08:09:45.000Z</time>
      </trkpt>
      <trkpt lat="43.02542" lon="0.57122">
        <ele>475</ele>
        <time>2018-03-18T08:09:47.000Z</time>
      </trkpt>
      <trkpt lat="43.02543" lon="0.57125">
        <ele>475</ele>
        <time>2018-03-18T08:09:49.000Z</time>
      </trkpt>
      <trkpt lat="43.02543" lon="0.57128">
        <ele>475</ele>
        <time>2018-03-18T08:09:51.000Z</time>
      </trkpt>
      <trkpt lat="43.02543" lon="0.57131">
        <ele>475</ele>
        <time>2018-03-18T08:09:53.000Z</time>
      </trkpt>
      <trkpt lat="43.02543" lon="0.57133">
        <ele>475</ele>
        <time>2018-03-18T08:09:55.000Z</time>
      </trkpt>
      <trkpt lat="43.02544" lon="0.57136">
        <ele>475</ele>
        <time>2018-03-18T08:09:57.000Z</time>
      </trkpt>
      <trkpt lat="43.02544" lon="0.57139">
        <ele>475</ele>
        <time>2018-03-18T08:09:59.000Z</time>
      </trkpt>
      <trkpt lat="43.02545" lon="0.57142">
        <ele>474</ele>
        <time>2018-03-18T08:10:01.000Z</time>
      </trkpt>
      <trkpt lat="43.02544" lon="0.57145">
        <ele>474</ele>
        <time>2018-03-18T08:10:03.000Z</time>
      </trkpt>
      <trkpt lat="43.02545" lon="0.57148">
        <ele>474</ele>
        <time>2018-03-18T08:10:05.000Z</time>
      </trkpt>
      <trkpt lat="43.02545" lon="0.57151">
        <ele>473</ele>
        <time>2018-03-18T08:10:07.000Z</time>
      </trkpt>
      <trkpt lat="43.02545" lon="0.57155">
        <ele>473</ele>
        <time>2018-03-18T08:10:09.000Z</time>
      </trkpt>
      <trkpt lat="43.02545" lon="0.57157">
        <ele>473</ele>
        <time>2018-03-18T08:10:11.000Z</time>
      </trkpt>
      <trkpt lat="43.02545" lon="0.5716">
        <ele>472</ele>
        <time>2018-03-18T08:10:13.000Z</time>
      </trkpt>
      <trkpt lat="43.02545" lon="0.57164">
        <ele>472</ele>
        <time>2018-03-18T08:10:15.000Z</time>
      </trkpt>
      <trkpt lat="43.02545" lon="0.57166">
        <ele>472</ele>
        <time>2018-03-18T08:10:17.000Z</time>
      </trkpt>
      <trkpt lat="43.02545" lon="0.5717">
        <ele>471</ele>
        <time>2018-03-18T08:10:19.000Z</time>
      </trkpt>
      <trkpt lat="43.02545" lon="0.57173">
        <ele>471</ele>
        <time>2018-03-18T08:10:21.000Z</time>
      </trkpt>
      <trkpt lat="43.02545" lon="0.57176">
        <ele>471</ele>
        <time>2018-03-18T08:10:23.000Z</time>
      </trkpt>
      <trkpt lat="43.02545" lon="0.57179">
        <ele>471</ele>
        <time>2018-03-18T08:10:25.000Z</time>
      </trkpt>
      <trkpt lat="43.02546" lon="0.57182">
        <ele>471</ele>
        <time>2018-03-18T08:10:27.000Z</time>
      </trkpt>
      <trkpt lat="43.02546" lon="0.57184">
        <ele>471</ele>
        <time>2018-03-18T08:10:29.000Z</time>
      </trkpt>
      <trkpt lat="43.02547" lon="0.57187">
        <ele>470</ele>
        <time>2018-03-18T08:10:31.000Z</time>
      </trkpt>
      <trkpt lat="43.02547" lon="0.5719">
        <ele>470</ele>
        <time>2018-03-18T08:10:33.000Z</time>
      </trkpt>
      <trkpt lat="43.02547" lon="0.57191">
        <ele>470</ele>
        <time>2018-03-18T08:10:35.000Z</time>
      </trkpt>
      <trkpt lat="43.02546" lon="0.57192">
        <ele>470</ele>
        <time>2018-03-18T08:10:37.000Z</time>
      </trkpt>
      <trkpt lat="43.02548" lon="0.57193">
        <ele>470</ele>
        <time>2018-03-18T08:10:39.000Z</time>
      </trkpt>
      <trkpt lat="43.02548" lon="0.57196">
        <ele>470</ele>
        <time>2018-03-18T08:10:41.000Z</time>
      </trkpt>
      <trkpt lat="43.02548" lon="0.57198">
        <ele>470</ele>
        <time>2018-03-18T08:10:43.000Z</time>
      </trkpt>
      <trkpt lat="43.02547" lon="0.57199">
        <ele>470</ele>
        <time>2018-03-18T08:10:45.000Z</time>
      </trkpt>
      <trkpt lat="43.02547" lon="0.57199">
        <ele>470</ele>
        <time>2018-03-18T08:10:47.000Z</time>
      </trkpt>
      <trkpt lat="43.02547" lon="0.57198">
        <ele>470</ele>
        <time>2018-03-18T08:10:49.000Z</time>
      </trkpt>
      <trkpt lat="43.02546" lon="0.57198">
        <ele>470</ele>
        <time>2018-03-18T08:10:51.000Z</time>
      </trkpt>
      <trkpt lat="43.02545" lon="0.57198">
        <ele>470</ele>
        <time>2018-03-18T08:10:53.000Z</time>
      </trkpt>
      <trkpt lat="43.02545" lon="0.57198">
        <ele>470</ele>
        <time>2018-03-18T08:10:55.000Z</time>
      </trkpt>
      <trkpt lat="43.02544" lon="0.57198">
        <ele>470</ele>
        <time>2018-03-18T08:10:57.000Z</time>
      </trkpt>
      <trkpt lat="43.02544" lon="0.57198">
        <ele>470</ele>
        <time>2018-03-18T08:10:59.000Z</time>
      </trkpt>
      <trkpt lat="43.02544" lon="0.57198">
        <ele>470</ele>
        <time>2018-03-18T08:11:01.000Z</time>
      </trkpt>
      <trkpt lat="43.02545" lon="0.57199">
        <ele>470</ele>
        <time>2018-03-18T08:11:03.000Z</time>
      </trkpt>
      <trkpt lat="43.02545" lon="0.57199">
        <ele>470</ele>
        <time>2018-03-18T08:11:05.000Z</time>
      </trkpt>
      <trkpt lat="43.02545" lon="0.57199">
        <ele>470</ele>
        <time>2018-03-18T08:11:07.000Z</time>
      </trkpt>
      <trkpt lat="43.02546" lon="0.57199">
        <ele>470</ele>
        <time>2018-03-18T08:11:09.000Z</time>
      </trkpt>
      <trkpt lat="43.02546" lon="0.572">
        <ele>470</ele>
        <time>2018-03-18T08:11:11.000Z</time>
      </trkpt>
      <trkpt lat="43.02546" lon="0.572">
        <ele>470</ele>
        <time>2018-03-18T08:11:13.000Z</time>
      </trkpt>
      <trkpt lat="43.02545" lon="0.572">
        <ele>470</ele>
        <time>2018-03-18T08:11:15.000Z</time>
      </trkpt>
      <trkpt lat="43.02545" lon="0.57199">
        <ele>470</ele>
        <time>2018-03-18T08:11:17.000Z</time>
      </trkpt>
      <trkpt lat="43.02545" lon="0.57199">
        <ele>470</ele>
        <time>2018-03-18T08:11:19.000Z</time>
      </trkpt>
      <trkpt lat="43.02545" lon="0.57199">
        <ele>470</ele>
        <time>2018-03-18T08:11:21.000Z</time>
      </trkpt>
      <trkpt lat="43.02545" lon="0.57199">
        <ele>470</ele>
        <time>2018-03-18T08:11:23.000Z</time>
      </trkpt>
      <trkpt lat="43.02546" lon="0.57201">
        <ele>470</ele>
        <time>2018-03-18T08:11:25.000Z</time>
      </trkpt>
      <trkpt lat="43.02546" lon="0.57204">
        <ele>469</ele>
        <time>2018-03-18T08:11:27.000Z</time>
      </trkpt>
      <trkpt lat="43.02548" lon="0.57207">
        <ele>469</ele>
        <time>2018-03-18T08:11:29.000Z</time>
      </trkpt>
      <trkpt lat="43.02549" lon="0.5721">
        <ele>469</ele>
        <time>2018-03-18T08:11:31.000Z</time>
      </trkpt>
      <trkpt lat="43.02549" lon="0.57214">
        <ele>469</ele>
        <time>2018-03-18T08:11:33.000Z</time>
      </trkpt>
      <trkpt lat="43.02551" lon="0.57217">
        <ele>469</ele>
        <time>2018-03-18T08:11:35.000Z</time>
      </trkpt>
      <trkpt lat="43.02551" lon="0.5722">
        <ele>469</ele>
        <time>2018-03-18T08:11:37.000Z</time>
      </trkpt>
      <trkpt lat="43.02552" lon="0.57223">
        <ele>469</ele>
        <time>2018-03-18T08:11:39.000Z</time>
      </trkpt>
      <trkpt lat="43.02553" lon="0.57225">
        <ele>469</ele>
        <time>2018-03-18T08:11:41.000Z</time>
      </trkpt>
      <trkpt lat="43.02554" lon="0.57228">
        <ele>468</ele>
        <time>2018-03-18T08:11:43.000Z</time>
      </trkpt>
      <trkpt lat="43.02555" lon="0.57231">
        <ele>468</ele>
        <time>2018-03-18T08:11:45.000Z</time>
      </trkpt>
      <trkpt lat="43.02555" lon="0.57235">
        <ele>468</ele>
        <time>2018-03-18T08:11:47.000Z</time>
      </trkpt>
      <trkpt lat="43.02556" lon="0.57238">
        <ele>468</ele>
        <time>2018-03-18T08:11:49.000Z</time>
      </trkpt>
      <trkpt lat="43.02557" lon="0.57242">
        <ele>468</ele>
        <time>2018-03-18T08:11:51.000Z</time>
      </trkpt>
      <trkpt lat="43.02557" lon="0.57245">
        <ele>467</ele>
        <time>2018-03-18T08:11:53.000Z</time>
      </trkpt>
      <trkpt lat="43.02559" lon="0.57248">
        <ele>467</ele>
        <time>2018-03-18T08:11:55.000Z</time>
      </trkpt>
      <trkpt lat="43.0256" lon="0.57252">
        <ele>467</ele>
        <time>2018-03-18T08:11:57.000Z</time>
      </trkpt>
      <trkpt lat="43.02561" lon="0.57254">
        <ele>467</ele>
        <time>2018-03-18T08:11:59.000Z</time>
      </trkpt>
      <trkpt lat="43.02562" lon="0.57257">
        <ele>467</ele>
        <time>2018-03-18T08:12:01.000Z</time>
      </trkpt>
      <trkpt lat="43.02562" lon="0.57259">
        <ele>467</ele>
        <time>2018-03-18T08:12:03.000Z</time>
      </trkpt>
      <trkpt lat="43.02562" lon="0.57261">
        <ele>466</ele>
        <time>2018-03-18T08:12:05.000Z</time>
      </trkpt>
      <trkpt lat="43.02562" lon="0.57263">
        <ele>466</ele>
        <time>2018-03-18T08:12:07.000Z</time>
      </trkpt>
      <trkpt lat="43.02563" lon="0.57264">
        <ele>466</ele>
        <time>2018-03-18T08:12:09.000Z</time>
      </trkpt>
      <trkpt lat="43.02563" lon="0.57266">
        <ele>466</ele>
        <time>2018-03-18T08:12:11.000Z</time>
      </trkpt>
      <trkpt lat="43.02562" lon="0.57268">
        <ele>466</ele>
        <time>2018-03-18T08:12:13.000Z</time>
      </trkpt>
      <trkpt lat="43.02559" lon="0.57269">
        <ele>466</ele>
        <time>2018-03-18T08:12:15.000Z</time>
      </trkpt>
      <trkpt lat="43.02556" lon="0.57269">
        <ele>466</ele>
        <time>2018-03-18T08:12:17.000Z</time>
      </trkpt>
      <trkpt lat="43.02553" lon="0.57269">
        <ele>466</ele>
        <time>2018-03-18T08:12:19.000Z</time>
      </trkpt>
      <trkpt lat="43.02551" lon="0.57269">
        <ele>466</ele>
        <time>2018-03-18T08:12:21.000Z</time>
      </trkpt>
      <trkpt lat="43.02549" lon="0.57269">
        <ele>466</ele>
        <time>2018-03-18T08:12:23.000Z</time>
      </trkpt>
      <trkpt lat="43.02546" lon="0.5727">
        <ele>466</ele>
        <time>2018-03-18T08:12:25.000Z</time>
      </trkpt>
      <trkpt lat="43.02545" lon="0.5727">
        <ele>466</ele>
        <time>2018-03-18T08:12:27.000Z</time>
      </trkpt>
      <trkpt lat="43.02543" lon="0.5727">
        <ele>466</ele>
        <time>2018-03-18T08:12:29.000Z</time>
      </trkpt>
      <trkpt lat="43.02541" lon="0.5727">
        <ele>466</ele>
        <time>2018-03-18T08:12:31.000Z</time>
      </trkpt>
      <trkpt lat="43.02539" lon="0.57271">
        <ele>466</ele>
        <time>2018-03-18T08:12:33.000Z</time>
      </trkpt>
      <trkpt lat="43.02537" lon="0.57272">
        <ele>466</ele>
        <time>2018-03-18T08:12:35.000Z</time>
      </trkpt>
      <trkpt lat="43.02535" lon="0.57273">
        <ele>466</ele>
        <time>2018-03-18T08:12:37.000Z</time>
      </trkpt>
      <trkpt lat="43.02533" lon="0.57274">
        <ele>466</ele>
        <time>2018-03-18T08:12:39.000Z</time>
      </trkpt>
      <trkpt lat="43.02531" lon="0.57275">
        <ele>466</ele>
        <time>2018-03-18T08:12:41.000Z</time>
      </trkpt>
      <trkpt lat="43.0253" lon="0.57276">
        <ele>466</ele>
        <time>2018-03-18T08:12:43.000Z</time>
      </trkpt>
      <trkpt lat="43.02528" lon="0.57276">
        <ele>466</ele>
        <time>2018-03-18T08:12:45.000Z</time>
      </trkpt>
      <trkpt lat="43.02526" lon="0.57277">
        <ele>466</ele>
        <time>2018-03-18T08:12:47.000Z</time>
      </trkpt>
      <trkpt lat="43.02523" lon="0.57278">
        <ele>466</ele>
        <time>2018-03-18T08:12:49.000Z</time>
      </trkpt>
      <trkpt lat="43.0252" lon="0.57279">
        <ele>466</ele>
        <time>2018-03-18T08:12:51.000Z</time>
      </trkpt>
      <trkpt lat="43.02515" lon="0.5728">
        <ele>466</ele>
        <time>2018-03-18T08:12:53.000Z</time>
      </trkpt>
      <trkpt lat="43.02513" lon="0.57281">
        <ele>466</ele>
        <time>2018-03-18T08:12:55.000Z</time>
      </trkpt>
      <trkpt lat="43.0251" lon="0.57281">
        <ele>467</ele>
        <time>2018-03-18T08:12:57.000Z</time>
      </trkpt>
      <trkpt lat="43.02508" lon="0.57282">
        <ele>467</ele>
        <time>2018-03-18T08:12:59.000Z</time>
      </trkpt>
      <trkpt lat="43.02505" lon="0.57282">
        <ele>467</ele>
        <time>2018-03-18T08:13:01.000Z</time>
      </trkpt>
      <trkpt lat="43.02503" lon="0.57283">
        <ele>468</ele>
        <time>2018-03-18T08:13:03.000Z</time>
      </trkpt>
      <trkpt lat="43.025" lon="0.57283">
        <ele>468</ele>
        <time>2018-03-18T08:13:05.000Z</time>
      </trkpt>
      <trkpt lat="43.02498" lon="0.57284">
        <ele>468</ele>
        <time>2018-03-18T08:13:07.000Z</time>
      </trkpt>
      <trkpt lat="43.02495" lon="0.57285">
        <ele>469</ele>
        <time>2018-03-18T08:13:09.000Z</time>
      </trkpt>
      <trkpt lat="43.02492" lon="0.57286">
        <ele>469</ele>
        <time>2018-03-18T08:13:11.000Z</time>
      </trkpt>
      <trkpt lat="43.0249" lon="0.57287">
        <ele>469</ele>
        <time>2018-03-18T08:13:13.000Z</time>
      </trkpt>
      <trkpt lat="43.02488" lon="0.57288">
        <ele>469</ele>
        <time>2018-03-18T08:13:15.000Z</time>
      </trkpt>
      <trkpt lat="43.02486" lon="0.57288">
        <ele>469</ele>
        <time>2018-03-18T08:13:17.000Z</time>
      </trkpt>
      <trkpt lat="43.02485" lon="0.57288">
        <ele>469</ele>
        <time>2018-03-18T08:13:19.000Z</time>
      </trkpt>
      <trkpt lat="43.02484" lon="0.57289">
        <ele>469</ele>
        <time>2018-03-18T08:13:21.000Z</time>
      </trkpt>
      <trkpt lat="43.02482" lon="0.57289">
        <ele>469</ele>
        <time>2018-03-18T08:13:23.000Z</time>
      </trkpt>
      <trkpt lat="43.0248" lon="0.5729">
        <ele>469</ele>
        <time>2018-03-18T08:13:25.000Z</time>
      </trkpt>
      <trkpt lat="43.02479" lon="0.5729">
        <ele>469</ele>
        <time>2018-03-18T08:13:27.000Z</time>
      </trkpt>
      <trkpt lat="43.02477" lon="0.5729">
        <ele>469</ele>
        <time>2018-03-18T08:13:29.000Z</time>
      </trkpt>
      <trkpt lat="43.02476" lon="0.57291">
        <ele>469</ele>
        <time>2018-03-18T08:13:31.000Z</time>
      </trkpt>
      <trkpt lat="43.02474" lon="0.57291">
        <ele>469</ele>
        <time>2018-03-18T08:13:33.000Z</time>
      </trkpt>
      <trkpt lat="43.02472" lon="0.57291">
        <ele>469</ele>
        <time>2018-03-18T08:13:35.000Z</time>
      </trkpt>
      <trkpt lat="43.0247" lon="0.57291">
        <ele>469</ele>
        <time>2018-03-18T08:13:37.000Z</time>
      </trkpt>
      <trkpt lat="43.02468" lon="0.57291">
        <ele>469</ele>
        <time>2018-03-18T08:13:39.000Z</time>
      </trkpt>
      <trkpt lat="43.02466" lon="0.57291">
        <ele>469</ele>
        <time>2018-03-18T08:13:41.000Z</time>
      </trkpt>
      <trkpt lat="43.02464" lon="0.57291">
        <ele>469</ele>
        <time>2018-03-18T08:13:43.000Z</time>
      </trkpt>
      <trkpt lat="43.02463" lon="0.57291">
        <ele>469</ele>
        <time>2018-03-18T08:13:45.000Z</time>
      </trkpt>
      <trkpt lat="43.02462" lon="0.57291">
        <ele>469</ele>
        <time>2018-03-18T08:13:47.000Z</time>
      </trkpt>
      <trkpt lat="43.02461" lon="0.57291">
        <ele>469</ele>
        <time>2018-03-18T08:13:49.000Z</time>
      </trkpt>
      <trkpt lat="43.0246" lon="0.57291">
        <ele>469</ele>
        <time>2018-03-18T08:13:51.000Z</time>
      </trkpt>
      <trkpt lat="43.02459" lon="0.5729">
        <ele>470</ele>
        <time>2018-03-18T08:13:53.000Z</time>
      </trkpt>
      <trkpt lat="43.02458" lon="0.57289">
        <ele>470</ele>
        <time>2018-03-18T08:13:55.000Z</time>
      </trkpt>
      <trkpt lat="43.02456" lon="0.57288">
        <ele>470</ele>
        <time>2018-03-18T08:13:57.000Z</time>
      </trkpt>
      <trkpt lat="43.02454" lon="0.57288">
        <ele>470</ele>
        <time>2018-03-18T08:13:59.000Z</time>
      </trkpt>
      <trkpt lat="43.02453" lon="0.57289">
        <ele>470</ele>
        <time>2018-03-18T08:14:01.000Z</time>
      </trkpt>
      <trkpt lat="43.02452" lon="0.57288">
        <ele>470</ele>
        <time>2018-03-18T08:14:03.000Z</time>
      </trkpt>
      <trkpt lat="43.02451" lon="0.57288">
        <ele>470</ele>
        <time>2018-03-18T08:14:05.000Z</time>
      </trkpt>
      <trkpt lat="43.0245" lon="0.57287">
        <ele>470</ele>
        <time>2018-03-18T08:14:07.000Z</time>
      </trkpt>
      <trkpt lat="43.0245" lon="0.57286">
        <ele>470</ele>
        <time>2018-03-18T08:14:09.000Z</time>
      </trkpt>
      <trkpt lat="43.0245" lon="0.57286">
        <ele>470</ele>
        <time>2018-03-18T08:14:11.000Z</time>
      </trkpt>
      <trkpt lat="43.0245" lon="0.57286">
        <ele>470</ele>
        <time>2018-03-18T08:14:13.000Z</time>
      </trkpt>
      <trkpt lat="43.0245" lon="0.57285">
        <ele>470</ele>
        <time>2018-03-18T08:14:15.000Z</time>
      </trkpt>
      <trkpt lat="43.0245" lon="0.57286">
        <ele>470</ele>
        <time>2018-03-18T08:14:17.000Z</time>
      </trkpt>
      <trkpt lat="43.0245" lon="0.57286">
        <ele>470</ele>
        <time>2018-03-18T08:14:19.000Z</time>
      </trkpt>
      <trkpt lat="43.0245" lon="0.57286">
        <ele>470</ele>
        <time>2018-03-18T08:14:21.000Z</time>
      </trkpt>
      <trkpt lat="43.0245" lon="0.57286">
        <ele>470</ele>
        <time>2018-03-18T08:14:23.000Z</time>
      </trkpt>
      <trkpt lat="43.02451" lon="0.57286">
        <ele>470</ele>
        <time>2018-03-18T08:14:25.000Z</time>
      </trkpt>
      <trkpt lat="43.02451" lon="0.57285">
        <ele>470</ele>
        <time>2018-03-18T08:14:27.000Z</time>
      </trkpt>
      <trkpt lat="43.02451" lon="0.57285">
        <ele>470</ele>
        <time>2018-03-18T08:14:29.000Z</time>
      </trkpt>
      <trkpt lat="43.02451" lon="0.57285">
        <ele>470</ele>
        <time>2018-03-18T08:14:31.000Z</time>
      </trkpt>
      <trkpt lat="43.0245" lon="0.57285">
        <ele>470</ele>
        <time>2018-03-18T08:14:33.000Z</time>
      </trkpt>
      <trkpt lat="43.0245" lon="0.57285">
        <ele>470</ele>
        <time>2018-03-18T08:14:35.000Z</time>
      </trkpt>
      <trkpt lat="43.0245" lon="0.57285">
        <ele>470</ele>
        <time>2018-03-18T08:14:37.000Z</time>
      </trkpt>
      <trkpt lat="43.02449" lon="0.57285">
        <ele>470</ele>
        <time>2018-03-18T08:14:39.000Z</time>
      </trkpt>
      <trkpt lat="43.02449" lon="0.57285">
        <ele>470</ele>
        <time>2018-03-18T08:14:41.000Z</time>
      </trkpt>
      <trkpt lat="43.0245" lon="0.57285">
        <ele>470</ele>
        <time>2018-03-18T08:14:43.000Z</time>
      </trkpt>
      <trkpt lat="43.02451" lon="0.57285">
        <ele>470</ele>
        <time>2018-03-18T08:14:45.000Z</time>
      </trkpt>
      <trkpt lat="43.0245" lon="0.57284">
        <ele>470</ele>
        <time>2018-03-18T08:14:47.000Z</time>
      </trkpt>
      <trkpt lat="43.02447" lon="0.57282">
        <ele>471</ele>
        <time>2018-03-18T08:14:49.000Z</time>
      </trkpt>
      <trkpt lat="43.02446" lon="0.5728">
        <ele>471</ele>
        <time>2018-03-18T08:14:51.000Z</time>
      </trkpt>
      <trkpt lat="43.02445" lon="0.57278">
        <ele>471</ele>
        <time>2018-03-18T08:14:53.000Z</time>
      </trkpt>
      <trkpt lat="43.02445" lon="0.57275">
        <ele>472</ele>
        <time>2018-03-18T08:14:55.000Z</time>
      </trkpt>
      <trkpt lat="43.02444" lon="0.57273">
        <ele>472</ele>
        <time>2018-03-18T08:14:57.000Z</time>
      </trkpt>
      <trkpt lat="43.02444" lon="0.57271">
        <ele>472</ele>
        <time>2018-03-18T08:14:59.000Z</time>
      </trkpt>
      <trkpt lat="43.02444" lon="0.57269">
        <ele>472</ele>
        <time>2018-03-18T08:15:01.000Z</time>
      </trkpt>
      <trkpt lat="43.02444" lon="0.57267">
        <ele>473</ele>
        <time>2018-03-18T08:15:03.000Z</time>
      </trkpt>
      <trkpt lat="43.02444" lon="0.57265">
        <ele>473</ele>
        <time>2018-03-18T08:15:05.000Z</time>
      </trkpt>
      <trkpt lat="43.02444" lon="0.57262">
        <ele>473</ele>
        <time>2018-03-18T08:15:07.000Z</time>
      </trkpt>
      <trkpt lat="43.02444" lon="0.57259">
        <ele>474</ele>
        <time>2018-03-18T08:15:09.000Z</time>
      </trkpt>
      <trkpt lat="43.02444" lon="0.57255">
        <ele>474</ele>
        <time>2018-03-18T08:15:11.000Z</time>
      </trkpt>
      <trkpt lat="43.02444" lon="0.57253">
        <ele>474</ele>
        <time>2018-03-18T08:15:13.000Z</time>
      </trkpt>
      <trkpt lat="43.02443" lon="0.57249">
        <ele>475</ele>
        <time>2018-03-18T08:15:15.000Z</time>
      </trkpt>
      <trkpt lat="43.02442" lon="0.57247">
        <ele>475</ele>
        <time>2018-03-18T08:15:17.000Z</time>
      </trkpt>
      <trkpt lat="43.02441" lon="0.57244">
        <ele>475</ele>
        <time>2018-03-18T08:15:19.000Z</time>
      </trkpt>
      <trkpt lat="43.02441" lon="0.57242">
        <ele>476</ele>
        <time>2018-03-18T08:15:21.000Z</time>
      </trkpt>
      <trkpt lat="43.0244" lon="0.5724">
        <ele>476</ele>
        <time>2018-03-18T08:15:23.000Z</time>
      </trkpt>
      <trkpt lat="43.0244" lon="0.57238">
        <ele>476</ele>
        <time>2018-03-18T08:15:25.000Z</time>
      </trkpt>
      <trkpt lat="43.0244" lon="0.57237">
        <ele>476</ele>
        <time>2018-03-18T08:15:27.000Z</time>
      </trkpt>
      <trkpt lat="43.0244" lon="0.57235">
        <ele>477</ele>
        <time>2018-03-18T08:15:29.000Z</time>
      </trkpt>
      <trkpt lat="43.02441" lon="0.57233">
        <ele>477</ele>
        <time>2018-03-18T08:15:31.000Z</time>
      </trkpt>
      <trkpt lat="43.02441" lon="0.57231">
        <ele>477</ele>
        <time>2018-03-18T08:15:33.000Z</time>
      </trkpt>
      <trkpt lat="43.0244" lon="0.57228">
        <ele>477</ele>
        <time>2018-03-18T08:15:35.000Z</time>
      </trkpt>
      <trkpt lat="43.02441" lon="0.57227">
        <ele>477</ele>
        <time>2018-03-18T08:15:37.000Z</time>
      </trkpt>
      <trkpt lat="43.02441" lon="0.57225">
        <ele>477</ele>
        <time>2018-03-18T08:15:39.000Z</time>
      </trkpt>
      <trkpt lat="43.02441" lon="0.57223">
        <ele>476</ele>
        <time>2018-03-18T08:15:41.000Z</time>
      </trkpt>
      <trkpt lat="43.02441" lon="0.57221">
        <ele>476</ele>
        <time>2018-03-18T08:15:43.000Z</time>
      </trkpt>
      <trkpt lat="43.0244" lon="0.57219">
        <ele>477</ele>
        <time>2018-03-18T08:15:45.000Z</time>
      </trkpt>
      <trkpt lat="43.0244" lon="0.57216">
        <ele>477</ele>
        <time>2018-03-18T08:15:47.000Z</time>
      </trkpt>
      <trkpt lat="43.0244" lon="0.57214">
        <ele>478</ele>
        <time>2018-03-18T08:15:49.000Z</time>
      </trkpt>
      <trkpt lat="43.02439" lon="0.57212">
        <ele>478</ele>
        <time>2018-03-18T08:15:51.000Z</time>
      </trkpt>
      <trkpt lat="43.02438" lon="0.5721">
        <ele>479</ele>
        <time>2018-03-18T08:15:53.000Z</time>
      </trkpt>
      <trkpt lat="43.02438" lon="0.57208">
        <ele>479</ele>
        <time>2018-03-18T08:15:55.000Z</time>
      </trkpt>
      <trkpt lat="43.02438" lon="0.57206">
        <ele>480</ele>
        <time>2018-03-18T08:15:57.000Z</time>
      </trkpt>
      <trkpt lat="43.02438" lon="0.57204">
        <ele>481</ele>
        <time>2018-03-18T08:15:59.000Z</time>
      </trkpt>
      <trkpt lat="43.02438" lon="0.57202">
        <ele>481</ele>
        <time>2018-03-18T08:16:01.000Z</time>
      </trkpt>
      <trkpt lat="43.02438" lon="0.57201">
        <ele>481</ele>
        <time>2018-03-18T08:16:03.000Z</time>
      </trkpt>
      <trkpt lat="43.02438" lon="0.57198">
        <ele>482</ele>
        <time>2018-03-18T08:16:05.000Z</time>
      </trkpt>
      <trkpt lat="43.02437" lon="0.57197">
        <ele>483</ele>
        <time>2018-03-18T08:16:07.000Z</time>
      </trkpt>
      <trkpt lat="43.02437" lon="0.57195">
        <ele>483</ele>
        <time>2018-03-18T08:16:09.000Z</time>
      </trkpt>
      <trkpt lat="43.02436" lon="0.57193">
        <ele>484</ele>
        <time>2018-03-18T08:16:11.000Z</time>
      </trkpt>
      <trkpt lat="43.02435" lon="0.57191">
        <ele>484</ele>
        <time>2018-03-18T08:16:13.000Z</time>
      </trkpt>
      <trkpt lat="43.02436" lon="0.57188">
        <ele>485</ele>
        <time>2018-03-18T08:16:15.000Z</time>
      </trkpt>
      <trkpt lat="43.02436" lon="0.57186">
        <ele>486</ele>
        <time>2018-03-18T08:16:17.000Z</time>
      </trkpt>
      <trkpt lat="43.02437" lon="0.57183">
        <ele>486</ele>
        <time>2018-03-18T08:16:19.000Z</time>
      </trkpt>
      <trkpt lat="43.02437" lon="0.5718">
        <ele>487</ele>
        <time>2018-03-18T08:16:21.000Z</time>
      </trkpt>
      <trkpt lat="43.02437" lon="0.57178">
        <ele>487</ele>
        <time>2018-03-18T08:16:23.000Z</time>
      </trkpt>
      <trkpt lat="43.02438" lon="0.57176">
        <ele>488</ele>
        <time>2018-03-18T08:16:25.000Z</time>
      </trkpt>
      <trkpt lat="43.02438" lon="0.57173">
        <ele>489</ele>
        <time>2018-03-18T08:16:27.000Z</time>
      </trkpt>
      <trkpt lat="43.0244" lon="0.5717">
        <ele>489</ele>
        <time>2018-03-18T08:16:29.000Z</time>
      </trkpt>
      <trkpt lat="43.02441" lon="0.57168">
        <ele>490</ele>
        <time>2018-03-18T08:16:31.000Z</time>
      </trkpt>
      <trkpt lat="43.02441" lon="0.57166">
        <ele>490</ele>
        <time>2018-03-18T08:16:33.000Z</time>
      </trkpt>
      <trkpt lat="43.02441" lon="0.57164">
        <ele>491</ele>
        <time>2018-03-18T08:16:35.000Z</time>
      </trkpt>
      <trkpt lat="43.0244" lon="0.57162">
        <ele>491</ele>
        <time>2018-03-18T08:16:37.000Z</time>
      </trkpt>
      <trkpt lat="43.02441" lon="0.5716">
        <ele>492</ele>
        <time>2018-03-18T08:16:39.000Z</time>
      </trkpt>
      <trkpt lat="43.0244" lon="0.57158">
        <ele>492</ele>
        <time>2018-03-18T08:16:41.000Z</time>
      </trkpt>
      <trkpt lat="43.02441" lon="0.57158">
        <ele>492</ele>
        <time>2018-03-18T08:16:43.000Z</time>
      </trkpt>
      <trkpt lat="43.02442" lon="0.57157">
        <ele>492</ele>
        <time>2018-03-18T08:16:45.000Z</time>
      </trkpt>
      <trkpt lat="43.02443" lon="0.57157">
        <ele>492</ele>
        <time>2018-03-18T08:16:47.000Z</time>
      </trkpt>
      <trkpt lat="43.02443" lon="0.57157">
        <ele>492</ele>
        <time>2018-03-18T08:16:49.000Z</time>
      </trkpt>
      <trkpt lat="43.02444" lon="0.57157">
        <ele>492</ele>
        <time>2018-03-18T08:16:51.000Z</time>
      </trkpt>
      <trkpt lat="43.02444" lon="0.57158">
        <ele>492</ele>
        <time>2018-03-18T08:16:53.000Z</time>
      </trkpt>
      <trkpt lat="43.02443" lon="0.57158">
        <ele>492</ele>
        <time>2018-03-18T08:16:55.000Z</time>
      </trkpt>
      <trkpt lat="43.02443" lon="0.57157">
        <ele>492</ele>
        <time>2018-03-18T08:16:57.000Z</time>
      </trkpt>
      <trkpt lat="43.02442" lon="0.57156">
        <ele>493</ele>
        <time>2018-03-18T08:16:59.000Z</time>
      </trkpt>
      <trkpt lat="43.02441" lon="0.57155">
        <ele>493</ele>
        <time>2018-03-18T08:17:01.000Z</time>
      </trkpt>
      <trkpt lat="43.02442" lon="0.57154">
        <ele>493</ele>
        <time>2018-03-18T08:17:03.000Z</time>
      </trkpt>
      <trkpt lat="43.02442" lon="0.57152">
        <ele>494</ele>
        <time>2018-03-18T08:17:05.000Z</time>
      </trkpt>
      <trkpt lat="43.02442" lon="0.57149">
        <ele>494</ele>
        <time>2018-03-18T08:17:07.000Z</time>
      </trkpt>
      <trkpt lat="43.02443" lon="0.57147">
        <ele>494</ele>
        <time>2018-03-18T08:17:09.000Z</time>
      </trkpt>
      <trkpt lat="43.02443" lon="0.57145">
        <ele>494</ele>
        <time>2018-03-18T08:17:11.000Z</time>
      </trkpt>
      <trkpt lat="43.02442" lon="0.57143">
        <ele>494</ele>
        <time>2018-03-18T08:17:13.000Z</time>
      </trkpt>
      <trkpt lat="43.02441" lon="0.57141">
        <ele>495</ele>
        <time>2018-03-18T08:17:15.000Z</time>
      </trkpt>
      <trkpt lat="43.02441" lon="0.5714">
        <ele>495</ele>
        <time>2018-03-18T08:17:17.000Z</time>
      </trkpt>
      <trkpt lat="43.02441" lon="0.57138">
        <ele>495</ele>
        <time>2018-03-18T08:17:19.000Z</time>
      </trkpt>
      <trkpt lat="43.0244" lon="0.57137">
        <ele>496</ele>
        <time>2018-03-18T08:17:21.000Z</time>
      </trkpt>
      <trkpt lat="43.0244" lon="0.57136">
        <ele>496</ele>
        <time>2018-03-18T08:17:23.000Z</time>
      </trkpt>
      <trkpt lat="43.02441" lon="0.57134">
        <ele>495</ele>
        <time>2018-03-18T08:17:25.000Z</time>
      </trkpt>
      <trkpt lat="43.02441" lon="0.57132">
        <ele>496</ele>
        <time>2018-03-18T08:17:27.000Z</time>
      </trkpt>
      <trkpt lat="43.02442" lon="0.57131">
        <ele>495</ele>
        <time>2018-03-18T08:17:29.000Z</time>
      </trkpt>
      <trkpt lat="43.02442" lon="0.57129">
        <ele>496</ele>
        <time>2018-03-18T08:17:31.000Z</time>
      </trkpt>
      <trkpt lat="43.02442" lon="0.57128">
        <ele>496</ele>
        <time>2018-03-18T08:17:33.000Z</time>
      </trkpt>
      <trkpt lat="43.02443" lon="0.57127">
        <ele>496</ele>
        <time>2018-03-18T08:17:35.000Z</time>
      </trkpt>
      <trkpt lat="43.02441" lon="0.57126">
        <ele>497</ele>
        <time>2018-03-18T08:17:37.000Z</time>
      </trkpt>
      <trkpt lat="43.0244" lon="0.57124">
        <ele>497</ele>
        <time>2018-03-18T08:17:39.000Z</time>
      </trkpt>
      <trkpt lat="43.02439" lon="0.57123">
        <ele>498</ele>
        <time>2018-03-18T08:17:41.000Z</time>
      </trkpt>
      <trkpt lat="43.02439" lon="0.57121">
        <ele>498</ele>
        <time>2018-03-18T08:17:43.000Z</time>
      </trkpt>
      <trkpt lat="43.02437" lon="0.57119">
        <ele>499</ele>
        <time>2018-03-18T08:17:45.000Z</time>
      </trkpt>
      <trkpt lat="43.02436" lon="0.57118">
        <ele>500</ele>
        <time>2018-03-18T08:17:47.000Z</time>
      </trkpt>
      <trkpt lat="43.02435" lon="0.57116">
        <ele>501</ele>
        <time>2018-03-18T08:17:49.000Z</time>
      </trkpt>
      <trkpt lat="43.02435" lon="0.57114">
        <ele>501</ele>
        <time>2018-03-18T08:17:51.000Z</time>
      </trkpt>
      <trkpt lat="43.02435" lon="0.57112">
        <ele>501</ele>
        <time>2018-03-18T08:17:53.000Z</time>
      </trkpt>
      <trkpt lat="43.02434" lon="0.5711">
        <ele>502</ele>
        <time>2018-03-18T08:17:55.000Z</time>
      </trkpt>
      <trkpt lat="43.02435" lon="0.57108">
        <ele>502</ele>
        <time>2018-03-18T08:17:57.000Z</time>
      </trkpt>
      <trkpt lat="43.02434" lon="0.57106">
        <ele>502</ele>
        <time>2018-03-18T08:17:59.000Z</time>
      </trkpt>
      <trkpt lat="43.02434" lon="0.57105">
        <ele>503</ele>
        <time>2018-03-18T08:18:01.000Z</time>
      </trkpt>
      <trkpt lat="43.02435" lon="0.57102">
        <ele>503</ele>
        <time>2018-03-18T08:18:03.000Z</time>
      </trkpt>
      <trkpt lat="43.02435" lon="0.571">
        <ele>503</ele>
        <time>2018-03-18T08:18:05.000Z</time>
      </trkpt>
      <trkpt lat="43.02438" lon="0.57099">
        <ele>502</ele>
        <time>2018-03-18T08:18:07.000Z</time>
      </trkpt>
      <trkpt lat="43.02438" lon="0.57097">
        <ele>503</ele>
        <time>2018-03-18T08:18:09.000Z</time>
      </trkpt>
      <trkpt lat="43.02439" lon="0.57096">
        <ele>502</ele>
        <time>2018-03-18T08:18:11.000Z</time>
      </trkpt>
      <trkpt lat="43.02438" lon="0.57095">
        <ele>503</ele>
        <time>2018-03-18T08:18:13.000Z</time>
      </trkpt>
      <trkpt lat="43.02437" lon="0.57093">
        <ele>504</ele>
        <time>2018-03-18T08:18:15.000Z</time>
      </trkpt>
      <trkpt lat="43.02438" lon="0.57092">
        <ele>504</ele>
        <time>2018-03-18T08:18:17.000Z</time>
      </trkpt>
      <trkpt lat="43.02439" lon="0.5709">
        <ele>503</ele>
        <time>2018-03-18T08:18:19.000Z</time>
      </trkpt>
      <trkpt lat="43.02438" lon="0.57089">
        <ele>504</ele>
        <time>2018-03-18T08:18:21.000Z</time>
      </trkpt>
      <trkpt lat="43.0244" lon="0.57088">
        <ele>503</ele>
        <time>2018-03-18T08:18:23.000Z</time>
      </trkpt>
      <trkpt lat="43.02438" lon="0.57087">
        <ele>504</ele>
        <time>2018-03-18T08:18:25.000Z</time>
      </trkpt>
      <trkpt lat="43.02438" lon="0.57087">
        <ele>504</ele>
        <time>2018-03-18T08:18:27.000Z</time>
      </trkpt>
      <trkpt lat="43.02441" lon="0.57085">
        <ele>504</ele>
        <time>2018-03-18T08:18:29.000Z</time>
      </trkpt>
      <trkpt lat="43.0244" lon="0.57084">
        <ele>504</ele>
        <time>2018-03-18T08:18:31.000Z</time>
      </trkpt>
      <trkpt lat="43.02439" lon="0.57084">
        <ele>504</ele>
        <time>2018-03-18T08:18:33.000Z</time>
      </trkpt>
      <trkpt lat="43.02439" lon="0.57083">
        <ele>505</ele>
        <time>2018-03-18T08:18:35.000Z</time>
      </trkpt>
      <trkpt lat="43.02439" lon="0.57082">
        <ele>505</ele>
        <time>2018-03-18T08:18:37.000Z</time>
      </trkpt>
      <trkpt lat="43.02439" lon="0.57082">
        <ele>505</ele>
        <time>2018-03-18T08:18:39.000Z</time>
      </trkpt>
      <trkpt lat="43.02439" lon="0.57082">
        <ele>505</ele>
        <time>2018-03-18T08:18:41.000Z</time>
      </trkpt>
      <trkpt lat="43.02437" lon="0.57082">
        <ele>505</ele>
        <time>2018-03-18T08:18:43.000Z</time>
      </trkpt>
      <trkpt lat="43.02435" lon="0.5708">
        <ele>506</ele>
        <time>2018-03-18T08:18:45.000Z</time>
      </trkpt>
      <trkpt lat="43.02435" lon="0.57079">
        <ele>507</ele>
        <time>2018-03-18T08:18:47.000Z</time>
      </trkpt>
      <trkpt lat="43.02434" lon="0.57077">
        <ele>507</ele>
        <time>2018-03-18T08:18:49.000Z</time>
      </trkpt>
      <trkpt lat="43.02433" lon="0.57076">
        <ele>508</ele>
        <time>2018-03-18T08:18:51.000Z</time>
      </trkpt>
      <trkpt lat="43.02433" lon="0.57075">
        <ele>508</ele>
        <time>2018-03-18T08:18:53.000Z</time>
      </trkpt>
      <trkpt lat="43.02433" lon="0.57074">
        <ele>508</ele>
        <time>2018-03-18T08:18:55.000Z</time>
      </trkpt>
      <trkpt lat="43.02433" lon="0.57072">
        <ele>509</ele>
        <time>2018-03-18T08:18:57.000Z</time>
      </trkpt>
      <trkpt lat="43.02436" lon="0.5707">
        <ele>508</ele>
        <time>2018-03-18T08:18:59.000Z</time>
      </trkpt>
      <trkpt lat="43.02435" lon="0.57069">
        <ele>508</ele>
        <time>2018-03-18T08:19:01.000Z</time>
      </trkpt>
      <trkpt lat="43.02435" lon="0.57067">
        <ele>509</ele>
        <time>2018-03-18T08:19:03.000Z</time>
      </trkpt>
      <trkpt lat="43.02434" lon="0.57066">
        <ele>509</ele>
        <time>2018-03-18T08:19:05.000Z</time>
      </trkpt>
      <trkpt lat="43.02434" lon="0.57065">
        <ele>510</ele>
        <time>2018-03-18T08:19:07.000Z</time>
      </trkpt>
      <trkpt lat="43.02433" lon="0.57064">
        <ele>510</ele>
        <time>2018-03-18T08:19:09.000Z</time>
      </trkpt>
      <trkpt lat="43.02433" lon="0.57062">
        <ele>510</ele>
        <time>2018-03-18T08:19:11.000Z</time>
      </trkpt>
      <trkpt lat="43.02433" lon="0.5706">
        <ele>511</ele>
        <time>2018-03-18T08:19:13.000Z</time>
      </trkpt>
      <trkpt lat="43.02433" lon="0.57058">
        <ele>511</ele>
        <time>2018-03-18T08:19:15.000Z</time>
      </trkpt>
      <trkpt lat="43.02432" lon="0.57057">
        <ele>512</ele>
        <time>2018-03-18T08:19:17.000Z</time>
      </trkpt>
      <trkpt lat="43.02432" lon="0.57055">
        <ele>511</ele>
        <time>2018-03-18T08:19:19.000Z</time>
      </trkpt>
      <trkpt lat="43.02431" lon="0.57054">
        <ele>512</ele>
        <time>2018-03-18T08:19:21.000Z</time>
      </trkpt>
      <trkpt lat="43.0243" lon="0.57052">
        <ele>513</ele>
        <time>2018-03-18T08:19:23.000Z</time>
      </trkpt>
      <trkpt lat="43.02431" lon="0.57051">
        <ele>512</ele>
        <time>2018-03-18T08:19:25.000Z</time>
      </trkpt>
      <trkpt lat="43.02431" lon="0.5705">
        <ele>512</ele>
        <time>2018-03-18T08:19:27.000Z</time>
      </trkpt>
      <trkpt lat="43.02432" lon="0.57049">
        <ele>512</ele>
        <time>2018-03-18T08:19:29.000Z</time>
      </trkpt>
      <trkpt lat="43.02429" lon="0.57049">
        <ele>513</ele>
        <time>2018-03-18T08:19:31.000Z</time>
      </trkpt>
      <trkpt lat="43.02429" lon="0.57049">
        <ele>513</ele>
        <time>2018-03-18T08:19:33.000Z</time>
      </trkpt>
      <trkpt lat="43.02429" lon="0.57048">
        <ele>513</ele>
        <time>2018-03-18T08:19:35.000Z</time>
      </trkpt>
      <trkpt lat="43.02431" lon="0.57046">
        <ele>512</ele>
        <time>2018-03-18T08:19:37.000Z</time>
      </trkpt>
      <trkpt lat="43.02429" lon="0.57046">
        <ele>514</ele>
        <time>2018-03-18T08:19:39.000Z</time>
      </trkpt>
      <trkpt lat="43.02429" lon="0.57044">
        <ele>514</ele>
        <time>2018-03-18T08:19:41.000Z</time>
      </trkpt>
      <trkpt lat="43.02427" lon="0.57044">
        <ele>515</ele>
        <time>2018-03-18T08:19:43.000Z</time>
      </trkpt>
      <trkpt lat="43.02428" lon="0.57044">
        <ele>515</ele>
        <time>2018-03-18T08:19:45.000Z</time>
      </trkpt>
      <trkpt lat="43.02427" lon="0.57044">
        <ele>515</ele>
        <time>2018-03-18T08:19:47.000Z</time>
      </trkpt>
      <trkpt lat="43.02426" lon="0.57043">
        <ele>516</ele>
        <time>2018-03-18T08:19:49.000Z</time>
      </trkpt>
      <trkpt lat="43.02427" lon="0.57043">
        <ele>515</ele>
        <time>2018-03-18T08:19:51.000Z</time>
      </trkpt>
      <trkpt lat="43.02426" lon="0.57043">
        <ele>515</ele>
        <time>2018-03-18T08:19:53.000Z</time>
      </trkpt>
      <trkpt lat="43.02426" lon="0.57043">
        <ele>515</ele>
        <time>2018-03-18T08:19:55.000Z</time>
      </trkpt>
      <trkpt lat="43.02427" lon="0.57043">
        <ele>515</ele>
        <time>2018-03-18T08:19:57.000Z</time>
      </trkpt>
      <trkpt lat="43.02428" lon="0.57043">
        <ele>514</ele>
        <time>2018-03-18T08:19:59.000Z</time>
      </trkpt>
      <trkpt lat="43.02429" lon="0.57043">
        <ele>514</ele>
        <time>2018-03-18T08:20:01.000Z</time>
      </trkpt>
      <trkpt lat="43.02428" lon="0.57042">
        <ele>514</ele>
        <time>2018-03-18T08:20:03.000Z</time>
      </trkpt>
      <trkpt lat="43.02431" lon="0.5704">
        <ele>513</ele>
        <time>2018-03-18T08:20:05.000Z</time>
      </trkpt>
      <trkpt lat="43.02431" lon="0.57038">
        <ele>513</ele>
        <time>2018-03-18T08:20:07.000Z</time>
      </trkpt>
      <trkpt lat="43.02431" lon="0.57037">
        <ele>513</ele>
        <time>2018-03-18T08:20:09.000Z</time>
      </trkpt>
      <trkpt lat="43.02431" lon="0.57036">
        <ele>514</ele>
        <time>2018-03-18T08:20:11.000Z</time>
      </trkpt>
      <trkpt lat="43.0243" lon="0.57035">
        <ele>514</ele>
        <time>2018-03-18T08:20:13.000Z</time>
      </trkpt>
      <trkpt lat="43.02429" lon="0.57036">
        <ele>515</ele>
        <time>2018-03-18T08:20:15.000Z</time>
      </trkpt>
      <trkpt lat="43.02428" lon="0.57036">
        <ele>515</ele>
        <time>2018-03-18T08:20:17.000Z</time>
      </trkpt>
      <trkpt lat="43.02428" lon="0.57038">
        <ele>515</ele>
        <time>2018-03-18T08:20:19.000Z</time>
      </trkpt>
      <trkpt lat="43.0243" lon="0.5704">
        <ele>514</ele>
        <time>2018-03-18T08:20:21.000Z</time>
      </trkpt>
      <trkpt lat="43.0243" lon="0.57042">
        <ele>513</ele>
        <time>2018-03-18T08:20:23.000Z</time>
      </trkpt>
      <trkpt lat="43.02429" lon="0.57044">
        <ele>514</ele>
        <time>2018-03-18T08:20:25.000Z</time>
      </trkpt>
      <trkpt lat="43.02429" lon="0.57046">
        <ele>514</ele>
        <time>2018-03-18T08:20:27.000Z</time>
      </trkpt>
      <trkpt lat="43.02428" lon="0.57047">
        <ele>514</ele>
        <time>2018-03-18T08:20:29.000Z</time>
      </trkpt>
      <trkpt lat="43.02429" lon="0.57045">
        <ele>514</ele>
        <time>2018-03-18T08:20:31.000Z</time>
      </trkpt>
      <trkpt lat="43.02428" lon="0.57047">
        <ele>514</ele>
        <time>2018-03-18T08:20:33.000Z</time>
      </trkpt>
      <trkpt lat="43.0243" lon="0.5705">
        <ele>513</ele>
        <time>2018-03-18T08:20:35.000Z</time>
      </trkpt>
      <trkpt lat="43.02429" lon="0.57052">
        <ele>513</ele>
        <time>2018-03-18T08:20:37.000Z</time>
      </trkpt>
      <trkpt lat="43.02427" lon="0.57054">
        <ele>514</ele>
        <time>2018-03-18T08:20:39.000Z</time>
      </trkpt>
      <trkpt lat="43.02426" lon="0.57056">
        <ele>514</ele>
        <time>2018-03-18T08:20:41.000Z</time>
      </trkpt>
      <trkpt lat="43.02426" lon="0.57058">
        <ele>514</ele>
        <time>2018-03-18T08:20:43.000Z</time>
      </trkpt>
      <trkpt lat="43.02426" lon="0.5706">
        <ele>513</ele>
        <time>2018-03-18T08:20:45.000Z</time>
      </trkpt>
      <trkpt lat="43.02427" lon="0.57062">
        <ele>513</ele>
        <time>2018-03-18T08:20:47.000Z</time>
      </trkpt>
      <trkpt lat="43.02427" lon="0.57063">
        <ele>512</ele>
        <time>2018-03-18T08:20:49.000Z</time>
      </trkpt>
      <trkpt lat="43.02428" lon="0.57064">
        <ele>512</ele>
        <time>2018-03-18T08:20:51.000Z</time>
      </trkpt>
      <trkpt lat="43.02428" lon="0.57066">
        <ele>512</ele>
        <time>2018-03-18T08:20:53.000Z</time>
      </trkpt>
      <trkpt lat="43.02427" lon="0.57068">
        <ele>512</ele>
        <time>2018-03-18T08:20:55.000Z</time>
      </trkpt>
      <trkpt lat="43.02426" lon="0.57069">
        <ele>512</ele>
        <time>2018-03-18T08:20:57.000Z</time>
      </trkpt>
      <trkpt lat="43.02425" lon="0.57071">
        <ele>512</ele>
        <time>2018-03-18T08:20:59.000Z</time>
      </trkpt>
      <trkpt lat="43.02425" lon="0.57073">
        <ele>512</ele>
        <time>2018-03-18T08:21:01.000Z</time>
      </trkpt>
      <trkpt lat="43.02424" lon="0.57074">
        <ele>512</ele>
        <time>2018-03-18T08:21:03.000Z</time>
      </trkpt>
      <trkpt lat="43.02423" lon="0.57076">
        <ele>512</ele>
        <time>2018-03-18T08:21:05.000Z</time>
      </trkpt>
      <trkpt lat="43.02423" lon="0.57077">
        <ele>512</ele>
        <time>2018-03-18T08:21:07.000Z</time>
      </trkpt>
      <trkpt lat="43.02423" lon="0.5708">
        <ele>511</ele>
        <time>2018-03-18T08:21:09.000Z</time>
      </trkpt>
      <trkpt lat="43.02423" lon="0.57081">
        <ele>511</ele>
        <time>2018-03-18T08:21:11.000Z</time>
      </trkpt>
      <trkpt lat="43.02423" lon="0.57083">
        <ele>511</ele>
        <time>2018-03-18T08:21:13.000Z</time>
      </trkpt>
      <trkpt lat="43.02423" lon="0.57085">
        <ele>510</ele>
        <time>2018-03-18T08:21:15.000Z</time>
      </trkpt>
      <trkpt lat="43.02422" lon="0.57087">
        <ele>510</ele>
        <time>2018-03-18T08:21:17.000Z</time>
      </trkpt>
      <trkpt lat="43.0242" lon="0.57089">
        <ele>511</ele>
        <time>2018-03-18T08:21:19.000Z</time>
      </trkpt>
      <trkpt lat="43.0242" lon="0.5709">
        <ele>511</ele>
        <time>2018-03-18T08:21:21.000Z</time>
      </trkpt>
      <trkpt lat="43.02421" lon="0.5709">
        <ele>510</ele>
        <time>2018-03-18T08:21:23.000Z</time>
      </trkpt>
      <trkpt lat="43.02421" lon="0.5709">
        <ele>510</ele>
        <time>2018-03-18T08:21:25.000Z</time>
      </trkpt>
      <trkpt lat="43.02422" lon="0.57089">
        <ele>510</ele>
        <time>2018-03-18T08:21:27.000Z</time>
      </trkpt>
      <trkpt lat="43.02424" lon="0.57089">
        <ele>509</ele>
        <time>2018-03-18T08:21:29.000Z</time>
      </trkpt>
      <trkpt lat="43.02425" lon="0.5709">
        <ele>509</ele>
        <time>2018-03-18T08:21:31.000Z</time>
      </trkpt>
      <trkpt lat="43.02425" lon="0.5709">
        <ele>509</ele>
        <time>2018-03-18T08:21:33.000Z</time>
      </trkpt>
      <trkpt lat="43.02423" lon="0.5709">
        <ele>509</ele>
        <time>2018-03-18T08:21:35.000Z</time>
      </trkpt>
      <trkpt lat="43.02421" lon="0.57091">
        <ele>510</ele>
        <time>2018-03-18T08:21:37.000Z</time>
      </trkpt>
      <trkpt lat="43.02419" lon="0.57092">
        <ele>511</ele>
        <time>2018-03-18T08:21:39.000Z</time>
      </trkpt>
      <trkpt lat="43.02417" lon="0.57092">
        <ele>511</ele>
        <time>2018-03-18T08:21:41.000Z</time>
      </trkpt>
      <trkpt lat="43.02416" lon="0.57093">
        <ele>512</ele>
        <time>2018-03-18T08:21:43.000Z</time>
      </trkpt>
      <trkpt lat="43.02415" lon="0.57093">
        <ele>512</ele>
        <time>2018-03-18T08:21:45.000Z</time>
      </trkpt>
      <trkpt lat="43.02414" lon="0.57094">
        <ele>513</ele>
        <time>2018-03-18T08:21:47.000Z</time>
      </trkpt>
      <trkpt lat="43.02414" lon="0.57095">
        <ele>512</ele>
        <time>2018-03-18T08:21:49.000Z</time>
      </trkpt>
      <trkpt lat="43.02414" lon="0.57098">
        <ele>512</ele>
        <time>2018-03-18T08:21:51.000Z</time>
      </trkpt>
      <trkpt lat="43.02414" lon="0.571">
        <ele>512</ele>
        <time>2018-03-18T08:21:53.000Z</time>
      </trkpt>
      <trkpt lat="43.02414" lon="0.57102">
        <ele>511</ele>
        <time>2018-03-18T08:21:55.000Z</time>
      </trkpt>
      <trkpt lat="43.02414" lon="0.57104">
        <ele>511</ele>
        <time>2018-03-18T08:21:57.000Z</time>
      </trkpt>
      <trkpt lat="43.02414" lon="0.57106">
        <ele>511</ele>
        <time>2018-03-18T08:21:59.000Z</time>
      </trkpt>
      <trkpt lat="43.02414" lon="0.57108">
        <ele>510</ele>
        <time>2018-03-18T08:22:01.000Z</time>
      </trkpt>
      <trkpt lat="43.02414" lon="0.57109">
        <ele>510</ele>
        <time>2018-03-18T08:22:03.000Z</time>
      </trkpt>
      <trkpt lat="43.02414" lon="0.5711">
        <ele>510</ele>
        <time>2018-03-18T08:22:05.000Z</time>
      </trkpt>
      <trkpt lat="43.02413" lon="0.57111">
        <ele>510</ele>
        <time>2018-03-18T08:22:07.000Z</time>
      </trkpt>
      <trkpt lat="43.02412" lon="0.57113">
        <ele>510</ele>
        <time>2018-03-18T08:22:09.000Z</time>
      </trkpt>
      <trkpt lat="43.02411" lon="0.57114">
        <ele>511</ele>
        <time>2018-03-18T08:22:11.000Z</time>
      </trkpt>
      <trkpt lat="43.02409" lon="0.57115">
        <ele>511</ele>
        <time>2018-03-18T08:22:13.000Z</time>
      </trkpt>
      <trkpt lat="43.02407" lon="0.57115">
        <ele>512</ele>
        <time>2018-03-18T08:22:15.000Z</time>
      </trkpt>
      <trkpt lat="43.02406" lon="0.57116">
        <ele>512</ele>
        <time>2018-03-18T08:22:17.000Z</time>
      </trkpt>
      <trkpt lat="43.02404" lon="0.57118">
        <ele>512</ele>
        <time>2018-03-18T08:22:19.000Z</time>
      </trkpt>
      <trkpt lat="43.02403" lon="0.57119">
        <ele>512</ele>
        <time>2018-03-18T08:22:21.000Z</time>
      </trkpt>
      <trkpt lat="43.02403" lon="0.5712">
        <ele>512</ele>
        <time>2018-03-18T08:22:23.000Z</time>
      </trkpt>
      <trkpt lat="43.02403" lon="0.57121">
        <ele>512</ele>
        <time>2018-03-18T08:22:25.000Z</time>
      </trkpt>
      <trkpt lat="43.02402" lon="0.57123">
        <ele>512</ele>
        <time>2018-03-18T08:22:27.000Z</time>
      </trkpt>
      <trkpt lat="43.02401" lon="0.57124">
        <ele>512</ele>
        <time>2018-03-18T08:22:29.000Z</time>
      </trkpt>
      <trkpt lat="43.024" lon="0.57125">
        <ele>512</ele>
        <time>2018-03-18T08:22:31.000Z</time>
      </trkpt>
      <trkpt lat="43.02398" lon="0.57125">
        <ele>512</ele>
        <time>2018-03-18T08:22:33.000Z</time>
      </trkpt>
      <trkpt lat="43.02398" lon="0.57126">
        <ele>512</ele>
        <time>2018-03-18T08:22:35.000Z</time>
      </trkpt>
      <trkpt lat="43.02396" lon="0.57127">
        <ele>513</ele>
        <time>2018-03-18T08:22:37.000Z</time>
      </trkpt>
      <trkpt lat="43.02396" lon="0.57128">
        <ele>512</ele>
        <time>2018-03-18T08:22:39.000Z</time>
      </trkpt>
      <trkpt lat="43.02395" lon="0.57129">
        <ele>512</ele>
        <time>2018-03-18T08:22:41.000Z</time>
      </trkpt>
      <trkpt lat="43.02394" lon="0.57128">
        <ele>513</ele>
        <time>2018-03-18T08:22:43.000Z</time>
      </trkpt>
      <trkpt lat="43.02394" lon="0.57128">
        <ele>513</ele>
        <time>2018-03-18T08:22:45.000Z</time>
      </trkpt>
      <trkpt lat="43.02392" lon="0.57129">
        <ele>513</ele>
        <time>2018-03-18T08:22:47.000Z</time>
      </trkpt>
      <trkpt lat="43.02392" lon="0.57129">
        <ele>513</ele>
        <time>2018-03-18T08:22:49.000Z</time>
      </trkpt>
      <trkpt lat="43.02392" lon="0.5713">
        <ele>513</ele>
        <time>2018-03-18T08:22:51.000Z</time>
      </trkpt>
      <trkpt lat="43.02391" lon="0.57132">
        <ele>513</ele>
        <time>2018-03-18T08:22:53.000Z</time>
      </trkpt>
      <trkpt lat="43.02391" lon="0.57133">
        <ele>513</ele>
        <time>2018-03-18T08:22:55.000Z</time>
      </trkpt>
      <trkpt lat="43.0239" lon="0.57134">
        <ele>512</ele>
        <time>2018-03-18T08:22:57.000Z</time>
      </trkpt>
      <trkpt lat="43.02388" lon="0.57136">
        <ele>513</ele>
        <time>2018-03-18T08:22:59.000Z</time>
      </trkpt>
      <trkpt lat="43.02387" lon="0.57138">
        <ele>512</ele>
        <time>2018-03-18T08:23:01.000Z</time>
      </trkpt>
      <trkpt lat="43.02386" lon="0.5714">
        <ele>512</ele>
        <time>2018-03-18T08:23:03.000Z</time>
      </trkpt>
      <trkpt lat="43.02386" lon="0.5714">
        <ele>512</ele>
        <time>2018-03-18T08:23:05.000Z</time>
      </trkpt>
      <trkpt lat="43.02386" lon="0.57141">
        <ele>512</ele>
        <time>2018-03-18T08:23:07.000Z</time>
      </trkpt>
      <trkpt lat="43.02385" lon="0.57141">
        <ele>512</ele>
        <time>2018-03-18T08:23:09.000Z</time>
      </trkpt>
      <trkpt lat="43.02384" lon="0.57141">
        <ele>513</ele>
        <time>2018-03-18T08:23:11.000Z</time>
      </trkpt>
      <trkpt lat="43.02383" lon="0.57141">
        <ele>513</ele>
        <time>2018-03-18T08:23:13.000Z</time>
      </trkpt>
      <trkpt lat="43.02383" lon="0.57141">
        <ele>513</ele>
        <time>2018-03-18T08:23:15.000Z</time>
      </trkpt>
      <trkpt lat="43.02382" lon="0.57142">
        <ele>513</ele>
        <time>2018-03-18T08:23:17.000Z</time>
      </trkpt>
      <trkpt lat="43.02382" lon="0.57142">
        <ele>513</ele>
        <time>2018-03-18T08:23:19.000Z</time>
      </trkpt>
      <trkpt lat="43.02383" lon="0.57141">
        <ele>513</ele>
        <time>2018-03-18T08:23:21.000Z</time>
      </trkpt>
      <trkpt lat="43.02383" lon="0.57141">
        <ele>513</ele>
        <time>2018-03-18T08:23:23.000Z</time>
      </trkpt>
      <trkpt lat="43.02383" lon="0.5714">
        <ele>513</ele>
        <time>2018-03-18T08:23:25.000Z</time>
      </trkpt>
      <trkpt lat="43.02384" lon="0.5714">
        <ele>513</ele>
        <time>2018-03-18T08:23:27.000Z</time>
      </trkpt>
      <trkpt lat="43.02384" lon="0.57139">
        <ele>513</ele>
        <time>2018-03-18T08:23:29.000Z</time>
      </trkpt>
      <trkpt lat="43.02384" lon="0.57137">
        <ele>514</ele>
        <time>2018-03-18T08:23:31.000Z</time>
      </trkpt>
      <trkpt lat="43.02383" lon="0.57136">
        <ele>515</ele>
        <time>2018-03-18T08:23:33.000Z</time>
      </trkpt>
      <trkpt lat="43.02382" lon="0.57135">
        <ele>515</ele>
        <time>2018-03-18T08:23:35.000Z</time>
      </trkpt>
      <trkpt lat="43.02382" lon="0.57134">
        <ele>515</ele>
        <time>2018-03-18T08:23:37.000Z</time>
      </trkpt>
      <trkpt lat="43.02381" lon="0.57133">
        <ele>516</ele>
        <time>2018-03-18T08:23:39.000Z</time>
      </trkpt>
      <trkpt lat="43.02381" lon="0.57132">
        <ele>516</ele>
        <time>2018-03-18T08:23:41.000Z</time>
      </trkpt>
      <trkpt lat="43.0238" lon="0.57133">
        <ele>516</ele>
        <time>2018-03-18T08:23:43.000Z</time>
      </trkpt>
      <trkpt lat="43.0238" lon="0.57134">
        <ele>516</ele>
        <time>2018-03-18T08:23:45.000Z</time>
      </trkpt>
      <trkpt lat="43.02379" lon="0.57134">
        <ele>516</ele>
        <time>2018-03-18T08:23:47.000Z</time>
      </trkpt>
      <trkpt lat="43.02379" lon="0.57134">
        <ele>516</ele>
        <time>2018-03-18T08:23:49.000Z</time>
      </trkpt>
      <trkpt lat="43.02379" lon="0.57135">
        <ele>516</ele>
        <time>2018-03-18T08:23:51.000Z</time>
      </trkpt>
      <trkpt lat="43.02379" lon="0.57135">
        <ele>516</ele>
        <time>2018-03-18T08:23:53.000Z</time>
      </trkpt>
      <trkpt lat="43.02379" lon="0.57136">
        <ele>516</ele>
        <time>2018-03-18T08:23:55.000Z</time>
      </trkpt>
      <trkpt lat="43.0238" lon="0.5714">
        <ele>515</ele>
        <time>2018-03-18T08:23:57.000Z</time>
      </trkpt>
      <trkpt lat="43.0238" lon="0.5714">
        <ele>514</ele>
        <time>2018-03-18T08:23:59.000Z</time>
      </trkpt>
      <trkpt lat="43.0238" lon="0.57139">
        <ele>514</ele>
        <time>2018-03-18T08:24:01.000Z</time>
      </trkpt>
      <trkpt lat="43.02381" lon="0.57139">
        <ele>514</ele>
        <time>2018-03-18T08:24:03.000Z</time>
      </trkpt>
      <trkpt lat="43.02381" lon="0.57138">
        <ele>515</ele>
        <time>2018-03-18T08:24:05.000Z</time>
      </trkpt>
      <trkpt lat="43.02381" lon="0.57136">
        <ele>515</ele>
        <time>2018-03-18T08:24:07.000Z</time>
      </trkpt>
      <trkpt lat="43.02382" lon="0.57135">
        <ele>515</ele>
        <time>2018-03-18T08:24:09.000Z</time>
      </trkpt>
      <trkpt lat="43.02382" lon="0.57134">
        <ele>515</ele>
        <time>2018-03-18T08:24:11.000Z</time>
      </trkpt>
      <trkpt lat="43.02384" lon="0.57132">
        <ele>515</ele>
        <time>2018-03-18T08:24:13.000Z</time>
      </trkpt>
      <trkpt lat="43.02385" lon="0.57131">
        <ele>515</ele>
        <time>2018-03-18T08:24:15.000Z</time>
      </trkpt>
      <trkpt lat="43.02384" lon="0.5713">
        <ele>515</ele>
        <time>2018-03-18T08:24:17.000Z</time>
      </trkpt>
      <trkpt lat="43.02384" lon="0.5713">
        <ele>515</ele>
        <time>2018-03-18T08:24:19.000Z</time>
      </trkpt>
      <trkpt lat="43.02385" lon="0.5713">
        <ele>515</ele>
        <time>2018-03-18T08:24:21.000Z</time>
      </trkpt>
      <trkpt lat="43.02385" lon="0.5713">
        <ele>515</ele>
        <time>2018-03-18T08:24:23.000Z</time>
      </trkpt>
      <trkpt lat="43.02386" lon="0.5713">
        <ele>515</ele>
        <time>2018-03-18T08:24:25.000Z</time>
      </trkpt>
      <trkpt lat="43.02386" lon="0.5713">
        <ele>515</ele>
        <time>2018-03-18T08:24:27.000Z</time>
      </trkpt>
      <trkpt lat="43.02386" lon="0.5713">
        <ele>515</ele>
        <time>2018-03-18T08:24:29.000Z</time>
      </trkpt>
      <trkpt lat="43.02386" lon="0.5713">
        <ele>515</ele>
        <time>2018-03-18T08:24:31.000Z</time>
      </trkpt>
      <trkpt lat="43.02388" lon="0.5713">
        <ele>514</ele>
        <time>2018-03-18T08:24:33.000Z</time>
      </trkpt>
      <trkpt lat="43.0239" lon="0.5713">
        <ele>514</ele>
        <time>2018-03-18T08:24:35.000Z</time>
      </trkpt>
      <trkpt lat="43.02391" lon="0.5713">
        <ele>513</ele>
        <time>2018-03-18T08:24:37.000Z</time>
      </trkpt>
      <trkpt lat="43.02392" lon="0.5713">
        <ele>513</ele>
        <time>2018-03-18T08:24:39.000Z</time>
      </trkpt>
      <trkpt lat="43.02392" lon="0.5713">
        <ele>513</ele>
        <time>2018-03-18T08:24:41.000Z</time>
      </trkpt>
      <trkpt lat="43.02392" lon="0.57131">
        <ele>513</ele>
        <time>2018-03-18T08:24:43.000Z</time>
      </trkpt>
      <trkpt lat="43.02392" lon="0.5713">
        <ele>513</ele>
        <time>2018-03-18T08:24:45.000Z</time>
      </trkpt>
      <trkpt lat="43.02393" lon="0.5713">
        <ele>513</ele>
        <time>2018-03-18T08:24:47.000Z</time>
      </trkpt>
      <trkpt lat="43.02393" lon="0.5713">
        <ele>513</ele>
        <time>2018-03-18T08:24:49.000Z</time>
      </trkpt>
      <trkpt lat="43.02394" lon="0.57129">
        <ele>513</ele>
        <time>2018-03-18T08:24:51.000Z</time>
      </trkpt>
      <trkpt lat="43.02394" lon="0.57129">
        <ele>513</ele>
        <time>2018-03-18T08:24:53.000Z</time>
      </trkpt>
      <trkpt lat="43.02393" lon="0.57129">
        <ele>513</ele>
        <time>2018-03-18T08:24:55.000Z</time>
      </trkpt>
      <trkpt lat="43.02392" lon="0.57129">
        <ele>513</ele>
        <time>2018-03-18T08:24:57.000Z</time>
      </trkpt>
      <trkpt lat="43.0239" lon="0.57129">
        <ele>514</ele>
        <time>2018-03-18T08:24:59.000Z</time>
      </trkpt>
      <trkpt lat="43.02389" lon="0.57129">
        <ele>514</ele>
        <time>2018-03-18T08:25:01.000Z</time>
      </trkpt>
      <trkpt lat="43.02388" lon="0.5713">
        <ele>515</ele>
        <time>2018-03-18T08:25:03.000Z</time>
      </trkpt>
      <trkpt lat="43.02387" lon="0.5713">
        <ele>515</ele>
        <time>2018-03-18T08:25:05.000Z</time>
      </trkpt>
      <trkpt lat="43.02385" lon="0.5713">
        <ele>515</ele>
        <time>2018-03-18T08:25:07.000Z</time>
      </trkpt>
      <trkpt lat="43.02383" lon="0.5713">
        <ele>516</ele>
        <time>2018-03-18T08:25:09.000Z</time>
      </trkpt>
      <trkpt lat="43.02385" lon="0.5713">
        <ele>515</ele>
        <time>2018-03-18T08:25:11.000Z</time>
      </trkpt>
      <trkpt lat="43.02385" lon="0.5713">
        <ele>515</ele>
        <time>2018-03-18T08:25:13.000Z</time>
      </trkpt>
      <trkpt lat="43.02385" lon="0.5713">
        <ele>515</ele>
        <time>2018-03-18T08:25:15.000Z</time>
      </trkpt>
      <trkpt lat="43.02385" lon="0.5713">
        <ele>515</ele>
        <time>2018-03-18T08:25:17.000Z</time>
      </trkpt>
      <trkpt lat="43.02386" lon="0.5713">
        <ele>515</ele>
        <time>2018-03-18T08:25:19.000Z</time>
      </trkpt>
      <trkpt lat="43.02386" lon="0.57129">
        <ele>515</ele>
        <time>2018-03-18T08:25:21.000Z</time>
      </trkpt>
      <trkpt lat="43.02386" lon="0.57129">
        <ele>515</ele>
        <time>2018-03-18T08:25:23.000Z</time>
      </trkpt>
      <trkpt lat="43.02386" lon="0.57129">
        <ele>515</ele>
        <time>2018-03-18T08:25:25.000Z</time>
      </trkpt>
      <trkpt lat="43.02386" lon="0.57129">
        <ele>515</ele>
        <time>2018-03-18T08:25:27.000Z</time>
      </trkpt>
      <trkpt lat="43.02385" lon="0.57128">
        <ele>516</ele>
        <time>2018-03-18T08:25:29.000Z</time>
      </trkpt>
      <trkpt lat="43.02385" lon="0.57128">
        <ele>516</ele>
        <time>2018-03-18T08:25:31.000Z</time>
      </trkpt>
      <trkpt lat="43.02384" lon="0.57127">
        <ele>516</ele>
        <time>2018-03-18T08:25:33.000Z</time>
      </trkpt>
      <trkpt lat="43.02384" lon="0.57127">
        <ele>517</ele>
        <time>2018-03-18T08:25:35.000Z</time>
      </trkpt>
      <trkpt lat="43.02383" lon="0.57126">
        <ele>517</ele>
        <time>2018-03-18T08:25:37.000Z</time>
      </trkpt>
      <trkpt lat="43.02383" lon="0.57126">
        <ele>517</ele>
        <time>2018-03-18T08:25:39.000Z</time>
      </trkpt>
      <trkpt lat="43.02383" lon="0.57126">
        <ele>517</ele>
        <time>2018-03-18T08:25:41.000Z</time>
      </trkpt>
      <trkpt lat="43.02383" lon="0.57126">
        <ele>517</ele>
        <time>2018-03-18T08:25:43.000Z</time>
      </trkpt>
      <trkpt lat="43.02383" lon="0.57126">
        <ele>517</ele>
        <time>2018-03-18T08:25:45.000Z</time>
      </trkpt>
      <trkpt lat="43.02383" lon="0.57126">
        <ele>517</ele>
        <time>2018-03-18T08:25:47.000Z</time>
      </trkpt>
      <trkpt lat="43.02383" lon="0.57125">
        <ele>517</ele>
        <time>2018-03-18T08:25:49.000Z</time>
      </trkpt>
      <trkpt lat="43.02384" lon="0.57126">
        <ele>517</ele>
        <time>2018-03-18T08:25:51.000Z</time>
      </trkpt>
      <trkpt lat="43.02384" lon="0.57126">
        <ele>517</ele>
        <time>2018-03-18T08:25:53.000Z</time>
      </trkpt>
      <trkpt lat="43.02385" lon="0.57127">
        <ele>516</ele>
        <time>2018-03-18T08:25:55.000Z</time>
      </trkpt>
      <trkpt lat="43.02386" lon="0.57127">
        <ele>516</ele>
        <time>2018-03-18T08:25:57.000Z</time>
      </trkpt>
      <trkpt lat="43.02386" lon="0.57127">
        <ele>516</ele>
        <time>2018-03-18T08:25:59.000Z</time>
      </trkpt>
      <trkpt lat="43.02387" lon="0.57128">
        <ele>515</ele>
        <time>2018-03-18T08:26:01.000Z</time>
      </trkpt>
      <trkpt lat="43.02386" lon="0.57128">
        <ele>515</ele>
        <time>2018-03-18T08:26:03.000Z</time>
      </trkpt>
      <trkpt lat="43.02385" lon="0.57128">
        <ele>516</ele>
        <time>2018-03-18T08:26:05.000Z</time>
      </trkpt>
      <trkpt lat="43.02384" lon="0.57128">
        <ele>516</ele>
        <time>2018-03-18T08:26:07.000Z</time>
      </trkpt>
      <trkpt lat="43.02384" lon="0.57127">
        <ele>516</ele>
        <time>2018-03-18T08:26:09.000Z</time>
      </trkpt>
      <trkpt lat="43.02384" lon="0.57127">
        <ele>516</ele>
        <time>2018-03-18T08:26:11.000Z</time>
      </trkpt>
      <trkpt lat="43.02383" lon="0.57126">
        <ele>517</ele>
        <time>2018-03-18T08:26:13.000Z</time>
      </trkpt>
      <trkpt lat="43.02382" lon="0.57125">
        <ele>517</ele>
        <time>2018-03-18T08:26:15.000Z</time>
      </trkpt>
      <trkpt lat="43.02382" lon="0.57124">
        <ele>518</ele>
        <time>2018-03-18T08:26:17.000Z</time>
      </trkpt>
      <trkpt lat="43.02381" lon="0.57122">
        <ele>518</ele>
        <time>2018-03-18T08:26:19.000Z</time>
      </trkpt>
      <trkpt lat="43.02382" lon="0.57121">
        <ele>519</ele>
        <time>2018-03-18T08:26:21.000Z</time>
      </trkpt>
      <trkpt lat="43.02382" lon="0.5712">
        <ele>519</ele>
        <time>2018-03-18T08:26:23.000Z</time>
      </trkpt>
      <trkpt lat="43.02382" lon="0.57119">
        <ele>519</ele>
        <time>2018-03-18T08:26:25.000Z</time>
      </trkpt>
      <trkpt lat="43.02382" lon="0.57119">
        <ele>519</ele>
        <time>2018-03-18T08:26:27.000Z</time>
      </trkpt>
      <trkpt lat="43.0238" lon="0.57119">
        <ele>520</ele>
        <time>2018-03-18T08:26:29.000Z</time>
      </trkpt>
      <trkpt lat="43.0238" lon="0.57119">
        <ele>520</ele>
        <time>2018-03-18T08:26:31.000Z</time>
      </trkpt>
      <trkpt lat="43.0238" lon="0.57119">
        <ele>520</ele>
        <time>2018-03-18T08:26:33.000Z</time>
      </trkpt>
      <trkpt lat="43.02379" lon="0.57119">
        <ele>520</ele>
        <time>2018-03-18T08:26:35.000Z</time>
      </trkpt>
      <trkpt lat="43.0238" lon="0.57119">
        <ele>520</ele>
        <time>2018-03-18T08:26:37.000Z</time>
      </trkpt>
      <trkpt lat="43.02379" lon="0.57118">
        <ele>520</ele>
        <time>2018-03-18T08:26:39.000Z</time>
      </trkpt>
      <trkpt lat="43.02379" lon="0.57118">
        <ele>521</ele>
        <time>2018-03-18T08:26:41.000Z</time>
      </trkpt>
      <trkpt lat="43.02378" lon="0.57118">
        <ele>521</ele>
        <time>2018-03-18T08:26:43.000Z</time>
      </trkpt>
      <trkpt lat="43.02377" lon="0.57118">
        <ele>521</ele>
        <time>2018-03-18T08:26:45.000Z</time>
      </trkpt>
      <trkpt lat="43.02376" lon="0.57118">
        <ele>521</ele>
        <time>2018-03-18T08:26:47.000Z</time>
      </trkpt>
      <trkpt lat="43.02375" lon="0.57117">
        <ele>522</ele>
        <time>2018-03-18T08:26:49.000Z</time>
      </trkpt>
      <trkpt lat="43.02374" lon="0.57116">
        <ele>523</ele>
        <time>2018-03-18T08:26:51.000Z</time>
      </trkpt>
      <trkpt lat="43.02374" lon="0.57115">
        <ele>523</ele>
        <time>2018-03-18T08:26:53.000Z</time>
      </trkpt>
      <trkpt lat="43.02374" lon="0.57113">
        <ele>523</ele>
        <time>2018-03-18T08:26:55.000Z</time>
      </trkpt>
      <trkpt lat="43.02373" lon="0.57113">
        <ele>524</ele>
        <time>2018-03-18T08:26:57.000Z</time>
      </trkpt>
      <trkpt lat="43.02373" lon="0.57111">
        <ele>524</ele>
        <time>2018-03-18T08:26:59.000Z</time>
      </trkpt>
      <trkpt lat="43.02372" lon="0.57109">
        <ele>525</ele>
        <time>2018-03-18T08:27:01.000Z</time>
      </trkpt>
      <trkpt lat="43.02371" lon="0.57109">
        <ele>526</ele>
        <time>2018-03-18T08:27:03.000Z</time>
      </trkpt>
      <trkpt lat="43.02368" lon="0.57109">
        <ele>526</ele>
        <time>2018-03-18T08:27:05.000Z</time>
      </trkpt>
      <trkpt lat="43.02367" lon="0.57109">
        <ele>527</ele>
        <time>2018-03-18T08:27:07.000Z</time>
      </trkpt>
      <trkpt lat="43.02366" lon="0.57109">
        <ele>527</ele>
        <time>2018-03-18T08:27:09.000Z</time>
      </trkpt>
      <trkpt lat="43.02364" lon="0.57108">
        <ele>528</ele>
        <time>2018-03-18T08:27:11.000Z</time>
      </trkpt>
      <trkpt lat="43.02363" lon="0.57107">
        <ele>529</ele>
        <time>2018-03-18T08:27:13.000Z</time>
      </trkpt>
      <trkpt lat="43.02362" lon="0.57107">
        <ele>529</ele>
        <time>2018-03-18T08:27:15.000Z</time>
      </trkpt>
      <trkpt lat="43.02362" lon="0.57105">
        <ele>529</ele>
        <time>2018-03-18T08:27:17.000Z</time>
      </trkpt>
      <trkpt lat="43.02361" lon="0.57104">
        <ele>530</ele>
        <time>2018-03-18T08:27:19.000Z</time>
      </trkpt>
      <trkpt lat="43.02362" lon="0.57104">
        <ele>530</ele>
        <time>2018-03-18T08:27:21.000Z</time>
      </trkpt>
      <trkpt lat="43.0236" lon="0.57102">
        <ele>531</ele>
        <time>2018-03-18T08:27:23.000Z</time>
      </trkpt>
      <trkpt lat="43.0236" lon="0.57101">
        <ele>531</ele>
        <time>2018-03-18T08:27:25.000Z</time>
      </trkpt>
      <trkpt lat="43.02358" lon="0.57101">
        <ele>532</ele>
        <time>2018-03-18T08:27:27.000Z</time>
      </trkpt>
      <trkpt lat="43.02357" lon="0.57101">
        <ele>532</ele>
        <time>2018-03-18T08:27:29.000Z</time>
      </trkpt>
      <trkpt lat="43.02356" lon="0.57101">
        <ele>532</ele>
        <time>2018-03-18T08:27:31.000Z</time>
      </trkpt>
      <trkpt lat="43.02356" lon="0.571">
        <ele>533</ele>
        <time>2018-03-18T08:27:33.000Z</time>
      </trkpt>
      <trkpt lat="43.02354" lon="0.571">
        <ele>533</ele>
        <time>2018-03-18T08:27:35.000Z</time>
      </trkpt>
      <trkpt lat="43.02353" lon="0.57099">
        <ele>534</ele>
        <time>2018-03-18T08:27:37.000Z</time>
      </trkpt>
      <trkpt lat="43.02354" lon="0.57099">
        <ele>534</ele>
        <time>2018-03-18T08:27:39.000Z</time>
      </trkpt>
      <trkpt lat="43.02353" lon="0.57099">
        <ele>534</ele>
        <time>2018-03-18T08:27:41.000Z</time>
      </trkpt>
      <trkpt lat="43.02352" lon="0.57099">
        <ele>534</ele>
        <time>2018-03-18T08:27:43.000Z</time>
      </trkpt>
      <trkpt lat="43.02352" lon="0.571">
        <ele>534</ele>
        <time>2018-03-18T08:27:45.000Z</time>
      </trkpt>
      <trkpt lat="43.02351" lon="0.571">
        <ele>534</ele>
        <time>2018-03-18T08:27:47.000Z</time>
      </trkpt>
      <trkpt lat="43.02351" lon="0.571">
        <ele>534</ele>
        <time>2018-03-18T08:27:49.000Z</time>
      </trkpt>
      <trkpt lat="43.0235" lon="0.571">
        <ele>535</ele>
        <time>2018-03-18T08:27:51.000Z</time>
      </trkpt>
      <trkpt lat="43.0235" lon="0.57099">
        <ele>535</ele>
        <time>2018-03-18T08:27:53.000Z</time>
      </trkpt>
      <trkpt lat="43.02349" lon="0.571">
        <ele>535</ele>
        <time>2018-03-18T08:27:55.000Z</time>
      </trkpt>
      <trkpt lat="43.02348" lon="0.57099">
        <ele>535</ele>
        <time>2018-03-18T08:27:57.000Z</time>
      </trkpt>
      <trkpt lat="43.02347" lon="0.571">
        <ele>535</ele>
        <time>2018-03-18T08:27:59.000Z</time>
      </trkpt>
      <trkpt lat="43.02347" lon="0.571">
        <ele>536</ele>
        <time>2018-03-18T08:28:01.000Z</time>
      </trkpt>
      <trkpt lat="43.02346" lon="0.57101">
        <ele>536</ele>
        <time>2018-03-18T08:28:03.000Z</time>
      </trkpt>
      <trkpt lat="43.02344" lon="0.57102">
        <ele>536</ele>
        <time>2018-03-18T08:28:05.000Z</time>
      </trkpt>
      <trkpt lat="43.02342" lon="0.57103">
        <ele>536</ele>
        <time>2018-03-18T08:28:07.000Z</time>
      </trkpt>
      <trkpt lat="43.02339" lon="0.57103">
        <ele>537</ele>
        <time>2018-03-18T08:28:09.000Z</time>
      </trkpt>
      <trkpt lat="43.02338" lon="0.57103">
        <ele>537</ele>
        <time>2018-03-18T08:28:11.000Z</time>
      </trkpt>
      <trkpt lat="43.02336" lon="0.57102">
        <ele>537</ele>
        <time>2018-03-18T08:28:13.000Z</time>
      </trkpt>
      <trkpt lat="43.02335" lon="0.57102">
        <ele>538</ele>
        <time>2018-03-18T08:28:15.000Z</time>
      </trkpt>
      <trkpt lat="43.02334" lon="0.57102">
        <ele>538</ele>
        <time>2018-03-18T08:28:17.000Z</time>
      </trkpt>
      <trkpt lat="43.02334" lon="0.57101">
        <ele>538</ele>
        <time>2018-03-18T08:28:19.000Z</time>
      </trkpt>
      <trkpt lat="43.02334" lon="0.571">
        <ele>538</ele>
        <time>2018-03-18T08:28:21.000Z</time>
      </trkpt>
      <trkpt lat="43.02334" lon="0.57099">
        <ele>539</ele>
        <time>2018-03-18T08:28:23.000Z</time>
      </trkpt>
      <trkpt lat="43.02333" lon="0.57099">
        <ele>539</ele>
        <time>2018-03-18T08:28:25.000Z</time>
      </trkpt>
      <trkpt lat="43.02332" lon="0.57099">
        <ele>539</ele>
        <time>2018-03-18T08:28:27.000Z</time>
      </trkpt>
      <trkpt lat="43.02332" lon="0.57097">
        <ele>539</ele>
        <time>2018-03-18T08:28:29.000Z</time>
      </trkpt>
      <trkpt lat="43.02331" lon="0.57096">
        <ele>540</ele>
        <time>2018-03-18T08:28:31.000Z</time>
      </trkpt>
      <trkpt lat="43.02332" lon="0.57093">
        <ele>540</ele>
        <time>2018-03-18T08:28:33.000Z</time>
      </trkpt>
      <trkpt lat="43.02332" lon="0.57093">
        <ele>540</ele>
        <time>2018-03-18T08:28:35.000Z</time>
      </trkpt>
      <trkpt lat="43.02332" lon="0.57092">
        <ele>541</ele>
        <time>2018-03-18T08:28:37.000Z</time>
      </trkpt>
      <trkpt lat="43.02331" lon="0.57092">
        <ele>541</ele>
        <time>2018-03-18T08:28:39.000Z</time>
      </trkpt>
      <trkpt lat="43.0233" lon="0.57091">
        <ele>541</ele>
        <time>2018-03-18T08:28:41.000Z</time>
      </trkpt>
      <trkpt lat="43.0233" lon="0.57091">
        <ele>541</ele>
        <time>2018-03-18T08:28:43.000Z</time>
      </trkpt>
      <trkpt lat="43.0233" lon="0.57092">
        <ele>541</ele>
        <time>2018-03-18T08:28:45.000Z</time>
      </trkpt>
      <trkpt lat="43.02329" lon="0.57092">
        <ele>541</ele>
        <time>2018-03-18T08:28:47.000Z</time>
      </trkpt>
      <trkpt lat="43.02328" lon="0.57091">
        <ele>542</ele>
        <time>2018-03-18T08:28:49.000Z</time>
      </trkpt>
      <trkpt lat="43.02328" lon="0.5709">
        <ele>542</ele>
        <time>2018-03-18T08:28:51.000Z</time>
      </trkpt>
      <trkpt lat="43.02327" lon="0.57089">
        <ele>542</ele>
        <time>2018-03-18T08:28:53.000Z</time>
      </trkpt>
      <trkpt lat="43.02327" lon="0.57089">
        <ele>542</ele>
        <time>2018-03-18T08:28:55.000Z</time>
      </trkpt>
      <trkpt lat="43.02328" lon="0.5709">
        <ele>542</ele>
        <time>2018-03-18T08:28:57.000Z</time>
      </trkpt>
      <trkpt lat="43.02328" lon="0.5709">
        <ele>542</ele>
        <time>2018-03-18T08:28:59.000Z</time>
      </trkpt>
      <trkpt lat="43.02328" lon="0.57089">
        <ele>542</ele>
        <time>2018-03-18T08:29:01.000Z</time>
      </trkpt>
      <trkpt lat="43.02328" lon="0.57089">
        <ele>542</ele>
        <time>2018-03-18T08:29:03.000Z</time>
      </trkpt>
      <trkpt lat="43.02328" lon="0.57089">
        <ele>542</ele>
        <time>2018-03-18T08:29:05.000Z</time>
      </trkpt>
      <trkpt lat="43.02327" lon="0.57089">
        <ele>542</ele>
        <time>2018-03-18T08:29:07.000Z</time>
      </trkpt>
      <trkpt lat="43.02326" lon="0.57088">
        <ele>543</ele>
        <time>2018-03-18T08:29:09.000Z</time>
      </trkpt>
      <trkpt lat="43.02325" lon="0.57088">
        <ele>543</ele>
        <time>2018-03-18T08:29:11.000Z</time>
      </trkpt>
      <trkpt lat="43.02325" lon="0.57088">
        <ele>543</ele>
        <time>2018-03-18T08:29:13.000Z</time>
      </trkpt>
      <trkpt lat="43.02326" lon="0.57087">
        <ele>543</ele>
        <time>2018-03-18T08:29:15.000Z</time>
      </trkpt>
      <trkpt lat="43.02325" lon="0.57087">
        <ele>543</ele>
        <time>2018-03-18T08:29:17.000Z</time>
      </trkpt>
      <trkpt lat="43.02324" lon="0.57087">
        <ele>543</ele>
        <time>2018-03-18T08:29:19.000Z</time>
      </trkpt>
      <trkpt lat="43.02324" lon="0.57086">
        <ele>543</ele>
        <time>2018-03-18T08:29:21.000Z</time>
      </trkpt>
      <trkpt lat="43.02324" lon="0.57086">
        <ele>543</ele>
        <time>2018-03-18T08:29:23.000Z</time>
      </trkpt>
      <trkpt lat="43.02324" lon="0.57086">
        <ele>544</ele>
        <time>2018-03-18T08:29:25.000Z</time>
      </trkpt>
      <trkpt lat="43.02324" lon="0.57085">
        <ele>544</ele>
        <time>2018-03-18T08:29:27.000Z</time>
      </trkpt>
      <trkpt lat="43.02324" lon="0.57086">
        <ele>544</ele>
        <time>2018-03-18T08:29:29.000Z</time>
      </trkpt>
      <trkpt lat="43.02323" lon="0.57086">
        <ele>544</ele>
        <time>2018-03-18T08:29:31.000Z</time>
      </trkpt>
      <trkpt lat="43.02323" lon="0.57086">
        <ele>543</ele>
        <time>2018-03-18T08:29:33.000Z</time>
      </trkpt>
      <trkpt lat="43.02323" lon="0.57086">
        <ele>544</ele>
        <time>2018-03-18T08:29:35.000Z</time>
      </trkpt>
      <trkpt lat="43.02324" lon="0.57086">
        <ele>543</ele>
        <time>2018-03-18T08:29:37.000Z</time>
      </trkpt>
      <trkpt lat="43.02324" lon="0.57086">
        <ele>543</ele>
        <time>2018-03-18T08:29:39.000Z</time>
      </trkpt>
      <trkpt lat="43.02325" lon="0.57086">
        <ele>543</ele>
        <time>2018-03-18T08:29:41.000Z</time>
      </trkpt>
      <trkpt lat="43.02326" lon="0.57085">
        <ele>543</ele>
        <time>2018-03-18T08:29:43.000Z</time>
      </trkpt>
      <trkpt lat="43.02327" lon="0.57085">
        <ele>543</ele>
        <time>2018-03-18T08:29:45.000Z</time>
      </trkpt>
      <trkpt lat="43.02327" lon="0.57084">
        <ele>543</ele>
        <time>2018-03-18T08:29:47.000Z</time>
      </trkpt>
      <trkpt lat="43.02328" lon="0.57084">
        <ele>543</ele>
        <time>2018-03-18T08:29:49.000Z</time>
      </trkpt>
      <trkpt lat="43.02328" lon="0.57084">
        <ele>543</ele>
        <time>2018-03-18T08:29:51.000Z</time>
      </trkpt>
      <trkpt lat="43.02329" lon="0.57084">
        <ele>543</ele>
        <time>2018-03-18T08:29:53.000Z</time>
      </trkpt>
      <trkpt lat="43.02329" lon="0.57084">
        <ele>543</ele>
        <time>2018-03-18T08:29:55.000Z</time>
      </trkpt>
      <trkpt lat="43.02329" lon="0.57084">
        <ele>543</ele>
        <time>2018-03-18T08:29:57.000Z</time>
      </trkpt>
      <trkpt lat="43.02328" lon="0.57084">
        <ele>543</ele>
        <time>2018-03-18T08:29:59.000Z</time>
      </trkpt>
      <trkpt lat="43.02328" lon="0.57084">
        <ele>543</ele>
        <time>2018-03-18T08:30:01.000Z</time>
      </trkpt>
      <trkpt lat="43.02328" lon="0.57084">
        <ele>543</ele>
        <time>2018-03-18T08:30:03.000Z</time>
      </trkpt>
      <trkpt lat="43.02329" lon="0.57084">
        <ele>543</ele>
        <time>2018-03-18T08:30:05.000Z</time>
      </trkpt>
      <trkpt lat="43.02329" lon="0.57083">
        <ele>544</ele>
        <time>2018-03-18T08:30:07.000Z</time>
      </trkpt>
      <trkpt lat="43.02329" lon="0.57083">
        <ele>544</ele>
        <time>2018-03-18T08:30:09.000Z</time>
      </trkpt>
      <trkpt lat="43.02329" lon="0.57083">
        <ele>544</ele>
        <time>2018-03-18T08:30:11.000Z</time>
      </trkpt>
      <trkpt lat="43.0233" lon="0.57082">
        <ele>544</ele>
        <time>2018-03-18T08:30:13.000Z</time>
      </trkpt>
      <trkpt lat="43.02329" lon="0.57082">
        <ele>544</ele>
        <time>2018-03-18T08:30:15.000Z</time>
      </trkpt>
      <trkpt lat="43.02329" lon="0.57082">
        <ele>544</ele>
        <time>2018-03-18T08:30:17.000Z</time>
      </trkpt>
      <trkpt lat="43.02329" lon="0.57082">
        <ele>544</ele>
        <time>2018-03-18T08:30:19.000Z</time>
      </trkpt>
      <trkpt lat="43.02329" lon="0.57082">
        <ele>544</ele>
        <time>2018-03-18T08:30:21.000Z</time>
      </trkpt>
      <trkpt lat="43.02329" lon="0.57082">
        <ele>544</ele>
        <time>2018-03-18T08:30:23.000Z</time>
      </trkpt>
      <trkpt lat="43.0233" lon="0.57081">
        <ele>544</ele>
        <time>2018-03-18T08:30:25.000Z</time>
      </trkpt>
      <trkpt lat="43.0233" lon="0.57082">
        <ele>544</ele>
        <time>2018-03-18T08:30:27.000Z</time>
      </trkpt>
      <trkpt lat="43.02331" lon="0.57082">
        <ele>544</ele>
        <time>2018-03-18T08:30:29.000Z</time>
      </trkpt>
      <trkpt lat="43.02331" lon="0.57083">
        <ele>543</ele>
        <time>2018-03-18T08:30:31.000Z</time>
      </trkpt>
      <trkpt lat="43.02331" lon="0.57083">
        <ele>543</ele>
        <time>2018-03-18T08:30:33.000Z</time>
      </trkpt>
      <trkpt lat="43.0233" lon="0.57083">
        <ele>543</ele>
        <time>2018-03-18T08:30:35.000Z</time>
      </trkpt>
      <trkpt lat="43.0233" lon="0.57083">
        <ele>543</ele>
        <time>2018-03-18T08:30:37.000Z</time>
      </trkpt>
      <trkpt lat="43.0233" lon="0.57083">
        <ele>544</ele>
        <time>2018-03-18T08:30:39.000Z</time>
      </trkpt>
      <trkpt lat="43.02329" lon="0.57083">
        <ele>544</ele>
        <time>2018-03-18T08:30:41.000Z</time>
      </trkpt>
      <trkpt lat="43.02329" lon="0.57082">
        <ele>544</ele>
        <time>2018-03-18T08:30:43.000Z</time>
      </trkpt>
      <trkpt lat="43.02329" lon="0.57082">
        <ele>544</ele>
        <time>2018-03-18T08:30:45.000Z</time>
      </trkpt>
      <trkpt lat="43.02329" lon="0.57083">
        <ele>544</ele>
        <time>2018-03-18T08:30:47.000Z</time>
      </trkpt>
      <trkpt lat="43.02328" lon="0.57083">
        <ele>544</ele>
        <time>2018-03-18T08:30:49.000Z</time>
      </trkpt>
      <trkpt lat="43.02329" lon="0.57084">
        <ele>543</ele>
        <time>2018-03-18T08:30:51.000Z</time>
      </trkpt>
      <trkpt lat="43.02329" lon="0.57084">
        <ele>543</ele>
        <time>2018-03-18T08:30:53.000Z</time>
      </trkpt>
      <trkpt lat="43.02328" lon="0.57084">
        <ele>543</ele>
        <time>2018-03-18T08:30:55.000Z</time>
      </trkpt>
      <trkpt lat="43.02328" lon="0.57084">
        <ele>543</ele>
        <time>2018-03-18T08:30:57.000Z</time>
      </trkpt>
      <trkpt lat="43.02328" lon="0.57084">
        <ele>543</ele>
        <time>2018-03-18T08:30:59.000Z</time>
      </trkpt>
      <trkpt lat="43.02328" lon="0.57085">
        <ele>543</ele>
        <time>2018-03-18T08:31:01.000Z</time>
      </trkpt>
      <trkpt lat="43.02328" lon="0.57085">
        <ele>543</ele>
        <time>2018-03-18T08:31:03.000Z</time>
      </trkpt>
      <trkpt lat="43.02328" lon="0.57085">
        <ele>543</ele>
        <time>2018-03-18T08:31:05.000Z</time>
      </trkpt>
      <trkpt lat="43.02327" lon="0.57085">
        <ele>543</ele>
        <time>2018-03-18T08:31:07.000Z</time>
      </trkpt>
      <trkpt lat="43.02327" lon="0.57085">
        <ele>543</ele>
        <time>2018-03-18T08:31:09.000Z</time>
      </trkpt>
      <trkpt lat="43.02327" lon="0.57084">
        <ele>543</ele>
        <time>2018-03-18T08:31:11.000Z</time>
      </trkpt>
      <trkpt lat="43.02327" lon="0.57084">
        <ele>543</ele>
        <time>2018-03-18T08:31:13.000Z</time>
      </trkpt>
      <trkpt lat="43.02327" lon="0.57085">
        <ele>543</ele>
        <time>2018-03-18T08:31:15.000Z</time>
      </trkpt>
      <trkpt lat="43.02327" lon="0.57085">
        <ele>543</ele>
        <time>2018-03-18T08:31:17.000Z</time>
      </trkpt>
      <trkpt lat="43.02327" lon="0.57085">
        <ele>543</ele>
        <time>2018-03-18T08:31:19.000Z</time>
      </trkpt>
      <trkpt lat="43.02326" lon="0.57084">
        <ele>544</ele>
        <time>2018-03-18T08:31:21.000Z</time>
      </trkpt>
      <trkpt lat="43.02326" lon="0.57084">
        <ele>544</ele>
        <time>2018-03-18T08:31:23.000Z</time>
      </trkpt>
      <trkpt lat="43.02326" lon="0.57084">
        <ele>544</ele>
        <time>2018-03-18T08:31:25.000Z</time>
      </trkpt>
      <trkpt lat="43.02326" lon="0.57084">
        <ele>544</ele>
        <time>2018-03-18T08:31:27.000Z</time>
      </trkpt>
      <trkpt lat="43.02325" lon="0.57083">
        <ele>544</ele>
        <time>2018-03-18T08:31:29.000Z</time>
      </trkpt>
      <trkpt lat="43.02325" lon="0.57084">
        <ele>544</ele>
        <time>2018-03-18T08:31:31.000Z</time>
      </trkpt>
      <trkpt lat="43.02324" lon="0.57085">
        <ele>544</ele>
        <time>2018-03-18T08:31:33.000Z</time>
      </trkpt>
      <trkpt lat="43.02324" lon="0.57085">
        <ele>544</ele>
        <time>2018-03-18T08:31:35.000Z</time>
      </trkpt>
      <trkpt lat="43.02324" lon="0.57085">
        <ele>544</ele>
        <time>2018-03-18T08:31:37.000Z</time>
      </trkpt>
      <trkpt lat="43.02324" lon="0.57085">
        <ele>544</ele>
        <time>2018-03-18T08:31:39.000Z</time>
      </trkpt>
      <trkpt lat="43.02323" lon="0.57085">
        <ele>544</ele>
        <time>2018-03-18T08:31:41.000Z</time>
      </trkpt>
      <trkpt lat="43.02323" lon="0.57085">
        <ele>544</ele>
        <time>2018-03-18T08:31:43.000Z</time>
      </trkpt>
      <trkpt lat="43.02323" lon="0.57082">
        <ele>545</ele>
        <time>2018-03-18T08:31:45.000Z</time>
      </trkpt>
      <trkpt lat="43.02322" lon="0.57083">
        <ele>545</ele>
        <time>2018-03-18T08:31:47.000Z</time>
      </trkpt>
      <trkpt lat="43.02323" lon="0.57084">
        <ele>544</ele>
        <time>2018-03-18T08:31:49.000Z</time>
      </trkpt>
      <trkpt lat="43.02322" lon="0.57084">
        <ele>544</ele>
        <time>2018-03-18T08:31:51.000Z</time>
      </trkpt>
      <trkpt lat="43.02322" lon="0.57084">
        <ele>544</ele>
        <time>2018-03-18T08:31:53.000Z</time>
      </trkpt>
      <trkpt lat="43.02322" lon="0.57085">
        <ele>544</ele>
        <time>2018-03-18T08:31:55.000Z</time>
      </trkpt>
      <trkpt lat="43.02322" lon="0.57085">
        <ele>544</ele>
        <time>2018-03-18T08:31:57.000Z</time>
      </trkpt>
      <trkpt lat="43.02322" lon="0.57085">
        <ele>544</ele>
        <time>2018-03-18T08:31:59.000Z</time>
      </trkpt>
      <trkpt lat="43.02322" lon="0.57085">
        <ele>544</ele>
        <time>2018-03-18T08:32:01.000Z</time>
      </trkpt>
      <trkpt lat="43.02323" lon="0.57085">
        <ele>544</ele>
        <time>2018-03-18T08:32:03.000Z</time>
      </trkpt>
      <trkpt lat="43.02323" lon="0.57085">
        <ele>544</ele>
        <time>2018-03-18T08:32:05.000Z</time>
      </trkpt>
      <trkpt lat="43.02323" lon="0.57085">
        <ele>544</ele>
        <time>2018-03-18T08:32:07.000Z</time>
      </trkpt>
      <trkpt lat="43.02322" lon="0.57086">
        <ele>544</ele>
        <time>2018-03-18T08:32:09.000Z</time>
      </trkpt>
      <trkpt lat="43.02322" lon="0.57087">
        <ele>544</ele>
        <time>2018-03-18T08:32:11.000Z</time>
      </trkpt>
      <trkpt lat="43.02321" lon="0.57088">
        <ele>544</ele>
        <time>2018-03-18T08:32:13.000Z</time>
      </trkpt>
      <trkpt lat="43.0232" lon="0.57088">
        <ele>544</ele>
        <time>2018-03-18T08:32:15.000Z</time>
      </trkpt>
      <trkpt lat="43.0232" lon="0.57087">
        <ele>544</ele>
        <time>2018-03-18T08:32:17.000Z</time>
      </trkpt>
      <trkpt lat="43.02319" lon="0.57087">
        <ele>544</ele>
        <time>2018-03-18T08:32:19.000Z</time>
      </trkpt>
      <trkpt lat="43.02319" lon="0.57087">
        <ele>544</ele>
        <time>2018-03-18T08:32:21.000Z</time>
      </trkpt>
      <trkpt lat="43.02319" lon="0.57086">
        <ele>544</ele>
        <time>2018-03-18T08:32:23.000Z</time>
      </trkpt>
      <trkpt lat="43.02318" lon="0.57086">
        <ele>544</ele>
        <time>2018-03-18T08:32:25.000Z</time>
      </trkpt>
      <trkpt lat="43.02318" lon="0.57084">
        <ele>545</ele>
        <time>2018-03-18T08:32:27.000Z</time>
      </trkpt>
      <trkpt lat="43.02316" lon="0.57084">
        <ele>545</ele>
        <time>2018-03-18T08:32:29.000Z</time>
      </trkpt>
      <trkpt lat="43.02315" lon="0.57083">
        <ele>546</ele>
        <time>2018-03-18T08:32:31.000Z</time>
      </trkpt>
      <trkpt lat="43.02315" lon="0.57082">
        <ele>546</ele>
        <time>2018-03-18T08:32:33.000Z</time>
      </trkpt>
      <trkpt lat="43.02313" lon="0.57081">
        <ele>546</ele>
        <time>2018-03-18T08:32:35.000Z</time>
      </trkpt>
      <trkpt lat="43.02313" lon="0.5708">
        <ele>547</ele>
        <time>2018-03-18T08:32:37.000Z</time>
      </trkpt>
      <trkpt lat="43.02311" lon="0.57079">
        <ele>547</ele>
        <time>2018-03-18T08:32:39.000Z</time>
      </trkpt>
      <trkpt lat="43.0231" lon="0.57078">
        <ele>548</ele>
        <time>2018-03-18T08:32:41.000Z</time>
      </trkpt>
      <trkpt lat="43.02309" lon="0.57077">
        <ele>548</ele>
        <time>2018-03-18T08:32:43.000Z</time>
      </trkpt>
      <trkpt lat="43.02308" lon="0.57076">
        <ele>548</ele>
        <time>2018-03-18T08:32:45.000Z</time>
      </trkpt>
      <trkpt lat="43.02307" lon="0.57075">
        <ele>549</ele>
        <time>2018-03-18T08:32:47.000Z</time>
      </trkpt>
      <trkpt lat="43.02307" lon="0.57074">
        <ele>549</ele>
        <time>2018-03-18T08:32:49.000Z</time>
      </trkpt>
      <trkpt lat="43.02307" lon="0.57074">
        <ele>549</ele>
        <time>2018-03-18T08:32:51.000Z</time>
      </trkpt>
      <trkpt lat="43.02305" lon="0.57073">
        <ele>549</ele>
        <time>2018-03-18T08:32:53.000Z</time>
      </trkpt>
      <trkpt lat="43.02304" lon="0.57073">
        <ele>550</ele>
        <time>2018-03-18T08:32:55.000Z</time>
      </trkpt>
      <trkpt lat="43.02303" lon="0.57072">
        <ele>550</ele>
        <time>2018-03-18T08:32:57.000Z</time>
      </trkpt>
      <trkpt lat="43.02304" lon="0.57072">
        <ele>550</ele>
        <time>2018-03-18T08:32:59.000Z</time>
      </trkpt>
      <trkpt lat="43.02303" lon="0.57072">
        <ele>550</ele>
        <time>2018-03-18T08:33:01.000Z</time>
      </trkpt>
      <trkpt lat="43.02303" lon="0.57071">
        <ele>551</ele>
        <time>2018-03-18T08:33:03.000Z</time>
      </trkpt>
      <trkpt lat="43.02302" lon="0.5707">
        <ele>551</ele>
        <time>2018-03-18T08:33:05.000Z</time>
      </trkpt>
      <trkpt lat="43.02301" lon="0.5707">
        <ele>551</ele>
        <time>2018-03-18T08:33:07.000Z</time>
      </trkpt>
      <trkpt lat="43.02299" lon="0.5707">
        <ele>551</ele>
        <time>2018-03-18T08:33:09.000Z</time>
      </trkpt>
      <trkpt lat="43.02298" lon="0.57071">
        <ele>551</ele>
        <time>2018-03-18T08:33:11.000Z</time>
      </trkpt>
      <trkpt lat="43.02297" lon="0.57071">
        <ele>551</ele>
        <time>2018-03-18T08:33:13.000Z</time>
      </trkpt>
      <trkpt lat="43.02296" lon="0.57071">
        <ele>551</ele>
        <time>2018-03-18T08:33:15.000Z</time>
      </trkpt>
      <trkpt lat="43.02295" lon="0.57071">
        <ele>552</ele>
        <time>2018-03-18T08:33:17.000Z</time>
      </trkpt>
      <trkpt lat="43.02294" lon="0.5707">
        <ele>552</ele>
        <time>2018-03-18T08:33:19.000Z</time>
      </trkpt>
      <trkpt lat="43.02292" lon="0.5707">
        <ele>552</ele>
        <time>2018-03-18T08:33:21.000Z</time>
      </trkpt>
      <trkpt lat="43.0229" lon="0.57071">
        <ele>552</ele>
        <time>2018-03-18T08:33:23.000Z</time>
      </trkpt>
      <trkpt lat="43.02289" lon="0.57071">
        <ele>552</ele>
        <time>2018-03-18T08:33:25.000Z</time>
      </trkpt>
      <trkpt lat="43.02287" lon="0.57072">
        <ele>553</ele>
        <time>2018-03-18T08:33:27.000Z</time>
      </trkpt>
      <trkpt lat="43.02286" lon="0.57072">
        <ele>553</ele>
        <time>2018-03-18T08:33:29.000Z</time>
      </trkpt>
      <trkpt lat="43.02284" lon="0.57072">
        <ele>553</ele>
        <time>2018-03-18T08:33:31.000Z</time>
      </trkpt>
      <trkpt lat="43.02283" lon="0.57073">
        <ele>553</ele>
        <time>2018-03-18T08:33:33.000Z</time>
      </trkpt>
      <trkpt lat="43.02281" lon="0.57073">
        <ele>553</ele>
        <time>2018-03-18T08:33:35.000Z</time>
      </trkpt>
      <trkpt lat="43.02278" lon="0.57074">
        <ele>553</ele>
        <time>2018-03-18T08:33:37.000Z</time>
      </trkpt>
      <trkpt lat="43.02276" lon="0.57074">
        <ele>553</ele>
        <time>2018-03-18T08:33:39.000Z</time>
      </trkpt>
      <trkpt lat="43.02275" lon="0.57074">
        <ele>553</ele>
        <time>2018-03-18T08:33:41.000Z</time>
      </trkpt>
      <trkpt lat="43.02273" lon="0.57073">
        <ele>554</ele>
        <time>2018-03-18T08:33:43.000Z</time>
      </trkpt>
      <trkpt lat="43.02272" lon="0.57074">
        <ele>554</ele>
        <time>2018-03-18T08:33:45.000Z</time>
      </trkpt>
      <trkpt lat="43.02271" lon="0.57075">
        <ele>553</ele>
        <time>2018-03-18T08:33:47.000Z</time>
      </trkpt>
      <trkpt lat="43.02271" lon="0.57075">
        <ele>553</ele>
        <time>2018-03-18T08:33:49.000Z</time>
      </trkpt>
      <trkpt lat="43.0227" lon="0.57075">
        <ele>553</ele>
        <time>2018-03-18T08:33:51.000Z</time>
      </trkpt>
      <trkpt lat="43.02269" lon="0.57075">
        <ele>554</ele>
        <time>2018-03-18T08:33:53.000Z</time>
      </trkpt>
      <trkpt lat="43.02268" lon="0.57074">
        <ele>554</ele>
        <time>2018-03-18T08:33:55.000Z</time>
      </trkpt>
      <trkpt lat="43.02267" lon="0.57074">
        <ele>554</ele>
        <time>2018-03-18T08:33:57.000Z</time>
      </trkpt>
      <trkpt lat="43.02267" lon="0.57074">
        <ele>554</ele>
        <time>2018-03-18T08:33:59.000Z</time>
      </trkpt>
      <trkpt lat="43.02267" lon="0.57073">
        <ele>554</ele>
        <time>2018-03-18T08:34:01.000Z</time>
      </trkpt>
      <trkpt lat="43.02266" lon="0.57072">
        <ele>555</ele>
        <time>2018-03-18T08:34:03.000Z</time>
      </trkpt>
      <trkpt lat="43.02265" lon="0.57071">
        <ele>555</ele>
        <time>2018-03-18T08:34:05.000Z</time>
      </trkpt>
      <trkpt lat="43.02265" lon="0.5707">
        <ele>555</ele>
        <time>2018-03-18T08:34:07.000Z</time>
      </trkpt>
      <trkpt lat="43.02264" lon="0.57069">
        <ele>556</ele>
        <time>2018-03-18T08:34:09.000Z</time>
      </trkpt>
      <trkpt lat="43.02264" lon="0.57068">
        <ele>556</ele>
        <time>2018-03-18T08:34:11.000Z</time>
      </trkpt>
      <trkpt lat="43.02265" lon="0.5707">
        <ele>555</ele>
        <time>2018-03-18T08:34:13.000Z</time>
      </trkpt>
      <trkpt lat="43.02266" lon="0.5707">
        <ele>555</ele>
        <time>2018-03-18T08:34:15.000Z</time>
      </trkpt>
      <trkpt lat="43.02265" lon="0.5707">
        <ele>555</ele>
        <time>2018-03-18T08:34:17.000Z</time>
      </trkpt>
      <trkpt lat="43.02265" lon="0.5707">
        <ele>555</ele>
        <time>2018-03-18T08:34:19.000Z</time>
      </trkpt>
      <trkpt lat="43.02264" lon="0.57071">
        <ele>555</ele>
        <time>2018-03-18T08:34:21.000Z</time>
      </trkpt>
      <trkpt lat="43.02263" lon="0.57071">
        <ele>555</ele>
        <time>2018-03-18T08:34:23.000Z</time>
      </trkpt>
      <trkpt lat="43.02262" lon="0.57072">
        <ele>555</ele>
        <time>2018-03-18T08:34:25.000Z</time>
      </trkpt>
      <trkpt lat="43.0226" lon="0.57072">
        <ele>555</ele>
        <time>2018-03-18T08:34:27.000Z</time>
      </trkpt>
      <trkpt lat="43.02259" lon="0.57074">
        <ele>555</ele>
        <time>2018-03-18T08:34:29.000Z</time>
      </trkpt>
      <trkpt lat="43.02257" lon="0.57074">
        <ele>554</ele>
        <time>2018-03-18T08:34:31.000Z</time>
      </trkpt>
      <trkpt lat="43.02257" lon="0.57074">
        <ele>554</ele>
        <time>2018-03-18T08:34:33.000Z</time>
      </trkpt>
      <trkpt lat="43.02255" lon="0.57074">
        <ele>554</ele>
        <time>2018-03-18T08:34:35.000Z</time>
      </trkpt>
      <trkpt lat="43.02254" lon="0.57075">
        <ele>553</ele>
        <time>2018-03-18T08:34:37.000Z</time>
      </trkpt>
      <trkpt lat="43.02253" lon="0.57074">
        <ele>554</ele>
        <time>2018-03-18T08:34:39.000Z</time>
      </trkpt>
      <trkpt lat="43.02253" lon="0.57075">
        <ele>553</ele>
        <time>2018-03-18T08:34:41.000Z</time>
      </trkpt>
      <trkpt lat="43.02253" lon="0.57075">
        <ele>553</ele>
        <time>2018-03-18T08:34:43.000Z</time>
      </trkpt>
      <trkpt lat="43.02254" lon="0.57075">
        <ele>553</ele>
        <time>2018-03-18T08:34:45.000Z</time>
      </trkpt>
      <trkpt lat="43.02254" lon="0.57076">
        <ele>553</ele>
        <time>2018-03-18T08:34:47.000Z</time>
      </trkpt>
      <trkpt lat="43.02254" lon="0.57075">
        <ele>553</ele>
        <time>2018-03-18T08:34:49.000Z</time>
      </trkpt>
      <trkpt lat="43.02253" lon="0.57076">
        <ele>553</ele>
        <time>2018-03-18T08:34:51.000Z</time>
      </trkpt>
      <trkpt lat="43.02253" lon="0.57076">
        <ele>553</ele>
        <time>2018-03-18T08:34:53.000Z</time>
      </trkpt>
      <trkpt lat="43.02252" lon="0.57076">
        <ele>553</ele>
        <time>2018-03-18T08:34:55.000Z</time>
      </trkpt>
      <trkpt lat="43.02251" lon="0.57076">
        <ele>553</ele>
        <time>2018-03-18T08:34:57.000Z</time>
      </trkpt>
      <trkpt lat="43.02252" lon="0.57076">
        <ele>553</ele>
        <time>2018-03-18T08:34:59.000Z</time>
      </trkpt>
      <trkpt lat="43.02251" lon="0.57076">
        <ele>553</ele>
        <time>2018-03-18T08:35:01.000Z</time>
      </trkpt>
      <trkpt lat="43.02252" lon="0.57076">
        <ele>553</ele>
        <time>2018-03-18T08:35:03.000Z</time>
      </trkpt>
      <trkpt lat="43.02251" lon="0.57076">
        <ele>553</ele>
        <time>2018-03-18T08:35:05.000Z</time>
      </trkpt>
      <trkpt lat="43.02251" lon="0.57076">
        <ele>553</ele>
        <time>2018-03-18T08:35:07.000Z</time>
      </trkpt>
      <trkpt lat="43.02252" lon="0.57075">
        <ele>553</ele>
        <time>2018-03-18T08:35:09.000Z</time>
      </trkpt>
      <trkpt lat="43.02251" lon="0.57074">
        <ele>553</ele>
        <time>2018-03-18T08:35:11.000Z</time>
      </trkpt>
      <trkpt lat="43.0225" lon="0.57074">
        <ele>553</ele>
        <time>2018-03-18T08:35:13.000Z</time>
      </trkpt>
      <trkpt lat="43.02249" lon="0.57073">
        <ele>553</ele>
        <time>2018-03-18T08:35:15.000Z</time>
      </trkpt>
      <trkpt lat="43.02247" lon="0.57072">
        <ele>553</ele>
        <time>2018-03-18T08:35:17.000Z</time>
      </trkpt>
      <trkpt lat="43.02246" lon="0.57071">
        <ele>553</ele>
        <time>2018-03-18T08:35:19.000Z</time>
      </trkpt>
      <trkpt lat="43.02246" lon="0.57071">
        <ele>553</ele>
        <time>2018-03-18T08:35:21.000Z</time>
      </trkpt>
      <trkpt lat="43.02245" lon="0.57069">
        <ele>554</ele>
        <time>2018-03-18T08:35:23.000Z</time>
      </trkpt>
      <trkpt lat="43.02245" lon="0.57068">
        <ele>554</ele>
        <time>2018-03-18T08:35:25.000Z</time>
      </trkpt>
      <trkpt lat="43.02244" lon="0.57068">
        <ele>554</ele>
        <time>2018-03-18T08:35:27.000Z</time>
      </trkpt>
      <trkpt lat="43.02243" lon="0.57067">
        <ele>554</ele>
        <time>2018-03-18T08:35:29.000Z</time>
      </trkpt>
      <trkpt lat="43.02242" lon="0.57066">
        <ele>554</ele>
        <time>2018-03-18T08:35:31.000Z</time>
      </trkpt>
      <trkpt lat="43.02241" lon="0.57065">
        <ele>555</ele>
        <time>2018-03-18T08:35:33.000Z</time>
      </trkpt>
      <trkpt lat="43.02241" lon="0.57065">
        <ele>554</ele>
        <time>2018-03-18T08:35:35.000Z</time>
      </trkpt>
      <trkpt lat="43.0224" lon="0.57064">
        <ele>555</ele>
        <time>2018-03-18T08:35:37.000Z</time>
      </trkpt>
      <trkpt lat="43.02239" lon="0.57064">
        <ele>555</ele>
        <time>2018-03-18T08:35:39.000Z</time>
      </trkpt>
      <trkpt lat="43.02238" lon="0.57063">
        <ele>555</ele>
        <time>2018-03-18T08:35:41.000Z</time>
      </trkpt>
      <trkpt lat="43.02238" lon="0.57061">
        <ele>555</ele>
        <time>2018-03-18T08:35:43.000Z</time>
      </trkpt>
      <trkpt lat="43.02239" lon="0.5706">
        <ele>556</ele>
        <time>2018-03-18T08:35:45.000Z</time>
      </trkpt>
      <trkpt lat="43.02239" lon="0.57059">
        <ele>556</ele>
        <time>2018-03-18T08:35:47.000Z</time>
      </trkpt>
      <trkpt lat="43.0224" lon="0.57058">
        <ele>557</ele>
        <time>2018-03-18T08:35:49.000Z</time>
      </trkpt>
      <trkpt lat="43.0224" lon="0.57057">
        <ele>557</ele>
        <time>2018-03-18T08:35:51.000Z</time>
      </trkpt>
      <trkpt lat="43.0224" lon="0.57057">
        <ele>557</ele>
        <time>2018-03-18T08:35:53.000Z</time>
      </trkpt>
      <trkpt lat="43.02241" lon="0.57056">
        <ele>558</ele>
        <time>2018-03-18T08:35:55.000Z</time>
      </trkpt>
      <trkpt lat="43.02242" lon="0.57056">
        <ele>558</ele>
        <time>2018-03-18T08:35:57.000Z</time>
      </trkpt>
      <trkpt lat="43.02242" lon="0.57055">
        <ele>558</ele>
        <time>2018-03-18T08:35:59.000Z</time>
      </trkpt>
      <trkpt lat="43.02242" lon="0.57052">
        <ele>559</ele>
        <time>2018-03-18T08:36:01.000Z</time>
      </trkpt>
      <trkpt lat="43.02242" lon="0.57052">
        <ele>559</ele>
        <time>2018-03-18T08:36:03.000Z</time>
      </trkpt>
      <trkpt lat="43.02243" lon="0.57051">
        <ele>559</ele>
        <time>2018-03-18T08:36:05.000Z</time>
      </trkpt>
      <trkpt lat="43.02244" lon="0.5705">
        <ele>560</ele>
        <time>2018-03-18T08:36:07.000Z</time>
      </trkpt>
      <trkpt lat="43.02244" lon="0.57049">
        <ele>560</ele>
        <time>2018-03-18T08:36:09.000Z</time>
      </trkpt>
      <trkpt lat="43.02244" lon="0.57048">
        <ele>560</ele>
        <time>2018-03-18T08:36:11.000Z</time>
      </trkpt>
      <trkpt lat="43.02245" lon="0.57047">
        <ele>561</ele>
        <time>2018-03-18T08:36:13.000Z</time>
      </trkpt>
      <trkpt lat="43.02245" lon="0.57045">
        <ele>561</ele>
        <time>2018-03-18T08:36:15.000Z</time>
      </trkpt>
      <trkpt lat="43.02245" lon="0.57043">
        <ele>561</ele>
        <time>2018-03-18T08:36:17.000Z</time>
      </trkpt>
      <trkpt lat="43.02245" lon="0.57042">
        <ele>562</ele>
        <time>2018-03-18T08:36:19.000Z</time>
      </trkpt>
      <trkpt lat="43.02245" lon="0.57041">
        <ele>562</ele>
        <time>2018-03-18T08:36:21.000Z</time>
      </trkpt>
      <trkpt lat="43.02245" lon="0.5704">
        <ele>562</ele>
        <time>2018-03-18T08:36:23.000Z</time>
      </trkpt>
      <trkpt lat="43.02246" lon="0.5704">
        <ele>562</ele>
        <time>2018-03-18T08:36:25.000Z</time>
      </trkpt>
      <trkpt lat="43.02247" lon="0.57039">
        <ele>563</ele>
        <time>2018-03-18T08:36:27.000Z</time>
      </trkpt>
      <trkpt lat="43.02246" lon="0.57037">
        <ele>563</ele>
        <time>2018-03-18T08:36:29.000Z</time>
      </trkpt>
      <trkpt lat="43.02247" lon="0.57036">
        <ele>563</ele>
        <time>2018-03-18T08:36:31.000Z</time>
      </trkpt>
      <trkpt lat="43.02247" lon="0.57035">
        <ele>564</ele>
        <time>2018-03-18T08:36:33.000Z</time>
      </trkpt>
      <trkpt lat="43.02246" lon="0.57034">
        <ele>564</ele>
        <time>2018-03-18T08:36:35.000Z</time>
      </trkpt>
      <trkpt lat="43.02246" lon="0.57033">
        <ele>564</ele>
        <time>2018-03-18T08:36:37.000Z</time>
      </trkpt>
      <trkpt lat="43.02246" lon="0.57033">
        <ele>564</ele>
        <time>2018-03-18T08:36:39.000Z</time>
      </trkpt>
      <trkpt lat="43.02246" lon="0.57032">
        <ele>564</ele>
        <time>2018-03-18T08:36:41.000Z</time>
      </trkpt>
      <trkpt lat="43.02247" lon="0.57033">
        <ele>564</ele>
        <time>2018-03-18T08:36:43.000Z</time>
      </trkpt>
      <trkpt lat="43.02248" lon="0.57033">
        <ele>564</ele>
        <time>2018-03-18T08:36:45.000Z</time>
      </trkpt>
      <trkpt lat="43.02248" lon="0.57033">
        <ele>564</ele>
        <time>2018-03-18T08:36:47.000Z</time>
      </trkpt>
      <trkpt lat="43.02249" lon="0.57032">
        <ele>565</ele>
        <time>2018-03-18T08:36:49.000Z</time>
      </trkpt>
      <trkpt lat="43.02249" lon="0.57033">
        <ele>564</ele>
        <time>2018-03-18T08:36:51.000Z</time>
      </trkpt>
      <trkpt lat="43.0225" lon="0.57034">
        <ele>564</ele>
        <time>2018-03-18T08:36:53.000Z</time>
      </trkpt>
      <trkpt lat="43.02251" lon="0.57034">
        <ele>564</ele>
        <time>2018-03-18T08:36:55.000Z</time>
      </trkpt>
      <trkpt lat="43.02251" lon="0.57034">
        <ele>564</ele>
        <time>2018-03-18T08:36:57.000Z</time>
      </trkpt>
      <trkpt lat="43.0225" lon="0.57034">
        <ele>564</ele>
        <time>2018-03-18T08:36:59.000Z</time>
      </trkpt>
      <trkpt lat="43.0225" lon="0.57034">
        <ele>564</ele>
        <time>2018-03-18T08:37:01.000Z</time>
      </trkpt>
      <trkpt lat="43.0225" lon="0.57033">
        <ele>565</ele>
        <time>2018-03-18T08:37:03.000Z</time>
      </trkpt>
      <trkpt lat="43.02251" lon="0.57033">
        <ele>565</ele>
        <time>2018-03-18T08:37:05.000Z</time>
      </trkpt>
      <trkpt lat="43.02251" lon="0.57032">
        <ele>565</ele>
        <time>2018-03-18T08:37:07.000Z</time>
      </trkpt>
      <trkpt lat="43.02251" lon="0.57031">
        <ele>565</ele>
        <time>2018-03-18T08:37:09.000Z</time>
      </trkpt>
      <trkpt lat="43.02251" lon="0.57029">
        <ele>566</ele>
        <time>2018-03-18T08:37:11.000Z</time>
      </trkpt>
      <trkpt lat="43.02251" lon="0.57028">
        <ele>566</ele>
        <time>2018-03-18T08:37:13.000Z</time>
      </trkpt>
      <trkpt lat="43.02252" lon="0.57026">
        <ele>567</ele>
        <time>2018-03-18T08:37:15.000Z</time>
      </trkpt>
      <trkpt lat="43.02253" lon="0.57025">
        <ele>567</ele>
        <time>2018-03-18T08:37:17.000Z</time>
      </trkpt>
      <trkpt lat="43.02254" lon="0.57024">
        <ele>567</ele>
        <time>2018-03-18T08:37:19.000Z</time>
      </trkpt>
      <trkpt lat="43.02254" lon="0.57023">
        <ele>568</ele>
        <time>2018-03-18T08:37:21.000Z</time>
      </trkpt>
      <trkpt lat="43.02255" lon="0.57022">
        <ele>568</ele>
        <time>2018-03-18T08:37:23.000Z</time>
      </trkpt>
      <trkpt lat="43.02255" lon="0.5702">
        <ele>568</ele>
        <time>2018-03-18T08:37:25.000Z</time>
      </trkpt>
      <trkpt lat="43.02255" lon="0.57019">
        <ele>569</ele>
        <time>2018-03-18T08:37:27.000Z</time>
      </trkpt>
      <trkpt lat="43.02256" lon="0.57018">
        <ele>569</ele>
        <time>2018-03-18T08:37:29.000Z</time>
      </trkpt>
      <trkpt lat="43.02256" lon="0.57016">
        <ele>570</ele>
        <time>2018-03-18T08:37:31.000Z</time>
      </trkpt>
      <trkpt lat="43.02256" lon="0.57015">
        <ele>570</ele>
        <time>2018-03-18T08:37:33.000Z</time>
      </trkpt>
      <trkpt lat="43.02257" lon="0.57013">
        <ele>570</ele>
        <time>2018-03-18T08:37:35.000Z</time>
      </trkpt>
      <trkpt lat="43.02257" lon="0.57012">
        <ele>571</ele>
        <time>2018-03-18T08:37:37.000Z</time>
      </trkpt>
      <trkpt lat="43.02258" lon="0.5701">
        <ele>571</ele>
        <time>2018-03-18T08:37:39.000Z</time>
      </trkpt>
      <trkpt lat="43.02258" lon="0.57008">
        <ele>572</ele>
        <time>2018-03-18T08:37:41.000Z</time>
      </trkpt>
      <trkpt lat="43.02259" lon="0.57006">
        <ele>572</ele>
        <time>2018-03-18T08:37:43.000Z</time>
      </trkpt>
      <trkpt lat="43.0226" lon="0.57004">
        <ele>573</ele>
        <time>2018-03-18T08:37:45.000Z</time>
      </trkpt>
      <trkpt lat="43.0226" lon="0.57002">
        <ele>573</ele>
        <time>2018-03-18T08:37:47.000Z</time>
      </trkpt>
      <trkpt lat="43.0226" lon="0.57001">
        <ele>573</ele>
        <time>2018-03-18T08:37:49.000Z</time>
      </trkpt>
      <trkpt lat="43.0226" lon="0.56999">
        <ele>574</ele>
        <time>2018-03-18T08:37:51.000Z</time>
      </trkpt>
      <trkpt lat="43.0226" lon="0.56997">
        <ele>574</ele>
        <time>2018-03-18T08:37:53.000Z</time>
      </trkpt>
      <trkpt lat="43.0226" lon="0.56996">
        <ele>574</ele>
        <time>2018-03-18T08:37:55.000Z</time>
      </trkpt>
      <trkpt lat="43.02261" lon="0.56995">
        <ele>575</ele>
        <time>2018-03-18T08:37:57.000Z</time>
      </trkpt>
      <trkpt lat="43.02261" lon="0.56993">
        <ele>575</ele>
        <time>2018-03-18T08:37:59.000Z</time>
      </trkpt>
      <trkpt lat="43.02261" lon="0.56991">
        <ele>575</ele>
        <time>2018-03-18T08:38:01.000Z</time>
      </trkpt>
      <trkpt lat="43.02262" lon="0.56989">
        <ele>576</ele>
        <time>2018-03-18T08:38:03.000Z</time>
      </trkpt>
      <trkpt lat="43.02261" lon="0.56989">
        <ele>576</ele>
        <time>2018-03-18T08:38:05.000Z</time>
      </trkpt>
      <trkpt lat="43.02261" lon="0.56987">
        <ele>576</ele>
        <time>2018-03-18T08:38:07.000Z</time>
      </trkpt>
      <trkpt lat="43.02261" lon="0.56985">
        <ele>577</ele>
        <time>2018-03-18T08:38:09.000Z</time>
      </trkpt>
      <trkpt lat="43.02261" lon="0.56983">
        <ele>577</ele>
        <time>2018-03-18T08:38:11.000Z</time>
      </trkpt>
      <trkpt lat="43.02261" lon="0.56981">
        <ele>578</ele>
        <time>2018-03-18T08:38:13.000Z</time>
      </trkpt>
      <trkpt lat="43.02262" lon="0.56978">
        <ele>578</ele>
        <time>2018-03-18T08:38:15.000Z</time>
      </trkpt>
      <trkpt lat="43.02262" lon="0.56976">
        <ele>579</ele>
        <time>2018-03-18T08:38:17.000Z</time>
      </trkpt>
      <trkpt lat="43.02262" lon="0.56974">
        <ele>579</ele>
        <time>2018-03-18T08:38:19.000Z</time>
      </trkpt>
      <trkpt lat="43.02263" lon="0.56973">
        <ele>579</ele>
        <time>2018-03-18T08:38:21.000Z</time>
      </trkpt>
      <trkpt lat="43.02264" lon="0.56971">
        <ele>579</ele>
        <time>2018-03-18T08:38:23.000Z</time>
      </trkpt>
      <trkpt lat="43.02265" lon="0.5697">
        <ele>579</ele>
        <time>2018-03-18T08:38:25.000Z</time>
      </trkpt>
      <trkpt lat="43.02265" lon="0.56969">
        <ele>580</ele>
        <time>2018-03-18T08:38:27.000Z</time>
      </trkpt>
      <trkpt lat="43.02264" lon="0.56968">
        <ele>580</ele>
        <time>2018-03-18T08:38:29.000Z</time>
      </trkpt>
      <trkpt lat="43.02264" lon="0.56966">
        <ele>580</ele>
        <time>2018-03-18T08:38:31.000Z</time>
      </trkpt>
      <trkpt lat="43.02263" lon="0.56964">
        <ele>580</ele>
        <time>2018-03-18T08:38:33.000Z</time>
      </trkpt>
      <trkpt lat="43.02263" lon="0.56962">
        <ele>581</ele>
        <time>2018-03-18T08:38:35.000Z</time>
      </trkpt>
      <trkpt lat="43.02263" lon="0.5696">
        <ele>581</ele>
        <time>2018-03-18T08:38:37.000Z</time>
      </trkpt>
      <trkpt lat="43.02263" lon="0.56958">
        <ele>581</ele>
        <time>2018-03-18T08:38:39.000Z</time>
      </trkpt>
      <trkpt lat="43.02262" lon="0.56957">
        <ele>581</ele>
        <time>2018-03-18T08:38:41.000Z</time>
      </trkpt>
      <trkpt lat="43.02263" lon="0.56956">
        <ele>581</ele>
        <time>2018-03-18T08:38:43.000Z</time>
      </trkpt>
      <trkpt lat="43.02262" lon="0.56954">
        <ele>582</ele>
        <time>2018-03-18T08:38:45.000Z</time>
      </trkpt>
      <trkpt lat="43.02262" lon="0.56953">
        <ele>582</ele>
        <time>2018-03-18T08:38:47.000Z</time>
      </trkpt>
      <trkpt lat="43.02262" lon="0.56951">
        <ele>582</ele>
        <time>2018-03-18T08:38:49.000Z</time>
      </trkpt>
      <trkpt lat="43.02262" lon="0.56949">
        <ele>582</ele>
        <time>2018-03-18T08:38:51.000Z</time>
      </trkpt>
      <trkpt lat="43.02261" lon="0.56948">
        <ele>582</ele>
        <time>2018-03-18T08:38:53.000Z</time>
      </trkpt>
      <trkpt lat="43.0226" lon="0.56946">
        <ele>583</ele>
        <time>2018-03-18T08:38:55.000Z</time>
      </trkpt>
      <trkpt lat="43.0226" lon="0.56945">
        <ele>583</ele>
        <time>2018-03-18T08:38:57.000Z</time>
      </trkpt>
      <trkpt lat="43.02261" lon="0.56943">
        <ele>583</ele>
        <time>2018-03-18T08:38:59.000Z</time>
      </trkpt>
      <trkpt lat="43.02262" lon="0.56942">
        <ele>583</ele>
        <time>2018-03-18T08:39:01.000Z</time>
      </trkpt>
      <trkpt lat="43.02261" lon="0.56941">
        <ele>583</ele>
        <time>2018-03-18T08:39:03.000Z</time>
      </trkpt>
      <trkpt lat="43.02261" lon="0.5694">
        <ele>583</ele>
        <time>2018-03-18T08:39:05.000Z</time>
      </trkpt>
      <trkpt lat="43.02262" lon="0.56937">
        <ele>583</ele>
        <time>2018-03-18T08:39:07.000Z</time>
      </trkpt>
      <trkpt lat="43.02261" lon="0.56936">
        <ele>583</ele>
        <time>2018-03-18T08:39:09.000Z</time>
      </trkpt>
      <trkpt lat="43.02261" lon="0.56935">
        <ele>584</ele>
        <time>2018-03-18T08:39:11.000Z</time>
      </trkpt>
      <trkpt lat="43.02261" lon="0.56935">
        <ele>584</ele>
        <time>2018-03-18T08:39:13.000Z</time>
      </trkpt>
      <trkpt lat="43.02261" lon="0.56934">
        <ele>584</ele>
        <time>2018-03-18T08:39:15.000Z</time>
      </trkpt>
      <trkpt lat="43.02259" lon="0.56933">
        <ele>584</ele>
        <time>2018-03-18T08:39:17.000Z</time>
      </trkpt>
      <trkpt lat="43.02259" lon="0.56931">
        <ele>585</ele>
        <time>2018-03-18T08:39:19.000Z</time>
      </trkpt>
      <trkpt lat="43.02259" lon="0.56929">
        <ele>585</ele>
        <time>2018-03-18T08:39:21.000Z</time>
      </trkpt>
      <trkpt lat="43.02259" lon="0.56927">
        <ele>585</ele>
        <time>2018-03-18T08:39:23.000Z</time>
      </trkpt>
      <trkpt lat="43.02258" lon="0.56925">
        <ele>585</ele>
        <time>2018-03-18T08:39:25.000Z</time>
      </trkpt>
      <trkpt lat="43.02258" lon="0.56924">
        <ele>585</ele>
        <time>2018-03-18T08:39:27.000Z</time>
      </trkpt>
      <trkpt lat="43.02257" lon="0.56922">
        <ele>585</ele>
        <time>2018-03-18T08:39:29.000Z</time>
      </trkpt>
      <trkpt lat="43.02257" lon="0.56921">
        <ele>585</ele>
        <time>2018-03-18T08:39:31.000Z</time>
      </trkpt>
      <trkpt lat="43.02257" lon="0.56919">
        <ele>585</ele>
        <time>2018-03-18T08:39:33.000Z</time>
      </trkpt>
      <trkpt lat="43.02256" lon="0.56917">
        <ele>585</ele>
        <time>2018-03-18T08:39:35.000Z</time>
      </trkpt>
      <trkpt lat="43.02256" lon="0.56915">
        <ele>586</ele>
        <time>2018-03-18T08:39:37.000Z</time>
      </trkpt>
      <trkpt lat="43.02255" lon="0.56914">
        <ele>586</ele>
        <time>2018-03-18T08:39:39.000Z</time>
      </trkpt>
      <trkpt lat="43.02255" lon="0.56913">
        <ele>586</ele>
        <time>2018-03-18T08:39:41.000Z</time>
      </trkpt>
      <trkpt lat="43.02256" lon="0.56913">
        <ele>586</ele>
        <time>2018-03-18T08:39:43.000Z</time>
      </trkpt>
      <trkpt lat="43.02256" lon="0.56914">
        <ele>586</ele>
        <time>2018-03-18T08:39:45.000Z</time>
      </trkpt>
      <trkpt lat="43.02256" lon="0.56914">
        <ele>586</ele>
        <time>2018-03-18T08:39:47.000Z</time>
      </trkpt>
      <trkpt lat="43.02256" lon="0.56914">
        <ele>586</ele>
        <time>2018-03-18T08:39:49.000Z</time>
      </trkpt>
      <trkpt lat="43.02256" lon="0.56914">
        <ele>586</ele>
        <time>2018-03-18T08:39:51.000Z</time>
      </trkpt>
      <trkpt lat="43.02257" lon="0.56914">
        <ele>586</ele>
        <time>2018-03-18T08:39:53.000Z</time>
      </trkpt>
      <trkpt lat="43.02258" lon="0.56914">
        <ele>586</ele>
        <time>2018-03-18T08:39:55.000Z</time>
      </trkpt>
      <trkpt lat="43.02258" lon="0.56914">
        <ele>586</ele>
        <time>2018-03-18T08:39:57.000Z</time>
      </trkpt>
      <trkpt lat="43.02259" lon="0.56914">
        <ele>586</ele>
        <time>2018-03-18T08:39:59.000Z</time>
      </trkpt>
      <trkpt lat="43.02259" lon="0.56914">
        <ele>586</ele>
        <time>2018-03-18T08:40:01.000Z</time>
      </trkpt>
      <trkpt lat="43.02259" lon="0.56913">
        <ele>586</ele>
        <time>2018-03-18T08:40:03.000Z</time>
      </trkpt>
      <trkpt lat="43.02259" lon="0.56913">
        <ele>586</ele>
        <time>2018-03-18T08:40:05.000Z</time>
      </trkpt>
      <trkpt lat="43.02258" lon="0.56913">
        <ele>586</ele>
        <time>2018-03-18T08:40:07.000Z</time>
      </trkpt>
      <trkpt lat="43.02258" lon="0.56913">
        <ele>586</ele>
        <time>2018-03-18T08:40:09.000Z</time>
      </trkpt>
      <trkpt lat="43.02258" lon="0.56913">
        <ele>586</ele>
        <time>2018-03-18T08:40:11.000Z</time>
      </trkpt>
      <trkpt lat="43.02259" lon="0.56913">
        <ele>586</ele>
        <time>2018-03-18T08:40:13.000Z</time>
      </trkpt>
      <trkpt lat="43.02259" lon="0.56914">
        <ele>586</ele>
        <time>2018-03-18T08:40:15.000Z</time>
      </trkpt>
      <trkpt lat="43.0226" lon="0.56914">
        <ele>586</ele>
        <time>2018-03-18T08:40:17.000Z</time>
      </trkpt>
      <trkpt lat="43.02261" lon="0.56913">
        <ele>586</ele>
        <time>2018-03-18T08:40:19.000Z</time>
      </trkpt>
      <trkpt lat="43.02262" lon="0.56913">
        <ele>586</ele>
        <time>2018-03-18T08:40:21.000Z</time>
      </trkpt>
      <trkpt lat="43.02262" lon="0.56913">
        <ele>586</ele>
        <time>2018-03-18T08:40:23.000Z</time>
      </trkpt>
      <trkpt lat="43.02261" lon="0.56913">
        <ele>586</ele>
        <time>2018-03-18T08:40:25.000Z</time>
      </trkpt>
      <trkpt lat="43.02262" lon="0.56914">
        <ele>585</ele>
        <time>2018-03-18T08:40:27.000Z</time>
      </trkpt>
      <trkpt lat="43.02263" lon="0.56914">
        <ele>585</ele>
        <time>2018-03-18T08:40:29.000Z</time>
      </trkpt>
      <trkpt lat="43.02263" lon="0.56914">
        <ele>585</ele>
        <time>2018-03-18T08:40:31.000Z</time>
      </trkpt>
      <trkpt lat="43.02263" lon="0.56915">
        <ele>585</ele>
        <time>2018-03-18T08:40:33.000Z</time>
      </trkpt>
      <trkpt lat="43.02262" lon="0.56915">
        <ele>585</ele>
        <time>2018-03-18T08:40:35.000Z</time>
      </trkpt>
      <trkpt lat="43.02262" lon="0.56916">
        <ele>585</ele>
        <time>2018-03-18T08:40:37.000Z</time>
      </trkpt>
      <trkpt lat="43.02262" lon="0.56916">
        <ele>585</ele>
        <time>2018-03-18T08:40:39.000Z</time>
      </trkpt>
      <trkpt lat="43.02262" lon="0.56916">
        <ele>585</ele>
        <time>2018-03-18T08:40:41.000Z</time>
      </trkpt>
      <trkpt lat="43.02261" lon="0.56916">
        <ele>585</ele>
        <time>2018-03-18T08:40:43.000Z</time>
      </trkpt>
      <trkpt lat="43.02262" lon="0.56915">
        <ele>585</ele>
        <time>2018-03-18T08:40:45.000Z</time>
      </trkpt>
      <trkpt lat="43.02261" lon="0.56914">
        <ele>586</ele>
        <time>2018-03-18T08:40:47.000Z</time>
      </trkpt>
      <trkpt lat="43.02262" lon="0.56914">
        <ele>585</ele>
        <time>2018-03-18T08:40:49.000Z</time>
      </trkpt>
      <trkpt lat="43.02262" lon="0.56914">
        <ele>585</ele>
        <time>2018-03-18T08:40:51.000Z</time>
      </trkpt>
      <trkpt lat="43.02262" lon="0.56914">
        <ele>585</ele>
        <time>2018-03-18T08:40:53.000Z</time>
      </trkpt>
      <trkpt lat="43.02262" lon="0.56913">
        <ele>586</ele>
        <time>2018-03-18T08:40:55.000Z</time>
      </trkpt>
      <trkpt lat="43.02262" lon="0.56912">
        <ele>586</ele>
        <time>2018-03-18T08:40:57.000Z</time>
      </trkpt>
      <trkpt lat="43.02262" lon="0.56913">
        <ele>585</ele>
        <time>2018-03-18T08:40:59.000Z</time>
      </trkpt>
      <trkpt lat="43.02263" lon="0.56913">
        <ele>585</ele>
        <time>2018-03-18T08:41:01.000Z</time>
      </trkpt>
      <trkpt lat="43.02264" lon="0.56913">
        <ele>585</ele>
        <time>2018-03-18T08:41:03.000Z</time>
      </trkpt>
      <trkpt lat="43.02264" lon="0.56913">
        <ele>585</ele>
        <time>2018-03-18T08:41:05.000Z</time>
      </trkpt>
      <trkpt lat="43.02264" lon="0.56912">
        <ele>585</ele>
        <time>2018-03-18T08:41:07.000Z</time>
      </trkpt>
      <trkpt lat="43.02264" lon="0.56912">
        <ele>585</ele>
        <time>2018-03-18T08:41:09.000Z</time>
      </trkpt>
      <trkpt lat="43.02264" lon="0.56912">
        <ele>585</ele>
        <time>2018-03-18T08:41:11.000Z</time>
      </trkpt>
      <trkpt lat="43.02265" lon="0.56911">
        <ele>585</ele>
        <time>2018-03-18T08:41:13.000Z</time>
      </trkpt>
      <trkpt lat="43.02264" lon="0.56911">
        <ele>585</ele>
        <time>2018-03-18T08:41:15.000Z</time>
      </trkpt>
      <trkpt lat="43.02265" lon="0.56911">
        <ele>585</ele>
        <time>2018-03-18T08:41:17.000Z</time>
      </trkpt>
      <trkpt lat="43.02266" lon="0.56911">
        <ele>585</ele>
        <time>2018-03-18T08:41:19.000Z</time>
      </trkpt>
      <trkpt lat="43.02266" lon="0.56911">
        <ele>585</ele>
        <time>2018-03-18T08:41:21.000Z</time>
      </trkpt>
      <trkpt lat="43.02267" lon="0.5691">
        <ele>585</ele>
        <time>2018-03-18T08:41:23.000Z</time>
      </trkpt>
      <trkpt lat="43.02267" lon="0.5691">
        <ele>585</ele>
        <time>2018-03-18T08:41:25.000Z</time>
      </trkpt>
      <trkpt lat="43.02267" lon="0.5691">
        <ele>585</ele>
        <time>2018-03-18T08:41:27.000Z</time>
      </trkpt>
      <trkpt lat="43.02267" lon="0.5691">
        <ele>585</ele>
        <time>2018-03-18T08:41:29.000Z</time>
      </trkpt>
      <trkpt lat="43.02266" lon="0.56911">
        <ele>585</ele>
        <time>2018-03-18T08:41:31.000Z</time>
      </trkpt>
      <trkpt lat="43.02265" lon="0.56911">
        <ele>585</ele>
        <time>2018-03-18T08:41:33.000Z</time>
      </trkpt>
      <trkpt lat="43.02264" lon="0.5691">
        <ele>585</ele>
        <time>2018-03-18T08:41:35.000Z</time>
      </trkpt>
      <trkpt lat="43.02262" lon="0.56909">
        <ele>586</ele>
        <time>2018-03-18T08:41:37.000Z</time>
      </trkpt>
      <trkpt lat="43.0226" lon="0.56908">
        <ele>586</ele>
        <time>2018-03-18T08:41:39.000Z</time>
      </trkpt>
      <trkpt lat="43.02259" lon="0.56907">
        <ele>587</ele>
        <time>2018-03-18T08:41:41.000Z</time>
      </trkpt>
      <trkpt lat="43.02258" lon="0.56905">
        <ele>587</ele>
        <time>2018-03-18T08:41:43.000Z</time>
      </trkpt>
      <trkpt lat="43.02256" lon="0.56903">
        <ele>587</ele>
        <time>2018-03-18T08:41:45.000Z</time>
      </trkpt>
      <trkpt lat="43.02256" lon="0.569">
        <ele>587</ele>
        <time>2018-03-18T08:41:47.000Z</time>
      </trkpt>
      <trkpt lat="43.02255" lon="0.56898">
        <ele>587</ele>
        <time>2018-03-18T08:41:49.000Z</time>
      </trkpt>
      <trkpt lat="43.02256" lon="0.56895">
        <ele>588</ele>
        <time>2018-03-18T08:41:51.000Z</time>
      </trkpt>
      <trkpt lat="43.02255" lon="0.56893">
        <ele>588</ele>
        <time>2018-03-18T08:41:53.000Z</time>
      </trkpt>
      <trkpt lat="43.02254" lon="0.56891">
        <ele>588</ele>
        <time>2018-03-18T08:41:55.000Z</time>
      </trkpt>
      <trkpt lat="43.02252" lon="0.56888">
        <ele>588</ele>
        <time>2018-03-18T08:41:57.000Z</time>
      </trkpt>
      <trkpt lat="43.02252" lon="0.56888">
        <ele>588</ele>
        <time>2018-03-18T08:41:59.000Z</time>
      </trkpt>
      <trkpt lat="43.02252" lon="0.56888">
        <ele>588</ele>
        <time>2018-03-18T08:42:01.000Z</time>
      </trkpt>
      <trkpt lat="43.02252" lon="0.56888">
        <ele>588</ele>
        <time>2018-03-18T08:42:03.000Z</time>
      </trkpt>
      <trkpt lat="43.02252" lon="0.56888">
        <ele>588</ele>
        <time>2018-03-18T08:42:05.000Z</time>
      </trkpt>
      <trkpt lat="43.02252" lon="0.56888">
        <ele>588</ele>
        <time>2018-03-18T08:42:07.000Z</time>
      </trkpt>
      <trkpt lat="43.02252" lon="0.56888">
        <ele>588</ele>
        <time>2018-03-18T08:42:09.000Z</time>
      </trkpt>
      <trkpt lat="43.02252" lon="0.56888">
        <ele>588</ele>
        <time>2018-03-18T08:42:11.000Z</time>
      </trkpt>
      <trkpt lat="43.02252" lon="0.56888">
        <ele>588</ele>
        <time>2018-03-18T08:42:13.000Z</time>
      </trkpt>
      <trkpt lat="43.02252" lon="0.56888">
        <ele>588</ele>
        <time>2018-03-18T08:42:15.000Z</time>
      </trkpt>
      <trkpt lat="43.02252" lon="0.56889">
        <ele>588</ele>
        <time>2018-03-18T08:42:17.000Z</time>
      </trkpt>
      <trkpt lat="43.02251" lon="0.56889">
        <ele>587</ele>
        <time>2018-03-18T08:42:19.000Z</time>
      </trkpt>
      <trkpt lat="43.0225" lon="0.56889">
        <ele>587</ele>
        <time>2018-03-18T08:42:21.000Z</time>
      </trkpt>
      <trkpt lat="43.02251" lon="0.56889">
        <ele>587</ele>
        <time>2018-03-18T08:42:23.000Z</time>
      </trkpt>
      <trkpt lat="43.02251" lon="0.56889">
        <ele>587</ele>
        <time>2018-03-18T08:42:25.000Z</time>
      </trkpt>
      <trkpt lat="43.02251" lon="0.56888">
        <ele>588</ele>
        <time>2018-03-18T08:42:27.000Z</time>
      </trkpt>
      <trkpt lat="43.02252" lon="0.56888">
        <ele>588</ele>
        <time>2018-03-18T08:42:29.000Z</time>
      </trkpt>
      <trkpt lat="43.02251" lon="0.56887">
        <ele>588</ele>
        <time>2018-03-18T08:42:31.000Z</time>
      </trkpt>
      <trkpt lat="43.02251" lon="0.56886">
        <ele>588</ele>
        <time>2018-03-18T08:42:33.000Z</time>
      </trkpt>
      <trkpt lat="43.02251" lon="0.56886">
        <ele>588</ele>
        <time>2018-03-18T08:42:35.000Z</time>
      </trkpt>
      <trkpt lat="43.02252" lon="0.56885">
        <ele>588</ele>
        <time>2018-03-18T08:42:37.000Z</time>
      </trkpt>
      <trkpt lat="43.02251" lon="0.56884">
        <ele>588</ele>
        <time>2018-03-18T08:42:39.000Z</time>
      </trkpt>
      <trkpt lat="43.02251" lon="0.56884">
        <ele>588</ele>
        <time>2018-03-18T08:42:41.000Z</time>
      </trkpt>
      <trkpt lat="43.02251" lon="0.56884">
        <ele>588</ele>
        <time>2018-03-18T08:42:43.000Z</time>
      </trkpt>
      <trkpt lat="43.02251" lon="0.56884">
        <ele>588</ele>
        <time>2018-03-18T08:42:45.000Z</time>
      </trkpt>
      <trkpt lat="43.02251" lon="0.56885">
        <ele>588</ele>
        <time>2018-03-18T08:42:47.000Z</time>
      </trkpt>
      <trkpt lat="43.02251" lon="0.56884">
        <ele>588</ele>
        <time>2018-03-18T08:42:49.000Z</time>
      </trkpt>
      <trkpt lat="43.02251" lon="0.56884">
        <ele>588</ele>
        <time>2018-03-18T08:42:51.000Z</time>
      </trkpt>
      <trkpt lat="43.02252" lon="0.56884">
        <ele>588</ele>
        <time>2018-03-18T08:42:53.000Z</time>
      </trkpt>
      <trkpt lat="43.02253" lon="0.56884">
        <ele>588</ele>
        <time>2018-03-18T08:42:55.000Z</time>
      </trkpt>
      <trkpt lat="43.02254" lon="0.56882">
        <ele>588</ele>
        <time>2018-03-18T08:42:57.000Z</time>
      </trkpt>
      <trkpt lat="43.02255" lon="0.56882">
        <ele>589</ele>
        <time>2018-03-18T08:42:59.000Z</time>
      </trkpt>
      <trkpt lat="43.02255" lon="0.56881">
        <ele>589</ele>
        <time>2018-03-18T08:43:01.000Z</time>
      </trkpt>
      <trkpt lat="43.02255" lon="0.56881">
        <ele>589</ele>
        <time>2018-03-18T08:43:03.000Z</time>
      </trkpt>
      <trkpt lat="43.02256" lon="0.56882">
        <ele>589</ele>
        <time>2018-03-18T08:43:05.000Z</time>
      </trkpt>
      <trkpt lat="43.02257" lon="0.56882">
        <ele>589</ele>
        <time>2018-03-18T08:43:07.000Z</time>
      </trkpt>
      <trkpt lat="43.02258" lon="0.56883">
        <ele>589</ele>
        <time>2018-03-18T08:43:09.000Z</time>
      </trkpt>
      <trkpt lat="43.02258" lon="0.56885">
        <ele>589</ele>
        <time>2018-03-18T08:43:11.000Z</time>
      </trkpt>
      <trkpt lat="43.02258" lon="0.56886">
        <ele>589</ele>
        <time>2018-03-18T08:43:13.000Z</time>
      </trkpt>
      <trkpt lat="43.02258" lon="0.56887">
        <ele>589</ele>
        <time>2018-03-18T08:43:15.000Z</time>
      </trkpt>
      <trkpt lat="43.0226" lon="0.56889">
        <ele>588</ele>
        <time>2018-03-18T08:43:17.000Z</time>
      </trkpt>
      <trkpt lat="43.0226" lon="0.56889">
        <ele>588</ele>
        <time>2018-03-18T08:43:19.000Z</time>
      </trkpt>
      <trkpt lat="43.0226" lon="0.5689">
        <ele>588</ele>
        <time>2018-03-18T08:43:21.000Z</time>
      </trkpt>
      <trkpt lat="43.0226" lon="0.5689">
        <ele>588</ele>
        <time>2018-03-18T08:43:23.000Z</time>
      </trkpt>
      <trkpt lat="43.02259" lon="0.5689">
        <ele>588</ele>
        <time>2018-03-18T08:43:25.000Z</time>
      </trkpt>
      <trkpt lat="43.02259" lon="0.5689">
        <ele>588</ele>
        <time>2018-03-18T08:43:27.000Z</time>
      </trkpt>
      <trkpt lat="43.02258" lon="0.5689">
        <ele>588</ele>
        <time>2018-03-18T08:43:29.000Z</time>
      </trkpt>
      <trkpt lat="43.02258" lon="0.5689">
        <ele>588</ele>
        <time>2018-03-18T08:43:31.000Z</time>
      </trkpt>
      <trkpt lat="43.02258" lon="0.5689">
        <ele>588</ele>
        <time>2018-03-18T08:43:33.000Z</time>
      </trkpt>
      <trkpt lat="43.02257" lon="0.5689">
        <ele>588</ele>
        <time>2018-03-18T08:43:35.000Z</time>
      </trkpt>
      <trkpt lat="43.02257" lon="0.5689">
        <ele>588</ele>
        <time>2018-03-18T08:43:37.000Z</time>
      </trkpt>
      <trkpt lat="43.02257" lon="0.5689">
        <ele>588</ele>
        <time>2018-03-18T08:43:39.000Z</time>
      </trkpt>
      <trkpt lat="43.02256" lon="0.56889">
        <ele>588</ele>
        <time>2018-03-18T08:43:41.000Z</time>
      </trkpt>
      <trkpt lat="43.02256" lon="0.56889">
        <ele>588</ele>
        <time>2018-03-18T08:43:43.000Z</time>
      </trkpt>
      <trkpt lat="43.02255" lon="0.56889">
        <ele>588</ele>
        <time>2018-03-18T08:43:45.000Z</time>
      </trkpt>
      <trkpt lat="43.02255" lon="0.56889">
        <ele>588</ele>
        <time>2018-03-18T08:43:47.000Z</time>
      </trkpt>
      <trkpt lat="43.02256" lon="0.56889">
        <ele>588</ele>
        <time>2018-03-18T08:43:49.000Z</time>
      </trkpt>
      <trkpt lat="43.02256" lon="0.56889">
        <ele>588</ele>
        <time>2018-03-18T08:43:51.000Z</time>
      </trkpt>
      <trkpt lat="43.02257" lon="0.5689">
        <ele>588</ele>
        <time>2018-03-18T08:43:53.000Z</time>
      </trkpt>
      <trkpt lat="43.02257" lon="0.5689">
        <ele>588</ele>
        <time>2018-03-18T08:43:55.000Z</time>
      </trkpt>
      <trkpt lat="43.02256" lon="0.56891">
        <ele>588</ele>
        <time>2018-03-18T08:43:57.000Z</time>
      </trkpt>
      <trkpt lat="43.02257" lon="0.5689">
        <ele>588</ele>
        <time>2018-03-18T08:43:59.000Z</time>
      </trkpt>
      <trkpt lat="43.02257" lon="0.5689">
        <ele>588</ele>
        <time>2018-03-18T08:44:01.000Z</time>
      </trkpt>
      <trkpt lat="43.02257" lon="0.5689">
        <ele>588</ele>
        <time>2018-03-18T08:44:03.000Z</time>
      </trkpt>
      <trkpt lat="43.02257" lon="0.56891">
        <ele>588</ele>
        <time>2018-03-18T08:44:05.000Z</time>
      </trkpt>
      <trkpt lat="43.02257" lon="0.56891">
        <ele>588</ele>
        <time>2018-03-18T08:44:07.000Z</time>
      </trkpt>
      <trkpt lat="43.02257" lon="0.56891">
        <ele>588</ele>
        <time>2018-03-18T08:44:09.000Z</time>
      </trkpt>
      <trkpt lat="43.02257" lon="0.5689">
        <ele>588</ele>
        <time>2018-03-18T08:44:11.000Z</time>
      </trkpt>
      <trkpt lat="43.02257" lon="0.56889">
        <ele>588</ele>
        <time>2018-03-18T08:44:13.000Z</time>
      </trkpt>
      <trkpt lat="43.02257" lon="0.56889">
        <ele>588</ele>
        <time>2018-03-18T08:44:15.000Z</time>
      </trkpt>
      <trkpt lat="43.02257" lon="0.56888">
        <ele>588</ele>
        <time>2018-03-18T08:44:17.000Z</time>
      </trkpt>
      <trkpt lat="43.02256" lon="0.56887">
        <ele>588</ele>
        <time>2018-03-18T08:44:19.000Z</time>
      </trkpt>
      <trkpt lat="43.02254" lon="0.56884">
        <ele>588</ele>
        <time>2018-03-18T08:44:21.000Z</time>
      </trkpt>
      <trkpt lat="43.02253" lon="0.56882">
        <ele>588</ele>
        <time>2018-03-18T08:44:23.000Z</time>
      </trkpt>
      <trkpt lat="43.02253" lon="0.56882">
        <ele>588</ele>
        <time>2018-03-18T08:44:25.000Z</time>
      </trkpt>
      <trkpt lat="43.02253" lon="0.5688">
        <ele>588</ele>
        <time>2018-03-18T08:44:27.000Z</time>
      </trkpt>
      <trkpt lat="43.02254" lon="0.5688">
        <ele>589</ele>
        <time>2018-03-18T08:44:29.000Z</time>
      </trkpt>
      <trkpt lat="43.02253" lon="0.56881">
        <ele>588</ele>
        <time>2018-03-18T08:44:31.000Z</time>
      </trkpt>
      <trkpt lat="43.02253" lon="0.5688">
        <ele>588</ele>
        <time>2018-03-18T08:44:33.000Z</time>
      </trkpt>
      <trkpt lat="43.02253" lon="0.5688">
        <ele>588</ele>
        <time>2018-03-18T08:44:35.000Z</time>
      </trkpt>
      <trkpt lat="43.02252" lon="0.56881">
        <ele>588</ele>
        <time>2018-03-18T08:44:37.000Z</time>
      </trkpt>
      <trkpt lat="43.02251" lon="0.56881">
        <ele>588</ele>
        <time>2018-03-18T08:44:39.000Z</time>
      </trkpt>
      <trkpt lat="43.02251" lon="0.56881">
        <ele>588</ele>
        <time>2018-03-18T08:44:41.000Z</time>
      </trkpt>
      <trkpt lat="43.02251" lon="0.56882">
        <ele>588</ele>
        <time>2018-03-18T08:44:43.000Z</time>
      </trkpt>
      <trkpt lat="43.02249" lon="0.56884">
        <ele>588</ele>
        <time>2018-03-18T08:44:45.000Z</time>
      </trkpt>
      <trkpt lat="43.02249" lon="0.56885">
        <ele>588</ele>
        <time>2018-03-18T08:44:47.000Z</time>
      </trkpt>
      <trkpt lat="43.02249" lon="0.56885">
        <ele>587</ele>
        <time>2018-03-18T08:44:49.000Z</time>
      </trkpt>
      <trkpt lat="43.02249" lon="0.56885">
        <ele>587</ele>
        <time>2018-03-18T08:44:51.000Z</time>
      </trkpt>
      <trkpt lat="43.02249" lon="0.56886">
        <ele>587</ele>
        <time>2018-03-18T08:44:53.000Z</time>
      </trkpt>
      <trkpt lat="43.02249" lon="0.56887">
        <ele>587</ele>
        <time>2018-03-18T08:44:55.000Z</time>
      </trkpt>
      <trkpt lat="43.02249" lon="0.56887">
        <ele>587</ele>
        <time>2018-03-18T08:44:57.000Z</time>
      </trkpt>
      <trkpt lat="43.02249" lon="0.56887">
        <ele>587</ele>
        <time>2018-03-18T08:44:59.000Z</time>
      </trkpt>
      <trkpt lat="43.0225" lon="0.56888">
        <ele>587</ele>
        <time>2018-03-18T08:45:01.000Z</time>
      </trkpt>
      <trkpt lat="43.0225" lon="0.56888">
        <ele>587</ele>
        <time>2018-03-18T08:45:03.000Z</time>
      </trkpt>
      <trkpt lat="43.0225" lon="0.56888">
        <ele>587</ele>
        <time>2018-03-18T08:45:05.000Z</time>
      </trkpt>
      <trkpt lat="43.02251" lon="0.56888">
        <ele>587</ele>
        <time>2018-03-18T08:45:07.000Z</time>
      </trkpt>
      <trkpt lat="43.02251" lon="0.56888">
        <ele>588</ele>
        <time>2018-03-18T08:45:09.000Z</time>
      </trkpt>
      <trkpt lat="43.02251" lon="0.56888">
        <ele>588</ele>
        <time>2018-03-18T08:45:11.000Z</time>
      </trkpt>
      <trkpt lat="43.0225" lon="0.56888">
        <ele>587</ele>
        <time>2018-03-18T08:45:13.000Z</time>
      </trkpt>
      <trkpt lat="43.0225" lon="0.56888">
        <ele>587</ele>
        <time>2018-03-18T08:45:15.000Z</time>
      </trkpt>
      <trkpt lat="43.0225" lon="0.56888">
        <ele>587</ele>
        <time>2018-03-18T08:45:17.000Z</time>
      </trkpt>
      <trkpt lat="43.0225" lon="0.56888">
        <ele>587</ele>
        <time>2018-03-18T08:45:19.000Z</time>
      </trkpt>
      <trkpt lat="43.02251" lon="0.56888">
        <ele>588</ele>
        <time>2018-03-18T08:45:21.000Z</time>
      </trkpt>
      <trkpt lat="43.02251" lon="0.56888">
        <ele>588</ele>
        <time>2018-03-18T08:45:23.000Z</time>
      </trkpt>
      <trkpt lat="43.02251" lon="0.56888">
        <ele>588</ele>
        <time>2018-03-18T08:45:25.000Z</time>
      </trkpt>
      <trkpt lat="43.02251" lon="0.56887">
        <ele>588</ele>
        <time>2018-03-18T08:45:27.000Z</time>
      </trkpt>
      <trkpt lat="43.02252" lon="0.56887">
        <ele>588</ele>
        <time>2018-03-18T08:45:29.000Z</time>
      </trkpt>
      <trkpt lat="43.02252" lon="0.56888">
        <ele>588</ele>
        <time>2018-03-18T08:45:31.000Z</time>
      </trkpt>
      <trkpt lat="43.02252" lon="0.56888">
        <ele>588</ele>
        <time>2018-03-18T08:45:33.000Z</time>
      </trkpt>
      <trkpt lat="43.02252" lon="0.56888">
        <ele>588</ele>
        <time>2018-03-18T08:45:35.000Z</time>
      </trkpt>
      <trkpt lat="43.02252" lon="0.56888">
        <ele>588</ele>
        <time>2018-03-18T08:45:37.000Z</time>
      </trkpt>
      <trkpt lat="43.02251" lon="0.56888">
        <ele>588</ele>
        <time>2018-03-18T08:45:39.000Z</time>
      </trkpt>
      <trkpt lat="43.02251" lon="0.56887">
        <ele>588</ele>
        <time>2018-03-18T08:45:41.000Z</time>
      </trkpt>
      <trkpt lat="43.02251" lon="0.56886">
        <ele>588</ele>
        <time>2018-03-18T08:45:43.000Z</time>
      </trkpt>
      <trkpt lat="43.02251" lon="0.56886">
        <ele>588</ele>
        <time>2018-03-18T08:45:45.000Z</time>
      </trkpt>
      <trkpt lat="43.02251" lon="0.56886">
        <ele>588</ele>
        <time>2018-03-18T08:45:47.000Z</time>
      </trkpt>
      <trkpt lat="43.02251" lon="0.56886">
        <ele>588</ele>
        <time>2018-03-18T08:45:49.000Z</time>
      </trkpt>
      <trkpt lat="43.02252" lon="0.56885">
        <ele>588</ele>
        <time>2018-03-18T08:45:51.000Z</time>
      </trkpt>
      <trkpt lat="43.02252" lon="0.56885">
        <ele>588</ele>
        <time>2018-03-18T08:45:53.000Z</time>
      </trkpt>
      <trkpt lat="43.02252" lon="0.56884">
        <ele>588</ele>
        <time>2018-03-18T08:45:55.000Z</time>
      </trkpt>
      <trkpt lat="43.02251" lon="0.56882">
        <ele>588</ele>
        <time>2018-03-18T08:45:57.000Z</time>
      </trkpt>
      <trkpt lat="43.0225" lon="0.5688">
        <ele>588</ele>
        <time>2018-03-18T08:45:59.000Z</time>
      </trkpt>
      <trkpt lat="43.0225" lon="0.56878">
        <ele>588</ele>
        <time>2018-03-18T08:46:01.000Z</time>
      </trkpt>
      <trkpt lat="43.02249" lon="0.56876">
        <ele>588</ele>
        <time>2018-03-18T08:46:03.000Z</time>
      </trkpt>
      <trkpt lat="43.02248" lon="0.56874">
        <ele>588</ele>
        <time>2018-03-18T08:46:05.000Z</time>
      </trkpt>
      <trkpt lat="43.02247" lon="0.56872">
        <ele>588</ele>
        <time>2018-03-18T08:46:07.000Z</time>
      </trkpt>
      <trkpt lat="43.02247" lon="0.5687">
        <ele>588</ele>
        <time>2018-03-18T08:46:09.000Z</time>
      </trkpt>
      <trkpt lat="43.02245" lon="0.56868">
        <ele>588</ele>
        <time>2018-03-18T08:46:11.000Z</time>
      </trkpt>
      <trkpt lat="43.02244" lon="0.56865">
        <ele>588</ele>
        <time>2018-03-18T08:46:13.000Z</time>
      </trkpt>
      <trkpt lat="43.02244" lon="0.56862">
        <ele>588</ele>
        <time>2018-03-18T08:46:15.000Z</time>
      </trkpt>
      <trkpt lat="43.02244" lon="0.5686">
        <ele>588</ele>
        <time>2018-03-18T08:46:17.000Z</time>
      </trkpt>
      <trkpt lat="43.02243" lon="0.56859">
        <ele>588</ele>
        <time>2018-03-18T08:46:19.000Z</time>
      </trkpt>
      <trkpt lat="43.02243" lon="0.56857">
        <ele>588</ele>
        <time>2018-03-18T08:46:21.000Z</time>
      </trkpt>
      <trkpt lat="43.02243" lon="0.56855">
        <ele>588</ele>
        <time>2018-03-18T08:46:23.000Z</time>
      </trkpt>
      <trkpt lat="43.02242" lon="0.56853">
        <ele>588</ele>
        <time>2018-03-18T08:46:25.000Z</time>
      </trkpt>
      <trkpt lat="43.02241" lon="0.56851">
        <ele>588</ele>
        <time>2018-03-18T08:46:27.000Z</time>
      </trkpt>
      <trkpt lat="43.0224" lon="0.56849">
        <ele>588</ele>
        <time>2018-03-18T08:46:29.000Z</time>
      </trkpt>
      <trkpt lat="43.02239" lon="0.56848">
        <ele>588</ele>
        <time>2018-03-18T08:46:31.000Z</time>
      </trkpt>
      <trkpt lat="43.02238" lon="0.56846">
        <ele>588</ele>
        <time>2018-03-18T08:46:33.000Z</time>
      </trkpt>
      <trkpt lat="43.02237" lon="0.56845">
        <ele>587</ele>
        <time>2018-03-18T08:46:35.000Z</time>
      </trkpt>
      <trkpt lat="43.02236" lon="0.56843">
        <ele>587</ele>
        <time>2018-03-18T08:46:37.000Z</time>
      </trkpt>
      <trkpt lat="43.02235" lon="0.56842">
        <ele>587</ele>
        <time>2018-03-18T08:46:39.000Z</time>
      </trkpt>
      <trkpt lat="43.02233" lon="0.56841">
        <ele>587</ele>
        <time>2018-03-18T08:46:41.000Z</time>
      </trkpt>
      <trkpt lat="43.02231" lon="0.56839">
        <ele>587</ele>
        <time>2018-03-18T08:46:43.000Z</time>
      </trkpt>
      <trkpt lat="43.0223" lon="0.56838">
        <ele>587</ele>
        <time>2018-03-18T08:46:45.000Z</time>
      </trkpt>
      <trkpt lat="43.02229" lon="0.56836">
        <ele>587</ele>
        <time>2018-03-18T08:46:47.000Z</time>
      </trkpt>
      <trkpt lat="43.02229" lon="0.56835">
        <ele>587</ele>
        <time>2018-03-18T08:46:49.000Z</time>
      </trkpt>
      <trkpt lat="43.02228" lon="0.56833">
        <ele>587</ele>
        <time>2018-03-18T08:46:51.000Z</time>
      </trkpt>
      <trkpt lat="43.02227" lon="0.56832">
        <ele>587</ele>
        <time>2018-03-18T08:46:53.000Z</time>
      </trkpt>
      <trkpt lat="43.02225" lon="0.56831">
        <ele>587</ele>
        <time>2018-03-18T08:46:55.000Z</time>
      </trkpt>
      <trkpt lat="43.02224" lon="0.5683">
        <ele>587</ele>
        <time>2018-03-18T08:46:57.000Z</time>
      </trkpt>
      <trkpt lat="43.02223" lon="0.56828">
        <ele>586</ele>
        <time>2018-03-18T08:46:59.000Z</time>
      </trkpt>
      <trkpt lat="43.02222" lon="0.56827">
        <ele>586</ele>
        <time>2018-03-18T08:47:01.000Z</time>
      </trkpt>
      <trkpt lat="43.02221" lon="0.56826">
        <ele>586</ele>
        <time>2018-03-18T08:47:03.000Z</time>
      </trkpt>
      <trkpt lat="43.0222" lon="0.56824">
        <ele>586</ele>
        <time>2018-03-18T08:47:05.000Z</time>
      </trkpt>
      <trkpt lat="43.02219" lon="0.56822">
        <ele>586</ele>
        <time>2018-03-18T08:47:07.000Z</time>
      </trkpt>
      <trkpt lat="43.02218" lon="0.56821">
        <ele>586</ele>
        <time>2018-03-18T08:47:09.000Z</time>
      </trkpt>
      <trkpt lat="43.02216" lon="0.5682">
        <ele>586</ele>
        <time>2018-03-18T08:47:11.000Z</time>
      </trkpt>
      <trkpt lat="43.02216" lon="0.5682">
        <ele>586</ele>
        <time>2018-03-18T08:47:13.000Z</time>
      </trkpt>
      <trkpt lat="43.02215" lon="0.56819">
        <ele>586</ele>
        <time>2018-03-18T08:47:15.000Z</time>
      </trkpt>
      <trkpt lat="43.02214" lon="0.56817">
        <ele>586</ele>
        <time>2018-03-18T08:47:17.000Z</time>
      </trkpt>
      <trkpt lat="43.02214" lon="0.56816">
        <ele>586</ele>
        <time>2018-03-18T08:47:19.000Z</time>
      </trkpt>
      <trkpt lat="43.02215" lon="0.56815">
        <ele>586</ele>
        <time>2018-03-18T08:47:21.000Z</time>
      </trkpt>
      <trkpt lat="43.02214" lon="0.56813">
        <ele>586</ele>
        <time>2018-03-18T08:47:23.000Z</time>
      </trkpt>
      <trkpt lat="43.02213" lon="0.56812">
        <ele>586</ele>
        <time>2018-03-18T08:47:25.000Z</time>
      </trkpt>
      <trkpt lat="43.02212" lon="0.5681">
        <ele>586</ele>
        <time>2018-03-18T08:47:27.000Z</time>
      </trkpt>
      <trkpt lat="43.02211" lon="0.56808">
        <ele>586</ele>
        <time>2018-03-18T08:47:29.000Z</time>
      </trkpt>
      <trkpt lat="43.0221" lon="0.56804">
        <ele>586</ele>
        <time>2018-03-18T08:47:31.000Z</time>
      </trkpt>
      <trkpt lat="43.0221" lon="0.56802">
        <ele>585</ele>
        <time>2018-03-18T08:47:33.000Z</time>
      </trkpt>
      <trkpt lat="43.02209" lon="0.56799">
        <ele>586</ele>
        <time>2018-03-18T08:47:35.000Z</time>
      </trkpt>
      <trkpt lat="43.02207" lon="0.56797">
        <ele>586</ele>
        <time>2018-03-18T08:47:37.000Z</time>
      </trkpt>
      <trkpt lat="43.02206" lon="0.56795">
        <ele>586</ele>
        <time>2018-03-18T08:47:39.000Z</time>
      </trkpt>
      <trkpt lat="43.02206" lon="0.56793">
        <ele>586</ele>
        <time>2018-03-18T08:47:41.000Z</time>
      </trkpt>
      <trkpt lat="43.02206" lon="0.56791">
        <ele>586</ele>
        <time>2018-03-18T08:47:43.000Z</time>
      </trkpt>
      <trkpt lat="43.02205" lon="0.56789">
        <ele>586</ele>
        <time>2018-03-18T08:47:45.000Z</time>
      </trkpt>
      <trkpt lat="43.02206" lon="0.56786">
        <ele>587</ele>
        <time>2018-03-18T08:47:47.000Z</time>
      </trkpt>
      <trkpt lat="43.02206" lon="0.56784">
        <ele>587</ele>
        <time>2018-03-18T08:47:49.000Z</time>
      </trkpt>
      <trkpt lat="43.02207" lon="0.56782">
        <ele>587</ele>
        <time>2018-03-18T08:47:51.000Z</time>
      </trkpt>
      <trkpt lat="43.02207" lon="0.56779">
        <ele>588</ele>
        <time>2018-03-18T08:47:53.000Z</time>
      </trkpt>
      <trkpt lat="43.02205" lon="0.56776">
        <ele>588</ele>
        <time>2018-03-18T08:47:55.000Z</time>
      </trkpt>
      <trkpt lat="43.02204" lon="0.56774">
        <ele>588</ele>
        <time>2018-03-18T08:47:57.000Z</time>
      </trkpt>
      <trkpt lat="43.02204" lon="0.56772">
        <ele>588</ele>
        <time>2018-03-18T08:47:59.000Z</time>
      </trkpt>
      <trkpt lat="43.02204" lon="0.56769">
        <ele>589</ele>
        <time>2018-03-18T08:48:01.000Z</time>
      </trkpt>
      <trkpt lat="43.02204" lon="0.56766">
        <ele>589</ele>
        <time>2018-03-18T08:48:03.000Z</time>
      </trkpt>
      <trkpt lat="43.02203" lon="0.56763">
        <ele>589</ele>
        <time>2018-03-18T08:48:05.000Z</time>
      </trkpt>
      <trkpt lat="43.02203" lon="0.56762">
        <ele>589</ele>
        <time>2018-03-18T08:48:07.000Z</time>
      </trkpt>
      <trkpt lat="43.02203" lon="0.5676">
        <ele>589</ele>
        <time>2018-03-18T08:48:09.000Z</time>
      </trkpt>
      <trkpt lat="43.02203" lon="0.56759">
        <ele>590</ele>
        <time>2018-03-18T08:48:11.000Z</time>
      </trkpt>
      <trkpt lat="43.02202" lon="0.56757">
        <ele>590</ele>
        <time>2018-03-18T08:48:13.000Z</time>
      </trkpt>
      <trkpt lat="43.02202" lon="0.56753">
        <ele>590</ele>
        <time>2018-03-18T08:48:15.000Z</time>
      </trkpt>
      <trkpt lat="43.02202" lon="0.56751">
        <ele>590</ele>
        <time>2018-03-18T08:48:17.000Z</time>
      </trkpt>
      <trkpt lat="43.02202" lon="0.56749">
        <ele>591</ele>
        <time>2018-03-18T08:48:19.000Z</time>
      </trkpt>
      <trkpt lat="43.02201" lon="0.56747">
        <ele>591</ele>
        <time>2018-03-18T08:48:21.000Z</time>
      </trkpt>
      <trkpt lat="43.02201" lon="0.56746">
        <ele>591</ele>
        <time>2018-03-18T08:48:23.000Z</time>
      </trkpt>
      <trkpt lat="43.02201" lon="0.56744">
        <ele>591</ele>
        <time>2018-03-18T08:48:25.000Z</time>
      </trkpt>
      <trkpt lat="43.02201" lon="0.56743">
        <ele>591</ele>
        <time>2018-03-18T08:48:27.000Z</time>
      </trkpt>
      <trkpt lat="43.02201" lon="0.56741">
        <ele>591</ele>
        <time>2018-03-18T08:48:29.000Z</time>
      </trkpt>
      <trkpt lat="43.022" lon="0.56739">
        <ele>591</ele>
        <time>2018-03-18T08:48:31.000Z</time>
      </trkpt>
      <trkpt lat="43.022" lon="0.56738">
        <ele>591</ele>
        <time>2018-03-18T08:48:33.000Z</time>
      </trkpt>
      <trkpt lat="43.022" lon="0.56736">
        <ele>591</ele>
        <time>2018-03-18T08:48:35.000Z</time>
      </trkpt>
      <trkpt lat="43.02199" lon="0.56735">
        <ele>592</ele>
        <time>2018-03-18T08:48:37.000Z</time>
      </trkpt>
      <trkpt lat="43.02199" lon="0.56734">
        <ele>592</ele>
        <time>2018-03-18T08:48:39.000Z</time>
      </trkpt>
      <trkpt lat="43.02199" lon="0.56733">
        <ele>592</ele>
        <time>2018-03-18T08:48:41.000Z</time>
      </trkpt>
      <trkpt lat="43.02198" lon="0.56732">
        <ele>592</ele>
        <time>2018-03-18T08:48:43.000Z</time>
      </trkpt>
      <trkpt lat="43.02198" lon="0.56731">
        <ele>592</ele>
        <time>2018-03-18T08:48:45.000Z</time>
      </trkpt>
      <trkpt lat="43.02198" lon="0.56729">
        <ele>592</ele>
        <time>2018-03-18T08:48:47.000Z</time>
      </trkpt>
      <trkpt lat="43.02198" lon="0.56727">
        <ele>592</ele>
        <time>2018-03-18T08:48:49.000Z</time>
      </trkpt>
      <trkpt lat="43.02198" lon="0.56725">
        <ele>592</ele>
        <time>2018-03-18T08:48:51.000Z</time>
      </trkpt>
      <trkpt lat="43.02198" lon="0.56723">
        <ele>592</ele>
        <time>2018-03-18T08:48:53.000Z</time>
      </trkpt>
      <trkpt lat="43.02197" lon="0.56721">
        <ele>592</ele>
        <time>2018-03-18T08:48:55.000Z</time>
      </trkpt>
      <trkpt lat="43.02198" lon="0.56719">
        <ele>592</ele>
        <time>2018-03-18T08:48:57.000Z</time>
      </trkpt>
      <trkpt lat="43.02198" lon="0.56718">
        <ele>593</ele>
        <time>2018-03-18T08:48:59.000Z</time>
      </trkpt>
      <trkpt lat="43.02198" lon="0.56716">
        <ele>593</ele>
        <time>2018-03-18T08:49:01.000Z</time>
      </trkpt>
      <trkpt lat="43.02196" lon="0.56715">
        <ele>593</ele>
        <time>2018-03-18T08:49:03.000Z</time>
      </trkpt>
      <trkpt lat="43.02196" lon="0.56714">
        <ele>593</ele>
        <time>2018-03-18T08:49:05.000Z</time>
      </trkpt>
      <trkpt lat="43.02195" lon="0.56712">
        <ele>593</ele>
        <time>2018-03-18T08:49:07.000Z</time>
      </trkpt>
      <trkpt lat="43.02195" lon="0.56712">
        <ele>594</ele>
        <time>2018-03-18T08:49:09.000Z</time>
      </trkpt>
      <trkpt lat="43.02195" lon="0.56711">
        <ele>594</ele>
        <time>2018-03-18T08:49:11.000Z</time>
      </trkpt>
      <trkpt lat="43.02194" lon="0.5671">
        <ele>594</ele>
        <time>2018-03-18T08:49:13.000Z</time>
      </trkpt>
      <trkpt lat="43.02194" lon="0.5671">
        <ele>594</ele>
        <time>2018-03-18T08:49:15.000Z</time>
      </trkpt>
      <trkpt lat="43.02194" lon="0.56709">
        <ele>594</ele>
        <time>2018-03-18T08:49:17.000Z</time>
      </trkpt>
      <trkpt lat="43.02194" lon="0.56709">
        <ele>594</ele>
        <time>2018-03-18T08:49:19.000Z</time>
      </trkpt>
      <trkpt lat="43.02194" lon="0.56709">
        <ele>594</ele>
        <time>2018-03-18T08:49:21.000Z</time>
      </trkpt>
      <trkpt lat="43.02194" lon="0.56709">
        <ele>594</ele>
        <time>2018-03-18T08:49:23.000Z</time>
      </trkpt>
      <trkpt lat="43.02195" lon="0.56709">
        <ele>594</ele>
        <time>2018-03-18T08:49:25.000Z</time>
      </trkpt>
      <trkpt lat="43.02195" lon="0.56709">
        <ele>594</ele>
        <time>2018-03-18T08:49:27.000Z</time>
      </trkpt>
      <trkpt lat="43.02195" lon="0.56708">
        <ele>594</ele>
        <time>2018-03-18T08:49:29.000Z</time>
      </trkpt>
      <trkpt lat="43.02195" lon="0.56708">
        <ele>594</ele>
        <time>2018-03-18T08:49:31.000Z</time>
      </trkpt>
      <trkpt lat="43.02195" lon="0.56708">
        <ele>594</ele>
        <time>2018-03-18T08:49:33.000Z</time>
      </trkpt>
      <trkpt lat="43.02194" lon="0.56708">
        <ele>594</ele>
        <time>2018-03-18T08:49:35.000Z</time>
      </trkpt>
      <trkpt lat="43.02194" lon="0.56708">
        <ele>594</ele>
        <time>2018-03-18T08:49:37.000Z</time>
      </trkpt>
      <trkpt lat="43.02194" lon="0.56708">
        <ele>594</ele>
        <time>2018-03-18T08:49:39.000Z</time>
      </trkpt>
      <trkpt lat="43.02194" lon="0.56708">
        <ele>594</ele>
        <time>2018-03-18T08:49:41.000Z</time>
      </trkpt>
      <trkpt lat="43.02194" lon="0.56709">
        <ele>594</ele>
        <time>2018-03-18T08:49:43.000Z</time>
      </trkpt>
      <trkpt lat="43.02194" lon="0.56709">
        <ele>594</ele>
        <time>2018-03-18T08:49:45.000Z</time>
      </trkpt>
      <trkpt lat="43.02194" lon="0.56709">
        <ele>594</ele>
        <time>2018-03-18T08:49:47.000Z</time>
      </trkpt>
      <trkpt lat="43.02194" lon="0.56708">
        <ele>594</ele>
        <time>2018-03-18T08:49:49.000Z</time>
      </trkpt>
      <trkpt lat="43.02194" lon="0.56708">
        <ele>594</ele>
        <time>2018-03-18T08:49:51.000Z</time>
      </trkpt>
      <trkpt lat="43.02194" lon="0.56708">
        <ele>594</ele>
        <time>2018-03-18T08:49:53.000Z</time>
      </trkpt>
      <trkpt lat="43.02194" lon="0.56708">
        <ele>594</ele>
        <time>2018-03-18T08:49:55.000Z</time>
      </trkpt>
      <trkpt lat="43.02194" lon="0.56709">
        <ele>594</ele>
        <time>2018-03-18T08:49:57.000Z</time>
      </trkpt>
      <trkpt lat="43.02193" lon="0.56709">
        <ele>594</ele>
        <time>2018-03-18T08:49:59.000Z</time>
      </trkpt>
      <trkpt lat="43.02192" lon="0.5671">
        <ele>594</ele>
        <time>2018-03-18T08:50:01.000Z</time>
      </trkpt>
      <trkpt lat="43.02192" lon="0.56711">
        <ele>594</ele>
        <time>2018-03-18T08:50:03.000Z</time>
      </trkpt>
      <trkpt lat="43.02192" lon="0.56711">
        <ele>594</ele>
        <time>2018-03-18T08:50:05.000Z</time>
      </trkpt>
      <trkpt lat="43.02191" lon="0.56711">
        <ele>594</ele>
        <time>2018-03-18T08:50:07.000Z</time>
      </trkpt>
      <trkpt lat="43.0219" lon="0.56712">
        <ele>593</ele>
        <time>2018-03-18T08:50:09.000Z</time>
      </trkpt>
      <trkpt lat="43.0219" lon="0.56711">
        <ele>593</ele>
        <time>2018-03-18T08:50:11.000Z</time>
      </trkpt>
      <trkpt lat="43.0219" lon="0.56712">
        <ele>593</ele>
        <time>2018-03-18T08:50:13.000Z</time>
      </trkpt>
      <trkpt lat="43.0219" lon="0.56712">
        <ele>593</ele>
        <time>2018-03-18T08:50:15.000Z</time>
      </trkpt>
      <trkpt lat="43.02192" lon="0.5671">
        <ele>594</ele>
        <time>2018-03-18T08:50:17.000Z</time>
      </trkpt>
      <trkpt lat="43.02193" lon="0.56708">
        <ele>594</ele>
        <time>2018-03-18T08:50:19.000Z</time>
      </trkpt>
      <trkpt lat="43.02194" lon="0.56707">
        <ele>594</ele>
        <time>2018-03-18T08:50:21.000Z</time>
      </trkpt>
      <trkpt lat="43.02194" lon="0.56707">
        <ele>594</ele>
        <time>2018-03-18T08:50:23.000Z</time>
      </trkpt>
      <trkpt lat="43.02194" lon="0.56706">
        <ele>595</ele>
        <time>2018-03-18T08:50:25.000Z</time>
      </trkpt>
      <trkpt lat="43.02195" lon="0.56706">
        <ele>595</ele>
        <time>2018-03-18T08:50:27.000Z</time>
      </trkpt>
      <trkpt lat="43.02196" lon="0.56706">
        <ele>595</ele>
        <time>2018-03-18T08:50:29.000Z</time>
      </trkpt>
      <trkpt lat="43.02196" lon="0.56706">
        <ele>595</ele>
        <time>2018-03-18T08:50:31.000Z</time>
      </trkpt>
      <trkpt lat="43.02196" lon="0.56706">
        <ele>595</ele>
        <time>2018-03-18T08:50:33.000Z</time>
      </trkpt>
      <trkpt lat="43.02194" lon="0.56706">
        <ele>595</ele>
        <time>2018-03-18T08:50:35.000Z</time>
      </trkpt>
      <trkpt lat="43.02194" lon="0.56706">
        <ele>595</ele>
        <time>2018-03-18T08:50:37.000Z</time>
      </trkpt>
      <trkpt lat="43.02193" lon="0.56708">
        <ele>594</ele>
        <time>2018-03-18T08:50:39.000Z</time>
      </trkpt>
      <trkpt lat="43.02193" lon="0.56709">
        <ele>594</ele>
        <time>2018-03-18T08:50:41.000Z</time>
      </trkpt>
      <trkpt lat="43.02192" lon="0.5671">
        <ele>594</ele>
        <time>2018-03-18T08:50:43.000Z</time>
      </trkpt>
      <trkpt lat="43.02193" lon="0.5671">
        <ele>594</ele>
        <time>2018-03-18T08:50:45.000Z</time>
      </trkpt>
      <trkpt lat="43.02193" lon="0.5671">
        <ele>594</ele>
        <time>2018-03-18T08:50:47.000Z</time>
      </trkpt>
      <trkpt lat="43.02193" lon="0.5671">
        <ele>594</ele>
        <time>2018-03-18T08:50:49.000Z</time>
      </trkpt>
      <trkpt lat="43.02192" lon="0.5671">
        <ele>594</ele>
        <time>2018-03-18T08:50:51.000Z</time>
      </trkpt>
      <trkpt lat="43.02191" lon="0.56709">
        <ele>594</ele>
        <time>2018-03-18T08:50:53.000Z</time>
      </trkpt>
      <trkpt lat="43.02191" lon="0.56709">
        <ele>594</ele>
        <time>2018-03-18T08:50:55.000Z</time>
      </trkpt>
      <trkpt lat="43.02191" lon="0.56709">
        <ele>594</ele>
        <time>2018-03-18T08:50:57.000Z</time>
      </trkpt>
      <trkpt lat="43.0219" lon="0.56709">
        <ele>594</ele>
        <time>2018-03-18T08:50:59.000Z</time>
      </trkpt>
      <trkpt lat="43.0219" lon="0.56709">
        <ele>594</ele>
        <time>2018-03-18T08:51:01.000Z</time>
      </trkpt>
      <trkpt lat="43.0219" lon="0.56709">
        <ele>594</ele>
        <time>2018-03-18T08:51:03.000Z</time>
      </trkpt>
      <trkpt lat="43.0219" lon="0.56709">
        <ele>594</ele>
        <time>2018-03-18T08:51:05.000Z</time>
      </trkpt>
      <trkpt lat="43.0219" lon="0.56708">
        <ele>594</ele>
        <time>2018-03-18T08:51:07.000Z</time>
      </trkpt>
      <trkpt lat="43.02189" lon="0.56708">
        <ele>594</ele>
        <time>2018-03-18T08:51:09.000Z</time>
      </trkpt>
      <trkpt lat="43.0219" lon="0.56708">
        <ele>594</ele>
        <time>2018-03-18T08:51:11.000Z</time>
      </trkpt>
      <trkpt lat="43.0219" lon="0.56708">
        <ele>594</ele>
        <time>2018-03-18T08:51:13.000Z</time>
      </trkpt>
      <trkpt lat="43.0219" lon="0.56708">
        <ele>594</ele>
        <time>2018-03-18T08:51:15.000Z</time>
      </trkpt>
      <trkpt lat="43.02191" lon="0.56708">
        <ele>594</ele>
        <time>2018-03-18T08:51:17.000Z</time>
      </trkpt>
      <trkpt lat="43.02191" lon="0.56707">
        <ele>594</ele>
        <time>2018-03-18T08:51:19.000Z</time>
      </trkpt>
      <trkpt lat="43.02191" lon="0.56704">
        <ele>595</ele>
        <time>2018-03-18T08:51:21.000Z</time>
      </trkpt>
      <trkpt lat="43.02192" lon="0.56702">
        <ele>595</ele>
        <time>2018-03-18T08:51:23.000Z</time>
      </trkpt>
      <trkpt lat="43.02191" lon="0.56701">
        <ele>595</ele>
        <time>2018-03-18T08:51:25.000Z</time>
      </trkpt>
      <trkpt lat="43.02192" lon="0.56699">
        <ele>596</ele>
        <time>2018-03-18T08:51:27.000Z</time>
      </trkpt>
      <trkpt lat="43.02193" lon="0.56698">
        <ele>596</ele>
        <time>2018-03-18T08:51:29.000Z</time>
      </trkpt>
      <trkpt lat="43.02193" lon="0.56696">
        <ele>596</ele>
        <time>2018-03-18T08:51:31.000Z</time>
      </trkpt>
      <trkpt lat="43.02193" lon="0.56693">
        <ele>597</ele>
        <time>2018-03-18T08:51:33.000Z</time>
      </trkpt>
      <trkpt lat="43.02193" lon="0.5669">
        <ele>597</ele>
        <time>2018-03-18T08:51:35.000Z</time>
      </trkpt>
      <trkpt lat="43.02193" lon="0.56689">
        <ele>598</ele>
        <time>2018-03-18T08:51:37.000Z</time>
      </trkpt>
      <trkpt lat="43.02194" lon="0.56686">
        <ele>598</ele>
        <time>2018-03-18T08:51:39.000Z</time>
      </trkpt>
      <trkpt lat="43.02194" lon="0.56685">
        <ele>598</ele>
        <time>2018-03-18T08:51:41.000Z</time>
      </trkpt>
      <trkpt lat="43.02193" lon="0.56683">
        <ele>599</ele>
        <time>2018-03-18T08:51:43.000Z</time>
      </trkpt>
      <trkpt lat="43.02193" lon="0.56681">
        <ele>599</ele>
        <time>2018-03-18T08:51:45.000Z</time>
      </trkpt>
      <trkpt lat="43.02193" lon="0.56679">
        <ele>599</ele>
        <time>2018-03-18T08:51:47.000Z</time>
      </trkpt>
      <trkpt lat="43.02193" lon="0.56677">
        <ele>600</ele>
        <time>2018-03-18T08:51:49.000Z</time>
      </trkpt>
      <trkpt lat="43.02193" lon="0.56675">
        <ele>600</ele>
        <time>2018-03-18T08:51:51.000Z</time>
      </trkpt>
      <trkpt lat="43.02193" lon="0.56673">
        <ele>600</ele>
        <time>2018-03-18T08:51:53.000Z</time>
      </trkpt>
      <trkpt lat="43.02193" lon="0.56671">
        <ele>601</ele>
        <time>2018-03-18T08:51:55.000Z</time>
      </trkpt>
      <trkpt lat="43.02193" lon="0.5667">
        <ele>601</ele>
        <time>2018-03-18T08:51:57.000Z</time>
      </trkpt>
      <trkpt lat="43.02193" lon="0.56668">
        <ele>601</ele>
        <time>2018-03-18T08:51:59.000Z</time>
      </trkpt>
      <trkpt lat="43.02192" lon="0.56667">
        <ele>602</ele>
        <time>2018-03-18T08:52:01.000Z</time>
      </trkpt>
      <trkpt lat="43.02192" lon="0.56665">
        <ele>602</ele>
        <time>2018-03-18T08:52:03.000Z</time>
      </trkpt>
      <trkpt lat="43.02191" lon="0.56664">
        <ele>602</ele>
        <time>2018-03-18T08:52:05.000Z</time>
      </trkpt>
      <trkpt lat="43.0219" lon="0.56662">
        <ele>602</ele>
        <time>2018-03-18T08:52:07.000Z</time>
      </trkpt>
      <trkpt lat="43.0219" lon="0.5666">
        <ele>603</ele>
        <time>2018-03-18T08:52:09.000Z</time>
      </trkpt>
      <trkpt lat="43.02189" lon="0.56658">
        <ele>603</ele>
        <time>2018-03-18T08:52:11.000Z</time>
      </trkpt>
      <trkpt lat="43.02189" lon="0.56657">
        <ele>603</ele>
        <time>2018-03-18T08:52:13.000Z</time>
      </trkpt>
      <trkpt lat="43.02188" lon="0.56656">
        <ele>603</ele>
        <time>2018-03-18T08:52:15.000Z</time>
      </trkpt>
      <trkpt lat="43.02186" lon="0.56655">
        <ele>604</ele>
        <time>2018-03-18T08:52:17.000Z</time>
      </trkpt>
      <trkpt lat="43.02185" lon="0.56654">
        <ele>604</ele>
        <time>2018-03-18T08:52:19.000Z</time>
      </trkpt>
      <trkpt lat="43.02184" lon="0.56652">
        <ele>604</ele>
        <time>2018-03-18T08:52:21.000Z</time>
      </trkpt>
      <trkpt lat="43.02184" lon="0.56652">
        <ele>604</ele>
        <time>2018-03-18T08:52:23.000Z</time>
      </trkpt>
      <trkpt lat="43.02182" lon="0.5665">
        <ele>604</ele>
        <time>2018-03-18T08:52:25.000Z</time>
      </trkpt>
      <trkpt lat="43.02182" lon="0.56649">
        <ele>605</ele>
        <time>2018-03-18T08:52:27.000Z</time>
      </trkpt>
      <trkpt lat="43.0218" lon="0.56647">
        <ele>605</ele>
        <time>2018-03-18T08:52:29.000Z</time>
      </trkpt>
      <trkpt lat="43.02181" lon="0.56645">
        <ele>605</ele>
        <time>2018-03-18T08:52:31.000Z</time>
      </trkpt>
      <trkpt lat="43.0218" lon="0.56642">
        <ele>606</ele>
        <time>2018-03-18T08:52:33.000Z</time>
      </trkpt>
      <trkpt lat="43.0218" lon="0.56641">
        <ele>606</ele>
        <time>2018-03-18T08:52:35.000Z</time>
      </trkpt>
      <trkpt lat="43.0218" lon="0.56639">
        <ele>606</ele>
        <time>2018-03-18T08:52:37.000Z</time>
      </trkpt>
      <trkpt lat="43.0218" lon="0.56638">
        <ele>606</ele>
        <time>2018-03-18T08:52:39.000Z</time>
      </trkpt>
      <trkpt lat="43.0218" lon="0.56637">
        <ele>606</ele>
        <time>2018-03-18T08:52:41.000Z</time>
      </trkpt>
      <trkpt lat="43.02181" lon="0.56635">
        <ele>606</ele>
        <time>2018-03-18T08:52:43.000Z</time>
      </trkpt>
      <trkpt lat="43.02181" lon="0.56634">
        <ele>607</ele>
        <time>2018-03-18T08:52:45.000Z</time>
      </trkpt>
      <trkpt lat="43.0218" lon="0.56632">
        <ele>607</ele>
        <time>2018-03-18T08:52:47.000Z</time>
      </trkpt>
      <trkpt lat="43.0218" lon="0.5663">
        <ele>607</ele>
        <time>2018-03-18T08:52:49.000Z</time>
      </trkpt>
      <trkpt lat="43.0218" lon="0.56628">
        <ele>608</ele>
        <time>2018-03-18T08:52:51.000Z</time>
      </trkpt>
      <trkpt lat="43.0218" lon="0.56626">
        <ele>608</ele>
        <time>2018-03-18T08:52:53.000Z</time>
      </trkpt>
      <trkpt lat="43.02181" lon="0.56623">
        <ele>609</ele>
        <time>2018-03-18T08:52:55.000Z</time>
      </trkpt>
      <trkpt lat="43.02181" lon="0.56622">
        <ele>609</ele>
        <time>2018-03-18T08:52:57.000Z</time>
      </trkpt>
      <trkpt lat="43.02182" lon="0.56622">
        <ele>609</ele>
        <time>2018-03-18T08:52:59.000Z</time>
      </trkpt>
      <trkpt lat="43.02182" lon="0.56621">
        <ele>609</ele>
        <time>2018-03-18T08:53:01.000Z</time>
      </trkpt>
      <trkpt lat="43.02182" lon="0.56619">
        <ele>610</ele>
        <time>2018-03-18T08:53:03.000Z</time>
      </trkpt>
      <trkpt lat="43.02182" lon="0.56618">
        <ele>610</ele>
        <time>2018-03-18T08:53:05.000Z</time>
      </trkpt>
      <trkpt lat="43.02181" lon="0.56616">
        <ele>610</ele>
        <time>2018-03-18T08:53:07.000Z</time>
      </trkpt>
      <trkpt lat="43.02181" lon="0.56615">
        <ele>611</ele>
        <time>2018-03-18T08:53:09.000Z</time>
      </trkpt>
      <trkpt lat="43.02181" lon="0.56613">
        <ele>611</ele>
        <time>2018-03-18T08:53:11.000Z</time>
      </trkpt>
      <trkpt lat="43.0218" lon="0.56611">
        <ele>612</ele>
        <time>2018-03-18T08:53:13.000Z</time>
      </trkpt>
      <trkpt lat="43.0218" lon="0.56609">
        <ele>612</ele>
        <time>2018-03-18T08:53:15.000Z</time>
      </trkpt>
      <trkpt lat="43.02179" lon="0.56608">
        <ele>612</ele>
        <time>2018-03-18T08:53:17.000Z</time>
      </trkpt>
      <trkpt lat="43.02179" lon="0.56606">
        <ele>613</ele>
        <time>2018-03-18T08:53:19.000Z</time>
      </trkpt>
      <trkpt lat="43.02178" lon="0.56605">
        <ele>613</ele>
        <time>2018-03-18T08:53:21.000Z</time>
      </trkpt>
      <trkpt lat="43.02177" lon="0.56604">
        <ele>613</ele>
        <time>2018-03-18T08:53:23.000Z</time>
      </trkpt>
      <trkpt lat="43.02177" lon="0.56602">
        <ele>614</ele>
        <time>2018-03-18T08:53:25.000Z</time>
      </trkpt>
      <trkpt lat="43.02177" lon="0.56601">
        <ele>614</ele>
        <time>2018-03-18T08:53:27.000Z</time>
      </trkpt>
      <trkpt lat="43.02176" lon="0.566">
        <ele>614</ele>
        <time>2018-03-18T08:53:29.000Z</time>
      </trkpt>
      <trkpt lat="43.02176" lon="0.56599">
        <ele>615</ele>
        <time>2018-03-18T08:53:31.000Z</time>
      </trkpt>
      <trkpt lat="43.02175" lon="0.56598">
        <ele>615</ele>
        <time>2018-03-18T08:53:33.000Z</time>
      </trkpt>
      <trkpt lat="43.02175" lon="0.56597">
        <ele>615</ele>
        <time>2018-03-18T08:53:35.000Z</time>
      </trkpt>
      <trkpt lat="43.02175" lon="0.56596">
        <ele>615</ele>
        <time>2018-03-18T08:53:37.000Z</time>
      </trkpt>
      <trkpt lat="43.02175" lon="0.56594">
        <ele>616</ele>
        <time>2018-03-18T08:53:39.000Z</time>
      </trkpt>
      <trkpt lat="43.02175" lon="0.56592">
        <ele>616</ele>
        <time>2018-03-18T08:53:41.000Z</time>
      </trkpt>
      <trkpt lat="43.02175" lon="0.5659">
        <ele>616</ele>
        <time>2018-03-18T08:53:43.000Z</time>
      </trkpt>
      <trkpt lat="43.02175" lon="0.56589">
        <ele>617</ele>
        <time>2018-03-18T08:53:45.000Z</time>
      </trkpt>
      <trkpt lat="43.02175" lon="0.56588">
        <ele>617</ele>
        <time>2018-03-18T08:53:47.000Z</time>
      </trkpt>
      <trkpt lat="43.02174" lon="0.56587">
        <ele>617</ele>
        <time>2018-03-18T08:53:49.000Z</time>
      </trkpt>
      <trkpt lat="43.02174" lon="0.56587">
        <ele>617</ele>
        <time>2018-03-18T08:53:51.000Z</time>
      </trkpt>
      <trkpt lat="43.02174" lon="0.56585">
        <ele>617</ele>
        <time>2018-03-18T08:53:53.000Z</time>
      </trkpt>
      <trkpt lat="43.02173" lon="0.56584">
        <ele>618</ele>
        <time>2018-03-18T08:53:55.000Z</time>
      </trkpt>
      <trkpt lat="43.02172" lon="0.56583">
        <ele>618</ele>
        <time>2018-03-18T08:53:57.000Z</time>
      </trkpt>
      <trkpt lat="43.02172" lon="0.56582">
        <ele>618</ele>
        <time>2018-03-18T08:53:59.000Z</time>
      </trkpt>
      <trkpt lat="43.02171" lon="0.56581">
        <ele>618</ele>
        <time>2018-03-18T08:54:01.000Z</time>
      </trkpt>
      <trkpt lat="43.0217" lon="0.5658">
        <ele>618</ele>
        <time>2018-03-18T08:54:03.000Z</time>
      </trkpt>
      <trkpt lat="43.0217" lon="0.56579">
        <ele>618</ele>
        <time>2018-03-18T08:54:05.000Z</time>
      </trkpt>
      <trkpt lat="43.0217" lon="0.56579">
        <ele>619</ele>
        <time>2018-03-18T08:54:07.000Z</time>
      </trkpt>
      <trkpt lat="43.0217" lon="0.56577">
        <ele>619</ele>
        <time>2018-03-18T08:54:09.000Z</time>
      </trkpt>
      <trkpt lat="43.0217" lon="0.56576">
        <ele>619</ele>
        <time>2018-03-18T08:54:11.000Z</time>
      </trkpt>
      <trkpt lat="43.0217" lon="0.56574">
        <ele>620</ele>
        <time>2018-03-18T08:54:13.000Z</time>
      </trkpt>
      <trkpt lat="43.0217" lon="0.56571">
        <ele>620</ele>
        <time>2018-03-18T08:54:15.000Z</time>
      </trkpt>
      <trkpt lat="43.0217" lon="0.56569">
        <ele>621</ele>
        <time>2018-03-18T08:54:17.000Z</time>
      </trkpt>
      <trkpt lat="43.0217" lon="0.56568">
        <ele>621</ele>
        <time>2018-03-18T08:54:19.000Z</time>
      </trkpt>
      <trkpt lat="43.0217" lon="0.56566">
        <ele>621</ele>
        <time>2018-03-18T08:54:21.000Z</time>
      </trkpt>
      <trkpt lat="43.0217" lon="0.56565">
        <ele>621</ele>
        <time>2018-03-18T08:54:23.000Z</time>
      </trkpt>
      <trkpt lat="43.0217" lon="0.56564">
        <ele>622</ele>
        <time>2018-03-18T08:54:25.000Z</time>
      </trkpt>
      <trkpt lat="43.0217" lon="0.56563">
        <ele>622</ele>
        <time>2018-03-18T08:54:27.000Z</time>
      </trkpt>
      <trkpt lat="43.02169" lon="0.56561">
        <ele>622</ele>
        <time>2018-03-18T08:54:29.000Z</time>
      </trkpt>
      <trkpt lat="43.02169" lon="0.5656">
        <ele>622</ele>
        <time>2018-03-18T08:54:31.000Z</time>
      </trkpt>
      <trkpt lat="43.02169" lon="0.56559">
        <ele>623</ele>
        <time>2018-03-18T08:54:33.000Z</time>
      </trkpt>
      <trkpt lat="43.02168" lon="0.56558">
        <ele>623</ele>
        <time>2018-03-18T08:54:35.000Z</time>
      </trkpt>
      <trkpt lat="43.02168" lon="0.56556">
        <ele>623</ele>
        <time>2018-03-18T08:54:37.000Z</time>
      </trkpt>
      <trkpt lat="43.02168" lon="0.56555">
        <ele>623</ele>
        <time>2018-03-18T08:54:39.000Z</time>
      </trkpt>
      <trkpt lat="43.02168" lon="0.56555">
        <ele>623</ele>
        <time>2018-03-18T08:54:41.000Z</time>
      </trkpt>
      <trkpt lat="43.02168" lon="0.56555">
        <ele>623</ele>
        <time>2018-03-18T08:54:43.000Z</time>
      </trkpt>
      <trkpt lat="43.02168" lon="0.56555">
        <ele>623</ele>
        <time>2018-03-18T08:54:45.000Z</time>
      </trkpt>
      <trkpt lat="43.02168" lon="0.56554">
        <ele>624</ele>
        <time>2018-03-18T08:54:47.000Z</time>
      </trkpt>
      <trkpt lat="43.02168" lon="0.56554">
        <ele>624</ele>
        <time>2018-03-18T08:54:49.000Z</time>
      </trkpt>
      <trkpt lat="43.02167" lon="0.56553">
        <ele>624</ele>
        <time>2018-03-18T08:54:51.000Z</time>
      </trkpt>
      <trkpt lat="43.02167" lon="0.56552">
        <ele>624</ele>
        <time>2018-03-18T08:54:53.000Z</time>
      </trkpt>
      <trkpt lat="43.02167" lon="0.56551">
        <ele>624</ele>
        <time>2018-03-18T08:54:55.000Z</time>
      </trkpt>
      <trkpt lat="43.02166" lon="0.5655">
        <ele>624</ele>
        <time>2018-03-18T08:54:57.000Z</time>
      </trkpt>
      <trkpt lat="43.02166" lon="0.56549">
        <ele>625</ele>
        <time>2018-03-18T08:54:59.000Z</time>
      </trkpt>
      <trkpt lat="43.02165" lon="0.56548">
        <ele>625</ele>
        <time>2018-03-18T08:55:01.000Z</time>
      </trkpt>
      <trkpt lat="43.02164" lon="0.56547">
        <ele>625</ele>
        <time>2018-03-18T08:55:03.000Z</time>
      </trkpt>
      <trkpt lat="43.02165" lon="0.56545">
        <ele>626</ele>
        <time>2018-03-18T08:55:05.000Z</time>
      </trkpt>
      <trkpt lat="43.02165" lon="0.56544">
        <ele>626</ele>
        <time>2018-03-18T08:55:07.000Z</time>
      </trkpt>
      <trkpt lat="43.02165" lon="0.56543">
        <ele>626</ele>
        <time>2018-03-18T08:55:09.000Z</time>
      </trkpt>
      <trkpt lat="43.02165" lon="0.56543">
        <ele>626</ele>
        <time>2018-03-18T08:55:11.000Z</time>
      </trkpt>
      <trkpt lat="43.02165" lon="0.56541">
        <ele>627</ele>
        <time>2018-03-18T08:55:13.000Z</time>
      </trkpt>
      <trkpt lat="43.02165" lon="0.5654">
        <ele>627</ele>
        <time>2018-03-18T08:55:15.000Z</time>
      </trkpt>
      <trkpt lat="43.02165" lon="0.56539">
        <ele>627</ele>
        <time>2018-03-18T08:55:17.000Z</time>
      </trkpt>
      <trkpt lat="43.02164" lon="0.56538">
        <ele>627</ele>
        <time>2018-03-18T08:55:19.000Z</time>
      </trkpt>
      <trkpt lat="43.02164" lon="0.56537">
        <ele>627</ele>
        <time>2018-03-18T08:55:21.000Z</time>
      </trkpt>
      <trkpt lat="43.02163" lon="0.56537">
        <ele>628</ele>
        <time>2018-03-18T08:55:23.000Z</time>
      </trkpt>
      <trkpt lat="43.02162" lon="0.56535">
        <ele>628</ele>
        <time>2018-03-18T08:55:25.000Z</time>
      </trkpt>
      <trkpt lat="43.02161" lon="0.56534">
        <ele>628</ele>
        <time>2018-03-18T08:55:27.000Z</time>
      </trkpt>
      <trkpt lat="43.02161" lon="0.56533">
        <ele>628</ele>
        <time>2018-03-18T08:55:29.000Z</time>
      </trkpt>
      <trkpt lat="43.02161" lon="0.56532">
        <ele>628</ele>
        <time>2018-03-18T08:55:31.000Z</time>
      </trkpt>
      <trkpt lat="43.0216" lon="0.56531">
        <ele>629</ele>
        <time>2018-03-18T08:55:33.000Z</time>
      </trkpt>
      <trkpt lat="43.02159" lon="0.5653">
        <ele>629</ele>
        <time>2018-03-18T08:55:35.000Z</time>
      </trkpt>
      <trkpt lat="43.02159" lon="0.56528">
        <ele>629</ele>
        <time>2018-03-18T08:55:37.000Z</time>
      </trkpt>
      <trkpt lat="43.02158" lon="0.56527">
        <ele>629</ele>
        <time>2018-03-18T08:55:39.000Z</time>
      </trkpt>
      <trkpt lat="43.02158" lon="0.56526">
        <ele>629</ele>
        <time>2018-03-18T08:55:41.000Z</time>
      </trkpt>
      <trkpt lat="43.02158" lon="0.56524">
        <ele>630</ele>
        <time>2018-03-18T08:55:43.000Z</time>
      </trkpt>
      <trkpt lat="43.02159" lon="0.56524">
        <ele>630</ele>
        <time>2018-03-18T08:55:45.000Z</time>
      </trkpt>
      <trkpt lat="43.02158" lon="0.56523">
        <ele>630</ele>
        <time>2018-03-18T08:55:47.000Z</time>
      </trkpt>
      <trkpt lat="43.02159" lon="0.56521">
        <ele>630</ele>
        <time>2018-03-18T08:55:49.000Z</time>
      </trkpt>
      <trkpt lat="43.02158" lon="0.5652">
        <ele>630</ele>
        <time>2018-03-18T08:55:51.000Z</time>
      </trkpt>
      <trkpt lat="43.02158" lon="0.56519">
        <ele>631</ele>
        <time>2018-03-18T08:55:53.000Z</time>
      </trkpt>
      <trkpt lat="43.02158" lon="0.56517">
        <ele>631</ele>
        <time>2018-03-18T08:55:55.000Z</time>
      </trkpt>
      <trkpt lat="43.02158" lon="0.56516">
        <ele>631</ele>
        <time>2018-03-18T08:55:57.000Z</time>
      </trkpt>
      <trkpt lat="43.02157" lon="0.56515">
        <ele>631</ele>
        <time>2018-03-18T08:55:59.000Z</time>
      </trkpt>
      <trkpt lat="43.02157" lon="0.56513">
        <ele>632</ele>
        <time>2018-03-18T08:56:01.000Z</time>
      </trkpt>
      <trkpt lat="43.02156" lon="0.56512">
        <ele>632</ele>
        <time>2018-03-18T08:56:03.000Z</time>
      </trkpt>
      <trkpt lat="43.02156" lon="0.56511">
        <ele>632</ele>
        <time>2018-03-18T08:56:05.000Z</time>
      </trkpt>
      <trkpt lat="43.02156" lon="0.56509">
        <ele>632</ele>
        <time>2018-03-18T08:56:07.000Z</time>
      </trkpt>
      <trkpt lat="43.02156" lon="0.56508">
        <ele>633</ele>
        <time>2018-03-18T08:56:09.000Z</time>
      </trkpt>
      <trkpt lat="43.02156" lon="0.56507">
        <ele>633</ele>
        <time>2018-03-18T08:56:11.000Z</time>
      </trkpt>
      <trkpt lat="43.02155" lon="0.56506">
        <ele>633</ele>
        <time>2018-03-18T08:56:13.000Z</time>
      </trkpt>
      <trkpt lat="43.02156" lon="0.56504">
        <ele>633</ele>
        <time>2018-03-18T08:56:15.000Z</time>
      </trkpt>
      <trkpt lat="43.02156" lon="0.56503">
        <ele>633</ele>
        <time>2018-03-18T08:56:17.000Z</time>
      </trkpt>
      <trkpt lat="43.02155" lon="0.56502">
        <ele>633</ele>
        <time>2018-03-18T08:56:19.000Z</time>
      </trkpt>
      <trkpt lat="43.02155" lon="0.56502">
        <ele>634</ele>
        <time>2018-03-18T08:56:21.000Z</time>
      </trkpt>
      <trkpt lat="43.02155" lon="0.56501">
        <ele>634</ele>
        <time>2018-03-18T08:56:23.000Z</time>
      </trkpt>
      <trkpt lat="43.02155" lon="0.565">
        <ele>634</ele>
        <time>2018-03-18T08:56:25.000Z</time>
      </trkpt>
      <trkpt lat="43.02155" lon="0.56498">
        <ele>634</ele>
        <time>2018-03-18T08:56:27.000Z</time>
      </trkpt>
      <trkpt lat="43.02155" lon="0.56497">
        <ele>634</ele>
        <time>2018-03-18T08:56:29.000Z</time>
      </trkpt>
      <trkpt lat="43.02154" lon="0.56496">
        <ele>635</ele>
        <time>2018-03-18T08:56:31.000Z</time>
      </trkpt>
      <trkpt lat="43.02154" lon="0.56495">
        <ele>635</ele>
        <time>2018-03-18T08:56:33.000Z</time>
      </trkpt>
      <trkpt lat="43.02154" lon="0.56494">
        <ele>635</ele>
        <time>2018-03-18T08:56:35.000Z</time>
      </trkpt>
      <trkpt lat="43.02153" lon="0.56493">
        <ele>635</ele>
        <time>2018-03-18T08:56:37.000Z</time>
      </trkpt>
      <trkpt lat="43.02152" lon="0.56492">
        <ele>635</ele>
        <time>2018-03-18T08:56:39.000Z</time>
      </trkpt>
      <trkpt lat="43.02152" lon="0.56491">
        <ele>635</ele>
        <time>2018-03-18T08:56:41.000Z</time>
      </trkpt>
      <trkpt lat="43.02151" lon="0.56489">
        <ele>636</ele>
        <time>2018-03-18T08:56:43.000Z</time>
      </trkpt>
      <trkpt lat="43.02151" lon="0.56488">
        <ele>636</ele>
        <time>2018-03-18T08:56:45.000Z</time>
      </trkpt>
      <trkpt lat="43.02151" lon="0.56486">
        <ele>636</ele>
        <time>2018-03-18T08:56:47.000Z</time>
      </trkpt>
      <trkpt lat="43.0215" lon="0.56485">
        <ele>636</ele>
        <time>2018-03-18T08:56:49.000Z</time>
      </trkpt>
      <trkpt lat="43.02151" lon="0.56483">
        <ele>637</ele>
        <time>2018-03-18T08:56:51.000Z</time>
      </trkpt>
      <trkpt lat="43.02151" lon="0.56482">
        <ele>637</ele>
        <time>2018-03-18T08:56:53.000Z</time>
      </trkpt>
      <trkpt lat="43.02151" lon="0.5648">
        <ele>637</ele>
        <time>2018-03-18T08:56:55.000Z</time>
      </trkpt>
      <trkpt lat="43.02151" lon="0.56479">
        <ele>637</ele>
        <time>2018-03-18T08:56:57.000Z</time>
      </trkpt>
      <trkpt lat="43.02151" lon="0.56477">
        <ele>638</ele>
        <time>2018-03-18T08:56:59.000Z</time>
      </trkpt>
      <trkpt lat="43.02151" lon="0.56475">
        <ele>638</ele>
        <time>2018-03-18T08:57:01.000Z</time>
      </trkpt>
      <trkpt lat="43.0215" lon="0.56473">
        <ele>638</ele>
        <time>2018-03-18T08:57:03.000Z</time>
      </trkpt>
      <trkpt lat="43.0215" lon="0.56471">
        <ele>639</ele>
        <time>2018-03-18T08:57:05.000Z</time>
      </trkpt>
      <trkpt lat="43.0215" lon="0.56469">
        <ele>639</ele>
        <time>2018-03-18T08:57:07.000Z</time>
      </trkpt>
      <trkpt lat="43.0215" lon="0.56467">
        <ele>639</ele>
        <time>2018-03-18T08:57:09.000Z</time>
      </trkpt>
      <trkpt lat="43.0215" lon="0.56466">
        <ele>640</ele>
        <time>2018-03-18T08:57:11.000Z</time>
      </trkpt>
      <trkpt lat="43.0215" lon="0.56464">
        <ele>640</ele>
        <time>2018-03-18T08:57:13.000Z</time>
      </trkpt>
      <trkpt lat="43.0215" lon="0.56464">
        <ele>641</ele>
        <time>2018-03-18T08:57:15.000Z</time>
      </trkpt>
      <trkpt lat="43.02149" lon="0.56463">
        <ele>641</ele>
        <time>2018-03-18T08:57:17.000Z</time>
      </trkpt>
      <trkpt lat="43.0215" lon="0.56462">
        <ele>641</ele>
        <time>2018-03-18T08:57:19.000Z</time>
      </trkpt>
      <trkpt lat="43.0215" lon="0.56461">
        <ele>642</ele>
        <time>2018-03-18T08:57:21.000Z</time>
      </trkpt>
      <trkpt lat="43.0215" lon="0.56459">
        <ele>642</ele>
        <time>2018-03-18T08:57:23.000Z</time>
      </trkpt>
      <trkpt lat="43.0215" lon="0.56458">
        <ele>643</ele>
        <time>2018-03-18T08:57:25.000Z</time>
      </trkpt>
      <trkpt lat="43.02149" lon="0.56457">
        <ele>643</ele>
        <time>2018-03-18T08:57:27.000Z</time>
      </trkpt>
      <trkpt lat="43.0215" lon="0.56456">
        <ele>643</ele>
        <time>2018-03-18T08:57:29.000Z</time>
      </trkpt>
      <trkpt lat="43.0215" lon="0.56456">
        <ele>643</ele>
        <time>2018-03-18T08:57:31.000Z</time>
      </trkpt>
      <trkpt lat="43.02149" lon="0.56456">
        <ele>643</ele>
        <time>2018-03-18T08:57:33.000Z</time>
      </trkpt>
      <trkpt lat="43.0215" lon="0.56456">
        <ele>643</ele>
        <time>2018-03-18T08:57:35.000Z</time>
      </trkpt>
      <trkpt lat="43.02149" lon="0.56456">
        <ele>643</ele>
        <time>2018-03-18T08:57:37.000Z</time>
      </trkpt>
      <trkpt lat="43.0215" lon="0.56456">
        <ele>643</ele>
        <time>2018-03-18T08:57:39.000Z</time>
      </trkpt>
      <trkpt lat="43.02149" lon="0.56457">
        <ele>643</ele>
        <time>2018-03-18T08:57:41.000Z</time>
      </trkpt>
      <trkpt lat="43.02148" lon="0.56456">
        <ele>643</ele>
        <time>2018-03-18T08:57:43.000Z</time>
      </trkpt>
      <trkpt lat="43.02148" lon="0.56456">
        <ele>644</ele>
        <time>2018-03-18T08:57:45.000Z</time>
      </trkpt>
      <trkpt lat="43.02147" lon="0.56455">
        <ele>644</ele>
        <time>2018-03-18T08:57:47.000Z</time>
      </trkpt>
      <trkpt lat="43.02147" lon="0.56455">
        <ele>644</ele>
        <time>2018-03-18T08:57:49.000Z</time>
      </trkpt>
      <trkpt lat="43.02147" lon="0.56455">
        <ele>644</ele>
        <time>2018-03-18T08:57:51.000Z</time>
      </trkpt>
      <trkpt lat="43.02147" lon="0.56455">
        <ele>644</ele>
        <time>2018-03-18T08:57:53.000Z</time>
      </trkpt>
      <trkpt lat="43.02147" lon="0.56454">
        <ele>644</ele>
        <time>2018-03-18T08:57:55.000Z</time>
      </trkpt>
      <trkpt lat="43.02147" lon="0.56454">
        <ele>644</ele>
        <time>2018-03-18T08:57:57.000Z</time>
      </trkpt>
      <trkpt lat="43.02147" lon="0.56452">
        <ele>645</ele>
        <time>2018-03-18T08:57:59.000Z</time>
      </trkpt>
      <trkpt lat="43.02147" lon="0.56451">
        <ele>645</ele>
        <time>2018-03-18T08:58:01.000Z</time>
      </trkpt>
      <trkpt lat="43.02147" lon="0.56449">
        <ele>646</ele>
        <time>2018-03-18T08:58:03.000Z</time>
      </trkpt>
      <trkpt lat="43.02146" lon="0.56447">
        <ele>647</ele>
        <time>2018-03-18T08:58:05.000Z</time>
      </trkpt>
      <trkpt lat="43.02145" lon="0.56445">
        <ele>647</ele>
        <time>2018-03-18T08:58:07.000Z</time>
      </trkpt>
      <trkpt lat="43.02145" lon="0.56444">
        <ele>648</ele>
        <time>2018-03-18T08:58:09.000Z</time>
      </trkpt>
      <trkpt lat="43.02144" lon="0.56443">
        <ele>648</ele>
        <time>2018-03-18T08:58:11.000Z</time>
      </trkpt>
      <trkpt lat="43.02144" lon="0.56442">
        <ele>648</ele>
        <time>2018-03-18T08:58:13.000Z</time>
      </trkpt>
      <trkpt lat="43.02143" lon="0.56441">
        <ele>649</ele>
        <time>2018-03-18T08:58:15.000Z</time>
      </trkpt>
      <trkpt lat="43.02143" lon="0.5644">
        <ele>649</ele>
        <time>2018-03-18T08:58:17.000Z</time>
      </trkpt>
      <trkpt lat="43.02142" lon="0.56438">
        <ele>650</ele>
        <time>2018-03-18T08:58:19.000Z</time>
      </trkpt>
      <trkpt lat="43.02142" lon="0.56436">
        <ele>651</ele>
        <time>2018-03-18T08:58:21.000Z</time>
      </trkpt>
      <trkpt lat="43.02142" lon="0.56433">
        <ele>651</ele>
        <time>2018-03-18T08:58:23.000Z</time>
      </trkpt>
      <trkpt lat="43.02142" lon="0.56431">
        <ele>652</ele>
        <time>2018-03-18T08:58:25.000Z</time>
      </trkpt>
      <trkpt lat="43.02142" lon="0.56429">
        <ele>652</ele>
        <time>2018-03-18T08:58:27.000Z</time>
      </trkpt>
      <trkpt lat="43.02142" lon="0.56426">
        <ele>652</ele>
        <time>2018-03-18T08:58:29.000Z</time>
      </trkpt>
      <trkpt lat="43.02141" lon="0.56424">
        <ele>653</ele>
        <time>2018-03-18T08:58:31.000Z</time>
      </trkpt>
      <trkpt lat="43.02141" lon="0.56423">
        <ele>653</ele>
        <time>2018-03-18T08:58:33.000Z</time>
      </trkpt>
      <trkpt lat="43.0214" lon="0.56422">
        <ele>654</ele>
        <time>2018-03-18T08:58:35.000Z</time>
      </trkpt>
      <trkpt lat="43.0214" lon="0.56421">
        <ele>654</ele>
        <time>2018-03-18T08:58:37.000Z</time>
      </trkpt>
      <trkpt lat="43.02139" lon="0.56421">
        <ele>654</ele>
        <time>2018-03-18T08:58:39.000Z</time>
      </trkpt>
      <trkpt lat="43.02138" lon="0.5642">
        <ele>654</ele>
        <time>2018-03-18T08:58:41.000Z</time>
      </trkpt>
      <trkpt lat="43.02137" lon="0.56419">
        <ele>654</ele>
        <time>2018-03-18T08:58:43.000Z</time>
      </trkpt>
      <trkpt lat="43.02137" lon="0.56418">
        <ele>655</ele>
        <time>2018-03-18T08:58:45.000Z</time>
      </trkpt>
      <trkpt lat="43.02136" lon="0.56417">
        <ele>655</ele>
        <time>2018-03-18T08:58:47.000Z</time>
      </trkpt>
      <trkpt lat="43.02136" lon="0.56416">
        <ele>655</ele>
        <time>2018-03-18T08:58:49.000Z</time>
      </trkpt>
      <trkpt lat="43.02136" lon="0.56415">
        <ele>656</ele>
        <time>2018-03-18T08:58:51.000Z</time>
      </trkpt>
      <trkpt lat="43.02135" lon="0.56414">
        <ele>656</ele>
        <time>2018-03-18T08:58:53.000Z</time>
      </trkpt>
      <trkpt lat="43.02135" lon="0.56412">
        <ele>656</ele>
        <time>2018-03-18T08:58:55.000Z</time>
      </trkpt>
      <trkpt lat="43.02134" lon="0.56412">
        <ele>656</ele>
        <time>2018-03-18T08:58:57.000Z</time>
      </trkpt>
      <trkpt lat="43.02134" lon="0.56411">
        <ele>656</ele>
        <time>2018-03-18T08:58:59.000Z</time>
      </trkpt>
      <trkpt lat="43.02133" lon="0.5641">
        <ele>657</ele>
        <time>2018-03-18T08:59:01.000Z</time>
      </trkpt>
      <trkpt lat="43.02133" lon="0.56409">
        <ele>657</ele>
        <time>2018-03-18T08:59:03.000Z</time>
      </trkpt>
      <trkpt lat="43.02133" lon="0.56408">
        <ele>657</ele>
        <time>2018-03-18T08:59:05.000Z</time>
      </trkpt>
      <trkpt lat="43.02132" lon="0.56407">
        <ele>657</ele>
        <time>2018-03-18T08:59:07.000Z</time>
      </trkpt>
      <trkpt lat="43.02133" lon="0.56406">
        <ele>658</ele>
        <time>2018-03-18T08:59:09.000Z</time>
      </trkpt>
      <trkpt lat="43.02132" lon="0.56405">
        <ele>658</ele>
        <time>2018-03-18T08:59:11.000Z</time>
      </trkpt>
      <trkpt lat="43.02131" lon="0.56404">
        <ele>658</ele>
        <time>2018-03-18T08:59:13.000Z</time>
      </trkpt>
      <trkpt lat="43.02131" lon="0.56402">
        <ele>658</ele>
        <time>2018-03-18T08:59:15.000Z</time>
      </trkpt>
      <trkpt lat="43.02132" lon="0.56401">
        <ele>659</ele>
        <time>2018-03-18T08:59:17.000Z</time>
      </trkpt>
      <trkpt lat="43.02131" lon="0.56399">
        <ele>659</ele>
        <time>2018-03-18T08:59:19.000Z</time>
      </trkpt>
      <trkpt lat="43.02131" lon="0.56398">
        <ele>659</ele>
        <time>2018-03-18T08:59:21.000Z</time>
      </trkpt>
      <trkpt lat="43.02131" lon="0.56397">
        <ele>660</ele>
        <time>2018-03-18T08:59:23.000Z</time>
      </trkpt>
      <trkpt lat="43.02131" lon="0.56395">
        <ele>660</ele>
        <time>2018-03-18T08:59:25.000Z</time>
      </trkpt>
      <trkpt lat="43.0213" lon="0.56393">
        <ele>660</ele>
        <time>2018-03-18T08:59:27.000Z</time>
      </trkpt>
      <trkpt lat="43.02129" lon="0.56392">
        <ele>661</ele>
        <time>2018-03-18T08:59:29.000Z</time>
      </trkpt>
      <trkpt lat="43.02129" lon="0.56391">
        <ele>661</ele>
        <time>2018-03-18T08:59:31.000Z</time>
      </trkpt>
      <trkpt lat="43.02128" lon="0.56389">
        <ele>661</ele>
        <time>2018-03-18T08:59:33.000Z</time>
      </trkpt>
      <trkpt lat="43.02128" lon="0.56388">
        <ele>662</ele>
        <time>2018-03-18T08:59:35.000Z</time>
      </trkpt>
      <trkpt lat="43.02128" lon="0.56387">
        <ele>662</ele>
        <time>2018-03-18T08:59:37.000Z</time>
      </trkpt>
      <trkpt lat="43.02127" lon="0.56386">
        <ele>662</ele>
        <time>2018-03-18T08:59:39.000Z</time>
      </trkpt>
      <trkpt lat="43.02127" lon="0.56384">
        <ele>662</ele>
        <time>2018-03-18T08:59:41.000Z</time>
      </trkpt>
      <trkpt lat="43.02126" lon="0.56383">
        <ele>663</ele>
        <time>2018-03-18T08:59:43.000Z</time>
      </trkpt>
      <trkpt lat="43.02126" lon="0.56382">
        <ele>663</ele>
        <time>2018-03-18T08:59:45.000Z</time>
      </trkpt>
      <trkpt lat="43.02126" lon="0.56381">
        <ele>663</ele>
        <time>2018-03-18T08:59:47.000Z</time>
      </trkpt>
      <trkpt lat="43.02126" lon="0.5638">
        <ele>664</ele>
        <time>2018-03-18T08:59:49.000Z</time>
      </trkpt>
      <trkpt lat="43.02126" lon="0.56379">
        <ele>664</ele>
        <time>2018-03-18T08:59:51.000Z</time>
      </trkpt>
      <trkpt lat="43.02126" lon="0.56378">
        <ele>664</ele>
        <time>2018-03-18T08:59:53.000Z</time>
      </trkpt>
      <trkpt lat="43.02126" lon="0.56377">
        <ele>665</ele>
        <time>2018-03-18T08:59:55.000Z</time>
      </trkpt>
      <trkpt lat="43.02125" lon="0.56375">
        <ele>665</ele>
        <time>2018-03-18T08:59:57.000Z</time>
      </trkpt>
      <trkpt lat="43.02125" lon="0.56373">
        <ele>666</ele>
        <time>2018-03-18T08:59:59.000Z</time>
      </trkpt>
      <trkpt lat="43.02124" lon="0.56372">
        <ele>666</ele>
        <time>2018-03-18T09:00:01.000Z</time>
      </trkpt>
      <trkpt lat="43.02124" lon="0.56372">
        <ele>666</ele>
        <time>2018-03-18T09:00:03.000Z</time>
      </trkpt>
      <trkpt lat="43.02124" lon="0.56371">
        <ele>667</ele>
        <time>2018-03-18T09:00:05.000Z</time>
      </trkpt>
      <trkpt lat="43.02124" lon="0.5637">
        <ele>667</ele>
        <time>2018-03-18T09:00:07.000Z</time>
      </trkpt>
      <trkpt lat="43.02123" lon="0.56368">
        <ele>667</ele>
        <time>2018-03-18T09:00:09.000Z</time>
      </trkpt>
      <trkpt lat="43.02123" lon="0.56368">
        <ele>668</ele>
        <time>2018-03-18T09:00:11.000Z</time>
      </trkpt>
      <trkpt lat="43.02123" lon="0.56367">
        <ele>668</ele>
        <time>2018-03-18T09:00:13.000Z</time>
      </trkpt>
      <trkpt lat="43.02123" lon="0.56366">
        <ele>668</ele>
        <time>2018-03-18T09:00:15.000Z</time>
      </trkpt>
      <trkpt lat="43.02122" lon="0.56365">
        <ele>669</ele>
        <time>2018-03-18T09:00:17.000Z</time>
      </trkpt>
      <trkpt lat="43.02122" lon="0.56364">
        <ele>669</ele>
        <time>2018-03-18T09:00:19.000Z</time>
      </trkpt>
      <trkpt lat="43.02121" lon="0.56363">
        <ele>669</ele>
        <time>2018-03-18T09:00:21.000Z</time>
      </trkpt>
      <trkpt lat="43.0212" lon="0.56363">
        <ele>670</ele>
        <time>2018-03-18T09:00:23.000Z</time>
      </trkpt>
      <trkpt lat="43.02119" lon="0.56361">
        <ele>670</ele>
        <time>2018-03-18T09:00:25.000Z</time>
      </trkpt>
      <trkpt lat="43.02119" lon="0.5636">
        <ele>670</ele>
        <time>2018-03-18T09:00:27.000Z</time>
      </trkpt>
      <trkpt lat="43.02119" lon="0.56359">
        <ele>671</ele>
        <time>2018-03-18T09:00:29.000Z</time>
      </trkpt>
      <trkpt lat="43.02119" lon="0.56359">
        <ele>671</ele>
        <time>2018-03-18T09:00:31.000Z</time>
      </trkpt>
      <trkpt lat="43.02118" lon="0.56358">
        <ele>671</ele>
        <time>2018-03-18T09:00:33.000Z</time>
      </trkpt>
      <trkpt lat="43.02119" lon="0.56357">
        <ele>672</ele>
        <time>2018-03-18T09:00:35.000Z</time>
      </trkpt>
      <trkpt lat="43.02118" lon="0.56357">
        <ele>672</ele>
        <time>2018-03-18T09:00:37.000Z</time>
      </trkpt>
      <trkpt lat="43.02118" lon="0.56355">
        <ele>672</ele>
        <time>2018-03-18T09:00:39.000Z</time>
      </trkpt>
      <trkpt lat="43.02118" lon="0.56355">
        <ele>672</ele>
        <time>2018-03-18T09:00:41.000Z</time>
      </trkpt>
      <trkpt lat="43.02117" lon="0.56354">
        <ele>673</ele>
        <time>2018-03-18T09:00:43.000Z</time>
      </trkpt>
      <trkpt lat="43.02117" lon="0.56352">
        <ele>673</ele>
        <time>2018-03-18T09:00:45.000Z</time>
      </trkpt>
      <trkpt lat="43.02117" lon="0.56351">
        <ele>673</ele>
        <time>2018-03-18T09:00:47.000Z</time>
      </trkpt>
      <trkpt lat="43.02116" lon="0.5635">
        <ele>674</ele>
        <time>2018-03-18T09:00:49.000Z</time>
      </trkpt>
      <trkpt lat="43.02116" lon="0.56349">
        <ele>674</ele>
        <time>2018-03-18T09:00:51.000Z</time>
      </trkpt>
      <trkpt lat="43.02115" lon="0.56347">
        <ele>675</ele>
        <time>2018-03-18T09:00:53.000Z</time>
      </trkpt>
      <trkpt lat="43.02115" lon="0.56346">
        <ele>675</ele>
        <time>2018-03-18T09:00:55.000Z</time>
      </trkpt>
      <trkpt lat="43.02114" lon="0.56345">
        <ele>676</ele>
        <time>2018-03-18T09:00:57.000Z</time>
      </trkpt>
      <trkpt lat="43.02113" lon="0.56343">
        <ele>676</ele>
        <time>2018-03-18T09:00:59.000Z</time>
      </trkpt>
      <trkpt lat="43.02113" lon="0.56343">
        <ele>676</ele>
        <time>2018-03-18T09:01:01.000Z</time>
      </trkpt>
      <trkpt lat="43.02113" lon="0.56342">
        <ele>677</ele>
        <time>2018-03-18T09:01:03.000Z</time>
      </trkpt>
      <trkpt lat="43.02113" lon="0.56341">
        <ele>677</ele>
        <time>2018-03-18T09:01:05.000Z</time>
      </trkpt>
      <trkpt lat="43.02112" lon="0.56341">
        <ele>677</ele>
        <time>2018-03-18T09:01:07.000Z</time>
      </trkpt>
      <trkpt lat="43.02112" lon="0.56341">
        <ele>677</ele>
        <time>2018-03-18T09:01:09.000Z</time>
      </trkpt>
      <trkpt lat="43.02111" lon="0.56341">
        <ele>677</ele>
        <time>2018-03-18T09:01:11.000Z</time>
      </trkpt>
      <trkpt lat="43.02111" lon="0.5634">
        <ele>678</ele>
        <time>2018-03-18T09:01:13.000Z</time>
      </trkpt>
      <trkpt lat="43.0211" lon="0.56339">
        <ele>678</ele>
        <time>2018-03-18T09:01:15.000Z</time>
      </trkpt>
      <trkpt lat="43.0211" lon="0.56338">
        <ele>679</ele>
        <time>2018-03-18T09:01:17.000Z</time>
      </trkpt>
      <trkpt lat="43.02109" lon="0.56337">
        <ele>679</ele>
        <time>2018-03-18T09:01:19.000Z</time>
      </trkpt>
      <trkpt lat="43.02108" lon="0.56337">
        <ele>679</ele>
        <time>2018-03-18T09:01:21.000Z</time>
      </trkpt>
      <trkpt lat="43.02108" lon="0.56336">
        <ele>679</ele>
        <time>2018-03-18T09:01:23.000Z</time>
      </trkpt>
      <trkpt lat="43.02109" lon="0.56334">
        <ele>680</ele>
        <time>2018-03-18T09:01:25.000Z</time>
      </trkpt>
      <trkpt lat="43.02108" lon="0.56333">
        <ele>680</ele>
        <time>2018-03-18T09:01:27.000Z</time>
      </trkpt>
      <trkpt lat="43.02108" lon="0.56333">
        <ele>680</ele>
        <time>2018-03-18T09:01:29.000Z</time>
      </trkpt>
      <trkpt lat="43.02108" lon="0.56332">
        <ele>680</ele>
        <time>2018-03-18T09:01:31.000Z</time>
      </trkpt>
      <trkpt lat="43.02108" lon="0.56331">
        <ele>681</ele>
        <time>2018-03-18T09:01:33.000Z</time>
      </trkpt>
      <trkpt lat="43.02108" lon="0.56329">
        <ele>681</ele>
        <time>2018-03-18T09:01:35.000Z</time>
      </trkpt>
      <trkpt lat="43.02108" lon="0.56328">
        <ele>682</ele>
        <time>2018-03-18T09:01:37.000Z</time>
      </trkpt>
      <trkpt lat="43.02107" lon="0.56327">
        <ele>682</ele>
        <time>2018-03-18T09:01:39.000Z</time>
      </trkpt>
      <trkpt lat="43.02107" lon="0.56325">
        <ele>683</ele>
        <time>2018-03-18T09:01:41.000Z</time>
      </trkpt>
      <trkpt lat="43.02106" lon="0.56324">
        <ele>683</ele>
        <time>2018-03-18T09:01:43.000Z</time>
      </trkpt>
      <trkpt lat="43.02105" lon="0.56323">
        <ele>683</ele>
        <time>2018-03-18T09:01:45.000Z</time>
      </trkpt>
      <trkpt lat="43.02104" lon="0.56323">
        <ele>684</ele>
        <time>2018-03-18T09:01:47.000Z</time>
      </trkpt>
      <trkpt lat="43.02103" lon="0.56321">
        <ele>684</ele>
        <time>2018-03-18T09:01:49.000Z</time>
      </trkpt>
      <trkpt lat="43.02103" lon="0.56321">
        <ele>684</ele>
        <time>2018-03-18T09:01:51.000Z</time>
      </trkpt>
      <trkpt lat="43.02103" lon="0.5632">
        <ele>685</ele>
        <time>2018-03-18T09:01:53.000Z</time>
      </trkpt>
      <trkpt lat="43.02102" lon="0.5632">
        <ele>685</ele>
        <time>2018-03-18T09:01:55.000Z</time>
      </trkpt>
      <trkpt lat="43.02102" lon="0.56319">
        <ele>685</ele>
        <time>2018-03-18T09:01:57.000Z</time>
      </trkpt>
      <trkpt lat="43.021" lon="0.56319">
        <ele>685</ele>
        <time>2018-03-18T09:01:59.000Z</time>
      </trkpt>
      <trkpt lat="43.021" lon="0.56319">
        <ele>686</ele>
        <time>2018-03-18T09:02:01.000Z</time>
      </trkpt>
      <trkpt lat="43.021" lon="0.56318">
        <ele>686</ele>
        <time>2018-03-18T09:02:03.000Z</time>
      </trkpt>
      <trkpt lat="43.02099" lon="0.56318">
        <ele>686</ele>
        <time>2018-03-18T09:02:05.000Z</time>
      </trkpt>
      <trkpt lat="43.02099" lon="0.56317">
        <ele>686</ele>
        <time>2018-03-18T09:02:07.000Z</time>
      </trkpt>
      <trkpt lat="43.02098" lon="0.56316">
        <ele>687</ele>
        <time>2018-03-18T09:02:09.000Z</time>
      </trkpt>
      <trkpt lat="43.02097" lon="0.56314">
        <ele>687</ele>
        <time>2018-03-18T09:02:11.000Z</time>
      </trkpt>
      <trkpt lat="43.02097" lon="0.56313">
        <ele>688</ele>
        <time>2018-03-18T09:02:13.000Z</time>
      </trkpt>
      <trkpt lat="43.02097" lon="0.56311">
        <ele>688</ele>
        <time>2018-03-18T09:02:15.000Z</time>
      </trkpt>
      <trkpt lat="43.02096" lon="0.5631">
        <ele>689</ele>
        <time>2018-03-18T09:02:17.000Z</time>
      </trkpt>
      <trkpt lat="43.02096" lon="0.56309">
        <ele>689</ele>
        <time>2018-03-18T09:02:19.000Z</time>
      </trkpt>
      <trkpt lat="43.02095" lon="0.56308">
        <ele>690</ele>
        <time>2018-03-18T09:02:21.000Z</time>
      </trkpt>
      <trkpt lat="43.02095" lon="0.56307">
        <ele>690</ele>
        <time>2018-03-18T09:02:23.000Z</time>
      </trkpt>
      <trkpt lat="43.02094" lon="0.56307">
        <ele>690</ele>
        <time>2018-03-18T09:02:25.000Z</time>
      </trkpt>
      <trkpt lat="43.02094" lon="0.56305">
        <ele>690</ele>
        <time>2018-03-18T09:02:27.000Z</time>
      </trkpt>
      <trkpt lat="43.02095" lon="0.56304">
        <ele>691</ele>
        <time>2018-03-18T09:02:29.000Z</time>
      </trkpt>
      <trkpt lat="43.02094" lon="0.56303">
        <ele>691</ele>
        <time>2018-03-18T09:02:31.000Z</time>
      </trkpt>
      <trkpt lat="43.02093" lon="0.56303">
        <ele>691</ele>
        <time>2018-03-18T09:02:33.000Z</time>
      </trkpt>
      <trkpt lat="43.02093" lon="0.56301">
        <ele>692</ele>
        <time>2018-03-18T09:02:35.000Z</time>
      </trkpt>
      <trkpt lat="43.02093" lon="0.56299">
        <ele>692</ele>
        <time>2018-03-18T09:02:37.000Z</time>
      </trkpt>
      <trkpt lat="43.02094" lon="0.56299">
        <ele>692</ele>
        <time>2018-03-18T09:02:39.000Z</time>
      </trkpt>
      <trkpt lat="43.02094" lon="0.563">
        <ele>692</ele>
        <time>2018-03-18T09:02:41.000Z</time>
      </trkpt>
      <trkpt lat="43.02093" lon="0.563">
        <ele>692</ele>
        <time>2018-03-18T09:02:43.000Z</time>
      </trkpt>
      <trkpt lat="43.02093" lon="0.56301">
        <ele>692</ele>
        <time>2018-03-18T09:02:45.000Z</time>
      </trkpt>
      <trkpt lat="43.02092" lon="0.56302">
        <ele>692</ele>
        <time>2018-03-18T09:02:47.000Z</time>
      </trkpt>
      <trkpt lat="43.02092" lon="0.56304">
        <ele>691</ele>
        <time>2018-03-18T09:02:49.000Z</time>
      </trkpt>
      <trkpt lat="43.02092" lon="0.56304">
        <ele>691</ele>
        <time>2018-03-18T09:02:51.000Z</time>
      </trkpt>
      <trkpt lat="43.02092" lon="0.56303">
        <ele>691</ele>
        <time>2018-03-18T09:02:53.000Z</time>
      </trkpt>
      <trkpt lat="43.02093" lon="0.56303">
        <ele>691</ele>
        <time>2018-03-18T09:02:55.000Z</time>
      </trkpt>
      <trkpt lat="43.02093" lon="0.56302">
        <ele>692</ele>
        <time>2018-03-18T09:02:57.000Z</time>
      </trkpt>
      <trkpt lat="43.02093" lon="0.56302">
        <ele>692</ele>
        <time>2018-03-18T09:02:59.000Z</time>
      </trkpt>
      <trkpt lat="43.02093" lon="0.56303">
        <ele>691</ele>
        <time>2018-03-18T09:03:01.000Z</time>
      </trkpt>
      <trkpt lat="43.02093" lon="0.56302">
        <ele>692</ele>
        <time>2018-03-18T09:03:03.000Z</time>
      </trkpt>
      <trkpt lat="43.02094" lon="0.56302">
        <ele>691</ele>
        <time>2018-03-18T09:03:05.000Z</time>
      </trkpt>
      <trkpt lat="43.02094" lon="0.56301">
        <ele>691</ele>
        <time>2018-03-18T09:03:07.000Z</time>
      </trkpt>
      <trkpt lat="43.02094" lon="0.56301">
        <ele>691</ele>
        <time>2018-03-18T09:03:09.000Z</time>
      </trkpt>
      <trkpt lat="43.02095" lon="0.56301">
        <ele>691</ele>
        <time>2018-03-18T09:03:11.000Z</time>
      </trkpt>
      <trkpt lat="43.02095" lon="0.56302">
        <ele>691</ele>
        <time>2018-03-18T09:03:13.000Z</time>
      </trkpt>
      <trkpt lat="43.02096" lon="0.56303">
        <ele>691</ele>
        <time>2018-03-18T09:03:15.000Z</time>
      </trkpt>
      <trkpt lat="43.02096" lon="0.56303">
        <ele>690</ele>
        <time>2018-03-18T09:03:17.000Z</time>
      </trkpt>
      <trkpt lat="43.02096" lon="0.56301">
        <ele>690</ele>
        <time>2018-03-18T09:03:19.000Z</time>
      </trkpt>
      <trkpt lat="43.02096" lon="0.563">
        <ele>691</ele>
        <time>2018-03-18T09:03:21.000Z</time>
      </trkpt>
      <trkpt lat="43.02097" lon="0.56298">
        <ele>691</ele>
        <time>2018-03-18T09:03:23.000Z</time>
      </trkpt>
      <trkpt lat="43.02095" lon="0.56296">
        <ele>692</ele>
        <time>2018-03-18T09:03:25.000Z</time>
      </trkpt>
      <trkpt lat="43.02094" lon="0.56295">
        <ele>692</ele>
        <time>2018-03-18T09:03:27.000Z</time>
      </trkpt>
      <trkpt lat="43.02094" lon="0.56294">
        <ele>693</ele>
        <time>2018-03-18T09:03:29.000Z</time>
      </trkpt>
      <trkpt lat="43.02093" lon="0.56293">
        <ele>693</ele>
        <time>2018-03-18T09:03:31.000Z</time>
      </trkpt>
      <trkpt lat="43.02092" lon="0.56292">
        <ele>694</ele>
        <time>2018-03-18T09:03:33.000Z</time>
      </trkpt>
      <trkpt lat="43.02091" lon="0.56291">
        <ele>694</ele>
        <time>2018-03-18T09:03:35.000Z</time>
      </trkpt>
      <trkpt lat="43.02091" lon="0.5629">
        <ele>694</ele>
        <time>2018-03-18T09:03:37.000Z</time>
      </trkpt>
      <trkpt lat="43.0209" lon="0.56289">
        <ele>694</ele>
        <time>2018-03-18T09:03:39.000Z</time>
      </trkpt>
      <trkpt lat="43.02089" lon="0.56288">
        <ele>695</ele>
        <time>2018-03-18T09:03:41.000Z</time>
      </trkpt>
      <trkpt lat="43.02089" lon="0.56288">
        <ele>695</ele>
        <time>2018-03-18T09:03:43.000Z</time>
      </trkpt>
      <trkpt lat="43.02089" lon="0.56287">
        <ele>695</ele>
        <time>2018-03-18T09:03:45.000Z</time>
      </trkpt>
      <trkpt lat="43.02088" lon="0.56286">
        <ele>695</ele>
        <time>2018-03-18T09:03:47.000Z</time>
      </trkpt>
      <trkpt lat="43.02088" lon="0.56286">
        <ele>695</ele>
        <time>2018-03-18T09:03:49.000Z</time>
      </trkpt>
      <trkpt lat="43.02089" lon="0.56286">
        <ele>695</ele>
        <time>2018-03-18T09:03:51.000Z</time>
      </trkpt>
      <trkpt lat="43.02089" lon="0.56285">
        <ele>695</ele>
        <time>2018-03-18T09:03:53.000Z</time>
      </trkpt>
      <trkpt lat="43.02089" lon="0.56285">
        <ele>695</ele>
        <time>2018-03-18T09:03:55.000Z</time>
      </trkpt>
      <trkpt lat="43.02089" lon="0.56284">
        <ele>695</ele>
        <time>2018-03-18T09:03:57.000Z</time>
      </trkpt>
      <trkpt lat="43.02089" lon="0.56284">
        <ele>695</ele>
        <time>2018-03-18T09:03:59.000Z</time>
      </trkpt>
      <trkpt lat="43.02089" lon="0.56284">
        <ele>695</ele>
        <time>2018-03-18T09:04:01.000Z</time>
      </trkpt>
      <trkpt lat="43.02088" lon="0.56284">
        <ele>695</ele>
        <time>2018-03-18T09:04:03.000Z</time>
      </trkpt>
      <trkpt lat="43.02088" lon="0.56284">
        <ele>695</ele>
        <time>2018-03-18T09:04:05.000Z</time>
      </trkpt>
      <trkpt lat="43.02088" lon="0.56283">
        <ele>695</ele>
        <time>2018-03-18T09:04:07.000Z</time>
      </trkpt>
      <trkpt lat="43.02088" lon="0.56283">
        <ele>695</ele>
        <time>2018-03-18T09:04:09.000Z</time>
      </trkpt>
      <trkpt lat="43.02089" lon="0.56283">
        <ele>695</ele>
        <time>2018-03-18T09:04:11.000Z</time>
      </trkpt>
      <trkpt lat="43.02089" lon="0.56284">
        <ele>695</ele>
        <time>2018-03-18T09:04:13.000Z</time>
      </trkpt>
      <trkpt lat="43.0209" lon="0.56284">
        <ele>695</ele>
        <time>2018-03-18T09:04:15.000Z</time>
      </trkpt>
      <trkpt lat="43.02089" lon="0.56284">
        <ele>695</ele>
        <time>2018-03-18T09:04:17.000Z</time>
      </trkpt>
      <trkpt lat="43.02088" lon="0.56282">
        <ele>696</ele>
        <time>2018-03-18T09:04:19.000Z</time>
      </trkpt>
      <trkpt lat="43.02088" lon="0.56282">
        <ele>696</ele>
        <time>2018-03-18T09:04:21.000Z</time>
      </trkpt>
      <trkpt lat="43.02087" lon="0.56281">
        <ele>696</ele>
        <time>2018-03-18T09:04:23.000Z</time>
      </trkpt>
      <trkpt lat="43.02087" lon="0.5628">
        <ele>696</ele>
        <time>2018-03-18T09:04:25.000Z</time>
      </trkpt>
      <trkpt lat="43.02087" lon="0.56279">
        <ele>696</ele>
        <time>2018-03-18T09:04:27.000Z</time>
      </trkpt>
      <trkpt lat="43.02086" lon="0.56279">
        <ele>696</ele>
        <time>2018-03-18T09:04:29.000Z</time>
      </trkpt>
      <trkpt lat="43.02086" lon="0.56277">
        <ele>697</ele>
        <time>2018-03-18T09:04:31.000Z</time>
      </trkpt>
      <trkpt lat="43.02085" lon="0.56277">
        <ele>697</ele>
        <time>2018-03-18T09:04:33.000Z</time>
      </trkpt>
      <trkpt lat="43.02083" lon="0.56276">
        <ele>697</ele>
        <time>2018-03-18T09:04:35.000Z</time>
      </trkpt>
      <trkpt lat="43.02083" lon="0.56275">
        <ele>697</ele>
        <time>2018-03-18T09:04:37.000Z</time>
      </trkpt>
      <trkpt lat="43.02082" lon="0.56274">
        <ele>697</ele>
        <time>2018-03-18T09:04:39.000Z</time>
      </trkpt>
      <trkpt lat="43.02081" lon="0.56273">
        <ele>698</ele>
        <time>2018-03-18T09:04:41.000Z</time>
      </trkpt>
      <trkpt lat="43.02081" lon="0.56272">
        <ele>698</ele>
        <time>2018-03-18T09:04:43.000Z</time>
      </trkpt>
      <trkpt lat="43.0208" lon="0.56271">
        <ele>698</ele>
        <time>2018-03-18T09:04:45.000Z</time>
      </trkpt>
      <trkpt lat="43.0208" lon="0.56269">
        <ele>698</ele>
        <time>2018-03-18T09:04:47.000Z</time>
      </trkpt>
      <trkpt lat="43.0208" lon="0.56268">
        <ele>699</ele>
        <time>2018-03-18T09:04:49.000Z</time>
      </trkpt>
      <trkpt lat="43.0208" lon="0.56266">
        <ele>699</ele>
        <time>2018-03-18T09:04:51.000Z</time>
      </trkpt>
      <trkpt lat="43.02079" lon="0.56265">
        <ele>699</ele>
        <time>2018-03-18T09:04:53.000Z</time>
      </trkpt>
      <trkpt lat="43.02078" lon="0.56264">
        <ele>699</ele>
        <time>2018-03-18T09:04:55.000Z</time>
      </trkpt>
      <trkpt lat="43.02077" lon="0.56264">
        <ele>700</ele>
        <time>2018-03-18T09:04:57.000Z</time>
      </trkpt>
      <trkpt lat="43.02076" lon="0.56263">
        <ele>700</ele>
        <time>2018-03-18T09:04:59.000Z</time>
      </trkpt>
      <trkpt lat="43.02076" lon="0.56262">
        <ele>700</ele>
        <time>2018-03-18T09:05:01.000Z</time>
      </trkpt>
      <trkpt lat="43.02075" lon="0.56261">
        <ele>700</ele>
        <time>2018-03-18T09:05:03.000Z</time>
      </trkpt>
      <trkpt lat="43.02074" lon="0.56261">
        <ele>700</ele>
        <time>2018-03-18T09:05:05.000Z</time>
      </trkpt>
      <trkpt lat="43.02075" lon="0.5626">
        <ele>700</ele>
        <time>2018-03-18T09:05:07.000Z</time>
      </trkpt>
      <trkpt lat="43.02075" lon="0.56259">
        <ele>701</ele>
        <time>2018-03-18T09:05:09.000Z</time>
      </trkpt>
      <trkpt lat="43.02074" lon="0.56259">
        <ele>701</ele>
        <time>2018-03-18T09:05:11.000Z</time>
      </trkpt>
      <trkpt lat="43.02073" lon="0.56257">
        <ele>701</ele>
        <time>2018-03-18T09:05:13.000Z</time>
      </trkpt>
      <trkpt lat="43.02073" lon="0.56256">
        <ele>701</ele>
        <time>2018-03-18T09:05:15.000Z</time>
      </trkpt>
      <trkpt lat="43.02072" lon="0.56256">
        <ele>701</ele>
        <time>2018-03-18T09:05:17.000Z</time>
      </trkpt>
      <trkpt lat="43.02072" lon="0.56255">
        <ele>702</ele>
        <time>2018-03-18T09:05:19.000Z</time>
      </trkpt>
      <trkpt lat="43.02071" lon="0.56254">
        <ele>702</ele>
        <time>2018-03-18T09:05:21.000Z</time>
      </trkpt>
      <trkpt lat="43.02071" lon="0.56252">
        <ele>702</ele>
        <time>2018-03-18T09:05:23.000Z</time>
      </trkpt>
      <trkpt lat="43.02071" lon="0.56252">
        <ele>702</ele>
        <time>2018-03-18T09:05:25.000Z</time>
      </trkpt>
      <trkpt lat="43.02071" lon="0.56251">
        <ele>702</ele>
        <time>2018-03-18T09:05:27.000Z</time>
      </trkpt>
      <trkpt lat="43.0207" lon="0.5625">
        <ele>702</ele>
        <time>2018-03-18T09:05:29.000Z</time>
      </trkpt>
      <trkpt lat="43.02069" lon="0.5625">
        <ele>703</ele>
        <time>2018-03-18T09:05:31.000Z</time>
      </trkpt>
      <trkpt lat="43.02069" lon="0.56249">
        <ele>703</ele>
        <time>2018-03-18T09:05:33.000Z</time>
      </trkpt>
      <trkpt lat="43.0207" lon="0.56248">
        <ele>703</ele>
        <time>2018-03-18T09:05:35.000Z</time>
      </trkpt>
      <trkpt lat="43.0207" lon="0.56248">
        <ele>703</ele>
        <time>2018-03-18T09:05:37.000Z</time>
      </trkpt>
      <trkpt lat="43.02069" lon="0.56247">
        <ele>703</ele>
        <time>2018-03-18T09:05:39.000Z</time>
      </trkpt>
      <trkpt lat="43.02069" lon="0.56246">
        <ele>703</ele>
        <time>2018-03-18T09:05:41.000Z</time>
      </trkpt>
      <trkpt lat="43.02068" lon="0.56245">
        <ele>703</ele>
        <time>2018-03-18T09:05:43.000Z</time>
      </trkpt>
      <trkpt lat="43.02067" lon="0.56244">
        <ele>704</ele>
        <time>2018-03-18T09:05:45.000Z</time>
      </trkpt>
      <trkpt lat="43.02066" lon="0.56243">
        <ele>704</ele>
        <time>2018-03-18T09:05:47.000Z</time>
      </trkpt>
      <trkpt lat="43.02065" lon="0.56241">
        <ele>704</ele>
        <time>2018-03-18T09:05:49.000Z</time>
      </trkpt>
      <trkpt lat="43.02064" lon="0.5624">
        <ele>705</ele>
        <time>2018-03-18T09:05:51.000Z</time>
      </trkpt>
      <trkpt lat="43.02063" lon="0.5624">
        <ele>705</ele>
        <time>2018-03-18T09:05:53.000Z</time>
      </trkpt>
      <trkpt lat="43.02063" lon="0.56239">
        <ele>705</ele>
        <time>2018-03-18T09:05:55.000Z</time>
      </trkpt>
      <trkpt lat="43.02062" lon="0.56237">
        <ele>705</ele>
        <time>2018-03-18T09:05:57.000Z</time>
      </trkpt>
      <trkpt lat="43.02061" lon="0.56236">
        <ele>706</ele>
        <time>2018-03-18T09:05:59.000Z</time>
      </trkpt>
      <trkpt lat="43.0206" lon="0.56236">
        <ele>706</ele>
        <time>2018-03-18T09:06:01.000Z</time>
      </trkpt>
      <trkpt lat="43.02059" lon="0.56235">
        <ele>706</ele>
        <time>2018-03-18T09:06:03.000Z</time>
      </trkpt>
      <trkpt lat="43.02058" lon="0.56234">
        <ele>706</ele>
        <time>2018-03-18T09:06:05.000Z</time>
      </trkpt>
      <trkpt lat="43.02058" lon="0.56233">
        <ele>706</ele>
        <time>2018-03-18T09:06:07.000Z</time>
      </trkpt>
      <trkpt lat="43.02057" lon="0.56232">
        <ele>706</ele>
        <time>2018-03-18T09:06:09.000Z</time>
      </trkpt>
      <trkpt lat="43.02057" lon="0.56231">
        <ele>707</ele>
        <time>2018-03-18T09:06:11.000Z</time>
      </trkpt>
      <trkpt lat="43.02057" lon="0.56229">
        <ele>707</ele>
        <time>2018-03-18T09:06:13.000Z</time>
      </trkpt>
      <trkpt lat="43.02057" lon="0.56228">
        <ele>707</ele>
        <time>2018-03-18T09:06:15.000Z</time>
      </trkpt>
      <trkpt lat="43.02057" lon="0.56227">
        <ele>707</ele>
        <time>2018-03-18T09:06:17.000Z</time>
      </trkpt>
      <trkpt lat="43.02056" lon="0.56226">
        <ele>708</ele>
        <time>2018-03-18T09:06:19.000Z</time>
      </trkpt>
      <trkpt lat="43.02055" lon="0.56226">
        <ele>708</ele>
        <time>2018-03-18T09:06:21.000Z</time>
      </trkpt>
      <trkpt lat="43.02054" lon="0.56225">
        <ele>708</ele>
        <time>2018-03-18T09:06:23.000Z</time>
      </trkpt>
      <trkpt lat="43.02054" lon="0.56224">
        <ele>708</ele>
        <time>2018-03-18T09:06:25.000Z</time>
      </trkpt>
      <trkpt lat="43.02054" lon="0.56223">
        <ele>708</ele>
        <time>2018-03-18T09:06:27.000Z</time>
      </trkpt>
      <trkpt lat="43.02053" lon="0.56222">
        <ele>709</ele>
        <time>2018-03-18T09:06:29.000Z</time>
      </trkpt>
      <trkpt lat="43.02053" lon="0.56221">
        <ele>709</ele>
        <time>2018-03-18T09:06:31.000Z</time>
      </trkpt>
      <trkpt lat="43.02053" lon="0.56221">
        <ele>709</ele>
        <time>2018-03-18T09:06:33.000Z</time>
      </trkpt>
      <trkpt lat="43.02053" lon="0.5622">
        <ele>709</ele>
        <time>2018-03-18T09:06:35.000Z</time>
      </trkpt>
      <trkpt lat="43.02053" lon="0.56219">
        <ele>709</ele>
        <time>2018-03-18T09:06:37.000Z</time>
      </trkpt>
      <trkpt lat="43.02052" lon="0.56218">
        <ele>709</ele>
        <time>2018-03-18T09:06:39.000Z</time>
      </trkpt>
      <trkpt lat="43.02052" lon="0.56217">
        <ele>710</ele>
        <time>2018-03-18T09:06:41.000Z</time>
      </trkpt>
      <trkpt lat="43.02052" lon="0.56215">
        <ele>710</ele>
        <time>2018-03-18T09:06:43.000Z</time>
      </trkpt>
      <trkpt lat="43.02051" lon="0.56215">
        <ele>710</ele>
        <time>2018-03-18T09:06:45.000Z</time>
      </trkpt>
      <trkpt lat="43.02052" lon="0.56214">
        <ele>711</ele>
        <time>2018-03-18T09:06:47.000Z</time>
      </trkpt>
      <trkpt lat="43.02052" lon="0.56213">
        <ele>711</ele>
        <time>2018-03-18T09:06:49.000Z</time>
      </trkpt>
      <trkpt lat="43.02052" lon="0.56212">
        <ele>711</ele>
        <time>2018-03-18T09:06:51.000Z</time>
      </trkpt>
      <trkpt lat="43.02052" lon="0.56211">
        <ele>711</ele>
        <time>2018-03-18T09:06:53.000Z</time>
      </trkpt>
      <trkpt lat="43.02051" lon="0.56211">
        <ele>711</ele>
        <time>2018-03-18T09:06:55.000Z</time>
      </trkpt>
      <trkpt lat="43.02051" lon="0.5621">
        <ele>712</ele>
        <time>2018-03-18T09:06:57.000Z</time>
      </trkpt>
      <trkpt lat="43.0205" lon="0.5621">
        <ele>712</ele>
        <time>2018-03-18T09:06:59.000Z</time>
      </trkpt>
      <trkpt lat="43.0205" lon="0.56209">
        <ele>712</ele>
        <time>2018-03-18T09:07:01.000Z</time>
      </trkpt>
      <trkpt lat="43.02049" lon="0.56208">
        <ele>712</ele>
        <time>2018-03-18T09:07:03.000Z</time>
      </trkpt>
      <trkpt lat="43.02048" lon="0.56207">
        <ele>712</ele>
        <time>2018-03-18T09:07:05.000Z</time>
      </trkpt>
      <trkpt lat="43.02048" lon="0.56206">
        <ele>713</ele>
        <time>2018-03-18T09:07:07.000Z</time>
      </trkpt>
      <trkpt lat="43.02048" lon="0.56206">
        <ele>713</ele>
        <time>2018-03-18T09:07:09.000Z</time>
      </trkpt>
      <trkpt lat="43.02047" lon="0.56205">
        <ele>713</ele>
        <time>2018-03-18T09:07:11.000Z</time>
      </trkpt>
      <trkpt lat="43.02047" lon="0.56204">
        <ele>713</ele>
        <time>2018-03-18T09:07:13.000Z</time>
      </trkpt>
      <trkpt lat="43.02046" lon="0.56203">
        <ele>714</ele>
        <time>2018-03-18T09:07:15.000Z</time>
      </trkpt>
      <trkpt lat="43.02046" lon="0.56203">
        <ele>714</ele>
        <time>2018-03-18T09:07:17.000Z</time>
      </trkpt>
      <trkpt lat="43.02046" lon="0.56202">
        <ele>714</ele>
        <time>2018-03-18T09:07:19.000Z</time>
      </trkpt>
      <trkpt lat="43.02046" lon="0.56201">
        <ele>714</ele>
        <time>2018-03-18T09:07:21.000Z</time>
      </trkpt>
      <trkpt lat="43.02046" lon="0.562">
        <ele>715</ele>
        <time>2018-03-18T09:07:23.000Z</time>
      </trkpt>
      <trkpt lat="43.02045" lon="0.56198">
        <ele>715</ele>
        <time>2018-03-18T09:07:25.000Z</time>
      </trkpt>
      <trkpt lat="43.02045" lon="0.56198">
        <ele>715</ele>
        <time>2018-03-18T09:07:27.000Z</time>
      </trkpt>
      <trkpt lat="43.02044" lon="0.56197">
        <ele>716</ele>
        <time>2018-03-18T09:07:29.000Z</time>
      </trkpt>
      <trkpt lat="43.02044" lon="0.56196">
        <ele>716</ele>
        <time>2018-03-18T09:07:31.000Z</time>
      </trkpt>
      <trkpt lat="43.02043" lon="0.56195">
        <ele>716</ele>
        <time>2018-03-18T09:07:33.000Z</time>
      </trkpt>
      <trkpt lat="43.02044" lon="0.56195">
        <ele>716</ele>
        <time>2018-03-18T09:07:35.000Z</time>
      </trkpt>
      <trkpt lat="43.02044" lon="0.56194">
        <ele>716</ele>
        <time>2018-03-18T09:07:37.000Z</time>
      </trkpt>
      <trkpt lat="43.02043" lon="0.56193">
        <ele>717</ele>
        <time>2018-03-18T09:07:39.000Z</time>
      </trkpt>
      <trkpt lat="43.02042" lon="0.56193">
        <ele>717</ele>
        <time>2018-03-18T09:07:41.000Z</time>
      </trkpt>
      <trkpt lat="43.02041" lon="0.56192">
        <ele>717</ele>
        <time>2018-03-18T09:07:43.000Z</time>
      </trkpt>
      <trkpt lat="43.02039" lon="0.56192">
        <ele>717</ele>
        <time>2018-03-18T09:07:45.000Z</time>
      </trkpt>
      <trkpt lat="43.02038" lon="0.56191">
        <ele>718</ele>
        <time>2018-03-18T09:07:47.000Z</time>
      </trkpt>
      <trkpt lat="43.02037" lon="0.56191">
        <ele>718</ele>
        <time>2018-03-18T09:07:49.000Z</time>
      </trkpt>
      <trkpt lat="43.02036" lon="0.5619">
        <ele>718</ele>
        <time>2018-03-18T09:07:51.000Z</time>
      </trkpt>
      <trkpt lat="43.02035" lon="0.5619">
        <ele>718</ele>
        <time>2018-03-18T09:07:53.000Z</time>
      </trkpt>
      <trkpt lat="43.02035" lon="0.5619">
        <ele>718</ele>
        <time>2018-03-18T09:07:55.000Z</time>
      </trkpt>
      <trkpt lat="43.02034" lon="0.56189">
        <ele>718</ele>
        <time>2018-03-18T09:07:57.000Z</time>
      </trkpt>
      <trkpt lat="43.02034" lon="0.56188">
        <ele>719</ele>
        <time>2018-03-18T09:07:59.000Z</time>
      </trkpt>
      <trkpt lat="43.02034" lon="0.56187">
        <ele>719</ele>
        <time>2018-03-18T09:08:01.000Z</time>
      </trkpt>
      <trkpt lat="43.02035" lon="0.56185">
        <ele>719</ele>
        <time>2018-03-18T09:08:03.000Z</time>
      </trkpt>
      <trkpt lat="43.02035" lon="0.56184">
        <ele>720</ele>
        <time>2018-03-18T09:08:05.000Z</time>
      </trkpt>
      <trkpt lat="43.02035" lon="0.56183">
        <ele>720</ele>
        <time>2018-03-18T09:08:07.000Z</time>
      </trkpt>
      <trkpt lat="43.02034" lon="0.56182">
        <ele>720</ele>
        <time>2018-03-18T09:08:09.000Z</time>
      </trkpt>
      <trkpt lat="43.02034" lon="0.56181">
        <ele>721</ele>
        <time>2018-03-18T09:08:11.000Z</time>
      </trkpt>
      <trkpt lat="43.02033" lon="0.56181">
        <ele>721</ele>
        <time>2018-03-18T09:08:13.000Z</time>
      </trkpt>
      <trkpt lat="43.02032" lon="0.56181">
        <ele>721</ele>
        <time>2018-03-18T09:08:15.000Z</time>
      </trkpt>
      <trkpt lat="43.02031" lon="0.56181">
        <ele>721</ele>
        <time>2018-03-18T09:08:17.000Z</time>
      </trkpt>
      <trkpt lat="43.0203" lon="0.56181">
        <ele>721</ele>
        <time>2018-03-18T09:08:19.000Z</time>
      </trkpt>
      <trkpt lat="43.02029" lon="0.56181">
        <ele>721</ele>
        <time>2018-03-18T09:08:21.000Z</time>
      </trkpt>
      <trkpt lat="43.02028" lon="0.56181">
        <ele>721</ele>
        <time>2018-03-18T09:08:23.000Z</time>
      </trkpt>
      <trkpt lat="43.02028" lon="0.5618">
        <ele>721</ele>
        <time>2018-03-18T09:08:25.000Z</time>
      </trkpt>
      <trkpt lat="43.02027" lon="0.5618">
        <ele>721</ele>
        <time>2018-03-18T09:08:27.000Z</time>
      </trkpt>
      <trkpt lat="43.02026" lon="0.5618">
        <ele>721</ele>
        <time>2018-03-18T09:08:29.000Z</time>
      </trkpt>
      <trkpt lat="43.02026" lon="0.56179">
        <ele>722</ele>
        <time>2018-03-18T09:08:31.000Z</time>
      </trkpt>
      <trkpt lat="43.02024" lon="0.56178">
        <ele>722</ele>
        <time>2018-03-18T09:08:33.000Z</time>
      </trkpt>
      <trkpt lat="43.02023" lon="0.56177">
        <ele>722</ele>
        <time>2018-03-18T09:08:35.000Z</time>
      </trkpt>
      <trkpt lat="43.02022" lon="0.56177">
        <ele>722</ele>
        <time>2018-03-18T09:08:37.000Z</time>
      </trkpt>
      <trkpt lat="43.02022" lon="0.56177">
        <ele>723</ele>
        <time>2018-03-18T09:08:39.000Z</time>
      </trkpt>
      <trkpt lat="43.02021" lon="0.56176">
        <ele>723</ele>
        <time>2018-03-18T09:08:41.000Z</time>
      </trkpt>
      <trkpt lat="43.02021" lon="0.56176">
        <ele>723</ele>
        <time>2018-03-18T09:08:43.000Z</time>
      </trkpt>
      <trkpt lat="43.0202" lon="0.56176">
        <ele>723</ele>
        <time>2018-03-18T09:08:45.000Z</time>
      </trkpt>
      <trkpt lat="43.02019" lon="0.56176">
        <ele>723</ele>
        <time>2018-03-18T09:08:47.000Z</time>
      </trkpt>
      <trkpt lat="43.02019" lon="0.56176">
        <ele>723</ele>
        <time>2018-03-18T09:08:49.000Z</time>
      </trkpt>
      <trkpt lat="43.02018" lon="0.56176">
        <ele>723</ele>
        <time>2018-03-18T09:08:51.000Z</time>
      </trkpt>
      <trkpt lat="43.02017" lon="0.56175">
        <ele>723</ele>
        <time>2018-03-18T09:08:53.000Z</time>
      </trkpt>
      <trkpt lat="43.02016" lon="0.56174">
        <ele>724</ele>
        <time>2018-03-18T09:08:55.000Z</time>
      </trkpt>
      <trkpt lat="43.02015" lon="0.56173">
        <ele>724</ele>
        <time>2018-03-18T09:08:57.000Z</time>
      </trkpt>
      <trkpt lat="43.02014" lon="0.56172">
        <ele>724</ele>
        <time>2018-03-18T09:08:59.000Z</time>
      </trkpt>
      <trkpt lat="43.02012" lon="0.56171">
        <ele>725</ele>
        <time>2018-03-18T09:09:01.000Z</time>
      </trkpt>
      <trkpt lat="43.02011" lon="0.5617">
        <ele>725</ele>
        <time>2018-03-18T09:09:03.000Z</time>
      </trkpt>
      <trkpt lat="43.02011" lon="0.56169">
        <ele>725</ele>
        <time>2018-03-18T09:09:05.000Z</time>
      </trkpt>
      <trkpt lat="43.0201" lon="0.56168">
        <ele>726</ele>
        <time>2018-03-18T09:09:07.000Z</time>
      </trkpt>
      <trkpt lat="43.02011" lon="0.56165">
        <ele>726</ele>
        <time>2018-03-18T09:09:09.000Z</time>
      </trkpt>
      <trkpt lat="43.0201" lon="0.56163">
        <ele>727</ele>
        <time>2018-03-18T09:09:11.000Z</time>
      </trkpt>
      <trkpt lat="43.02009" lon="0.56161">
        <ele>728</ele>
        <time>2018-03-18T09:09:13.000Z</time>
      </trkpt>
      <trkpt lat="43.02008" lon="0.56159">
        <ele>728</ele>
        <time>2018-03-18T09:09:15.000Z</time>
      </trkpt>
      <trkpt lat="43.02007" lon="0.56158">
        <ele>728</ele>
        <time>2018-03-18T09:09:17.000Z</time>
      </trkpt>
      <trkpt lat="43.02007" lon="0.56157">
        <ele>728</ele>
        <time>2018-03-18T09:09:19.000Z</time>
      </trkpt>
      <trkpt lat="43.02006" lon="0.56156">
        <ele>729</ele>
        <time>2018-03-18T09:09:21.000Z</time>
      </trkpt>
      <trkpt lat="43.02005" lon="0.56155">
        <ele>729</ele>
        <time>2018-03-18T09:09:23.000Z</time>
      </trkpt>
      <trkpt lat="43.02005" lon="0.56154">
        <ele>729</ele>
        <time>2018-03-18T09:09:25.000Z</time>
      </trkpt>
      <trkpt lat="43.02005" lon="0.56153">
        <ele>729</ele>
        <time>2018-03-18T09:09:27.000Z</time>
      </trkpt>
      <trkpt lat="43.02004" lon="0.56153">
        <ele>729</ele>
        <time>2018-03-18T09:09:29.000Z</time>
      </trkpt>
      <trkpt lat="43.02004" lon="0.56152">
        <ele>729</ele>
        <time>2018-03-18T09:09:31.000Z</time>
      </trkpt>
      <trkpt lat="43.02005" lon="0.56151">
        <ele>730</ele>
        <time>2018-03-18T09:09:33.000Z</time>
      </trkpt>
      <trkpt lat="43.02005" lon="0.5615">
        <ele>730</ele>
        <time>2018-03-18T09:09:35.000Z</time>
      </trkpt>
      <trkpt lat="43.02005" lon="0.56149">
        <ele>730</ele>
        <time>2018-03-18T09:09:37.000Z</time>
      </trkpt>
      <trkpt lat="43.02005" lon="0.56148">
        <ele>731</ele>
        <time>2018-03-18T09:09:39.000Z</time>
      </trkpt>
      <trkpt lat="43.02004" lon="0.56147">
        <ele>731</ele>
        <time>2018-03-18T09:09:41.000Z</time>
      </trkpt>
      <trkpt lat="43.02003" lon="0.56145">
        <ele>731</ele>
        <time>2018-03-18T09:09:43.000Z</time>
      </trkpt>
      <trkpt lat="43.02001" lon="0.56144">
        <ele>731</ele>
        <time>2018-03-18T09:09:45.000Z</time>
      </trkpt>
      <trkpt lat="43.02" lon="0.56144">
        <ele>731</ele>
        <time>2018-03-18T09:09:47.000Z</time>
      </trkpt>
      <trkpt lat="43.02" lon="0.56143">
        <ele>731</ele>
        <time>2018-03-18T09:09:49.000Z</time>
      </trkpt>
      <trkpt lat="43.01999" lon="0.56142">
        <ele>731</ele>
        <time>2018-03-18T09:09:51.000Z</time>
      </trkpt>
      <trkpt lat="43.01999" lon="0.56141">
        <ele>731</ele>
        <time>2018-03-18T09:09:53.000Z</time>
      </trkpt>
      <trkpt lat="43.01998" lon="0.56141">
        <ele>731</ele>
        <time>2018-03-18T09:09:55.000Z</time>
      </trkpt>
      <trkpt lat="43.01998" lon="0.5614">
        <ele>732</ele>
        <time>2018-03-18T09:09:57.000Z</time>
      </trkpt>
      <trkpt lat="43.01997" lon="0.5614">
        <ele>731</ele>
        <time>2018-03-18T09:09:59.000Z</time>
      </trkpt>
      <trkpt lat="43.01996" lon="0.5614">
        <ele>731</ele>
        <time>2018-03-18T09:10:01.000Z</time>
      </trkpt>
      <trkpt lat="43.01995" lon="0.56141">
        <ele>731</ele>
        <time>2018-03-18T09:10:03.000Z</time>
      </trkpt>
      <trkpt lat="43.01995" lon="0.56141">
        <ele>731</ele>
        <time>2018-03-18T09:10:05.000Z</time>
      </trkpt>
      <trkpt lat="43.01994" lon="0.5614">
        <ele>731</ele>
        <time>2018-03-18T09:10:07.000Z</time>
      </trkpt>
      <trkpt lat="43.01993" lon="0.56139">
        <ele>731</ele>
        <time>2018-03-18T09:10:09.000Z</time>
      </trkpt>
      <trkpt lat="43.01991" lon="0.56138">
        <ele>731</ele>
        <time>2018-03-18T09:10:11.000Z</time>
      </trkpt>
      <trkpt lat="43.01991" lon="0.56137">
        <ele>731</ele>
        <time>2018-03-18T09:10:13.000Z</time>
      </trkpt>
      <trkpt lat="43.01991" lon="0.56136">
        <ele>731</ele>
        <time>2018-03-18T09:10:15.000Z</time>
      </trkpt>
      <trkpt lat="43.0199" lon="0.56135">
        <ele>732</ele>
        <time>2018-03-18T09:10:17.000Z</time>
      </trkpt>
      <trkpt lat="43.0199" lon="0.56134">
        <ele>732</ele>
        <time>2018-03-18T09:10:19.000Z</time>
      </trkpt>
      <trkpt lat="43.0199" lon="0.56133">
        <ele>732</ele>
        <time>2018-03-18T09:10:21.000Z</time>
      </trkpt>
      <trkpt lat="43.0199" lon="0.56131">
        <ele>733</ele>
        <time>2018-03-18T09:10:23.000Z</time>
      </trkpt>
      <trkpt lat="43.01989" lon="0.56129">
        <ele>734</ele>
        <time>2018-03-18T09:10:25.000Z</time>
      </trkpt>
      <trkpt lat="43.01989" lon="0.56127">
        <ele>734</ele>
        <time>2018-03-18T09:10:27.000Z</time>
      </trkpt>
      <trkpt lat="43.0199" lon="0.56125">
        <ele>735</ele>
        <time>2018-03-18T09:10:29.000Z</time>
      </trkpt>
      <trkpt lat="43.01989" lon="0.56123">
        <ele>736</ele>
        <time>2018-03-18T09:10:31.000Z</time>
      </trkpt>
      <trkpt lat="43.01989" lon="0.5612">
        <ele>737</ele>
        <time>2018-03-18T09:10:33.000Z</time>
      </trkpt>
      <trkpt lat="43.01989" lon="0.56118">
        <ele>738</ele>
        <time>2018-03-18T09:10:35.000Z</time>
      </trkpt>
      <trkpt lat="43.01988" lon="0.56116">
        <ele>738</ele>
        <time>2018-03-18T09:10:37.000Z</time>
      </trkpt>
      <trkpt lat="43.01988" lon="0.56114">
        <ele>739</ele>
        <time>2018-03-18T09:10:39.000Z</time>
      </trkpt>
      <trkpt lat="43.01987" lon="0.56112">
        <ele>740</ele>
        <time>2018-03-18T09:10:41.000Z</time>
      </trkpt>
      <trkpt lat="43.01987" lon="0.5611">
        <ele>740</ele>
        <time>2018-03-18T09:10:43.000Z</time>
      </trkpt>
      <trkpt lat="43.01986" lon="0.56109">
        <ele>740</ele>
        <time>2018-03-18T09:10:45.000Z</time>
      </trkpt>
      <trkpt lat="43.01986" lon="0.56107">
        <ele>740</ele>
        <time>2018-03-18T09:10:47.000Z</time>
      </trkpt>
      <trkpt lat="43.01986" lon="0.56106">
        <ele>741</ele>
        <time>2018-03-18T09:10:49.000Z</time>
      </trkpt>
      <trkpt lat="43.01985" lon="0.56105">
        <ele>741</ele>
        <time>2018-03-18T09:10:51.000Z</time>
      </trkpt>
      <trkpt lat="43.01984" lon="0.56103">
        <ele>741</ele>
        <time>2018-03-18T09:10:53.000Z</time>
      </trkpt>
      <trkpt lat="43.01983" lon="0.56102">
        <ele>741</ele>
        <time>2018-03-18T09:10:55.000Z</time>
      </trkpt>
      <trkpt lat="43.01983" lon="0.561">
        <ele>742</ele>
        <time>2018-03-18T09:10:57.000Z</time>
      </trkpt>
      <trkpt lat="43.01982" lon="0.561">
        <ele>742</ele>
        <time>2018-03-18T09:10:59.000Z</time>
      </trkpt>
      <trkpt lat="43.0198" lon="0.561">
        <ele>742</ele>
        <time>2018-03-18T09:11:01.000Z</time>
      </trkpt>
      <trkpt lat="43.01979" lon="0.56099">
        <ele>742</ele>
        <time>2018-03-18T09:11:03.000Z</time>
      </trkpt>
      <trkpt lat="43.01978" lon="0.56098">
        <ele>742</ele>
        <time>2018-03-18T09:11:05.000Z</time>
      </trkpt>
      <trkpt lat="43.01977" lon="0.56096">
        <ele>743</ele>
        <time>2018-03-18T09:11:07.000Z</time>
      </trkpt>
      <trkpt lat="43.01976" lon="0.56095">
        <ele>743</ele>
        <time>2018-03-18T09:11:09.000Z</time>
      </trkpt>
      <trkpt lat="43.01974" lon="0.56094">
        <ele>743</ele>
        <time>2018-03-18T09:11:11.000Z</time>
      </trkpt>
      <trkpt lat="43.01974" lon="0.56093">
        <ele>743</ele>
        <time>2018-03-18T09:11:13.000Z</time>
      </trkpt>
      <trkpt lat="43.01973" lon="0.56092">
        <ele>743</ele>
        <time>2018-03-18T09:11:15.000Z</time>
      </trkpt>
      <trkpt lat="43.01972" lon="0.56091">
        <ele>744</ele>
        <time>2018-03-18T09:11:17.000Z</time>
      </trkpt>
      <trkpt lat="43.01971" lon="0.56091">
        <ele>744</ele>
        <time>2018-03-18T09:11:19.000Z</time>
      </trkpt>
      <trkpt lat="43.01972" lon="0.5609">
        <ele>744</ele>
        <time>2018-03-18T09:11:21.000Z</time>
      </trkpt>
      <trkpt lat="43.01972" lon="0.5609">
        <ele>744</ele>
        <time>2018-03-18T09:11:23.000Z</time>
      </trkpt>
      <trkpt lat="43.01972" lon="0.5609">
        <ele>744</ele>
        <time>2018-03-18T09:11:25.000Z</time>
      </trkpt>
      <trkpt lat="43.01973" lon="0.5609">
        <ele>744</ele>
        <time>2018-03-18T09:11:27.000Z</time>
      </trkpt>
      <trkpt lat="43.01972" lon="0.5609">
        <ele>744</ele>
        <time>2018-03-18T09:11:29.000Z</time>
      </trkpt>
      <trkpt lat="43.01972" lon="0.56091">
        <ele>744</ele>
        <time>2018-03-18T09:11:31.000Z</time>
      </trkpt>
      <trkpt lat="43.01971" lon="0.56091">
        <ele>744</ele>
        <time>2018-03-18T09:11:33.000Z</time>
      </trkpt>
      <trkpt lat="43.01971" lon="0.5609">
        <ele>744</ele>
        <time>2018-03-18T09:11:35.000Z</time>
      </trkpt>
      <trkpt lat="43.0197" lon="0.5609">
        <ele>744</ele>
        <time>2018-03-18T09:11:37.000Z</time>
      </trkpt>
      <trkpt lat="43.01971" lon="0.5609">
        <ele>744</ele>
        <time>2018-03-18T09:11:39.000Z</time>
      </trkpt>
      <trkpt lat="43.01971" lon="0.5609">
        <ele>744</ele>
        <time>2018-03-18T09:11:41.000Z</time>
      </trkpt>
      <trkpt lat="43.01971" lon="0.5609">
        <ele>744</ele>
        <time>2018-03-18T09:11:43.000Z</time>
      </trkpt>
      <trkpt lat="43.01972" lon="0.56091">
        <ele>744</ele>
        <time>2018-03-18T09:11:45.000Z</time>
      </trkpt>
      <trkpt lat="43.01972" lon="0.56091">
        <ele>744</ele>
        <time>2018-03-18T09:11:47.000Z</time>
      </trkpt>
      <trkpt lat="43.01973" lon="0.56091">
        <ele>744</ele>
        <time>2018-03-18T09:11:49.000Z</time>
      </trkpt>
      <trkpt lat="43.01974" lon="0.5609">
        <ele>744</ele>
        <time>2018-03-18T09:11:51.000Z</time>
      </trkpt>
      <trkpt lat="43.01974" lon="0.5609">
        <ele>744</ele>
        <time>2018-03-18T09:11:53.000Z</time>
      </trkpt>
      <trkpt lat="43.01975" lon="0.56089">
        <ele>744</ele>
        <time>2018-03-18T09:11:55.000Z</time>
      </trkpt>
      <trkpt lat="43.01975" lon="0.56089">
        <ele>744</ele>
        <time>2018-03-18T09:11:57.000Z</time>
      </trkpt>
      <trkpt lat="43.01975" lon="0.56089">
        <ele>744</ele>
        <time>2018-03-18T09:11:59.000Z</time>
      </trkpt>
      <trkpt lat="43.01974" lon="0.56089">
        <ele>744</ele>
        <time>2018-03-18T09:12:01.000Z</time>
      </trkpt>
      <trkpt lat="43.01974" lon="0.5609">
        <ele>744</ele>
        <time>2018-03-18T09:12:03.000Z</time>
      </trkpt>
      <trkpt lat="43.01973" lon="0.5609">
        <ele>744</ele>
        <time>2018-03-18T09:12:05.000Z</time>
      </trkpt>
      <trkpt lat="43.01973" lon="0.56091">
        <ele>744</ele>
        <time>2018-03-18T09:12:07.000Z</time>
      </trkpt>
      <trkpt lat="43.01973" lon="0.56092">
        <ele>744</ele>
        <time>2018-03-18T09:12:09.000Z</time>
      </trkpt>
      <trkpt lat="43.01973" lon="0.56092">
        <ele>743</ele>
        <time>2018-03-18T09:12:11.000Z</time>
      </trkpt>
      <trkpt lat="43.01972" lon="0.56093">
        <ele>743</ele>
        <time>2018-03-18T09:12:13.000Z</time>
      </trkpt>
      <trkpt lat="43.01972" lon="0.56093">
        <ele>743</ele>
        <time>2018-03-18T09:12:15.000Z</time>
      </trkpt>
      <trkpt lat="43.01972" lon="0.56093">
        <ele>743</ele>
        <time>2018-03-18T09:12:17.000Z</time>
      </trkpt>
      <trkpt lat="43.01971" lon="0.56093">
        <ele>743</ele>
        <time>2018-03-18T09:12:19.000Z</time>
      </trkpt>
      <trkpt lat="43.01971" lon="0.56093">
        <ele>743</ele>
        <time>2018-03-18T09:12:21.000Z</time>
      </trkpt>
      <trkpt lat="43.0197" lon="0.56092">
        <ele>743</ele>
        <time>2018-03-18T09:12:23.000Z</time>
      </trkpt>
      <trkpt lat="43.0197" lon="0.56093">
        <ele>743</ele>
        <time>2018-03-18T09:12:25.000Z</time>
      </trkpt>
      <trkpt lat="43.0197" lon="0.56093">
        <ele>743</ele>
        <time>2018-03-18T09:12:27.000Z</time>
      </trkpt>
      <trkpt lat="43.0197" lon="0.56094">
        <ele>743</ele>
        <time>2018-03-18T09:12:29.000Z</time>
      </trkpt>
      <trkpt lat="43.01972" lon="0.56094">
        <ele>743</ele>
        <time>2018-03-18T09:12:31.000Z</time>
      </trkpt>
      <trkpt lat="43.01972" lon="0.56094">
        <ele>743</ele>
        <time>2018-03-18T09:12:33.000Z</time>
      </trkpt>
      <trkpt lat="43.01973" lon="0.56095">
        <ele>743</ele>
        <time>2018-03-18T09:12:35.000Z</time>
      </trkpt>
      <trkpt lat="43.01973" lon="0.56095">
        <ele>743</ele>
        <time>2018-03-18T09:12:37.000Z</time>
      </trkpt>
      <trkpt lat="43.01973" lon="0.56095">
        <ele>743</ele>
        <time>2018-03-18T09:12:39.000Z</time>
      </trkpt>
      <trkpt lat="43.01974" lon="0.56094">
        <ele>743</ele>
        <time>2018-03-18T09:12:41.000Z</time>
      </trkpt>
      <trkpt lat="43.01975" lon="0.56095">
        <ele>743</ele>
        <time>2018-03-18T09:12:43.000Z</time>
      </trkpt>
      <trkpt lat="43.01975" lon="0.56096">
        <ele>743</ele>
        <time>2018-03-18T09:12:45.000Z</time>
      </trkpt>
      <trkpt lat="43.01974" lon="0.56096">
        <ele>743</ele>
        <time>2018-03-18T09:12:47.000Z</time>
      </trkpt>
      <trkpt lat="43.01973" lon="0.56097">
        <ele>743</ele>
        <time>2018-03-18T09:12:49.000Z</time>
      </trkpt>
      <trkpt lat="43.01973" lon="0.56097">
        <ele>743</ele>
        <time>2018-03-18T09:12:51.000Z</time>
      </trkpt>
      <trkpt lat="43.01973" lon="0.56097">
        <ele>743</ele>
        <time>2018-03-18T09:12:53.000Z</time>
      </trkpt>
      <trkpt lat="43.01973" lon="0.56097">
        <ele>743</ele>
        <time>2018-03-18T09:12:55.000Z</time>
      </trkpt>
      <trkpt lat="43.01973" lon="0.56097">
        <ele>743</ele>
        <time>2018-03-18T09:12:57.000Z</time>
      </trkpt>
      <trkpt lat="43.01974" lon="0.56096">
        <ele>743</ele>
        <time>2018-03-18T09:12:59.000Z</time>
      </trkpt>
      <trkpt lat="43.01973" lon="0.56096">
        <ele>743</ele>
        <time>2018-03-18T09:13:01.000Z</time>
      </trkpt>
      <trkpt lat="43.01974" lon="0.56096">
        <ele>743</ele>
        <time>2018-03-18T09:13:03.000Z</time>
      </trkpt>
      <trkpt lat="43.01973" lon="0.56096">
        <ele>743</ele>
        <time>2018-03-18T09:13:05.000Z</time>
      </trkpt>
      <trkpt lat="43.01973" lon="0.56096">
        <ele>743</ele>
        <time>2018-03-18T09:13:07.000Z</time>
      </trkpt>
      <trkpt lat="43.01973" lon="0.56096">
        <ele>743</ele>
        <time>2018-03-18T09:13:09.000Z</time>
      </trkpt>
      <trkpt lat="43.01973" lon="0.56096">
        <ele>743</ele>
        <time>2018-03-18T09:13:11.000Z</time>
      </trkpt>
      <trkpt lat="43.01972" lon="0.56096">
        <ele>743</ele>
        <time>2018-03-18T09:13:13.000Z</time>
      </trkpt>
      <trkpt lat="43.01972" lon="0.56096">
        <ele>743</ele>
        <time>2018-03-18T09:13:15.000Z</time>
      </trkpt>
      <trkpt lat="43.01972" lon="0.56096">
        <ele>743</ele>
        <time>2018-03-18T09:13:17.000Z</time>
      </trkpt>
      <trkpt lat="43.01972" lon="0.56096">
        <ele>743</ele>
        <time>2018-03-18T09:13:19.000Z</time>
      </trkpt>
      <trkpt lat="43.01972" lon="0.56095">
        <ele>743</ele>
        <time>2018-03-18T09:13:21.000Z</time>
      </trkpt>
      <trkpt lat="43.01972" lon="0.56095">
        <ele>743</ele>
        <time>2018-03-18T09:13:23.000Z</time>
      </trkpt>
      <trkpt lat="43.01972" lon="0.56094">
        <ele>743</ele>
        <time>2018-03-18T09:13:25.000Z</time>
      </trkpt>
      <trkpt lat="43.01972" lon="0.56094">
        <ele>743</ele>
        <time>2018-03-18T09:13:27.000Z</time>
      </trkpt>
      <trkpt lat="43.01972" lon="0.56094">
        <ele>743</ele>
        <time>2018-03-18T09:13:29.000Z</time>
      </trkpt>
      <trkpt lat="43.01972" lon="0.56094">
        <ele>743</ele>
        <time>2018-03-18T09:13:31.000Z</time>
      </trkpt>
      <trkpt lat="43.01971" lon="0.56093">
        <ele>743</ele>
        <time>2018-03-18T09:13:33.000Z</time>
      </trkpt>
      <trkpt lat="43.0197" lon="0.56092">
        <ele>744</ele>
        <time>2018-03-18T09:13:35.000Z</time>
      </trkpt>
      <trkpt lat="43.01969" lon="0.5609">
        <ele>744</ele>
        <time>2018-03-18T09:13:37.000Z</time>
      </trkpt>
      <trkpt lat="43.01969" lon="0.56088">
        <ele>744</ele>
        <time>2018-03-18T09:13:39.000Z</time>
      </trkpt>
      <trkpt lat="43.01968" lon="0.56087">
        <ele>744</ele>
        <time>2018-03-18T09:13:41.000Z</time>
      </trkpt>
      <trkpt lat="43.01969" lon="0.56086">
        <ele>745</ele>
        <time>2018-03-18T09:13:43.000Z</time>
      </trkpt>
      <trkpt lat="43.01969" lon="0.56086">
        <ele>745</ele>
        <time>2018-03-18T09:13:45.000Z</time>
      </trkpt>
      <trkpt lat="43.01969" lon="0.56086">
        <ele>745</ele>
        <time>2018-03-18T09:13:47.000Z</time>
      </trkpt>
      <trkpt lat="43.01969" lon="0.56086">
        <ele>745</ele>
        <time>2018-03-18T09:13:49.000Z</time>
      </trkpt>
      <trkpt lat="43.01969" lon="0.56087">
        <ele>745</ele>
        <time>2018-03-18T09:13:51.000Z</time>
      </trkpt>
      <trkpt lat="43.01969" lon="0.56087">
        <ele>745</ele>
        <time>2018-03-18T09:13:53.000Z</time>
      </trkpt>
      <trkpt lat="43.0197" lon="0.56086">
        <ele>745</ele>
        <time>2018-03-18T09:13:55.000Z</time>
      </trkpt>
      <trkpt lat="43.0197" lon="0.56087">
        <ele>744</ele>
        <time>2018-03-18T09:13:57.000Z</time>
      </trkpt>
      <trkpt lat="43.01971" lon="0.56087">
        <ele>744</ele>
        <time>2018-03-18T09:13:59.000Z</time>
      </trkpt>
      <trkpt lat="43.01971" lon="0.56087">
        <ele>744</ele>
        <time>2018-03-18T09:14:01.000Z</time>
      </trkpt>
      <trkpt lat="43.01971" lon="0.56087">
        <ele>744</ele>
        <time>2018-03-18T09:14:03.000Z</time>
      </trkpt>
      <trkpt lat="43.01971" lon="0.56087">
        <ele>744</ele>
        <time>2018-03-18T09:14:05.000Z</time>
      </trkpt>
      <trkpt lat="43.01971" lon="0.56087">
        <ele>744</ele>
        <time>2018-03-18T09:14:07.000Z</time>
      </trkpt>
      <trkpt lat="43.01972" lon="0.56087">
        <ele>744</ele>
        <time>2018-03-18T09:14:09.000Z</time>
      </trkpt>
      <trkpt lat="43.01972" lon="0.56087">
        <ele>744</ele>
        <time>2018-03-18T09:14:11.000Z</time>
      </trkpt>
      <trkpt lat="43.01972" lon="0.56087">
        <ele>744</ele>
        <time>2018-03-18T09:14:13.000Z</time>
      </trkpt>
      <trkpt lat="43.01973" lon="0.56087">
        <ele>744</ele>
        <time>2018-03-18T09:14:15.000Z</time>
      </trkpt>
      <trkpt lat="43.01973" lon="0.56086">
        <ele>744</ele>
        <time>2018-03-18T09:14:17.000Z</time>
      </trkpt>
      <trkpt lat="43.01974" lon="0.56086">
        <ele>745</ele>
        <time>2018-03-18T09:14:19.000Z</time>
      </trkpt>
      <trkpt lat="43.01973" lon="0.56086">
        <ele>745</ele>
        <time>2018-03-18T09:14:21.000Z</time>
      </trkpt>
      <trkpt lat="43.01973" lon="0.56086">
        <ele>745</ele>
        <time>2018-03-18T09:14:23.000Z</time>
      </trkpt>
      <trkpt lat="43.01974" lon="0.56086">
        <ele>745</ele>
        <time>2018-03-18T09:14:25.000Z</time>
      </trkpt>
      <trkpt lat="43.01974" lon="0.56086">
        <ele>745</ele>
        <time>2018-03-18T09:14:27.000Z</time>
      </trkpt>
      <trkpt lat="43.01974" lon="0.56086">
        <ele>745</ele>
        <time>2018-03-18T09:14:29.000Z</time>
      </trkpt>
      <trkpt lat="43.01973" lon="0.56086">
        <ele>745</ele>
        <time>2018-03-18T09:14:31.000Z</time>
      </trkpt>
      <trkpt lat="43.01973" lon="0.56085">
        <ele>745</ele>
        <time>2018-03-18T09:14:33.000Z</time>
      </trkpt>
      <trkpt lat="43.01973" lon="0.56085">
        <ele>745</ele>
        <time>2018-03-18T09:14:35.000Z</time>
      </trkpt>
      <trkpt lat="43.01972" lon="0.56085">
        <ele>745</ele>
        <time>2018-03-18T09:14:37.000Z</time>
      </trkpt>
      <trkpt lat="43.01972" lon="0.56085">
        <ele>745</ele>
        <time>2018-03-18T09:14:39.000Z</time>
      </trkpt>
      <trkpt lat="43.01972" lon="0.56086">
        <ele>745</ele>
        <time>2018-03-18T09:14:41.000Z</time>
      </trkpt>
      <trkpt lat="43.01972" lon="0.56085">
        <ele>745</ele>
        <time>2018-03-18T09:14:43.000Z</time>
      </trkpt>
      <trkpt lat="43.01972" lon="0.56085">
        <ele>745</ele>
        <time>2018-03-18T09:14:45.000Z</time>
      </trkpt>
      <trkpt lat="43.01972" lon="0.56084">
        <ele>745</ele>
        <time>2018-03-18T09:14:47.000Z</time>
      </trkpt>
      <trkpt lat="43.01971" lon="0.56084">
        <ele>745</ele>
        <time>2018-03-18T09:14:49.000Z</time>
      </trkpt>
      <trkpt lat="43.01971" lon="0.56084">
        <ele>745</ele>
        <time>2018-03-18T09:14:51.000Z</time>
      </trkpt>
      <trkpt lat="43.01971" lon="0.56084">
        <ele>745</ele>
        <time>2018-03-18T09:14:53.000Z</time>
      </trkpt>
      <trkpt lat="43.0197" lon="0.56084">
        <ele>745</ele>
        <time>2018-03-18T09:14:55.000Z</time>
      </trkpt>
      <trkpt lat="43.0197" lon="0.56084">
        <ele>745</ele>
        <time>2018-03-18T09:14:57.000Z</time>
      </trkpt>
      <trkpt lat="43.01969" lon="0.56084">
        <ele>745</ele>
        <time>2018-03-18T09:14:59.000Z</time>
      </trkpt>
      <trkpt lat="43.01968" lon="0.56084">
        <ele>745</ele>
        <time>2018-03-18T09:15:01.000Z</time>
      </trkpt>
      <trkpt lat="43.01968" lon="0.56084">
        <ele>745</ele>
        <time>2018-03-18T09:15:03.000Z</time>
      </trkpt>
      <trkpt lat="43.01968" lon="0.56084">
        <ele>745</ele>
        <time>2018-03-18T09:15:05.000Z</time>
      </trkpt>
      <trkpt lat="43.01969" lon="0.56084">
        <ele>745</ele>
        <time>2018-03-18T09:15:07.000Z</time>
      </trkpt>
      <trkpt lat="43.0197" lon="0.56084">
        <ele>745</ele>
        <time>2018-03-18T09:15:09.000Z</time>
      </trkpt>
      <trkpt lat="43.0197" lon="0.56084">
        <ele>745</ele>
        <time>2018-03-18T09:15:11.000Z</time>
      </trkpt>
      <trkpt lat="43.0197" lon="0.56084">
        <ele>745</ele>
        <time>2018-03-18T09:15:13.000Z</time>
      </trkpt>
      <trkpt lat="43.01971" lon="0.56083">
        <ele>745</ele>
        <time>2018-03-18T09:15:15.000Z</time>
      </trkpt>
      <trkpt lat="43.01971" lon="0.56083">
        <ele>745</ele>
        <time>2018-03-18T09:15:17.000Z</time>
      </trkpt>
      <trkpt lat="43.01971" lon="0.56083">
        <ele>745</ele>
        <time>2018-03-18T09:15:19.000Z</time>
      </trkpt>
      <trkpt lat="43.01971" lon="0.56083">
        <ele>745</ele>
        <time>2018-03-18T09:15:21.000Z</time>
      </trkpt>
      <trkpt lat="43.01971" lon="0.56083">
        <ele>745</ele>
        <time>2018-03-18T09:15:23.000Z</time>
      </trkpt>
      <trkpt lat="43.01971" lon="0.56083">
        <ele>745</ele>
        <time>2018-03-18T09:15:25.000Z</time>
      </trkpt>
      <trkpt lat="43.01971" lon="0.56082">
        <ele>745</ele>
        <time>2018-03-18T09:15:27.000Z</time>
      </trkpt>
      <trkpt lat="43.01972" lon="0.56082">
        <ele>745</ele>
        <time>2018-03-18T09:15:29.000Z</time>
      </trkpt>
      <trkpt lat="43.01972" lon="0.56083">
        <ele>745</ele>
        <time>2018-03-18T09:15:31.000Z</time>
      </trkpt>
      <trkpt lat="43.01973" lon="0.56083">
        <ele>745</ele>
        <time>2018-03-18T09:15:33.000Z</time>
      </trkpt>
      <trkpt lat="43.01973" lon="0.56083">
        <ele>745</ele>
        <time>2018-03-18T09:15:35.000Z</time>
      </trkpt>
      <trkpt lat="43.01973" lon="0.56083">
        <ele>745</ele>
        <time>2018-03-18T09:15:37.000Z</time>
      </trkpt>
      <trkpt lat="43.01973" lon="0.56083">
        <ele>745</ele>
        <time>2018-03-18T09:15:39.000Z</time>
      </trkpt>
      <trkpt lat="43.01973" lon="0.56084">
        <ele>745</ele>
        <time>2018-03-18T09:15:41.000Z</time>
      </trkpt>
      <trkpt lat="43.01973" lon="0.56084">
        <ele>745</ele>
        <time>2018-03-18T09:15:43.000Z</time>
      </trkpt>
      <trkpt lat="43.01973" lon="0.56084">
        <ele>745</ele>
        <time>2018-03-18T09:15:45.000Z</time>
      </trkpt>
      <trkpt lat="43.01973" lon="0.56084">
        <ele>745</ele>
        <time>2018-03-18T09:15:47.000Z</time>
      </trkpt>
      <trkpt lat="43.01973" lon="0.56084">
        <ele>745</ele>
        <time>2018-03-18T09:15:49.000Z</time>
      </trkpt>
      <trkpt lat="43.01973" lon="0.56084">
        <ele>745</ele>
        <time>2018-03-18T09:15:51.000Z</time>
      </trkpt>
      <trkpt lat="43.01973" lon="0.56084">
        <ele>745</ele>
        <time>2018-03-18T09:15:53.000Z</time>
      </trkpt>
      <trkpt lat="43.01973" lon="0.56084">
        <ele>745</ele>
        <time>2018-03-18T09:15:55.000Z</time>
      </trkpt>
      <trkpt lat="43.01973" lon="0.56084">
        <ele>745</ele>
        <time>2018-03-18T09:15:57.000Z</time>
      </trkpt>
      <trkpt lat="43.01973" lon="0.56084">
        <ele>745</ele>
        <time>2018-03-18T09:15:59.000Z</time>
      </trkpt>
      <trkpt lat="43.01973" lon="0.56084">
        <ele>745</ele>
        <time>2018-03-18T09:16:01.000Z</time>
      </trkpt>
      <trkpt lat="43.01972" lon="0.56084">
        <ele>745</ele>
        <time>2018-03-18T09:16:03.000Z</time>
      </trkpt>
      <trkpt lat="43.01972" lon="0.56084">
        <ele>745</ele>
        <time>2018-03-18T09:16:05.000Z</time>
      </trkpt>
      <trkpt lat="43.01972" lon="0.56084">
        <ele>745</ele>
        <time>2018-03-18T09:16:07.000Z</time>
      </trkpt>
      <trkpt lat="43.01972" lon="0.56084">
        <ele>745</ele>
        <time>2018-03-18T09:16:09.000Z</time>
      </trkpt>
      <trkpt lat="43.01971" lon="0.56085">
        <ele>745</ele>
        <time>2018-03-18T09:16:11.000Z</time>
      </trkpt>
      <trkpt lat="43.01972" lon="0.56085">
        <ele>745</ele>
        <time>2018-03-18T09:16:13.000Z</time>
      </trkpt>
      <trkpt lat="43.01972" lon="0.56085">
        <ele>745</ele>
        <time>2018-03-18T09:16:15.000Z</time>
      </trkpt>
      <trkpt lat="43.01974" lon="0.56085">
        <ele>745</ele>
        <time>2018-03-18T09:16:17.000Z</time>
      </trkpt>
      <trkpt lat="43.01975" lon="0.56085">
        <ele>745</ele>
        <time>2018-03-18T09:16:19.000Z</time>
      </trkpt>
      <trkpt lat="43.01976" lon="0.56085">
        <ele>745</ele>
        <time>2018-03-18T09:16:21.000Z</time>
      </trkpt>
      <trkpt lat="43.01977" lon="0.56085">
        <ele>745</ele>
        <time>2018-03-18T09:16:23.000Z</time>
      </trkpt>
      <trkpt lat="43.01977" lon="0.56085">
        <ele>745</ele>
        <time>2018-03-18T09:16:25.000Z</time>
      </trkpt>
      <trkpt lat="43.01978" lon="0.56084">
        <ele>745</ele>
        <time>2018-03-18T09:16:27.000Z</time>
      </trkpt>
      <trkpt lat="43.01978" lon="0.56083">
        <ele>745</ele>
        <time>2018-03-18T09:16:29.000Z</time>
      </trkpt>
      <trkpt lat="43.01977" lon="0.56083">
        <ele>745</ele>
        <time>2018-03-18T09:16:31.000Z</time>
      </trkpt>
      <trkpt lat="43.01977" lon="0.56084">
        <ele>745</ele>
        <time>2018-03-18T09:16:33.000Z</time>
      </trkpt>
      <trkpt lat="43.01976" lon="0.56085">
        <ele>745</ele>
        <time>2018-03-18T09:16:35.000Z</time>
      </trkpt>
      <trkpt lat="43.01975" lon="0.56086">
        <ele>745</ele>
        <time>2018-03-18T09:16:37.000Z</time>
      </trkpt>
      <trkpt lat="43.01975" lon="0.56086">
        <ele>745</ele>
        <time>2018-03-18T09:16:39.000Z</time>
      </trkpt>
      <trkpt lat="43.01975" lon="0.56087">
        <ele>744</ele>
        <time>2018-03-18T09:16:41.000Z</time>
      </trkpt>
      <trkpt lat="43.01975" lon="0.56087">
        <ele>744</ele>
        <time>2018-03-18T09:16:43.000Z</time>
      </trkpt>
      <trkpt lat="43.01976" lon="0.56087">
        <ele>744</ele>
        <time>2018-03-18T09:16:45.000Z</time>
      </trkpt>
      <trkpt lat="43.01976" lon="0.56087">
        <ele>744</ele>
        <time>2018-03-18T09:16:47.000Z</time>
      </trkpt>
      <trkpt lat="43.01976" lon="0.56086">
        <ele>744</ele>
        <time>2018-03-18T09:16:49.000Z</time>
      </trkpt>
      <trkpt lat="43.01975" lon="0.56086">
        <ele>745</ele>
        <time>2018-03-18T09:16:51.000Z</time>
      </trkpt>
      <trkpt lat="43.01974" lon="0.56085">
        <ele>745</ele>
        <time>2018-03-18T09:16:53.000Z</time>
      </trkpt>
      <trkpt lat="43.01975" lon="0.56085">
        <ele>745</ele>
        <time>2018-03-18T09:16:55.000Z</time>
      </trkpt>
      <trkpt lat="43.01975" lon="0.56085">
        <ele>745</ele>
        <time>2018-03-18T09:16:57.000Z</time>
      </trkpt>
      <trkpt lat="43.01974" lon="0.56084">
        <ele>745</ele>
        <time>2018-03-18T09:16:59.000Z</time>
      </trkpt>
      <trkpt lat="43.01974" lon="0.56084">
        <ele>745</ele>
        <time>2018-03-18T09:17:01.000Z</time>
      </trkpt>
      <trkpt lat="43.01974" lon="0.56084">
        <ele>745</ele>
        <time>2018-03-18T09:17:03.000Z</time>
      </trkpt>
      <trkpt lat="43.01974" lon="0.56084">
        <ele>745</ele>
        <time>2018-03-18T09:17:05.000Z</time>
      </trkpt>
      <trkpt lat="43.01974" lon="0.56083">
        <ele>745</ele>
        <time>2018-03-18T09:17:07.000Z</time>
      </trkpt>
      <trkpt lat="43.01974" lon="0.56083">
        <ele>745</ele>
        <time>2018-03-18T09:17:09.000Z</time>
      </trkpt>
      <trkpt lat="43.01974" lon="0.56083">
        <ele>745</ele>
        <time>2018-03-18T09:17:11.000Z</time>
      </trkpt>
      <trkpt lat="43.01974" lon="0.56084">
        <ele>745</ele>
        <time>2018-03-18T09:17:13.000Z</time>
      </trkpt>
      <trkpt lat="43.01974" lon="0.56084">
        <ele>745</ele>
        <time>2018-03-18T09:17:15.000Z</time>
      </trkpt>
      <trkpt lat="43.01974" lon="0.56084">
        <ele>745</ele>
        <time>2018-03-18T09:17:17.000Z</time>
      </trkpt>
      <trkpt lat="43.01974" lon="0.56085">
        <ele>745</ele>
        <time>2018-03-18T09:17:19.000Z</time>
      </trkpt>
      <trkpt lat="43.01974" lon="0.56084">
        <ele>745</ele>
        <time>2018-03-18T09:17:21.000Z</time>
      </trkpt>
      <trkpt lat="43.01974" lon="0.56084">
        <ele>745</ele>
        <time>2018-03-18T09:17:23.000Z</time>
      </trkpt>
      <trkpt lat="43.01974" lon="0.56084">
        <ele>745</ele>
        <time>2018-03-18T09:17:25.000Z</time>
      </trkpt>
      <trkpt lat="43.01974" lon="0.56084">
        <ele>745</ele>
        <time>2018-03-18T09:17:27.000Z</time>
      </trkpt>
      <trkpt lat="43.01974" lon="0.56083">
        <ele>745</ele>
        <time>2018-03-18T09:17:29.000Z</time>
      </trkpt>
      <trkpt lat="43.01974" lon="0.56082">
        <ele>745</ele>
        <time>2018-03-18T09:17:31.000Z</time>
      </trkpt>
      <trkpt lat="43.01972" lon="0.56082">
        <ele>745</ele>
        <time>2018-03-18T09:17:33.000Z</time>
      </trkpt>
      <trkpt lat="43.01972" lon="0.56082">
        <ele>745</ele>
        <time>2018-03-18T09:17:35.000Z</time>
      </trkpt>
      <trkpt lat="43.01973" lon="0.56082">
        <ele>745</ele>
        <time>2018-03-18T09:17:37.000Z</time>
      </trkpt>
      <trkpt lat="43.01973" lon="0.56082">
        <ele>745</ele>
        <time>2018-03-18T09:17:39.000Z</time>
      </trkpt>
      <trkpt lat="43.01972" lon="0.56082">
        <ele>745</ele>
        <time>2018-03-18T09:17:41.000Z</time>
      </trkpt>
      <trkpt lat="43.01973" lon="0.56082">
        <ele>745</ele>
        <time>2018-03-18T09:17:43.000Z</time>
      </trkpt>
      <trkpt lat="43.01973" lon="0.56082">
        <ele>745</ele>
        <time>2018-03-18T09:17:45.000Z</time>
      </trkpt>
      <trkpt lat="43.01973" lon="0.56082">
        <ele>745</ele>
        <time>2018-03-18T09:17:47.000Z</time>
      </trkpt>
      <trkpt lat="43.01973" lon="0.56083">
        <ele>745</ele>
        <time>2018-03-18T09:17:49.000Z</time>
      </trkpt>
      <trkpt lat="43.01973" lon="0.56082">
        <ele>745</ele>
        <time>2018-03-18T09:17:51.000Z</time>
      </trkpt>
      <trkpt lat="43.01973" lon="0.56082">
        <ele>745</ele>
        <time>2018-03-18T09:17:53.000Z</time>
      </trkpt>
      <trkpt lat="43.01973" lon="0.56083">
        <ele>745</ele>
        <time>2018-03-18T09:17:55.000Z</time>
      </trkpt>
      <trkpt lat="43.01973" lon="0.56083">
        <ele>745</ele>
        <time>2018-03-18T09:17:57.000Z</time>
      </trkpt>
      <trkpt lat="43.01973" lon="0.56083">
        <ele>745</ele>
        <time>2018-03-18T09:17:59.000Z</time>
      </trkpt>
      <trkpt lat="43.01974" lon="0.56083">
        <ele>745</ele>
        <time>2018-03-18T09:18:01.000Z</time>
      </trkpt>
      <trkpt lat="43.01974" lon="0.56084">
        <ele>745</ele>
        <time>2018-03-18T09:18:03.000Z</time>
      </trkpt>
      <trkpt lat="43.01974" lon="0.56083">
        <ele>745</ele>
        <time>2018-03-18T09:18:05.000Z</time>
      </trkpt>
      <trkpt lat="43.01974" lon="0.56083">
        <ele>745</ele>
        <time>2018-03-18T09:18:07.000Z</time>
      </trkpt>
      <trkpt lat="43.01974" lon="0.56083">
        <ele>745</ele>
        <time>2018-03-18T09:18:09.000Z</time>
      </trkpt>
      <trkpt lat="43.01974" lon="0.56083">
        <ele>745</ele>
        <time>2018-03-18T09:18:11.000Z</time>
      </trkpt>
      <trkpt lat="43.01974" lon="0.56083">
        <ele>745</ele>
        <time>2018-03-18T09:18:13.000Z</time>
      </trkpt>
      <trkpt lat="43.01974" lon="0.56083">
        <ele>745</ele>
        <time>2018-03-18T09:18:15.000Z</time>
      </trkpt>
      <trkpt lat="43.01973" lon="0.56083">
        <ele>745</ele>
        <time>2018-03-18T09:18:17.000Z</time>
      </trkpt>
      <trkpt lat="43.01972" lon="0.56083">
        <ele>745</ele>
        <time>2018-03-18T09:18:19.000Z</time>
      </trkpt>
      <trkpt lat="43.01972" lon="0.56083">
        <ele>745</ele>
        <time>2018-03-18T09:18:21.000Z</time>
      </trkpt>
      <trkpt lat="43.01972" lon="0.56083">
        <ele>745</ele>
        <time>2018-03-18T09:18:23.000Z</time>
      </trkpt>
      <trkpt lat="43.01973" lon="0.56083">
        <ele>745</ele>
        <time>2018-03-18T09:18:25.000Z</time>
      </trkpt>
      <trkpt lat="43.01973" lon="0.56083">
        <ele>745</ele>
        <time>2018-03-18T09:18:27.000Z</time>
      </trkpt>
      <trkpt lat="43.01973" lon="0.56083">
        <ele>745</ele>
        <time>2018-03-18T09:18:29.000Z</time>
      </trkpt>
      <trkpt lat="43.01974" lon="0.56083">
        <ele>745</ele>
        <time>2018-03-18T09:18:31.000Z</time>
      </trkpt>
      <trkpt lat="43.01974" lon="0.56084">
        <ele>745</ele>
        <time>2018-03-18T09:18:33.000Z</time>
      </trkpt>
      <trkpt lat="43.01974" lon="0.56084">
        <ele>745</ele>
        <time>2018-03-18T09:18:35.000Z</time>
      </trkpt>
      <trkpt lat="43.01975" lon="0.56084">
        <ele>745</ele>
        <time>2018-03-18T09:18:37.000Z</time>
      </trkpt>
      <trkpt lat="43.01975" lon="0.56084">
        <ele>745</ele>
        <time>2018-03-18T09:18:39.000Z</time>
      </trkpt>
      <trkpt lat="43.01976" lon="0.56084">
        <ele>745</ele>
        <time>2018-03-18T09:18:41.000Z</time>
      </trkpt>
      <trkpt lat="43.01976" lon="0.56084">
        <ele>745</ele>
        <time>2018-03-18T09:18:43.000Z</time>
      </trkpt>
      <trkpt lat="43.01977" lon="0.56085">
        <ele>745</ele>
        <time>2018-03-18T09:18:45.000Z</time>
      </trkpt>
      <trkpt lat="43.01976" lon="0.56085">
        <ele>745</ele>
        <time>2018-03-18T09:18:47.000Z</time>
      </trkpt>
      <trkpt lat="43.01976" lon="0.56085">
        <ele>745</ele>
        <time>2018-03-18T09:18:49.000Z</time>
      </trkpt>
      <trkpt lat="43.01977" lon="0.56085">
        <ele>745</ele>
        <time>2018-03-18T09:18:51.000Z</time>
      </trkpt>
      <trkpt lat="43.01977" lon="0.56085">
        <ele>745</ele>
        <time>2018-03-18T09:18:53.000Z</time>
      </trkpt>
      <trkpt lat="43.01977" lon="0.56085">
        <ele>745</ele>
        <time>2018-03-18T09:18:55.000Z</time>
      </trkpt>
      <trkpt lat="43.01978" lon="0.56085">
        <ele>745</ele>
        <time>2018-03-18T09:18:57.000Z</time>
      </trkpt>
      <trkpt lat="43.01978" lon="0.56085">
        <ele>745</ele>
        <time>2018-03-18T09:18:59.000Z</time>
      </trkpt>
      <trkpt lat="43.01978" lon="0.56085">
        <ele>745</ele>
        <time>2018-03-18T09:19:01.000Z</time>
      </trkpt>
      <trkpt lat="43.01977" lon="0.56086">
        <ele>745</ele>
        <time>2018-03-18T09:19:03.000Z</time>
      </trkpt>
      <trkpt lat="43.01977" lon="0.56086">
        <ele>745</ele>
        <time>2018-03-18T09:19:05.000Z</time>
      </trkpt>
      <trkpt lat="43.01976" lon="0.56086">
        <ele>745</ele>
        <time>2018-03-18T09:19:07.000Z</time>
      </trkpt>
      <trkpt lat="43.01975" lon="0.56085">
        <ele>745</ele>
        <time>2018-03-18T09:19:09.000Z</time>
      </trkpt>
      <trkpt lat="43.01976" lon="0.56085">
        <ele>745</ele>
        <time>2018-03-18T09:19:11.000Z</time>
      </trkpt>
      <trkpt lat="43.01976" lon="0.56084">
        <ele>745</ele>
        <time>2018-03-18T09:19:13.000Z</time>
      </trkpt>
      <trkpt lat="43.01975" lon="0.56083">
        <ele>745</ele>
        <time>2018-03-18T09:19:15.000Z</time>
      </trkpt>
      <trkpt lat="43.01975" lon="0.56083">
        <ele>745</ele>
        <time>2018-03-18T09:19:17.000Z</time>
      </trkpt>
      <trkpt lat="43.01975" lon="0.56083">
        <ele>745</ele>
        <time>2018-03-18T09:19:19.000Z</time>
      </trkpt>
      <trkpt lat="43.01975" lon="0.56084">
        <ele>745</ele>
        <time>2018-03-18T09:19:21.000Z</time>
      </trkpt>
      <trkpt lat="43.01975" lon="0.56084">
        <ele>745</ele>
        <time>2018-03-18T09:19:23.000Z</time>
      </trkpt>
      <trkpt lat="43.01975" lon="0.56085">
        <ele>745</ele>
        <time>2018-03-18T09:19:25.000Z</time>
      </trkpt>
      <trkpt lat="43.01974" lon="0.56086">
        <ele>745</ele>
        <time>2018-03-18T09:19:27.000Z</time>
      </trkpt>
      <trkpt lat="43.01974" lon="0.56086">
        <ele>745</ele>
        <time>2018-03-18T09:19:29.000Z</time>
      </trkpt>
      <trkpt lat="43.01975" lon="0.56086">
        <ele>744</ele>
        <time>2018-03-18T09:19:31.000Z</time>
      </trkpt>
      <trkpt lat="43.01975" lon="0.56087">
        <ele>744</ele>
        <time>2018-03-18T09:19:33.000Z</time>
      </trkpt>
      <trkpt lat="43.01975" lon="0.56087">
        <ele>744</ele>
        <time>2018-03-18T09:19:35.000Z</time>
      </trkpt>
      <trkpt lat="43.01975" lon="0.56087">
        <ele>744</ele>
        <time>2018-03-18T09:19:37.000Z</time>
      </trkpt>
      <trkpt lat="43.01974" lon="0.56087">
        <ele>744</ele>
        <time>2018-03-18T09:19:39.000Z</time>
      </trkpt>
      <trkpt lat="43.01974" lon="0.56087">
        <ele>744</ele>
        <time>2018-03-18T09:19:41.000Z</time>
      </trkpt>
      <trkpt lat="43.01974" lon="0.56088">
        <ele>744</ele>
        <time>2018-03-18T09:19:43.000Z</time>
      </trkpt>
      <trkpt lat="43.01972" lon="0.56088">
        <ele>744</ele>
        <time>2018-03-18T09:19:45.000Z</time>
      </trkpt>
      <trkpt lat="43.01971" lon="0.56087">
        <ele>744</ele>
        <time>2018-03-18T09:19:47.000Z</time>
      </trkpt>
      <trkpt lat="43.01971" lon="0.56086">
        <ele>745</ele>
        <time>2018-03-18T09:19:49.000Z</time>
      </trkpt>
      <trkpt lat="43.0197" lon="0.56084">
        <ele>745</ele>
        <time>2018-03-18T09:19:51.000Z</time>
      </trkpt>
      <trkpt lat="43.01969" lon="0.56083">
        <ele>745</ele>
        <time>2018-03-18T09:19:53.000Z</time>
      </trkpt>
      <trkpt lat="43.01968" lon="0.56081">
        <ele>746</ele>
        <time>2018-03-18T09:19:55.000Z</time>
      </trkpt>
      <trkpt lat="43.01967" lon="0.56078">
        <ele>746</ele>
        <time>2018-03-18T09:19:57.000Z</time>
      </trkpt>
      <trkpt lat="43.01967" lon="0.56075">
        <ele>747</ele>
        <time>2018-03-18T09:19:59.000Z</time>
      </trkpt>
      <trkpt lat="43.01967" lon="0.56073">
        <ele>747</ele>
        <time>2018-03-18T09:20:01.000Z</time>
      </trkpt>
      <trkpt lat="43.01967" lon="0.5607">
        <ele>748</ele>
        <time>2018-03-18T09:20:03.000Z</time>
      </trkpt>
      <trkpt lat="43.01966" lon="0.56067">
        <ele>748</ele>
        <time>2018-03-18T09:20:05.000Z</time>
      </trkpt>
      <trkpt lat="43.01966" lon="0.56065">
        <ele>749</ele>
        <time>2018-03-18T09:20:07.000Z</time>
      </trkpt>
      <trkpt lat="43.01965" lon="0.56062">
        <ele>749</ele>
        <time>2018-03-18T09:20:09.000Z</time>
      </trkpt>
      <trkpt lat="43.01964" lon="0.56059">
        <ele>750</ele>
        <time>2018-03-18T09:20:11.000Z</time>
      </trkpt>
      <trkpt lat="43.01964" lon="0.56057">
        <ele>750</ele>
        <time>2018-03-18T09:20:13.000Z</time>
      </trkpt>
      <trkpt lat="43.01963" lon="0.56055">
        <ele>750</ele>
        <time>2018-03-18T09:20:15.000Z</time>
      </trkpt>
      <trkpt lat="43.01963" lon="0.56053">
        <ele>751</ele>
        <time>2018-03-18T09:20:17.000Z</time>
      </trkpt>
      <trkpt lat="43.01963" lon="0.56052">
        <ele>751</ele>
        <time>2018-03-18T09:20:19.000Z</time>
      </trkpt>
      <trkpt lat="43.01964" lon="0.5605">
        <ele>751</ele>
        <time>2018-03-18T09:20:21.000Z</time>
      </trkpt>
      <trkpt lat="43.01964" lon="0.56048">
        <ele>752</ele>
        <time>2018-03-18T09:20:23.000Z</time>
      </trkpt>
      <trkpt lat="43.01964" lon="0.56046">
        <ele>752</ele>
        <time>2018-03-18T09:20:25.000Z</time>
      </trkpt>
      <trkpt lat="43.01964" lon="0.56044">
        <ele>753</ele>
        <time>2018-03-18T09:20:27.000Z</time>
      </trkpt>
      <trkpt lat="43.01963" lon="0.56042">
        <ele>753</ele>
        <time>2018-03-18T09:20:29.000Z</time>
      </trkpt>
      <trkpt lat="43.01962" lon="0.5604">
        <ele>753</ele>
        <time>2018-03-18T09:20:31.000Z</time>
      </trkpt>
      <trkpt lat="43.01962" lon="0.56038">
        <ele>754</ele>
        <time>2018-03-18T09:20:33.000Z</time>
      </trkpt>
      <trkpt lat="43.01962" lon="0.56035">
        <ele>755</ele>
        <time>2018-03-18T09:20:35.000Z</time>
      </trkpt>
      <trkpt lat="43.01961" lon="0.56033">
        <ele>755</ele>
        <time>2018-03-18T09:20:37.000Z</time>
      </trkpt>
      <trkpt lat="43.0196" lon="0.56031">
        <ele>755</ele>
        <time>2018-03-18T09:20:39.000Z</time>
      </trkpt>
      <trkpt lat="43.0196" lon="0.56029">
        <ele>756</ele>
        <time>2018-03-18T09:20:41.000Z</time>
      </trkpt>
      <trkpt lat="43.01959" lon="0.56027">
        <ele>756</ele>
        <time>2018-03-18T09:20:43.000Z</time>
      </trkpt>
      <trkpt lat="43.01959" lon="0.56026">
        <ele>757</ele>
        <time>2018-03-18T09:20:45.000Z</time>
      </trkpt>
      <trkpt lat="43.01958" lon="0.56025">
        <ele>757</ele>
        <time>2018-03-18T09:20:47.000Z</time>
      </trkpt>
      <trkpt lat="43.01958" lon="0.56023">
        <ele>757</ele>
        <time>2018-03-18T09:20:49.000Z</time>
      </trkpt>
      <trkpt lat="43.01957" lon="0.56022">
        <ele>758</ele>
        <time>2018-03-18T09:20:51.000Z</time>
      </trkpt>
      <trkpt lat="43.01956" lon="0.5602">
        <ele>758</ele>
        <time>2018-03-18T09:20:53.000Z</time>
      </trkpt>
      <trkpt lat="43.01955" lon="0.56019">
        <ele>758</ele>
        <time>2018-03-18T09:20:55.000Z</time>
      </trkpt>
      <trkpt lat="43.01954" lon="0.56018">
        <ele>758</ele>
        <time>2018-03-18T09:20:57.000Z</time>
      </trkpt>
      <trkpt lat="43.01954" lon="0.56016">
        <ele>759</ele>
        <time>2018-03-18T09:20:59.000Z</time>
      </trkpt>
      <trkpt lat="43.01953" lon="0.56014">
        <ele>759</ele>
        <time>2018-03-18T09:21:01.000Z</time>
      </trkpt>
      <trkpt lat="43.01953" lon="0.56013">
        <ele>760</ele>
        <time>2018-03-18T09:21:03.000Z</time>
      </trkpt>
      <trkpt lat="43.01954" lon="0.56013">
        <ele>760</ele>
        <time>2018-03-18T09:21:05.000Z</time>
      </trkpt>
      <trkpt lat="43.01954" lon="0.56012">
        <ele>760</ele>
        <time>2018-03-18T09:21:07.000Z</time>
      </trkpt>
      <trkpt lat="43.01955" lon="0.56012">
        <ele>760</ele>
        <time>2018-03-18T09:21:09.000Z</time>
      </trkpt>
      <trkpt lat="43.01956" lon="0.56012">
        <ele>760</ele>
        <time>2018-03-18T09:21:11.000Z</time>
      </trkpt>
      <trkpt lat="43.01955" lon="0.56012">
        <ele>760</ele>
        <time>2018-03-18T09:21:13.000Z</time>
      </trkpt>
      <trkpt lat="43.01955" lon="0.5601">
        <ele>760</ele>
        <time>2018-03-18T09:21:15.000Z</time>
      </trkpt>
      <trkpt lat="43.01955" lon="0.56008">
        <ele>761</ele>
        <time>2018-03-18T09:21:17.000Z</time>
      </trkpt>
      <trkpt lat="43.01954" lon="0.56006">
        <ele>761</ele>
        <time>2018-03-18T09:21:19.000Z</time>
      </trkpt>
      <trkpt lat="43.01954" lon="0.56005">
        <ele>761</ele>
        <time>2018-03-18T09:21:21.000Z</time>
      </trkpt>
      <trkpt lat="43.01954" lon="0.56003">
        <ele>762</ele>
        <time>2018-03-18T09:21:23.000Z</time>
      </trkpt>
      <trkpt lat="43.01954" lon="0.56002">
        <ele>762</ele>
        <time>2018-03-18T09:21:25.000Z</time>
      </trkpt>
      <trkpt lat="43.01954" lon="0.56001">
        <ele>762</ele>
        <time>2018-03-18T09:21:27.000Z</time>
      </trkpt>
      <trkpt lat="43.01954" lon="0.56">
        <ele>762</ele>
        <time>2018-03-18T09:21:29.000Z</time>
      </trkpt>
      <trkpt lat="43.01954" lon="0.55999">
        <ele>763</ele>
        <time>2018-03-18T09:21:31.000Z</time>
      </trkpt>
      <trkpt lat="43.01953" lon="0.55997">
        <ele>763</ele>
        <time>2018-03-18T09:21:33.000Z</time>
      </trkpt>
      <trkpt lat="43.01953" lon="0.55995">
        <ele>763</ele>
        <time>2018-03-18T09:21:35.000Z</time>
      </trkpt>
      <trkpt lat="43.01952" lon="0.55994">
        <ele>764</ele>
        <time>2018-03-18T09:21:37.000Z</time>
      </trkpt>
      <trkpt lat="43.01952" lon="0.55992">
        <ele>764</ele>
        <time>2018-03-18T09:21:39.000Z</time>
      </trkpt>
      <trkpt lat="43.01951" lon="0.55991">
        <ele>764</ele>
        <time>2018-03-18T09:21:41.000Z</time>
      </trkpt>
      <trkpt lat="43.01951" lon="0.5599">
        <ele>764</ele>
        <time>2018-03-18T09:21:43.000Z</time>
      </trkpt>
      <trkpt lat="43.01951" lon="0.55989">
        <ele>764</ele>
        <time>2018-03-18T09:21:45.000Z</time>
      </trkpt>
      <trkpt lat="43.0195" lon="0.55987">
        <ele>764</ele>
        <time>2018-03-18T09:21:47.000Z</time>
      </trkpt>
      <trkpt lat="43.0195" lon="0.55986">
        <ele>765</ele>
        <time>2018-03-18T09:21:49.000Z</time>
      </trkpt>
      <trkpt lat="43.01949" lon="0.55984">
        <ele>765</ele>
        <time>2018-03-18T09:21:51.000Z</time>
      </trkpt>
      <trkpt lat="43.01948" lon="0.55983">
        <ele>765</ele>
        <time>2018-03-18T09:21:53.000Z</time>
      </trkpt>
      <trkpt lat="43.01948" lon="0.55981">
        <ele>765</ele>
        <time>2018-03-18T09:21:55.000Z</time>
      </trkpt>
      <trkpt lat="43.01948" lon="0.55979">
        <ele>765</ele>
        <time>2018-03-18T09:21:57.000Z</time>
      </trkpt>
      <trkpt lat="43.01948" lon="0.55977">
        <ele>765</ele>
        <time>2018-03-18T09:21:59.000Z</time>
      </trkpt>
      <trkpt lat="43.01948" lon="0.55976">
        <ele>766</ele>
        <time>2018-03-18T09:22:01.000Z</time>
      </trkpt>
      <trkpt lat="43.01948" lon="0.55974">
        <ele>766</ele>
        <time>2018-03-18T09:22:03.000Z</time>
      </trkpt>
      <trkpt lat="43.01948" lon="0.55972">
        <ele>766</ele>
        <time>2018-03-18T09:22:05.000Z</time>
      </trkpt>
      <trkpt lat="43.01947" lon="0.5597">
        <ele>766</ele>
        <time>2018-03-18T09:22:07.000Z</time>
      </trkpt>
      <trkpt lat="43.01947" lon="0.55969">
        <ele>766</ele>
        <time>2018-03-18T09:22:09.000Z</time>
      </trkpt>
      <trkpt lat="43.01947" lon="0.55967">
        <ele>766</ele>
        <time>2018-03-18T09:22:11.000Z</time>
      </trkpt>
      <trkpt lat="43.01946" lon="0.55966">
        <ele>767</ele>
        <time>2018-03-18T09:22:13.000Z</time>
      </trkpt>
      <trkpt lat="43.01946" lon="0.55965">
        <ele>767</ele>
        <time>2018-03-18T09:22:15.000Z</time>
      </trkpt>
      <trkpt lat="43.01945" lon="0.55963">
        <ele>767</ele>
        <time>2018-03-18T09:22:17.000Z</time>
      </trkpt>
      <trkpt lat="43.01945" lon="0.55962">
        <ele>768</ele>
        <time>2018-03-18T09:22:19.000Z</time>
      </trkpt>
      <trkpt lat="43.01945" lon="0.55961">
        <ele>768</ele>
        <time>2018-03-18T09:22:21.000Z</time>
      </trkpt>
      <trkpt lat="43.01944" lon="0.55959">
        <ele>768</ele>
        <time>2018-03-18T09:22:23.000Z</time>
      </trkpt>
      <trkpt lat="43.01944" lon="0.55958">
        <ele>769</ele>
        <time>2018-03-18T09:22:25.000Z</time>
      </trkpt>
      <trkpt lat="43.01945" lon="0.55956">
        <ele>769</ele>
        <time>2018-03-18T09:22:27.000Z</time>
      </trkpt>
      <trkpt lat="43.01945" lon="0.55955">
        <ele>769</ele>
        <time>2018-03-18T09:22:29.000Z</time>
      </trkpt>
      <trkpt lat="43.01944" lon="0.55954">
        <ele>770</ele>
        <time>2018-03-18T09:22:31.000Z</time>
      </trkpt>
      <trkpt lat="43.01944" lon="0.55952">
        <ele>770</ele>
        <time>2018-03-18T09:22:33.000Z</time>
      </trkpt>
      <trkpt lat="43.01945" lon="0.5595">
        <ele>770</ele>
        <time>2018-03-18T09:22:35.000Z</time>
      </trkpt>
      <trkpt lat="43.01944" lon="0.55949">
        <ele>771</ele>
        <time>2018-03-18T09:22:37.000Z</time>
      </trkpt>
      <trkpt lat="43.01944" lon="0.55948">
        <ele>771</ele>
        <time>2018-03-18T09:22:39.000Z</time>
      </trkpt>
      <trkpt lat="43.01944" lon="0.55947">
        <ele>771</ele>
        <time>2018-03-18T09:22:41.000Z</time>
      </trkpt>
      <trkpt lat="43.01944" lon="0.55946">
        <ele>771</ele>
        <time>2018-03-18T09:22:43.000Z</time>
      </trkpt>
      <trkpt lat="43.01943" lon="0.55944">
        <ele>772</ele>
        <time>2018-03-18T09:22:45.000Z</time>
      </trkpt>
      <trkpt lat="43.01943" lon="0.55943">
        <ele>772</ele>
        <time>2018-03-18T09:22:47.000Z</time>
      </trkpt>
      <trkpt lat="43.01942" lon="0.55941">
        <ele>773</ele>
        <time>2018-03-18T09:22:49.000Z</time>
      </trkpt>
      <trkpt lat="43.01943" lon="0.5594">
        <ele>773</ele>
        <time>2018-03-18T09:22:51.000Z</time>
      </trkpt>
      <trkpt lat="43.01944" lon="0.55939">
        <ele>773</ele>
        <time>2018-03-18T09:22:53.000Z</time>
      </trkpt>
      <trkpt lat="43.01944" lon="0.55938">
        <ele>773</ele>
        <time>2018-03-18T09:22:55.000Z</time>
      </trkpt>
      <trkpt lat="43.01944" lon="0.55937">
        <ele>773</ele>
        <time>2018-03-18T09:22:57.000Z</time>
      </trkpt>
      <trkpt lat="43.01944" lon="0.55935">
        <ele>774</ele>
        <time>2018-03-18T09:22:59.000Z</time>
      </trkpt>
      <trkpt lat="43.01944" lon="0.55934">
        <ele>774</ele>
        <time>2018-03-18T09:23:01.000Z</time>
      </trkpt>
      <trkpt lat="43.01943" lon="0.55932">
        <ele>774</ele>
        <time>2018-03-18T09:23:03.000Z</time>
      </trkpt>
      <trkpt lat="43.01942" lon="0.55931">
        <ele>775</ele>
        <time>2018-03-18T09:23:05.000Z</time>
      </trkpt>
      <trkpt lat="43.01942" lon="0.55931">
        <ele>775</ele>
        <time>2018-03-18T09:23:07.000Z</time>
      </trkpt>
      <trkpt lat="43.01943" lon="0.55929">
        <ele>775</ele>
        <time>2018-03-18T09:23:09.000Z</time>
      </trkpt>
      <trkpt lat="43.01942" lon="0.55928">
        <ele>776</ele>
        <time>2018-03-18T09:23:11.000Z</time>
      </trkpt>
      <trkpt lat="43.01942" lon="0.55926">
        <ele>776</ele>
        <time>2018-03-18T09:23:13.000Z</time>
      </trkpt>
      <trkpt lat="43.01941" lon="0.55924">
        <ele>777</ele>
        <time>2018-03-18T09:23:15.000Z</time>
      </trkpt>
      <trkpt lat="43.01941" lon="0.55923">
        <ele>777</ele>
        <time>2018-03-18T09:23:17.000Z</time>
      </trkpt>
      <trkpt lat="43.01941" lon="0.55921">
        <ele>777</ele>
        <time>2018-03-18T09:23:19.000Z</time>
      </trkpt>
      <trkpt lat="43.01941" lon="0.55921">
        <ele>777</ele>
        <time>2018-03-18T09:23:21.000Z</time>
      </trkpt>
      <trkpt lat="43.0194" lon="0.55919">
        <ele>778</ele>
        <time>2018-03-18T09:23:23.000Z</time>
      </trkpt>
      <trkpt lat="43.01939" lon="0.55918">
        <ele>778</ele>
        <time>2018-03-18T09:23:25.000Z</time>
      </trkpt>
      <trkpt lat="43.01939" lon="0.55917">
        <ele>779</ele>
        <time>2018-03-18T09:23:27.000Z</time>
      </trkpt>
      <trkpt lat="43.01938" lon="0.55916">
        <ele>779</ele>
        <time>2018-03-18T09:23:29.000Z</time>
      </trkpt>
      <trkpt lat="43.01938" lon="0.55916">
        <ele>779</ele>
        <time>2018-03-18T09:23:31.000Z</time>
      </trkpt>
      <trkpt lat="43.01937" lon="0.55914">
        <ele>779</ele>
        <time>2018-03-18T09:23:33.000Z</time>
      </trkpt>
      <trkpt lat="43.01937" lon="0.55914">
        <ele>780</ele>
        <time>2018-03-18T09:23:35.000Z</time>
      </trkpt>
      <trkpt lat="43.01937" lon="0.55912">
        <ele>780</ele>
        <time>2018-03-18T09:23:37.000Z</time>
      </trkpt>
      <trkpt lat="43.01937" lon="0.55911">
        <ele>780</ele>
        <time>2018-03-18T09:23:39.000Z</time>
      </trkpt>
      <trkpt lat="43.01936" lon="0.55909">
        <ele>781</ele>
        <time>2018-03-18T09:23:41.000Z</time>
      </trkpt>
      <trkpt lat="43.01936" lon="0.55907">
        <ele>781</ele>
        <time>2018-03-18T09:23:43.000Z</time>
      </trkpt>
      <trkpt lat="43.01936" lon="0.55906">
        <ele>781</ele>
        <time>2018-03-18T09:23:45.000Z</time>
      </trkpt>
      <trkpt lat="43.01936" lon="0.55905">
        <ele>782</ele>
        <time>2018-03-18T09:23:47.000Z</time>
      </trkpt>
      <trkpt lat="43.01935" lon="0.55903">
        <ele>782</ele>
        <time>2018-03-18T09:23:49.000Z</time>
      </trkpt>
      <trkpt lat="43.01934" lon="0.55901">
        <ele>783</ele>
        <time>2018-03-18T09:23:51.000Z</time>
      </trkpt>
      <trkpt lat="43.01933" lon="0.55901">
        <ele>783</ele>
        <time>2018-03-18T09:23:53.000Z</time>
      </trkpt>
      <trkpt lat="43.01933" lon="0.559">
        <ele>783</ele>
        <time>2018-03-18T09:23:55.000Z</time>
      </trkpt>
      <trkpt lat="43.01932" lon="0.55898">
        <ele>784</ele>
        <time>2018-03-18T09:23:57.000Z</time>
      </trkpt>
      <trkpt lat="43.01932" lon="0.55897">
        <ele>784</ele>
        <time>2018-03-18T09:23:59.000Z</time>
      </trkpt>
      <trkpt lat="43.01931" lon="0.55896">
        <ele>784</ele>
        <time>2018-03-18T09:24:01.000Z</time>
      </trkpt>
      <trkpt lat="43.01931" lon="0.55895">
        <ele>785</ele>
        <time>2018-03-18T09:24:03.000Z</time>
      </trkpt>
      <trkpt lat="43.01931" lon="0.55893">
        <ele>785</ele>
        <time>2018-03-18T09:24:05.000Z</time>
      </trkpt>
      <trkpt lat="43.01931" lon="0.55892">
        <ele>785</ele>
        <time>2018-03-18T09:24:07.000Z</time>
      </trkpt>
      <trkpt lat="43.0193" lon="0.5589">
        <ele>786</ele>
        <time>2018-03-18T09:24:09.000Z</time>
      </trkpt>
      <trkpt lat="43.0193" lon="0.55889">
        <ele>786</ele>
        <time>2018-03-18T09:24:11.000Z</time>
      </trkpt>
      <trkpt lat="43.0193" lon="0.55887">
        <ele>786</ele>
        <time>2018-03-18T09:24:13.000Z</time>
      </trkpt>
      <trkpt lat="43.01929" lon="0.55886">
        <ele>787</ele>
        <time>2018-03-18T09:24:15.000Z</time>
      </trkpt>
      <trkpt lat="43.01927" lon="0.55885">
        <ele>787</ele>
        <time>2018-03-18T09:24:17.000Z</time>
      </trkpt>
      <trkpt lat="43.01927" lon="0.55884">
        <ele>788</ele>
        <time>2018-03-18T09:24:19.000Z</time>
      </trkpt>
      <trkpt lat="43.01926" lon="0.55882">
        <ele>788</ele>
        <time>2018-03-18T09:24:21.000Z</time>
      </trkpt>
      <trkpt lat="43.01926" lon="0.55881">
        <ele>789</ele>
        <time>2018-03-18T09:24:23.000Z</time>
      </trkpt>
      <trkpt lat="43.01925" lon="0.5588">
        <ele>789</ele>
        <time>2018-03-18T09:24:25.000Z</time>
      </trkpt>
      <trkpt lat="43.01924" lon="0.55878">
        <ele>789</ele>
        <time>2018-03-18T09:24:27.000Z</time>
      </trkpt>
      <trkpt lat="43.01923" lon="0.55877">
        <ele>790</ele>
        <time>2018-03-18T09:24:29.000Z</time>
      </trkpt>
      <trkpt lat="43.01923" lon="0.55876">
        <ele>790</ele>
        <time>2018-03-18T09:24:31.000Z</time>
      </trkpt>
      <trkpt lat="43.01922" lon="0.55875">
        <ele>790</ele>
        <time>2018-03-18T09:24:33.000Z</time>
      </trkpt>
      <trkpt lat="43.01921" lon="0.55874">
        <ele>790</ele>
        <time>2018-03-18T09:24:35.000Z</time>
      </trkpt>
      <trkpt lat="43.0192" lon="0.55873">
        <ele>791</ele>
        <time>2018-03-18T09:24:37.000Z</time>
      </trkpt>
      <trkpt lat="43.0192" lon="0.55872">
        <ele>791</ele>
        <time>2018-03-18T09:24:39.000Z</time>
      </trkpt>
      <trkpt lat="43.01919" lon="0.55871">
        <ele>791</ele>
        <time>2018-03-18T09:24:41.000Z</time>
      </trkpt>
      <trkpt lat="43.01918" lon="0.5587">
        <ele>791</ele>
        <time>2018-03-18T09:24:43.000Z</time>
      </trkpt>
      <trkpt lat="43.01918" lon="0.55869">
        <ele>791</ele>
        <time>2018-03-18T09:24:45.000Z</time>
      </trkpt>
      <trkpt lat="43.01917" lon="0.55868">
        <ele>792</ele>
        <time>2018-03-18T09:24:47.000Z</time>
      </trkpt>
      <trkpt lat="43.01916" lon="0.55866">
        <ele>792</ele>
        <time>2018-03-18T09:24:49.000Z</time>
      </trkpt>
      <trkpt lat="43.01915" lon="0.55865">
        <ele>792</ele>
        <time>2018-03-18T09:24:51.000Z</time>
      </trkpt>
      <trkpt lat="43.01915" lon="0.55864">
        <ele>792</ele>
        <time>2018-03-18T09:24:53.000Z</time>
      </trkpt>
      <trkpt lat="43.01914" lon="0.55864">
        <ele>792</ele>
        <time>2018-03-18T09:24:55.000Z</time>
      </trkpt>
      <trkpt lat="43.01913" lon="0.55863">
        <ele>793</ele>
        <time>2018-03-18T09:24:57.000Z</time>
      </trkpt>
      <trkpt lat="43.01912" lon="0.55863">
        <ele>793</ele>
        <time>2018-03-18T09:24:59.000Z</time>
      </trkpt>
      <trkpt lat="43.01913" lon="0.55862">
        <ele>793</ele>
        <time>2018-03-18T09:25:01.000Z</time>
      </trkpt>
      <trkpt lat="43.01912" lon="0.5586">
        <ele>793</ele>
        <time>2018-03-18T09:25:03.000Z</time>
      </trkpt>
      <trkpt lat="43.01911" lon="0.55858">
        <ele>794</ele>
        <time>2018-03-18T09:25:05.000Z</time>
      </trkpt>
      <trkpt lat="43.01911" lon="0.55857">
        <ele>794</ele>
        <time>2018-03-18T09:25:07.000Z</time>
      </trkpt>
      <trkpt lat="43.01911" lon="0.55854">
        <ele>794</ele>
        <time>2018-03-18T09:25:09.000Z</time>
      </trkpt>
      <trkpt lat="43.01911" lon="0.55854">
        <ele>795</ele>
        <time>2018-03-18T09:25:11.000Z</time>
      </trkpt>
      <trkpt lat="43.01911" lon="0.55854">
        <ele>795</ele>
        <time>2018-03-18T09:25:13.000Z</time>
      </trkpt>
      <trkpt lat="43.01911" lon="0.55854">
        <ele>795</ele>
        <time>2018-03-18T09:25:15.000Z</time>
      </trkpt>
      <trkpt lat="43.0191" lon="0.55854">
        <ele>795</ele>
        <time>2018-03-18T09:25:17.000Z</time>
      </trkpt>
      <trkpt lat="43.0191" lon="0.55853">
        <ele>795</ele>
        <time>2018-03-18T09:25:19.000Z</time>
      </trkpt>
      <trkpt lat="43.0191" lon="0.55851">
        <ele>795</ele>
        <time>2018-03-18T09:25:21.000Z</time>
      </trkpt>
      <trkpt lat="43.0191" lon="0.5585">
        <ele>795</ele>
        <time>2018-03-18T09:25:23.000Z</time>
      </trkpt>
      <trkpt lat="43.01909" lon="0.55849">
        <ele>796</ele>
        <time>2018-03-18T09:25:25.000Z</time>
      </trkpt>
      <trkpt lat="43.01909" lon="0.55848">
        <ele>796</ele>
        <time>2018-03-18T09:25:27.000Z</time>
      </trkpt>
      <trkpt lat="43.01908" lon="0.55846">
        <ele>796</ele>
        <time>2018-03-18T09:25:29.000Z</time>
      </trkpt>
      <trkpt lat="43.01909" lon="0.55844">
        <ele>797</ele>
        <time>2018-03-18T09:25:31.000Z</time>
      </trkpt>
      <trkpt lat="43.01909" lon="0.55843">
        <ele>797</ele>
        <time>2018-03-18T09:25:33.000Z</time>
      </trkpt>
      <trkpt lat="43.01908" lon="0.55841">
        <ele>797</ele>
        <time>2018-03-18T09:25:35.000Z</time>
      </trkpt>
      <trkpt lat="43.01907" lon="0.5584">
        <ele>797</ele>
        <time>2018-03-18T09:25:37.000Z</time>
      </trkpt>
      <trkpt lat="43.01907" lon="0.55838">
        <ele>798</ele>
        <time>2018-03-18T09:25:39.000Z</time>
      </trkpt>
      <trkpt lat="43.01907" lon="0.55836">
        <ele>798</ele>
        <time>2018-03-18T09:25:41.000Z</time>
      </trkpt>
      <trkpt lat="43.01907" lon="0.55835">
        <ele>799</ele>
        <time>2018-03-18T09:25:43.000Z</time>
      </trkpt>
      <trkpt lat="43.01906" lon="0.55833">
        <ele>799</ele>
        <time>2018-03-18T09:25:45.000Z</time>
      </trkpt>
      <trkpt lat="43.01906" lon="0.55831">
        <ele>799</ele>
        <time>2018-03-18T09:25:47.000Z</time>
      </trkpt>
      <trkpt lat="43.01905" lon="0.5583">
        <ele>800</ele>
        <time>2018-03-18T09:25:49.000Z</time>
      </trkpt>
      <trkpt lat="43.01904" lon="0.5583">
        <ele>800</ele>
        <time>2018-03-18T09:25:51.000Z</time>
      </trkpt>
      <trkpt lat="43.01903" lon="0.55829">
        <ele>800</ele>
        <time>2018-03-18T09:25:53.000Z</time>
      </trkpt>
      <trkpt lat="43.01902" lon="0.55829">
        <ele>800</ele>
        <time>2018-03-18T09:25:55.000Z</time>
      </trkpt>
      <trkpt lat="43.019" lon="0.55828">
        <ele>800</ele>
        <time>2018-03-18T09:25:57.000Z</time>
      </trkpt>
      <trkpt lat="43.019" lon="0.55827">
        <ele>800</ele>
        <time>2018-03-18T09:25:59.000Z</time>
      </trkpt>
      <trkpt lat="43.01899" lon="0.55826">
        <ele>800</ele>
        <time>2018-03-18T09:26:01.000Z</time>
      </trkpt>
      <trkpt lat="43.01898" lon="0.55825">
        <ele>801</ele>
        <time>2018-03-18T09:26:03.000Z</time>
      </trkpt>
      <trkpt lat="43.01898" lon="0.55825">
        <ele>801</ele>
        <time>2018-03-18T09:26:05.000Z</time>
      </trkpt>
      <trkpt lat="43.01897" lon="0.55825">
        <ele>801</ele>
        <time>2018-03-18T09:26:07.000Z</time>
      </trkpt>
      <trkpt lat="43.01897" lon="0.55824">
        <ele>801</ele>
        <time>2018-03-18T09:26:09.000Z</time>
      </trkpt>
      <trkpt lat="43.01895" lon="0.55824">
        <ele>801</ele>
        <time>2018-03-18T09:26:11.000Z</time>
      </trkpt>
      <trkpt lat="43.01895" lon="0.55823">
        <ele>801</ele>
        <time>2018-03-18T09:26:13.000Z</time>
      </trkpt>
      <trkpt lat="43.01894" lon="0.55822">
        <ele>801</ele>
        <time>2018-03-18T09:26:15.000Z</time>
      </trkpt>
      <trkpt lat="43.01893" lon="0.55821">
        <ele>802</ele>
        <time>2018-03-18T09:26:17.000Z</time>
      </trkpt>
      <trkpt lat="43.01892" lon="0.5582">
        <ele>802</ele>
        <time>2018-03-18T09:26:19.000Z</time>
      </trkpt>
      <trkpt lat="43.01891" lon="0.55819">
        <ele>802</ele>
        <time>2018-03-18T09:26:21.000Z</time>
      </trkpt>
      <trkpt lat="43.0189" lon="0.55818">
        <ele>802</ele>
        <time>2018-03-18T09:26:23.000Z</time>
      </trkpt>
      <trkpt lat="43.01889" lon="0.55818">
        <ele>802</ele>
        <time>2018-03-18T09:26:25.000Z</time>
      </trkpt>
      <trkpt lat="43.01888" lon="0.55817">
        <ele>803</ele>
        <time>2018-03-18T09:26:27.000Z</time>
      </trkpt>
      <trkpt lat="43.01887" lon="0.55816">
        <ele>803</ele>
        <time>2018-03-18T09:26:29.000Z</time>
      </trkpt>
      <trkpt lat="43.01886" lon="0.55815">
        <ele>803</ele>
        <time>2018-03-18T09:26:31.000Z</time>
      </trkpt>
      <trkpt lat="43.01885" lon="0.55814">
        <ele>803</ele>
        <time>2018-03-18T09:26:33.000Z</time>
      </trkpt>
      <trkpt lat="43.01884" lon="0.55813">
        <ele>803</ele>
        <time>2018-03-18T09:26:35.000Z</time>
      </trkpt>
      <trkpt lat="43.01883" lon="0.55812">
        <ele>804</ele>
        <time>2018-03-18T09:26:37.000Z</time>
      </trkpt>
      <trkpt lat="43.01882" lon="0.55811">
        <ele>804</ele>
        <time>2018-03-18T09:26:39.000Z</time>
      </trkpt>
      <trkpt lat="43.01881" lon="0.55809">
        <ele>804</ele>
        <time>2018-03-18T09:26:41.000Z</time>
      </trkpt>
      <trkpt lat="43.0188" lon="0.55808">
        <ele>805</ele>
        <time>2018-03-18T09:26:43.000Z</time>
      </trkpt>
      <trkpt lat="43.01879" lon="0.55807">
        <ele>805</ele>
        <time>2018-03-18T09:26:45.000Z</time>
      </trkpt>
      <trkpt lat="43.01879" lon="0.55805">
        <ele>805</ele>
        <time>2018-03-18T09:26:47.000Z</time>
      </trkpt>
      <trkpt lat="43.01877" lon="0.55804">
        <ele>805</ele>
        <time>2018-03-18T09:26:49.000Z</time>
      </trkpt>
      <trkpt lat="43.01876" lon="0.55803">
        <ele>806</ele>
        <time>2018-03-18T09:26:51.000Z</time>
      </trkpt>
      <trkpt lat="43.01874" lon="0.55802">
        <ele>806</ele>
        <time>2018-03-18T09:26:53.000Z</time>
      </trkpt>
      <trkpt lat="43.01873" lon="0.558">
        <ele>806</ele>
        <time>2018-03-18T09:26:55.000Z</time>
      </trkpt>
      <trkpt lat="43.01872" lon="0.55798">
        <ele>807</ele>
        <time>2018-03-18T09:26:57.000Z</time>
      </trkpt>
      <trkpt lat="43.01871" lon="0.55795">
        <ele>807</ele>
        <time>2018-03-18T09:26:59.000Z</time>
      </trkpt>
      <trkpt lat="43.0187" lon="0.55794">
        <ele>807</ele>
        <time>2018-03-18T09:27:01.000Z</time>
      </trkpt>
      <trkpt lat="43.01869" lon="0.55792">
        <ele>807</ele>
        <time>2018-03-18T09:27:03.000Z</time>
      </trkpt>
      <trkpt lat="43.01868" lon="0.55791">
        <ele>808</ele>
        <time>2018-03-18T09:27:05.000Z</time>
      </trkpt>
      <trkpt lat="43.01868" lon="0.55788">
        <ele>808</ele>
        <time>2018-03-18T09:27:07.000Z</time>
      </trkpt>
      <trkpt lat="43.01868" lon="0.55787">
        <ele>808</ele>
        <time>2018-03-18T09:27:09.000Z</time>
      </trkpt>
      <trkpt lat="43.01868" lon="0.55786">
        <ele>808</ele>
        <time>2018-03-18T09:27:11.000Z</time>
      </trkpt>
      <trkpt lat="43.01869" lon="0.55786">
        <ele>808</ele>
        <time>2018-03-18T09:27:13.000Z</time>
      </trkpt>
      <trkpt lat="43.01868" lon="0.55785">
        <ele>808</ele>
        <time>2018-03-18T09:27:15.000Z</time>
      </trkpt>
      <trkpt lat="43.01867" lon="0.55784">
        <ele>808</ele>
        <time>2018-03-18T09:27:17.000Z</time>
      </trkpt>
      <trkpt lat="43.01866" lon="0.55783">
        <ele>809</ele>
        <time>2018-03-18T09:27:19.000Z</time>
      </trkpt>
      <trkpt lat="43.01864" lon="0.55782">
        <ele>809</ele>
        <time>2018-03-18T09:27:21.000Z</time>
      </trkpt>
      <trkpt lat="43.01863" lon="0.55781">
        <ele>809</ele>
        <time>2018-03-18T09:27:23.000Z</time>
      </trkpt>
      <trkpt lat="43.01863" lon="0.55778">
        <ele>809</ele>
        <time>2018-03-18T09:27:25.000Z</time>
      </trkpt>
      <trkpt lat="43.01863" lon="0.55776">
        <ele>809</ele>
        <time>2018-03-18T09:27:27.000Z</time>
      </trkpt>
      <trkpt lat="43.01863" lon="0.55774">
        <ele>810</ele>
        <time>2018-03-18T09:27:29.000Z</time>
      </trkpt>
      <trkpt lat="43.01864" lon="0.55772">
        <ele>810</ele>
        <time>2018-03-18T09:27:31.000Z</time>
      </trkpt>
      <trkpt lat="43.01864" lon="0.5577">
        <ele>810</ele>
        <time>2018-03-18T09:27:33.000Z</time>
      </trkpt>
      <trkpt lat="43.01866" lon="0.55769">
        <ele>810</ele>
        <time>2018-03-18T09:27:35.000Z</time>
      </trkpt>
      <trkpt lat="43.01867" lon="0.55768">
        <ele>810</ele>
        <time>2018-03-18T09:27:37.000Z</time>
      </trkpt>
      <trkpt lat="43.01869" lon="0.55767">
        <ele>810</ele>
        <time>2018-03-18T09:27:39.000Z</time>
      </trkpt>
      <trkpt lat="43.01871" lon="0.55767">
        <ele>810</ele>
        <time>2018-03-18T09:27:41.000Z</time>
      </trkpt>
      <trkpt lat="43.01872" lon="0.55766">
        <ele>811</ele>
        <time>2018-03-18T09:27:43.000Z</time>
      </trkpt>
      <trkpt lat="43.01874" lon="0.55765">
        <ele>811</ele>
        <time>2018-03-18T09:27:45.000Z</time>
      </trkpt>
      <trkpt lat="43.01876" lon="0.55764">
        <ele>811</ele>
        <time>2018-03-18T09:27:47.000Z</time>
      </trkpt>
      <trkpt lat="43.01878" lon="0.55766">
        <ele>810</ele>
        <time>2018-03-18T09:27:49.000Z</time>
      </trkpt>
      <trkpt lat="43.01881" lon="0.55765">
        <ele>810</ele>
        <time>2018-03-18T09:27:51.000Z</time>
      </trkpt>
      <trkpt lat="43.01883" lon="0.55764">
        <ele>810</ele>
        <time>2018-03-18T09:27:53.000Z</time>
      </trkpt>
      <trkpt lat="43.01885" lon="0.55763">
        <ele>811</ele>
        <time>2018-03-18T09:27:55.000Z</time>
      </trkpt>
      <trkpt lat="43.01887" lon="0.55762">
        <ele>811</ele>
        <time>2018-03-18T09:27:57.000Z</time>
      </trkpt>
      <trkpt lat="43.01889" lon="0.55762">
        <ele>810</ele>
        <time>2018-03-18T09:27:59.000Z</time>
      </trkpt>
      <trkpt lat="43.0189" lon="0.55762">
        <ele>810</ele>
        <time>2018-03-18T09:28:01.000Z</time>
      </trkpt>
      <trkpt lat="43.01891" lon="0.55761">
        <ele>810</ele>
        <time>2018-03-18T09:28:03.000Z</time>
      </trkpt>
      <trkpt lat="43.01893" lon="0.55761">
        <ele>810</ele>
        <time>2018-03-18T09:28:05.000Z</time>
      </trkpt>
      <trkpt lat="43.01894" lon="0.5576">
        <ele>810</ele>
        <time>2018-03-18T09:28:07.000Z</time>
      </trkpt>
      <trkpt lat="43.01895" lon="0.5576">
        <ele>810</ele>
        <time>2018-03-18T09:28:09.000Z</time>
      </trkpt>
      <trkpt lat="43.01896" lon="0.55759">
        <ele>810</ele>
        <time>2018-03-18T09:28:11.000Z</time>
      </trkpt>
      <trkpt lat="43.01896" lon="0.55759">
        <ele>809</ele>
        <time>2018-03-18T09:28:13.000Z</time>
      </trkpt>
      <trkpt lat="43.01897" lon="0.55759">
        <ele>809</ele>
        <time>2018-03-18T09:28:15.000Z</time>
      </trkpt>
      <trkpt lat="43.01897" lon="0.55759">
        <ele>809</ele>
        <time>2018-03-18T09:28:17.000Z</time>
      </trkpt>
      <trkpt lat="43.01896" lon="0.5576">
        <ele>809</ele>
        <time>2018-03-18T09:28:19.000Z</time>
      </trkpt>
      <trkpt lat="43.01896" lon="0.5576">
        <ele>809</ele>
        <time>2018-03-18T09:28:21.000Z</time>
      </trkpt>
      <trkpt lat="43.01896" lon="0.55761">
        <ele>810</ele>
        <time>2018-03-18T09:28:23.000Z</time>
      </trkpt>
      <trkpt lat="43.01896" lon="0.5576">
        <ele>809</ele>
        <time>2018-03-18T09:28:25.000Z</time>
      </trkpt>
      <trkpt lat="43.01897" lon="0.55758">
        <ele>809</ele>
        <time>2018-03-18T09:28:27.000Z</time>
      </trkpt>
      <trkpt lat="43.01897" lon="0.55758">
        <ele>809</ele>
        <time>2018-03-18T09:28:29.000Z</time>
      </trkpt>
      <trkpt lat="43.01897" lon="0.55756">
        <ele>809</ele>
        <time>2018-03-18T09:28:31.000Z</time>
      </trkpt>
      <trkpt lat="43.01898" lon="0.55754">
        <ele>809</ele>
        <time>2018-03-18T09:28:33.000Z</time>
      </trkpt>
      <trkpt lat="43.01899" lon="0.55753">
        <ele>809</ele>
        <time>2018-03-18T09:28:35.000Z</time>
      </trkpt>
      <trkpt lat="43.01899" lon="0.55752">
        <ele>809</ele>
        <time>2018-03-18T09:28:37.000Z</time>
      </trkpt>
      <trkpt lat="43.019" lon="0.55751">
        <ele>809</ele>
        <time>2018-03-18T09:28:39.000Z</time>
      </trkpt>
      <trkpt lat="43.019" lon="0.5575">
        <ele>809</ele>
        <time>2018-03-18T09:28:41.000Z</time>
      </trkpt>
      <trkpt lat="43.01901" lon="0.55749">
        <ele>809</ele>
        <time>2018-03-18T09:28:43.000Z</time>
      </trkpt>
      <trkpt lat="43.01901" lon="0.55748">
        <ele>809</ele>
        <time>2018-03-18T09:28:45.000Z</time>
      </trkpt>
      <trkpt lat="43.01901" lon="0.55746">
        <ele>809</ele>
        <time>2018-03-18T09:28:47.000Z</time>
      </trkpt>
      <trkpt lat="43.01902" lon="0.55745">
        <ele>809</ele>
        <time>2018-03-18T09:28:49.000Z</time>
      </trkpt>
      <trkpt lat="43.01902" lon="0.55744">
        <ele>809</ele>
        <time>2018-03-18T09:28:51.000Z</time>
      </trkpt>
      <trkpt lat="43.01902" lon="0.55745">
        <ele>809</ele>
        <time>2018-03-18T09:28:53.000Z</time>
      </trkpt>
      <trkpt lat="43.01902" lon="0.55744">
        <ele>809</ele>
        <time>2018-03-18T09:28:55.000Z</time>
      </trkpt>
      <trkpt lat="43.01903" lon="0.55744">
        <ele>809</ele>
        <time>2018-03-18T09:28:57.000Z</time>
      </trkpt>
      <trkpt lat="43.01904" lon="0.55745">
        <ele>809</ele>
        <time>2018-03-18T09:28:59.000Z</time>
      </trkpt>
      <trkpt lat="43.01905" lon="0.55746">
        <ele>809</ele>
        <time>2018-03-18T09:29:01.000Z</time>
      </trkpt>
      <trkpt lat="43.01905" lon="0.55745">
        <ele>809</ele>
        <time>2018-03-18T09:29:03.000Z</time>
      </trkpt>
      <trkpt lat="43.01905" lon="0.55746">
        <ele>809</ele>
        <time>2018-03-18T09:29:05.000Z</time>
      </trkpt>
      <trkpt lat="43.01905" lon="0.55746">
        <ele>809</ele>
        <time>2018-03-18T09:29:07.000Z</time>
      </trkpt>
      <trkpt lat="43.01905" lon="0.55746">
        <ele>809</ele>
        <time>2018-03-18T09:29:09.000Z</time>
      </trkpt>
      <trkpt lat="43.01905" lon="0.55747">
        <ele>809</ele>
        <time>2018-03-18T09:29:11.000Z</time>
      </trkpt>
      <trkpt lat="43.01905" lon="0.55746">
        <ele>809</ele>
        <time>2018-03-18T09:29:13.000Z</time>
      </trkpt>
      <trkpt lat="43.01905" lon="0.55746">
        <ele>809</ele>
        <time>2018-03-18T09:29:15.000Z</time>
      </trkpt>
      <trkpt lat="43.01905" lon="0.55747">
        <ele>809</ele>
        <time>2018-03-18T09:29:17.000Z</time>
      </trkpt>
      <trkpt lat="43.01905" lon="0.55747">
        <ele>809</ele>
        <time>2018-03-18T09:29:19.000Z</time>
      </trkpt>
      <trkpt lat="43.01905" lon="0.55746">
        <ele>809</ele>
        <time>2018-03-18T09:29:21.000Z</time>
      </trkpt>
      <trkpt lat="43.01905" lon="0.55746">
        <ele>809</ele>
        <time>2018-03-18T09:29:23.000Z</time>
      </trkpt>
      <trkpt lat="43.01905" lon="0.55746">
        <ele>809</ele>
        <time>2018-03-18T09:29:25.000Z</time>
      </trkpt>
      <trkpt lat="43.01905" lon="0.55746">
        <ele>809</ele>
        <time>2018-03-18T09:29:27.000Z</time>
      </trkpt>
      <trkpt lat="43.01905" lon="0.55746">
        <ele>809</ele>
        <time>2018-03-18T09:29:29.000Z</time>
      </trkpt>
      <trkpt lat="43.01905" lon="0.55746">
        <ele>809</ele>
        <time>2018-03-18T09:29:31.000Z</time>
      </trkpt>
      <trkpt lat="43.01905" lon="0.55746">
        <ele>809</ele>
        <time>2018-03-18T09:29:33.000Z</time>
      </trkpt>
      <trkpt lat="43.01904" lon="0.55746">
        <ele>809</ele>
        <time>2018-03-18T09:29:35.000Z</time>
      </trkpt>
      <trkpt lat="43.01904" lon="0.55746">
        <ele>809</ele>
        <time>2018-03-18T09:29:37.000Z</time>
      </trkpt>
      <trkpt lat="43.01905" lon="0.55745">
        <ele>809</ele>
        <time>2018-03-18T09:29:39.000Z</time>
      </trkpt>
      <trkpt lat="43.01905" lon="0.55745">
        <ele>809</ele>
        <time>2018-03-18T09:29:41.000Z</time>
      </trkpt>
      <trkpt lat="43.01906" lon="0.55745">
        <ele>809</ele>
        <time>2018-03-18T09:29:43.000Z</time>
      </trkpt>
      <trkpt lat="43.01906" lon="0.55746">
        <ele>809</ele>
        <time>2018-03-18T09:29:45.000Z</time>
      </trkpt>
      <trkpt lat="43.01906" lon="0.55746">
        <ele>809</ele>
        <time>2018-03-18T09:29:47.000Z</time>
      </trkpt>
      <trkpt lat="43.01906" lon="0.55746">
        <ele>809</ele>
        <time>2018-03-18T09:29:49.000Z</time>
      </trkpt>
      <trkpt lat="43.01906" lon="0.55746">
        <ele>809</ele>
        <time>2018-03-18T09:29:51.000Z</time>
      </trkpt>
      <trkpt lat="43.01906" lon="0.55746">
        <ele>809</ele>
        <time>2018-03-18T09:29:53.000Z</time>
      </trkpt>
      <trkpt lat="43.01906" lon="0.55746">
        <ele>809</ele>
        <time>2018-03-18T09:29:55.000Z</time>
      </trkpt>
      <trkpt lat="43.01906" lon="0.55746">
        <ele>809</ele>
        <time>2018-03-18T09:29:57.000Z</time>
      </trkpt>
      <trkpt lat="43.01907" lon="0.55745">
        <ele>809</ele>
        <time>2018-03-18T09:29:59.000Z</time>
      </trkpt>
      <trkpt lat="43.01907" lon="0.55745">
        <ele>808</ele>
        <time>2018-03-18T09:30:01.000Z</time>
      </trkpt>
      <trkpt lat="43.01908" lon="0.55745">
        <ele>808</ele>
        <time>2018-03-18T09:30:03.000Z</time>
      </trkpt>
      <trkpt lat="43.01908" lon="0.55744">
        <ele>808</ele>
        <time>2018-03-18T09:30:05.000Z</time>
      </trkpt>
      <trkpt lat="43.01908" lon="0.55744">
        <ele>808</ele>
        <time>2018-03-18T09:30:07.000Z</time>
      </trkpt>
      <trkpt lat="43.01908" lon="0.55743">
        <ele>808</ele>
        <time>2018-03-18T09:30:09.000Z</time>
      </trkpt>
      <trkpt lat="43.01908" lon="0.55743">
        <ele>808</ele>
        <time>2018-03-18T09:30:11.000Z</time>
      </trkpt>
      <trkpt lat="43.01908" lon="0.55743">
        <ele>808</ele>
        <time>2018-03-18T09:30:13.000Z</time>
      </trkpt>
      <trkpt lat="43.01908" lon="0.55742">
        <ele>808</ele>
        <time>2018-03-18T09:30:15.000Z</time>
      </trkpt>
      <trkpt lat="43.01908" lon="0.55742">
        <ele>809</ele>
        <time>2018-03-18T09:30:17.000Z</time>
      </trkpt>
      <trkpt lat="43.01909" lon="0.55741">
        <ele>808</ele>
        <time>2018-03-18T09:30:19.000Z</time>
      </trkpt>
      <trkpt lat="43.01909" lon="0.55741">
        <ele>808</ele>
        <time>2018-03-18T09:30:21.000Z</time>
      </trkpt>
      <trkpt lat="43.01909" lon="0.55741">
        <ele>808</ele>
        <time>2018-03-18T09:30:23.000Z</time>
      </trkpt>
      <trkpt lat="43.01909" lon="0.55741">
        <ele>808</ele>
        <time>2018-03-18T09:30:25.000Z</time>
      </trkpt>
      <trkpt lat="43.01909" lon="0.55742">
        <ele>808</ele>
        <time>2018-03-18T09:30:27.000Z</time>
      </trkpt>
      <trkpt lat="43.01909" lon="0.55742">
        <ele>808</ele>
        <time>2018-03-18T09:30:29.000Z</time>
      </trkpt>
      <trkpt lat="43.01909" lon="0.55742">
        <ele>808</ele>
        <time>2018-03-18T09:30:31.000Z</time>
      </trkpt>
      <trkpt lat="43.01909" lon="0.55742">
        <ele>808</ele>
        <time>2018-03-18T09:30:33.000Z</time>
      </trkpt>
      <trkpt lat="43.01909" lon="0.55743">
        <ele>808</ele>
        <time>2018-03-18T09:30:35.000Z</time>
      </trkpt>
      <trkpt lat="43.01909" lon="0.55743">
        <ele>808</ele>
        <time>2018-03-18T09:30:37.000Z</time>
      </trkpt>
      <trkpt lat="43.01909" lon="0.55743">
        <ele>808</ele>
        <time>2018-03-18T09:30:39.000Z</time>
      </trkpt>
      <trkpt lat="43.0191" lon="0.55743">
        <ele>808</ele>
        <time>2018-03-18T09:30:41.000Z</time>
      </trkpt>
      <trkpt lat="43.01909" lon="0.55743">
        <ele>808</ele>
        <time>2018-03-18T09:30:43.000Z</time>
      </trkpt>
      <trkpt lat="43.0191" lon="0.55742">
        <ele>808</ele>
        <time>2018-03-18T09:30:45.000Z</time>
      </trkpt>
      <trkpt lat="43.0191" lon="0.55741">
        <ele>808</ele>
        <time>2018-03-18T09:30:47.000Z</time>
      </trkpt>
      <trkpt lat="43.0191" lon="0.55741">
        <ele>808</ele>
        <time>2018-03-18T09:30:49.000Z</time>
      </trkpt>
      <trkpt lat="43.0191" lon="0.55741">
        <ele>808</ele>
        <time>2018-03-18T09:30:51.000Z</time>
      </trkpt>
      <trkpt lat="43.0191" lon="0.55741">
        <ele>808</ele>
        <time>2018-03-18T09:30:53.000Z</time>
      </trkpt>
      <trkpt lat="43.0191" lon="0.55741">
        <ele>808</ele>
        <time>2018-03-18T09:30:55.000Z</time>
      </trkpt>
      <trkpt lat="43.01909" lon="0.5574">
        <ele>808</ele>
        <time>2018-03-18T09:30:57.000Z</time>
      </trkpt>
      <trkpt lat="43.01909" lon="0.5574">
        <ele>808</ele>
        <time>2018-03-18T09:30:59.000Z</time>
      </trkpt>
      <trkpt lat="43.01909" lon="0.55741">
        <ele>808</ele>
        <time>2018-03-18T09:31:01.000Z</time>
      </trkpt>
      <trkpt lat="43.01909" lon="0.55741">
        <ele>808</ele>
        <time>2018-03-18T09:31:03.000Z</time>
      </trkpt>
      <trkpt lat="43.01909" lon="0.55742">
        <ele>808</ele>
        <time>2018-03-18T09:31:05.000Z</time>
      </trkpt>
      <trkpt lat="43.01909" lon="0.55741">
        <ele>808</ele>
        <time>2018-03-18T09:31:07.000Z</time>
      </trkpt>
      <trkpt lat="43.01909" lon="0.55741">
        <ele>808</ele>
        <time>2018-03-18T09:31:09.000Z</time>
      </trkpt>
      <trkpt lat="43.0191" lon="0.55741">
        <ele>808</ele>
        <time>2018-03-18T09:31:11.000Z</time>
      </trkpt>
      <trkpt lat="43.0191" lon="0.55742">
        <ele>808</ele>
        <time>2018-03-18T09:31:13.000Z</time>
      </trkpt>
      <trkpt lat="43.01911" lon="0.55744">
        <ele>808</ele>
        <time>2018-03-18T09:31:15.000Z</time>
      </trkpt>
      <trkpt lat="43.01911" lon="0.55745">
        <ele>808</ele>
        <time>2018-03-18T09:31:17.000Z</time>
      </trkpt>
      <trkpt lat="43.0191" lon="0.55745">
        <ele>808</ele>
        <time>2018-03-18T09:31:19.000Z</time>
      </trkpt>
      <trkpt lat="43.0191" lon="0.55745">
        <ele>808</ele>
        <time>2018-03-18T09:31:21.000Z</time>
      </trkpt>
      <trkpt lat="43.01909" lon="0.55745">
        <ele>808</ele>
        <time>2018-03-18T09:31:23.000Z</time>
      </trkpt>
      <trkpt lat="43.01909" lon="0.55746">
        <ele>808</ele>
        <time>2018-03-18T09:31:25.000Z</time>
      </trkpt>
      <trkpt lat="43.01909" lon="0.55746">
        <ele>808</ele>
        <time>2018-03-18T09:31:27.000Z</time>
      </trkpt>
      <trkpt lat="43.01909" lon="0.55746">
        <ele>808</ele>
        <time>2018-03-18T09:31:29.000Z</time>
      </trkpt>
      <trkpt lat="43.01909" lon="0.55746">
        <ele>808</ele>
        <time>2018-03-18T09:31:31.000Z</time>
      </trkpt>
      <trkpt lat="43.01909" lon="0.55747">
        <ele>808</ele>
        <time>2018-03-18T09:31:33.000Z</time>
      </trkpt>
      <trkpt lat="43.01909" lon="0.55747">
        <ele>808</ele>
        <time>2018-03-18T09:31:35.000Z</time>
      </trkpt>
      <trkpt lat="43.01909" lon="0.55747">
        <ele>808</ele>
        <time>2018-03-18T09:31:37.000Z</time>
      </trkpt>
      <trkpt lat="43.01909" lon="0.55748">
        <ele>808</ele>
        <time>2018-03-18T09:31:39.000Z</time>
      </trkpt>
      <trkpt lat="43.01909" lon="0.55748">
        <ele>808</ele>
        <time>2018-03-18T09:31:41.000Z</time>
      </trkpt>
      <trkpt lat="43.01909" lon="0.55749">
        <ele>808</ele>
        <time>2018-03-18T09:31:43.000Z</time>
      </trkpt>
      <trkpt lat="43.01909" lon="0.5575">
        <ele>808</ele>
        <time>2018-03-18T09:31:45.000Z</time>
      </trkpt>
      <trkpt lat="43.01909" lon="0.5575">
        <ele>808</ele>
        <time>2018-03-18T09:31:47.000Z</time>
      </trkpt>
      <trkpt lat="43.01908" lon="0.55749">
        <ele>808</ele>
        <time>2018-03-18T09:31:49.000Z</time>
      </trkpt>
      <trkpt lat="43.01909" lon="0.55748">
        <ele>808</ele>
        <time>2018-03-18T09:31:51.000Z</time>
      </trkpt>
      <trkpt lat="43.01909" lon="0.55747">
        <ele>808</ele>
        <time>2018-03-18T09:31:53.000Z</time>
      </trkpt>
      <trkpt lat="43.01909" lon="0.55746">
        <ele>808</ele>
        <time>2018-03-18T09:31:55.000Z</time>
      </trkpt>
      <trkpt lat="43.01909" lon="0.55746">
        <ele>808</ele>
        <time>2018-03-18T09:31:57.000Z</time>
      </trkpt>
      <trkpt lat="43.01908" lon="0.55745">
        <ele>808</ele>
        <time>2018-03-18T09:31:59.000Z</time>
      </trkpt>
      <trkpt lat="43.01908" lon="0.55745">
        <ele>808</ele>
        <time>2018-03-18T09:32:01.000Z</time>
      </trkpt>
      <trkpt lat="43.01908" lon="0.55745">
        <ele>808</ele>
        <time>2018-03-18T09:32:03.000Z</time>
      </trkpt>
      <trkpt lat="43.01908" lon="0.55744">
        <ele>808</ele>
        <time>2018-03-18T09:32:05.000Z</time>
      </trkpt>
      <trkpt lat="43.01909" lon="0.55745">
        <ele>808</ele>
        <time>2018-03-18T09:32:07.000Z</time>
      </trkpt>
      <trkpt lat="43.01909" lon="0.55745">
        <ele>808</ele>
        <time>2018-03-18T09:32:09.000Z</time>
      </trkpt>
      <trkpt lat="43.0191" lon="0.55744">
        <ele>808</ele>
        <time>2018-03-18T09:32:11.000Z</time>
      </trkpt>
      <trkpt lat="43.0191" lon="0.55744">
        <ele>808</ele>
        <time>2018-03-18T09:32:13.000Z</time>
      </trkpt>
      <trkpt lat="43.01911" lon="0.55744">
        <ele>808</ele>
        <time>2018-03-18T09:32:15.000Z</time>
      </trkpt>
      <trkpt lat="43.01911" lon="0.55744">
        <ele>808</ele>
        <time>2018-03-18T09:32:17.000Z</time>
      </trkpt>
      <trkpt lat="43.01911" lon="0.55743">
        <ele>808</ele>
        <time>2018-03-18T09:32:19.000Z</time>
      </trkpt>
      <trkpt lat="43.01911" lon="0.55743">
        <ele>808</ele>
        <time>2018-03-18T09:32:21.000Z</time>
      </trkpt>
      <trkpt lat="43.01911" lon="0.55744">
        <ele>808</ele>
        <time>2018-03-18T09:32:23.000Z</time>
      </trkpt>
      <trkpt lat="43.01911" lon="0.55744">
        <ele>808</ele>
        <time>2018-03-18T09:32:25.000Z</time>
      </trkpt>
      <trkpt lat="43.01911" lon="0.55744">
        <ele>808</ele>
        <time>2018-03-18T09:32:27.000Z</time>
      </trkpt>
      <trkpt lat="43.01911" lon="0.55744">
        <ele>808</ele>
        <time>2018-03-18T09:32:29.000Z</time>
      </trkpt>
      <trkpt lat="43.01911" lon="0.55744">
        <ele>808</ele>
        <time>2018-03-18T09:32:31.000Z</time>
      </trkpt>
      <trkpt lat="43.01911" lon="0.55744">
        <ele>808</ele>
        <time>2018-03-18T09:32:33.000Z</time>
      </trkpt>
      <trkpt lat="43.01911" lon="0.55745">
        <ele>808</ele>
        <time>2018-03-18T09:32:35.000Z</time>
      </trkpt>
      <trkpt lat="43.01911" lon="0.55744">
        <ele>808</ele>
        <time>2018-03-18T09:32:37.000Z</time>
      </trkpt>
      <trkpt lat="43.01911" lon="0.55744">
        <ele>808</ele>
        <time>2018-03-18T09:32:39.000Z</time>
      </trkpt>
      <trkpt lat="43.01911" lon="0.55744">
        <ele>808</ele>
        <time>2018-03-18T09:32:41.000Z</time>
      </trkpt>
      <trkpt lat="43.01911" lon="0.55745">
        <ele>808</ele>
        <time>2018-03-18T09:32:43.000Z</time>
      </trkpt>
      <trkpt lat="43.01912" lon="0.55745">
        <ele>808</ele>
        <time>2018-03-18T09:32:45.000Z</time>
      </trkpt>
      <trkpt lat="43.01912" lon="0.55745">
        <ele>808</ele>
        <time>2018-03-18T09:32:47.000Z</time>
      </trkpt>
      <trkpt lat="43.01912" lon="0.55743">
        <ele>808</ele>
        <time>2018-03-18T09:32:49.000Z</time>
      </trkpt>
      <trkpt lat="43.01911" lon="0.55742">
        <ele>808</ele>
        <time>2018-03-18T09:32:51.000Z</time>
      </trkpt>
      <trkpt lat="43.01911" lon="0.55741">
        <ele>808</ele>
        <time>2018-03-18T09:32:53.000Z</time>
      </trkpt>
      <trkpt lat="43.01911" lon="0.55741">
        <ele>808</ele>
        <time>2018-03-18T09:32:55.000Z</time>
      </trkpt>
      <trkpt lat="43.01911" lon="0.55742">
        <ele>808</ele>
        <time>2018-03-18T09:32:57.000Z</time>
      </trkpt>
      <trkpt lat="43.01911" lon="0.55742">
        <ele>808</ele>
        <time>2018-03-18T09:32:59.000Z</time>
      </trkpt>
      <trkpt lat="43.01911" lon="0.55743">
        <ele>808</ele>
        <time>2018-03-18T09:33:01.000Z</time>
      </trkpt>
      <trkpt lat="43.01911" lon="0.55743">
        <ele>808</ele>
        <time>2018-03-18T09:33:03.000Z</time>
      </trkpt>
      <trkpt lat="43.01911" lon="0.55744">
        <ele>808</ele>
        <time>2018-03-18T09:33:05.000Z</time>
      </trkpt>
      <trkpt lat="43.01911" lon="0.55744">
        <ele>808</ele>
        <time>2018-03-18T09:33:07.000Z</time>
      </trkpt>
      <trkpt lat="43.0191" lon="0.55745">
        <ele>808</ele>
        <time>2018-03-18T09:33:09.000Z</time>
      </trkpt>
      <trkpt lat="43.0191" lon="0.55745">
        <ele>808</ele>
        <time>2018-03-18T09:33:11.000Z</time>
      </trkpt>
      <trkpt lat="43.0191" lon="0.55746">
        <ele>808</ele>
        <time>2018-03-18T09:33:13.000Z</time>
      </trkpt>
      <trkpt lat="43.0191" lon="0.55745">
        <ele>808</ele>
        <time>2018-03-18T09:33:15.000Z</time>
      </trkpt>
      <trkpt lat="43.0191" lon="0.55746">
        <ele>808</ele>
        <time>2018-03-18T09:33:17.000Z</time>
      </trkpt>
      <trkpt lat="43.0191" lon="0.55745">
        <ele>808</ele>
        <time>2018-03-18T09:33:19.000Z</time>
      </trkpt>
      <trkpt lat="43.01911" lon="0.55746">
        <ele>808</ele>
        <time>2018-03-18T09:33:21.000Z</time>
      </trkpt>
      <trkpt lat="43.01911" lon="0.55746">
        <ele>808</ele>
        <time>2018-03-18T09:33:23.000Z</time>
      </trkpt>
      <trkpt lat="43.01912" lon="0.55747">
        <ele>808</ele>
        <time>2018-03-18T09:33:25.000Z</time>
      </trkpt>
      <trkpt lat="43.01912" lon="0.55747">
        <ele>808</ele>
        <time>2018-03-18T09:33:27.000Z</time>
      </trkpt>
      <trkpt lat="43.01912" lon="0.55747">
        <ele>808</ele>
        <time>2018-03-18T09:33:29.000Z</time>
      </trkpt>
      <trkpt lat="43.01913" lon="0.55747">
        <ele>808</ele>
        <time>2018-03-18T09:33:31.000Z</time>
      </trkpt>
      <trkpt lat="43.01913" lon="0.55746">
        <ele>808</ele>
        <time>2018-03-18T09:33:33.000Z</time>
      </trkpt>
      <trkpt lat="43.01912" lon="0.55746">
        <ele>808</ele>
        <time>2018-03-18T09:33:35.000Z</time>
      </trkpt>
      <trkpt lat="43.01912" lon="0.55745">
        <ele>808</ele>
        <time>2018-03-18T09:33:37.000Z</time>
      </trkpt>
      <trkpt lat="43.01912" lon="0.55745">
        <ele>808</ele>
        <time>2018-03-18T09:33:39.000Z</time>
      </trkpt>
      <trkpt lat="43.01912" lon="0.55744">
        <ele>808</ele>
        <time>2018-03-18T09:33:41.000Z</time>
      </trkpt>
      <trkpt lat="43.01912" lon="0.55744">
        <ele>808</ele>
        <time>2018-03-18T09:33:43.000Z</time>
      </trkpt>
      <trkpt lat="43.01912" lon="0.55745">
        <ele>808</ele>
        <time>2018-03-18T09:33:45.000Z</time>
      </trkpt>
      <trkpt lat="43.01912" lon="0.55745">
        <ele>808</ele>
        <time>2018-03-18T09:33:47.000Z</time>
      </trkpt>
      <trkpt lat="43.01911" lon="0.55746">
        <ele>808</ele>
        <time>2018-03-18T09:33:49.000Z</time>
      </trkpt>
      <trkpt lat="43.01911" lon="0.55746">
        <ele>808</ele>
        <time>2018-03-18T09:33:51.000Z</time>
      </trkpt>
      <trkpt lat="43.01911" lon="0.55746">
        <ele>808</ele>
        <time>2018-03-18T09:33:53.000Z</time>
      </trkpt>
      <trkpt lat="43.0191" lon="0.55746">
        <ele>808</ele>
        <time>2018-03-18T09:33:55.000Z</time>
      </trkpt>
      <trkpt lat="43.0191" lon="0.55745">
        <ele>808</ele>
        <time>2018-03-18T09:33:57.000Z</time>
      </trkpt>
      <trkpt lat="43.0191" lon="0.55745">
        <ele>808</ele>
        <time>2018-03-18T09:33:59.000Z</time>
      </trkpt>
      <trkpt lat="43.01911" lon="0.55744">
        <ele>808</ele>
        <time>2018-03-18T09:34:01.000Z</time>
      </trkpt>
      <trkpt lat="43.01911" lon="0.55744">
        <ele>808</ele>
        <time>2018-03-18T09:34:03.000Z</time>
      </trkpt>
      <trkpt lat="43.01911" lon="0.55744">
        <ele>808</ele>
        <time>2018-03-18T09:34:05.000Z</time>
      </trkpt>
      <trkpt lat="43.01911" lon="0.55743">
        <ele>808</ele>
        <time>2018-03-18T09:34:07.000Z</time>
      </trkpt>
      <trkpt lat="43.01911" lon="0.55743">
        <ele>808</ele>
        <time>2018-03-18T09:34:09.000Z</time>
      </trkpt>
      <trkpt lat="43.01912" lon="0.55743">
        <ele>808</ele>
        <time>2018-03-18T09:34:11.000Z</time>
      </trkpt>
      <trkpt lat="43.01912" lon="0.55743">
        <ele>808</ele>
        <time>2018-03-18T09:34:13.000Z</time>
      </trkpt>
      <trkpt lat="43.01911" lon="0.55742">
        <ele>808</ele>
        <time>2018-03-18T09:34:15.000Z</time>
      </trkpt>
      <trkpt lat="43.01911" lon="0.55742">
        <ele>808</ele>
        <time>2018-03-18T09:34:17.000Z</time>
      </trkpt>
      <trkpt lat="43.01911" lon="0.55742">
        <ele>808</ele>
        <time>2018-03-18T09:34:19.000Z</time>
      </trkpt>
      <trkpt lat="43.01911" lon="0.55742">
        <ele>808</ele>
        <time>2018-03-18T09:34:21.000Z</time>
      </trkpt>
      <trkpt lat="43.01912" lon="0.55742">
        <ele>808</ele>
        <time>2018-03-18T09:34:23.000Z</time>
      </trkpt>
      <trkpt lat="43.01912" lon="0.55742">
        <ele>808</ele>
        <time>2018-03-18T09:34:25.000Z</time>
      </trkpt>
      <trkpt lat="43.01912" lon="0.55742">
        <ele>808</ele>
        <time>2018-03-18T09:34:27.000Z</time>
      </trkpt>
      <trkpt lat="43.01913" lon="0.55742">
        <ele>808</ele>
        <time>2018-03-18T09:34:29.000Z</time>
      </trkpt>
      <trkpt lat="43.01913" lon="0.55743">
        <ele>808</ele>
        <time>2018-03-18T09:34:31.000Z</time>
      </trkpt>
      <trkpt lat="43.01913" lon="0.55742">
        <ele>808</ele>
        <time>2018-03-18T09:34:33.000Z</time>
      </trkpt>
      <trkpt lat="43.01913" lon="0.55742">
        <ele>808</ele>
        <time>2018-03-18T09:34:35.000Z</time>
      </trkpt>
      <trkpt lat="43.01913" lon="0.55743">
        <ele>808</ele>
        <time>2018-03-18T09:34:37.000Z</time>
      </trkpt>
      <trkpt lat="43.01913" lon="0.55743">
        <ele>808</ele>
        <time>2018-03-18T09:34:39.000Z</time>
      </trkpt>
      <trkpt lat="43.01914" lon="0.55743">
        <ele>808</ele>
        <time>2018-03-18T09:34:41.000Z</time>
      </trkpt>
      <trkpt lat="43.01913" lon="0.55743">
        <ele>808</ele>
        <time>2018-03-18T09:34:43.000Z</time>
      </trkpt>
      <trkpt lat="43.01913" lon="0.55743">
        <ele>808</ele>
        <time>2018-03-18T09:34:45.000Z</time>
      </trkpt>
      <trkpt lat="43.01914" lon="0.55744">
        <ele>808</ele>
        <time>2018-03-18T09:34:47.000Z</time>
      </trkpt>
      <trkpt lat="43.01913" lon="0.55745">
        <ele>808</ele>
        <time>2018-03-18T09:34:49.000Z</time>
      </trkpt>
      <trkpt lat="43.01912" lon="0.55744">
        <ele>808</ele>
        <time>2018-03-18T09:34:51.000Z</time>
      </trkpt>
      <trkpt lat="43.01912" lon="0.55744">
        <ele>808</ele>
        <time>2018-03-18T09:34:53.000Z</time>
      </trkpt>
      <trkpt lat="43.01912" lon="0.55743">
        <ele>808</ele>
        <time>2018-03-18T09:34:55.000Z</time>
      </trkpt>
      <trkpt lat="43.01912" lon="0.55743">
        <ele>808</ele>
        <time>2018-03-18T09:34:57.000Z</time>
      </trkpt>
      <trkpt lat="43.01911" lon="0.55743">
        <ele>808</ele>
        <time>2018-03-18T09:34:59.000Z</time>
      </trkpt>
      <trkpt lat="43.01912" lon="0.55743">
        <ele>808</ele>
        <time>2018-03-18T09:35:01.000Z</time>
      </trkpt>
      <trkpt lat="43.01912" lon="0.55743">
        <ele>808</ele>
        <time>2018-03-18T09:35:03.000Z</time>
      </trkpt>
      <trkpt lat="43.01912" lon="0.55743">
        <ele>808</ele>
        <time>2018-03-18T09:35:05.000Z</time>
      </trkpt>
      <trkpt lat="43.01912" lon="0.55743">
        <ele>808</ele>
        <time>2018-03-18T09:35:07.000Z</time>
      </trkpt>
      <trkpt lat="43.01911" lon="0.55743">
        <ele>808</ele>
        <time>2018-03-18T09:35:09.000Z</time>
      </trkpt>
      <trkpt lat="43.01911" lon="0.55743">
        <ele>808</ele>
        <time>2018-03-18T09:35:11.000Z</time>
      </trkpt>
      <trkpt lat="43.01911" lon="0.55743">
        <ele>808</ele>
        <time>2018-03-18T09:35:13.000Z</time>
      </trkpt>
      <trkpt lat="43.01911" lon="0.55743">
        <ele>808</ele>
        <time>2018-03-18T09:35:15.000Z</time>
      </trkpt>
      <trkpt lat="43.01911" lon="0.55743">
        <ele>808</ele>
        <time>2018-03-18T09:35:17.000Z</time>
      </trkpt>
      <trkpt lat="43.01911" lon="0.55743">
        <ele>808</ele>
        <time>2018-03-18T09:35:19.000Z</time>
      </trkpt>
      <trkpt lat="43.01911" lon="0.55743">
        <ele>808</ele>
        <time>2018-03-18T09:35:21.000Z</time>
      </trkpt>
      <trkpt lat="43.01911" lon="0.55743">
        <ele>808</ele>
        <time>2018-03-18T09:35:23.000Z</time>
      </trkpt>
      <trkpt lat="43.0191" lon="0.55743">
        <ele>808</ele>
        <time>2018-03-18T09:35:25.000Z</time>
      </trkpt>
      <trkpt lat="43.0191" lon="0.55743">
        <ele>808</ele>
        <time>2018-03-18T09:35:27.000Z</time>
      </trkpt>
      <trkpt lat="43.0191" lon="0.55743">
        <ele>808</ele>
        <time>2018-03-18T09:35:29.000Z</time>
      </trkpt>
      <trkpt lat="43.0191" lon="0.55743">
        <ele>808</ele>
        <time>2018-03-18T09:35:31.000Z</time>
      </trkpt>
      <trkpt lat="43.0191" lon="0.55743">
        <ele>808</ele>
        <time>2018-03-18T09:35:33.000Z</time>
      </trkpt>
      <trkpt lat="43.0191" lon="0.55744">
        <ele>808</ele>
        <time>2018-03-18T09:35:35.000Z</time>
      </trkpt>
      <trkpt lat="43.01909" lon="0.55744">
        <ele>808</ele>
        <time>2018-03-18T09:35:37.000Z</time>
      </trkpt>
      <trkpt lat="43.0191" lon="0.55744">
        <ele>808</ele>
        <time>2018-03-18T09:35:39.000Z</time>
      </trkpt>
      <trkpt lat="43.0191" lon="0.55744">
        <ele>808</ele>
        <time>2018-03-18T09:35:41.000Z</time>
      </trkpt>
      <trkpt lat="43.0191" lon="0.55744">
        <ele>808</ele>
        <time>2018-03-18T09:35:43.000Z</time>
      </trkpt>
      <trkpt lat="43.0191" lon="0.55744">
        <ele>808</ele>
        <time>2018-03-18T09:35:45.000Z</time>
      </trkpt>
      <trkpt lat="43.0191" lon="0.55744">
        <ele>808</ele>
        <time>2018-03-18T09:35:47.000Z</time>
      </trkpt>
      <trkpt lat="43.0191" lon="0.55744">
        <ele>808</ele>
        <time>2018-03-18T09:35:49.000Z</time>
      </trkpt>
      <trkpt lat="43.0191" lon="0.55744">
        <ele>808</ele>
        <time>2018-03-18T09:35:51.000Z</time>
      </trkpt>
      <trkpt lat="43.0191" lon="0.55744">
        <ele>808</ele>
        <time>2018-03-18T09:35:53.000Z</time>
      </trkpt>
      <trkpt lat="43.0191" lon="0.55744">
        <ele>808</ele>
        <time>2018-03-18T09:35:55.000Z</time>
      </trkpt>
      <trkpt lat="43.0191" lon="0.55745">
        <ele>808</ele>
        <time>2018-03-18T09:35:57.000Z</time>
      </trkpt>
      <trkpt lat="43.0191" lon="0.55745">
        <ele>808</ele>
        <time>2018-03-18T09:35:59.000Z</time>
      </trkpt>
      <trkpt lat="43.01909" lon="0.55744">
        <ele>808</ele>
        <time>2018-03-18T09:36:01.000Z</time>
      </trkpt>
      <trkpt lat="43.01909" lon="0.55744">
        <ele>808</ele>
        <time>2018-03-18T09:36:03.000Z</time>
      </trkpt>
      <trkpt lat="43.01909" lon="0.55743">
        <ele>808</ele>
        <time>2018-03-18T09:36:05.000Z</time>
      </trkpt>
      <trkpt lat="43.01909" lon="0.55743">
        <ele>808</ele>
        <time>2018-03-18T09:36:07.000Z</time>
      </trkpt>
      <trkpt lat="43.0191" lon="0.55744">
        <ele>808</ele>
        <time>2018-03-18T09:36:09.000Z</time>
      </trkpt>
      <trkpt lat="43.0191" lon="0.55744">
        <ele>808</ele>
        <time>2018-03-18T09:36:11.000Z</time>
      </trkpt>
      <trkpt lat="43.01911" lon="0.55744">
        <ele>808</ele>
        <time>2018-03-18T09:36:13.000Z</time>
      </trkpt>
      <trkpt lat="43.01911" lon="0.55744">
        <ele>808</ele>
        <time>2018-03-18T09:36:15.000Z</time>
      </trkpt>
      <trkpt lat="43.01911" lon="0.55744">
        <ele>808</ele>
        <time>2018-03-18T09:36:17.000Z</time>
      </trkpt>
      <trkpt lat="43.01911" lon="0.55744">
        <ele>808</ele>
        <time>2018-03-18T09:36:19.000Z</time>
      </trkpt>
      <trkpt lat="43.01911" lon="0.55745">
        <ele>808</ele>
        <time>2018-03-18T09:36:21.000Z</time>
      </trkpt>
      <trkpt lat="43.01911" lon="0.55745">
        <ele>808</ele>
        <time>2018-03-18T09:36:23.000Z</time>
      </trkpt>
      <trkpt lat="43.01911" lon="0.55745">
        <ele>808</ele>
        <time>2018-03-18T09:36:25.000Z</time>
      </trkpt>
      <trkpt lat="43.0191" lon="0.55745">
        <ele>808</ele>
        <time>2018-03-18T09:36:27.000Z</time>
      </trkpt>
      <trkpt lat="43.0191" lon="0.55745">
        <ele>808</ele>
        <time>2018-03-18T09:36:29.000Z</time>
      </trkpt>
      <trkpt lat="43.0191" lon="0.55744">
        <ele>808</ele>
        <time>2018-03-18T09:36:31.000Z</time>
      </trkpt>
      <trkpt lat="43.01909" lon="0.55744">
        <ele>808</ele>
        <time>2018-03-18T09:36:33.000Z</time>
      </trkpt>
      <trkpt lat="43.01909" lon="0.55744">
        <ele>808</ele>
        <time>2018-03-18T09:36:35.000Z</time>
      </trkpt>
      <trkpt lat="43.01909" lon="0.55744">
        <ele>808</ele>
        <time>2018-03-18T09:36:37.000Z</time>
      </trkpt>
      <trkpt lat="43.01909" lon="0.55744">
        <ele>808</ele>
        <time>2018-03-18T09:36:39.000Z</time>
      </trkpt>
      <trkpt lat="43.0191" lon="0.55744">
        <ele>808</ele>
        <time>2018-03-18T09:36:41.000Z</time>
      </trkpt>
      <trkpt lat="43.0191" lon="0.55743">
        <ele>808</ele>
        <time>2018-03-18T09:36:43.000Z</time>
      </trkpt>
      <trkpt lat="43.0191" lon="0.55742">
        <ele>808</ele>
        <time>2018-03-18T09:36:45.000Z</time>
      </trkpt>
      <trkpt lat="43.0191" lon="0.55742">
        <ele>808</ele>
        <time>2018-03-18T09:36:47.000Z</time>
      </trkpt>
      <trkpt lat="43.0191" lon="0.55742">
        <ele>808</ele>
        <time>2018-03-18T09:36:49.000Z</time>
      </trkpt>
      <trkpt lat="43.0191" lon="0.55741">
        <ele>808</ele>
        <time>2018-03-18T09:36:51.000Z</time>
      </trkpt>
      <trkpt lat="43.0191" lon="0.55741">
        <ele>808</ele>
        <time>2018-03-18T09:36:53.000Z</time>
      </trkpt>
      <trkpt lat="43.0191" lon="0.55741">
        <ele>808</ele>
        <time>2018-03-18T09:36:55.000Z</time>
      </trkpt>
      <trkpt lat="43.0191" lon="0.55742">
        <ele>808</ele>
        <time>2018-03-18T09:36:57.000Z</time>
      </trkpt>
      <trkpt lat="43.01909" lon="0.55741">
        <ele>808</ele>
        <time>2018-03-18T09:36:59.000Z</time>
      </trkpt>
      <trkpt lat="43.01909" lon="0.55741">
        <ele>808</ele>
        <time>2018-03-18T09:37:01.000Z</time>
      </trkpt>
      <trkpt lat="43.01909" lon="0.55741">
        <ele>808</ele>
        <time>2018-03-18T09:37:03.000Z</time>
      </trkpt>
      <trkpt lat="43.01909" lon="0.55741">
        <ele>808</ele>
        <time>2018-03-18T09:37:05.000Z</time>
      </trkpt>
      <trkpt lat="43.01909" lon="0.55741">
        <ele>808</ele>
        <time>2018-03-18T09:37:07.000Z</time>
      </trkpt>
      <trkpt lat="43.01909" lon="0.55741">
        <ele>808</ele>
        <time>2018-03-18T09:37:09.000Z</time>
      </trkpt>
      <trkpt lat="43.01909" lon="0.55741">
        <ele>808</ele>
        <time>2018-03-18T09:37:11.000Z</time>
      </trkpt>
      <trkpt lat="43.01909" lon="0.55742">
        <ele>808</ele>
        <time>2018-03-18T09:37:13.000Z</time>
      </trkpt>
      <trkpt lat="43.01909" lon="0.55742">
        <ele>808</ele>
        <time>2018-03-18T09:37:15.000Z</time>
      </trkpt>
      <trkpt lat="43.01909" lon="0.55742">
        <ele>808</ele>
        <time>2018-03-18T09:37:17.000Z</time>
      </trkpt>
      <trkpt lat="43.01909" lon="0.55742">
        <ele>808</ele>
        <time>2018-03-18T09:37:19.000Z</time>
      </trkpt>
      <trkpt lat="43.01909" lon="0.55742">
        <ele>808</ele>
        <time>2018-03-18T09:37:21.000Z</time>
      </trkpt>
      <trkpt lat="43.01909" lon="0.55742">
        <ele>808</ele>
        <time>2018-03-18T09:37:23.000Z</time>
      </trkpt>
      <trkpt lat="43.0191" lon="0.55742">
        <ele>808</ele>
        <time>2018-03-18T09:37:25.000Z</time>
      </trkpt>
      <trkpt lat="43.0191" lon="0.55743">
        <ele>808</ele>
        <time>2018-03-18T09:37:27.000Z</time>
      </trkpt>
      <trkpt lat="43.0191" lon="0.55744">
        <ele>808</ele>
        <time>2018-03-18T09:37:29.000Z</time>
      </trkpt>
      <trkpt lat="43.0191" lon="0.55745">
        <ele>808</ele>
        <time>2018-03-18T09:37:31.000Z</time>
      </trkpt>
      <trkpt lat="43.01911" lon="0.55745">
        <ele>808</ele>
        <time>2018-03-18T09:37:33.000Z</time>
      </trkpt>
      <trkpt lat="43.01911" lon="0.55745">
        <ele>808</ele>
        <time>2018-03-18T09:37:35.000Z</time>
      </trkpt>
      <trkpt lat="43.01911" lon="0.55745">
        <ele>808</ele>
        <time>2018-03-18T09:37:37.000Z</time>
      </trkpt>
      <trkpt lat="43.01912" lon="0.55745">
        <ele>808</ele>
        <time>2018-03-18T09:37:39.000Z</time>
      </trkpt>
      <trkpt lat="43.01912" lon="0.55745">
        <ele>808</ele>
        <time>2018-03-18T09:37:41.000Z</time>
      </trkpt>
      <trkpt lat="43.01912" lon="0.55744">
        <ele>808</ele>
        <time>2018-03-18T09:37:43.000Z</time>
      </trkpt>
      <trkpt lat="43.01913" lon="0.55745">
        <ele>808</ele>
        <time>2018-03-18T09:37:45.000Z</time>
      </trkpt>
      <trkpt lat="43.01913" lon="0.55745">
        <ele>808</ele>
        <time>2018-03-18T09:37:47.000Z</time>
      </trkpt>
      <trkpt lat="43.01914" lon="0.55744">
        <ele>808</ele>
        <time>2018-03-18T09:37:49.000Z</time>
      </trkpt>
      <trkpt lat="43.01914" lon="0.55744">
        <ele>808</ele>
        <time>2018-03-18T09:37:51.000Z</time>
      </trkpt>
      <trkpt lat="43.01914" lon="0.55744">
        <ele>808</ele>
        <time>2018-03-18T09:37:53.000Z</time>
      </trkpt>
      <trkpt lat="43.01914" lon="0.55745">
        <ele>808</ele>
        <time>2018-03-18T09:37:55.000Z</time>
      </trkpt>
      <trkpt lat="43.01914" lon="0.55745">
        <ele>808</ele>
        <time>2018-03-18T09:37:57.000Z</time>
      </trkpt>
      <trkpt lat="43.01914" lon="0.55745">
        <ele>808</ele>
        <time>2018-03-18T09:37:59.000Z</time>
      </trkpt>
      <trkpt lat="43.01915" lon="0.55745">
        <ele>808</ele>
        <time>2018-03-18T09:38:01.000Z</time>
      </trkpt>
      <trkpt lat="43.01915" lon="0.55745">
        <ele>808</ele>
        <time>2018-03-18T09:38:03.000Z</time>
      </trkpt>
      <trkpt lat="43.01915" lon="0.55745">
        <ele>808</ele>
        <time>2018-03-18T09:38:05.000Z</time>
      </trkpt>
      <trkpt lat="43.01915" lon="0.55746">
        <ele>808</ele>
        <time>2018-03-18T09:38:07.000Z</time>
      </trkpt>
      <trkpt lat="43.01916" lon="0.55746">
        <ele>808</ele>
        <time>2018-03-18T09:38:09.000Z</time>
      </trkpt>
      <trkpt lat="43.01916" lon="0.55746">
        <ele>807</ele>
        <time>2018-03-18T09:38:11.000Z</time>
      </trkpt>
      <trkpt lat="43.01915" lon="0.55746">
        <ele>808</ele>
        <time>2018-03-18T09:38:13.000Z</time>
      </trkpt>
      <trkpt lat="43.01915" lon="0.55745">
        <ele>808</ele>
        <time>2018-03-18T09:38:15.000Z</time>
      </trkpt>
      <trkpt lat="43.01915" lon="0.55745">
        <ele>808</ele>
        <time>2018-03-18T09:38:17.000Z</time>
      </trkpt>
      <trkpt lat="43.01915" lon="0.55745">
        <ele>808</ele>
        <time>2018-03-18T09:38:19.000Z</time>
      </trkpt>
      <trkpt lat="43.01915" lon="0.55745">
        <ele>808</ele>
        <time>2018-03-18T09:38:21.000Z</time>
      </trkpt>
      <trkpt lat="43.01915" lon="0.55745">
        <ele>808</ele>
        <time>2018-03-18T09:38:23.000Z</time>
      </trkpt>
      <trkpt lat="43.01915" lon="0.55745">
        <ele>808</ele>
        <time>2018-03-18T09:38:25.000Z</time>
      </trkpt>
      <trkpt lat="43.01914" lon="0.55745">
        <ele>808</ele>
        <time>2018-03-18T09:38:27.000Z</time>
      </trkpt>
      <trkpt lat="43.01914" lon="0.55745">
        <ele>808</ele>
        <time>2018-03-18T09:38:29.000Z</time>
      </trkpt>
      <trkpt lat="43.01913" lon="0.55745">
        <ele>808</ele>
        <time>2018-03-18T09:38:31.000Z</time>
      </trkpt>
      <trkpt lat="43.01912" lon="0.55745">
        <ele>808</ele>
        <time>2018-03-18T09:38:33.000Z</time>
      </trkpt>
      <trkpt lat="43.01911" lon="0.55746">
        <ele>808</ele>
        <time>2018-03-18T09:38:35.000Z</time>
      </trkpt>
      <trkpt lat="43.01911" lon="0.55746">
        <ele>808</ele>
        <time>2018-03-18T09:38:37.000Z</time>
      </trkpt>
      <trkpt lat="43.0191" lon="0.55747">
        <ele>808</ele>
        <time>2018-03-18T09:38:39.000Z</time>
      </trkpt>
      <trkpt lat="43.0191" lon="0.55747">
        <ele>808</ele>
        <time>2018-03-18T09:38:41.000Z</time>
      </trkpt>
      <trkpt lat="43.01911" lon="0.55748">
        <ele>808</ele>
        <time>2018-03-18T09:38:43.000Z</time>
      </trkpt>
      <trkpt lat="43.01911" lon="0.55748">
        <ele>808</ele>
        <time>2018-03-18T09:38:45.000Z</time>
      </trkpt>
      <trkpt lat="43.01911" lon="0.55748">
        <ele>808</ele>
        <time>2018-03-18T09:38:47.000Z</time>
      </trkpt>
      <trkpt lat="43.01911" lon="0.55748">
        <ele>808</ele>
        <time>2018-03-18T09:38:49.000Z</time>
      </trkpt>
      <trkpt lat="43.01912" lon="0.55748">
        <ele>808</ele>
        <time>2018-03-18T09:38:51.000Z</time>
      </trkpt>
      <trkpt lat="43.01912" lon="0.55748">
        <ele>808</ele>
        <time>2018-03-18T09:38:53.000Z</time>
      </trkpt>
      <trkpt lat="43.01913" lon="0.55748">
        <ele>808</ele>
        <time>2018-03-18T09:38:55.000Z</time>
      </trkpt>
      <trkpt lat="43.01914" lon="0.55748">
        <ele>808</ele>
        <time>2018-03-18T09:38:57.000Z</time>
      </trkpt>
      <trkpt lat="43.01913" lon="0.55748">
        <ele>808</ele>
        <time>2018-03-18T09:38:59.000Z</time>
      </trkpt>
      <trkpt lat="43.01913" lon="0.55748">
        <ele>808</ele>
        <time>2018-03-18T09:39:01.000Z</time>
      </trkpt>
      <trkpt lat="43.01913" lon="0.55747">
        <ele>808</ele>
        <time>2018-03-18T09:39:03.000Z</time>
      </trkpt>
      <trkpt lat="43.01913" lon="0.55747">
        <ele>808</ele>
        <time>2018-03-18T09:39:05.000Z</time>
      </trkpt>
      <trkpt lat="43.01913" lon="0.55747">
        <ele>808</ele>
        <time>2018-03-18T09:39:07.000Z</time>
      </trkpt>
      <trkpt lat="43.01912" lon="0.55746">
        <ele>808</ele>
        <time>2018-03-18T09:39:09.000Z</time>
      </trkpt>
      <trkpt lat="43.01913" lon="0.55746">
        <ele>808</ele>
        <time>2018-03-18T09:39:11.000Z</time>
      </trkpt>
      <trkpt lat="43.01913" lon="0.55746">
        <ele>808</ele>
        <time>2018-03-18T09:39:13.000Z</time>
      </trkpt>
      <trkpt lat="43.01913" lon="0.55746">
        <ele>808</ele>
        <time>2018-03-18T09:39:15.000Z</time>
      </trkpt>
      <trkpt lat="43.01912" lon="0.55745">
        <ele>808</ele>
        <time>2018-03-18T09:39:17.000Z</time>
      </trkpt>
      <trkpt lat="43.01912" lon="0.55745">
        <ele>808</ele>
        <time>2018-03-18T09:39:19.000Z</time>
      </trkpt>
      <trkpt lat="43.01912" lon="0.55745">
        <ele>808</ele>
        <time>2018-03-18T09:39:21.000Z</time>
      </trkpt>
      <trkpt lat="43.01913" lon="0.55745">
        <ele>808</ele>
        <time>2018-03-18T09:39:23.000Z</time>
      </trkpt>
      <trkpt lat="43.01913" lon="0.55745">
        <ele>808</ele>
        <time>2018-03-18T09:39:25.000Z</time>
      </trkpt>
      <trkpt lat="43.01913" lon="0.55745">
        <ele>808</ele>
        <time>2018-03-18T09:39:27.000Z</time>
      </trkpt>
      <trkpt lat="43.01914" lon="0.55745">
        <ele>808</ele>
        <time>2018-03-18T09:39:29.000Z</time>
      </trkpt>
      <trkpt lat="43.01914" lon="0.55745">
        <ele>808</ele>
        <time>2018-03-18T09:39:31.000Z</time>
      </trkpt>
      <trkpt lat="43.01914" lon="0.55745">
        <ele>808</ele>
        <time>2018-03-18T09:39:33.000Z</time>
      </trkpt>
      <trkpt lat="43.01914" lon="0.55745">
        <ele>808</ele>
        <time>2018-03-18T09:39:35.000Z</time>
      </trkpt>
      <trkpt lat="43.01914" lon="0.55745">
        <ele>808</ele>
        <time>2018-03-18T09:39:37.000Z</time>
      </trkpt>
      <trkpt lat="43.01915" lon="0.55745">
        <ele>808</ele>
        <time>2018-03-18T09:39:39.000Z</time>
      </trkpt>
      <trkpt lat="43.01916" lon="0.55744">
        <ele>808</ele>
        <time>2018-03-18T09:39:41.000Z</time>
      </trkpt>
      <trkpt lat="43.01916" lon="0.55744">
        <ele>808</ele>
        <time>2018-03-18T09:39:43.000Z</time>
      </trkpt>
      <trkpt lat="43.01916" lon="0.55744">
        <ele>807</ele>
        <time>2018-03-18T09:39:45.000Z</time>
      </trkpt>
      <trkpt lat="43.01916" lon="0.55744">
        <ele>807</ele>
        <time>2018-03-18T09:39:47.000Z</time>
      </trkpt>
      <trkpt lat="43.01916" lon="0.55745">
        <ele>807</ele>
        <time>2018-03-18T09:39:49.000Z</time>
      </trkpt>
      <trkpt lat="43.01916" lon="0.55745">
        <ele>807</ele>
        <time>2018-03-18T09:39:51.000Z</time>
      </trkpt>
      <trkpt lat="43.01916" lon="0.55745">
        <ele>807</ele>
        <time>2018-03-18T09:39:53.000Z</time>
      </trkpt>
      <trkpt lat="43.01915" lon="0.55745">
        <ele>808</ele>
        <time>2018-03-18T09:39:55.000Z</time>
      </trkpt>
      <trkpt lat="43.01915" lon="0.55745">
        <ele>808</ele>
        <time>2018-03-18T09:39:57.000Z</time>
      </trkpt>
      <trkpt lat="43.01915" lon="0.55745">
        <ele>808</ele>
        <time>2018-03-18T09:39:59.000Z</time>
      </trkpt>
      <trkpt lat="43.01914" lon="0.55745">
        <ele>808</ele>
        <time>2018-03-18T09:40:01.000Z</time>
      </trkpt>
      <trkpt lat="43.01913" lon="0.55745">
        <ele>808</ele>
        <time>2018-03-18T09:40:03.000Z</time>
      </trkpt>
      <trkpt lat="43.01912" lon="0.55745">
        <ele>808</ele>
        <time>2018-03-18T09:40:05.000Z</time>
      </trkpt>
      <trkpt lat="43.01913" lon="0.55745">
        <ele>808</ele>
        <time>2018-03-18T09:40:07.000Z</time>
      </trkpt>
      <trkpt lat="43.01914" lon="0.55745">
        <ele>808</ele>
        <time>2018-03-18T09:40:09.000Z</time>
      </trkpt>
      <trkpt lat="43.01916" lon="0.55745">
        <ele>808</ele>
        <time>2018-03-18T09:40:11.000Z</time>
      </trkpt>
      <trkpt lat="43.01916" lon="0.55745">
        <ele>808</ele>
        <time>2018-03-18T09:40:13.000Z</time>
      </trkpt>
      <trkpt lat="43.01916" lon="0.55745">
        <ele>808</ele>
        <time>2018-03-18T09:40:15.000Z</time>
      </trkpt>
      <trkpt lat="43.01916" lon="0.55745">
        <ele>808</ele>
        <time>2018-03-18T09:40:17.000Z</time>
      </trkpt>
      <trkpt lat="43.01915" lon="0.55745">
        <ele>808</ele>
        <time>2018-03-18T09:40:19.000Z</time>
      </trkpt>
      <trkpt lat="43.01915" lon="0.55745">
        <ele>808</ele>
        <time>2018-03-18T09:40:21.000Z</time>
      </trkpt>
      <trkpt lat="43.01915" lon="0.55744">
        <ele>808</ele>
        <time>2018-03-18T09:40:23.000Z</time>
      </trkpt>
      <trkpt lat="43.01914" lon="0.55744">
        <ele>808</ele>
        <time>2018-03-18T09:40:25.000Z</time>
      </trkpt>
      <trkpt lat="43.01914" lon="0.55744">
        <ele>808</ele>
        <time>2018-03-18T09:40:27.000Z</time>
      </trkpt>
      <trkpt lat="43.01915" lon="0.55743">
        <ele>808</ele>
        <time>2018-03-18T09:40:29.000Z</time>
      </trkpt>
      <trkpt lat="43.01915" lon="0.55743">
        <ele>808</ele>
        <time>2018-03-18T09:40:31.000Z</time>
      </trkpt>
      <trkpt lat="43.01914" lon="0.55743">
        <ele>808</ele>
        <time>2018-03-18T09:40:33.000Z</time>
      </trkpt>
      <trkpt lat="43.01914" lon="0.55743">
        <ele>808</ele>
        <time>2018-03-18T09:40:35.000Z</time>
      </trkpt>
      <trkpt lat="43.01914" lon="0.55743">
        <ele>808</ele>
        <time>2018-03-18T09:40:37.000Z</time>
      </trkpt>
      <trkpt lat="43.01914" lon="0.55743">
        <ele>808</ele>
        <time>2018-03-18T09:40:39.000Z</time>
      </trkpt>
      <trkpt lat="43.01914" lon="0.55743">
        <ele>808</ele>
        <time>2018-03-18T09:40:41.000Z</time>
      </trkpt>
      <trkpt lat="43.01913" lon="0.55744">
        <ele>808</ele>
        <time>2018-03-18T09:40:43.000Z</time>
      </trkpt>
      <trkpt lat="43.01914" lon="0.55744">
        <ele>808</ele>
        <time>2018-03-18T09:40:45.000Z</time>
      </trkpt>
      <trkpt lat="43.01914" lon="0.55744">
        <ele>808</ele>
        <time>2018-03-18T09:40:47.000Z</time>
      </trkpt>
      <trkpt lat="43.01913" lon="0.55745">
        <ele>808</ele>
        <time>2018-03-18T09:40:49.000Z</time>
      </trkpt>
      <trkpt lat="43.01912" lon="0.55745">
        <ele>808</ele>
        <time>2018-03-18T09:40:51.000Z</time>
      </trkpt>
      <trkpt lat="43.01912" lon="0.55745">
        <ele>808</ele>
        <time>2018-03-18T09:40:53.000Z</time>
      </trkpt>
      <trkpt lat="43.01911" lon="0.55746">
        <ele>808</ele>
        <time>2018-03-18T09:40:55.000Z</time>
      </trkpt>
      <trkpt lat="43.01911" lon="0.55746">
        <ele>808</ele>
        <time>2018-03-18T09:40:57.000Z</time>
      </trkpt>
      <trkpt lat="43.01911" lon="0.55746">
        <ele>808</ele>
        <time>2018-03-18T09:40:59.000Z</time>
      </trkpt>
      <trkpt lat="43.0191" lon="0.55745">
        <ele>808</ele>
        <time>2018-03-18T09:41:01.000Z</time>
      </trkpt>
      <trkpt lat="43.0191" lon="0.55746">
        <ele>808</ele>
        <time>2018-03-18T09:41:03.000Z</time>
      </trkpt>
      <trkpt lat="43.0191" lon="0.55746">
        <ele>808</ele>
        <time>2018-03-18T09:41:05.000Z</time>
      </trkpt>
      <trkpt lat="43.0191" lon="0.55746">
        <ele>808</ele>
        <time>2018-03-18T09:41:07.000Z</time>
      </trkpt>
      <trkpt lat="43.01911" lon="0.55745">
        <ele>808</ele>
        <time>2018-03-18T09:41:09.000Z</time>
      </trkpt>
      <trkpt lat="43.01911" lon="0.55744">
        <ele>808</ele>
        <time>2018-03-18T09:41:11.000Z</time>
      </trkpt>
      <trkpt lat="43.01911" lon="0.55744">
        <ele>808</ele>
        <time>2018-03-18T09:41:13.000Z</time>
      </trkpt>
      <trkpt lat="43.01912" lon="0.55744">
        <ele>808</ele>
        <time>2018-03-18T09:41:15.000Z</time>
      </trkpt>
      <trkpt lat="43.01913" lon="0.55744">
        <ele>808</ele>
        <time>2018-03-18T09:41:17.000Z</time>
      </trkpt>
      <trkpt lat="43.01913" lon="0.55744">
        <ele>808</ele>
        <time>2018-03-18T09:41:19.000Z</time>
      </trkpt>
      <trkpt lat="43.01914" lon="0.55745">
        <ele>808</ele>
        <time>2018-03-18T09:41:21.000Z</time>
      </trkpt>
      <trkpt lat="43.01914" lon="0.55745">
        <ele>808</ele>
        <time>2018-03-18T09:41:23.000Z</time>
      </trkpt>
      <trkpt lat="43.01915" lon="0.55745">
        <ele>808</ele>
        <time>2018-03-18T09:41:25.000Z</time>
      </trkpt>
      <trkpt lat="43.01915" lon="0.55745">
        <ele>808</ele>
        <time>2018-03-18T09:41:27.000Z</time>
      </trkpt>
      <trkpt lat="43.01916" lon="0.55745">
        <ele>808</ele>
        <time>2018-03-18T09:41:29.000Z</time>
      </trkpt>
      <trkpt lat="43.01916" lon="0.55745">
        <ele>808</ele>
        <time>2018-03-18T09:41:31.000Z</time>
      </trkpt>
      <trkpt lat="43.01915" lon="0.55745">
        <ele>808</ele>
        <time>2018-03-18T09:41:33.000Z</time>
      </trkpt>
      <trkpt lat="43.01915" lon="0.55745">
        <ele>808</ele>
        <time>2018-03-18T09:41:35.000Z</time>
      </trkpt>
      <trkpt lat="43.01915" lon="0.55745">
        <ele>808</ele>
        <time>2018-03-18T09:41:37.000Z</time>
      </trkpt>
      <trkpt lat="43.01915" lon="0.55746">
        <ele>808</ele>
        <time>2018-03-18T09:41:39.000Z</time>
      </trkpt>
      <trkpt lat="43.01915" lon="0.55746">
        <ele>808</ele>
        <time>2018-03-18T09:41:41.000Z</time>
      </trkpt>
      <trkpt lat="43.01915" lon="0.55746">
        <ele>808</ele>
        <time>2018-03-18T09:41:43.000Z</time>
      </trkpt>
      <trkpt lat="43.01915" lon="0.55746">
        <ele>808</ele>
        <time>2018-03-18T09:41:45.000Z</time>
      </trkpt>
      <trkpt lat="43.01914" lon="0.55747">
        <ele>808</ele>
        <time>2018-03-18T09:41:47.000Z</time>
      </trkpt>
      <trkpt lat="43.01914" lon="0.55746">
        <ele>808</ele>
        <time>2018-03-18T09:41:49.000Z</time>
      </trkpt>
      <trkpt lat="43.01914" lon="0.55746">
        <ele>808</ele>
        <time>2018-03-18T09:41:51.000Z</time>
      </trkpt>
      <trkpt lat="43.01914" lon="0.55747">
        <ele>808</ele>
        <time>2018-03-18T09:41:53.000Z</time>
      </trkpt>
      <trkpt lat="43.01914" lon="0.55747">
        <ele>808</ele>
        <time>2018-03-18T09:41:55.000Z</time>
      </trkpt>
      <trkpt lat="43.01914" lon="0.55747">
        <ele>808</ele>
        <time>2018-03-18T09:41:57.000Z</time>
      </trkpt>
      <trkpt lat="43.01914" lon="0.55747">
        <ele>808</ele>
        <time>2018-03-18T09:41:59.000Z</time>
      </trkpt>
      <trkpt lat="43.01914" lon="0.55748">
        <ele>808</ele>
        <time>2018-03-18T09:42:01.000Z</time>
      </trkpt>
      <trkpt lat="43.01914" lon="0.55748">
        <ele>808</ele>
        <time>2018-03-18T09:42:03.000Z</time>
      </trkpt>
      <trkpt lat="43.01914" lon="0.55748">
        <ele>808</ele>
        <time>2018-03-18T09:42:05.000Z</time>
      </trkpt>
      <trkpt lat="43.01913" lon="0.55749">
        <ele>808</ele>
        <time>2018-03-18T09:42:07.000Z</time>
      </trkpt>
      <trkpt lat="43.01914" lon="0.55749">
        <ele>808</ele>
        <time>2018-03-18T09:42:09.000Z</time>
      </trkpt>
      <trkpt lat="43.01915" lon="0.55749">
        <ele>808</ele>
        <time>2018-03-18T09:42:11.000Z</time>
      </trkpt>
      <trkpt lat="43.01915" lon="0.55749">
        <ele>807</ele>
        <time>2018-03-18T09:42:13.000Z</time>
      </trkpt>
      <trkpt lat="43.01916" lon="0.5575">
        <ele>807</ele>
        <time>2018-03-18T09:42:15.000Z</time>
      </trkpt>
      <trkpt lat="43.01915" lon="0.5575">
        <ele>807</ele>
        <time>2018-03-18T09:42:17.000Z</time>
      </trkpt>
      <trkpt lat="43.01915" lon="0.5575">
        <ele>807</ele>
        <time>2018-03-18T09:42:19.000Z</time>
      </trkpt>
      <trkpt lat="43.01915" lon="0.5575">
        <ele>808</ele>
        <time>2018-03-18T09:42:21.000Z</time>
      </trkpt>
      <trkpt lat="43.01915" lon="0.55749">
        <ele>808</ele>
        <time>2018-03-18T09:42:23.000Z</time>
      </trkpt>
      <trkpt lat="43.01914" lon="0.55749">
        <ele>808</ele>
        <time>2018-03-18T09:42:25.000Z</time>
      </trkpt>
      <trkpt lat="43.01914" lon="0.55749">
        <ele>808</ele>
        <time>2018-03-18T09:42:27.000Z</time>
      </trkpt>
      <trkpt lat="43.01915" lon="0.55749">
        <ele>807</ele>
        <time>2018-03-18T09:42:29.000Z</time>
      </trkpt>
      <trkpt lat="43.01916" lon="0.55749">
        <ele>807</ele>
        <time>2018-03-18T09:42:31.000Z</time>
      </trkpt>
      <trkpt lat="43.01917" lon="0.55749">
        <ele>807</ele>
        <time>2018-03-18T09:42:33.000Z</time>
      </trkpt>
      <trkpt lat="43.01918" lon="0.55749">
        <ele>807</ele>
        <time>2018-03-18T09:42:35.000Z</time>
      </trkpt>
      <trkpt lat="43.01919" lon="0.55749">
        <ele>807</ele>
        <time>2018-03-18T09:42:37.000Z</time>
      </trkpt>
      <trkpt lat="43.01921" lon="0.5575">
        <ele>807</ele>
        <time>2018-03-18T09:42:39.000Z</time>
      </trkpt>
      <trkpt lat="43.01921" lon="0.55749">
        <ele>807</ele>
        <time>2018-03-18T09:42:41.000Z</time>
      </trkpt>
      <trkpt lat="43.01921" lon="0.55749">
        <ele>807</ele>
        <time>2018-03-18T09:42:43.000Z</time>
      </trkpt>
      <trkpt lat="43.01921" lon="0.55749">
        <ele>807</ele>
        <time>2018-03-18T09:42:45.000Z</time>
      </trkpt>
      <trkpt lat="43.01921" lon="0.55748">
        <ele>807</ele>
        <time>2018-03-18T09:42:47.000Z</time>
      </trkpt>
      <trkpt lat="43.0192" lon="0.55748">
        <ele>807</ele>
        <time>2018-03-18T09:42:49.000Z</time>
      </trkpt>
      <trkpt lat="43.0192" lon="0.55748">
        <ele>807</ele>
        <time>2018-03-18T09:42:51.000Z</time>
      </trkpt>
      <trkpt lat="43.0192" lon="0.55748">
        <ele>807</ele>
        <time>2018-03-18T09:42:53.000Z</time>
      </trkpt>
      <trkpt lat="43.0192" lon="0.55748">
        <ele>807</ele>
        <time>2018-03-18T09:42:55.000Z</time>
      </trkpt>
      <trkpt lat="43.01919" lon="0.55748">
        <ele>807</ele>
        <time>2018-03-18T09:42:57.000Z</time>
      </trkpt>
      <trkpt lat="43.01918" lon="0.55748">
        <ele>807</ele>
        <time>2018-03-18T09:42:59.000Z</time>
      </trkpt>
      <trkpt lat="43.01916" lon="0.55748">
        <ele>807</ele>
        <time>2018-03-18T09:43:01.000Z</time>
      </trkpt>
      <trkpt lat="43.01915" lon="0.55748">
        <ele>807</ele>
        <time>2018-03-18T09:43:03.000Z</time>
      </trkpt>
      <trkpt lat="43.01915" lon="0.55747">
        <ele>808</ele>
        <time>2018-03-18T09:43:05.000Z</time>
      </trkpt>
      <trkpt lat="43.01914" lon="0.55747">
        <ele>808</ele>
        <time>2018-03-18T09:43:07.000Z</time>
      </trkpt>
      <trkpt lat="43.01913" lon="0.55747">
        <ele>808</ele>
        <time>2018-03-18T09:43:09.000Z</time>
      </trkpt>
      <trkpt lat="43.01913" lon="0.55747">
        <ele>808</ele>
        <time>2018-03-18T09:43:11.000Z</time>
      </trkpt>
      <trkpt lat="43.01913" lon="0.55747">
        <ele>808</ele>
        <time>2018-03-18T09:43:13.000Z</time>
      </trkpt>
      <trkpt lat="43.01912" lon="0.55747">
        <ele>808</ele>
        <time>2018-03-18T09:43:15.000Z</time>
      </trkpt>
      <trkpt lat="43.01912" lon="0.55747">
        <ele>808</ele>
        <time>2018-03-18T09:43:17.000Z</time>
      </trkpt>
      <trkpt lat="43.01912" lon="0.55747">
        <ele>808</ele>
        <time>2018-03-18T09:43:19.000Z</time>
      </trkpt>
      <trkpt lat="43.01911" lon="0.55747">
        <ele>808</ele>
        <time>2018-03-18T09:43:21.000Z</time>
      </trkpt>
      <trkpt lat="43.01911" lon="0.55747">
        <ele>808</ele>
        <time>2018-03-18T09:43:23.000Z</time>
      </trkpt>
      <trkpt lat="43.01912" lon="0.55747">
        <ele>808</ele>
        <time>2018-03-18T09:43:25.000Z</time>
      </trkpt>
      <trkpt lat="43.01912" lon="0.55747">
        <ele>808</ele>
        <time>2018-03-18T09:43:27.000Z</time>
      </trkpt>
      <trkpt lat="43.01912" lon="0.55747">
        <ele>808</ele>
        <time>2018-03-18T09:43:29.000Z</time>
      </trkpt>
      <trkpt lat="43.01912" lon="0.55747">
        <ele>808</ele>
        <time>2018-03-18T09:43:31.000Z</time>
      </trkpt>
      <trkpt lat="43.01911" lon="0.55747">
        <ele>808</ele>
        <time>2018-03-18T09:43:33.000Z</time>
      </trkpt>
      <trkpt lat="43.01911" lon="0.55748">
        <ele>808</ele>
        <time>2018-03-18T09:43:35.000Z</time>
      </trkpt>
      <trkpt lat="43.01912" lon="0.55747">
        <ele>808</ele>
        <time>2018-03-18T09:43:37.000Z</time>
      </trkpt>
      <trkpt lat="43.01912" lon="0.55747">
        <ele>808</ele>
        <time>2018-03-18T09:43:39.000Z</time>
      </trkpt>
      <trkpt lat="43.01912" lon="0.55747">
        <ele>808</ele>
        <time>2018-03-18T09:43:41.000Z</time>
      </trkpt>
      <trkpt lat="43.01912" lon="0.55747">
        <ele>808</ele>
        <time>2018-03-18T09:43:43.000Z</time>
      </trkpt>
      <trkpt lat="43.01913" lon="0.55747">
        <ele>808</ele>
        <time>2018-03-18T09:43:45.000Z</time>
      </trkpt>
      <trkpt lat="43.01913" lon="0.55748">
        <ele>808</ele>
        <time>2018-03-18T09:43:47.000Z</time>
      </trkpt>
      <trkpt lat="43.01913" lon="0.55748">
        <ele>808</ele>
        <time>2018-03-18T09:43:49.000Z</time>
      </trkpt>
      <trkpt lat="43.01913" lon="0.55748">
        <ele>808</ele>
        <time>2018-03-18T09:43:51.000Z</time>
      </trkpt>
      <trkpt lat="43.01913" lon="0.55748">
        <ele>808</ele>
        <time>2018-03-18T09:43:53.000Z</time>
      </trkpt>
      <trkpt lat="43.01913" lon="0.55749">
        <ele>808</ele>
        <time>2018-03-18T09:43:55.000Z</time>
      </trkpt>
      <trkpt lat="43.01913" lon="0.55749">
        <ele>808</ele>
        <time>2018-03-18T09:43:57.000Z</time>
      </trkpt>
      <trkpt lat="43.01913" lon="0.55749">
        <ele>808</ele>
        <time>2018-03-18T09:43:59.000Z</time>
      </trkpt>
      <trkpt lat="43.01913" lon="0.5575">
        <ele>808</ele>
        <time>2018-03-18T09:44:01.000Z</time>
      </trkpt>
      <trkpt lat="43.01913" lon="0.5575">
        <ele>808</ele>
        <time>2018-03-18T09:44:03.000Z</time>
      </trkpt>
      <trkpt lat="43.01913" lon="0.55751">
        <ele>808</ele>
        <time>2018-03-18T09:44:05.000Z</time>
      </trkpt>
      <trkpt lat="43.01913" lon="0.5575">
        <ele>808</ele>
        <time>2018-03-18T09:44:07.000Z</time>
      </trkpt>
      <trkpt lat="43.01913" lon="0.5575">
        <ele>808</ele>
        <time>2018-03-18T09:44:09.000Z</time>
      </trkpt>
      <trkpt lat="43.01912" lon="0.5575">
        <ele>808</ele>
        <time>2018-03-18T09:44:11.000Z</time>
      </trkpt>
      <trkpt lat="43.01912" lon="0.5575">
        <ele>808</ele>
        <time>2018-03-18T09:44:13.000Z</time>
      </trkpt>
      <trkpt lat="43.01912" lon="0.5575">
        <ele>808</ele>
        <time>2018-03-18T09:44:15.000Z</time>
      </trkpt>
      <trkpt lat="43.01912" lon="0.5575">
        <ele>808</ele>
        <time>2018-03-18T09:44:17.000Z</time>
      </trkpt>
      <trkpt lat="43.01912" lon="0.55749">
        <ele>808</ele>
        <time>2018-03-18T09:44:19.000Z</time>
      </trkpt>
      <trkpt lat="43.01911" lon="0.55749">
        <ele>808</ele>
        <time>2018-03-18T09:44:21.000Z</time>
      </trkpt>
      <trkpt lat="43.01912" lon="0.55749">
        <ele>808</ele>
        <time>2018-03-18T09:44:23.000Z</time>
      </trkpt>
      <trkpt lat="43.01912" lon="0.55749">
        <ele>808</ele>
        <time>2018-03-18T09:44:25.000Z</time>
      </trkpt>
      <trkpt lat="43.01912" lon="0.55749">
        <ele>808</ele>
        <time>2018-03-18T09:44:27.000Z</time>
      </trkpt>
      <trkpt lat="43.01912" lon="0.5575">
        <ele>808</ele>
        <time>2018-03-18T09:44:29.000Z</time>
      </trkpt>
      <trkpt lat="43.01912" lon="0.5575">
        <ele>808</ele>
        <time>2018-03-18T09:44:31.000Z</time>
      </trkpt>
      <trkpt lat="43.01912" lon="0.5575">
        <ele>808</ele>
        <time>2018-03-18T09:44:33.000Z</time>
      </trkpt>
      <trkpt lat="43.01912" lon="0.55751">
        <ele>808</ele>
        <time>2018-03-18T09:44:35.000Z</time>
      </trkpt>
      <trkpt lat="43.01911" lon="0.55751">
        <ele>808</ele>
        <time>2018-03-18T09:44:37.000Z</time>
      </trkpt>
      <trkpt lat="43.01912" lon="0.55751">
        <ele>808</ele>
        <time>2018-03-18T09:44:39.000Z</time>
      </trkpt>
      <trkpt lat="43.01912" lon="0.55752">
        <ele>808</ele>
        <time>2018-03-18T09:44:41.000Z</time>
      </trkpt>
      <trkpt lat="43.01912" lon="0.55752">
        <ele>808</ele>
        <time>2018-03-18T09:44:43.000Z</time>
      </trkpt>
      <trkpt lat="43.01912" lon="0.55753">
        <ele>808</ele>
        <time>2018-03-18T09:44:45.000Z</time>
      </trkpt>
      <trkpt lat="43.01912" lon="0.55754">
        <ele>808</ele>
        <time>2018-03-18T09:44:47.000Z</time>
      </trkpt>
      <trkpt lat="43.01911" lon="0.55754">
        <ele>808</ele>
        <time>2018-03-18T09:44:49.000Z</time>
      </trkpt>
      <trkpt lat="43.01911" lon="0.55755">
        <ele>808</ele>
        <time>2018-03-18T09:44:51.000Z</time>
      </trkpt>
      <trkpt lat="43.01911" lon="0.55757">
        <ele>808</ele>
        <time>2018-03-18T09:44:53.000Z</time>
      </trkpt>
      <trkpt lat="43.01911" lon="0.55759">
        <ele>808</ele>
        <time>2018-03-18T09:44:55.000Z</time>
      </trkpt>
      <trkpt lat="43.01911" lon="0.55762">
        <ele>808</ele>
        <time>2018-03-18T09:44:57.000Z</time>
      </trkpt>
      <trkpt lat="43.0191" lon="0.55763">
        <ele>808</ele>
        <time>2018-03-18T09:44:59.000Z</time>
      </trkpt>
      <trkpt lat="43.01909" lon="0.55764">
        <ele>808</ele>
        <time>2018-03-18T09:45:01.000Z</time>
      </trkpt>
      <trkpt lat="43.01908" lon="0.55765">
        <ele>808</ele>
        <time>2018-03-18T09:45:03.000Z</time>
      </trkpt>
      <trkpt lat="43.01907" lon="0.55766">
        <ele>808</ele>
        <time>2018-03-18T09:45:05.000Z</time>
      </trkpt>
      <trkpt lat="43.01906" lon="0.55766">
        <ele>808</ele>
        <time>2018-03-18T09:45:07.000Z</time>
      </trkpt>
      <trkpt lat="43.01904" lon="0.55767">
        <ele>808</ele>
        <time>2018-03-18T09:45:09.000Z</time>
      </trkpt>
      <trkpt lat="43.01902" lon="0.55768">
        <ele>809</ele>
        <time>2018-03-18T09:45:11.000Z</time>
      </trkpt>
      <trkpt lat="43.019" lon="0.55768">
        <ele>809</ele>
        <time>2018-03-18T09:45:13.000Z</time>
      </trkpt>
      <trkpt lat="43.01898" lon="0.55768">
        <ele>809</ele>
        <time>2018-03-18T09:45:15.000Z</time>
      </trkpt>
      <trkpt lat="43.01895" lon="0.55768">
        <ele>809</ele>
        <time>2018-03-18T09:45:17.000Z</time>
      </trkpt>
      <trkpt lat="43.01893" lon="0.55769">
        <ele>810</ele>
        <time>2018-03-18T09:45:19.000Z</time>
      </trkpt>
      <trkpt lat="43.0189" lon="0.55768">
        <ele>810</ele>
        <time>2018-03-18T09:45:21.000Z</time>
      </trkpt>
      <trkpt lat="43.01887" lon="0.55769">
        <ele>810</ele>
        <time>2018-03-18T09:45:23.000Z</time>
      </trkpt>
      <trkpt lat="43.01886" lon="0.55769">
        <ele>810</ele>
        <time>2018-03-18T09:45:25.000Z</time>
      </trkpt>
      <trkpt lat="43.01884" lon="0.5577">
        <ele>810</ele>
        <time>2018-03-18T09:45:27.000Z</time>
      </trkpt>
      <trkpt lat="43.01882" lon="0.5577">
        <ele>810</ele>
        <time>2018-03-18T09:45:29.000Z</time>
      </trkpt>
      <trkpt lat="43.0188" lon="0.55769">
        <ele>810</ele>
        <time>2018-03-18T09:45:31.000Z</time>
      </trkpt>
      <trkpt lat="43.01878" lon="0.55769">
        <ele>810</ele>
        <time>2018-03-18T09:45:33.000Z</time>
      </trkpt>
      <trkpt lat="43.01875" lon="0.5577">
        <ele>810</ele>
        <time>2018-03-18T09:45:35.000Z</time>
      </trkpt>
      <trkpt lat="43.01873" lon="0.55769">
        <ele>810</ele>
        <time>2018-03-18T09:45:37.000Z</time>
      </trkpt>
      <trkpt lat="43.01871" lon="0.55769">
        <ele>810</ele>
        <time>2018-03-18T09:45:39.000Z</time>
      </trkpt>
      <trkpt lat="43.01869" lon="0.55769">
        <ele>810</ele>
        <time>2018-03-18T09:45:41.000Z</time>
      </trkpt>
      <trkpt lat="43.01867" lon="0.55768">
        <ele>810</ele>
        <time>2018-03-18T09:45:43.000Z</time>
      </trkpt>
      <trkpt lat="43.01864" lon="0.55767">
        <ele>811</ele>
        <time>2018-03-18T09:45:45.000Z</time>
      </trkpt>
      <trkpt lat="43.01862" lon="0.55767">
        <ele>811</ele>
        <time>2018-03-18T09:45:47.000Z</time>
      </trkpt>
      <trkpt lat="43.01859" lon="0.55767">
        <ele>811</ele>
        <time>2018-03-18T09:45:49.000Z</time>
      </trkpt>
      <trkpt lat="43.01857" lon="0.55767">
        <ele>811</ele>
        <time>2018-03-18T09:45:51.000Z</time>
      </trkpt>
      <trkpt lat="43.01854" lon="0.55767">
        <ele>811</ele>
        <time>2018-03-18T09:45:53.000Z</time>
      </trkpt>
      <trkpt lat="43.01852" lon="0.55767">
        <ele>811</ele>
        <time>2018-03-18T09:45:55.000Z</time>
      </trkpt>
      <trkpt lat="43.0185" lon="0.55767">
        <ele>811</ele>
        <time>2018-03-18T09:45:57.000Z</time>
      </trkpt>
      <trkpt lat="43.01848" lon="0.55767">
        <ele>811</ele>
        <time>2018-03-18T09:45:59.000Z</time>
      </trkpt>
      <trkpt lat="43.01846" lon="0.55766">
        <ele>811</ele>
        <time>2018-03-18T09:46:01.000Z</time>
      </trkpt>
      <trkpt lat="43.01843" lon="0.55766">
        <ele>811</ele>
        <time>2018-03-18T09:46:03.000Z</time>
      </trkpt>
      <trkpt lat="43.01842" lon="0.55766">
        <ele>811</ele>
        <time>2018-03-18T09:46:05.000Z</time>
      </trkpt>
      <trkpt lat="43.0184" lon="0.55766">
        <ele>811</ele>
        <time>2018-03-18T09:46:07.000Z</time>
      </trkpt>
      <trkpt lat="43.01837" lon="0.55765">
        <ele>810</ele>
        <time>2018-03-18T09:46:09.000Z</time>
      </trkpt>
      <trkpt lat="43.01835" lon="0.55765">
        <ele>810</ele>
        <time>2018-03-18T09:46:11.000Z</time>
      </trkpt>
      <trkpt lat="43.01833" lon="0.55764">
        <ele>810</ele>
        <time>2018-03-18T09:46:13.000Z</time>
      </trkpt>
      <trkpt lat="43.01831" lon="0.55763">
        <ele>810</ele>
        <time>2018-03-18T09:46:15.000Z</time>
      </trkpt>
      <trkpt lat="43.0183" lon="0.55762">
        <ele>810</ele>
        <time>2018-03-18T09:46:17.000Z</time>
      </trkpt>
      <trkpt lat="43.01828" lon="0.5576">
        <ele>810</ele>
        <time>2018-03-18T09:46:19.000Z</time>
      </trkpt>
      <trkpt lat="43.01826" lon="0.55759">
        <ele>809</ele>
        <time>2018-03-18T09:46:21.000Z</time>
      </trkpt>
      <trkpt lat="43.01824" lon="0.55758">
        <ele>809</ele>
        <time>2018-03-18T09:46:23.000Z</time>
      </trkpt>
      <trkpt lat="43.01822" lon="0.55757">
        <ele>809</ele>
        <time>2018-03-18T09:46:25.000Z</time>
      </trkpt>
      <trkpt lat="43.0182" lon="0.55755">
        <ele>809</ele>
        <time>2018-03-18T09:46:27.000Z</time>
      </trkpt>
      <trkpt lat="43.01819" lon="0.55755">
        <ele>809</ele>
        <time>2018-03-18T09:46:29.000Z</time>
      </trkpt>
      <trkpt lat="43.01816" lon="0.55754">
        <ele>808</ele>
        <time>2018-03-18T09:46:31.000Z</time>
      </trkpt>
      <trkpt lat="43.01815" lon="0.55753">
        <ele>808</ele>
        <time>2018-03-18T09:46:33.000Z</time>
      </trkpt>
      <trkpt lat="43.01812" lon="0.55753">
        <ele>808</ele>
        <time>2018-03-18T09:46:35.000Z</time>
      </trkpt>
      <trkpt lat="43.01811" lon="0.55751">
        <ele>808</ele>
        <time>2018-03-18T09:46:37.000Z</time>
      </trkpt>
      <trkpt lat="43.0181" lon="0.5575">
        <ele>808</ele>
        <time>2018-03-18T09:46:39.000Z</time>
      </trkpt>
      <trkpt lat="43.01808" lon="0.5575">
        <ele>808</ele>
        <time>2018-03-18T09:46:41.000Z</time>
      </trkpt>
      <trkpt lat="43.01808" lon="0.55749">
        <ele>807</ele>
        <time>2018-03-18T09:46:43.000Z</time>
      </trkpt>
      <trkpt lat="43.01807" lon="0.55748">
        <ele>807</ele>
        <time>2018-03-18T09:46:45.000Z</time>
      </trkpt>
      <trkpt lat="43.01806" lon="0.55747">
        <ele>807</ele>
        <time>2018-03-18T09:46:47.000Z</time>
      </trkpt>
      <trkpt lat="43.01805" lon="0.55747">
        <ele>807</ele>
        <time>2018-03-18T09:46:49.000Z</time>
      </trkpt>
      <trkpt lat="43.01805" lon="0.55746">
        <ele>807</ele>
        <time>2018-03-18T09:46:51.000Z</time>
      </trkpt>
      <trkpt lat="43.01804" lon="0.55746">
        <ele>807</ele>
        <time>2018-03-18T09:46:53.000Z</time>
      </trkpt>
      <trkpt lat="43.01805" lon="0.55746">
        <ele>807</ele>
        <time>2018-03-18T09:46:55.000Z</time>
      </trkpt>
      <trkpt lat="43.01805" lon="0.55747">
        <ele>807</ele>
        <time>2018-03-18T09:46:57.000Z</time>
      </trkpt>
      <trkpt lat="43.01804" lon="0.55747">
        <ele>807</ele>
        <time>2018-03-18T09:46:59.000Z</time>
      </trkpt>
      <trkpt lat="43.01804" lon="0.55747">
        <ele>807</ele>
        <time>2018-03-18T09:47:01.000Z</time>
      </trkpt>
      <trkpt lat="43.01803" lon="0.55746">
        <ele>807</ele>
        <time>2018-03-18T09:47:03.000Z</time>
      </trkpt>
      <trkpt lat="43.01801" lon="0.55745">
        <ele>807</ele>
        <time>2018-03-18T09:47:05.000Z</time>
      </trkpt>
      <trkpt lat="43.018" lon="0.55744">
        <ele>807</ele>
        <time>2018-03-18T09:47:07.000Z</time>
      </trkpt>
      <trkpt lat="43.01798" lon="0.55742">
        <ele>807</ele>
        <time>2018-03-18T09:47:09.000Z</time>
      </trkpt>
      <trkpt lat="43.01796" lon="0.55739">
        <ele>807</ele>
        <time>2018-03-18T09:47:11.000Z</time>
      </trkpt>
      <trkpt lat="43.01796" lon="0.55737">
        <ele>807</ele>
        <time>2018-03-18T09:47:13.000Z</time>
      </trkpt>
      <trkpt lat="43.01795" lon="0.55735">
        <ele>807</ele>
        <time>2018-03-18T09:47:15.000Z</time>
      </trkpt>
      <trkpt lat="43.01795" lon="0.55732">
        <ele>807</ele>
        <time>2018-03-18T09:47:17.000Z</time>
      </trkpt>
      <trkpt lat="43.01794" lon="0.55729">
        <ele>807</ele>
        <time>2018-03-18T09:47:19.000Z</time>
      </trkpt>
      <trkpt lat="43.01793" lon="0.55727">
        <ele>808</ele>
        <time>2018-03-18T09:47:21.000Z</time>
      </trkpt>
      <trkpt lat="43.01792" lon="0.55725">
        <ele>808</ele>
        <time>2018-03-18T09:47:23.000Z</time>
      </trkpt>
      <trkpt lat="43.01791" lon="0.55723">
        <ele>808</ele>
        <time>2018-03-18T09:47:25.000Z</time>
      </trkpt>
      <trkpt lat="43.01789" lon="0.55721">
        <ele>808</ele>
        <time>2018-03-18T09:47:27.000Z</time>
      </trkpt>
      <trkpt lat="43.01788" lon="0.55719">
        <ele>808</ele>
        <time>2018-03-18T09:47:29.000Z</time>
      </trkpt>
      <trkpt lat="43.01787" lon="0.55718">
        <ele>808</ele>
        <time>2018-03-18T09:47:31.000Z</time>
      </trkpt>
      <trkpt lat="43.01786" lon="0.55717">
        <ele>807</ele>
        <time>2018-03-18T09:47:33.000Z</time>
      </trkpt>
      <trkpt lat="43.01784" lon="0.55716">
        <ele>807</ele>
        <time>2018-03-18T09:47:35.000Z</time>
      </trkpt>
      <trkpt lat="43.01783" lon="0.55715">
        <ele>807</ele>
        <time>2018-03-18T09:47:37.000Z</time>
      </trkpt>
      <trkpt lat="43.01783" lon="0.55714">
        <ele>807</ele>
        <time>2018-03-18T09:47:39.000Z</time>
      </trkpt>
      <trkpt lat="43.01782" lon="0.55714">
        <ele>807</ele>
        <time>2018-03-18T09:47:41.000Z</time>
      </trkpt>
      <trkpt lat="43.01781" lon="0.55714">
        <ele>807</ele>
        <time>2018-03-18T09:47:43.000Z</time>
      </trkpt>
      <trkpt lat="43.01781" lon="0.55713">
        <ele>806</ele>
        <time>2018-03-18T09:47:45.000Z</time>
      </trkpt>
      <trkpt lat="43.01781" lon="0.55712">
        <ele>806</ele>
        <time>2018-03-18T09:47:47.000Z</time>
      </trkpt>
      <trkpt lat="43.01781" lon="0.55711">
        <ele>806</ele>
        <time>2018-03-18T09:47:49.000Z</time>
      </trkpt>
      <trkpt lat="43.01781" lon="0.55711">
        <ele>806</ele>
        <time>2018-03-18T09:47:51.000Z</time>
      </trkpt>
      <trkpt lat="43.01781" lon="0.55711">
        <ele>806</ele>
        <time>2018-03-18T09:47:53.000Z</time>
      </trkpt>
      <trkpt lat="43.01781" lon="0.55711">
        <ele>806</ele>
        <time>2018-03-18T09:47:55.000Z</time>
      </trkpt>
      <trkpt lat="43.0178" lon="0.55711">
        <ele>806</ele>
        <time>2018-03-18T09:47:57.000Z</time>
      </trkpt>
      <trkpt lat="43.01779" lon="0.55711">
        <ele>806</ele>
        <time>2018-03-18T09:47:59.000Z</time>
      </trkpt>
      <trkpt lat="43.01778" lon="0.5571">
        <ele>806</ele>
        <time>2018-03-18T09:48:01.000Z</time>
      </trkpt>
      <trkpt lat="43.01777" lon="0.55711">
        <ele>806</ele>
        <time>2018-03-18T09:48:03.000Z</time>
      </trkpt>
      <trkpt lat="43.01777" lon="0.55711">
        <ele>806</ele>
        <time>2018-03-18T09:48:05.000Z</time>
      </trkpt>
      <trkpt lat="43.01776" lon="0.5571">
        <ele>805</ele>
        <time>2018-03-18T09:48:07.000Z</time>
      </trkpt>
      <trkpt lat="43.01776" lon="0.5571">
        <ele>805</ele>
        <time>2018-03-18T09:48:09.000Z</time>
      </trkpt>
      <trkpt lat="43.01776" lon="0.55709">
        <ele>805</ele>
        <time>2018-03-18T09:48:11.000Z</time>
      </trkpt>
      <trkpt lat="43.01776" lon="0.55708">
        <ele>805</ele>
        <time>2018-03-18T09:48:13.000Z</time>
      </trkpt>
      <trkpt lat="43.01775" lon="0.55707">
        <ele>805</ele>
        <time>2018-03-18T09:48:15.000Z</time>
      </trkpt>
      <trkpt lat="43.01775" lon="0.55707">
        <ele>805</ele>
        <time>2018-03-18T09:48:17.000Z</time>
      </trkpt>
      <trkpt lat="43.01775" lon="0.55706">
        <ele>805</ele>
        <time>2018-03-18T09:48:19.000Z</time>
      </trkpt>
      <trkpt lat="43.01775" lon="0.55706">
        <ele>805</ele>
        <time>2018-03-18T09:48:21.000Z</time>
      </trkpt>
      <trkpt lat="43.01776" lon="0.55705">
        <ele>805</ele>
        <time>2018-03-18T09:48:23.000Z</time>
      </trkpt>
      <trkpt lat="43.01775" lon="0.55705">
        <ele>805</ele>
        <time>2018-03-18T09:48:25.000Z</time>
      </trkpt>
      <trkpt lat="43.01775" lon="0.55705">
        <ele>805</ele>
        <time>2018-03-18T09:48:27.000Z</time>
      </trkpt>
      <trkpt lat="43.01775" lon="0.55705">
        <ele>805</ele>
        <time>2018-03-18T09:48:29.000Z</time>
      </trkpt>
      <trkpt lat="43.01774" lon="0.55705">
        <ele>805</ele>
        <time>2018-03-18T09:48:31.000Z</time>
      </trkpt>
      <trkpt lat="43.01774" lon="0.55704">
        <ele>805</ele>
        <time>2018-03-18T09:48:33.000Z</time>
      </trkpt>
      <trkpt lat="43.01774" lon="0.55704">
        <ele>805</ele>
        <time>2018-03-18T09:48:35.000Z</time>
      </trkpt>
      <trkpt lat="43.01774" lon="0.55704">
        <ele>805</ele>
        <time>2018-03-18T09:48:37.000Z</time>
      </trkpt>
      <trkpt lat="43.01773" lon="0.55703">
        <ele>804</ele>
        <time>2018-03-18T09:48:39.000Z</time>
      </trkpt>
      <trkpt lat="43.01773" lon="0.55703">
        <ele>804</ele>
        <time>2018-03-18T09:48:41.000Z</time>
      </trkpt>
      <trkpt lat="43.01773" lon="0.55703">
        <ele>804</ele>
        <time>2018-03-18T09:48:43.000Z</time>
      </trkpt>
      <trkpt lat="43.01773" lon="0.55703">
        <ele>804</ele>
        <time>2018-03-18T09:48:45.000Z</time>
      </trkpt>
      <trkpt lat="43.01774" lon="0.55703">
        <ele>804</ele>
        <time>2018-03-18T09:48:47.000Z</time>
      </trkpt>
      <trkpt lat="43.01773" lon="0.55703">
        <ele>804</ele>
        <time>2018-03-18T09:48:49.000Z</time>
      </trkpt>
      <trkpt lat="43.01773" lon="0.55703">
        <ele>804</ele>
        <time>2018-03-18T09:48:51.000Z</time>
      </trkpt>
      <trkpt lat="43.01773" lon="0.55703">
        <ele>804</ele>
        <time>2018-03-18T09:48:53.000Z</time>
      </trkpt>
      <trkpt lat="43.01772" lon="0.55705">
        <ele>804</ele>
        <time>2018-03-18T09:48:55.000Z</time>
      </trkpt>
      <trkpt lat="43.01772" lon="0.55705">
        <ele>804</ele>
        <time>2018-03-18T09:48:57.000Z</time>
      </trkpt>
      <trkpt lat="43.01771" lon="0.55705">
        <ele>804</ele>
        <time>2018-03-18T09:48:59.000Z</time>
      </trkpt>
      <trkpt lat="43.01771" lon="0.55705">
        <ele>804</ele>
        <time>2018-03-18T09:49:01.000Z</time>
      </trkpt>
      <trkpt lat="43.01771" lon="0.55705">
        <ele>804</ele>
        <time>2018-03-18T09:49:03.000Z</time>
      </trkpt>
      <trkpt lat="43.01771" lon="0.55706">
        <ele>804</ele>
        <time>2018-03-18T09:49:05.000Z</time>
      </trkpt>
      <trkpt lat="43.01771" lon="0.55705">
        <ele>804</ele>
        <time>2018-03-18T09:49:07.000Z</time>
      </trkpt>
      <trkpt lat="43.01771" lon="0.55705">
        <ele>804</ele>
        <time>2018-03-18T09:49:09.000Z</time>
      </trkpt>
      <trkpt lat="43.01771" lon="0.55705">
        <ele>804</ele>
        <time>2018-03-18T09:49:11.000Z</time>
      </trkpt>
      <trkpt lat="43.01771" lon="0.55704">
        <ele>804</ele>
        <time>2018-03-18T09:49:13.000Z</time>
      </trkpt>
      <trkpt lat="43.0177" lon="0.55705">
        <ele>804</ele>
        <time>2018-03-18T09:49:15.000Z</time>
      </trkpt>
      <trkpt lat="43.0177" lon="0.55705">
        <ele>804</ele>
        <time>2018-03-18T09:49:17.000Z</time>
      </trkpt>
      <trkpt lat="43.0177" lon="0.55704">
        <ele>804</ele>
        <time>2018-03-18T09:49:19.000Z</time>
      </trkpt>
      <trkpt lat="43.0177" lon="0.55704">
        <ele>804</ele>
        <time>2018-03-18T09:49:21.000Z</time>
      </trkpt>
      <trkpt lat="43.0177" lon="0.55704">
        <ele>804</ele>
        <time>2018-03-18T09:49:23.000Z</time>
      </trkpt>
      <trkpt lat="43.0177" lon="0.55704">
        <ele>804</ele>
        <time>2018-03-18T09:49:25.000Z</time>
      </trkpt>
      <trkpt lat="43.01769" lon="0.55705">
        <ele>804</ele>
        <time>2018-03-18T09:49:27.000Z</time>
      </trkpt>
      <trkpt lat="43.01767" lon="0.55705">
        <ele>804</ele>
        <time>2018-03-18T09:49:29.000Z</time>
      </trkpt>
      <trkpt lat="43.01766" lon="0.55705">
        <ele>803</ele>
        <time>2018-03-18T09:49:31.000Z</time>
      </trkpt>
      <trkpt lat="43.01766" lon="0.55705">
        <ele>803</ele>
        <time>2018-03-18T09:49:33.000Z</time>
      </trkpt>
      <trkpt lat="43.01764" lon="0.55705">
        <ele>803</ele>
        <time>2018-03-18T09:49:35.000Z</time>
      </trkpt>
      <trkpt lat="43.01764" lon="0.55706">
        <ele>803</ele>
        <time>2018-03-18T09:49:37.000Z</time>
      </trkpt>
      <trkpt lat="43.01764" lon="0.55706">
        <ele>803</ele>
        <time>2018-03-18T09:49:39.000Z</time>
      </trkpt>
      <trkpt lat="43.01763" lon="0.55706">
        <ele>803</ele>
        <time>2018-03-18T09:49:41.000Z</time>
      </trkpt>
      <trkpt lat="43.01763" lon="0.55706">
        <ele>803</ele>
        <time>2018-03-18T09:49:43.000Z</time>
      </trkpt>
      <trkpt lat="43.01763" lon="0.55705">
        <ele>803</ele>
        <time>2018-03-18T09:49:45.000Z</time>
      </trkpt>
      <trkpt lat="43.01763" lon="0.55705">
        <ele>803</ele>
        <time>2018-03-18T09:49:47.000Z</time>
      </trkpt>
      <trkpt lat="43.01763" lon="0.55704">
        <ele>803</ele>
        <time>2018-03-18T09:49:49.000Z</time>
      </trkpt>
      <trkpt lat="43.01764" lon="0.55704">
        <ele>803</ele>
        <time>2018-03-18T09:49:51.000Z</time>
      </trkpt>
      <trkpt lat="43.01763" lon="0.55703">
        <ele>803</ele>
        <time>2018-03-18T09:49:53.000Z</time>
      </trkpt>
      <trkpt lat="43.01763" lon="0.55702">
        <ele>803</ele>
        <time>2018-03-18T09:49:55.000Z</time>
      </trkpt>
      <trkpt lat="43.01762" lon="0.55702">
        <ele>802</ele>
        <time>2018-03-18T09:49:57.000Z</time>
      </trkpt>
      <trkpt lat="43.01763" lon="0.55701">
        <ele>802</ele>
        <time>2018-03-18T09:49:59.000Z</time>
      </trkpt>
      <trkpt lat="43.01763" lon="0.55701">
        <ele>803</ele>
        <time>2018-03-18T09:50:01.000Z</time>
      </trkpt>
      <trkpt lat="43.01763" lon="0.557">
        <ele>803</ele>
        <time>2018-03-18T09:50:03.000Z</time>
      </trkpt>
      <trkpt lat="43.01763" lon="0.557">
        <ele>802</ele>
        <time>2018-03-18T09:50:05.000Z</time>
      </trkpt>
      <trkpt lat="43.01763" lon="0.557">
        <ele>802</ele>
        <time>2018-03-18T09:50:07.000Z</time>
      </trkpt>
      <trkpt lat="43.01763" lon="0.557">
        <ele>802</ele>
        <time>2018-03-18T09:50:09.000Z</time>
      </trkpt>
      <trkpt lat="43.01762" lon="0.557">
        <ele>802</ele>
        <time>2018-03-18T09:50:11.000Z</time>
      </trkpt>
      <trkpt lat="43.01761" lon="0.55701">
        <ele>802</ele>
        <time>2018-03-18T09:50:13.000Z</time>
      </trkpt>
      <trkpt lat="43.01761" lon="0.55701">
        <ele>802</ele>
        <time>2018-03-18T09:50:15.000Z</time>
      </trkpt>
      <trkpt lat="43.0176" lon="0.55702">
        <ele>802</ele>
        <time>2018-03-18T09:50:17.000Z</time>
      </trkpt>
      <trkpt lat="43.01759" lon="0.55703">
        <ele>802</ele>
        <time>2018-03-18T09:50:19.000Z</time>
      </trkpt>
      <trkpt lat="43.01758" lon="0.55704">
        <ele>802</ele>
        <time>2018-03-18T09:50:21.000Z</time>
      </trkpt>
      <trkpt lat="43.01757" lon="0.55706">
        <ele>802</ele>
        <time>2018-03-18T09:50:23.000Z</time>
      </trkpt>
      <trkpt lat="43.01755" lon="0.55706">
        <ele>801</ele>
        <time>2018-03-18T09:50:25.000Z</time>
      </trkpt>
      <trkpt lat="43.01755" lon="0.55706">
        <ele>801</ele>
        <time>2018-03-18T09:50:27.000Z</time>
      </trkpt>
      <trkpt lat="43.01753" lon="0.55706">
        <ele>801</ele>
        <time>2018-03-18T09:50:29.000Z</time>
      </trkpt>
      <trkpt lat="43.01753" lon="0.55706">
        <ele>801</ele>
        <time>2018-03-18T09:50:31.000Z</time>
      </trkpt>
      <trkpt lat="43.01752" lon="0.55705">
        <ele>800</ele>
        <time>2018-03-18T09:50:33.000Z</time>
      </trkpt>
      <trkpt lat="43.01751" lon="0.55705">
        <ele>800</ele>
        <time>2018-03-18T09:50:35.000Z</time>
      </trkpt>
      <trkpt lat="43.0175" lon="0.55705">
        <ele>800</ele>
        <time>2018-03-18T09:50:37.000Z</time>
      </trkpt>
      <trkpt lat="43.01748" lon="0.55705">
        <ele>799</ele>
        <time>2018-03-18T09:50:39.000Z</time>
      </trkpt>
      <trkpt lat="43.01747" lon="0.55705">
        <ele>799</ele>
        <time>2018-03-18T09:50:41.000Z</time>
      </trkpt>
      <trkpt lat="43.01746" lon="0.55705">
        <ele>799</ele>
        <time>2018-03-18T09:50:43.000Z</time>
      </trkpt>
      <trkpt lat="43.01744" lon="0.55705">
        <ele>798</ele>
        <time>2018-03-18T09:50:45.000Z</time>
      </trkpt>
      <trkpt lat="43.01743" lon="0.55705">
        <ele>797</ele>
        <time>2018-03-18T09:50:47.000Z</time>
      </trkpt>
      <trkpt lat="43.01741" lon="0.55706">
        <ele>797</ele>
        <time>2018-03-18T09:50:49.000Z</time>
      </trkpt>
      <trkpt lat="43.0174" lon="0.55706">
        <ele>796</ele>
        <time>2018-03-18T09:50:51.000Z</time>
      </trkpt>
      <trkpt lat="43.01739" lon="0.55705">
        <ele>796</ele>
        <time>2018-03-18T09:50:53.000Z</time>
      </trkpt>
      <trkpt lat="43.01738" lon="0.55705">
        <ele>795</ele>
        <time>2018-03-18T09:50:55.000Z</time>
      </trkpt>
      <trkpt lat="43.01737" lon="0.55705">
        <ele>795</ele>
        <time>2018-03-18T09:50:57.000Z</time>
      </trkpt>
      <trkpt lat="43.01736" lon="0.55706">
        <ele>795</ele>
        <time>2018-03-18T09:50:59.000Z</time>
      </trkpt>
      <trkpt lat="43.01735" lon="0.55705">
        <ele>794</ele>
        <time>2018-03-18T09:51:01.000Z</time>
      </trkpt>
      <trkpt lat="43.01734" lon="0.55705">
        <ele>794</ele>
        <time>2018-03-18T09:51:03.000Z</time>
      </trkpt>
      <trkpt lat="43.01732" lon="0.55705">
        <ele>793</ele>
        <time>2018-03-18T09:51:05.000Z</time>
      </trkpt>
      <trkpt lat="43.01732" lon="0.55704">
        <ele>793</ele>
        <time>2018-03-18T09:51:07.000Z</time>
      </trkpt>
      <trkpt lat="43.01731" lon="0.55703">
        <ele>793</ele>
        <time>2018-03-18T09:51:09.000Z</time>
      </trkpt>
      <trkpt lat="43.01729" lon="0.55702">
        <ele>792</ele>
        <time>2018-03-18T09:51:11.000Z</time>
      </trkpt>
      <trkpt lat="43.01728" lon="0.55702">
        <ele>792</ele>
        <time>2018-03-18T09:51:13.000Z</time>
      </trkpt>
      <trkpt lat="43.01727" lon="0.55701">
        <ele>791</ele>
        <time>2018-03-18T09:51:15.000Z</time>
      </trkpt>
      <trkpt lat="43.01726" lon="0.55701">
        <ele>791</ele>
        <time>2018-03-18T09:51:17.000Z</time>
      </trkpt>
      <trkpt lat="43.01726" lon="0.55701">
        <ele>791</ele>
        <time>2018-03-18T09:51:19.000Z</time>
      </trkpt>
      <trkpt lat="43.01724" lon="0.55701">
        <ele>790</ele>
        <time>2018-03-18T09:51:21.000Z</time>
      </trkpt>
      <trkpt lat="43.01724" lon="0.55701">
        <ele>790</ele>
        <time>2018-03-18T09:51:23.000Z</time>
      </trkpt>
      <trkpt lat="43.01723" lon="0.55701">
        <ele>790</ele>
        <time>2018-03-18T09:51:25.000Z</time>
      </trkpt>
      <trkpt lat="43.01723" lon="0.55701">
        <ele>789</ele>
        <time>2018-03-18T09:51:27.000Z</time>
      </trkpt>
      <trkpt lat="43.01722" lon="0.55701">
        <ele>789</ele>
        <time>2018-03-18T09:51:29.000Z</time>
      </trkpt>
      <trkpt lat="43.01721" lon="0.55701">
        <ele>789</ele>
        <time>2018-03-18T09:51:31.000Z</time>
      </trkpt>
      <trkpt lat="43.0172" lon="0.55701">
        <ele>788</ele>
        <time>2018-03-18T09:51:33.000Z</time>
      </trkpt>
      <trkpt lat="43.01719" lon="0.55701">
        <ele>788</ele>
        <time>2018-03-18T09:51:35.000Z</time>
      </trkpt>
      <trkpt lat="43.01718" lon="0.557">
        <ele>788</ele>
        <time>2018-03-18T09:51:37.000Z</time>
      </trkpt>
      <trkpt lat="43.01717" lon="0.557">
        <ele>787</ele>
        <time>2018-03-18T09:51:39.000Z</time>
      </trkpt>
      <trkpt lat="43.01716" lon="0.557">
        <ele>787</ele>
        <time>2018-03-18T09:51:41.000Z</time>
      </trkpt>
      <trkpt lat="43.01716" lon="0.557">
        <ele>787</ele>
        <time>2018-03-18T09:51:43.000Z</time>
      </trkpt>
      <trkpt lat="43.01715" lon="0.557">
        <ele>786</ele>
        <time>2018-03-18T09:51:45.000Z</time>
      </trkpt>
      <trkpt lat="43.01715" lon="0.55699">
        <ele>786</ele>
        <time>2018-03-18T09:51:47.000Z</time>
      </trkpt>
      <trkpt lat="43.01714" lon="0.557">
        <ele>786</ele>
        <time>2018-03-18T09:51:49.000Z</time>
      </trkpt>
      <trkpt lat="43.01714" lon="0.557">
        <ele>786</ele>
        <time>2018-03-18T09:51:51.000Z</time>
      </trkpt>
      <trkpt lat="43.01714" lon="0.55701">
        <ele>786</ele>
        <time>2018-03-18T09:51:53.000Z</time>
      </trkpt>
      <trkpt lat="43.01713" lon="0.55701">
        <ele>786</ele>
        <time>2018-03-18T09:51:55.000Z</time>
      </trkpt>
      <trkpt lat="43.01714" lon="0.55701">
        <ele>786</ele>
        <time>2018-03-18T09:51:57.000Z</time>
      </trkpt>
      <trkpt lat="43.01714" lon="0.55701">
        <ele>786</ele>
        <time>2018-03-18T09:51:59.000Z</time>
      </trkpt>
      <trkpt lat="43.01714" lon="0.55701">
        <ele>786</ele>
        <time>2018-03-18T09:52:01.000Z</time>
      </trkpt>
      <trkpt lat="43.01714" lon="0.55701">
        <ele>786</ele>
        <time>2018-03-18T09:52:03.000Z</time>
      </trkpt>
      <trkpt lat="43.01714" lon="0.55701">
        <ele>786</ele>
        <time>2018-03-18T09:52:05.000Z</time>
      </trkpt>
      <trkpt lat="43.01714" lon="0.55701">
        <ele>786</ele>
        <time>2018-03-18T09:52:07.000Z</time>
      </trkpt>
      <trkpt lat="43.01714" lon="0.557">
        <ele>786</ele>
        <time>2018-03-18T09:52:09.000Z</time>
      </trkpt>
      <trkpt lat="43.01715" lon="0.557">
        <ele>786</ele>
        <time>2018-03-18T09:52:11.000Z</time>
      </trkpt>
      <trkpt lat="43.01715" lon="0.55699">
        <ele>787</ele>
        <time>2018-03-18T09:52:13.000Z</time>
      </trkpt>
      <trkpt lat="43.01716" lon="0.55697">
        <ele>787</ele>
        <time>2018-03-18T09:52:15.000Z</time>
      </trkpt>
      <trkpt lat="43.01716" lon="0.55697">
        <ele>787</ele>
        <time>2018-03-18T09:52:17.000Z</time>
      </trkpt>
      <trkpt lat="43.01716" lon="0.55697">
        <ele>787</ele>
        <time>2018-03-18T09:52:19.000Z</time>
      </trkpt>
      <trkpt lat="43.01715" lon="0.55696">
        <ele>787</ele>
        <time>2018-03-18T09:52:21.000Z</time>
      </trkpt>
      <trkpt lat="43.01717" lon="0.55695">
        <ele>787</ele>
        <time>2018-03-18T09:52:23.000Z</time>
      </trkpt>
      <trkpt lat="43.01717" lon="0.55695">
        <ele>788</ele>
        <time>2018-03-18T09:52:25.000Z</time>
      </trkpt>
      <trkpt lat="43.01718" lon="0.55694">
        <ele>788</ele>
        <time>2018-03-18T09:52:27.000Z</time>
      </trkpt>
      <trkpt lat="43.01718" lon="0.55693">
        <ele>788</ele>
        <time>2018-03-18T09:52:29.000Z</time>
      </trkpt>
      <trkpt lat="43.01719" lon="0.55694">
        <ele>788</ele>
        <time>2018-03-18T09:52:31.000Z</time>
      </trkpt>
      <trkpt lat="43.01718" lon="0.55694">
        <ele>788</ele>
        <time>2018-03-18T09:52:33.000Z</time>
      </trkpt>
      <trkpt lat="43.01718" lon="0.55695">
        <ele>788</ele>
        <time>2018-03-18T09:52:35.000Z</time>
      </trkpt>
      <trkpt lat="43.01718" lon="0.55695">
        <ele>788</ele>
        <time>2018-03-18T09:52:37.000Z</time>
      </trkpt>
      <trkpt lat="43.01718" lon="0.55695">
        <ele>788</ele>
        <time>2018-03-18T09:52:39.000Z</time>
      </trkpt>
      <trkpt lat="43.01717" lon="0.55695">
        <ele>788</ele>
        <time>2018-03-18T09:52:41.000Z</time>
      </trkpt>
      <trkpt lat="43.01717" lon="0.55696">
        <ele>787</ele>
        <time>2018-03-18T09:52:43.000Z</time>
      </trkpt>
      <trkpt lat="43.01716" lon="0.55696">
        <ele>787</ele>
        <time>2018-03-18T09:52:45.000Z</time>
      </trkpt>
      <trkpt lat="43.01715" lon="0.55696">
        <ele>787</ele>
        <time>2018-03-18T09:52:47.000Z</time>
      </trkpt>
      <trkpt lat="43.01715" lon="0.55695">
        <ele>787</ele>
        <time>2018-03-18T09:52:49.000Z</time>
      </trkpt>
      <trkpt lat="43.01714" lon="0.55694">
        <ele>786</ele>
        <time>2018-03-18T09:52:51.000Z</time>
      </trkpt>
      <trkpt lat="43.01713" lon="0.55694">
        <ele>786</ele>
        <time>2018-03-18T09:52:53.000Z</time>
      </trkpt>
      <trkpt lat="43.01713" lon="0.55694">
        <ele>786</ele>
        <time>2018-03-18T09:52:55.000Z</time>
      </trkpt>
      <trkpt lat="43.01711" lon="0.55695">
        <ele>785</ele>
        <time>2018-03-18T09:52:57.000Z</time>
      </trkpt>
      <trkpt lat="43.01711" lon="0.55695">
        <ele>785</ele>
        <time>2018-03-18T09:52:59.000Z</time>
      </trkpt>
      <trkpt lat="43.0171" lon="0.55695">
        <ele>785</ele>
        <time>2018-03-18T09:53:01.000Z</time>
      </trkpt>
      <trkpt lat="43.0171" lon="0.55695">
        <ele>785</ele>
        <time>2018-03-18T09:53:03.000Z</time>
      </trkpt>
      <trkpt lat="43.01709" lon="0.55696">
        <ele>784</ele>
        <time>2018-03-18T09:53:05.000Z</time>
      </trkpt>
      <trkpt lat="43.01708" lon="0.55696">
        <ele>784</ele>
        <time>2018-03-18T09:53:07.000Z</time>
      </trkpt>
      <trkpt lat="43.01708" lon="0.55695">
        <ele>784</ele>
        <time>2018-03-18T09:53:09.000Z</time>
      </trkpt>
      <trkpt lat="43.01708" lon="0.55696">
        <ele>784</ele>
        <time>2018-03-18T09:53:11.000Z</time>
      </trkpt>
      <trkpt lat="43.01707" lon="0.55695">
        <ele>784</ele>
        <time>2018-03-18T09:53:13.000Z</time>
      </trkpt>
      <trkpt lat="43.01707" lon="0.55695">
        <ele>784</ele>
        <time>2018-03-18T09:53:15.000Z</time>
      </trkpt>
      <trkpt lat="43.01707" lon="0.55695">
        <ele>783</ele>
        <time>2018-03-18T09:53:17.000Z</time>
      </trkpt>
      <trkpt lat="43.01706" lon="0.55695">
        <ele>783</ele>
        <time>2018-03-18T09:53:19.000Z</time>
      </trkpt>
      <trkpt lat="43.01705" lon="0.55694">
        <ele>783</ele>
        <time>2018-03-18T09:53:21.000Z</time>
      </trkpt>
      <trkpt lat="43.01703" lon="0.55694">
        <ele>782</ele>
        <time>2018-03-18T09:53:23.000Z</time>
      </trkpt>
      <trkpt lat="43.01702" lon="0.55693">
        <ele>782</ele>
        <time>2018-03-18T09:53:25.000Z</time>
      </trkpt>
      <trkpt lat="43.017" lon="0.55694">
        <ele>781</ele>
        <time>2018-03-18T09:53:27.000Z</time>
      </trkpt>
      <trkpt lat="43.01699" lon="0.55693">
        <ele>781</ele>
        <time>2018-03-18T09:53:29.000Z</time>
      </trkpt>
      <trkpt lat="43.01699" lon="0.55693">
        <ele>780</ele>
        <time>2018-03-18T09:53:31.000Z</time>
      </trkpt>
      <trkpt lat="43.01697" lon="0.55693">
        <ele>780</ele>
        <time>2018-03-18T09:53:33.000Z</time>
      </trkpt>
      <trkpt lat="43.01696" lon="0.55693">
        <ele>779</ele>
        <time>2018-03-18T09:53:35.000Z</time>
      </trkpt>
      <trkpt lat="43.01695" lon="0.55695">
        <ele>779</ele>
        <time>2018-03-18T09:53:37.000Z</time>
      </trkpt>
      <trkpt lat="43.01693" lon="0.55695">
        <ele>778</ele>
        <time>2018-03-18T09:53:39.000Z</time>
      </trkpt>
      <trkpt lat="43.01692" lon="0.55695">
        <ele>777</ele>
        <time>2018-03-18T09:53:41.000Z</time>
      </trkpt>
      <trkpt lat="43.01692" lon="0.55693">
        <ele>777</ele>
        <time>2018-03-18T09:53:43.000Z</time>
      </trkpt>
      <trkpt lat="43.01691" lon="0.55694">
        <ele>777</ele>
        <time>2018-03-18T09:53:45.000Z</time>
      </trkpt>
      <trkpt lat="43.0169" lon="0.55694">
        <ele>777</ele>
        <time>2018-03-18T09:53:47.000Z</time>
      </trkpt>
      <trkpt lat="43.01689" lon="0.55694">
        <ele>776</ele>
        <time>2018-03-18T09:53:49.000Z</time>
      </trkpt>
      <trkpt lat="43.01687" lon="0.55694">
        <ele>775</ele>
        <time>2018-03-18T09:53:51.000Z</time>
      </trkpt>
      <trkpt lat="43.01686" lon="0.55693">
        <ele>775</ele>
        <time>2018-03-18T09:53:53.000Z</time>
      </trkpt>
      <trkpt lat="43.01685" lon="0.55693">
        <ele>775</ele>
        <time>2018-03-18T09:53:55.000Z</time>
      </trkpt>
      <trkpt lat="43.01684" lon="0.55693">
        <ele>774</ele>
        <time>2018-03-18T09:53:57.000Z</time>
      </trkpt>
      <trkpt lat="43.01683" lon="0.55692">
        <ele>774</ele>
        <time>2018-03-18T09:53:59.000Z</time>
      </trkpt>
      <trkpt lat="43.01682" lon="0.55691">
        <ele>774</ele>
        <time>2018-03-18T09:54:01.000Z</time>
      </trkpt>
      <trkpt lat="43.01682" lon="0.5569">
        <ele>774</ele>
        <time>2018-03-18T09:54:03.000Z</time>
      </trkpt>
      <trkpt lat="43.01682" lon="0.5569">
        <ele>774</ele>
        <time>2018-03-18T09:54:05.000Z</time>
      </trkpt>
      <trkpt lat="43.01682" lon="0.5569">
        <ele>774</ele>
        <time>2018-03-18T09:54:07.000Z</time>
      </trkpt>
      <trkpt lat="43.01681" lon="0.5569">
        <ele>773</ele>
        <time>2018-03-18T09:54:09.000Z</time>
      </trkpt>
      <trkpt lat="43.0168" lon="0.55689">
        <ele>773</ele>
        <time>2018-03-18T09:54:11.000Z</time>
      </trkpt>
      <trkpt lat="43.0168" lon="0.55688">
        <ele>773</ele>
        <time>2018-03-18T09:54:13.000Z</time>
      </trkpt>
      <trkpt lat="43.01679" lon="0.55687">
        <ele>773</ele>
        <time>2018-03-18T09:54:15.000Z</time>
      </trkpt>
      <trkpt lat="43.01678" lon="0.55685">
        <ele>772</ele>
        <time>2018-03-18T09:54:17.000Z</time>
      </trkpt>
      <trkpt lat="43.01678" lon="0.55685">
        <ele>772</ele>
        <time>2018-03-18T09:54:19.000Z</time>
      </trkpt>
      <trkpt lat="43.01676" lon="0.55684">
        <ele>772</ele>
        <time>2018-03-18T09:54:21.000Z</time>
      </trkpt>
      <trkpt lat="43.01676" lon="0.55682">
        <ele>772</ele>
        <time>2018-03-18T09:54:23.000Z</time>
      </trkpt>
      <trkpt lat="43.01675" lon="0.55681">
        <ele>772</ele>
        <time>2018-03-18T09:54:25.000Z</time>
      </trkpt>
      <trkpt lat="43.01674" lon="0.5568">
        <ele>771</ele>
        <time>2018-03-18T09:54:27.000Z</time>
      </trkpt>
      <trkpt lat="43.01673" lon="0.55679">
        <ele>771</ele>
        <time>2018-03-18T09:54:29.000Z</time>
      </trkpt>
      <trkpt lat="43.01672" lon="0.55679">
        <ele>770</ele>
        <time>2018-03-18T09:54:31.000Z</time>
      </trkpt>
      <trkpt lat="43.01671" lon="0.55677">
        <ele>770</ele>
        <time>2018-03-18T09:54:33.000Z</time>
      </trkpt>
      <trkpt lat="43.0167" lon="0.55675">
        <ele>770</ele>
        <time>2018-03-18T09:54:35.000Z</time>
      </trkpt>
      <trkpt lat="43.0167" lon="0.55674">
        <ele>770</ele>
        <time>2018-03-18T09:54:37.000Z</time>
      </trkpt>
      <trkpt lat="43.01669" lon="0.55672">
        <ele>769</ele>
        <time>2018-03-18T09:54:39.000Z</time>
      </trkpt>
      <trkpt lat="43.01669" lon="0.55672">
        <ele>769</ele>
        <time>2018-03-18T09:54:41.000Z</time>
      </trkpt>
      <trkpt lat="43.01668" lon="0.5567">
        <ele>769</ele>
        <time>2018-03-18T09:54:43.000Z</time>
      </trkpt>
      <trkpt lat="43.01668" lon="0.55668">
        <ele>769</ele>
        <time>2018-03-18T09:54:45.000Z</time>
      </trkpt>
      <trkpt lat="43.01668" lon="0.55666">
        <ele>769</ele>
        <time>2018-03-18T09:54:47.000Z</time>
      </trkpt>
      <trkpt lat="43.01668" lon="0.55665">
        <ele>769</ele>
        <time>2018-03-18T09:54:49.000Z</time>
      </trkpt>
      <trkpt lat="43.01667" lon="0.55665">
        <ele>769</ele>
        <time>2018-03-18T09:54:51.000Z</time>
      </trkpt>
      <trkpt lat="43.01667" lon="0.55664">
        <ele>769</ele>
        <time>2018-03-18T09:54:53.000Z</time>
      </trkpt>
      <trkpt lat="43.01668" lon="0.55664">
        <ele>770</ele>
        <time>2018-03-18T09:54:55.000Z</time>
      </trkpt>
      <trkpt lat="43.01668" lon="0.55663">
        <ele>770</ele>
        <time>2018-03-18T09:54:57.000Z</time>
      </trkpt>
      <trkpt lat="43.01668" lon="0.55663">
        <ele>770</ele>
        <time>2018-03-18T09:54:59.000Z</time>
      </trkpt>
      <trkpt lat="43.01668" lon="0.55664">
        <ele>769</ele>
        <time>2018-03-18T09:55:01.000Z</time>
      </trkpt>
      <trkpt lat="43.01667" lon="0.55664">
        <ele>769</ele>
        <time>2018-03-18T09:55:03.000Z</time>
      </trkpt>
      <trkpt lat="43.01667" lon="0.55665">
        <ele>769</ele>
        <time>2018-03-18T09:55:05.000Z</time>
      </trkpt>
      <trkpt lat="43.01667" lon="0.55664">
        <ele>769</ele>
        <time>2018-03-18T09:55:07.000Z</time>
      </trkpt>
      <trkpt lat="43.01667" lon="0.55664">
        <ele>769</ele>
        <time>2018-03-18T09:55:09.000Z</time>
      </trkpt>
      <trkpt lat="43.01667" lon="0.55663">
        <ele>769</ele>
        <time>2018-03-18T09:55:11.000Z</time>
      </trkpt>
      <trkpt lat="43.01667" lon="0.55663">
        <ele>769</ele>
        <time>2018-03-18T09:55:13.000Z</time>
      </trkpt>
      <trkpt lat="43.01667" lon="0.55663">
        <ele>769</ele>
        <time>2018-03-18T09:55:15.000Z</time>
      </trkpt>
      <trkpt lat="43.01667" lon="0.55663">
        <ele>769</ele>
        <time>2018-03-18T09:55:17.000Z</time>
      </trkpt>
      <trkpt lat="43.01667" lon="0.55663">
        <ele>769</ele>
        <time>2018-03-18T09:55:19.000Z</time>
      </trkpt>
      <trkpt lat="43.01667" lon="0.55663">
        <ele>769</ele>
        <time>2018-03-18T09:55:21.000Z</time>
      </trkpt>
      <trkpt lat="43.01667" lon="0.55662">
        <ele>769</ele>
        <time>2018-03-18T09:55:23.000Z</time>
      </trkpt>
      <trkpt lat="43.01667" lon="0.55661">
        <ele>769</ele>
        <time>2018-03-18T09:55:25.000Z</time>
      </trkpt>
      <trkpt lat="43.01667" lon="0.55661">
        <ele>769</ele>
        <time>2018-03-18T09:55:27.000Z</time>
      </trkpt>
      <trkpt lat="43.01667" lon="0.55661">
        <ele>769</ele>
        <time>2018-03-18T09:55:29.000Z</time>
      </trkpt>
      <trkpt lat="43.01667" lon="0.55661">
        <ele>769</ele>
        <time>2018-03-18T09:55:31.000Z</time>
      </trkpt>
      <trkpt lat="43.01667" lon="0.55661">
        <ele>769</ele>
        <time>2018-03-18T09:55:33.000Z</time>
      </trkpt>
      <trkpt lat="43.01667" lon="0.5566">
        <ele>769</ele>
        <time>2018-03-18T09:55:35.000Z</time>
      </trkpt>
      <trkpt lat="43.01667" lon="0.55659">
        <ele>769</ele>
        <time>2018-03-18T09:55:37.000Z</time>
      </trkpt>
      <trkpt lat="43.01665" lon="0.55658">
        <ele>769</ele>
        <time>2018-03-18T09:55:39.000Z</time>
      </trkpt>
      <trkpt lat="43.01665" lon="0.55656">
        <ele>769</ele>
        <time>2018-03-18T09:55:41.000Z</time>
      </trkpt>
      <trkpt lat="43.01664" lon="0.55654">
        <ele>769</ele>
        <time>2018-03-18T09:55:43.000Z</time>
      </trkpt>
      <trkpt lat="43.01664" lon="0.55652">
        <ele>769</ele>
        <time>2018-03-18T09:55:45.000Z</time>
      </trkpt>
      <trkpt lat="43.01663" lon="0.5565">
        <ele>768</ele>
        <time>2018-03-18T09:55:47.000Z</time>
      </trkpt>
      <trkpt lat="43.01662" lon="0.55648">
        <ele>768</ele>
        <time>2018-03-18T09:55:49.000Z</time>
      </trkpt>
      <trkpt lat="43.01661" lon="0.55646">
        <ele>768</ele>
        <time>2018-03-18T09:55:51.000Z</time>
      </trkpt>
      <trkpt lat="43.0166" lon="0.55644">
        <ele>768</ele>
        <time>2018-03-18T09:55:53.000Z</time>
      </trkpt>
      <trkpt lat="43.01659" lon="0.55643">
        <ele>767</ele>
        <time>2018-03-18T09:55:55.000Z</time>
      </trkpt>
      <trkpt lat="43.01659" lon="0.55641">
        <ele>767</ele>
        <time>2018-03-18T09:55:57.000Z</time>
      </trkpt>
      <trkpt lat="43.01658" lon="0.55638">
        <ele>767</ele>
        <time>2018-03-18T09:55:59.000Z</time>
      </trkpt>
      <trkpt lat="43.01657" lon="0.55636">
        <ele>767</ele>
        <time>2018-03-18T09:56:01.000Z</time>
      </trkpt>
      <trkpt lat="43.01657" lon="0.55633">
        <ele>767</ele>
        <time>2018-03-18T09:56:03.000Z</time>
      </trkpt>
      <trkpt lat="43.01657" lon="0.5563">
        <ele>767</ele>
        <time>2018-03-18T09:56:05.000Z</time>
      </trkpt>
      <trkpt lat="43.01655" lon="0.55627">
        <ele>766</ele>
        <time>2018-03-18T09:56:07.000Z</time>
      </trkpt>
      <trkpt lat="43.01654" lon="0.55624">
        <ele>766</ele>
        <time>2018-03-18T09:56:09.000Z</time>
      </trkpt>
      <trkpt lat="43.01653" lon="0.55621">
        <ele>766</ele>
        <time>2018-03-18T09:56:11.000Z</time>
      </trkpt>
      <trkpt lat="43.01652" lon="0.55618">
        <ele>765</ele>
        <time>2018-03-18T09:56:13.000Z</time>
      </trkpt>
      <trkpt lat="43.01652" lon="0.55615">
        <ele>765</ele>
        <time>2018-03-18T09:56:15.000Z</time>
      </trkpt>
      <trkpt lat="43.01651" lon="0.55612">
        <ele>765</ele>
        <time>2018-03-18T09:56:17.000Z</time>
      </trkpt>
      <trkpt lat="43.0165" lon="0.5561">
        <ele>765</ele>
        <time>2018-03-18T09:56:19.000Z</time>
      </trkpt>
      <trkpt lat="43.0165" lon="0.55607">
        <ele>765</ele>
        <time>2018-03-18T09:56:21.000Z</time>
      </trkpt>
      <trkpt lat="43.01649" lon="0.55604">
        <ele>765</ele>
        <time>2018-03-18T09:56:23.000Z</time>
      </trkpt>
      <trkpt lat="43.01649" lon="0.55602">
        <ele>764</ele>
        <time>2018-03-18T09:56:25.000Z</time>
      </trkpt>
      <trkpt lat="43.01649" lon="0.55598">
        <ele>764</ele>
        <time>2018-03-18T09:56:27.000Z</time>
      </trkpt>
      <trkpt lat="43.01648" lon="0.55596">
        <ele>764</ele>
        <time>2018-03-18T09:56:29.000Z</time>
      </trkpt>
      <trkpt lat="43.01648" lon="0.55593">
        <ele>764</ele>
        <time>2018-03-18T09:56:31.000Z</time>
      </trkpt>
      <trkpt lat="43.01648" lon="0.5559">
        <ele>764</ele>
        <time>2018-03-18T09:56:33.000Z</time>
      </trkpt>
      <trkpt lat="43.01648" lon="0.55588">
        <ele>764</ele>
        <time>2018-03-18T09:56:35.000Z</time>
      </trkpt>
      <trkpt lat="43.01648" lon="0.55586">
        <ele>763</ele>
        <time>2018-03-18T09:56:37.000Z</time>
      </trkpt>
      <trkpt lat="43.01647" lon="0.55585">
        <ele>763</ele>
        <time>2018-03-18T09:56:39.000Z</time>
      </trkpt>
      <trkpt lat="43.01646" lon="0.55582">
        <ele>763</ele>
        <time>2018-03-18T09:56:41.000Z</time>
      </trkpt>
      <trkpt lat="43.01646" lon="0.55579">
        <ele>763</ele>
        <time>2018-03-18T09:56:43.000Z</time>
      </trkpt>
      <trkpt lat="43.01646" lon="0.55577">
        <ele>762</ele>
        <time>2018-03-18T09:56:45.000Z</time>
      </trkpt>
      <trkpt lat="43.01646" lon="0.55575">
        <ele>762</ele>
        <time>2018-03-18T09:56:47.000Z</time>
      </trkpt>
      <trkpt lat="43.01645" lon="0.55572">
        <ele>762</ele>
        <time>2018-03-18T09:56:49.000Z</time>
      </trkpt>
      <trkpt lat="43.01644" lon="0.5557">
        <ele>762</ele>
        <time>2018-03-18T09:56:51.000Z</time>
      </trkpt>
      <trkpt lat="43.01644" lon="0.55567">
        <ele>761</ele>
        <time>2018-03-18T09:56:53.000Z</time>
      </trkpt>
      <trkpt lat="43.01645" lon="0.55565">
        <ele>761</ele>
        <time>2018-03-18T09:56:55.000Z</time>
      </trkpt>
      <trkpt lat="43.01644" lon="0.55562">
        <ele>761</ele>
        <time>2018-03-18T09:56:57.000Z</time>
      </trkpt>
      <trkpt lat="43.01643" lon="0.55558">
        <ele>761</ele>
        <time>2018-03-18T09:56:59.000Z</time>
      </trkpt>
      <trkpt lat="43.01643" lon="0.55554">
        <ele>761</ele>
        <time>2018-03-18T09:57:01.000Z</time>
      </trkpt>
      <trkpt lat="43.01643" lon="0.55552">
        <ele>761</ele>
        <time>2018-03-18T09:57:03.000Z</time>
      </trkpt>
      <trkpt lat="43.01644" lon="0.55549">
        <ele>761</ele>
        <time>2018-03-18T09:57:05.000Z</time>
      </trkpt>
      <trkpt lat="43.01644" lon="0.55547">
        <ele>761</ele>
        <time>2018-03-18T09:57:07.000Z</time>
      </trkpt>
      <trkpt lat="43.01644" lon="0.55545">
        <ele>761</ele>
        <time>2018-03-18T09:57:09.000Z</time>
      </trkpt>
      <trkpt lat="43.01644" lon="0.55542">
        <ele>761</ele>
        <time>2018-03-18T09:57:11.000Z</time>
      </trkpt>
      <trkpt lat="43.01645" lon="0.55539">
        <ele>762</ele>
        <time>2018-03-18T09:57:13.000Z</time>
      </trkpt>
      <trkpt lat="43.01646" lon="0.55536">
        <ele>762</ele>
        <time>2018-03-18T09:57:15.000Z</time>
      </trkpt>
      <trkpt lat="43.01646" lon="0.55534">
        <ele>762</ele>
        <time>2018-03-18T09:57:17.000Z</time>
      </trkpt>
      <trkpt lat="43.01646" lon="0.55533">
        <ele>762</ele>
        <time>2018-03-18T09:57:19.000Z</time>
      </trkpt>
      <trkpt lat="43.01645" lon="0.55531">
        <ele>762</ele>
        <time>2018-03-18T09:57:21.000Z</time>
      </trkpt>
      <trkpt lat="43.01645" lon="0.5553">
        <ele>762</ele>
        <time>2018-03-18T09:57:23.000Z</time>
      </trkpt>
      <trkpt lat="43.01646" lon="0.55528">
        <ele>763</ele>
        <time>2018-03-18T09:57:25.000Z</time>
      </trkpt>
      <trkpt lat="43.01646" lon="0.55526">
        <ele>763</ele>
        <time>2018-03-18T09:57:27.000Z</time>
      </trkpt>
      <trkpt lat="43.01646" lon="0.55524">
        <ele>763</ele>
        <time>2018-03-18T09:57:29.000Z</time>
      </trkpt>
      <trkpt lat="43.01646" lon="0.55522">
        <ele>763</ele>
        <time>2018-03-18T09:57:31.000Z</time>
      </trkpt>
      <trkpt lat="43.01647" lon="0.55521">
        <ele>763</ele>
        <time>2018-03-18T09:57:33.000Z</time>
      </trkpt>
      <trkpt lat="43.01647" lon="0.5552">
        <ele>763</ele>
        <time>2018-03-18T09:57:35.000Z</time>
      </trkpt>
      <trkpt lat="43.01647" lon="0.5552">
        <ele>763</ele>
        <time>2018-03-18T09:57:37.000Z</time>
      </trkpt>
      <trkpt lat="43.01647" lon="0.5552">
        <ele>763</ele>
        <time>2018-03-18T09:57:39.000Z</time>
      </trkpt>
      <trkpt lat="43.01647" lon="0.55519">
        <ele>763</ele>
        <time>2018-03-18T09:57:41.000Z</time>
      </trkpt>
      <trkpt lat="43.01647" lon="0.55519">
        <ele>763</ele>
        <time>2018-03-18T09:57:43.000Z</time>
      </trkpt>
      <trkpt lat="43.01647" lon="0.55518">
        <ele>763</ele>
        <time>2018-03-18T09:57:45.000Z</time>
      </trkpt>
      <trkpt lat="43.01647" lon="0.55518">
        <ele>763</ele>
        <time>2018-03-18T09:57:47.000Z</time>
      </trkpt>
      <trkpt lat="43.01646" lon="0.55516">
        <ele>762</ele>
        <time>2018-03-18T09:57:49.000Z</time>
      </trkpt>
      <trkpt lat="43.01646" lon="0.55514">
        <ele>762</ele>
        <time>2018-03-18T09:57:51.000Z</time>
      </trkpt>
      <trkpt lat="43.01646" lon="0.55511">
        <ele>762</ele>
        <time>2018-03-18T09:57:53.000Z</time>
      </trkpt>
      <trkpt lat="43.01647" lon="0.5551">
        <ele>761</ele>
        <time>2018-03-18T09:57:55.000Z</time>
      </trkpt>
      <trkpt lat="43.01647" lon="0.55508">
        <ele>761</ele>
        <time>2018-03-18T09:57:57.000Z</time>
      </trkpt>
      <trkpt lat="43.01647" lon="0.55507">
        <ele>761</ele>
        <time>2018-03-18T09:57:59.000Z</time>
      </trkpt>
      <trkpt lat="43.01647" lon="0.55505">
        <ele>761</ele>
        <time>2018-03-18T09:58:01.000Z</time>
      </trkpt>
      <trkpt lat="43.01648" lon="0.55503">
        <ele>760</ele>
        <time>2018-03-18T09:58:03.000Z</time>
      </trkpt>
      <trkpt lat="43.01648" lon="0.55501">
        <ele>760</ele>
        <time>2018-03-18T09:58:05.000Z</time>
      </trkpt>
      <trkpt lat="43.01647" lon="0.555">
        <ele>760</ele>
        <time>2018-03-18T09:58:07.000Z</time>
      </trkpt>
      <trkpt lat="43.01646" lon="0.55499">
        <ele>759</ele>
        <time>2018-03-18T09:58:09.000Z</time>
      </trkpt>
      <trkpt lat="43.01646" lon="0.55498">
        <ele>759</ele>
        <time>2018-03-18T09:58:11.000Z</time>
      </trkpt>
      <trkpt lat="43.01645" lon="0.55497">
        <ele>759</ele>
        <time>2018-03-18T09:58:13.000Z</time>
      </trkpt>
      <trkpt lat="43.01645" lon="0.55495">
        <ele>759</ele>
        <time>2018-03-18T09:58:15.000Z</time>
      </trkpt>
      <trkpt lat="43.01644" lon="0.55494">
        <ele>758</ele>
        <time>2018-03-18T09:58:17.000Z</time>
      </trkpt>
      <trkpt lat="43.01643" lon="0.55493">
        <ele>758</ele>
        <time>2018-03-18T09:58:19.000Z</time>
      </trkpt>
      <trkpt lat="43.01643" lon="0.55492">
        <ele>758</ele>
        <time>2018-03-18T09:58:21.000Z</time>
      </trkpt>
      <trkpt lat="43.01641" lon="0.55491">
        <ele>757</ele>
        <time>2018-03-18T09:58:23.000Z</time>
      </trkpt>
      <trkpt lat="43.01641" lon="0.5549">
        <ele>757</ele>
        <time>2018-03-18T09:58:25.000Z</time>
      </trkpt>
      <trkpt lat="43.0164" lon="0.55488">
        <ele>757</ele>
        <time>2018-03-18T09:58:27.000Z</time>
      </trkpt>
      <trkpt lat="43.01638" lon="0.55487">
        <ele>756</ele>
        <time>2018-03-18T09:58:29.000Z</time>
      </trkpt>
      <trkpt lat="43.01637" lon="0.55486">
        <ele>756</ele>
        <time>2018-03-18T09:58:31.000Z</time>
      </trkpt>
      <trkpt lat="43.01635" lon="0.55485">
        <ele>756</ele>
        <time>2018-03-18T09:58:33.000Z</time>
      </trkpt>
      <trkpt lat="43.01634" lon="0.55484">
        <ele>755</ele>
        <time>2018-03-18T09:58:35.000Z</time>
      </trkpt>
      <trkpt lat="43.01632" lon="0.55482">
        <ele>755</ele>
        <time>2018-03-18T09:58:37.000Z</time>
      </trkpt>
      <trkpt lat="43.01632" lon="0.5548">
        <ele>754</ele>
        <time>2018-03-18T09:58:39.000Z</time>
      </trkpt>
      <trkpt lat="43.01633" lon="0.55476">
        <ele>754</ele>
        <time>2018-03-18T09:58:41.000Z</time>
      </trkpt>
      <trkpt lat="43.01633" lon="0.55474">
        <ele>754</ele>
        <time>2018-03-18T09:58:43.000Z</time>
      </trkpt>
      <trkpt lat="43.01632" lon="0.55472">
        <ele>753</ele>
        <time>2018-03-18T09:58:45.000Z</time>
      </trkpt>
      <trkpt lat="43.01631" lon="0.55471">
        <ele>753</ele>
        <time>2018-03-18T09:58:47.000Z</time>
      </trkpt>
      <trkpt lat="43.0163" lon="0.5547">
        <ele>752</ele>
        <time>2018-03-18T09:58:49.000Z</time>
      </trkpt>
      <trkpt lat="43.01629" lon="0.55469">
        <ele>752</ele>
        <time>2018-03-18T09:58:51.000Z</time>
      </trkpt>
      <trkpt lat="43.01628" lon="0.55468">
        <ele>752</ele>
        <time>2018-03-18T09:58:53.000Z</time>
      </trkpt>
      <trkpt lat="43.01627" lon="0.55467">
        <ele>752</ele>
        <time>2018-03-18T09:58:55.000Z</time>
      </trkpt>
      <trkpt lat="43.01627" lon="0.55466">
        <ele>752</ele>
        <time>2018-03-18T09:58:57.000Z</time>
      </trkpt>
      <trkpt lat="43.01626" lon="0.55464">
        <ele>752</ele>
        <time>2018-03-18T09:58:59.000Z</time>
      </trkpt>
      <trkpt lat="43.01624" lon="0.55462">
        <ele>752</ele>
        <time>2018-03-18T09:59:01.000Z</time>
      </trkpt>
      <trkpt lat="43.01623" lon="0.55462">
        <ele>751</ele>
        <time>2018-03-18T09:59:03.000Z</time>
      </trkpt>
      <trkpt lat="43.01621" lon="0.5546">
        <ele>751</ele>
        <time>2018-03-18T09:59:05.000Z</time>
      </trkpt>
      <trkpt lat="43.0162" lon="0.55458">
        <ele>751</ele>
        <time>2018-03-18T09:59:07.000Z</time>
      </trkpt>
      <trkpt lat="43.01619" lon="0.55457">
        <ele>751</ele>
        <time>2018-03-18T09:59:09.000Z</time>
      </trkpt>
      <trkpt lat="43.01618" lon="0.55455">
        <ele>751</ele>
        <time>2018-03-18T09:59:11.000Z</time>
      </trkpt>
      <trkpt lat="43.01617" lon="0.55453">
        <ele>751</ele>
        <time>2018-03-18T09:59:13.000Z</time>
      </trkpt>
      <trkpt lat="43.01617" lon="0.55451">
        <ele>751</ele>
        <time>2018-03-18T09:59:15.000Z</time>
      </trkpt>
      <trkpt lat="43.01617" lon="0.55448">
        <ele>752</ele>
        <time>2018-03-18T09:59:17.000Z</time>
      </trkpt>
      <trkpt lat="43.01618" lon="0.55444">
        <ele>752</ele>
        <time>2018-03-18T09:59:19.000Z</time>
      </trkpt>
      <trkpt lat="43.01619" lon="0.5544">
        <ele>753</ele>
        <time>2018-03-18T09:59:21.000Z</time>
      </trkpt>
      <trkpt lat="43.0162" lon="0.55437">
        <ele>753</ele>
        <time>2018-03-18T09:59:23.000Z</time>
      </trkpt>
      <trkpt lat="43.01621" lon="0.55435">
        <ele>753</ele>
        <time>2018-03-18T09:59:25.000Z</time>
      </trkpt>
      <trkpt lat="43.01621" lon="0.55432">
        <ele>753</ele>
        <time>2018-03-18T09:59:27.000Z</time>
      </trkpt>
      <trkpt lat="43.0162" lon="0.5543">
        <ele>753</ele>
        <time>2018-03-18T09:59:29.000Z</time>
      </trkpt>
      <trkpt lat="43.0162" lon="0.55426">
        <ele>754</ele>
        <time>2018-03-18T09:59:31.000Z</time>
      </trkpt>
      <trkpt lat="43.0162" lon="0.55422">
        <ele>754</ele>
        <time>2018-03-18T09:59:33.000Z</time>
      </trkpt>
      <trkpt lat="43.0162" lon="0.5542">
        <ele>754</ele>
        <time>2018-03-18T09:59:35.000Z</time>
      </trkpt>
      <trkpt lat="43.01621" lon="0.55416">
        <ele>755</ele>
        <time>2018-03-18T09:59:37.000Z</time>
      </trkpt>
      <trkpt lat="43.01621" lon="0.55413">
        <ele>755</ele>
        <time>2018-03-18T09:59:39.000Z</time>
      </trkpt>
      <trkpt lat="43.01621" lon="0.55411">
        <ele>754</ele>
        <time>2018-03-18T09:59:41.000Z</time>
      </trkpt>
      <trkpt lat="43.01622" lon="0.55408">
        <ele>754</ele>
        <time>2018-03-18T09:59:43.000Z</time>
      </trkpt>
      <trkpt lat="43.01623" lon="0.55407">
        <ele>754</ele>
        <time>2018-03-18T09:59:45.000Z</time>
      </trkpt>
      <trkpt lat="43.01623" lon="0.55406">
        <ele>754</ele>
        <time>2018-03-18T09:59:47.000Z</time>
      </trkpt>
      <trkpt lat="43.01624" lon="0.55406">
        <ele>754</ele>
        <time>2018-03-18T09:59:49.000Z</time>
      </trkpt>
      <trkpt lat="43.01624" lon="0.55404">
        <ele>754</ele>
        <time>2018-03-18T09:59:51.000Z</time>
      </trkpt>
      <trkpt lat="43.01624" lon="0.55402">
        <ele>753</ele>
        <time>2018-03-18T09:59:53.000Z</time>
      </trkpt>
      <trkpt lat="43.01625" lon="0.55401">
        <ele>753</ele>
        <time>2018-03-18T09:59:55.000Z</time>
      </trkpt>
      <trkpt lat="43.01625" lon="0.55399">
        <ele>753</ele>
        <time>2018-03-18T09:59:57.000Z</time>
      </trkpt>
      <trkpt lat="43.01626" lon="0.55397">
        <ele>753</ele>
        <time>2018-03-18T09:59:59.000Z</time>
      </trkpt>
      <trkpt lat="43.01626" lon="0.55395">
        <ele>753</ele>
        <time>2018-03-18T10:00:01.000Z</time>
      </trkpt>
      <trkpt lat="43.01626" lon="0.55394">
        <ele>752</ele>
        <time>2018-03-18T10:00:03.000Z</time>
      </trkpt>
      <trkpt lat="43.01625" lon="0.55392">
        <ele>752</ele>
        <time>2018-03-18T10:00:05.000Z</time>
      </trkpt>
      <trkpt lat="43.01626" lon="0.55392">
        <ele>752</ele>
        <time>2018-03-18T10:00:07.000Z</time>
      </trkpt>
      <trkpt lat="43.01625" lon="0.55391">
        <ele>752</ele>
        <time>2018-03-18T10:00:09.000Z</time>
      </trkpt>
      <trkpt lat="43.01626" lon="0.5539">
        <ele>752</ele>
        <time>2018-03-18T10:00:11.000Z</time>
      </trkpt>
      <trkpt lat="43.01627" lon="0.55389">
        <ele>752</ele>
        <time>2018-03-18T10:00:13.000Z</time>
      </trkpt>
      <trkpt lat="43.01627" lon="0.55387">
        <ele>752</ele>
        <time>2018-03-18T10:00:15.000Z</time>
      </trkpt>
      <trkpt lat="43.01627" lon="0.55386">
        <ele>751</ele>
        <time>2018-03-18T10:00:17.000Z</time>
      </trkpt>
      <trkpt lat="43.01628" lon="0.55385">
        <ele>751</ele>
        <time>2018-03-18T10:00:19.000Z</time>
      </trkpt>
      <trkpt lat="43.01629" lon="0.55384">
        <ele>751</ele>
        <time>2018-03-18T10:00:21.000Z</time>
      </trkpt>
      <trkpt lat="43.01629" lon="0.55383">
        <ele>752</ele>
        <time>2018-03-18T10:00:23.000Z</time>
      </trkpt>
      <trkpt lat="43.0163" lon="0.55382">
        <ele>752</ele>
        <time>2018-03-18T10:00:25.000Z</time>
      </trkpt>
      <trkpt lat="43.01631" lon="0.5538">
        <ele>752</ele>
        <time>2018-03-18T10:00:27.000Z</time>
      </trkpt>
      <trkpt lat="43.01631" lon="0.5538">
        <ele>752</ele>
        <time>2018-03-18T10:00:29.000Z</time>
      </trkpt>
      <trkpt lat="43.01632" lon="0.55379">
        <ele>752</ele>
        <time>2018-03-18T10:00:31.000Z</time>
      </trkpt>
      <trkpt lat="43.01632" lon="0.55377">
        <ele>753</ele>
        <time>2018-03-18T10:00:33.000Z</time>
      </trkpt>
      <trkpt lat="43.01632" lon="0.55376">
        <ele>753</ele>
        <time>2018-03-18T10:00:35.000Z</time>
      </trkpt>
      <trkpt lat="43.01632" lon="0.55374">
        <ele>753</ele>
        <time>2018-03-18T10:00:37.000Z</time>
      </trkpt>
      <trkpt lat="43.01633" lon="0.5537">
        <ele>754</ele>
        <time>2018-03-18T10:00:39.000Z</time>
      </trkpt>
      <trkpt lat="43.01634" lon="0.55367">
        <ele>755</ele>
        <time>2018-03-18T10:00:41.000Z</time>
      </trkpt>
      <trkpt lat="43.01635" lon="0.55364">
        <ele>755</ele>
        <time>2018-03-18T10:00:43.000Z</time>
      </trkpt>
      <trkpt lat="43.01635" lon="0.55362">
        <ele>756</ele>
        <time>2018-03-18T10:00:45.000Z</time>
      </trkpt>
      <trkpt lat="43.01635" lon="0.5536">
        <ele>756</ele>
        <time>2018-03-18T10:00:47.000Z</time>
      </trkpt>
      <trkpt lat="43.01636" lon="0.55358">
        <ele>757</ele>
        <time>2018-03-18T10:00:49.000Z</time>
      </trkpt>
      <trkpt lat="43.01636" lon="0.55357">
        <ele>757</ele>
        <time>2018-03-18T10:00:51.000Z</time>
      </trkpt>
      <trkpt lat="43.01637" lon="0.55357">
        <ele>757</ele>
        <time>2018-03-18T10:00:53.000Z</time>
      </trkpt>
      <trkpt lat="43.01639" lon="0.55356">
        <ele>757</ele>
        <time>2018-03-18T10:00:55.000Z</time>
      </trkpt>
      <trkpt lat="43.01641" lon="0.55354">
        <ele>757</ele>
        <time>2018-03-18T10:00:57.000Z</time>
      </trkpt>
      <trkpt lat="43.01642" lon="0.55354">
        <ele>758</ele>
        <time>2018-03-18T10:00:59.000Z</time>
      </trkpt>
      <trkpt lat="43.01643" lon="0.55355">
        <ele>757</ele>
        <time>2018-03-18T10:01:01.000Z</time>
      </trkpt>
      <trkpt lat="43.01643" lon="0.55355">
        <ele>757</ele>
        <time>2018-03-18T10:01:03.000Z</time>
      </trkpt>
      <trkpt lat="43.01644" lon="0.55356">
        <ele>757</ele>
        <time>2018-03-18T10:01:05.000Z</time>
      </trkpt>
      <trkpt lat="43.01644" lon="0.55356">
        <ele>757</ele>
        <time>2018-03-18T10:01:07.000Z</time>
      </trkpt>
      <trkpt lat="43.01644" lon="0.55355">
        <ele>757</ele>
        <time>2018-03-18T10:01:09.000Z</time>
      </trkpt>
      <trkpt lat="43.01644" lon="0.55355">
        <ele>757</ele>
        <time>2018-03-18T10:01:11.000Z</time>
      </trkpt>
      <trkpt lat="43.01644" lon="0.55354">
        <ele>757</ele>
        <time>2018-03-18T10:01:13.000Z</time>
      </trkpt>
      <trkpt lat="43.01643" lon="0.55353">
        <ele>758</ele>
        <time>2018-03-18T10:01:15.000Z</time>
      </trkpt>
      <trkpt lat="43.01643" lon="0.55352">
        <ele>758</ele>
        <time>2018-03-18T10:01:17.000Z</time>
      </trkpt>
      <trkpt lat="43.01642" lon="0.55351">
        <ele>758</ele>
        <time>2018-03-18T10:01:19.000Z</time>
      </trkpt>
      <trkpt lat="43.01642" lon="0.55349">
        <ele>759</ele>
        <time>2018-03-18T10:01:21.000Z</time>
      </trkpt>
      <trkpt lat="43.01642" lon="0.55348">
        <ele>759</ele>
        <time>2018-03-18T10:01:23.000Z</time>
      </trkpt>
      <trkpt lat="43.01642" lon="0.55346">
        <ele>759</ele>
        <time>2018-03-18T10:01:25.000Z</time>
      </trkpt>
      <trkpt lat="43.01642" lon="0.55346">
        <ele>759</ele>
        <time>2018-03-18T10:01:27.000Z</time>
      </trkpt>
      <trkpt lat="43.01642" lon="0.55345">
        <ele>759</ele>
        <time>2018-03-18T10:01:29.000Z</time>
      </trkpt>
      <trkpt lat="43.01642" lon="0.55345">
        <ele>759</ele>
        <time>2018-03-18T10:01:31.000Z</time>
      </trkpt>
      <trkpt lat="43.01642" lon="0.55345">
        <ele>759</ele>
        <time>2018-03-18T10:01:33.000Z</time>
      </trkpt>
      <trkpt lat="43.01643" lon="0.55345">
        <ele>759</ele>
        <time>2018-03-18T10:01:35.000Z</time>
      </trkpt>
      <trkpt lat="43.01643" lon="0.55345">
        <ele>759</ele>
        <time>2018-03-18T10:01:37.000Z</time>
      </trkpt>
      <trkpt lat="43.01644" lon="0.55345">
        <ele>759</ele>
        <time>2018-03-18T10:01:39.000Z</time>
      </trkpt>
      <trkpt lat="43.01644" lon="0.55345">
        <ele>759</ele>
        <time>2018-03-18T10:01:41.000Z</time>
      </trkpt>
      <trkpt lat="43.01644" lon="0.55344">
        <ele>759</ele>
        <time>2018-03-18T10:01:43.000Z</time>
      </trkpt>
      <trkpt lat="43.01643" lon="0.55343">
        <ele>759</ele>
        <time>2018-03-18T10:01:45.000Z</time>
      </trkpt>
      <trkpt lat="43.01643" lon="0.55342">
        <ele>759</ele>
        <time>2018-03-18T10:01:47.000Z</time>
      </trkpt>
      <trkpt lat="43.01642" lon="0.55341">
        <ele>759</ele>
        <time>2018-03-18T10:01:49.000Z</time>
      </trkpt>
      <trkpt lat="43.01642" lon="0.5534">
        <ele>760</ele>
        <time>2018-03-18T10:01:51.000Z</time>
      </trkpt>
      <trkpt lat="43.01641" lon="0.5534">
        <ele>760</ele>
        <time>2018-03-18T10:01:53.000Z</time>
      </trkpt>
      <trkpt lat="43.01642" lon="0.55339">
        <ele>760</ele>
        <time>2018-03-18T10:01:55.000Z</time>
      </trkpt>
      <trkpt lat="43.01643" lon="0.55339">
        <ele>760</ele>
        <time>2018-03-18T10:01:57.000Z</time>
      </trkpt>
      <trkpt lat="43.01643" lon="0.5534">
        <ele>760</ele>
        <time>2018-03-18T10:01:59.000Z</time>
      </trkpt>
      <trkpt lat="43.01643" lon="0.5534">
        <ele>759</ele>
        <time>2018-03-18T10:02:01.000Z</time>
      </trkpt>
      <trkpt lat="43.01644" lon="0.5534">
        <ele>759</ele>
        <time>2018-03-18T10:02:03.000Z</time>
      </trkpt>
      <trkpt lat="43.01644" lon="0.55341">
        <ele>759</ele>
        <time>2018-03-18T10:02:05.000Z</time>
      </trkpt>
      <trkpt lat="43.01644" lon="0.55342">
        <ele>759</ele>
        <time>2018-03-18T10:02:07.000Z</time>
      </trkpt>
      <trkpt lat="43.01645" lon="0.55344">
        <ele>759</ele>
        <time>2018-03-18T10:02:09.000Z</time>
      </trkpt>
      <trkpt lat="43.01645" lon="0.55345">
        <ele>759</ele>
        <time>2018-03-18T10:02:11.000Z</time>
      </trkpt>
      <trkpt lat="43.01646" lon="0.55346">
        <ele>758</ele>
        <time>2018-03-18T10:02:13.000Z</time>
      </trkpt>
      <trkpt lat="43.01647" lon="0.55346">
        <ele>758</ele>
        <time>2018-03-18T10:02:15.000Z</time>
      </trkpt>
      <trkpt lat="43.01647" lon="0.55347">
        <ele>758</ele>
        <time>2018-03-18T10:02:17.000Z</time>
      </trkpt>
      <trkpt lat="43.01647" lon="0.55348">
        <ele>758</ele>
        <time>2018-03-18T10:02:19.000Z</time>
      </trkpt>
      <trkpt lat="43.01647" lon="0.55348">
        <ele>758</ele>
        <time>2018-03-18T10:02:21.000Z</time>
      </trkpt>
      <trkpt lat="43.01646" lon="0.55348">
        <ele>758</ele>
        <time>2018-03-18T10:02:23.000Z</time>
      </trkpt>
      <trkpt lat="43.01645" lon="0.55349">
        <ele>758</ele>
        <time>2018-03-18T10:02:25.000Z</time>
      </trkpt>
      <trkpt lat="43.01645" lon="0.55351">
        <ele>758</ele>
        <time>2018-03-18T10:02:27.000Z</time>
      </trkpt>
      <trkpt lat="43.01645" lon="0.55353">
        <ele>758</ele>
        <time>2018-03-18T10:02:29.000Z</time>
      </trkpt>
      <trkpt lat="43.01645" lon="0.55353">
        <ele>758</ele>
        <time>2018-03-18T10:02:31.000Z</time>
      </trkpt>
      <trkpt lat="43.01644" lon="0.55353">
        <ele>758</ele>
        <time>2018-03-18T10:02:33.000Z</time>
      </trkpt>
      <trkpt lat="43.01644" lon="0.55354">
        <ele>757</ele>
        <time>2018-03-18T10:02:35.000Z</time>
      </trkpt>
      <trkpt lat="43.01644" lon="0.55355">
        <ele>757</ele>
        <time>2018-03-18T10:02:37.000Z</time>
      </trkpt>
      <trkpt lat="43.01644" lon="0.55355">
        <ele>757</ele>
        <time>2018-03-18T10:02:39.000Z</time>
      </trkpt>
      <trkpt lat="43.01644" lon="0.55355">
        <ele>757</ele>
        <time>2018-03-18T10:02:41.000Z</time>
      </trkpt>
      <trkpt lat="43.01644" lon="0.55355">
        <ele>757</ele>
        <time>2018-03-18T10:02:43.000Z</time>
      </trkpt>
      <trkpt lat="43.01644" lon="0.55355">
        <ele>757</ele>
        <time>2018-03-18T10:02:45.000Z</time>
      </trkpt>
      <trkpt lat="43.01645" lon="0.55355">
        <ele>757</ele>
        <time>2018-03-18T10:02:47.000Z</time>
      </trkpt>
      <trkpt lat="43.01644" lon="0.55355">
        <ele>757</ele>
        <time>2018-03-18T10:02:49.000Z</time>
      </trkpt>
      <trkpt lat="43.01644" lon="0.55354">
        <ele>757</ele>
        <time>2018-03-18T10:02:51.000Z</time>
      </trkpt>
      <trkpt lat="43.01645" lon="0.55353">
        <ele>758</ele>
        <time>2018-03-18T10:02:53.000Z</time>
      </trkpt>
      <trkpt lat="43.01646" lon="0.55351">
        <ele>758</ele>
        <time>2018-03-18T10:02:55.000Z</time>
      </trkpt>
      <trkpt lat="43.01648" lon="0.55348">
        <ele>758</ele>
        <time>2018-03-18T10:02:57.000Z</time>
      </trkpt>
      <trkpt lat="43.0165" lon="0.55346">
        <ele>758</ele>
        <time>2018-03-18T10:02:59.000Z</time>
      </trkpt>
      <trkpt lat="43.01651" lon="0.55344">
        <ele>758</ele>
        <time>2018-03-18T10:03:01.000Z</time>
      </trkpt>
      <trkpt lat="43.01652" lon="0.55343">
        <ele>758</ele>
        <time>2018-03-18T10:03:03.000Z</time>
      </trkpt>
      <trkpt lat="43.01652" lon="0.55341">
        <ele>758</ele>
        <time>2018-03-18T10:03:05.000Z</time>
      </trkpt>
      <trkpt lat="43.01653" lon="0.55341">
        <ele>758</ele>
        <time>2018-03-18T10:03:07.000Z</time>
      </trkpt>
      <trkpt lat="43.01654" lon="0.55339">
        <ele>758</ele>
        <time>2018-03-18T10:03:09.000Z</time>
      </trkpt>
      <trkpt lat="43.01656" lon="0.55338">
        <ele>758</ele>
        <time>2018-03-18T10:03:11.000Z</time>
      </trkpt>
      <trkpt lat="43.01656" lon="0.55337">
        <ele>758</ele>
        <time>2018-03-18T10:03:13.000Z</time>
      </trkpt>
      <trkpt lat="43.01658" lon="0.55336">
        <ele>758</ele>
        <time>2018-03-18T10:03:15.000Z</time>
      </trkpt>
      <trkpt lat="43.01658" lon="0.55335">
        <ele>758</ele>
        <time>2018-03-18T10:03:17.000Z</time>
      </trkpt>
      <trkpt lat="43.0166" lon="0.55333">
        <ele>758</ele>
        <time>2018-03-18T10:03:19.000Z</time>
      </trkpt>
      <trkpt lat="43.01661" lon="0.55332">
        <ele>758</ele>
        <time>2018-03-18T10:03:21.000Z</time>
      </trkpt>
      <trkpt lat="43.01663" lon="0.55331">
        <ele>758</ele>
        <time>2018-03-18T10:03:23.000Z</time>
      </trkpt>
      <trkpt lat="43.01664" lon="0.5533">
        <ele>758</ele>
        <time>2018-03-18T10:03:25.000Z</time>
      </trkpt>
      <trkpt lat="43.01665" lon="0.55329">
        <ele>758</ele>
        <time>2018-03-18T10:03:27.000Z</time>
      </trkpt>
      <trkpt lat="43.01666" lon="0.55327">
        <ele>758</ele>
        <time>2018-03-18T10:03:29.000Z</time>
      </trkpt>
      <trkpt lat="43.01667" lon="0.55326">
        <ele>758</ele>
        <time>2018-03-18T10:03:31.000Z</time>
      </trkpt>
      <trkpt lat="43.01667" lon="0.55325">
        <ele>758</ele>
        <time>2018-03-18T10:03:33.000Z</time>
      </trkpt>
      <trkpt lat="43.01666" lon="0.55324">
        <ele>758</ele>
        <time>2018-03-18T10:03:35.000Z</time>
      </trkpt>
      <trkpt lat="43.01666" lon="0.55322">
        <ele>759</ele>
        <time>2018-03-18T10:03:37.000Z</time>
      </trkpt>
      <trkpt lat="43.01667" lon="0.5532">
        <ele>759</ele>
        <time>2018-03-18T10:03:39.000Z</time>
      </trkpt>
      <trkpt lat="43.01667" lon="0.55318">
        <ele>759</ele>
        <time>2018-03-18T10:03:41.000Z</time>
      </trkpt>
      <trkpt lat="43.01668" lon="0.55317">
        <ele>759</ele>
        <time>2018-03-18T10:03:43.000Z</time>
      </trkpt>
      <trkpt lat="43.01669" lon="0.55317">
        <ele>759</ele>
        <time>2018-03-18T10:03:45.000Z</time>
      </trkpt>
      <trkpt lat="43.0167" lon="0.55316">
        <ele>759</ele>
        <time>2018-03-18T10:03:47.000Z</time>
      </trkpt>
      <trkpt lat="43.0167" lon="0.55315">
        <ele>759</ele>
        <time>2018-03-18T10:03:49.000Z</time>
      </trkpt>
      <trkpt lat="43.01671" lon="0.55314">
        <ele>759</ele>
        <time>2018-03-18T10:03:51.000Z</time>
      </trkpt>
      <trkpt lat="43.01672" lon="0.55313">
        <ele>759</ele>
        <time>2018-03-18T10:03:53.000Z</time>
      </trkpt>
      <trkpt lat="43.01672" lon="0.55312">
        <ele>759</ele>
        <time>2018-03-18T10:03:55.000Z</time>
      </trkpt>
      <trkpt lat="43.01673" lon="0.55312">
        <ele>759</ele>
        <time>2018-03-18T10:03:57.000Z</time>
      </trkpt>
      <trkpt lat="43.01673" lon="0.55311">
        <ele>759</ele>
        <time>2018-03-18T10:03:59.000Z</time>
      </trkpt>
      <trkpt lat="43.01674" lon="0.5531">
        <ele>759</ele>
        <time>2018-03-18T10:04:01.000Z</time>
      </trkpt>
      <trkpt lat="43.01674" lon="0.55309">
        <ele>759</ele>
        <time>2018-03-18T10:04:03.000Z</time>
      </trkpt>
      <trkpt lat="43.01675" lon="0.55308">
        <ele>759</ele>
        <time>2018-03-18T10:04:05.000Z</time>
      </trkpt>
      <trkpt lat="43.01676" lon="0.55307">
        <ele>759</ele>
        <time>2018-03-18T10:04:07.000Z</time>
      </trkpt>
      <trkpt lat="43.01676" lon="0.55306">
        <ele>759</ele>
        <time>2018-03-18T10:04:09.000Z</time>
      </trkpt>
      <trkpt lat="43.01677" lon="0.55304">
        <ele>760</ele>
        <time>2018-03-18T10:04:11.000Z</time>
      </trkpt>
      <trkpt lat="43.01679" lon="0.55303">
        <ele>759</ele>
        <time>2018-03-18T10:04:13.000Z</time>
      </trkpt>
      <trkpt lat="43.0168" lon="0.55301">
        <ele>759</ele>
        <time>2018-03-18T10:04:15.000Z</time>
      </trkpt>
      <trkpt lat="43.01682" lon="0.553">
        <ele>759</ele>
        <time>2018-03-18T10:04:17.000Z</time>
      </trkpt>
      <trkpt lat="43.01684" lon="0.55299">
        <ele>759</ele>
        <time>2018-03-18T10:04:19.000Z</time>
      </trkpt>
      <trkpt lat="43.01686" lon="0.55297">
        <ele>759</ele>
        <time>2018-03-18T10:04:21.000Z</time>
      </trkpt>
      <trkpt lat="43.01686" lon="0.55296">
        <ele>759</ele>
        <time>2018-03-18T10:04:23.000Z</time>
      </trkpt>
      <trkpt lat="43.01687" lon="0.55293">
        <ele>759</ele>
        <time>2018-03-18T10:04:25.000Z</time>
      </trkpt>
      <trkpt lat="43.01688" lon="0.55291">
        <ele>759</ele>
        <time>2018-03-18T10:04:27.000Z</time>
      </trkpt>
      <trkpt lat="43.0169" lon="0.55288">
        <ele>759</ele>
        <time>2018-03-18T10:04:29.000Z</time>
      </trkpt>
      <trkpt lat="43.01691" lon="0.55286">
        <ele>759</ele>
        <time>2018-03-18T10:04:31.000Z</time>
      </trkpt>
      <trkpt lat="43.01693" lon="0.55283">
        <ele>759</ele>
        <time>2018-03-18T10:04:33.000Z</time>
      </trkpt>
      <trkpt lat="43.01694" lon="0.55281">
        <ele>759</ele>
        <time>2018-03-18T10:04:35.000Z</time>
      </trkpt>
      <trkpt lat="43.01696" lon="0.55278">
        <ele>759</ele>
        <time>2018-03-18T10:04:37.000Z</time>
      </trkpt>
      <trkpt lat="43.01698" lon="0.55275">
        <ele>759</ele>
        <time>2018-03-18T10:04:39.000Z</time>
      </trkpt>
      <trkpt lat="43.01699" lon="0.55272">
        <ele>759</ele>
        <time>2018-03-18T10:04:41.000Z</time>
      </trkpt>
      <trkpt lat="43.01699" lon="0.55269">
        <ele>759</ele>
        <time>2018-03-18T10:04:43.000Z</time>
      </trkpt>
      <trkpt lat="43.017" lon="0.55267">
        <ele>759</ele>
        <time>2018-03-18T10:04:45.000Z</time>
      </trkpt>
      <trkpt lat="43.01701" lon="0.55265">
        <ele>759</ele>
        <time>2018-03-18T10:04:47.000Z</time>
      </trkpt>
      <trkpt lat="43.01702" lon="0.55264">
        <ele>759</ele>
        <time>2018-03-18T10:04:49.000Z</time>
      </trkpt>
      <trkpt lat="43.01703" lon="0.55264">
        <ele>759</ele>
        <time>2018-03-18T10:04:51.000Z</time>
      </trkpt>
      <trkpt lat="43.01704" lon="0.55264">
        <ele>759</ele>
        <time>2018-03-18T10:04:53.000Z</time>
      </trkpt>
      <trkpt lat="43.01706" lon="0.55263">
        <ele>759</ele>
        <time>2018-03-18T10:04:55.000Z</time>
      </trkpt>
      <trkpt lat="43.01707" lon="0.55263">
        <ele>758</ele>
        <time>2018-03-18T10:04:57.000Z</time>
      </trkpt>
      <trkpt lat="43.01708" lon="0.55261">
        <ele>758</ele>
        <time>2018-03-18T10:04:59.000Z</time>
      </trkpt>
      <trkpt lat="43.0171" lon="0.55258">
        <ele>758</ele>
        <time>2018-03-18T10:05:01.000Z</time>
      </trkpt>
      <trkpt lat="43.01712" lon="0.55256">
        <ele>758</ele>
        <time>2018-03-18T10:05:03.000Z</time>
      </trkpt>
      <trkpt lat="43.01713" lon="0.55254">
        <ele>758</ele>
        <time>2018-03-18T10:05:05.000Z</time>
      </trkpt>
      <trkpt lat="43.01714" lon="0.55253">
        <ele>758</ele>
        <time>2018-03-18T10:05:07.000Z</time>
      </trkpt>
      <trkpt lat="43.01715" lon="0.55251">
        <ele>758</ele>
        <time>2018-03-18T10:05:09.000Z</time>
      </trkpt>
      <trkpt lat="43.01716" lon="0.55249">
        <ele>758</ele>
        <time>2018-03-18T10:05:11.000Z</time>
      </trkpt>
      <trkpt lat="43.01717" lon="0.55247">
        <ele>757</ele>
        <time>2018-03-18T10:05:13.000Z</time>
      </trkpt>
      <trkpt lat="43.01718" lon="0.55246">
        <ele>757</ele>
        <time>2018-03-18T10:05:15.000Z</time>
      </trkpt>
      <trkpt lat="43.01719" lon="0.55243">
        <ele>757</ele>
        <time>2018-03-18T10:05:17.000Z</time>
      </trkpt>
      <trkpt lat="43.01721" lon="0.55241">
        <ele>757</ele>
        <time>2018-03-18T10:05:19.000Z</time>
      </trkpt>
      <trkpt lat="43.01722" lon="0.55239">
        <ele>757</ele>
        <time>2018-03-18T10:05:21.000Z</time>
      </trkpt>
      <trkpt lat="43.01723" lon="0.55238">
        <ele>756</ele>
        <time>2018-03-18T10:05:23.000Z</time>
      </trkpt>
      <trkpt lat="43.01725" lon="0.55236">
        <ele>756</ele>
        <time>2018-03-18T10:05:25.000Z</time>
      </trkpt>
      <trkpt lat="43.01727" lon="0.55234">
        <ele>756</ele>
        <time>2018-03-18T10:05:27.000Z</time>
      </trkpt>
      <trkpt lat="43.01728" lon="0.55232">
        <ele>755</ele>
        <time>2018-03-18T10:05:29.000Z</time>
      </trkpt>
      <trkpt lat="43.01729" lon="0.55231">
        <ele>755</ele>
        <time>2018-03-18T10:05:31.000Z</time>
      </trkpt>
      <trkpt lat="43.0173" lon="0.5523">
        <ele>755</ele>
        <time>2018-03-18T10:05:33.000Z</time>
      </trkpt>
      <trkpt lat="43.01731" lon="0.55229">
        <ele>755</ele>
        <time>2018-03-18T10:05:35.000Z</time>
      </trkpt>
      <trkpt lat="43.01732" lon="0.55229">
        <ele>755</ele>
        <time>2018-03-18T10:05:37.000Z</time>
      </trkpt>
      <trkpt lat="43.01734" lon="0.55228">
        <ele>754</ele>
        <time>2018-03-18T10:05:39.000Z</time>
      </trkpt>
      <trkpt lat="43.01735" lon="0.55227">
        <ele>754</ele>
        <time>2018-03-18T10:05:41.000Z</time>
      </trkpt>
      <trkpt lat="43.01736" lon="0.55224">
        <ele>754</ele>
        <time>2018-03-18T10:05:43.000Z</time>
      </trkpt>
      <trkpt lat="43.01738" lon="0.55224">
        <ele>754</ele>
        <time>2018-03-18T10:05:45.000Z</time>
      </trkpt>
      <trkpt lat="43.0174" lon="0.55223">
        <ele>753</ele>
        <time>2018-03-18T10:05:47.000Z</time>
      </trkpt>
      <trkpt lat="43.01741" lon="0.55222">
        <ele>753</ele>
        <time>2018-03-18T10:05:49.000Z</time>
      </trkpt>
      <trkpt lat="43.01742" lon="0.5522">
        <ele>753</ele>
        <time>2018-03-18T10:05:51.000Z</time>
      </trkpt>
      <trkpt lat="43.01743" lon="0.55219">
        <ele>752</ele>
        <time>2018-03-18T10:05:53.000Z</time>
      </trkpt>
      <trkpt lat="43.01745" lon="0.55218">
        <ele>752</ele>
        <time>2018-03-18T10:05:55.000Z</time>
      </trkpt>
      <trkpt lat="43.01747" lon="0.55217">
        <ele>752</ele>
        <time>2018-03-18T10:05:57.000Z</time>
      </trkpt>
      <trkpt lat="43.01749" lon="0.55216">
        <ele>751</ele>
        <time>2018-03-18T10:05:59.000Z</time>
      </trkpt>
      <trkpt lat="43.0175" lon="0.55215">
        <ele>751</ele>
        <time>2018-03-18T10:06:01.000Z</time>
      </trkpt>
      <trkpt lat="43.01752" lon="0.55213">
        <ele>751</ele>
        <time>2018-03-18T10:06:03.000Z</time>
      </trkpt>
      <trkpt lat="43.01753" lon="0.55212">
        <ele>750</ele>
        <time>2018-03-18T10:06:05.000Z</time>
      </trkpt>
      <trkpt lat="43.01755" lon="0.55211">
        <ele>750</ele>
        <time>2018-03-18T10:06:07.000Z</time>
      </trkpt>
      <trkpt lat="43.01756" lon="0.55211">
        <ele>749</ele>
        <time>2018-03-18T10:06:09.000Z</time>
      </trkpt>
      <trkpt lat="43.01757" lon="0.55211">
        <ele>749</ele>
        <time>2018-03-18T10:06:11.000Z</time>
      </trkpt>
      <trkpt lat="43.01759" lon="0.5521">
        <ele>749</ele>
        <time>2018-03-18T10:06:13.000Z</time>
      </trkpt>
      <trkpt lat="43.0176" lon="0.5521">
        <ele>748</ele>
        <time>2018-03-18T10:06:15.000Z</time>
      </trkpt>
      <trkpt lat="43.01761" lon="0.55209">
        <ele>748</ele>
        <time>2018-03-18T10:06:17.000Z</time>
      </trkpt>
      <trkpt lat="43.01763" lon="0.55208">
        <ele>747</ele>
        <time>2018-03-18T10:06:19.000Z</time>
      </trkpt>
      <trkpt lat="43.01764" lon="0.55207">
        <ele>747</ele>
        <time>2018-03-18T10:06:21.000Z</time>
      </trkpt>
      <trkpt lat="43.01765" lon="0.55206">
        <ele>747</ele>
        <time>2018-03-18T10:06:23.000Z</time>
      </trkpt>
      <trkpt lat="43.01766" lon="0.55206">
        <ele>746</ele>
        <time>2018-03-18T10:06:25.000Z</time>
      </trkpt>
      <trkpt lat="43.01767" lon="0.55206">
        <ele>746</ele>
        <time>2018-03-18T10:06:27.000Z</time>
      </trkpt>
      <trkpt lat="43.01768" lon="0.55206">
        <ele>746</ele>
        <time>2018-03-18T10:06:29.000Z</time>
      </trkpt>
      <trkpt lat="43.0177" lon="0.55206">
        <ele>745</ele>
        <time>2018-03-18T10:06:31.000Z</time>
      </trkpt>
      <trkpt lat="43.01771" lon="0.55206">
        <ele>745</ele>
        <time>2018-03-18T10:06:33.000Z</time>
      </trkpt>
      <trkpt lat="43.01772" lon="0.55206">
        <ele>745</ele>
        <time>2018-03-18T10:06:35.000Z</time>
      </trkpt>
      <trkpt lat="43.01773" lon="0.55206">
        <ele>744</ele>
        <time>2018-03-18T10:06:37.000Z</time>
      </trkpt>
      <trkpt lat="43.01774" lon="0.55205">
        <ele>744</ele>
        <time>2018-03-18T10:06:39.000Z</time>
      </trkpt>
      <trkpt lat="43.01775" lon="0.55205">
        <ele>744</ele>
        <time>2018-03-18T10:06:41.000Z</time>
      </trkpt>
      <trkpt lat="43.01776" lon="0.55203">
        <ele>744</ele>
        <time>2018-03-18T10:06:43.000Z</time>
      </trkpt>
      <trkpt lat="43.01777" lon="0.55202">
        <ele>743</ele>
        <time>2018-03-18T10:06:45.000Z</time>
      </trkpt>
      <trkpt lat="43.01778" lon="0.55201">
        <ele>743</ele>
        <time>2018-03-18T10:06:47.000Z</time>
      </trkpt>
      <trkpt lat="43.01779" lon="0.55199">
        <ele>742</ele>
        <time>2018-03-18T10:06:49.000Z</time>
      </trkpt>
      <trkpt lat="43.01781" lon="0.55197">
        <ele>742</ele>
        <time>2018-03-18T10:06:51.000Z</time>
      </trkpt>
      <trkpt lat="43.01782" lon="0.55194">
        <ele>741</ele>
        <time>2018-03-18T10:06:53.000Z</time>
      </trkpt>
      <trkpt lat="43.01783" lon="0.55192">
        <ele>741</ele>
        <time>2018-03-18T10:06:55.000Z</time>
      </trkpt>
      <trkpt lat="43.01784" lon="0.55191">
        <ele>741</ele>
        <time>2018-03-18T10:06:57.000Z</time>
      </trkpt>
      <trkpt lat="43.01786" lon="0.55189">
        <ele>740</ele>
        <time>2018-03-18T10:06:59.000Z</time>
      </trkpt>
      <trkpt lat="43.01787" lon="0.55187">
        <ele>740</ele>
        <time>2018-03-18T10:07:01.000Z</time>
      </trkpt>
      <trkpt lat="43.01788" lon="0.55185">
        <ele>740</ele>
        <time>2018-03-18T10:07:03.000Z</time>
      </trkpt>
      <trkpt lat="43.01788" lon="0.55184">
        <ele>739</ele>
        <time>2018-03-18T10:07:05.000Z</time>
      </trkpt>
      <trkpt lat="43.01789" lon="0.55183">
        <ele>739</ele>
        <time>2018-03-18T10:07:07.000Z</time>
      </trkpt>
      <trkpt lat="43.0179" lon="0.55182">
        <ele>739</ele>
        <time>2018-03-18T10:07:09.000Z</time>
      </trkpt>
      <trkpt lat="43.01792" lon="0.55179">
        <ele>738</ele>
        <time>2018-03-18T10:07:11.000Z</time>
      </trkpt>
      <trkpt lat="43.01794" lon="0.55177">
        <ele>737</ele>
        <time>2018-03-18T10:07:13.000Z</time>
      </trkpt>
      <trkpt lat="43.01795" lon="0.55175">
        <ele>737</ele>
        <time>2018-03-18T10:07:15.000Z</time>
      </trkpt>
      <trkpt lat="43.01796" lon="0.55173">
        <ele>737</ele>
        <time>2018-03-18T10:07:17.000Z</time>
      </trkpt>
      <trkpt lat="43.01797" lon="0.55172">
        <ele>736</ele>
        <time>2018-03-18T10:07:19.000Z</time>
      </trkpt>
      <trkpt lat="43.01799" lon="0.5517">
        <ele>736</ele>
        <time>2018-03-18T10:07:21.000Z</time>
      </trkpt>
      <trkpt lat="43.018" lon="0.55169">
        <ele>736</ele>
        <time>2018-03-18T10:07:23.000Z</time>
      </trkpt>
      <trkpt lat="43.01801" lon="0.55169">
        <ele>736</ele>
        <time>2018-03-18T10:07:25.000Z</time>
      </trkpt>
      <trkpt lat="43.01803" lon="0.55166">
        <ele>736</ele>
        <time>2018-03-18T10:07:27.000Z</time>
      </trkpt>
      <trkpt lat="43.01804" lon="0.55165">
        <ele>736</ele>
        <time>2018-03-18T10:07:29.000Z</time>
      </trkpt>
      <trkpt lat="43.01806" lon="0.55163">
        <ele>736</ele>
        <time>2018-03-18T10:07:31.000Z</time>
      </trkpt>
      <trkpt lat="43.01807" lon="0.55161">
        <ele>736</ele>
        <time>2018-03-18T10:07:33.000Z</time>
      </trkpt>
      <trkpt lat="43.01809" lon="0.55159">
        <ele>736</ele>
        <time>2018-03-18T10:07:35.000Z</time>
      </trkpt>
      <trkpt lat="43.0181" lon="0.55157">
        <ele>736</ele>
        <time>2018-03-18T10:07:37.000Z</time>
      </trkpt>
      <trkpt lat="43.01811" lon="0.55154">
        <ele>736</ele>
        <time>2018-03-18T10:07:39.000Z</time>
      </trkpt>
      <trkpt lat="43.01812" lon="0.55154">
        <ele>736</ele>
        <time>2018-03-18T10:07:41.000Z</time>
      </trkpt>
      <trkpt lat="43.01812" lon="0.55153">
        <ele>736</ele>
        <time>2018-03-18T10:07:43.000Z</time>
      </trkpt>
      <trkpt lat="43.01812" lon="0.55153">
        <ele>736</ele>
        <time>2018-03-18T10:07:45.000Z</time>
      </trkpt>
      <trkpt lat="43.01813" lon="0.55153">
        <ele>736</ele>
        <time>2018-03-18T10:07:47.000Z</time>
      </trkpt>
      <trkpt lat="43.01813" lon="0.55151">
        <ele>736</ele>
        <time>2018-03-18T10:07:49.000Z</time>
      </trkpt>
      <trkpt lat="43.01813" lon="0.5515">
        <ele>736</ele>
        <time>2018-03-18T10:07:51.000Z</time>
      </trkpt>
      <trkpt lat="43.01814" lon="0.55146">
        <ele>737</ele>
        <time>2018-03-18T10:07:53.000Z</time>
      </trkpt>
      <trkpt lat="43.01815" lon="0.55143">
        <ele>737</ele>
        <time>2018-03-18T10:07:55.000Z</time>
      </trkpt>
      <trkpt lat="43.01816" lon="0.5514">
        <ele>737</ele>
        <time>2018-03-18T10:07:57.000Z</time>
      </trkpt>
      <trkpt lat="43.01817" lon="0.55137">
        <ele>737</ele>
        <time>2018-03-18T10:07:59.000Z</time>
      </trkpt>
      <trkpt lat="43.01818" lon="0.55134">
        <ele>737</ele>
        <time>2018-03-18T10:08:01.000Z</time>
      </trkpt>
      <trkpt lat="43.01818" lon="0.55132">
        <ele>737</ele>
        <time>2018-03-18T10:08:03.000Z</time>
      </trkpt>
      <trkpt lat="43.01819" lon="0.55129">
        <ele>737</ele>
        <time>2018-03-18T10:08:05.000Z</time>
      </trkpt>
      <trkpt lat="43.01819" lon="0.55127">
        <ele>737</ele>
        <time>2018-03-18T10:08:07.000Z</time>
      </trkpt>
      <trkpt lat="43.0182" lon="0.55124">
        <ele>737</ele>
        <time>2018-03-18T10:08:09.000Z</time>
      </trkpt>
      <trkpt lat="43.01821" lon="0.55123">
        <ele>737</ele>
        <time>2018-03-18T10:08:11.000Z</time>
      </trkpt>
      <trkpt lat="43.01821" lon="0.55121">
        <ele>737</ele>
        <time>2018-03-18T10:08:13.000Z</time>
      </trkpt>
      <trkpt lat="43.01822" lon="0.55119">
        <ele>737</ele>
        <time>2018-03-18T10:08:15.000Z</time>
      </trkpt>
      <trkpt lat="43.01822" lon="0.55118">
        <ele>737</ele>
        <time>2018-03-18T10:08:17.000Z</time>
      </trkpt>
      <trkpt lat="43.01822" lon="0.55117">
        <ele>737</ele>
        <time>2018-03-18T10:08:19.000Z</time>
      </trkpt>
      <trkpt lat="43.01823" lon="0.55117">
        <ele>737</ele>
        <time>2018-03-18T10:08:21.000Z</time>
      </trkpt>
      <trkpt lat="43.01823" lon="0.55117">
        <ele>737</ele>
        <time>2018-03-18T10:08:23.000Z</time>
      </trkpt>
      <trkpt lat="43.01824" lon="0.55117">
        <ele>736</ele>
        <time>2018-03-18T10:08:25.000Z</time>
      </trkpt>
      <trkpt lat="43.01824" lon="0.55116">
        <ele>736</ele>
        <time>2018-03-18T10:08:27.000Z</time>
      </trkpt>
      <trkpt lat="43.01825" lon="0.55116">
        <ele>736</ele>
        <time>2018-03-18T10:08:29.000Z</time>
      </trkpt>
      <trkpt lat="43.01825" lon="0.55115">
        <ele>736</ele>
        <time>2018-03-18T10:08:31.000Z</time>
      </trkpt>
      <trkpt lat="43.01825" lon="0.55113">
        <ele>736</ele>
        <time>2018-03-18T10:08:33.000Z</time>
      </trkpt>
      <trkpt lat="43.01825" lon="0.55113">
        <ele>736</ele>
        <time>2018-03-18T10:08:35.000Z</time>
      </trkpt>
      <trkpt lat="43.01824" lon="0.55112">
        <ele>736</ele>
        <time>2018-03-18T10:08:37.000Z</time>
      </trkpt>
      <trkpt lat="43.01824" lon="0.55112">
        <ele>736</ele>
        <time>2018-03-18T10:08:39.000Z</time>
      </trkpt>
      <trkpt lat="43.01824" lon="0.5511">
        <ele>736</ele>
        <time>2018-03-18T10:08:41.000Z</time>
      </trkpt>
      <trkpt lat="43.01825" lon="0.55108">
        <ele>736</ele>
        <time>2018-03-18T10:08:43.000Z</time>
      </trkpt>
      <trkpt lat="43.01826" lon="0.55107">
        <ele>736</ele>
        <time>2018-03-18T10:08:45.000Z</time>
      </trkpt>
      <trkpt lat="43.01826" lon="0.55107">
        <ele>736</ele>
        <time>2018-03-18T10:08:47.000Z</time>
      </trkpt>
      <trkpt lat="43.01825" lon="0.55107">
        <ele>736</ele>
        <time>2018-03-18T10:08:49.000Z</time>
      </trkpt>
      <trkpt lat="43.01825" lon="0.55107">
        <ele>736</ele>
        <time>2018-03-18T10:08:51.000Z</time>
      </trkpt>
      <trkpt lat="43.01825" lon="0.55107">
        <ele>736</ele>
        <time>2018-03-18T10:08:53.000Z</time>
      </trkpt>
      <trkpt lat="43.01825" lon="0.55107">
        <ele>736</ele>
        <time>2018-03-18T10:08:55.000Z</time>
      </trkpt>
      <trkpt lat="43.01826" lon="0.55106">
        <ele>736</ele>
        <time>2018-03-18T10:08:57.000Z</time>
      </trkpt>
      <trkpt lat="43.01825" lon="0.55106">
        <ele>736</ele>
        <time>2018-03-18T10:08:59.000Z</time>
      </trkpt>
      <trkpt lat="43.01826" lon="0.55105">
        <ele>736</ele>
        <time>2018-03-18T10:09:01.000Z</time>
      </trkpt>
      <trkpt lat="43.01827" lon="0.55104">
        <ele>736</ele>
        <time>2018-03-18T10:09:03.000Z</time>
      </trkpt>
      <trkpt lat="43.01827" lon="0.55102">
        <ele>736</ele>
        <time>2018-03-18T10:09:05.000Z</time>
      </trkpt>
      <trkpt lat="43.01827" lon="0.55101">
        <ele>736</ele>
        <time>2018-03-18T10:09:07.000Z</time>
      </trkpt>
      <trkpt lat="43.01827" lon="0.551">
        <ele>736</ele>
        <time>2018-03-18T10:09:09.000Z</time>
      </trkpt>
      <trkpt lat="43.01827" lon="0.55099">
        <ele>736</ele>
        <time>2018-03-18T10:09:11.000Z</time>
      </trkpt>
      <trkpt lat="43.01827" lon="0.55099">
        <ele>736</ele>
        <time>2018-03-18T10:09:13.000Z</time>
      </trkpt>
      <trkpt lat="43.01827" lon="0.55099">
        <ele>736</ele>
        <time>2018-03-18T10:09:15.000Z</time>
      </trkpt>
      <trkpt lat="43.01827" lon="0.55099">
        <ele>736</ele>
        <time>2018-03-18T10:09:17.000Z</time>
      </trkpt>
      <trkpt lat="43.01826" lon="0.55099">
        <ele>736</ele>
        <time>2018-03-18T10:09:19.000Z</time>
      </trkpt>
      <trkpt lat="43.01826" lon="0.55098">
        <ele>736</ele>
        <time>2018-03-18T10:09:21.000Z</time>
      </trkpt>
      <trkpt lat="43.01825" lon="0.55096">
        <ele>736</ele>
        <time>2018-03-18T10:09:23.000Z</time>
      </trkpt>
      <trkpt lat="43.01825" lon="0.55095">
        <ele>736</ele>
        <time>2018-03-18T10:09:25.000Z</time>
      </trkpt>
      <trkpt lat="43.01825" lon="0.55092">
        <ele>736</ele>
        <time>2018-03-18T10:09:27.000Z</time>
      </trkpt>
      <trkpt lat="43.01826" lon="0.55091">
        <ele>736</ele>
        <time>2018-03-18T10:09:29.000Z</time>
      </trkpt>
      <trkpt lat="43.01826" lon="0.55088">
        <ele>736</ele>
        <time>2018-03-18T10:09:31.000Z</time>
      </trkpt>
      <trkpt lat="43.01827" lon="0.55086">
        <ele>736</ele>
        <time>2018-03-18T10:09:33.000Z</time>
      </trkpt>
      <trkpt lat="43.01828" lon="0.55084">
        <ele>736</ele>
        <time>2018-03-18T10:09:35.000Z</time>
      </trkpt>
      <trkpt lat="43.0183" lon="0.55082">
        <ele>736</ele>
        <time>2018-03-18T10:09:37.000Z</time>
      </trkpt>
      <trkpt lat="43.0183" lon="0.5508">
        <ele>736</ele>
        <time>2018-03-18T10:09:39.000Z</time>
      </trkpt>
      <trkpt lat="43.01831" lon="0.55079">
        <ele>735</ele>
        <time>2018-03-18T10:09:41.000Z</time>
      </trkpt>
      <trkpt lat="43.01832" lon="0.55077">
        <ele>735</ele>
        <time>2018-03-18T10:09:43.000Z</time>
      </trkpt>
      <trkpt lat="43.01833" lon="0.55077">
        <ele>735</ele>
        <time>2018-03-18T10:09:45.000Z</time>
      </trkpt>
      <trkpt lat="43.01833" lon="0.55076">
        <ele>735</ele>
        <time>2018-03-18T10:09:47.000Z</time>
      </trkpt>
      <trkpt lat="43.01834" lon="0.55076">
        <ele>735</ele>
        <time>2018-03-18T10:09:49.000Z</time>
      </trkpt>
      <trkpt lat="43.01835" lon="0.55076">
        <ele>735</ele>
        <time>2018-03-18T10:09:51.000Z</time>
      </trkpt>
      <trkpt lat="43.01836" lon="0.55075">
        <ele>735</ele>
        <time>2018-03-18T10:09:53.000Z</time>
      </trkpt>
      <trkpt lat="43.01836" lon="0.55075">
        <ele>735</ele>
        <time>2018-03-18T10:09:55.000Z</time>
      </trkpt>
      <trkpt lat="43.01837" lon="0.55073">
        <ele>735</ele>
        <time>2018-03-18T10:09:57.000Z</time>
      </trkpt>
      <trkpt lat="43.01838" lon="0.55071">
        <ele>734</ele>
        <time>2018-03-18T10:09:59.000Z</time>
      </trkpt>
      <trkpt lat="43.01839" lon="0.5507">
        <ele>734</ele>
        <time>2018-03-18T10:10:01.000Z</time>
      </trkpt>
      <trkpt lat="43.01839" lon="0.55067">
        <ele>734</ele>
        <time>2018-03-18T10:10:03.000Z</time>
      </trkpt>
      <trkpt lat="43.0184" lon="0.55064">
        <ele>734</ele>
        <time>2018-03-18T10:10:05.000Z</time>
      </trkpt>
      <trkpt lat="43.0184" lon="0.55061">
        <ele>734</ele>
        <time>2018-03-18T10:10:07.000Z</time>
      </trkpt>
      <trkpt lat="43.01841" lon="0.5506">
        <ele>734</ele>
        <time>2018-03-18T10:10:09.000Z</time>
      </trkpt>
      <trkpt lat="43.01842" lon="0.55058">
        <ele>734</ele>
        <time>2018-03-18T10:10:11.000Z</time>
      </trkpt>
      <trkpt lat="43.01843" lon="0.55057">
        <ele>734</ele>
        <time>2018-03-18T10:10:13.000Z</time>
      </trkpt>
      <trkpt lat="43.01843" lon="0.55055">
        <ele>734</ele>
        <time>2018-03-18T10:10:15.000Z</time>
      </trkpt>
      <trkpt lat="43.01843" lon="0.55053">
        <ele>734</ele>
        <time>2018-03-18T10:10:17.000Z</time>
      </trkpt>
      <trkpt lat="43.01843" lon="0.55052">
        <ele>734</ele>
        <time>2018-03-18T10:10:19.000Z</time>
      </trkpt>
      <trkpt lat="43.01844" lon="0.55051">
        <ele>734</ele>
        <time>2018-03-18T10:10:21.000Z</time>
      </trkpt>
      <trkpt lat="43.01844" lon="0.55049">
        <ele>734</ele>
        <time>2018-03-18T10:10:23.000Z</time>
      </trkpt>
      <trkpt lat="43.01844" lon="0.55047">
        <ele>734</ele>
        <time>2018-03-18T10:10:25.000Z</time>
      </trkpt>
      <trkpt lat="43.01844" lon="0.55046">
        <ele>733</ele>
        <time>2018-03-18T10:10:27.000Z</time>
      </trkpt>
      <trkpt lat="43.01843" lon="0.55045">
        <ele>733</ele>
        <time>2018-03-18T10:10:29.000Z</time>
      </trkpt>
      <trkpt lat="43.01844" lon="0.55044">
        <ele>733</ele>
        <time>2018-03-18T10:10:31.000Z</time>
      </trkpt>
      <trkpt lat="43.01844" lon="0.55042">
        <ele>733</ele>
        <time>2018-03-18T10:10:33.000Z</time>
      </trkpt>
      <trkpt lat="43.01844" lon="0.55041">
        <ele>733</ele>
        <time>2018-03-18T10:10:35.000Z</time>
      </trkpt>
      <trkpt lat="43.01846" lon="0.55039">
        <ele>733</ele>
        <time>2018-03-18T10:10:37.000Z</time>
      </trkpt>
      <trkpt lat="43.01846" lon="0.55037">
        <ele>732</ele>
        <time>2018-03-18T10:10:39.000Z</time>
      </trkpt>
      <trkpt lat="43.01847" lon="0.55035">
        <ele>732</ele>
        <time>2018-03-18T10:10:41.000Z</time>
      </trkpt>
      <trkpt lat="43.01848" lon="0.55033">
        <ele>732</ele>
        <time>2018-03-18T10:10:43.000Z</time>
      </trkpt>
      <trkpt lat="43.01848" lon="0.55031">
        <ele>732</ele>
        <time>2018-03-18T10:10:45.000Z</time>
      </trkpt>
      <trkpt lat="43.01848" lon="0.55029">
        <ele>731</ele>
        <time>2018-03-18T10:10:47.000Z</time>
      </trkpt>
      <trkpt lat="43.01849" lon="0.55027">
        <ele>731</ele>
        <time>2018-03-18T10:10:49.000Z</time>
      </trkpt>
      <trkpt lat="43.01849" lon="0.55025">
        <ele>731</ele>
        <time>2018-03-18T10:10:51.000Z</time>
      </trkpt>
      <trkpt lat="43.01849" lon="0.55024">
        <ele>731</ele>
        <time>2018-03-18T10:10:53.000Z</time>
      </trkpt>
      <trkpt lat="43.01849" lon="0.55023">
        <ele>731</ele>
        <time>2018-03-18T10:10:55.000Z</time>
      </trkpt>
      <trkpt lat="43.01849" lon="0.55021">
        <ele>731</ele>
        <time>2018-03-18T10:10:57.000Z</time>
      </trkpt>
      <trkpt lat="43.01849" lon="0.5502">
        <ele>730</ele>
        <time>2018-03-18T10:10:59.000Z</time>
      </trkpt>
      <trkpt lat="43.01849" lon="0.55018">
        <ele>730</ele>
        <time>2018-03-18T10:11:01.000Z</time>
      </trkpt>
      <trkpt lat="43.01849" lon="0.55016">
        <ele>730</ele>
        <time>2018-03-18T10:11:03.000Z</time>
      </trkpt>
      <trkpt lat="43.0185" lon="0.55014">
        <ele>730</ele>
        <time>2018-03-18T10:11:05.000Z</time>
      </trkpt>
      <trkpt lat="43.01851" lon="0.55011">
        <ele>729</ele>
        <time>2018-03-18T10:11:07.000Z</time>
      </trkpt>
      <trkpt lat="43.01853" lon="0.55007">
        <ele>729</ele>
        <time>2018-03-18T10:11:09.000Z</time>
      </trkpt>
      <trkpt lat="43.01854" lon="0.55004">
        <ele>729</ele>
        <time>2018-03-18T10:11:11.000Z</time>
      </trkpt>
      <trkpt lat="43.01856" lon="0.55001">
        <ele>728</ele>
        <time>2018-03-18T10:11:13.000Z</time>
      </trkpt>
      <trkpt lat="43.01856" lon="0.54997">
        <ele>728</ele>
        <time>2018-03-18T10:11:15.000Z</time>
      </trkpt>
      <trkpt lat="43.01856" lon="0.54994">
        <ele>728</ele>
        <time>2018-03-18T10:11:17.000Z</time>
      </trkpt>
      <trkpt lat="43.01856" lon="0.54992">
        <ele>727</ele>
        <time>2018-03-18T10:11:19.000Z</time>
      </trkpt>
      <trkpt lat="43.01856" lon="0.5499">
        <ele>727</ele>
        <time>2018-03-18T10:11:21.000Z</time>
      </trkpt>
      <trkpt lat="43.01856" lon="0.54988">
        <ele>727</ele>
        <time>2018-03-18T10:11:23.000Z</time>
      </trkpt>
      <trkpt lat="43.01856" lon="0.54986">
        <ele>727</ele>
        <time>2018-03-18T10:11:25.000Z</time>
      </trkpt>
      <trkpt lat="43.01855" lon="0.54985">
        <ele>727</ele>
        <time>2018-03-18T10:11:27.000Z</time>
      </trkpt>
      <trkpt lat="43.01855" lon="0.54983">
        <ele>726</ele>
        <time>2018-03-18T10:11:29.000Z</time>
      </trkpt>
      <trkpt lat="43.01855" lon="0.54982">
        <ele>726</ele>
        <time>2018-03-18T10:11:31.000Z</time>
      </trkpt>
      <trkpt lat="43.01855" lon="0.5498">
        <ele>726</ele>
        <time>2018-03-18T10:11:33.000Z</time>
      </trkpt>
      <trkpt lat="43.01856" lon="0.54979">
        <ele>726</ele>
        <time>2018-03-18T10:11:35.000Z</time>
      </trkpt>
      <trkpt lat="43.01856" lon="0.54978">
        <ele>726</ele>
        <time>2018-03-18T10:11:37.000Z</time>
      </trkpt>
      <trkpt lat="43.01855" lon="0.54977">
        <ele>726</ele>
        <time>2018-03-18T10:11:39.000Z</time>
      </trkpt>
      <trkpt lat="43.01855" lon="0.54976">
        <ele>726</ele>
        <time>2018-03-18T10:11:41.000Z</time>
      </trkpt>
      <trkpt lat="43.01855" lon="0.54976">
        <ele>726</ele>
        <time>2018-03-18T10:11:43.000Z</time>
      </trkpt>
      <trkpt lat="43.01854" lon="0.54974">
        <ele>726</ele>
        <time>2018-03-18T10:11:45.000Z</time>
      </trkpt>
      <trkpt lat="43.01854" lon="0.54973">
        <ele>726</ele>
        <time>2018-03-18T10:11:47.000Z</time>
      </trkpt>
      <trkpt lat="43.01855" lon="0.54971">
        <ele>726</ele>
        <time>2018-03-18T10:11:49.000Z</time>
      </trkpt>
      <trkpt lat="43.01855" lon="0.54968">
        <ele>726</ele>
        <time>2018-03-18T10:11:51.000Z</time>
      </trkpt>
      <trkpt lat="43.01854" lon="0.54966">
        <ele>726</ele>
        <time>2018-03-18T10:11:53.000Z</time>
      </trkpt>
      <trkpt lat="43.01855" lon="0.54963">
        <ele>726</ele>
        <time>2018-03-18T10:11:55.000Z</time>
      </trkpt>
      <trkpt lat="43.01855" lon="0.54961">
        <ele>725</ele>
        <time>2018-03-18T10:11:57.000Z</time>
      </trkpt>
      <trkpt lat="43.01855" lon="0.54959">
        <ele>725</ele>
        <time>2018-03-18T10:11:59.000Z</time>
      </trkpt>
      <trkpt lat="43.01855" lon="0.54957">
        <ele>725</ele>
        <time>2018-03-18T10:12:01.000Z</time>
      </trkpt>
      <trkpt lat="43.01855" lon="0.54955">
        <ele>725</ele>
        <time>2018-03-18T10:12:03.000Z</time>
      </trkpt>
      <trkpt lat="43.01855" lon="0.54951">
        <ele>724</ele>
        <time>2018-03-18T10:12:05.000Z</time>
      </trkpt>
      <trkpt lat="43.01855" lon="0.54948">
        <ele>724</ele>
        <time>2018-03-18T10:12:07.000Z</time>
      </trkpt>
      <trkpt lat="43.01856" lon="0.54942">
        <ele>723</ele>
        <time>2018-03-18T10:12:09.000Z</time>
      </trkpt>
      <trkpt lat="43.01858" lon="0.54939">
        <ele>723</ele>
        <time>2018-03-18T10:12:11.000Z</time>
      </trkpt>
      <trkpt lat="43.01859" lon="0.54937">
        <ele>723</ele>
        <time>2018-03-18T10:12:13.000Z</time>
      </trkpt>
      <trkpt lat="43.0186" lon="0.54934">
        <ele>723</ele>
        <time>2018-03-18T10:12:15.000Z</time>
      </trkpt>
      <trkpt lat="43.01861" lon="0.54931">
        <ele>722</ele>
        <time>2018-03-18T10:12:17.000Z</time>
      </trkpt>
      <trkpt lat="43.01863" lon="0.54928">
        <ele>722</ele>
        <time>2018-03-18T10:12:19.000Z</time>
      </trkpt>
      <trkpt lat="43.01864" lon="0.54925">
        <ele>722</ele>
        <time>2018-03-18T10:12:21.000Z</time>
      </trkpt>
      <trkpt lat="43.01865" lon="0.54922">
        <ele>722</ele>
        <time>2018-03-18T10:12:23.000Z</time>
      </trkpt>
      <trkpt lat="43.01866" lon="0.5492">
        <ele>722</ele>
        <time>2018-03-18T10:12:25.000Z</time>
      </trkpt>
      <trkpt lat="43.01867" lon="0.54918">
        <ele>721</ele>
        <time>2018-03-18T10:12:27.000Z</time>
      </trkpt>
      <trkpt lat="43.01868" lon="0.54918">
        <ele>722</ele>
        <time>2018-03-18T10:12:29.000Z</time>
      </trkpt>
      <trkpt lat="43.0187" lon="0.54917">
        <ele>722</ele>
        <time>2018-03-18T10:12:31.000Z</time>
      </trkpt>
      <trkpt lat="43.01871" lon="0.54916">
        <ele>722</ele>
        <time>2018-03-18T10:12:33.000Z</time>
      </trkpt>
      <trkpt lat="43.01872" lon="0.54915">
        <ele>722</ele>
        <time>2018-03-18T10:12:35.000Z</time>
      </trkpt>
      <trkpt lat="43.01874" lon="0.54913">
        <ele>721</ele>
        <time>2018-03-18T10:12:37.000Z</time>
      </trkpt>
      <trkpt lat="43.01875" lon="0.54911">
        <ele>721</ele>
        <time>2018-03-18T10:12:39.000Z</time>
      </trkpt>
      <trkpt lat="43.01876" lon="0.5491">
        <ele>721</ele>
        <time>2018-03-18T10:12:41.000Z</time>
      </trkpt>
      <trkpt lat="43.01877" lon="0.54909">
        <ele>720</ele>
        <time>2018-03-18T10:12:43.000Z</time>
      </trkpt>
      <trkpt lat="43.01879" lon="0.54908">
        <ele>720</ele>
        <time>2018-03-18T10:12:45.000Z</time>
      </trkpt>
      <trkpt lat="43.01878" lon="0.54907">
        <ele>720</ele>
        <time>2018-03-18T10:12:47.000Z</time>
      </trkpt>
      <trkpt lat="43.01879" lon="0.54908">
        <ele>720</ele>
        <time>2018-03-18T10:12:49.000Z</time>
      </trkpt>
      <trkpt lat="43.01879" lon="0.54906">
        <ele>720</ele>
        <time>2018-03-18T10:12:51.000Z</time>
      </trkpt>
      <trkpt lat="43.0188" lon="0.54905">
        <ele>720</ele>
        <time>2018-03-18T10:12:53.000Z</time>
      </trkpt>
      <trkpt lat="43.0188" lon="0.54903">
        <ele>719</ele>
        <time>2018-03-18T10:12:55.000Z</time>
      </trkpt>
      <trkpt lat="43.0188" lon="0.54902">
        <ele>719</ele>
        <time>2018-03-18T10:12:57.000Z</time>
      </trkpt>
      <trkpt lat="43.0188" lon="0.549">
        <ele>719</ele>
        <time>2018-03-18T10:12:59.000Z</time>
      </trkpt>
      <trkpt lat="43.01881" lon="0.54897">
        <ele>718</ele>
        <time>2018-03-18T10:13:01.000Z</time>
      </trkpt>
      <trkpt lat="43.01881" lon="0.54895">
        <ele>718</ele>
        <time>2018-03-18T10:13:03.000Z</time>
      </trkpt>
      <trkpt lat="43.01881" lon="0.54892">
        <ele>717</ele>
        <time>2018-03-18T10:13:05.000Z</time>
      </trkpt>
      <trkpt lat="43.01882" lon="0.5489">
        <ele>717</ele>
        <time>2018-03-18T10:13:07.000Z</time>
      </trkpt>
      <trkpt lat="43.01882" lon="0.54887">
        <ele>716</ele>
        <time>2018-03-18T10:13:09.000Z</time>
      </trkpt>
      <trkpt lat="43.01883" lon="0.54884">
        <ele>715</ele>
        <time>2018-03-18T10:13:11.000Z</time>
      </trkpt>
      <trkpt lat="43.01884" lon="0.54882">
        <ele>715</ele>
        <time>2018-03-18T10:13:13.000Z</time>
      </trkpt>
      <trkpt lat="43.01884" lon="0.54881">
        <ele>715</ele>
        <time>2018-03-18T10:13:15.000Z</time>
      </trkpt>
      <trkpt lat="43.01884" lon="0.54879">
        <ele>714</ele>
        <time>2018-03-18T10:13:17.000Z</time>
      </trkpt>
      <trkpt lat="43.01884" lon="0.54879">
        <ele>714</ele>
        <time>2018-03-18T10:13:19.000Z</time>
      </trkpt>
      <trkpt lat="43.01885" lon="0.54879">
        <ele>714</ele>
        <time>2018-03-18T10:13:21.000Z</time>
      </trkpt>
      <trkpt lat="43.01884" lon="0.54878">
        <ele>714</ele>
        <time>2018-03-18T10:13:23.000Z</time>
      </trkpt>
      <trkpt lat="43.01885" lon="0.54878">
        <ele>714</ele>
        <time>2018-03-18T10:13:25.000Z</time>
      </trkpt>
      <trkpt lat="43.01886" lon="0.54877">
        <ele>714</ele>
        <time>2018-03-18T10:13:27.000Z</time>
      </trkpt>
      <trkpt lat="43.01886" lon="0.54876">
        <ele>713</ele>
        <time>2018-03-18T10:13:29.000Z</time>
      </trkpt>
      <trkpt lat="43.01887" lon="0.54874">
        <ele>713</ele>
        <time>2018-03-18T10:13:31.000Z</time>
      </trkpt>
      <trkpt lat="43.01887" lon="0.54874">
        <ele>713</ele>
        <time>2018-03-18T10:13:33.000Z</time>
      </trkpt>
      <trkpt lat="43.01888" lon="0.54873">
        <ele>712</ele>
        <time>2018-03-18T10:13:35.000Z</time>
      </trkpt>
      <trkpt lat="43.01889" lon="0.54871">
        <ele>712</ele>
        <time>2018-03-18T10:13:37.000Z</time>
      </trkpt>
      <trkpt lat="43.0189" lon="0.5487">
        <ele>712</ele>
        <time>2018-03-18T10:13:39.000Z</time>
      </trkpt>
      <trkpt lat="43.0189" lon="0.54869">
        <ele>711</ele>
        <time>2018-03-18T10:13:41.000Z</time>
      </trkpt>
      <trkpt lat="43.01891" lon="0.54867">
        <ele>711</ele>
        <time>2018-03-18T10:13:43.000Z</time>
      </trkpt>
      <trkpt lat="43.01893" lon="0.54864">
        <ele>710</ele>
        <time>2018-03-18T10:13:45.000Z</time>
      </trkpt>
      <trkpt lat="43.01894" lon="0.54861">
        <ele>709</ele>
        <time>2018-03-18T10:13:47.000Z</time>
      </trkpt>
      <trkpt lat="43.01895" lon="0.54862">
        <ele>709</ele>
        <time>2018-03-18T10:13:49.000Z</time>
      </trkpt>
      <trkpt lat="43.01895" lon="0.5486">
        <ele>709</ele>
        <time>2018-03-18T10:13:51.000Z</time>
      </trkpt>
      <trkpt lat="43.01896" lon="0.54859">
        <ele>709</ele>
        <time>2018-03-18T10:13:53.000Z</time>
      </trkpt>
      <trkpt lat="43.01896" lon="0.54857">
        <ele>708</ele>
        <time>2018-03-18T10:13:55.000Z</time>
      </trkpt>
      <trkpt lat="43.01896" lon="0.54856">
        <ele>708</ele>
        <time>2018-03-18T10:13:57.000Z</time>
      </trkpt>
      <trkpt lat="43.01896" lon="0.54855">
        <ele>707</ele>
        <time>2018-03-18T10:13:59.000Z</time>
      </trkpt>
      <trkpt lat="43.01897" lon="0.54854">
        <ele>707</ele>
        <time>2018-03-18T10:14:01.000Z</time>
      </trkpt>
      <trkpt lat="43.01897" lon="0.54852">
        <ele>707</ele>
        <time>2018-03-18T10:14:03.000Z</time>
      </trkpt>
      <trkpt lat="43.01898" lon="0.54851">
        <ele>706</ele>
        <time>2018-03-18T10:14:05.000Z</time>
      </trkpt>
      <trkpt lat="43.01899" lon="0.5485">
        <ele>706</ele>
        <time>2018-03-18T10:14:07.000Z</time>
      </trkpt>
      <trkpt lat="43.019" lon="0.54848">
        <ele>705</ele>
        <time>2018-03-18T10:14:09.000Z</time>
      </trkpt>
      <trkpt lat="43.01901" lon="0.54847">
        <ele>705</ele>
        <time>2018-03-18T10:14:11.000Z</time>
      </trkpt>
      <trkpt lat="43.01901" lon="0.54847">
        <ele>704</ele>
        <time>2018-03-18T10:14:13.000Z</time>
      </trkpt>
      <trkpt lat="43.01902" lon="0.54847">
        <ele>704</ele>
        <time>2018-03-18T10:14:15.000Z</time>
      </trkpt>
      <trkpt lat="43.01902" lon="0.54845">
        <ele>703</ele>
        <time>2018-03-18T10:14:17.000Z</time>
      </trkpt>
      <trkpt lat="43.01903" lon="0.54844">
        <ele>703</ele>
        <time>2018-03-18T10:14:19.000Z</time>
      </trkpt>
      <trkpt lat="43.01904" lon="0.54843">
        <ele>703</ele>
        <time>2018-03-18T10:14:21.000Z</time>
      </trkpt>
      <trkpt lat="43.01904" lon="0.54841">
        <ele>702</ele>
        <time>2018-03-18T10:14:23.000Z</time>
      </trkpt>
      <trkpt lat="43.01903" lon="0.5484">
        <ele>702</ele>
        <time>2018-03-18T10:14:25.000Z</time>
      </trkpt>
      <trkpt lat="43.01904" lon="0.5484">
        <ele>701</ele>
        <time>2018-03-18T10:14:27.000Z</time>
      </trkpt>
      <trkpt lat="43.01904" lon="0.54838">
        <ele>701</ele>
        <time>2018-03-18T10:14:29.000Z</time>
      </trkpt>
      <trkpt lat="43.01904" lon="0.54837">
        <ele>700</ele>
        <time>2018-03-18T10:14:31.000Z</time>
      </trkpt>
      <trkpt lat="43.01905" lon="0.54837">
        <ele>700</ele>
        <time>2018-03-18T10:14:33.000Z</time>
      </trkpt>
      <trkpt lat="43.01905" lon="0.54837">
        <ele>700</ele>
        <time>2018-03-18T10:14:35.000Z</time>
      </trkpt>
      <trkpt lat="43.01906" lon="0.54837">
        <ele>700</ele>
        <time>2018-03-18T10:14:37.000Z</time>
      </trkpt>
      <trkpt lat="43.01906" lon="0.54836">
        <ele>700</ele>
        <time>2018-03-18T10:14:39.000Z</time>
      </trkpt>
      <trkpt lat="43.01907" lon="0.54838">
        <ele>701</ele>
        <time>2018-03-18T10:14:41.000Z</time>
      </trkpt>
      <trkpt lat="43.01908" lon="0.54837">
        <ele>700</ele>
        <time>2018-03-18T10:14:44.000Z</time>
      </trkpt>
      <trkpt lat="43.01907" lon="0.54836">
        <ele>700</ele>
        <time>2018-03-18T10:14:46.000Z</time>
      </trkpt>
      <trkpt lat="43.01907" lon="0.54835">
        <ele>700</ele>
        <time>2018-03-18T10:14:48.000Z</time>
      </trkpt>
      <trkpt lat="43.01907" lon="0.54834">
        <ele>699</ele>
        <time>2018-03-18T10:14:50.000Z</time>
      </trkpt>
      <trkpt lat="43.01907" lon="0.54833">
        <ele>699</ele>
        <time>2018-03-18T10:14:52.000Z</time>
      </trkpt>
      <trkpt lat="43.01907" lon="0.54832">
        <ele>698</ele>
        <time>2018-03-18T10:14:54.000Z</time>
      </trkpt>
      <trkpt lat="43.01907" lon="0.5483">
        <ele>698</ele>
        <time>2018-03-18T10:14:56.000Z</time>
      </trkpt>
      <trkpt lat="43.01907" lon="0.54829">
        <ele>698</ele>
        <time>2018-03-18T10:14:58.000Z</time>
      </trkpt>
      <trkpt lat="43.01907" lon="0.54828">
        <ele>697</ele>
        <time>2018-03-18T10:15:00.000Z</time>
      </trkpt>
      <trkpt lat="43.01908" lon="0.54827">
        <ele>697</ele>
        <time>2018-03-18T10:15:02.000Z</time>
      </trkpt>
      <trkpt lat="43.01908" lon="0.54825">
        <ele>696</ele>
        <time>2018-03-18T10:15:04.000Z</time>
      </trkpt>
      <trkpt lat="43.01909" lon="0.54824">
        <ele>695</ele>
        <time>2018-03-18T10:15:06.000Z</time>
      </trkpt>
      <trkpt lat="43.0191" lon="0.54823">
        <ele>695</ele>
        <time>2018-03-18T10:15:08.000Z</time>
      </trkpt>
      <trkpt lat="43.0191" lon="0.54822">
        <ele>695</ele>
        <time>2018-03-18T10:15:10.000Z</time>
      </trkpt>
      <trkpt lat="43.01912" lon="0.54821">
        <ele>694</ele>
        <time>2018-03-18T10:15:12.000Z</time>
      </trkpt>
      <trkpt lat="43.01913" lon="0.54819">
        <ele>693</ele>
        <time>2018-03-18T10:15:14.000Z</time>
      </trkpt>
      <trkpt lat="43.01915" lon="0.54817">
        <ele>693</ele>
        <time>2018-03-18T10:15:16.000Z</time>
      </trkpt>
      <trkpt lat="43.01916" lon="0.54817">
        <ele>692</ele>
        <time>2018-03-18T10:15:18.000Z</time>
      </trkpt>
      <trkpt lat="43.01917" lon="0.54816">
        <ele>692</ele>
        <time>2018-03-18T10:15:20.000Z</time>
      </trkpt>
      <trkpt lat="43.01918" lon="0.54816">
        <ele>692</ele>
        <time>2018-03-18T10:15:22.000Z</time>
      </trkpt>
      <trkpt lat="43.0192" lon="0.54817">
        <ele>692</ele>
        <time>2018-03-18T10:15:24.000Z</time>
      </trkpt>
      <trkpt lat="43.0192" lon="0.54816">
        <ele>692</ele>
        <time>2018-03-18T10:15:26.000Z</time>
      </trkpt>
      <trkpt lat="43.01921" lon="0.54816">
        <ele>692</ele>
        <time>2018-03-18T10:15:28.000Z</time>
      </trkpt>
      <trkpt lat="43.01921" lon="0.54816">
        <ele>692</ele>
        <time>2018-03-18T10:15:30.000Z</time>
      </trkpt>
      <trkpt lat="43.01922" lon="0.54815">
        <ele>691</ele>
        <time>2018-03-18T10:15:32.000Z</time>
      </trkpt>
      <trkpt lat="43.01923" lon="0.54814">
        <ele>691</ele>
        <time>2018-03-18T10:15:34.000Z</time>
      </trkpt>
      <trkpt lat="43.01924" lon="0.54814">
        <ele>691</ele>
        <time>2018-03-18T10:15:36.000Z</time>
      </trkpt>
      <trkpt lat="43.01925" lon="0.54813">
        <ele>690</ele>
        <time>2018-03-18T10:15:38.000Z</time>
      </trkpt>
      <trkpt lat="43.01926" lon="0.54811">
        <ele>690</ele>
        <time>2018-03-18T10:15:40.000Z</time>
      </trkpt>
      <trkpt lat="43.01927" lon="0.54809">
        <ele>689</ele>
        <time>2018-03-18T10:15:42.000Z</time>
      </trkpt>
      <trkpt lat="43.01928" lon="0.54808">
        <ele>689</ele>
        <time>2018-03-18T10:15:44.000Z</time>
      </trkpt>
      <trkpt lat="43.0193" lon="0.54806">
        <ele>688</ele>
        <time>2018-03-18T10:15:46.000Z</time>
      </trkpt>
      <trkpt lat="43.01932" lon="0.54805">
        <ele>688</ele>
        <time>2018-03-18T10:15:48.000Z</time>
      </trkpt>
      <trkpt lat="43.01932" lon="0.54803">
        <ele>688</ele>
        <time>2018-03-18T10:15:50.000Z</time>
      </trkpt>
      <trkpt lat="43.01934" lon="0.54801">
        <ele>687</ele>
        <time>2018-03-18T10:15:52.000Z</time>
      </trkpt>
      <trkpt lat="43.01934" lon="0.54799">
        <ele>686</ele>
        <time>2018-03-18T10:15:54.000Z</time>
      </trkpt>
      <trkpt lat="43.01935" lon="0.54798">
        <ele>686</ele>
        <time>2018-03-18T10:15:56.000Z</time>
      </trkpt>
      <trkpt lat="43.01936" lon="0.54797">
        <ele>686</ele>
        <time>2018-03-18T10:15:58.000Z</time>
      </trkpt>
      <trkpt lat="43.01936" lon="0.54797">
        <ele>686</ele>
        <time>2018-03-18T10:16:00.000Z</time>
      </trkpt>
      <trkpt lat="43.01937" lon="0.54797">
        <ele>686</ele>
        <time>2018-03-18T10:16:02.000Z</time>
      </trkpt>
      <trkpt lat="43.01938" lon="0.54796">
        <ele>686</ele>
        <time>2018-03-18T10:16:04.000Z</time>
      </trkpt>
      <trkpt lat="43.01938" lon="0.54795">
        <ele>685</ele>
        <time>2018-03-18T10:16:06.000Z</time>
      </trkpt>
      <trkpt lat="43.01939" lon="0.54795">
        <ele>685</ele>
        <time>2018-03-18T10:16:08.000Z</time>
      </trkpt>
      <trkpt lat="43.0194" lon="0.54793">
        <ele>685</ele>
        <time>2018-03-18T10:16:10.000Z</time>
      </trkpt>
      <trkpt lat="43.01939" lon="0.54794">
        <ele>685</ele>
        <time>2018-03-18T10:16:12.000Z</time>
      </trkpt>
      <trkpt lat="43.01939" lon="0.54793">
        <ele>685</ele>
        <time>2018-03-18T10:16:14.000Z</time>
      </trkpt>
      <trkpt lat="43.01939" lon="0.54792">
        <ele>684</ele>
        <time>2018-03-18T10:16:16.000Z</time>
      </trkpt>
      <trkpt lat="43.01939" lon="0.54791">
        <ele>684</ele>
        <time>2018-03-18T10:16:18.000Z</time>
      </trkpt>
      <trkpt lat="43.01939" lon="0.5479">
        <ele>683</ele>
        <time>2018-03-18T10:16:20.000Z</time>
      </trkpt>
      <trkpt lat="43.01938" lon="0.54788">
        <ele>682</ele>
        <time>2018-03-18T10:16:22.000Z</time>
      </trkpt>
      <trkpt lat="43.01939" lon="0.54788">
        <ele>682</ele>
        <time>2018-03-18T10:16:24.000Z</time>
      </trkpt>
      <trkpt lat="43.01939" lon="0.54787">
        <ele>682</ele>
        <time>2018-03-18T10:16:26.000Z</time>
      </trkpt>
      <trkpt lat="43.0194" lon="0.54787">
        <ele>682</ele>
        <time>2018-03-18T10:16:28.000Z</time>
      </trkpt>
      <trkpt lat="43.0194" lon="0.54788">
        <ele>683</ele>
        <time>2018-03-18T10:16:30.000Z</time>
      </trkpt>
      <trkpt lat="43.01941" lon="0.54789">
        <ele>683</ele>
        <time>2018-03-18T10:16:32.000Z</time>
      </trkpt>
      <trkpt lat="43.01941" lon="0.54789">
        <ele>683</ele>
        <time>2018-03-18T10:16:34.000Z</time>
      </trkpt>
      <trkpt lat="43.01941" lon="0.5479">
        <ele>683</ele>
        <time>2018-03-18T10:16:36.000Z</time>
      </trkpt>
      <trkpt lat="43.01941" lon="0.5479">
        <ele>683</ele>
        <time>2018-03-18T10:16:38.000Z</time>
      </trkpt>
      <trkpt lat="43.01941" lon="0.5479">
        <ele>684</ele>
        <time>2018-03-18T10:16:40.000Z</time>
      </trkpt>
      <trkpt lat="43.01942" lon="0.5479">
        <ele>684</ele>
        <time>2018-03-18T10:16:42.000Z</time>
      </trkpt>
      <trkpt lat="43.01942" lon="0.54789">
        <ele>683</ele>
        <time>2018-03-18T10:16:44.000Z</time>
      </trkpt>
      <trkpt lat="43.01942" lon="0.54787">
        <ele>682</ele>
        <time>2018-03-18T10:16:46.000Z</time>
      </trkpt>
      <trkpt lat="43.01943" lon="0.54786">
        <ele>682</ele>
        <time>2018-03-18T10:16:48.000Z</time>
      </trkpt>
      <trkpt lat="43.01942" lon="0.54785">
        <ele>682</ele>
        <time>2018-03-18T10:16:50.000Z</time>
      </trkpt>
      <trkpt lat="43.01943" lon="0.54785">
        <ele>681</ele>
        <time>2018-03-18T10:16:52.000Z</time>
      </trkpt>
      <trkpt lat="43.01943" lon="0.54784">
        <ele>681</ele>
        <time>2018-03-18T10:16:54.000Z</time>
      </trkpt>
      <trkpt lat="43.01942" lon="0.54783">
        <ele>681</ele>
        <time>2018-03-18T10:16:56.000Z</time>
      </trkpt>
      <trkpt lat="43.01942" lon="0.54783">
        <ele>681</ele>
        <time>2018-03-18T10:16:58.000Z</time>
      </trkpt>
      <trkpt lat="43.01942" lon="0.54781">
        <ele>680</ele>
        <time>2018-03-18T10:17:00.000Z</time>
      </trkpt>
      <trkpt lat="43.01943" lon="0.54778">
        <ele>679</ele>
        <time>2018-03-18T10:17:02.000Z</time>
      </trkpt>
      <trkpt lat="43.01943" lon="0.54776">
        <ele>678</ele>
        <time>2018-03-18T10:17:04.000Z</time>
      </trkpt>
      <trkpt lat="43.01944" lon="0.54774">
        <ele>678</ele>
        <time>2018-03-18T10:17:06.000Z</time>
      </trkpt>
      <trkpt lat="43.01945" lon="0.54775">
        <ele>678</ele>
        <time>2018-03-18T10:17:08.000Z</time>
      </trkpt>
      <trkpt lat="43.01946" lon="0.54773">
        <ele>677</ele>
        <time>2018-03-18T10:17:10.000Z</time>
      </trkpt>
      <trkpt lat="43.01946" lon="0.54773">
        <ele>677</ele>
        <time>2018-03-18T10:17:12.000Z</time>
      </trkpt>
      <trkpt lat="43.01947" lon="0.54774">
        <ele>678</ele>
        <time>2018-03-18T10:17:14.000Z</time>
      </trkpt>
      <trkpt lat="43.01948" lon="0.54774">
        <ele>678</ele>
        <time>2018-03-18T10:17:16.000Z</time>
      </trkpt>
      <trkpt lat="43.01948" lon="0.54773">
        <ele>678</ele>
        <time>2018-03-18T10:17:18.000Z</time>
      </trkpt>
      <trkpt lat="43.01949" lon="0.54773">
        <ele>677</ele>
        <time>2018-03-18T10:17:20.000Z</time>
      </trkpt>
      <trkpt lat="43.0195" lon="0.54772">
        <ele>677</ele>
        <time>2018-03-18T10:17:22.000Z</time>
      </trkpt>
      <trkpt lat="43.01951" lon="0.54771">
        <ele>677</ele>
        <time>2018-03-18T10:17:24.000Z</time>
      </trkpt>
      <trkpt lat="43.01952" lon="0.54771">
        <ele>677</ele>
        <time>2018-03-18T10:17:26.000Z</time>
      </trkpt>
      <trkpt lat="43.01953" lon="0.54771">
        <ele>677</ele>
        <time>2018-03-18T10:17:28.000Z</time>
      </trkpt>
      <trkpt lat="43.01954" lon="0.54771">
        <ele>677</ele>
        <time>2018-03-18T10:17:30.000Z</time>
      </trkpt>
      <trkpt lat="43.01955" lon="0.5477">
        <ele>677</ele>
        <time>2018-03-18T10:17:32.000Z</time>
      </trkpt>
      <trkpt lat="43.01956" lon="0.5477">
        <ele>677</ele>
        <time>2018-03-18T10:17:34.000Z</time>
      </trkpt>
      <trkpt lat="43.01956" lon="0.54771">
        <ele>677</ele>
        <time>2018-03-18T10:17:36.000Z</time>
      </trkpt>
      <trkpt lat="43.01956" lon="0.54771">
        <ele>678</ele>
        <time>2018-03-18T10:17:38.000Z</time>
      </trkpt>
      <trkpt lat="43.01956" lon="0.54771">
        <ele>677</ele>
        <time>2018-03-18T10:17:40.000Z</time>
      </trkpt>
      <trkpt lat="43.01957" lon="0.5477">
        <ele>677</ele>
        <time>2018-03-18T10:17:42.000Z</time>
      </trkpt>
      <trkpt lat="43.01956" lon="0.54769">
        <ele>677</ele>
        <time>2018-03-18T10:17:44.000Z</time>
      </trkpt>
      <trkpt lat="43.01957" lon="0.54769">
        <ele>677</ele>
        <time>2018-03-18T10:17:46.000Z</time>
      </trkpt>
      <trkpt lat="43.01957" lon="0.54768">
        <ele>676</ele>
        <time>2018-03-18T10:17:48.000Z</time>
      </trkpt>
      <trkpt lat="43.01958" lon="0.54765">
        <ele>675</ele>
        <time>2018-03-18T10:17:50.000Z</time>
      </trkpt>
      <trkpt lat="43.01958" lon="0.54765">
        <ele>675</ele>
        <time>2018-03-18T10:17:52.000Z</time>
      </trkpt>
      <trkpt lat="43.01957" lon="0.54762">
        <ele>674</ele>
        <time>2018-03-18T10:17:54.000Z</time>
      </trkpt>
      <trkpt lat="43.01957" lon="0.54761">
        <ele>674</ele>
        <time>2018-03-18T10:17:56.000Z</time>
      </trkpt>
      <trkpt lat="43.01958" lon="0.54759">
        <ele>673</ele>
        <time>2018-03-18T10:17:58.000Z</time>
      </trkpt>
      <trkpt lat="43.01959" lon="0.54758">
        <ele>672</ele>
        <time>2018-03-18T10:18:00.000Z</time>
      </trkpt>
      <trkpt lat="43.01959" lon="0.54757">
        <ele>672</ele>
        <time>2018-03-18T10:18:02.000Z</time>
      </trkpt>
      <trkpt lat="43.0196" lon="0.54756">
        <ele>672</ele>
        <time>2018-03-18T10:18:04.000Z</time>
      </trkpt>
      <trkpt lat="43.01961" lon="0.54755">
        <ele>672</ele>
        <time>2018-03-18T10:18:06.000Z</time>
      </trkpt>
      <trkpt lat="43.01961" lon="0.54756">
        <ele>672</ele>
        <time>2018-03-18T10:18:08.000Z</time>
      </trkpt>
      <trkpt lat="43.01961" lon="0.54755">
        <ele>672</ele>
        <time>2018-03-18T10:18:10.000Z</time>
      </trkpt>
      <trkpt lat="43.01961" lon="0.54755">
        <ele>672</ele>
        <time>2018-03-18T10:18:12.000Z</time>
      </trkpt>
      <trkpt lat="43.01961" lon="0.54754">
        <ele>671</ele>
        <time>2018-03-18T10:18:14.000Z</time>
      </trkpt>
      <trkpt lat="43.01961" lon="0.54754">
        <ele>671</ele>
        <time>2018-03-18T10:18:16.000Z</time>
      </trkpt>
      <trkpt lat="43.01961" lon="0.54753">
        <ele>671</ele>
        <time>2018-03-18T10:18:18.000Z</time>
      </trkpt>
      <trkpt lat="43.01961" lon="0.54751">
        <ele>670</ele>
        <time>2018-03-18T10:18:20.000Z</time>
      </trkpt>
      <trkpt lat="43.01961" lon="0.5475">
        <ele>670</ele>
        <time>2018-03-18T10:18:22.000Z</time>
      </trkpt>
      <trkpt lat="43.01961" lon="0.54749">
        <ele>670</ele>
        <time>2018-03-18T10:18:24.000Z</time>
      </trkpt>
      <trkpt lat="43.01961" lon="0.54747">
        <ele>669</ele>
        <time>2018-03-18T10:18:26.000Z</time>
      </trkpt>
      <trkpt lat="43.01961" lon="0.54746">
        <ele>668</ele>
        <time>2018-03-18T10:18:28.000Z</time>
      </trkpt>
      <trkpt lat="43.0196" lon="0.54745">
        <ele>668</ele>
        <time>2018-03-18T10:18:30.000Z</time>
      </trkpt>
      <trkpt lat="43.0196" lon="0.54744">
        <ele>668</ele>
        <time>2018-03-18T10:18:32.000Z</time>
      </trkpt>
      <trkpt lat="43.0196" lon="0.54743">
        <ele>667</ele>
        <time>2018-03-18T10:18:34.000Z</time>
      </trkpt>
      <trkpt lat="43.0196" lon="0.54741">
        <ele>667</ele>
        <time>2018-03-18T10:18:36.000Z</time>
      </trkpt>
      <trkpt lat="43.01962" lon="0.5474">
        <ele>666</ele>
        <time>2018-03-18T10:18:38.000Z</time>
      </trkpt>
      <trkpt lat="43.01962" lon="0.54738">
        <ele>666</ele>
        <time>2018-03-18T10:18:40.000Z</time>
      </trkpt>
      <trkpt lat="43.01963" lon="0.54735">
        <ele>665</ele>
        <time>2018-03-18T10:18:42.000Z</time>
      </trkpt>
      <trkpt lat="43.01964" lon="0.54733">
        <ele>664</ele>
        <time>2018-03-18T10:18:44.000Z</time>
      </trkpt>
      <trkpt lat="43.01965" lon="0.54733">
        <ele>664</ele>
        <time>2018-03-18T10:18:46.000Z</time>
      </trkpt>
      <trkpt lat="43.01966" lon="0.54731">
        <ele>664</ele>
        <time>2018-03-18T10:18:48.000Z</time>
      </trkpt>
      <trkpt lat="43.01968" lon="0.5473">
        <ele>663</ele>
        <time>2018-03-18T10:18:50.000Z</time>
      </trkpt>
      <trkpt lat="43.01969" lon="0.54728">
        <ele>663</ele>
        <time>2018-03-18T10:18:52.000Z</time>
      </trkpt>
      <trkpt lat="43.0197" lon="0.54726">
        <ele>663</ele>
        <time>2018-03-18T10:18:54.000Z</time>
      </trkpt>
      <trkpt lat="43.01971" lon="0.54725">
        <ele>662</ele>
        <time>2018-03-18T10:18:56.000Z</time>
      </trkpt>
      <trkpt lat="43.01972" lon="0.54724">
        <ele>662</ele>
        <time>2018-03-18T10:18:58.000Z</time>
      </trkpt>
      <trkpt lat="43.01972" lon="0.54723">
        <ele>662</ele>
        <time>2018-03-18T10:19:00.000Z</time>
      </trkpt>
      <trkpt lat="43.01973" lon="0.54722">
        <ele>662</ele>
        <time>2018-03-18T10:19:02.000Z</time>
      </trkpt>
      <trkpt lat="43.01973" lon="0.54722">
        <ele>661</ele>
        <time>2018-03-18T10:19:04.000Z</time>
      </trkpt>
      <trkpt lat="43.01973" lon="0.5472">
        <ele>661</ele>
        <time>2018-03-18T10:19:06.000Z</time>
      </trkpt>
      <trkpt lat="43.01974" lon="0.54717">
        <ele>660</ele>
        <time>2018-03-18T10:19:08.000Z</time>
      </trkpt>
      <trkpt lat="43.01976" lon="0.54716">
        <ele>660</ele>
        <time>2018-03-18T10:19:10.000Z</time>
      </trkpt>
      <trkpt lat="43.01977" lon="0.54715">
        <ele>659</ele>
        <time>2018-03-18T10:19:12.000Z</time>
      </trkpt>
      <trkpt lat="43.01977" lon="0.54713">
        <ele>659</ele>
        <time>2018-03-18T10:19:14.000Z</time>
      </trkpt>
      <trkpt lat="43.01978" lon="0.54711">
        <ele>658</ele>
        <time>2018-03-18T10:19:16.000Z</time>
      </trkpt>
      <trkpt lat="43.01978" lon="0.5471">
        <ele>658</ele>
        <time>2018-03-18T10:19:18.000Z</time>
      </trkpt>
      <trkpt lat="43.0198" lon="0.54709">
        <ele>657</ele>
        <time>2018-03-18T10:19:20.000Z</time>
      </trkpt>
      <trkpt lat="43.01982" lon="0.54707">
        <ele>657</ele>
        <time>2018-03-18T10:19:22.000Z</time>
      </trkpt>
      <trkpt lat="43.01982" lon="0.54706">
        <ele>657</ele>
        <time>2018-03-18T10:19:24.000Z</time>
      </trkpt>
      <trkpt lat="43.01983" lon="0.54705">
        <ele>657</ele>
        <time>2018-03-18T10:19:26.000Z</time>
      </trkpt>
      <trkpt lat="43.01984" lon="0.54704">
        <ele>656</ele>
        <time>2018-03-18T10:19:28.000Z</time>
      </trkpt>
      <trkpt lat="43.01985" lon="0.54704">
        <ele>656</ele>
        <time>2018-03-18T10:19:30.000Z</time>
      </trkpt>
      <trkpt lat="43.01986" lon="0.54704">
        <ele>656</ele>
        <time>2018-03-18T10:19:32.000Z</time>
      </trkpt>
      <trkpt lat="43.01986" lon="0.54703">
        <ele>656</ele>
        <time>2018-03-18T10:19:34.000Z</time>
      </trkpt>
      <trkpt lat="43.01987" lon="0.54703">
        <ele>656</ele>
        <time>2018-03-18T10:19:36.000Z</time>
      </trkpt>
      <trkpt lat="43.01988" lon="0.54702">
        <ele>656</ele>
        <time>2018-03-18T10:19:38.000Z</time>
      </trkpt>
      <trkpt lat="43.01988" lon="0.547">
        <ele>655</ele>
        <time>2018-03-18T10:19:40.000Z</time>
      </trkpt>
      <trkpt lat="43.01989" lon="0.547">
        <ele>655</ele>
        <time>2018-03-18T10:19:42.000Z</time>
      </trkpt>
      <trkpt lat="43.01989" lon="0.547">
        <ele>655</ele>
        <time>2018-03-18T10:19:44.000Z</time>
      </trkpt>
      <trkpt lat="43.0199" lon="0.547">
        <ele>656</ele>
        <time>2018-03-18T10:19:46.000Z</time>
      </trkpt>
      <trkpt lat="43.01992" lon="0.547">
        <ele>656</ele>
        <time>2018-03-18T10:19:48.000Z</time>
      </trkpt>
      <trkpt lat="43.01993" lon="0.547">
        <ele>656</ele>
        <time>2018-03-18T10:19:50.000Z</time>
      </trkpt>
      <trkpt lat="43.01993" lon="0.54699">
        <ele>656</ele>
        <time>2018-03-18T10:19:52.000Z</time>
      </trkpt>
      <trkpt lat="43.01994" lon="0.54697">
        <ele>655</ele>
        <time>2018-03-18T10:19:54.000Z</time>
      </trkpt>
      <trkpt lat="43.01994" lon="0.54696">
        <ele>654</ele>
        <time>2018-03-18T10:19:56.000Z</time>
      </trkpt>
      <trkpt lat="43.01994" lon="0.54695">
        <ele>654</ele>
        <time>2018-03-18T10:19:58.000Z</time>
      </trkpt>
      <trkpt lat="43.01995" lon="0.54695">
        <ele>654</ele>
        <time>2018-03-18T10:20:00.000Z</time>
      </trkpt>
      <trkpt lat="43.01995" lon="0.54695">
        <ele>654</ele>
        <time>2018-03-18T10:20:02.000Z</time>
      </trkpt>
      <trkpt lat="43.01995" lon="0.54695">
        <ele>654</ele>
        <time>2018-03-18T10:20:04.000Z</time>
      </trkpt>
      <trkpt lat="43.01995" lon="0.54695">
        <ele>654</ele>
        <time>2018-03-18T10:20:06.000Z</time>
      </trkpt>
      <trkpt lat="43.01996" lon="0.54696">
        <ele>654</ele>
        <time>2018-03-18T10:20:08.000Z</time>
      </trkpt>
      <trkpt lat="43.01996" lon="0.54696">
        <ele>654</ele>
        <time>2018-03-18T10:20:10.000Z</time>
      </trkpt>
      <trkpt lat="43.01995" lon="0.54695">
        <ele>654</ele>
        <time>2018-03-18T10:20:12.000Z</time>
      </trkpt>
      <trkpt lat="43.01996" lon="0.54695">
        <ele>654</ele>
        <time>2018-03-18T10:20:14.000Z</time>
      </trkpt>
      <trkpt lat="43.01996" lon="0.54695">
        <ele>654</ele>
        <time>2018-03-18T10:20:16.000Z</time>
      </trkpt>
      <trkpt lat="43.01996" lon="0.54692">
        <ele>653</ele>
        <time>2018-03-18T10:20:18.000Z</time>
      </trkpt>
      <trkpt lat="43.01997" lon="0.54691">
        <ele>652</ele>
        <time>2018-03-18T10:20:20.000Z</time>
      </trkpt>
      <trkpt lat="43.01997" lon="0.54689">
        <ele>652</ele>
        <time>2018-03-18T10:20:22.000Z</time>
      </trkpt>
      <trkpt lat="43.01998" lon="0.54688">
        <ele>651</ele>
        <time>2018-03-18T10:20:24.000Z</time>
      </trkpt>
      <trkpt lat="43.01998" lon="0.54687">
        <ele>651</ele>
        <time>2018-03-18T10:20:26.000Z</time>
      </trkpt>
      <trkpt lat="43.01998" lon="0.54686">
        <ele>651</ele>
        <time>2018-03-18T10:20:28.000Z</time>
      </trkpt>
      <trkpt lat="43.01999" lon="0.54685">
        <ele>650</ele>
        <time>2018-03-18T10:20:30.000Z</time>
      </trkpt>
      <trkpt lat="43.01999" lon="0.54683">
        <ele>649</ele>
        <time>2018-03-18T10:20:32.000Z</time>
      </trkpt>
      <trkpt lat="43.02" lon="0.54681">
        <ele>649</ele>
        <time>2018-03-18T10:20:34.000Z</time>
      </trkpt>
      <trkpt lat="43.02" lon="0.54681">
        <ele>649</ele>
        <time>2018-03-18T10:20:36.000Z</time>
      </trkpt>
      <trkpt lat="43.02001" lon="0.54681">
        <ele>649</ele>
        <time>2018-03-18T10:20:38.000Z</time>
      </trkpt>
      <trkpt lat="43.02002" lon="0.54682">
        <ele>649</ele>
        <time>2018-03-18T10:20:40.000Z</time>
      </trkpt>
      <trkpt lat="43.02002" lon="0.54682">
        <ele>649</ele>
        <time>2018-03-18T10:20:42.000Z</time>
      </trkpt>
      <trkpt lat="43.02002" lon="0.54681">
        <ele>649</ele>
        <time>2018-03-18T10:20:44.000Z</time>
      </trkpt>
      <trkpt lat="43.02003" lon="0.54681">
        <ele>649</ele>
        <time>2018-03-18T10:20:46.000Z</time>
      </trkpt>
      <trkpt lat="43.02003" lon="0.54681">
        <ele>649</ele>
        <time>2018-03-18T10:20:48.000Z</time>
      </trkpt>
      <trkpt lat="43.02004" lon="0.54681">
        <ele>649</ele>
        <time>2018-03-18T10:20:50.000Z</time>
      </trkpt>
      <trkpt lat="43.02005" lon="0.54681">
        <ele>649</ele>
        <time>2018-03-18T10:20:52.000Z</time>
      </trkpt>
      <trkpt lat="43.02006" lon="0.5468">
        <ele>649</ele>
        <time>2018-03-18T10:20:54.000Z</time>
      </trkpt>
      <trkpt lat="43.02006" lon="0.5468">
        <ele>649</ele>
        <time>2018-03-18T10:20:56.000Z</time>
      </trkpt>
      <trkpt lat="43.02007" lon="0.54681">
        <ele>650</ele>
        <time>2018-03-18T10:20:58.000Z</time>
      </trkpt>
      <trkpt lat="43.02008" lon="0.54682">
        <ele>650</ele>
        <time>2018-03-18T10:21:00.000Z</time>
      </trkpt>
      <trkpt lat="43.02009" lon="0.54682">
        <ele>650</ele>
        <time>2018-03-18T10:21:02.000Z</time>
      </trkpt>
      <trkpt lat="43.0201" lon="0.54682">
        <ele>650</ele>
        <time>2018-03-18T10:21:04.000Z</time>
      </trkpt>
      <trkpt lat="43.0201" lon="0.54683">
        <ele>650</ele>
        <time>2018-03-18T10:21:06.000Z</time>
      </trkpt>
      <trkpt lat="43.0201" lon="0.54683">
        <ele>651</ele>
        <time>2018-03-18T10:21:08.000Z</time>
      </trkpt>
      <trkpt lat="43.02011" lon="0.54683">
        <ele>651</ele>
        <time>2018-03-18T10:21:10.000Z</time>
      </trkpt>
      <trkpt lat="43.02011" lon="0.54684">
        <ele>651</ele>
        <time>2018-03-18T10:21:12.000Z</time>
      </trkpt>
      <trkpt lat="43.02012" lon="0.54684">
        <ele>651</ele>
        <time>2018-03-18T10:21:14.000Z</time>
      </trkpt>
      <trkpt lat="43.02013" lon="0.54684">
        <ele>651</ele>
        <time>2018-03-18T10:21:16.000Z</time>
      </trkpt>
      <trkpt lat="43.02013" lon="0.54682">
        <ele>650</ele>
        <time>2018-03-18T10:21:18.000Z</time>
      </trkpt>
      <trkpt lat="43.02012" lon="0.54682">
        <ele>650</ele>
        <time>2018-03-18T10:21:20.000Z</time>
      </trkpt>
      <trkpt lat="43.02012" lon="0.5468">
        <ele>649</ele>
        <time>2018-03-18T10:21:22.000Z</time>
      </trkpt>
      <trkpt lat="43.02013" lon="0.54681">
        <ele>650</ele>
        <time>2018-03-18T10:21:24.000Z</time>
      </trkpt>
      <trkpt lat="43.02014" lon="0.54682">
        <ele>650</ele>
        <time>2018-03-18T10:21:26.000Z</time>
      </trkpt>
      <trkpt lat="43.02015" lon="0.54682">
        <ele>650</ele>
        <time>2018-03-18T10:21:28.000Z</time>
      </trkpt>
      <trkpt lat="43.02016" lon="0.54681">
        <ele>650</ele>
        <time>2018-03-18T10:21:30.000Z</time>
      </trkpt>
      <trkpt lat="43.02017" lon="0.54681">
        <ele>650</ele>
        <time>2018-03-18T10:21:32.000Z</time>
      </trkpt>
      <trkpt lat="43.02018" lon="0.54682">
        <ele>650</ele>
        <time>2018-03-18T10:21:34.000Z</time>
      </trkpt>
      <trkpt lat="43.02018" lon="0.54681">
        <ele>650</ele>
        <time>2018-03-18T10:21:36.000Z</time>
      </trkpt>
      <trkpt lat="43.02019" lon="0.54681">
        <ele>650</ele>
        <time>2018-03-18T10:21:38.000Z</time>
      </trkpt>
      <trkpt lat="43.0202" lon="0.54681">
        <ele>650</ele>
        <time>2018-03-18T10:21:40.000Z</time>
      </trkpt>
      <trkpt lat="43.02021" lon="0.5468">
        <ele>649</ele>
        <time>2018-03-18T10:21:42.000Z</time>
      </trkpt>
      <trkpt lat="43.02022" lon="0.54679">
        <ele>649</ele>
        <time>2018-03-18T10:21:44.000Z</time>
      </trkpt>
      <trkpt lat="43.02022" lon="0.54679">
        <ele>649</ele>
        <time>2018-03-18T10:21:46.000Z</time>
      </trkpt>
      <trkpt lat="43.02023" lon="0.54679">
        <ele>649</ele>
        <time>2018-03-18T10:21:48.000Z</time>
      </trkpt>
      <trkpt lat="43.02024" lon="0.5468">
        <ele>649</ele>
        <time>2018-03-18T10:21:50.000Z</time>
      </trkpt>
      <trkpt lat="43.02024" lon="0.54679">
        <ele>649</ele>
        <time>2018-03-18T10:21:52.000Z</time>
      </trkpt>
      <trkpt lat="43.02025" lon="0.54679">
        <ele>649</ele>
        <time>2018-03-18T10:21:54.000Z</time>
      </trkpt>
      <trkpt lat="43.02026" lon="0.54678">
        <ele>649</ele>
        <time>2018-03-18T10:21:56.000Z</time>
      </trkpt>
      <trkpt lat="43.02027" lon="0.54679">
        <ele>649</ele>
        <time>2018-03-18T10:21:58.000Z</time>
      </trkpt>
      <trkpt lat="43.02028" lon="0.54679">
        <ele>649</ele>
        <time>2018-03-18T10:22:00.000Z</time>
      </trkpt>
      <trkpt lat="43.02028" lon="0.54678">
        <ele>649</ele>
        <time>2018-03-18T10:22:02.000Z</time>
      </trkpt>
      <trkpt lat="43.02029" lon="0.54677">
        <ele>648</ele>
        <time>2018-03-18T10:22:04.000Z</time>
      </trkpt>
      <trkpt lat="43.02029" lon="0.54676">
        <ele>648</ele>
        <time>2018-03-18T10:22:06.000Z</time>
      </trkpt>
      <trkpt lat="43.0203" lon="0.54676">
        <ele>647</ele>
        <time>2018-03-18T10:22:08.000Z</time>
      </trkpt>
      <trkpt lat="43.0203" lon="0.54675">
        <ele>647</ele>
        <time>2018-03-18T10:22:10.000Z</time>
      </trkpt>
      <trkpt lat="43.02031" lon="0.54674">
        <ele>647</ele>
        <time>2018-03-18T10:22:12.000Z</time>
      </trkpt>
      <trkpt lat="43.02031" lon="0.54674">
        <ele>647</ele>
        <time>2018-03-18T10:22:14.000Z</time>
      </trkpt>
      <trkpt lat="43.02031" lon="0.54673">
        <ele>646</ele>
        <time>2018-03-18T10:22:16.000Z</time>
      </trkpt>
      <trkpt lat="43.02032" lon="0.54672">
        <ele>646</ele>
        <time>2018-03-18T10:22:18.000Z</time>
      </trkpt>
      <trkpt lat="43.02032" lon="0.54672">
        <ele>646</ele>
        <time>2018-03-18T10:22:20.000Z</time>
      </trkpt>
      <trkpt lat="43.02032" lon="0.54672">
        <ele>646</ele>
        <time>2018-03-18T10:22:22.000Z</time>
      </trkpt>
      <trkpt lat="43.02032" lon="0.54671">
        <ele>645</ele>
        <time>2018-03-18T10:22:24.000Z</time>
      </trkpt>
      <trkpt lat="43.02032" lon="0.54671">
        <ele>645</ele>
        <time>2018-03-18T10:22:26.000Z</time>
      </trkpt>
      <trkpt lat="43.02032" lon="0.54672">
        <ele>646</ele>
        <time>2018-03-18T10:22:28.000Z</time>
      </trkpt>
      <trkpt lat="43.02033" lon="0.54672">
        <ele>646</ele>
        <time>2018-03-18T10:22:30.000Z</time>
      </trkpt>
      <trkpt lat="43.02034" lon="0.54672">
        <ele>646</ele>
        <time>2018-03-18T10:22:32.000Z</time>
      </trkpt>
      <trkpt lat="43.02034" lon="0.54672">
        <ele>646</ele>
        <time>2018-03-18T10:22:34.000Z</time>
      </trkpt>
      <trkpt lat="43.02034" lon="0.54671">
        <ele>645</ele>
        <time>2018-03-18T10:22:36.000Z</time>
      </trkpt>
      <trkpt lat="43.02034" lon="0.5467">
        <ele>645</ele>
        <time>2018-03-18T10:22:38.000Z</time>
      </trkpt>
      <trkpt lat="43.02034" lon="0.54669">
        <ele>645</ele>
        <time>2018-03-18T10:22:40.000Z</time>
      </trkpt>
      <trkpt lat="43.02035" lon="0.5467">
        <ele>645</ele>
        <time>2018-03-18T10:22:42.000Z</time>
      </trkpt>
      <trkpt lat="43.02035" lon="0.54669">
        <ele>645</ele>
        <time>2018-03-18T10:22:44.000Z</time>
      </trkpt>
      <trkpt lat="43.02036" lon="0.54669">
        <ele>645</ele>
        <time>2018-03-18T10:22:46.000Z</time>
      </trkpt>
      <trkpt lat="43.02036" lon="0.54669">
        <ele>645</ele>
        <time>2018-03-18T10:22:48.000Z</time>
      </trkpt>
      <trkpt lat="43.02036" lon="0.54668">
        <ele>644</ele>
        <time>2018-03-18T10:22:50.000Z</time>
      </trkpt>
      <trkpt lat="43.02036" lon="0.54667">
        <ele>644</ele>
        <time>2018-03-18T10:22:52.000Z</time>
      </trkpt>
      <trkpt lat="43.02037" lon="0.54667">
        <ele>644</ele>
        <time>2018-03-18T10:22:54.000Z</time>
      </trkpt>
      <trkpt lat="43.02037" lon="0.54665">
        <ele>643</ele>
        <time>2018-03-18T10:22:56.000Z</time>
      </trkpt>
      <trkpt lat="43.02037" lon="0.54666">
        <ele>643</ele>
        <time>2018-03-18T10:22:58.000Z</time>
      </trkpt>
      <trkpt lat="43.02037" lon="0.54666">
        <ele>643</ele>
        <time>2018-03-18T10:23:00.000Z</time>
      </trkpt>
      <trkpt lat="43.02037" lon="0.54667">
        <ele>644</ele>
        <time>2018-03-18T10:23:02.000Z</time>
      </trkpt>
      <trkpt lat="43.02038" lon="0.54667">
        <ele>644</ele>
        <time>2018-03-18T10:23:04.000Z</time>
      </trkpt>
      <trkpt lat="43.02037" lon="0.54667">
        <ele>644</ele>
        <time>2018-03-18T10:23:06.000Z</time>
      </trkpt>
      <trkpt lat="43.02038" lon="0.54666">
        <ele>643</ele>
        <time>2018-03-18T10:23:08.000Z</time>
      </trkpt>
      <trkpt lat="43.02038" lon="0.54666">
        <ele>643</ele>
        <time>2018-03-18T10:23:10.000Z</time>
      </trkpt>
      <trkpt lat="43.02038" lon="0.54665">
        <ele>643</ele>
        <time>2018-03-18T10:23:12.000Z</time>
      </trkpt>
      <trkpt lat="43.02039" lon="0.54665">
        <ele>643</ele>
        <time>2018-03-18T10:23:14.000Z</time>
      </trkpt>
      <trkpt lat="43.0204" lon="0.54665">
        <ele>643</ele>
        <time>2018-03-18T10:23:16.000Z</time>
      </trkpt>
      <trkpt lat="43.0204" lon="0.54666">
        <ele>643</ele>
        <time>2018-03-18T10:23:18.000Z</time>
      </trkpt>
      <trkpt lat="43.0204" lon="0.54666">
        <ele>643</ele>
        <time>2018-03-18T10:23:20.000Z</time>
      </trkpt>
      <trkpt lat="43.0204" lon="0.54666">
        <ele>643</ele>
        <time>2018-03-18T10:23:22.000Z</time>
      </trkpt>
      <trkpt lat="43.0204" lon="0.54666">
        <ele>643</ele>
        <time>2018-03-18T10:23:24.000Z</time>
      </trkpt>
      <trkpt lat="43.02039" lon="0.54666">
        <ele>643</ele>
        <time>2018-03-18T10:23:26.000Z</time>
      </trkpt>
      <trkpt lat="43.02039" lon="0.54665">
        <ele>643</ele>
        <time>2018-03-18T10:23:28.000Z</time>
      </trkpt>
      <trkpt lat="43.02039" lon="0.54664">
        <ele>642</ele>
        <time>2018-03-18T10:23:30.000Z</time>
      </trkpt>
      <trkpt lat="43.02038" lon="0.54663">
        <ele>642</ele>
        <time>2018-03-18T10:23:32.000Z</time>
      </trkpt>
      <trkpt lat="43.02039" lon="0.54662">
        <ele>642</ele>
        <time>2018-03-18T10:23:34.000Z</time>
      </trkpt>
      <trkpt lat="43.02039" lon="0.5466">
        <ele>641</ele>
        <time>2018-03-18T10:23:36.000Z</time>
      </trkpt>
      <trkpt lat="43.0204" lon="0.54659">
        <ele>641</ele>
        <time>2018-03-18T10:23:38.000Z</time>
      </trkpt>
      <trkpt lat="43.02041" lon="0.54659">
        <ele>640</ele>
        <time>2018-03-18T10:23:40.000Z</time>
      </trkpt>
      <trkpt lat="43.02041" lon="0.54659">
        <ele>641</ele>
        <time>2018-03-18T10:23:42.000Z</time>
      </trkpt>
      <trkpt lat="43.02041" lon="0.54659">
        <ele>641</ele>
        <time>2018-03-18T10:23:44.000Z</time>
      </trkpt>
      <trkpt lat="43.02041" lon="0.54659">
        <ele>640</ele>
        <time>2018-03-18T10:23:46.000Z</time>
      </trkpt>
      <trkpt lat="43.02041" lon="0.54657">
        <ele>640</ele>
        <time>2018-03-18T10:23:48.000Z</time>
      </trkpt>
      <trkpt lat="43.02041" lon="0.54655">
        <ele>639</ele>
        <time>2018-03-18T10:23:50.000Z</time>
      </trkpt>
      <trkpt lat="43.02041" lon="0.54654">
        <ele>638</ele>
        <time>2018-03-18T10:23:52.000Z</time>
      </trkpt>
      <trkpt lat="43.02041" lon="0.54652">
        <ele>638</ele>
        <time>2018-03-18T10:23:54.000Z</time>
      </trkpt>
      <trkpt lat="43.02042" lon="0.54651">
        <ele>637</ele>
        <time>2018-03-18T10:23:56.000Z</time>
      </trkpt>
      <trkpt lat="43.02042" lon="0.54649">
        <ele>636</ele>
        <time>2018-03-18T10:23:58.000Z</time>
      </trkpt>
      <trkpt lat="43.02042" lon="0.54647">
        <ele>636</ele>
        <time>2018-03-18T10:24:00.000Z</time>
      </trkpt>
      <trkpt lat="43.02042" lon="0.54646">
        <ele>635</ele>
        <time>2018-03-18T10:24:02.000Z</time>
      </trkpt>
      <trkpt lat="43.02042" lon="0.54645">
        <ele>635</ele>
        <time>2018-03-18T10:24:04.000Z</time>
      </trkpt>
      <trkpt lat="43.02042" lon="0.54644">
        <ele>634</ele>
        <time>2018-03-18T10:24:06.000Z</time>
      </trkpt>
      <trkpt lat="43.02042" lon="0.54642">
        <ele>634</ele>
        <time>2018-03-18T10:24:08.000Z</time>
      </trkpt>
      <trkpt lat="43.02042" lon="0.54642">
        <ele>633</ele>
        <time>2018-03-18T10:24:10.000Z</time>
      </trkpt>
      <trkpt lat="43.02043" lon="0.54641">
        <ele>633</ele>
        <time>2018-03-18T10:24:12.000Z</time>
      </trkpt>
      <trkpt lat="43.02043" lon="0.54639">
        <ele>633</ele>
        <time>2018-03-18T10:24:14.000Z</time>
      </trkpt>
      <trkpt lat="43.02043" lon="0.54638">
        <ele>632</ele>
        <time>2018-03-18T10:24:16.000Z</time>
      </trkpt>
      <trkpt lat="43.02043" lon="0.54637">
        <ele>632</ele>
        <time>2018-03-18T10:24:18.000Z</time>
      </trkpt>
      <trkpt lat="43.02044" lon="0.54637">
        <ele>631</ele>
        <time>2018-03-18T10:24:20.000Z</time>
      </trkpt>
      <trkpt lat="43.02044" lon="0.54636">
        <ele>631</ele>
        <time>2018-03-18T10:24:22.000Z</time>
      </trkpt>
      <trkpt lat="43.02044" lon="0.54636">
        <ele>631</ele>
        <time>2018-03-18T10:24:24.000Z</time>
      </trkpt>
      <trkpt lat="43.02044" lon="0.54637">
        <ele>632</ele>
        <time>2018-03-18T10:24:26.000Z</time>
      </trkpt>
      <trkpt lat="43.02045" lon="0.54638">
        <ele>632</ele>
        <time>2018-03-18T10:24:28.000Z</time>
      </trkpt>
      <trkpt lat="43.02044" lon="0.54637">
        <ele>632</ele>
        <time>2018-03-18T10:24:30.000Z</time>
      </trkpt>
      <trkpt lat="43.02044" lon="0.54637">
        <ele>632</ele>
        <time>2018-03-18T10:24:32.000Z</time>
      </trkpt>
      <trkpt lat="43.02044" lon="0.54637">
        <ele>632</ele>
        <time>2018-03-18T10:24:34.000Z</time>
      </trkpt>
      <trkpt lat="43.02045" lon="0.54637">
        <ele>631</ele>
        <time>2018-03-18T10:24:36.000Z</time>
      </trkpt>
      <trkpt lat="43.02045" lon="0.54636">
        <ele>631</ele>
        <time>2018-03-18T10:24:38.000Z</time>
      </trkpt>
      <trkpt lat="43.02045" lon="0.54635">
        <ele>631</ele>
        <time>2018-03-18T10:24:40.000Z</time>
      </trkpt>
      <trkpt lat="43.02046" lon="0.54634">
        <ele>630</ele>
        <time>2018-03-18T10:24:42.000Z</time>
      </trkpt>
      <trkpt lat="43.02046" lon="0.54634">
        <ele>630</ele>
        <time>2018-03-18T10:24:44.000Z</time>
      </trkpt>
      <trkpt lat="43.02047" lon="0.54634">
        <ele>630</ele>
        <time>2018-03-18T10:24:46.000Z</time>
      </trkpt>
      <trkpt lat="43.02048" lon="0.54632">
        <ele>630</ele>
        <time>2018-03-18T10:24:48.000Z</time>
      </trkpt>
      <trkpt lat="43.02049" lon="0.54632">
        <ele>630</ele>
        <time>2018-03-18T10:24:50.000Z</time>
      </trkpt>
      <trkpt lat="43.02049" lon="0.54631">
        <ele>629</ele>
        <time>2018-03-18T10:24:52.000Z</time>
      </trkpt>
      <trkpt lat="43.0205" lon="0.5463">
        <ele>629</ele>
        <time>2018-03-18T10:24:54.000Z</time>
      </trkpt>
      <trkpt lat="43.02052" lon="0.5463">
        <ele>629</ele>
        <time>2018-03-18T10:24:56.000Z</time>
      </trkpt>
      <trkpt lat="43.02052" lon="0.54629">
        <ele>629</ele>
        <time>2018-03-18T10:24:58.000Z</time>
      </trkpt>
      <trkpt lat="43.02054" lon="0.5463">
        <ele>629</ele>
        <time>2018-03-18T10:25:00.000Z</time>
      </trkpt>
      <trkpt lat="43.02055" lon="0.54631">
        <ele>630</ele>
        <time>2018-03-18T10:25:02.000Z</time>
      </trkpt>
      <trkpt lat="43.02055" lon="0.54632">
        <ele>630</ele>
        <time>2018-03-18T10:25:04.000Z</time>
      </trkpt>
      <trkpt lat="43.02056" lon="0.54632">
        <ele>630</ele>
        <time>2018-03-18T10:25:06.000Z</time>
      </trkpt>
      <trkpt lat="43.02058" lon="0.54634">
        <ele>631</ele>
        <time>2018-03-18T10:25:08.000Z</time>
      </trkpt>
      <trkpt lat="43.02059" lon="0.54636">
        <ele>631</ele>
        <time>2018-03-18T10:25:10.000Z</time>
      </trkpt>
      <trkpt lat="43.0206" lon="0.54639">
        <ele>632</ele>
        <time>2018-03-18T10:25:12.000Z</time>
      </trkpt>
      <trkpt lat="43.02061" lon="0.54639">
        <ele>633</ele>
        <time>2018-03-18T10:25:14.000Z</time>
      </trkpt>
      <trkpt lat="43.02062" lon="0.54639">
        <ele>633</ele>
        <time>2018-03-18T10:25:16.000Z</time>
      </trkpt>
      <trkpt lat="43.02063" lon="0.54639">
        <ele>633</ele>
        <time>2018-03-18T10:25:18.000Z</time>
      </trkpt>
      <trkpt lat="43.02063" lon="0.54639">
        <ele>633</ele>
        <time>2018-03-18T10:25:20.000Z</time>
      </trkpt>
      <trkpt lat="43.02064" lon="0.5464">
        <ele>633</ele>
        <time>2018-03-18T10:25:22.000Z</time>
      </trkpt>
      <trkpt lat="43.02065" lon="0.54639">
        <ele>633</ele>
        <time>2018-03-18T10:25:24.000Z</time>
      </trkpt>
      <trkpt lat="43.02066" lon="0.54639">
        <ele>633</ele>
        <time>2018-03-18T10:25:26.000Z</time>
      </trkpt>
      <trkpt lat="43.02067" lon="0.54639">
        <ele>633</ele>
        <time>2018-03-18T10:25:28.000Z</time>
      </trkpt>
      <trkpt lat="43.02067" lon="0.54639">
        <ele>633</ele>
        <time>2018-03-18T10:25:30.000Z</time>
      </trkpt>
      <trkpt lat="43.02067" lon="0.54639">
        <ele>633</ele>
        <time>2018-03-18T10:25:32.000Z</time>
      </trkpt>
      <trkpt lat="43.02067" lon="0.5464">
        <ele>633</ele>
        <time>2018-03-18T10:25:34.000Z</time>
      </trkpt>
      <trkpt lat="43.02068" lon="0.54641">
        <ele>633</ele>
        <time>2018-03-18T10:25:36.000Z</time>
      </trkpt>
      <trkpt lat="43.02067" lon="0.54641">
        <ele>633</ele>
        <time>2018-03-18T10:25:38.000Z</time>
      </trkpt>
      <trkpt lat="43.02066" lon="0.54639">
        <ele>633</ele>
        <time>2018-03-18T10:25:40.000Z</time>
      </trkpt>
      <trkpt lat="43.02066" lon="0.54638">
        <ele>632</ele>
        <time>2018-03-18T10:25:42.000Z</time>
      </trkpt>
      <trkpt lat="43.02067" lon="0.54636">
        <ele>632</ele>
        <time>2018-03-18T10:25:44.000Z</time>
      </trkpt>
      <trkpt lat="43.02068" lon="0.54634">
        <ele>631</ele>
        <time>2018-03-18T10:25:46.000Z</time>
      </trkpt>
      <trkpt lat="43.02068" lon="0.54633">
        <ele>630</ele>
        <time>2018-03-18T10:25:48.000Z</time>
      </trkpt>
      <trkpt lat="43.02068" lon="0.54632">
        <ele>630</ele>
        <time>2018-03-18T10:25:50.000Z</time>
      </trkpt>
      <trkpt lat="43.02069" lon="0.54632">
        <ele>630</ele>
        <time>2018-03-18T10:25:52.000Z</time>
      </trkpt>
      <trkpt lat="43.02069" lon="0.5463">
        <ele>629</ele>
        <time>2018-03-18T10:25:54.000Z</time>
      </trkpt>
      <trkpt lat="43.02068" lon="0.54629">
        <ele>629</ele>
        <time>2018-03-18T10:25:56.000Z</time>
      </trkpt>
      <trkpt lat="43.02068" lon="0.54626">
        <ele>628</ele>
        <time>2018-03-18T10:25:58.000Z</time>
      </trkpt>
      <trkpt lat="43.02068" lon="0.54625">
        <ele>628</ele>
        <time>2018-03-18T10:26:00.000Z</time>
      </trkpt>
      <trkpt lat="43.02068" lon="0.54624">
        <ele>627</ele>
        <time>2018-03-18T10:26:02.000Z</time>
      </trkpt>
      <trkpt lat="43.02068" lon="0.54623">
        <ele>627</ele>
        <time>2018-03-18T10:26:04.000Z</time>
      </trkpt>
      <trkpt lat="43.02068" lon="0.54622">
        <ele>626</ele>
        <time>2018-03-18T10:26:06.000Z</time>
      </trkpt>
      <trkpt lat="43.02068" lon="0.54621">
        <ele>626</ele>
        <time>2018-03-18T10:26:08.000Z</time>
      </trkpt>
      <trkpt lat="43.02069" lon="0.5462">
        <ele>625</ele>
        <time>2018-03-18T10:26:10.000Z</time>
      </trkpt>
      <trkpt lat="43.0207" lon="0.5462">
        <ele>626</ele>
        <time>2018-03-18T10:26:12.000Z</time>
      </trkpt>
      <trkpt lat="43.0207" lon="0.54619">
        <ele>625</ele>
        <time>2018-03-18T10:26:14.000Z</time>
      </trkpt>
      <trkpt lat="43.02071" lon="0.54618">
        <ele>625</ele>
        <time>2018-03-18T10:26:16.000Z</time>
      </trkpt>
      <trkpt lat="43.02071" lon="0.54618">
        <ele>625</ele>
        <time>2018-03-18T10:26:18.000Z</time>
      </trkpt>
      <trkpt lat="43.02072" lon="0.54617">
        <ele>625</ele>
        <time>2018-03-18T10:26:20.000Z</time>
      </trkpt>
      <trkpt lat="43.02073" lon="0.54615">
        <ele>624</ele>
        <time>2018-03-18T10:26:22.000Z</time>
      </trkpt>
      <trkpt lat="43.02073" lon="0.54614">
        <ele>624</ele>
        <time>2018-03-18T10:26:24.000Z</time>
      </trkpt>
      <trkpt lat="43.02073" lon="0.54615">
        <ele>624</ele>
        <time>2018-03-18T10:26:26.000Z</time>
      </trkpt>
      <trkpt lat="43.02074" lon="0.54615">
        <ele>624</ele>
        <time>2018-03-18T10:26:28.000Z</time>
      </trkpt>
      <trkpt lat="43.02075" lon="0.54614">
        <ele>623</ele>
        <time>2018-03-18T10:26:30.000Z</time>
      </trkpt>
      <trkpt lat="43.02076" lon="0.54613">
        <ele>623</ele>
        <time>2018-03-18T10:26:32.000Z</time>
      </trkpt>
      <trkpt lat="43.02076" lon="0.54613">
        <ele>623</ele>
        <time>2018-03-18T10:26:34.000Z</time>
      </trkpt>
      <trkpt lat="43.02077" lon="0.54614">
        <ele>623</ele>
        <time>2018-03-18T10:26:36.000Z</time>
      </trkpt>
      <trkpt lat="43.02078" lon="0.54614">
        <ele>623</ele>
        <time>2018-03-18T10:26:38.000Z</time>
      </trkpt>
      <trkpt lat="43.02079" lon="0.54614">
        <ele>624</ele>
        <time>2018-03-18T10:26:40.000Z</time>
      </trkpt>
      <trkpt lat="43.02079" lon="0.54613">
        <ele>623</ele>
        <time>2018-03-18T10:26:42.000Z</time>
      </trkpt>
      <trkpt lat="43.02079" lon="0.54612">
        <ele>623</ele>
        <time>2018-03-18T10:26:44.000Z</time>
      </trkpt>
      <trkpt lat="43.0208" lon="0.54611">
        <ele>622</ele>
        <time>2018-03-18T10:26:46.000Z</time>
      </trkpt>
      <trkpt lat="43.02083" lon="0.5461">
        <ele>622</ele>
        <time>2018-03-18T10:26:48.000Z</time>
      </trkpt>
      <trkpt lat="43.02084" lon="0.5461">
        <ele>622</ele>
        <time>2018-03-18T10:26:50.000Z</time>
      </trkpt>
      <trkpt lat="43.02085" lon="0.5461">
        <ele>622</ele>
        <time>2018-03-18T10:26:52.000Z</time>
      </trkpt>
      <trkpt lat="43.02086" lon="0.54611">
        <ele>622</ele>
        <time>2018-03-18T10:26:54.000Z</time>
      </trkpt>
      <trkpt lat="43.02086" lon="0.54611">
        <ele>622</ele>
        <time>2018-03-18T10:26:56.000Z</time>
      </trkpt>
      <trkpt lat="43.02087" lon="0.54612">
        <ele>623</ele>
        <time>2018-03-18T10:26:58.000Z</time>
      </trkpt>
      <trkpt lat="43.02087" lon="0.54613">
        <ele>623</ele>
        <time>2018-03-18T10:27:00.000Z</time>
      </trkpt>
      <trkpt lat="43.02088" lon="0.54614">
        <ele>623</ele>
        <time>2018-03-18T10:27:02.000Z</time>
      </trkpt>
      <trkpt lat="43.02089" lon="0.54615">
        <ele>624</ele>
        <time>2018-03-18T10:27:04.000Z</time>
      </trkpt>
      <trkpt lat="43.02089" lon="0.54616">
        <ele>624</ele>
        <time>2018-03-18T10:27:06.000Z</time>
      </trkpt>
      <trkpt lat="43.02089" lon="0.54619">
        <ele>625</ele>
        <time>2018-03-18T10:27:09.000Z</time>
      </trkpt>
      <trkpt lat="43.02087" lon="0.54622">
        <ele>626</ele>
        <time>2018-03-18T10:27:12.000Z</time>
      </trkpt>
      <trkpt lat="43.02087" lon="0.54623">
        <ele>627</ele>
        <time>2018-03-18T10:27:14.000Z</time>
      </trkpt>
      <trkpt lat="43.02086" lon="0.54624">
        <ele>627</ele>
        <time>2018-03-18T10:27:16.000Z</time>
      </trkpt>
      <trkpt lat="43.02085" lon="0.54625">
        <ele>628</ele>
        <time>2018-03-18T10:27:18.000Z</time>
      </trkpt>
      <trkpt lat="43.02084" lon="0.54627">
        <ele>628</ele>
        <time>2018-03-18T10:27:20.000Z</time>
      </trkpt>
      <trkpt lat="43.02083" lon="0.54628">
        <ele>629</ele>
        <time>2018-03-18T10:27:23.000Z</time>
      </trkpt>
      <trkpt lat="43.02083" lon="0.54628">
        <ele>629</ele>
        <time>2018-03-18T10:27:25.000Z</time>
      </trkpt>
      <trkpt lat="43.02084" lon="0.54628">
        <ele>629</ele>
        <time>2018-03-18T10:27:28.000Z</time>
      </trkpt>
      <trkpt lat="43.02085" lon="0.54628">
        <ele>629</ele>
        <time>2018-03-18T10:27:30.000Z</time>
      </trkpt>
      <trkpt lat="43.02084" lon="0.54627">
        <ele>628</ele>
        <time>2018-03-18T10:27:33.000Z</time>
      </trkpt>
      <trkpt lat="43.02084" lon="0.54626">
        <ele>628</ele>
        <time>2018-03-18T10:27:35.000Z</time>
      </trkpt>
      <trkpt lat="43.02083" lon="0.54626">
        <ele>628</ele>
        <time>2018-03-18T10:27:37.000Z</time>
      </trkpt>
      <trkpt lat="43.02084" lon="0.54625">
        <ele>628</ele>
        <time>2018-03-18T10:27:39.000Z</time>
      </trkpt>
      <trkpt lat="43.02086" lon="0.54625">
        <ele>627</ele>
        <time>2018-03-18T10:27:41.000Z</time>
      </trkpt>
      <trkpt lat="43.02086" lon="0.54623">
        <ele>627</ele>
        <time>2018-03-18T10:27:43.000Z</time>
      </trkpt>
      <trkpt lat="43.02086" lon="0.54622">
        <ele>627</ele>
        <time>2018-03-18T10:27:45.000Z</time>
      </trkpt>
      <trkpt lat="43.02086" lon="0.54622">
        <ele>626</ele>
        <time>2018-03-18T10:27:47.000Z</time>
      </trkpt>
      <trkpt lat="43.02087" lon="0.54621">
        <ele>626</ele>
        <time>2018-03-18T10:27:49.000Z</time>
      </trkpt>
      <trkpt lat="43.02087" lon="0.5462">
        <ele>626</ele>
        <time>2018-03-18T10:27:51.000Z</time>
      </trkpt>
      <trkpt lat="43.02088" lon="0.54619">
        <ele>625</ele>
        <time>2018-03-18T10:27:53.000Z</time>
      </trkpt>
      <trkpt lat="43.02088" lon="0.54619">
        <ele>625</ele>
        <time>2018-03-18T10:27:55.000Z</time>
      </trkpt>
      <trkpt lat="43.0209" lon="0.54618">
        <ele>625</ele>
        <time>2018-03-18T10:27:57.000Z</time>
      </trkpt>
      <trkpt lat="43.0209" lon="0.54617">
        <ele>624</ele>
        <time>2018-03-18T10:27:59.000Z</time>
      </trkpt>
      <trkpt lat="43.02091" lon="0.54616">
        <ele>624</ele>
        <time>2018-03-18T10:28:01.000Z</time>
      </trkpt>
      <trkpt lat="43.02092" lon="0.54614">
        <ele>623</ele>
        <time>2018-03-18T10:28:03.000Z</time>
      </trkpt>
      <trkpt lat="43.02093" lon="0.54613">
        <ele>623</ele>
        <time>2018-03-18T10:28:05.000Z</time>
      </trkpt>
      <trkpt lat="43.02095" lon="0.54612">
        <ele>622</ele>
        <time>2018-03-18T10:28:07.000Z</time>
      </trkpt>
      <trkpt lat="43.02096" lon="0.54611">
        <ele>622</ele>
        <time>2018-03-18T10:28:09.000Z</time>
      </trkpt>
      <trkpt lat="43.02097" lon="0.5461">
        <ele>621</ele>
        <time>2018-03-18T10:28:11.000Z</time>
      </trkpt>
      <trkpt lat="43.02098" lon="0.54609">
        <ele>621</ele>
        <time>2018-03-18T10:28:13.000Z</time>
      </trkpt>
      <trkpt lat="43.021" lon="0.54609">
        <ele>620</ele>
        <time>2018-03-18T10:28:15.000Z</time>
      </trkpt>
      <trkpt lat="43.02101" lon="0.54608">
        <ele>620</ele>
        <time>2018-03-18T10:28:17.000Z</time>
      </trkpt>
      <trkpt lat="43.02101" lon="0.54608">
        <ele>620</ele>
        <time>2018-03-18T10:28:19.000Z</time>
      </trkpt>
      <trkpt lat="43.02103" lon="0.54607">
        <ele>619</ele>
        <time>2018-03-18T10:28:21.000Z</time>
      </trkpt>
      <trkpt lat="43.02104" lon="0.54607">
        <ele>619</ele>
        <time>2018-03-18T10:28:23.000Z</time>
      </trkpt>
      <trkpt lat="43.02105" lon="0.54606">
        <ele>618</ele>
        <time>2018-03-18T10:28:25.000Z</time>
      </trkpt>
      <trkpt lat="43.02107" lon="0.54606">
        <ele>618</ele>
        <time>2018-03-18T10:28:27.000Z</time>
      </trkpt>
      <trkpt lat="43.02108" lon="0.54606">
        <ele>618</ele>
        <time>2018-03-18T10:28:29.000Z</time>
      </trkpt>
      <trkpt lat="43.02109" lon="0.54606">
        <ele>618</ele>
        <time>2018-03-18T10:28:31.000Z</time>
      </trkpt>
      <trkpt lat="43.02112" lon="0.54606">
        <ele>617</ele>
        <time>2018-03-18T10:28:33.000Z</time>
      </trkpt>
      <trkpt lat="43.02113" lon="0.54605">
        <ele>617</ele>
        <time>2018-03-18T10:28:35.000Z</time>
      </trkpt>
      <trkpt lat="43.02114" lon="0.54605">
        <ele>616</ele>
        <time>2018-03-18T10:28:37.000Z</time>
      </trkpt>
      <trkpt lat="43.02115" lon="0.54605">
        <ele>616</ele>
        <time>2018-03-18T10:28:39.000Z</time>
      </trkpt>
      <trkpt lat="43.02116" lon="0.54605">
        <ele>616</ele>
        <time>2018-03-18T10:28:41.000Z</time>
      </trkpt>
      <trkpt lat="43.02117" lon="0.54605">
        <ele>616</ele>
        <time>2018-03-18T10:28:43.000Z</time>
      </trkpt>
      <trkpt lat="43.02118" lon="0.54604">
        <ele>615</ele>
        <time>2018-03-18T10:28:45.000Z</time>
      </trkpt>
      <trkpt lat="43.02119" lon="0.54604">
        <ele>615</ele>
        <time>2018-03-18T10:28:47.000Z</time>
      </trkpt>
      <trkpt lat="43.0212" lon="0.54603">
        <ele>615</ele>
        <time>2018-03-18T10:28:49.000Z</time>
      </trkpt>
      <trkpt lat="43.0212" lon="0.54602">
        <ele>614</ele>
        <time>2018-03-18T10:28:51.000Z</time>
      </trkpt>
      <trkpt lat="43.02121" lon="0.54601">
        <ele>614</ele>
        <time>2018-03-18T10:28:53.000Z</time>
      </trkpt>
      <trkpt lat="43.02122" lon="0.54601">
        <ele>613</ele>
        <time>2018-03-18T10:28:55.000Z</time>
      </trkpt>
      <trkpt lat="43.02122" lon="0.54599">
        <ele>613</ele>
        <time>2018-03-18T10:28:57.000Z</time>
      </trkpt>
      <trkpt lat="43.02123" lon="0.54599">
        <ele>613</ele>
        <time>2018-03-18T10:28:59.000Z</time>
      </trkpt>
      <trkpt lat="43.02124" lon="0.54599">
        <ele>612</ele>
        <time>2018-03-18T10:29:01.000Z</time>
      </trkpt>
      <trkpt lat="43.02125" lon="0.54598">
        <ele>612</ele>
        <time>2018-03-18T10:29:03.000Z</time>
      </trkpt>
      <trkpt lat="43.02125" lon="0.54598">
        <ele>612</ele>
        <time>2018-03-18T10:29:05.000Z</time>
      </trkpt>
      <trkpt lat="43.02126" lon="0.54598">
        <ele>612</ele>
        <time>2018-03-18T10:29:07.000Z</time>
      </trkpt>
      <trkpt lat="43.02127" lon="0.54598">
        <ele>612</ele>
        <time>2018-03-18T10:29:09.000Z</time>
      </trkpt>
      <trkpt lat="43.02129" lon="0.54598">
        <ele>611</ele>
        <time>2018-03-18T10:29:11.000Z</time>
      </trkpt>
      <trkpt lat="43.02129" lon="0.54597">
        <ele>611</ele>
        <time>2018-03-18T10:29:13.000Z</time>
      </trkpt>
      <trkpt lat="43.0213" lon="0.54597">
        <ele>611</ele>
        <time>2018-03-18T10:29:15.000Z</time>
      </trkpt>
      <trkpt lat="43.02131" lon="0.54595">
        <ele>610</ele>
        <time>2018-03-18T10:29:17.000Z</time>
      </trkpt>
      <trkpt lat="43.02132" lon="0.54594">
        <ele>609</ele>
        <time>2018-03-18T10:29:19.000Z</time>
      </trkpt>
      <trkpt lat="43.02132" lon="0.54592">
        <ele>609</ele>
        <time>2018-03-18T10:29:21.000Z</time>
      </trkpt>
      <trkpt lat="43.02133" lon="0.54591">
        <ele>608</ele>
        <time>2018-03-18T10:29:23.000Z</time>
      </trkpt>
      <trkpt lat="43.02135" lon="0.5459">
        <ele>607</ele>
        <time>2018-03-18T10:29:25.000Z</time>
      </trkpt>
      <trkpt lat="43.02136" lon="0.5459">
        <ele>607</ele>
        <time>2018-03-18T10:29:27.000Z</time>
      </trkpt>
      <trkpt lat="43.02138" lon="0.5459">
        <ele>607</ele>
        <time>2018-03-18T10:29:29.000Z</time>
      </trkpt>
      <trkpt lat="43.02139" lon="0.54589">
        <ele>606</ele>
        <time>2018-03-18T10:29:31.000Z</time>
      </trkpt>
      <trkpt lat="43.02141" lon="0.54589">
        <ele>606</ele>
        <time>2018-03-18T10:29:33.000Z</time>
      </trkpt>
      <trkpt lat="43.02142" lon="0.54589">
        <ele>606</ele>
        <time>2018-03-18T10:29:35.000Z</time>
      </trkpt>
      <trkpt lat="43.02144" lon="0.54589">
        <ele>605</ele>
        <time>2018-03-18T10:29:37.000Z</time>
      </trkpt>
      <trkpt lat="43.02146" lon="0.5459">
        <ele>605</ele>
        <time>2018-03-18T10:29:39.000Z</time>
      </trkpt>
      <trkpt lat="43.02147" lon="0.54591">
        <ele>606</ele>
        <time>2018-03-18T10:29:41.000Z</time>
      </trkpt>
      <trkpt lat="43.02147" lon="0.54591">
        <ele>605</ele>
        <time>2018-03-18T10:29:43.000Z</time>
      </trkpt>
      <trkpt lat="43.02148" lon="0.54592">
        <ele>606</ele>
        <time>2018-03-18T10:29:45.000Z</time>
      </trkpt>
      <trkpt lat="43.02149" lon="0.54592">
        <ele>606</ele>
        <time>2018-03-18T10:29:47.000Z</time>
      </trkpt>
      <trkpt lat="43.02151" lon="0.54592">
        <ele>605</ele>
        <time>2018-03-18T10:29:49.000Z</time>
      </trkpt>
      <trkpt lat="43.02151" lon="0.54593">
        <ele>605</ele>
        <time>2018-03-18T10:29:51.000Z</time>
      </trkpt>
      <trkpt lat="43.02152" lon="0.54592">
        <ele>605</ele>
        <time>2018-03-18T10:29:53.000Z</time>
      </trkpt>
      <trkpt lat="43.02153" lon="0.54593">
        <ele>605</ele>
        <time>2018-03-18T10:29:55.000Z</time>
      </trkpt>
      <trkpt lat="43.02155" lon="0.54593">
        <ele>605</ele>
        <time>2018-03-18T10:29:57.000Z</time>
      </trkpt>
      <trkpt lat="43.02156" lon="0.54592">
        <ele>604</ele>
        <time>2018-03-18T10:29:59.000Z</time>
      </trkpt>
      <trkpt lat="43.02157" lon="0.54592">
        <ele>604</ele>
        <time>2018-03-18T10:30:01.000Z</time>
      </trkpt>
      <trkpt lat="43.02158" lon="0.5459">
        <ele>603</ele>
        <time>2018-03-18T10:30:03.000Z</time>
      </trkpt>
      <trkpt lat="43.02159" lon="0.54589">
        <ele>603</ele>
        <time>2018-03-18T10:30:05.000Z</time>
      </trkpt>
      <trkpt lat="43.0216" lon="0.54589">
        <ele>602</ele>
        <time>2018-03-18T10:30:07.000Z</time>
      </trkpt>
      <trkpt lat="43.02161" lon="0.54588">
        <ele>602</ele>
        <time>2018-03-18T10:30:09.000Z</time>
      </trkpt>
      <trkpt lat="43.02162" lon="0.54588">
        <ele>602</ele>
        <time>2018-03-18T10:30:11.000Z</time>
      </trkpt>
      <trkpt lat="43.02164" lon="0.54588">
        <ele>601</ele>
        <time>2018-03-18T10:30:13.000Z</time>
      </trkpt>
      <trkpt lat="43.02166" lon="0.54588">
        <ele>601</ele>
        <time>2018-03-18T10:30:15.000Z</time>
      </trkpt>
      <trkpt lat="43.02167" lon="0.54589">
        <ele>601</ele>
        <time>2018-03-18T10:30:17.000Z</time>
      </trkpt>
      <trkpt lat="43.02169" lon="0.54589">
        <ele>601</ele>
        <time>2018-03-18T10:30:19.000Z</time>
      </trkpt>
      <trkpt lat="43.02171" lon="0.54589">
        <ele>600</ele>
        <time>2018-03-18T10:30:21.000Z</time>
      </trkpt>
      <trkpt lat="43.02172" lon="0.54589">
        <ele>600</ele>
        <time>2018-03-18T10:30:23.000Z</time>
      </trkpt>
      <trkpt lat="43.02174" lon="0.54589">
        <ele>600</ele>
        <time>2018-03-18T10:30:25.000Z</time>
      </trkpt>
      <trkpt lat="43.02174" lon="0.54589">
        <ele>600</ele>
        <time>2018-03-18T10:30:27.000Z</time>
      </trkpt>
      <trkpt lat="43.02175" lon="0.54589">
        <ele>599</ele>
        <time>2018-03-18T10:30:29.000Z</time>
      </trkpt>
      <trkpt lat="43.02177" lon="0.54588">
        <ele>599</ele>
        <time>2018-03-18T10:30:31.000Z</time>
      </trkpt>
      <trkpt lat="43.02178" lon="0.54588">
        <ele>598</ele>
        <time>2018-03-18T10:30:33.000Z</time>
      </trkpt>
      <trkpt lat="43.02179" lon="0.54587">
        <ele>598</ele>
        <time>2018-03-18T10:30:35.000Z</time>
      </trkpt>
      <trkpt lat="43.0218" lon="0.54587">
        <ele>598</ele>
        <time>2018-03-18T10:30:37.000Z</time>
      </trkpt>
      <trkpt lat="43.02182" lon="0.54587">
        <ele>597</ele>
        <time>2018-03-18T10:30:39.000Z</time>
      </trkpt>
      <trkpt lat="43.02183" lon="0.54587">
        <ele>597</ele>
        <time>2018-03-18T10:30:41.000Z</time>
      </trkpt>
      <trkpt lat="43.02186" lon="0.54588">
        <ele>597</ele>
        <time>2018-03-18T10:30:43.000Z</time>
      </trkpt>
      <trkpt lat="43.02188" lon="0.54586">
        <ele>596</ele>
        <time>2018-03-18T10:30:45.000Z</time>
      </trkpt>
      <trkpt lat="43.0219" lon="0.54586">
        <ele>595</ele>
        <time>2018-03-18T10:30:47.000Z</time>
      </trkpt>
      <trkpt lat="43.02191" lon="0.54586">
        <ele>595</ele>
        <time>2018-03-18T10:30:49.000Z</time>
      </trkpt>
      <trkpt lat="43.02194" lon="0.54585">
        <ele>594</ele>
        <time>2018-03-18T10:30:51.000Z</time>
      </trkpt>
      <trkpt lat="43.02196" lon="0.54586">
        <ele>594</ele>
        <time>2018-03-18T10:30:53.000Z</time>
      </trkpt>
      <trkpt lat="43.02198" lon="0.54586">
        <ele>593</ele>
        <time>2018-03-18T10:30:55.000Z</time>
      </trkpt>
      <trkpt lat="43.02199" lon="0.54587">
        <ele>593</ele>
        <time>2018-03-18T10:30:57.000Z</time>
      </trkpt>
      <trkpt lat="43.02201" lon="0.54587">
        <ele>593</ele>
        <time>2018-03-18T10:30:59.000Z</time>
      </trkpt>
      <trkpt lat="43.02203" lon="0.54587">
        <ele>593</ele>
        <time>2018-03-18T10:31:01.000Z</time>
      </trkpt>
      <trkpt lat="43.02205" lon="0.54587">
        <ele>592</ele>
        <time>2018-03-18T10:31:03.000Z</time>
      </trkpt>
      <trkpt lat="43.02206" lon="0.54588">
        <ele>592</ele>
        <time>2018-03-18T10:31:05.000Z</time>
      </trkpt>
      <trkpt lat="43.02208" lon="0.54589">
        <ele>592</ele>
        <time>2018-03-18T10:31:07.000Z</time>
      </trkpt>
      <trkpt lat="43.02209" lon="0.5459">
        <ele>592</ele>
        <time>2018-03-18T10:31:09.000Z</time>
      </trkpt>
      <trkpt lat="43.02211" lon="0.54591">
        <ele>592</ele>
        <time>2018-03-18T10:31:11.000Z</time>
      </trkpt>
      <trkpt lat="43.02213" lon="0.54591">
        <ele>592</ele>
        <time>2018-03-18T10:31:13.000Z</time>
      </trkpt>
      <trkpt lat="43.02214" lon="0.54592">
        <ele>592</ele>
        <time>2018-03-18T10:31:15.000Z</time>
      </trkpt>
      <trkpt lat="43.02215" lon="0.54593">
        <ele>592</ele>
        <time>2018-03-18T10:31:17.000Z</time>
      </trkpt>
      <trkpt lat="43.02216" lon="0.54593">
        <ele>592</ele>
        <time>2018-03-18T10:31:19.000Z</time>
      </trkpt>
      <trkpt lat="43.02218" lon="0.54594">
        <ele>592</ele>
        <time>2018-03-18T10:31:21.000Z</time>
      </trkpt>
      <trkpt lat="43.02218" lon="0.54595">
        <ele>592</ele>
        <time>2018-03-18T10:31:23.000Z</time>
      </trkpt>
      <trkpt lat="43.02219" lon="0.54595">
        <ele>592</ele>
        <time>2018-03-18T10:31:25.000Z</time>
      </trkpt>
      <trkpt lat="43.0222" lon="0.54595">
        <ele>592</ele>
        <time>2018-03-18T10:31:27.000Z</time>
      </trkpt>
      <trkpt lat="43.02221" lon="0.54595">
        <ele>592</ele>
        <time>2018-03-18T10:31:29.000Z</time>
      </trkpt>
      <trkpt lat="43.02222" lon="0.54595">
        <ele>591</ele>
        <time>2018-03-18T10:31:31.000Z</time>
      </trkpt>
      <trkpt lat="43.02223" lon="0.54595">
        <ele>591</ele>
        <time>2018-03-18T10:31:33.000Z</time>
      </trkpt>
      <trkpt lat="43.02225" lon="0.54596">
        <ele>591</ele>
        <time>2018-03-18T10:31:35.000Z</time>
      </trkpt>
      <trkpt lat="43.02226" lon="0.54596">
        <ele>591</ele>
        <time>2018-03-18T10:31:37.000Z</time>
      </trkpt>
      <trkpt lat="43.02226" lon="0.54596">
        <ele>591</ele>
        <time>2018-03-18T10:31:39.000Z</time>
      </trkpt>
      <trkpt lat="43.02226" lon="0.54597">
        <ele>591</ele>
        <time>2018-03-18T10:31:41.000Z</time>
      </trkpt>
      <trkpt lat="43.02226" lon="0.54596">
        <ele>591</ele>
        <time>2018-03-18T10:31:43.000Z</time>
      </trkpt>
      <trkpt lat="43.02226" lon="0.54595">
        <ele>591</ele>
        <time>2018-03-18T10:31:45.000Z</time>
      </trkpt>
      <trkpt lat="43.02227" lon="0.54595">
        <ele>590</ele>
        <time>2018-03-18T10:31:47.000Z</time>
      </trkpt>
      <trkpt lat="43.02228" lon="0.54594">
        <ele>590</ele>
        <time>2018-03-18T10:31:49.000Z</time>
      </trkpt>
      <trkpt lat="43.02229" lon="0.54595">
        <ele>590</ele>
        <time>2018-03-18T10:31:51.000Z</time>
      </trkpt>
      <trkpt lat="43.0223" lon="0.54595">
        <ele>590</ele>
        <time>2018-03-18T10:31:53.000Z</time>
      </trkpt>
      <trkpt lat="43.02231" lon="0.54596">
        <ele>590</ele>
        <time>2018-03-18T10:31:55.000Z</time>
      </trkpt>
      <trkpt lat="43.02233" lon="0.54597">
        <ele>590</ele>
        <time>2018-03-18T10:31:57.000Z</time>
      </trkpt>
      <trkpt lat="43.02233" lon="0.54597">
        <ele>590</ele>
        <time>2018-03-18T10:31:59.000Z</time>
      </trkpt>
      <trkpt lat="43.02234" lon="0.54597">
        <ele>590</ele>
        <time>2018-03-18T10:32:01.000Z</time>
      </trkpt>
      <trkpt lat="43.02235" lon="0.54596">
        <ele>589</ele>
        <time>2018-03-18T10:32:03.000Z</time>
      </trkpt>
      <trkpt lat="43.02236" lon="0.54595">
        <ele>588</ele>
        <time>2018-03-18T10:32:05.000Z</time>
      </trkpt>
      <trkpt lat="43.02237" lon="0.54594">
        <ele>588</ele>
        <time>2018-03-18T10:32:07.000Z</time>
      </trkpt>
      <trkpt lat="43.02237" lon="0.54591">
        <ele>586</ele>
        <time>2018-03-18T10:32:09.000Z</time>
      </trkpt>
      <trkpt lat="43.02237" lon="0.5459">
        <ele>586</ele>
        <time>2018-03-18T10:32:11.000Z</time>
      </trkpt>
      <trkpt lat="43.02238" lon="0.54589">
        <ele>585</ele>
        <time>2018-03-18T10:32:13.000Z</time>
      </trkpt>
      <trkpt lat="43.02239" lon="0.54589">
        <ele>585</ele>
        <time>2018-03-18T10:32:15.000Z</time>
      </trkpt>
      <trkpt lat="43.02239" lon="0.54589">
        <ele>585</ele>
        <time>2018-03-18T10:32:17.000Z</time>
      </trkpt>
      <trkpt lat="43.02239" lon="0.54589">
        <ele>585</ele>
        <time>2018-03-18T10:32:19.000Z</time>
      </trkpt>
      <trkpt lat="43.0224" lon="0.54588">
        <ele>585</ele>
        <time>2018-03-18T10:32:21.000Z</time>
      </trkpt>
      <trkpt lat="43.02241" lon="0.54588">
        <ele>584</ele>
        <time>2018-03-18T10:32:23.000Z</time>
      </trkpt>
      <trkpt lat="43.02241" lon="0.54589">
        <ele>585</ele>
        <time>2018-03-18T10:32:25.000Z</time>
      </trkpt>
      <trkpt lat="43.02241" lon="0.54589">
        <ele>585</ele>
        <time>2018-03-18T10:32:27.000Z</time>
      </trkpt>
      <trkpt lat="43.02242" lon="0.54589">
        <ele>585</ele>
        <time>2018-03-18T10:32:29.000Z</time>
      </trkpt>
      <trkpt lat="43.02243" lon="0.54591">
        <ele>585</ele>
        <time>2018-03-18T10:32:31.000Z</time>
      </trkpt>
      <trkpt lat="43.02243" lon="0.54592">
        <ele>585</ele>
        <time>2018-03-18T10:32:33.000Z</time>
      </trkpt>
      <trkpt lat="43.02244" lon="0.54592">
        <ele>585</ele>
        <time>2018-03-18T10:32:35.000Z</time>
      </trkpt>
      <trkpt lat="43.02244" lon="0.54593">
        <ele>585</ele>
        <time>2018-03-18T10:32:37.000Z</time>
      </trkpt>
      <trkpt lat="43.02245" lon="0.54593">
        <ele>585</ele>
        <time>2018-03-18T10:32:39.000Z</time>
      </trkpt>
      <trkpt lat="43.02245" lon="0.54593">
        <ele>586</ele>
        <time>2018-03-18T10:32:41.000Z</time>
      </trkpt>
      <trkpt lat="43.02245" lon="0.54593">
        <ele>585</ele>
        <time>2018-03-18T10:32:43.000Z</time>
      </trkpt>
      <trkpt lat="43.02246" lon="0.54593">
        <ele>585</ele>
        <time>2018-03-18T10:32:45.000Z</time>
      </trkpt>
      <trkpt lat="43.02247" lon="0.54594">
        <ele>585</ele>
        <time>2018-03-18T10:32:47.000Z</time>
      </trkpt>
      <trkpt lat="43.02249" lon="0.54594">
        <ele>585</ele>
        <time>2018-03-18T10:32:49.000Z</time>
      </trkpt>
      <trkpt lat="43.0225" lon="0.54595">
        <ele>585</ele>
        <time>2018-03-18T10:32:51.000Z</time>
      </trkpt>
      <trkpt lat="43.02252" lon="0.54595">
        <ele>585</ele>
        <time>2018-03-18T10:32:53.000Z</time>
      </trkpt>
      <trkpt lat="43.02254" lon="0.54596">
        <ele>585</ele>
        <time>2018-03-18T10:32:55.000Z</time>
      </trkpt>
      <trkpt lat="43.02256" lon="0.54596">
        <ele>584</ele>
        <time>2018-03-18T10:32:57.000Z</time>
      </trkpt>
      <trkpt lat="43.02257" lon="0.54596">
        <ele>584</ele>
        <time>2018-03-18T10:32:59.000Z</time>
      </trkpt>
      <trkpt lat="43.0226" lon="0.54597">
        <ele>583</ele>
        <time>2018-03-18T10:33:01.000Z</time>
      </trkpt>
      <trkpt lat="43.02262" lon="0.54598">
        <ele>584</ele>
        <time>2018-03-18T10:33:03.000Z</time>
      </trkpt>
      <trkpt lat="43.02263" lon="0.54599">
        <ele>584</ele>
        <time>2018-03-18T10:33:05.000Z</time>
      </trkpt>
      <trkpt lat="43.02265" lon="0.54599">
        <ele>583</ele>
        <time>2018-03-18T10:33:07.000Z</time>
      </trkpt>
      <trkpt lat="43.02267" lon="0.546">
        <ele>583</ele>
        <time>2018-03-18T10:33:09.000Z</time>
      </trkpt>
      <trkpt lat="43.02269" lon="0.546">
        <ele>583</ele>
        <time>2018-03-18T10:33:11.000Z</time>
      </trkpt>
      <trkpt lat="43.02271" lon="0.54602">
        <ele>583</ele>
        <time>2018-03-18T10:33:13.000Z</time>
      </trkpt>
      <trkpt lat="43.02273" lon="0.54602">
        <ele>582</ele>
        <time>2018-03-18T10:33:15.000Z</time>
      </trkpt>
      <trkpt lat="43.02274" lon="0.54602">
        <ele>582</ele>
        <time>2018-03-18T10:33:17.000Z</time>
      </trkpt>
      <trkpt lat="43.02276" lon="0.54602">
        <ele>582</ele>
        <time>2018-03-18T10:33:19.000Z</time>
      </trkpt>
      <trkpt lat="43.02278" lon="0.54602">
        <ele>581</ele>
        <time>2018-03-18T10:33:21.000Z</time>
      </trkpt>
      <trkpt lat="43.02279" lon="0.54603">
        <ele>581</ele>
        <time>2018-03-18T10:33:23.000Z</time>
      </trkpt>
      <trkpt lat="43.02281" lon="0.54603">
        <ele>581</ele>
        <time>2018-03-18T10:33:25.000Z</time>
      </trkpt>
      <trkpt lat="43.02284" lon="0.54603">
        <ele>580</ele>
        <time>2018-03-18T10:33:27.000Z</time>
      </trkpt>
      <trkpt lat="43.02285" lon="0.54603">
        <ele>580</ele>
        <time>2018-03-18T10:33:29.000Z</time>
      </trkpt>
      <trkpt lat="43.02287" lon="0.54603">
        <ele>579</ele>
        <time>2018-03-18T10:33:31.000Z</time>
      </trkpt>
      <trkpt lat="43.02289" lon="0.54603">
        <ele>579</ele>
        <time>2018-03-18T10:33:33.000Z</time>
      </trkpt>
      <trkpt lat="43.02291" lon="0.54603">
        <ele>578</ele>
        <time>2018-03-18T10:33:35.000Z</time>
      </trkpt>
      <trkpt lat="43.02292" lon="0.54604">
        <ele>578</ele>
        <time>2018-03-18T10:33:37.000Z</time>
      </trkpt>
      <trkpt lat="43.02294" lon="0.54604">
        <ele>578</ele>
        <time>2018-03-18T10:33:39.000Z</time>
      </trkpt>
      <trkpt lat="43.02295" lon="0.54604">
        <ele>578</ele>
        <time>2018-03-18T10:33:41.000Z</time>
      </trkpt>
      <trkpt lat="43.02297" lon="0.54605">
        <ele>577</ele>
        <time>2018-03-18T10:33:43.000Z</time>
      </trkpt>
      <trkpt lat="43.02299" lon="0.54605">
        <ele>577</ele>
        <time>2018-03-18T10:33:45.000Z</time>
      </trkpt>
      <trkpt lat="43.02301" lon="0.54605">
        <ele>576</ele>
        <time>2018-03-18T10:33:47.000Z</time>
      </trkpt>
      <trkpt lat="43.02302" lon="0.54606">
        <ele>576</ele>
        <time>2018-03-18T10:33:49.000Z</time>
      </trkpt>
      <trkpt lat="43.02304" lon="0.54606">
        <ele>576</ele>
        <time>2018-03-18T10:33:51.000Z</time>
      </trkpt>
      <trkpt lat="43.02306" lon="0.54607">
        <ele>576</ele>
        <time>2018-03-18T10:33:53.000Z</time>
      </trkpt>
      <trkpt lat="43.02307" lon="0.54607">
        <ele>576</ele>
        <time>2018-03-18T10:33:55.000Z</time>
      </trkpt>
      <trkpt lat="43.02309" lon="0.54608">
        <ele>576</ele>
        <time>2018-03-18T10:33:57.000Z</time>
      </trkpt>
      <trkpt lat="43.02311" lon="0.54608">
        <ele>575</ele>
        <time>2018-03-18T10:33:59.000Z</time>
      </trkpt>
      <trkpt lat="43.02313" lon="0.54609">
        <ele>575</ele>
        <time>2018-03-18T10:34:01.000Z</time>
      </trkpt>
      <trkpt lat="43.02315" lon="0.5461">
        <ele>575</ele>
        <time>2018-03-18T10:34:03.000Z</time>
      </trkpt>
      <trkpt lat="43.02318" lon="0.54611">
        <ele>574</ele>
        <time>2018-03-18T10:34:05.000Z</time>
      </trkpt>
      <trkpt lat="43.0232" lon="0.54611">
        <ele>574</ele>
        <time>2018-03-18T10:34:07.000Z</time>
      </trkpt>
      <trkpt lat="43.02322" lon="0.54612">
        <ele>574</ele>
        <time>2018-03-18T10:34:09.000Z</time>
      </trkpt>
      <trkpt lat="43.02325" lon="0.54613">
        <ele>574</ele>
        <time>2018-03-18T10:34:11.000Z</time>
      </trkpt>
      <trkpt lat="43.02327" lon="0.54615">
        <ele>574</ele>
        <time>2018-03-18T10:34:13.000Z</time>
      </trkpt>
      <trkpt lat="43.02329" lon="0.54616">
        <ele>574</ele>
        <time>2018-03-18T10:34:15.000Z</time>
      </trkpt>
      <trkpt lat="43.02331" lon="0.54617">
        <ele>574</ele>
        <time>2018-03-18T10:34:17.000Z</time>
      </trkpt>
      <trkpt lat="43.02333" lon="0.54618">
        <ele>574</ele>
        <time>2018-03-18T10:34:19.000Z</time>
      </trkpt>
      <trkpt lat="43.02334" lon="0.54619">
        <ele>574</ele>
        <time>2018-03-18T10:34:21.000Z</time>
      </trkpt>
      <trkpt lat="43.02336" lon="0.54621">
        <ele>574</ele>
        <time>2018-03-18T10:34:23.000Z</time>
      </trkpt>
      <trkpt lat="43.02337" lon="0.54622">
        <ele>574</ele>
        <time>2018-03-18T10:34:25.000Z</time>
      </trkpt>
      <trkpt lat="43.0234" lon="0.54622">
        <ele>574</ele>
        <time>2018-03-18T10:34:27.000Z</time>
      </trkpt>
      <trkpt lat="43.02342" lon="0.54624">
        <ele>574</ele>
        <time>2018-03-18T10:34:29.000Z</time>
      </trkpt>
      <trkpt lat="43.02343" lon="0.54625">
        <ele>574</ele>
        <time>2018-03-18T10:34:31.000Z</time>
      </trkpt>
      <trkpt lat="43.02345" lon="0.54625">
        <ele>574</ele>
        <time>2018-03-18T10:34:33.000Z</time>
      </trkpt>
      <trkpt lat="43.02347" lon="0.54626">
        <ele>573</ele>
        <time>2018-03-18T10:34:35.000Z</time>
      </trkpt>
      <trkpt lat="43.02349" lon="0.54627">
        <ele>573</ele>
        <time>2018-03-18T10:34:37.000Z</time>
      </trkpt>
      <trkpt lat="43.02351" lon="0.54628">
        <ele>573</ele>
        <time>2018-03-18T10:34:39.000Z</time>
      </trkpt>
      <trkpt lat="43.02353" lon="0.54628">
        <ele>572</ele>
        <time>2018-03-18T10:34:41.000Z</time>
      </trkpt>
      <trkpt lat="43.02355" lon="0.54629">
        <ele>572</ele>
        <time>2018-03-18T10:34:43.000Z</time>
      </trkpt>
      <trkpt lat="43.02356" lon="0.54631">
        <ele>572</ele>
        <time>2018-03-18T10:34:45.000Z</time>
      </trkpt>
      <trkpt lat="43.02358" lon="0.54632">
        <ele>572</ele>
        <time>2018-03-18T10:34:47.000Z</time>
      </trkpt>
      <trkpt lat="43.0236" lon="0.54634">
        <ele>572</ele>
        <time>2018-03-18T10:34:49.000Z</time>
      </trkpt>
      <trkpt lat="43.02362" lon="0.54635">
        <ele>572</ele>
        <time>2018-03-18T10:34:51.000Z</time>
      </trkpt>
      <trkpt lat="43.02364" lon="0.54636">
        <ele>571</ele>
        <time>2018-03-18T10:34:53.000Z</time>
      </trkpt>
      <trkpt lat="43.02366" lon="0.54637">
        <ele>571</ele>
        <time>2018-03-18T10:34:55.000Z</time>
      </trkpt>
      <trkpt lat="43.02368" lon="0.54638">
        <ele>570</ele>
        <time>2018-03-18T10:34:57.000Z</time>
      </trkpt>
      <trkpt lat="43.0237" lon="0.54638">
        <ele>570</ele>
        <time>2018-03-18T10:34:59.000Z</time>
      </trkpt>
      <trkpt lat="43.02372" lon="0.54639">
        <ele>570</ele>
        <time>2018-03-18T10:35:01.000Z</time>
      </trkpt>
      <trkpt lat="43.02373" lon="0.5464">
        <ele>569</ele>
        <time>2018-03-18T10:35:03.000Z</time>
      </trkpt>
      <trkpt lat="43.02375" lon="0.5464">
        <ele>569</ele>
        <time>2018-03-18T10:35:05.000Z</time>
      </trkpt>
      <trkpt lat="43.02376" lon="0.54641">
        <ele>569</ele>
        <time>2018-03-18T10:35:07.000Z</time>
      </trkpt>
      <trkpt lat="43.02377" lon="0.54641">
        <ele>568</ele>
        <time>2018-03-18T10:35:09.000Z</time>
      </trkpt>
      <trkpt lat="43.02379" lon="0.54642">
        <ele>568</ele>
        <time>2018-03-18T10:35:11.000Z</time>
      </trkpt>
      <trkpt lat="43.0238" lon="0.54644">
        <ele>568</ele>
        <time>2018-03-18T10:35:13.000Z</time>
      </trkpt>
      <trkpt lat="43.02381" lon="0.54644">
        <ele>568</ele>
        <time>2018-03-18T10:35:15.000Z</time>
      </trkpt>
      <trkpt lat="43.02382" lon="0.54646">
        <ele>568</ele>
        <time>2018-03-18T10:35:17.000Z</time>
      </trkpt>
      <trkpt lat="43.02384" lon="0.54647">
        <ele>568</ele>
        <time>2018-03-18T10:35:19.000Z</time>
      </trkpt>
      <trkpt lat="43.02385" lon="0.54649">
        <ele>568</ele>
        <time>2018-03-18T10:35:21.000Z</time>
      </trkpt>
      <trkpt lat="43.02387" lon="0.54651">
        <ele>568</ele>
        <time>2018-03-18T10:35:23.000Z</time>
      </trkpt>
      <trkpt lat="43.02389" lon="0.54653">
        <ele>568</ele>
        <time>2018-03-18T10:35:25.000Z</time>
      </trkpt>
      <trkpt lat="43.02391" lon="0.54657">
        <ele>569</ele>
        <time>2018-03-18T10:35:27.000Z</time>
      </trkpt>
      <trkpt lat="43.02393" lon="0.54658">
        <ele>568</ele>
        <time>2018-03-18T10:35:29.000Z</time>
      </trkpt>
      <trkpt lat="43.02396" lon="0.54659">
        <ele>568</ele>
        <time>2018-03-18T10:35:31.000Z</time>
      </trkpt>
      <trkpt lat="43.02398" lon="0.54662">
        <ele>568</ele>
        <time>2018-03-18T10:35:33.000Z</time>
      </trkpt>
      <trkpt lat="43.02399" lon="0.54663">
        <ele>568</ele>
        <time>2018-03-18T10:35:35.000Z</time>
      </trkpt>
      <trkpt lat="43.02401" lon="0.54665">
        <ele>568</ele>
        <time>2018-03-18T10:35:37.000Z</time>
      </trkpt>
      <trkpt lat="43.02402" lon="0.54667">
        <ele>568</ele>
        <time>2018-03-18T10:35:39.000Z</time>
      </trkpt>
      <trkpt lat="43.02404" lon="0.54668">
        <ele>568</ele>
        <time>2018-03-18T10:35:41.000Z</time>
      </trkpt>
      <trkpt lat="43.02406" lon="0.5467">
        <ele>568</ele>
        <time>2018-03-18T10:35:43.000Z</time>
      </trkpt>
      <trkpt lat="43.02407" lon="0.54672">
        <ele>568</ele>
        <time>2018-03-18T10:35:45.000Z</time>
      </trkpt>
      <trkpt lat="43.02408" lon="0.54674">
        <ele>568</ele>
        <time>2018-03-18T10:35:47.000Z</time>
      </trkpt>
      <trkpt lat="43.02411" lon="0.54677">
        <ele>568</ele>
        <time>2018-03-18T10:35:49.000Z</time>
      </trkpt>
      <trkpt lat="43.02412" lon="0.54679">
        <ele>568</ele>
        <time>2018-03-18T10:35:51.000Z</time>
      </trkpt>
      <trkpt lat="43.02413" lon="0.54681">
        <ele>569</ele>
        <time>2018-03-18T10:35:53.000Z</time>
      </trkpt>
      <trkpt lat="43.02415" lon="0.54683">
        <ele>569</ele>
        <time>2018-03-18T10:35:55.000Z</time>
      </trkpt>
      <trkpt lat="43.02417" lon="0.54685">
        <ele>569</ele>
        <time>2018-03-18T10:35:57.000Z</time>
      </trkpt>
      <trkpt lat="43.02418" lon="0.54687">
        <ele>569</ele>
        <time>2018-03-18T10:35:59.000Z</time>
      </trkpt>
      <trkpt lat="43.02419" lon="0.54689">
        <ele>569</ele>
        <time>2018-03-18T10:36:01.000Z</time>
      </trkpt>
      <trkpt lat="43.02421" lon="0.54691">
        <ele>569</ele>
        <time>2018-03-18T10:36:03.000Z</time>
      </trkpt>
      <trkpt lat="43.02422" lon="0.54692">
        <ele>569</ele>
        <time>2018-03-18T10:36:05.000Z</time>
      </trkpt>
      <trkpt lat="43.02426" lon="0.54692">
        <ele>568</ele>
        <time>2018-03-18T10:36:07.000Z</time>
      </trkpt>
      <trkpt lat="43.02428" lon="0.54694">
        <ele>568</ele>
        <time>2018-03-18T10:36:09.000Z</time>
      </trkpt>
      <trkpt lat="43.02429" lon="0.54695">
        <ele>567</ele>
        <time>2018-03-18T10:36:11.000Z</time>
      </trkpt>
      <trkpt lat="43.02432" lon="0.54696">
        <ele>566</ele>
        <time>2018-03-18T10:36:13.000Z</time>
      </trkpt>
      <trkpt lat="43.02435" lon="0.54698">
        <ele>566</ele>
        <time>2018-03-18T10:36:15.000Z</time>
      </trkpt>
      <trkpt lat="43.02436" lon="0.54701">
        <ele>566</ele>
        <time>2018-03-18T10:36:17.000Z</time>
      </trkpt>
      <trkpt lat="43.02437" lon="0.54703">
        <ele>566</ele>
        <time>2018-03-18T10:36:19.000Z</time>
      </trkpt>
      <trkpt lat="43.02439" lon="0.54704">
        <ele>566</ele>
        <time>2018-03-18T10:36:21.000Z</time>
      </trkpt>
      <trkpt lat="43.02441" lon="0.54706">
        <ele>566</ele>
        <time>2018-03-18T10:36:23.000Z</time>
      </trkpt>
      <trkpt lat="43.02442" lon="0.54709">
        <ele>566</ele>
        <time>2018-03-18T10:36:25.000Z</time>
      </trkpt>
      <trkpt lat="43.02444" lon="0.54711">
        <ele>566</ele>
        <time>2018-03-18T10:36:27.000Z</time>
      </trkpt>
      <trkpt lat="43.02445" lon="0.54714">
        <ele>566</ele>
        <time>2018-03-18T10:36:29.000Z</time>
      </trkpt>
      <trkpt lat="43.02446" lon="0.54717">
        <ele>566</ele>
        <time>2018-03-18T10:36:31.000Z</time>
      </trkpt>
      <trkpt lat="43.02448" lon="0.54719">
        <ele>566</ele>
        <time>2018-03-18T10:36:33.000Z</time>
      </trkpt>
      <trkpt lat="43.02451" lon="0.54721">
        <ele>565</ele>
        <time>2018-03-18T10:36:35.000Z</time>
      </trkpt>
      <trkpt lat="43.02452" lon="0.54723">
        <ele>565</ele>
        <time>2018-03-18T10:36:37.000Z</time>
      </trkpt>
      <trkpt lat="43.02454" lon="0.54724">
        <ele>564</ele>
        <time>2018-03-18T10:36:39.000Z</time>
      </trkpt>
      <trkpt lat="43.02456" lon="0.54726">
        <ele>563</ele>
        <time>2018-03-18T10:36:41.000Z</time>
      </trkpt>
      <trkpt lat="43.02458" lon="0.54727">
        <ele>563</ele>
        <time>2018-03-18T10:36:43.000Z</time>
      </trkpt>
      <trkpt lat="43.02461" lon="0.5473">
        <ele>562</ele>
        <time>2018-03-18T10:36:45.000Z</time>
      </trkpt>
      <trkpt lat="43.02462" lon="0.54731">
        <ele>562</ele>
        <time>2018-03-18T10:36:47.000Z</time>
      </trkpt>
      <trkpt lat="43.02464" lon="0.54734">
        <ele>561</ele>
        <time>2018-03-18T10:36:49.000Z</time>
      </trkpt>
      <trkpt lat="43.02466" lon="0.54735">
        <ele>560</ele>
        <time>2018-03-18T10:36:51.000Z</time>
      </trkpt>
      <trkpt lat="43.02469" lon="0.54737">
        <ele>559</ele>
        <time>2018-03-18T10:36:53.000Z</time>
      </trkpt>
      <trkpt lat="43.0247" lon="0.54739">
        <ele>559</ele>
        <time>2018-03-18T10:36:55.000Z</time>
      </trkpt>
      <trkpt lat="43.02473" lon="0.54742">
        <ele>558</ele>
        <time>2018-03-18T10:36:57.000Z</time>
      </trkpt>
      <trkpt lat="43.02476" lon="0.54746">
        <ele>557</ele>
        <time>2018-03-18T10:36:59.000Z</time>
      </trkpt>
      <trkpt lat="43.02478" lon="0.5475">
        <ele>557</ele>
        <time>2018-03-18T10:37:01.000Z</time>
      </trkpt>
      <trkpt lat="43.0248" lon="0.54753">
        <ele>556</ele>
        <time>2018-03-18T10:37:03.000Z</time>
      </trkpt>
      <trkpt lat="43.02483" lon="0.54756">
        <ele>556</ele>
        <time>2018-03-18T10:37:05.000Z</time>
      </trkpt>
      <trkpt lat="43.02485" lon="0.54759">
        <ele>555</ele>
        <time>2018-03-18T10:37:07.000Z</time>
      </trkpt>
      <trkpt lat="43.02487" lon="0.54761">
        <ele>555</ele>
        <time>2018-03-18T10:37:09.000Z</time>
      </trkpt>
      <trkpt lat="43.02489" lon="0.54763">
        <ele>554</ele>
        <time>2018-03-18T10:37:11.000Z</time>
      </trkpt>
      <trkpt lat="43.02491" lon="0.54766">
        <ele>554</ele>
        <time>2018-03-18T10:37:13.000Z</time>
      </trkpt>
      <trkpt lat="43.02492" lon="0.54768">
        <ele>554</ele>
        <time>2018-03-18T10:37:15.000Z</time>
      </trkpt>
      <trkpt lat="43.02492" lon="0.54771">
        <ele>554</ele>
        <time>2018-03-18T10:37:17.000Z</time>
      </trkpt>
      <trkpt lat="43.02493" lon="0.54773">
        <ele>554</ele>
        <time>2018-03-18T10:37:19.000Z</time>
      </trkpt>
      <trkpt lat="43.02493" lon="0.54776">
        <ele>554</ele>
        <time>2018-03-18T10:37:21.000Z</time>
      </trkpt>
      <trkpt lat="43.02494" lon="0.54778">
        <ele>554</ele>
        <time>2018-03-18T10:37:23.000Z</time>
      </trkpt>
      <trkpt lat="43.02496" lon="0.5478">
        <ele>554</ele>
        <time>2018-03-18T10:37:25.000Z</time>
      </trkpt>
      <trkpt lat="43.02496" lon="0.54782">
        <ele>554</ele>
        <time>2018-03-18T10:37:27.000Z</time>
      </trkpt>
      <trkpt lat="43.02494" lon="0.54786">
        <ele>555</ele>
        <time>2018-03-18T10:37:29.000Z</time>
      </trkpt>
      <trkpt lat="43.02493" lon="0.54788">
        <ele>557</ele>
        <time>2018-03-18T10:37:31.000Z</time>
      </trkpt>
      <trkpt lat="43.02496" lon="0.54789">
        <ele>555</ele>
        <time>2018-03-18T10:37:33.000Z</time>
      </trkpt>
      <trkpt lat="43.02497" lon="0.54791">
        <ele>555</ele>
        <time>2018-03-18T10:37:35.000Z</time>
      </trkpt>
      <trkpt lat="43.02498" lon="0.54793">
        <ele>555</ele>
        <time>2018-03-18T10:37:37.000Z</time>
      </trkpt>
      <trkpt lat="43.025" lon="0.54796">
        <ele>555</ele>
        <time>2018-03-18T10:37:39.000Z</time>
      </trkpt>
      <trkpt lat="43.02502" lon="0.54798">
        <ele>554</ele>
        <time>2018-03-18T10:37:41.000Z</time>
      </trkpt>
      <trkpt lat="43.02503" lon="0.54801">
        <ele>554</ele>
        <time>2018-03-18T10:37:43.000Z</time>
      </trkpt>
      <trkpt lat="43.02506" lon="0.54803">
        <ele>553</ele>
        <time>2018-03-18T10:37:45.000Z</time>
      </trkpt>
      <trkpt lat="43.02507" lon="0.54805">
        <ele>552</ele>
        <time>2018-03-18T10:37:47.000Z</time>
      </trkpt>
      <trkpt lat="43.0251" lon="0.54808">
        <ele>552</ele>
        <time>2018-03-18T10:37:49.000Z</time>
      </trkpt>
      <trkpt lat="43.02513" lon="0.5481">
        <ele>551</ele>
        <time>2018-03-18T10:37:51.000Z</time>
      </trkpt>
      <trkpt lat="43.02514" lon="0.54814">
        <ele>551</ele>
        <time>2018-03-18T10:37:53.000Z</time>
      </trkpt>
      <trkpt lat="43.02516" lon="0.54816">
        <ele>551</ele>
        <time>2018-03-18T10:37:55.000Z</time>
      </trkpt>
      <trkpt lat="43.02517" lon="0.5482">
        <ele>551</ele>
        <time>2018-03-18T10:37:57.000Z</time>
      </trkpt>
      <trkpt lat="43.02518" lon="0.54823">
        <ele>551</ele>
        <time>2018-03-18T10:37:59.000Z</time>
      </trkpt>
      <trkpt lat="43.02519" lon="0.54825">
        <ele>551</ele>
        <time>2018-03-18T10:38:01.000Z</time>
      </trkpt>
      <trkpt lat="43.0252" lon="0.54827">
        <ele>551</ele>
        <time>2018-03-18T10:38:03.000Z</time>
      </trkpt>
      <trkpt lat="43.02521" lon="0.54829">
        <ele>551</ele>
        <time>2018-03-18T10:38:05.000Z</time>
      </trkpt>
      <trkpt lat="43.02522" lon="0.5483">
        <ele>551</ele>
        <time>2018-03-18T10:38:07.000Z</time>
      </trkpt>
      <trkpt lat="43.02523" lon="0.5483">
        <ele>550</ele>
        <time>2018-03-18T10:38:09.000Z</time>
      </trkpt>
      <trkpt lat="43.02525" lon="0.5483">
        <ele>549</ele>
        <time>2018-03-18T10:38:11.000Z</time>
      </trkpt>
      <trkpt lat="43.02528" lon="0.54829">
        <ele>548</ele>
        <time>2018-03-18T10:38:13.000Z</time>
      </trkpt>
      <trkpt lat="43.02529" lon="0.54828">
        <ele>547</ele>
        <time>2018-03-18T10:38:15.000Z</time>
      </trkpt>
      <trkpt lat="43.02528" lon="0.54825">
        <ele>547</ele>
        <time>2018-03-18T10:38:17.000Z</time>
      </trkpt>
      <trkpt lat="43.02528" lon="0.54825">
        <ele>547</ele>
        <time>2018-03-18T10:38:19.000Z</time>
      </trkpt>
      <trkpt lat="43.02528" lon="0.54823">
        <ele>547</ele>
        <time>2018-03-18T10:38:21.000Z</time>
      </trkpt>
      <trkpt lat="43.02526" lon="0.54822">
        <ele>547</ele>
        <time>2018-03-18T10:38:23.000Z</time>
      </trkpt>
      <trkpt lat="43.02525" lon="0.5482">
        <ele>547</ele>
        <time>2018-03-18T10:38:25.000Z</time>
      </trkpt>
      <trkpt lat="43.02525" lon="0.54818">
        <ele>547</ele>
        <time>2018-03-18T10:38:27.000Z</time>
      </trkpt>
      <trkpt lat="43.02523" lon="0.54817">
        <ele>548</ele>
        <time>2018-03-18T10:38:29.000Z</time>
      </trkpt>
      <trkpt lat="43.02521" lon="0.54815">
        <ele>548</ele>
        <time>2018-03-18T10:38:31.000Z</time>
      </trkpt>
      <trkpt lat="43.0252" lon="0.54814">
        <ele>548</ele>
        <time>2018-03-18T10:38:33.000Z</time>
      </trkpt>
      <trkpt lat="43.0252" lon="0.54811">
        <ele>548</ele>
        <time>2018-03-18T10:38:35.000Z</time>
      </trkpt>
      <trkpt lat="43.02519" lon="0.54809">
        <ele>548</ele>
        <time>2018-03-18T10:38:37.000Z</time>
      </trkpt>
      <trkpt lat="43.02518" lon="0.54806">
        <ele>548</ele>
        <time>2018-03-18T10:38:39.000Z</time>
      </trkpt>
      <trkpt lat="43.02515" lon="0.54804">
        <ele>549</ele>
        <time>2018-03-18T10:38:41.000Z</time>
      </trkpt>
      <trkpt lat="43.02514" lon="0.54802">
        <ele>549</ele>
        <time>2018-03-18T10:38:43.000Z</time>
      </trkpt>
      <trkpt lat="43.02513" lon="0.54799">
        <ele>549</ele>
        <time>2018-03-18T10:38:45.000Z</time>
      </trkpt>
      <trkpt lat="43.02513" lon="0.54796">
        <ele>549</ele>
        <time>2018-03-18T10:38:47.000Z</time>
      </trkpt>
      <trkpt lat="43.02513" lon="0.54792">
        <ele>548</ele>
        <time>2018-03-18T10:38:49.000Z</time>
      </trkpt>
      <trkpt lat="43.02513" lon="0.5479">
        <ele>548</ele>
        <time>2018-03-18T10:38:51.000Z</time>
      </trkpt>
      <trkpt lat="43.02513" lon="0.54787">
        <ele>547</ele>
        <time>2018-03-18T10:38:53.000Z</time>
      </trkpt>
      <trkpt lat="43.02513" lon="0.54783">
        <ele>547</ele>
        <time>2018-03-18T10:38:55.000Z</time>
      </trkpt>
      <trkpt lat="43.02513" lon="0.54781">
        <ele>546</ele>
        <time>2018-03-18T10:38:57.000Z</time>
      </trkpt>
      <trkpt lat="43.02514" lon="0.54779">
        <ele>546</ele>
        <time>2018-03-18T10:38:59.000Z</time>
      </trkpt>
      <trkpt lat="43.02513" lon="0.54777">
        <ele>546</ele>
        <time>2018-03-18T10:39:01.000Z</time>
      </trkpt>
      <trkpt lat="43.02511" lon="0.54774">
        <ele>546</ele>
        <time>2018-03-18T10:39:03.000Z</time>
      </trkpt>
      <trkpt lat="43.02511" lon="0.54772">
        <ele>546</ele>
        <time>2018-03-18T10:39:05.000Z</time>
      </trkpt>
      <trkpt lat="43.02511" lon="0.5477">
        <ele>545</ele>
        <time>2018-03-18T10:39:07.000Z</time>
      </trkpt>
      <trkpt lat="43.02511" lon="0.54768">
        <ele>545</ele>
        <time>2018-03-18T10:39:09.000Z</time>
      </trkpt>
      <trkpt lat="43.02511" lon="0.54766">
        <ele>545</ele>
        <time>2018-03-18T10:39:11.000Z</time>
      </trkpt>
      <trkpt lat="43.02511" lon="0.54764">
        <ele>544</ele>
        <time>2018-03-18T10:39:13.000Z</time>
      </trkpt>
      <trkpt lat="43.02512" lon="0.54762">
        <ele>544</ele>
        <time>2018-03-18T10:39:15.000Z</time>
      </trkpt>
      <trkpt lat="43.02512" lon="0.54759">
        <ele>543</ele>
        <time>2018-03-18T10:39:17.000Z</time>
      </trkpt>
      <trkpt lat="43.02512" lon="0.54756">
        <ele>543</ele>
        <time>2018-03-18T10:39:19.000Z</time>
      </trkpt>
      <trkpt lat="43.02513" lon="0.54754">
        <ele>542</ele>
        <time>2018-03-18T10:39:21.000Z</time>
      </trkpt>
      <trkpt lat="43.02515" lon="0.54751">
        <ele>541</ele>
        <time>2018-03-18T10:39:23.000Z</time>
      </trkpt>
      <trkpt lat="43.02515" lon="0.5475">
        <ele>541</ele>
        <time>2018-03-18T10:39:25.000Z</time>
      </trkpt>
      <trkpt lat="43.02515" lon="0.54749">
        <ele>541</ele>
        <time>2018-03-18T10:39:27.000Z</time>
      </trkpt>
      <trkpt lat="43.02516" lon="0.54748">
        <ele>540</ele>
        <time>2018-03-18T10:39:29.000Z</time>
      </trkpt>
      <trkpt lat="43.02516" lon="0.54747">
        <ele>540</ele>
        <time>2018-03-18T10:39:31.000Z</time>
      </trkpt>
      <trkpt lat="43.02516" lon="0.54747">
        <ele>540</ele>
        <time>2018-03-18T10:39:33.000Z</time>
      </trkpt>
      <trkpt lat="43.02516" lon="0.54745">
        <ele>540</ele>
        <time>2018-03-18T10:39:35.000Z</time>
      </trkpt>
      <trkpt lat="43.02516" lon="0.54743">
        <ele>539</ele>
        <time>2018-03-18T10:39:37.000Z</time>
      </trkpt>
      <trkpt lat="43.02516" lon="0.54742">
        <ele>539</ele>
        <time>2018-03-18T10:39:39.000Z</time>
      </trkpt>
      <trkpt lat="43.02517" lon="0.54739">
        <ele>538</ele>
        <time>2018-03-18T10:39:41.000Z</time>
      </trkpt>
      <trkpt lat="43.02517" lon="0.54737">
        <ele>538</ele>
        <time>2018-03-18T10:39:43.000Z</time>
      </trkpt>
      <trkpt lat="43.02517" lon="0.54734">
        <ele>538</ele>
        <time>2018-03-18T10:39:45.000Z</time>
      </trkpt>
      <trkpt lat="43.02517" lon="0.54732">
        <ele>537</ele>
        <time>2018-03-18T10:39:47.000Z</time>
      </trkpt>
      <trkpt lat="43.02517" lon="0.5473">
        <ele>537</ele>
        <time>2018-03-18T10:39:49.000Z</time>
      </trkpt>
      <trkpt lat="43.02517" lon="0.54727">
        <ele>537</ele>
        <time>2018-03-18T10:39:51.000Z</time>
      </trkpt>
      <trkpt lat="43.02517" lon="0.54725">
        <ele>536</ele>
        <time>2018-03-18T10:39:53.000Z</time>
      </trkpt>
      <trkpt lat="43.02517" lon="0.54723">
        <ele>536</ele>
        <time>2018-03-18T10:39:55.000Z</time>
      </trkpt>
      <trkpt lat="43.02518" lon="0.5472">
        <ele>536</ele>
        <time>2018-03-18T10:39:57.000Z</time>
      </trkpt>
      <trkpt lat="43.02518" lon="0.54718">
        <ele>535</ele>
        <time>2018-03-18T10:39:59.000Z</time>
      </trkpt>
      <trkpt lat="43.02518" lon="0.54715">
        <ele>535</ele>
        <time>2018-03-18T10:40:01.000Z</time>
      </trkpt>
      <trkpt lat="43.02517" lon="0.54714">
        <ele>535</ele>
        <time>2018-03-18T10:40:03.000Z</time>
      </trkpt>
      <trkpt lat="43.02517" lon="0.54711">
        <ele>535</ele>
        <time>2018-03-18T10:40:05.000Z</time>
      </trkpt>
      <trkpt lat="43.02516" lon="0.54709">
        <ele>535</ele>
        <time>2018-03-18T10:40:07.000Z</time>
      </trkpt>
      <trkpt lat="43.02516" lon="0.54707">
        <ele>535</ele>
        <time>2018-03-18T10:40:09.000Z</time>
      </trkpt>
      <trkpt lat="43.02516" lon="0.54704">
        <ele>534</ele>
        <time>2018-03-18T10:40:11.000Z</time>
      </trkpt>
      <trkpt lat="43.02517" lon="0.54703">
        <ele>534</ele>
        <time>2018-03-18T10:40:13.000Z</time>
      </trkpt>
      <trkpt lat="43.02516" lon="0.547">
        <ele>534</ele>
        <time>2018-03-18T10:40:15.000Z</time>
      </trkpt>
      <trkpt lat="43.02516" lon="0.54698">
        <ele>533</ele>
        <time>2018-03-18T10:40:17.000Z</time>
      </trkpt>
      <trkpt lat="43.02516" lon="0.54696">
        <ele>533</ele>
        <time>2018-03-18T10:40:19.000Z</time>
      </trkpt>
      <trkpt lat="43.02516" lon="0.54692">
        <ele>533</ele>
        <time>2018-03-18T10:40:21.000Z</time>
      </trkpt>
      <trkpt lat="43.02516" lon="0.5469">
        <ele>532</ele>
        <time>2018-03-18T10:40:23.000Z</time>
      </trkpt>
      <trkpt lat="43.02516" lon="0.54688">
        <ele>532</ele>
        <time>2018-03-18T10:40:25.000Z</time>
      </trkpt>
      <trkpt lat="43.02515" lon="0.54686">
        <ele>532</ele>
        <time>2018-03-18T10:40:27.000Z</time>
      </trkpt>
      <trkpt lat="43.02515" lon="0.54684">
        <ele>532</ele>
        <time>2018-03-18T10:40:29.000Z</time>
      </trkpt>
      <trkpt lat="43.02514" lon="0.54682">
        <ele>532</ele>
        <time>2018-03-18T10:40:31.000Z</time>
      </trkpt>
      <trkpt lat="43.02513" lon="0.5468">
        <ele>532</ele>
        <time>2018-03-18T10:40:33.000Z</time>
      </trkpt>
      <trkpt lat="43.02513" lon="0.54679">
        <ele>532</ele>
        <time>2018-03-18T10:40:35.000Z</time>
      </trkpt>
      <trkpt lat="43.02512" lon="0.54677">
        <ele>532</ele>
        <time>2018-03-18T10:40:37.000Z</time>
      </trkpt>
      <trkpt lat="43.02511" lon="0.54675">
        <ele>532</ele>
        <time>2018-03-18T10:40:39.000Z</time>
      </trkpt>
      <trkpt lat="43.0251" lon="0.54673">
        <ele>532</ele>
        <time>2018-03-18T10:40:41.000Z</time>
      </trkpt>
      <trkpt lat="43.02509" lon="0.54672">
        <ele>532</ele>
        <time>2018-03-18T10:40:43.000Z</time>
      </trkpt>
      <trkpt lat="43.02509" lon="0.54671">
        <ele>532</ele>
        <time>2018-03-18T10:40:45.000Z</time>
      </trkpt>
      <trkpt lat="43.02507" lon="0.54669">
        <ele>532</ele>
        <time>2018-03-18T10:40:47.000Z</time>
      </trkpt>
      <trkpt lat="43.02506" lon="0.54667">
        <ele>532</ele>
        <time>2018-03-18T10:40:49.000Z</time>
      </trkpt>
      <trkpt lat="43.02505" lon="0.54664">
        <ele>532</ele>
        <time>2018-03-18T10:40:51.000Z</time>
      </trkpt>
      <trkpt lat="43.02504" lon="0.54662">
        <ele>532</ele>
        <time>2018-03-18T10:40:53.000Z</time>
      </trkpt>
      <trkpt lat="43.02502" lon="0.54661">
        <ele>532</ele>
        <time>2018-03-18T10:40:55.000Z</time>
      </trkpt>
      <trkpt lat="43.02501" lon="0.54659">
        <ele>532</ele>
        <time>2018-03-18T10:40:57.000Z</time>
      </trkpt>
      <trkpt lat="43.025" lon="0.54656">
        <ele>532</ele>
        <time>2018-03-18T10:40:59.000Z</time>
      </trkpt>
      <trkpt lat="43.025" lon="0.54654">
        <ele>532</ele>
        <time>2018-03-18T10:41:01.000Z</time>
      </trkpt>
      <trkpt lat="43.02499" lon="0.54652">
        <ele>532</ele>
        <time>2018-03-18T10:41:03.000Z</time>
      </trkpt>
      <trkpt lat="43.02497" lon="0.54651">
        <ele>533</ele>
        <time>2018-03-18T10:41:05.000Z</time>
      </trkpt>
      <trkpt lat="43.02495" lon="0.54649">
        <ele>533</ele>
        <time>2018-03-18T10:41:07.000Z</time>
      </trkpt>
      <trkpt lat="43.02494" lon="0.54649">
        <ele>533</ele>
        <time>2018-03-18T10:41:09.000Z</time>
      </trkpt>
      <trkpt lat="43.02492" lon="0.54648">
        <ele>533</ele>
        <time>2018-03-18T10:41:11.000Z</time>
      </trkpt>
      <trkpt lat="43.02492" lon="0.54646">
        <ele>533</ele>
        <time>2018-03-18T10:41:13.000Z</time>
      </trkpt>
      <trkpt lat="43.02492" lon="0.54643">
        <ele>533</ele>
        <time>2018-03-18T10:41:15.000Z</time>
      </trkpt>
      <trkpt lat="43.02491" lon="0.54642">
        <ele>533</ele>
        <time>2018-03-18T10:41:17.000Z</time>
      </trkpt>
      <trkpt lat="43.02491" lon="0.54641">
        <ele>533</ele>
        <time>2018-03-18T10:41:19.000Z</time>
      </trkpt>
      <trkpt lat="43.02491" lon="0.54639">
        <ele>533</ele>
        <time>2018-03-18T10:41:21.000Z</time>
      </trkpt>
      <trkpt lat="43.02488" lon="0.54637">
        <ele>533</ele>
        <time>2018-03-18T10:41:23.000Z</time>
      </trkpt>
      <trkpt lat="43.02486" lon="0.54635">
        <ele>533</ele>
        <time>2018-03-18T10:41:25.000Z</time>
      </trkpt>
      <trkpt lat="43.02484" lon="0.54633">
        <ele>534</ele>
        <time>2018-03-18T10:41:27.000Z</time>
      </trkpt>
      <trkpt lat="43.02482" lon="0.54631">
        <ele>534</ele>
        <time>2018-03-18T10:41:29.000Z</time>
      </trkpt>
      <trkpt lat="43.02481" lon="0.54629">
        <ele>533</ele>
        <time>2018-03-18T10:41:31.000Z</time>
      </trkpt>
      <trkpt lat="43.02479" lon="0.54626">
        <ele>533</ele>
        <time>2018-03-18T10:41:33.000Z</time>
      </trkpt>
      <trkpt lat="43.02477" lon="0.54623">
        <ele>533</ele>
        <time>2018-03-18T10:41:35.000Z</time>
      </trkpt>
      <trkpt lat="43.02476" lon="0.54621">
        <ele>533</ele>
        <time>2018-03-18T10:41:37.000Z</time>
      </trkpt>
      <trkpt lat="43.02474" lon="0.54619">
        <ele>533</ele>
        <time>2018-03-18T10:41:39.000Z</time>
      </trkpt>
      <trkpt lat="43.02472" lon="0.54616">
        <ele>533</ele>
        <time>2018-03-18T10:41:41.000Z</time>
      </trkpt>
      <trkpt lat="43.02471" lon="0.54614">
        <ele>533</ele>
        <time>2018-03-18T10:41:43.000Z</time>
      </trkpt>
      <trkpt lat="43.0247" lon="0.54611">
        <ele>532</ele>
        <time>2018-03-18T10:41:45.000Z</time>
      </trkpt>
      <trkpt lat="43.02469" lon="0.54609">
        <ele>532</ele>
        <time>2018-03-18T10:41:47.000Z</time>
      </trkpt>
      <trkpt lat="43.02469" lon="0.54606">
        <ele>532</ele>
        <time>2018-03-18T10:41:49.000Z</time>
      </trkpt>
      <trkpt lat="43.02469" lon="0.54604">
        <ele>531</ele>
        <time>2018-03-18T10:41:51.000Z</time>
      </trkpt>
      <trkpt lat="43.02469" lon="0.54602">
        <ele>530</ele>
        <time>2018-03-18T10:41:53.000Z</time>
      </trkpt>
      <trkpt lat="43.02469" lon="0.54599">
        <ele>530</ele>
        <time>2018-03-18T10:41:55.000Z</time>
      </trkpt>
      <trkpt lat="43.02469" lon="0.54597">
        <ele>529</ele>
        <time>2018-03-18T10:41:57.000Z</time>
      </trkpt>
      <trkpt lat="43.02469" lon="0.54595">
        <ele>529</ele>
        <time>2018-03-18T10:41:59.000Z</time>
      </trkpt>
      <trkpt lat="43.02468" lon="0.54593">
        <ele>529</ele>
        <time>2018-03-18T10:42:01.000Z</time>
      </trkpt>
      <trkpt lat="43.02468" lon="0.54591">
        <ele>529</ele>
        <time>2018-03-18T10:42:03.000Z</time>
      </trkpt>
      <trkpt lat="43.02467" lon="0.54588">
        <ele>528</ele>
        <time>2018-03-18T10:42:05.000Z</time>
      </trkpt>
      <trkpt lat="43.02466" lon="0.54586">
        <ele>528</ele>
        <time>2018-03-18T10:42:07.000Z</time>
      </trkpt>
      <trkpt lat="43.02464" lon="0.54583">
        <ele>528</ele>
        <time>2018-03-18T10:42:09.000Z</time>
      </trkpt>
      <trkpt lat="43.02464" lon="0.5458">
        <ele>528</ele>
        <time>2018-03-18T10:42:11.000Z</time>
      </trkpt>
      <trkpt lat="43.02464" lon="0.54576">
        <ele>527</ele>
        <time>2018-03-18T10:42:13.000Z</time>
      </trkpt>
      <trkpt lat="43.02463" lon="0.54573">
        <ele>527</ele>
        <time>2018-03-18T10:42:15.000Z</time>
      </trkpt>
      <trkpt lat="43.02463" lon="0.5457">
        <ele>527</ele>
        <time>2018-03-18T10:42:17.000Z</time>
      </trkpt>
      <trkpt lat="43.02463" lon="0.54567">
        <ele>526</ele>
        <time>2018-03-18T10:42:19.000Z</time>
      </trkpt>
      <trkpt lat="43.02463" lon="0.54564">
        <ele>526</ele>
        <time>2018-03-18T10:42:21.000Z</time>
      </trkpt>
      <trkpt lat="43.02463" lon="0.54561">
        <ele>526</ele>
        <time>2018-03-18T10:42:23.000Z</time>
      </trkpt>
      <trkpt lat="43.02463" lon="0.54559">
        <ele>525</ele>
        <time>2018-03-18T10:42:25.000Z</time>
      </trkpt>
      <trkpt lat="43.02462" lon="0.54557">
        <ele>525</ele>
        <time>2018-03-18T10:42:27.000Z</time>
      </trkpt>
      <trkpt lat="43.02461" lon="0.54554">
        <ele>525</ele>
        <time>2018-03-18T10:42:29.000Z</time>
      </trkpt>
      <trkpt lat="43.02461" lon="0.54552">
        <ele>525</ele>
        <time>2018-03-18T10:42:31.000Z</time>
      </trkpt>
      <trkpt lat="43.02461" lon="0.54549">
        <ele>524</ele>
        <time>2018-03-18T10:42:33.000Z</time>
      </trkpt>
      <trkpt lat="43.0246" lon="0.54547">
        <ele>524</ele>
        <time>2018-03-18T10:42:35.000Z</time>
      </trkpt>
      <trkpt lat="43.0246" lon="0.54544">
        <ele>524</ele>
        <time>2018-03-18T10:42:37.000Z</time>
      </trkpt>
      <trkpt lat="43.02459" lon="0.54541">
        <ele>524</ele>
        <time>2018-03-18T10:42:39.000Z</time>
      </trkpt>
      <trkpt lat="43.02458" lon="0.54538">
        <ele>523</ele>
        <time>2018-03-18T10:42:41.000Z</time>
      </trkpt>
      <trkpt lat="43.02457" lon="0.54535">
        <ele>523</ele>
        <time>2018-03-18T10:42:43.000Z</time>
      </trkpt>
      <trkpt lat="43.02457" lon="0.54532">
        <ele>523</ele>
        <time>2018-03-18T10:42:45.000Z</time>
      </trkpt>
      <trkpt lat="43.02457" lon="0.5453">
        <ele>522</ele>
        <time>2018-03-18T10:42:47.000Z</time>
      </trkpt>
      <trkpt lat="43.02457" lon="0.54527">
        <ele>522</ele>
        <time>2018-03-18T10:42:49.000Z</time>
      </trkpt>
      <trkpt lat="43.02457" lon="0.54523">
        <ele>521</ele>
        <time>2018-03-18T10:42:51.000Z</time>
      </trkpt>
      <trkpt lat="43.02457" lon="0.54521">
        <ele>521</ele>
        <time>2018-03-18T10:42:53.000Z</time>
      </trkpt>
      <trkpt lat="43.02456" lon="0.54519">
        <ele>521</ele>
        <time>2018-03-18T10:42:55.000Z</time>
      </trkpt>
      <trkpt lat="43.02456" lon="0.54516">
        <ele>520</ele>
        <time>2018-03-18T10:42:57.000Z</time>
      </trkpt>
      <trkpt lat="43.02456" lon="0.54513">
        <ele>520</ele>
        <time>2018-03-18T10:42:59.000Z</time>
      </trkpt>
      <trkpt lat="43.02455" lon="0.54511">
        <ele>520</ele>
        <time>2018-03-18T10:43:01.000Z</time>
      </trkpt>
      <trkpt lat="43.02454" lon="0.54508">
        <ele>520</ele>
        <time>2018-03-18T10:43:03.000Z</time>
      </trkpt>
      <trkpt lat="43.02453" lon="0.54506">
        <ele>520</ele>
        <time>2018-03-18T10:43:05.000Z</time>
      </trkpt>
      <trkpt lat="43.02452" lon="0.54503">
        <ele>519</ele>
        <time>2018-03-18T10:43:07.000Z</time>
      </trkpt>
      <trkpt lat="43.02451" lon="0.54501">
        <ele>519</ele>
        <time>2018-03-18T10:43:09.000Z</time>
      </trkpt>
      <trkpt lat="43.02451" lon="0.54498">
        <ele>519</ele>
        <time>2018-03-18T10:43:11.000Z</time>
      </trkpt>
      <trkpt lat="43.0245" lon="0.54496">
        <ele>519</ele>
        <time>2018-03-18T10:43:13.000Z</time>
      </trkpt>
      <trkpt lat="43.02449" lon="0.54495">
        <ele>519</ele>
        <time>2018-03-18T10:43:15.000Z</time>
      </trkpt>
      <trkpt lat="43.02448" lon="0.54493">
        <ele>519</ele>
        <time>2018-03-18T10:43:17.000Z</time>
      </trkpt>
      <trkpt lat="43.02447" lon="0.54491">
        <ele>519</ele>
        <time>2018-03-18T10:43:19.000Z</time>
      </trkpt>
      <trkpt lat="43.02445" lon="0.54489">
        <ele>519</ele>
        <time>2018-03-18T10:43:21.000Z</time>
      </trkpt>
      <trkpt lat="43.02444" lon="0.54487">
        <ele>519</ele>
        <time>2018-03-18T10:43:23.000Z</time>
      </trkpt>
      <trkpt lat="43.02443" lon="0.54485">
        <ele>518</ele>
        <time>2018-03-18T10:43:25.000Z</time>
      </trkpt>
      <trkpt lat="43.02441" lon="0.54483">
        <ele>518</ele>
        <time>2018-03-18T10:43:27.000Z</time>
      </trkpt>
      <trkpt lat="43.02439" lon="0.54481">
        <ele>519</ele>
        <time>2018-03-18T10:43:29.000Z</time>
      </trkpt>
      <trkpt lat="43.02438" lon="0.54479">
        <ele>519</ele>
        <time>2018-03-18T10:43:31.000Z</time>
      </trkpt>
      <trkpt lat="43.02437" lon="0.54477">
        <ele>519</ele>
        <time>2018-03-18T10:43:33.000Z</time>
      </trkpt>
      <trkpt lat="43.02436" lon="0.54474">
        <ele>519</ele>
        <time>2018-03-18T10:43:35.000Z</time>
      </trkpt>
      <trkpt lat="43.02434" lon="0.54473">
        <ele>519</ele>
        <time>2018-03-18T10:43:37.000Z</time>
      </trkpt>
      <trkpt lat="43.02433" lon="0.54471">
        <ele>519</ele>
        <time>2018-03-18T10:43:39.000Z</time>
      </trkpt>
      <trkpt lat="43.02431" lon="0.5447">
        <ele>519</ele>
        <time>2018-03-18T10:43:41.000Z</time>
      </trkpt>
      <trkpt lat="43.0243" lon="0.54467">
        <ele>519</ele>
        <time>2018-03-18T10:43:43.000Z</time>
      </trkpt>
      <trkpt lat="43.02428" lon="0.54464">
        <ele>519</ele>
        <time>2018-03-18T10:43:45.000Z</time>
      </trkpt>
      <trkpt lat="43.02426" lon="0.54462">
        <ele>519</ele>
        <time>2018-03-18T10:43:47.000Z</time>
      </trkpt>
      <trkpt lat="43.02424" lon="0.5446">
        <ele>519</ele>
        <time>2018-03-18T10:43:49.000Z</time>
      </trkpt>
      <trkpt lat="43.02423" lon="0.54459">
        <ele>519</ele>
        <time>2018-03-18T10:43:51.000Z</time>
      </trkpt>
      <trkpt lat="43.02421" lon="0.54456">
        <ele>519</ele>
        <time>2018-03-18T10:43:53.000Z</time>
      </trkpt>
      <trkpt lat="43.0242" lon="0.54454">
        <ele>519</ele>
        <time>2018-03-18T10:43:55.000Z</time>
      </trkpt>
      <trkpt lat="43.02418" lon="0.54452">
        <ele>519</ele>
        <time>2018-03-18T10:43:57.000Z</time>
      </trkpt>
      <trkpt lat="43.02418" lon="0.54449">
        <ele>519</ele>
        <time>2018-03-18T10:43:59.000Z</time>
      </trkpt>
      <trkpt lat="43.02418" lon="0.54447">
        <ele>519</ele>
        <time>2018-03-18T10:44:01.000Z</time>
      </trkpt>
      <trkpt lat="43.02418" lon="0.54446">
        <ele>519</ele>
        <time>2018-03-18T10:44:03.000Z</time>
      </trkpt>
      <trkpt lat="43.02419" lon="0.54444">
        <ele>519</ele>
        <time>2018-03-18T10:44:05.000Z</time>
      </trkpt>
      <trkpt lat="43.0242" lon="0.54442">
        <ele>519</ele>
        <time>2018-03-18T10:44:07.000Z</time>
      </trkpt>
      <trkpt lat="43.0242" lon="0.54441">
        <ele>519</ele>
        <time>2018-03-18T10:44:09.000Z</time>
      </trkpt>
      <trkpt lat="43.0242" lon="0.54441">
        <ele>519</ele>
        <time>2018-03-18T10:44:11.000Z</time>
      </trkpt>
      <trkpt lat="43.0242" lon="0.54442">
        <ele>519</ele>
        <time>2018-03-18T10:44:13.000Z</time>
      </trkpt>
      <trkpt lat="43.02419" lon="0.54442">
        <ele>519</ele>
        <time>2018-03-18T10:44:15.000Z</time>
      </trkpt>
      <trkpt lat="43.02419" lon="0.54442">
        <ele>519</ele>
        <time>2018-03-18T10:44:17.000Z</time>
      </trkpt>
      <trkpt lat="43.02418" lon="0.54444">
        <ele>519</ele>
        <time>2018-03-18T10:44:19.000Z</time>
      </trkpt>
      <trkpt lat="43.02418" lon="0.54445">
        <ele>519</ele>
        <time>2018-03-18T10:44:21.000Z</time>
      </trkpt>
      <trkpt lat="43.02417" lon="0.54446">
        <ele>519</ele>
        <time>2018-03-18T10:44:23.000Z</time>
      </trkpt>
      <trkpt lat="43.02416" lon="0.54446">
        <ele>519</ele>
        <time>2018-03-18T10:44:25.000Z</time>
      </trkpt>
      <trkpt lat="43.02415" lon="0.54446">
        <ele>519</ele>
        <time>2018-03-18T10:44:27.000Z</time>
      </trkpt>
      <trkpt lat="43.02413" lon="0.54446">
        <ele>519</ele>
        <time>2018-03-18T10:44:29.000Z</time>
      </trkpt>
      <trkpt lat="43.0241" lon="0.54445">
        <ele>519</ele>
        <time>2018-03-18T10:44:31.000Z</time>
      </trkpt>
      <trkpt lat="43.02408" lon="0.54444">
        <ele>519</ele>
        <time>2018-03-18T10:44:33.000Z</time>
      </trkpt>
      <trkpt lat="43.02406" lon="0.54443">
        <ele>519</ele>
        <time>2018-03-18T10:44:35.000Z</time>
      </trkpt>
      <trkpt lat="43.02404" lon="0.54441">
        <ele>519</ele>
        <time>2018-03-18T10:44:37.000Z</time>
      </trkpt>
      <trkpt lat="43.02402" lon="0.5444">
        <ele>519</ele>
        <time>2018-03-18T10:44:39.000Z</time>
      </trkpt>
      <trkpt lat="43.024" lon="0.54439">
        <ele>519</ele>
        <time>2018-03-18T10:44:41.000Z</time>
      </trkpt>
      <trkpt lat="43.02399" lon="0.54437">
        <ele>519</ele>
        <time>2018-03-18T10:44:43.000Z</time>
      </trkpt>
      <trkpt lat="43.02397" lon="0.54436">
        <ele>519</ele>
        <time>2018-03-18T10:44:45.000Z</time>
      </trkpt>
      <trkpt lat="43.02396" lon="0.54435">
        <ele>519</ele>
        <time>2018-03-18T10:44:47.000Z</time>
      </trkpt>
      <trkpt lat="43.02394" lon="0.54433">
        <ele>519</ele>
        <time>2018-03-18T10:44:49.000Z</time>
      </trkpt>
      <trkpt lat="43.02394" lon="0.54432">
        <ele>519</ele>
        <time>2018-03-18T10:44:51.000Z</time>
      </trkpt>
      <trkpt lat="43.02392" lon="0.54431">
        <ele>519</ele>
        <time>2018-03-18T10:44:53.000Z</time>
      </trkpt>
      <trkpt lat="43.02389" lon="0.5443">
        <ele>519</ele>
        <time>2018-03-18T10:44:55.000Z</time>
      </trkpt>
      <trkpt lat="43.02387" lon="0.54428">
        <ele>519</ele>
        <time>2018-03-18T10:44:57.000Z</time>
      </trkpt>
      <trkpt lat="43.02385" lon="0.54428">
        <ele>520</ele>
        <time>2018-03-18T10:44:59.000Z</time>
      </trkpt>
      <trkpt lat="43.02383" lon="0.54427">
        <ele>520</ele>
        <time>2018-03-18T10:45:01.000Z</time>
      </trkpt>
      <trkpt lat="43.02381" lon="0.54426">
        <ele>520</ele>
        <time>2018-03-18T10:45:03.000Z</time>
      </trkpt>
      <trkpt lat="43.02379" lon="0.54424">
        <ele>520</ele>
        <time>2018-03-18T10:45:05.000Z</time>
      </trkpt>
      <trkpt lat="43.02377" lon="0.54424">
        <ele>520</ele>
        <time>2018-03-18T10:45:07.000Z</time>
      </trkpt>
      <trkpt lat="43.02375" lon="0.54422">
        <ele>520</ele>
        <time>2018-03-18T10:45:09.000Z</time>
      </trkpt>
      <trkpt lat="43.02373" lon="0.54422">
        <ele>520</ele>
        <time>2018-03-18T10:45:11.000Z</time>
      </trkpt>
      <trkpt lat="43.02371" lon="0.5442">
        <ele>520</ele>
        <time>2018-03-18T10:45:13.000Z</time>
      </trkpt>
      <trkpt lat="43.0237" lon="0.54418">
        <ele>520</ele>
        <time>2018-03-18T10:45:15.000Z</time>
      </trkpt>
      <trkpt lat="43.02368" lon="0.54417">
        <ele>520</ele>
        <time>2018-03-18T10:45:17.000Z</time>
      </trkpt>
      <trkpt lat="43.02366" lon="0.54416">
        <ele>520</ele>
        <time>2018-03-18T10:45:19.000Z</time>
      </trkpt>
      <trkpt lat="43.02365" lon="0.54415">
        <ele>520</ele>
        <time>2018-03-18T10:45:21.000Z</time>
      </trkpt>
      <trkpt lat="43.02363" lon="0.54414">
        <ele>521</ele>
        <time>2018-03-18T10:45:23.000Z</time>
      </trkpt>
      <trkpt lat="43.02362" lon="0.54414">
        <ele>521</ele>
        <time>2018-03-18T10:45:25.000Z</time>
      </trkpt>
      <trkpt lat="43.0236" lon="0.54414">
        <ele>521</ele>
        <time>2018-03-18T10:45:27.000Z</time>
      </trkpt>
      <trkpt lat="43.02358" lon="0.54414">
        <ele>521</ele>
        <time>2018-03-18T10:45:29.000Z</time>
      </trkpt>
      <trkpt lat="43.02357" lon="0.54414">
        <ele>521</ele>
        <time>2018-03-18T10:45:31.000Z</time>
      </trkpt>
      <trkpt lat="43.02355" lon="0.54413">
        <ele>521</ele>
        <time>2018-03-18T10:45:33.000Z</time>
      </trkpt>
      <trkpt lat="43.02352" lon="0.54413">
        <ele>522</ele>
        <time>2018-03-18T10:45:35.000Z</time>
      </trkpt>
      <trkpt lat="43.0235" lon="0.54414">
        <ele>522</ele>
        <time>2018-03-18T10:45:37.000Z</time>
      </trkpt>
      <trkpt lat="43.02347" lon="0.54414">
        <ele>522</ele>
        <time>2018-03-18T10:45:39.000Z</time>
      </trkpt>
      <trkpt lat="43.02345" lon="0.54414">
        <ele>523</ele>
        <time>2018-03-18T10:45:41.000Z</time>
      </trkpt>
      <trkpt lat="43.02343" lon="0.54414">
        <ele>523</ele>
        <time>2018-03-18T10:45:43.000Z</time>
      </trkpt>
      <trkpt lat="43.0234" lon="0.54414">
        <ele>523</ele>
        <time>2018-03-18T10:45:45.000Z</time>
      </trkpt>
      <trkpt lat="43.02338" lon="0.54413">
        <ele>523</ele>
        <time>2018-03-18T10:45:47.000Z</time>
      </trkpt>
      <trkpt lat="43.02336" lon="0.54412">
        <ele>524</ele>
        <time>2018-03-18T10:45:49.000Z</time>
      </trkpt>
      <trkpt lat="43.02334" lon="0.54411">
        <ele>524</ele>
        <time>2018-03-18T10:45:51.000Z</time>
      </trkpt>
      <trkpt lat="43.02332" lon="0.5441">
        <ele>524</ele>
        <time>2018-03-18T10:45:53.000Z</time>
      </trkpt>
      <trkpt lat="43.0233" lon="0.5441">
        <ele>524</ele>
        <time>2018-03-18T10:45:55.000Z</time>
      </trkpt>
      <trkpt lat="43.02328" lon="0.54409">
        <ele>524</ele>
        <time>2018-03-18T10:45:57.000Z</time>
      </trkpt>
      <trkpt lat="43.02326" lon="0.54408">
        <ele>525</ele>
        <time>2018-03-18T10:45:59.000Z</time>
      </trkpt>
      <trkpt lat="43.02324" lon="0.54407">
        <ele>525</ele>
        <time>2018-03-18T10:46:01.000Z</time>
      </trkpt>
      <trkpt lat="43.02322" lon="0.54404">
        <ele>525</ele>
        <time>2018-03-18T10:46:03.000Z</time>
      </trkpt>
      <trkpt lat="43.0232" lon="0.54403">
        <ele>525</ele>
        <time>2018-03-18T10:46:05.000Z</time>
      </trkpt>
      <trkpt lat="43.02319" lon="0.54402">
        <ele>525</ele>
        <time>2018-03-18T10:46:07.000Z</time>
      </trkpt>
      <trkpt lat="43.02316" lon="0.54401">
        <ele>525</ele>
        <time>2018-03-18T10:46:09.000Z</time>
      </trkpt>
      <trkpt lat="43.02314" lon="0.54401">
        <ele>526</ele>
        <time>2018-03-18T10:46:11.000Z</time>
      </trkpt>
      <trkpt lat="43.02312" lon="0.54399">
        <ele>526</ele>
        <time>2018-03-18T10:46:13.000Z</time>
      </trkpt>
      <trkpt lat="43.02311" lon="0.54398">
        <ele>526</ele>
        <time>2018-03-18T10:46:15.000Z</time>
      </trkpt>
      <trkpt lat="43.02309" lon="0.54396">
        <ele>526</ele>
        <time>2018-03-18T10:46:17.000Z</time>
      </trkpt>
      <trkpt lat="43.02307" lon="0.54395">
        <ele>526</ele>
        <time>2018-03-18T10:46:19.000Z</time>
      </trkpt>
      <trkpt lat="43.02305" lon="0.54393">
        <ele>526</ele>
        <time>2018-03-18T10:46:21.000Z</time>
      </trkpt>
      <trkpt lat="43.02303" lon="0.54391">
        <ele>526</ele>
        <time>2018-03-18T10:46:23.000Z</time>
      </trkpt>
      <trkpt lat="43.02302" lon="0.54389">
        <ele>526</ele>
        <time>2018-03-18T10:46:25.000Z</time>
      </trkpt>
      <trkpt lat="43.023" lon="0.54386">
        <ele>526</ele>
        <time>2018-03-18T10:46:27.000Z</time>
      </trkpt>
      <trkpt lat="43.02299" lon="0.54384">
        <ele>526</ele>
        <time>2018-03-18T10:46:29.000Z</time>
      </trkpt>
      <trkpt lat="43.02297" lon="0.54382">
        <ele>526</ele>
        <time>2018-03-18T10:46:31.000Z</time>
      </trkpt>
      <trkpt lat="43.02295" lon="0.54381">
        <ele>526</ele>
        <time>2018-03-18T10:46:33.000Z</time>
      </trkpt>
      <trkpt lat="43.02293" lon="0.5438">
        <ele>527</ele>
        <time>2018-03-18T10:46:35.000Z</time>
      </trkpt>
      <trkpt lat="43.02291" lon="0.54378">
        <ele>527</ele>
        <time>2018-03-18T10:46:37.000Z</time>
      </trkpt>
      <trkpt lat="43.02289" lon="0.54376">
        <ele>527</ele>
        <time>2018-03-18T10:46:39.000Z</time>
      </trkpt>
      <trkpt lat="43.02288" lon="0.54375">
        <ele>527</ele>
        <time>2018-03-18T10:46:41.000Z</time>
      </trkpt>
      <trkpt lat="43.02285" lon="0.54373">
        <ele>527</ele>
        <time>2018-03-18T10:46:43.000Z</time>
      </trkpt>
      <trkpt lat="43.02283" lon="0.54372">
        <ele>527</ele>
        <time>2018-03-18T10:46:45.000Z</time>
      </trkpt>
      <trkpt lat="43.02281" lon="0.54371">
        <ele>527</ele>
        <time>2018-03-18T10:46:47.000Z</time>
      </trkpt>
      <trkpt lat="43.02279" lon="0.54369">
        <ele>528</ele>
        <time>2018-03-18T10:46:49.000Z</time>
      </trkpt>
      <trkpt lat="43.02277" lon="0.54369">
        <ele>528</ele>
        <time>2018-03-18T10:46:51.000Z</time>
      </trkpt>
      <trkpt lat="43.02275" lon="0.54367">
        <ele>528</ele>
        <time>2018-03-18T10:46:53.000Z</time>
      </trkpt>
      <trkpt lat="43.02274" lon="0.54366">
        <ele>528</ele>
        <time>2018-03-18T10:46:55.000Z</time>
      </trkpt>
      <trkpt lat="43.02273" lon="0.54364">
        <ele>528</ele>
        <time>2018-03-18T10:46:57.000Z</time>
      </trkpt>
      <trkpt lat="43.02273" lon="0.54361">
        <ele>527</ele>
        <time>2018-03-18T10:46:59.000Z</time>
      </trkpt>
      <trkpt lat="43.02273" lon="0.54357">
        <ele>527</ele>
        <time>2018-03-18T10:47:01.000Z</time>
      </trkpt>
      <trkpt lat="43.02273" lon="0.54353">
        <ele>527</ele>
        <time>2018-03-18T10:47:03.000Z</time>
      </trkpt>
      <trkpt lat="43.02273" lon="0.54349">
        <ele>526</ele>
        <time>2018-03-18T10:47:05.000Z</time>
      </trkpt>
      <trkpt lat="43.02273" lon="0.54345">
        <ele>526</ele>
        <time>2018-03-18T10:47:07.000Z</time>
      </trkpt>
      <trkpt lat="43.02273" lon="0.54342">
        <ele>525</ele>
        <time>2018-03-18T10:47:09.000Z</time>
      </trkpt>
      <trkpt lat="43.02273" lon="0.5434">
        <ele>525</ele>
        <time>2018-03-18T10:47:11.000Z</time>
      </trkpt>
      <trkpt lat="43.02273" lon="0.54338">
        <ele>525</ele>
        <time>2018-03-18T10:47:13.000Z</time>
      </trkpt>
      <trkpt lat="43.02273" lon="0.54335">
        <ele>525</ele>
        <time>2018-03-18T10:47:15.000Z</time>
      </trkpt>
      <trkpt lat="43.02273" lon="0.54334">
        <ele>524</ele>
        <time>2018-03-18T10:47:17.000Z</time>
      </trkpt>
      <trkpt lat="43.02273" lon="0.54332">
        <ele>524</ele>
        <time>2018-03-18T10:47:19.000Z</time>
      </trkpt>
      <trkpt lat="43.02274" lon="0.54331">
        <ele>524</ele>
        <time>2018-03-18T10:47:21.000Z</time>
      </trkpt>
      <trkpt lat="43.02273" lon="0.54328">
        <ele>524</ele>
        <time>2018-03-18T10:47:23.000Z</time>
      </trkpt>
      <trkpt lat="43.02273" lon="0.54327">
        <ele>524</ele>
        <time>2018-03-18T10:47:25.000Z</time>
      </trkpt>
      <trkpt lat="43.02273" lon="0.54327">
        <ele>524</ele>
        <time>2018-03-18T10:47:27.000Z</time>
      </trkpt>
      <trkpt lat="43.02274" lon="0.54327">
        <ele>524</ele>
        <time>2018-03-18T10:47:29.000Z</time>
      </trkpt>
      <trkpt lat="43.02274" lon="0.54326">
        <ele>524</ele>
        <time>2018-03-18T10:47:31.000Z</time>
      </trkpt>
      <trkpt lat="43.02274" lon="0.54326">
        <ele>523</ele>
        <time>2018-03-18T10:47:33.000Z</time>
      </trkpt>
      <trkpt lat="43.02274" lon="0.54325">
        <ele>523</ele>
        <time>2018-03-18T10:47:35.000Z</time>
      </trkpt>
      <trkpt lat="43.02275" lon="0.54324">
        <ele>523</ele>
        <time>2018-03-18T10:47:37.000Z</time>
      </trkpt>
      <trkpt lat="43.02275" lon="0.54323">
        <ele>523</ele>
        <time>2018-03-18T10:47:39.000Z</time>
      </trkpt>
      <trkpt lat="43.02275" lon="0.54323">
        <ele>523</ele>
        <time>2018-03-18T10:47:41.000Z</time>
      </trkpt>
      <trkpt lat="43.02275" lon="0.54322">
        <ele>523</ele>
        <time>2018-03-18T10:47:43.000Z</time>
      </trkpt>
      <trkpt lat="43.02275" lon="0.54321">
        <ele>523</ele>
        <time>2018-03-18T10:47:45.000Z</time>
      </trkpt>
      <trkpt lat="43.02277" lon="0.5432">
        <ele>523</ele>
        <time>2018-03-18T10:47:47.000Z</time>
      </trkpt>
      <trkpt lat="43.02278" lon="0.54322">
        <ele>523</ele>
        <time>2018-03-18T10:47:49.000Z</time>
      </trkpt>
      <trkpt lat="43.02279" lon="0.54322">
        <ele>522</ele>
        <time>2018-03-18T10:47:51.000Z</time>
      </trkpt>
      <trkpt lat="43.02279" lon="0.54323">
        <ele>523</ele>
        <time>2018-03-18T10:47:53.000Z</time>
      </trkpt>
      <trkpt lat="43.02279" lon="0.54323">
        <ele>522</ele>
        <time>2018-03-18T10:47:55.000Z</time>
      </trkpt>
      <trkpt lat="43.0228" lon="0.54324">
        <ele>522</ele>
        <time>2018-03-18T10:47:57.000Z</time>
      </trkpt>
      <trkpt lat="43.02281" lon="0.54324">
        <ele>522</ele>
        <time>2018-03-18T10:47:59.000Z</time>
      </trkpt>
      <trkpt lat="43.02281" lon="0.54324">
        <ele>522</ele>
        <time>2018-03-18T10:48:01.000Z</time>
      </trkpt>
      <trkpt lat="43.02281" lon="0.54325">
        <ele>522</ele>
        <time>2018-03-18T10:48:03.000Z</time>
      </trkpt>
      <trkpt lat="43.02281" lon="0.54327">
        <ele>523</ele>
        <time>2018-03-18T10:48:05.000Z</time>
      </trkpt>
      <trkpt lat="43.02281" lon="0.54327">
        <ele>523</ele>
        <time>2018-03-18T10:48:07.000Z</time>
      </trkpt>
      <trkpt lat="43.02281" lon="0.54328">
        <ele>523</ele>
        <time>2018-03-18T10:48:09.000Z</time>
      </trkpt>
      <trkpt lat="43.02281" lon="0.54328">
        <ele>523</ele>
        <time>2018-03-18T10:48:11.000Z</time>
      </trkpt>
      <trkpt lat="43.02281" lon="0.54329">
        <ele>523</ele>
        <time>2018-03-18T10:48:13.000Z</time>
      </trkpt>
      <trkpt lat="43.02281" lon="0.5433">
        <ele>523</ele>
        <time>2018-03-18T10:48:15.000Z</time>
      </trkpt>
      <trkpt lat="43.0228" lon="0.5433">
        <ele>523</ele>
        <time>2018-03-18T10:48:17.000Z</time>
      </trkpt>
      <trkpt lat="43.0228" lon="0.5433">
        <ele>523</ele>
        <time>2018-03-18T10:48:19.000Z</time>
      </trkpt>
      <trkpt lat="43.0228" lon="0.5433">
        <ele>523</ele>
        <time>2018-03-18T10:48:21.000Z</time>
      </trkpt>
      <trkpt lat="43.0228" lon="0.5433">
        <ele>523</ele>
        <time>2018-03-18T10:48:23.000Z</time>
      </trkpt>
      <trkpt lat="43.0228" lon="0.5433">
        <ele>523</ele>
        <time>2018-03-18T10:48:25.000Z</time>
      </trkpt>
      <trkpt lat="43.0228" lon="0.54331">
        <ele>523</ele>
        <time>2018-03-18T10:48:27.000Z</time>
      </trkpt>
      <trkpt lat="43.0228" lon="0.54331">
        <ele>523</ele>
        <time>2018-03-18T10:48:29.000Z</time>
      </trkpt>
      <trkpt lat="43.02279" lon="0.5433">
        <ele>523</ele>
        <time>2018-03-18T10:48:31.000Z</time>
      </trkpt>
      <trkpt lat="43.02279" lon="0.5433">
        <ele>523</ele>
        <time>2018-03-18T10:48:33.000Z</time>
      </trkpt>
      <trkpt lat="43.02278" lon="0.5433">
        <ele>523</ele>
        <time>2018-03-18T10:48:35.000Z</time>
      </trkpt>
      <trkpt lat="43.02277" lon="0.5433">
        <ele>523</ele>
        <time>2018-03-18T10:48:37.000Z</time>
      </trkpt>
      <trkpt lat="43.02278" lon="0.5433">
        <ele>523</ele>
        <time>2018-03-18T10:48:39.000Z</time>
      </trkpt>
      <trkpt lat="43.02278" lon="0.54329">
        <ele>523</ele>
        <time>2018-03-18T10:48:41.000Z</time>
      </trkpt>
      <trkpt lat="43.02279" lon="0.54328">
        <ele>523</ele>
        <time>2018-03-18T10:48:43.000Z</time>
      </trkpt>
      <trkpt lat="43.0228" lon="0.54327">
        <ele>523</ele>
        <time>2018-03-18T10:48:45.000Z</time>
      </trkpt>
      <trkpt lat="43.0228" lon="0.54327">
        <ele>523</ele>
        <time>2018-03-18T10:48:47.000Z</time>
      </trkpt>
      <trkpt lat="43.02281" lon="0.54327">
        <ele>523</ele>
        <time>2018-03-18T10:48:49.000Z</time>
      </trkpt>
      <trkpt lat="43.02281" lon="0.54327">
        <ele>523</ele>
        <time>2018-03-18T10:48:51.000Z</time>
      </trkpt>
      <trkpt lat="43.02282" lon="0.54327">
        <ele>522</ele>
        <time>2018-03-18T10:48:53.000Z</time>
      </trkpt>
      <trkpt lat="43.02283" lon="0.54327">
        <ele>522</ele>
        <time>2018-03-18T10:48:55.000Z</time>
      </trkpt>
      <trkpt lat="43.02283" lon="0.54327">
        <ele>522</ele>
        <time>2018-03-18T10:48:57.000Z</time>
      </trkpt>
      <trkpt lat="43.02283" lon="0.54326">
        <ele>522</ele>
        <time>2018-03-18T10:48:59.000Z</time>
      </trkpt>
      <trkpt lat="43.02283" lon="0.54326">
        <ele>522</ele>
        <time>2018-03-18T10:49:01.000Z</time>
      </trkpt>
      <trkpt lat="43.02284" lon="0.54326">
        <ele>522</ele>
        <time>2018-03-18T10:49:03.000Z</time>
      </trkpt>
      <trkpt lat="43.02285" lon="0.54326">
        <ele>522</ele>
        <time>2018-03-18T10:49:05.000Z</time>
      </trkpt>
      <trkpt lat="43.02284" lon="0.54326">
        <ele>522</ele>
        <time>2018-03-18T10:49:07.000Z</time>
      </trkpt>
      <trkpt lat="43.02284" lon="0.54327">
        <ele>522</ele>
        <time>2018-03-18T10:49:09.000Z</time>
      </trkpt>
      <trkpt lat="43.02284" lon="0.54327">
        <ele>522</ele>
        <time>2018-03-18T10:49:11.000Z</time>
      </trkpt>
      <trkpt lat="43.02284" lon="0.54328">
        <ele>522</ele>
        <time>2018-03-18T10:49:13.000Z</time>
      </trkpt>
      <trkpt lat="43.02285" lon="0.54327">
        <ele>522</ele>
        <time>2018-03-18T10:49:15.000Z</time>
      </trkpt>
      <trkpt lat="43.02285" lon="0.54327">
        <ele>522</ele>
        <time>2018-03-18T10:49:17.000Z</time>
      </trkpt>
      <trkpt lat="43.02287" lon="0.54327">
        <ele>522</ele>
        <time>2018-03-18T10:49:19.000Z</time>
      </trkpt>
      <trkpt lat="43.02288" lon="0.54327">
        <ele>522</ele>
        <time>2018-03-18T10:49:21.000Z</time>
      </trkpt>
      <trkpt lat="43.02289" lon="0.54327">
        <ele>522</ele>
        <time>2018-03-18T10:49:23.000Z</time>
      </trkpt>
      <trkpt lat="43.0229" lon="0.54327">
        <ele>522</ele>
        <time>2018-03-18T10:49:25.000Z</time>
      </trkpt>
      <trkpt lat="43.02292" lon="0.54326">
        <ele>522</ele>
        <time>2018-03-18T10:49:27.000Z</time>
      </trkpt>
      <trkpt lat="43.02293" lon="0.54326">
        <ele>522</ele>
        <time>2018-03-18T10:49:29.000Z</time>
      </trkpt>
      <trkpt lat="43.02294" lon="0.54325">
        <ele>523</ele>
        <time>2018-03-18T10:49:31.000Z</time>
      </trkpt>
      <trkpt lat="43.02296" lon="0.54325">
        <ele>523</ele>
        <time>2018-03-18T10:49:33.000Z</time>
      </trkpt>
      <trkpt lat="43.02297" lon="0.54325">
        <ele>523</ele>
        <time>2018-03-18T10:49:35.000Z</time>
      </trkpt>
      <trkpt lat="43.02298" lon="0.54324">
        <ele>523</ele>
        <time>2018-03-18T10:49:37.000Z</time>
      </trkpt>
      <trkpt lat="43.02299" lon="0.54324">
        <ele>523</ele>
        <time>2018-03-18T10:49:39.000Z</time>
      </trkpt>
      <trkpt lat="43.023" lon="0.54323">
        <ele>523</ele>
        <time>2018-03-18T10:49:41.000Z</time>
      </trkpt>
      <trkpt lat="43.023" lon="0.54322">
        <ele>523</ele>
        <time>2018-03-18T10:49:43.000Z</time>
      </trkpt>
      <trkpt lat="43.02301" lon="0.5432">
        <ele>523</ele>
        <time>2018-03-18T10:49:45.000Z</time>
      </trkpt>
      <trkpt lat="43.02301" lon="0.54319">
        <ele>523</ele>
        <time>2018-03-18T10:49:47.000Z</time>
      </trkpt>
      <trkpt lat="43.02301" lon="0.54319">
        <ele>523</ele>
        <time>2018-03-18T10:49:49.000Z</time>
      </trkpt>
      <trkpt lat="43.02301" lon="0.54319">
        <ele>523</ele>
        <time>2018-03-18T10:49:51.000Z</time>
      </trkpt>
      <trkpt lat="43.02301" lon="0.54318">
        <ele>523</ele>
        <time>2018-03-18T10:49:53.000Z</time>
      </trkpt>
      <trkpt lat="43.023" lon="0.54318">
        <ele>523</ele>
        <time>2018-03-18T10:49:55.000Z</time>
      </trkpt>
      <trkpt lat="43.023" lon="0.54318">
        <ele>523</ele>
        <time>2018-03-18T10:49:57.000Z</time>
      </trkpt>
      <trkpt lat="43.023" lon="0.54318">
        <ele>523</ele>
        <time>2018-03-18T10:49:59.000Z</time>
      </trkpt>
      <trkpt lat="43.023" lon="0.54318">
        <ele>523</ele>
        <time>2018-03-18T10:50:01.000Z</time>
      </trkpt>
      <trkpt lat="43.023" lon="0.54318">
        <ele>523</ele>
        <time>2018-03-18T10:50:03.000Z</time>
      </trkpt>
      <trkpt lat="43.023" lon="0.54318">
        <ele>523</ele>
        <time>2018-03-18T10:50:05.000Z</time>
      </trkpt>
      <trkpt lat="43.023" lon="0.54317">
        <ele>523</ele>
        <time>2018-03-18T10:50:07.000Z</time>
      </trkpt>
      <trkpt lat="43.023" lon="0.54317">
        <ele>523</ele>
        <time>2018-03-18T10:50:09.000Z</time>
      </trkpt>
      <trkpt lat="43.023" lon="0.54316">
        <ele>523</ele>
        <time>2018-03-18T10:50:11.000Z</time>
      </trkpt>
      <trkpt lat="43.023" lon="0.54316">
        <ele>523</ele>
        <time>2018-03-18T10:50:13.000Z</time>
      </trkpt>
      <trkpt lat="43.023" lon="0.54317">
        <ele>523</ele>
        <time>2018-03-18T10:50:15.000Z</time>
      </trkpt>
      <trkpt lat="43.023" lon="0.54317">
        <ele>523</ele>
        <time>2018-03-18T10:50:17.000Z</time>
      </trkpt>
      <trkpt lat="43.023" lon="0.54317">
        <ele>523</ele>
        <time>2018-03-18T10:50:19.000Z</time>
      </trkpt>
      <trkpt lat="43.023" lon="0.54318">
        <ele>523</ele>
        <time>2018-03-18T10:50:21.000Z</time>
      </trkpt>
      <trkpt lat="43.023" lon="0.54319">
        <ele>523</ele>
        <time>2018-03-18T10:50:23.000Z</time>
      </trkpt>
      <trkpt lat="43.02301" lon="0.54319">
        <ele>523</ele>
        <time>2018-03-18T10:50:25.000Z</time>
      </trkpt>
      <trkpt lat="43.02302" lon="0.54318">
        <ele>523</ele>
        <time>2018-03-18T10:50:27.000Z</time>
      </trkpt>
      <trkpt lat="43.02302" lon="0.54317">
        <ele>523</ele>
        <time>2018-03-18T10:50:29.000Z</time>
      </trkpt>
      <trkpt lat="43.02301" lon="0.54317">
        <ele>523</ele>
        <time>2018-03-18T10:50:31.000Z</time>
      </trkpt>
      <trkpt lat="43.02301" lon="0.54316">
        <ele>523</ele>
        <time>2018-03-18T10:50:33.000Z</time>
      </trkpt>
      <trkpt lat="43.02302" lon="0.54315">
        <ele>524</ele>
        <time>2018-03-18T10:50:35.000Z</time>
      </trkpt>
      <trkpt lat="43.02302" lon="0.54313">
        <ele>524</ele>
        <time>2018-03-18T10:50:37.000Z</time>
      </trkpt>
      <trkpt lat="43.02302" lon="0.54311">
        <ele>524</ele>
        <time>2018-03-18T10:50:39.000Z</time>
      </trkpt>
      <trkpt lat="43.02302" lon="0.54311">
        <ele>524</ele>
        <time>2018-03-18T10:50:41.000Z</time>
      </trkpt>
      <trkpt lat="43.02302" lon="0.5431">
        <ele>524</ele>
        <time>2018-03-18T10:50:43.000Z</time>
      </trkpt>
      <trkpt lat="43.02303" lon="0.54311">
        <ele>524</ele>
        <time>2018-03-18T10:50:45.000Z</time>
      </trkpt>
      <trkpt lat="43.02303" lon="0.5431">
        <ele>524</ele>
        <time>2018-03-18T10:50:47.000Z</time>
      </trkpt>
      <trkpt lat="43.02304" lon="0.54309">
        <ele>524</ele>
        <time>2018-03-18T10:50:49.000Z</time>
      </trkpt>
      <trkpt lat="43.02303" lon="0.54308">
        <ele>524</ele>
        <time>2018-03-18T10:50:51.000Z</time>
      </trkpt>
      <trkpt lat="43.02304" lon="0.54307">
        <ele>524</ele>
        <time>2018-03-18T10:50:53.000Z</time>
      </trkpt>
      <trkpt lat="43.02304" lon="0.54307">
        <ele>524</ele>
        <time>2018-03-18T10:50:55.000Z</time>
      </trkpt>
      <trkpt lat="43.02304" lon="0.54307">
        <ele>524</ele>
        <time>2018-03-18T10:50:57.000Z</time>
      </trkpt>
      <trkpt lat="43.02303" lon="0.54307">
        <ele>524</ele>
        <time>2018-03-18T10:50:59.000Z</time>
      </trkpt>
      <trkpt lat="43.02303" lon="0.54307">
        <ele>524</ele>
        <time>2018-03-18T10:51:01.000Z</time>
      </trkpt>
      <trkpt lat="43.02302" lon="0.54308">
        <ele>524</ele>
        <time>2018-03-18T10:51:03.000Z</time>
      </trkpt>
      <trkpt lat="43.02302" lon="0.54309">
        <ele>524</ele>
        <time>2018-03-18T10:51:05.000Z</time>
      </trkpt>
      <trkpt lat="43.02301" lon="0.54309">
        <ele>524</ele>
        <time>2018-03-18T10:51:07.000Z</time>
      </trkpt>
      <trkpt lat="43.02301" lon="0.5431">
        <ele>524</ele>
        <time>2018-03-18T10:51:09.000Z</time>
      </trkpt>
      <trkpt lat="43.02301" lon="0.5431">
        <ele>524</ele>
        <time>2018-03-18T10:51:11.000Z</time>
      </trkpt>
      <trkpt lat="43.02301" lon="0.5431">
        <ele>524</ele>
        <time>2018-03-18T10:51:13.000Z</time>
      </trkpt>
      <trkpt lat="43.023" lon="0.5431">
        <ele>524</ele>
        <time>2018-03-18T10:51:15.000Z</time>
      </trkpt>
      <trkpt lat="43.023" lon="0.54311">
        <ele>524</ele>
        <time>2018-03-18T10:51:17.000Z</time>
      </trkpt>
      <trkpt lat="43.023" lon="0.54312">
        <ele>524</ele>
        <time>2018-03-18T10:51:19.000Z</time>
      </trkpt>
      <trkpt lat="43.023" lon="0.54312">
        <ele>524</ele>
        <time>2018-03-18T10:51:21.000Z</time>
      </trkpt>
      <trkpt lat="43.02301" lon="0.54312">
        <ele>524</ele>
        <time>2018-03-18T10:51:23.000Z</time>
      </trkpt>
      <trkpt lat="43.02301" lon="0.54312">
        <ele>524</ele>
        <time>2018-03-18T10:51:25.000Z</time>
      </trkpt>
      <trkpt lat="43.02302" lon="0.54311">
        <ele>524</ele>
        <time>2018-03-18T10:51:27.000Z</time>
      </trkpt>
      <trkpt lat="43.02302" lon="0.5431">
        <ele>524</ele>
        <time>2018-03-18T10:51:29.000Z</time>
      </trkpt>
      <trkpt lat="43.02303" lon="0.54312">
        <ele>524</ele>
        <time>2018-03-18T10:51:31.000Z</time>
      </trkpt>
      <trkpt lat="43.02303" lon="0.54313">
        <ele>524</ele>
        <time>2018-03-18T10:51:33.000Z</time>
      </trkpt>
      <trkpt lat="43.02304" lon="0.54313">
        <ele>524</ele>
        <time>2018-03-18T10:51:35.000Z</time>
      </trkpt>
      <trkpt lat="43.02304" lon="0.54313">
        <ele>524</ele>
        <time>2018-03-18T10:51:37.000Z</time>
      </trkpt>
      <trkpt lat="43.02305" lon="0.54314">
        <ele>524</ele>
        <time>2018-03-18T10:51:39.000Z</time>
      </trkpt>
      <trkpt lat="43.02305" lon="0.54314">
        <ele>524</ele>
        <time>2018-03-18T10:51:41.000Z</time>
      </trkpt>
      <trkpt lat="43.02306" lon="0.54314">
        <ele>524</ele>
        <time>2018-03-18T10:51:43.000Z</time>
      </trkpt>
      <trkpt lat="43.02307" lon="0.54314">
        <ele>524</ele>
        <time>2018-03-18T10:51:45.000Z</time>
      </trkpt>
      <trkpt lat="43.02307" lon="0.54314">
        <ele>524</ele>
        <time>2018-03-18T10:51:47.000Z</time>
      </trkpt>
      <trkpt lat="43.02307" lon="0.54314">
        <ele>524</ele>
        <time>2018-03-18T10:51:49.000Z</time>
      </trkpt>
      <trkpt lat="43.02307" lon="0.54315">
        <ele>524</ele>
        <time>2018-03-18T10:51:51.000Z</time>
      </trkpt>
      <trkpt lat="43.02307" lon="0.54315">
        <ele>524</ele>
        <time>2018-03-18T10:51:53.000Z</time>
      </trkpt>
      <trkpt lat="43.02307" lon="0.54315">
        <ele>524</ele>
        <time>2018-03-18T10:51:55.000Z</time>
      </trkpt>
      <trkpt lat="43.02307" lon="0.54316">
        <ele>524</ele>
        <time>2018-03-18T10:51:57.000Z</time>
      </trkpt>
      <trkpt lat="43.02307" lon="0.54316">
        <ele>524</ele>
        <time>2018-03-18T10:51:59.000Z</time>
      </trkpt>
      <trkpt lat="43.02306" lon="0.54317">
        <ele>524</ele>
        <time>2018-03-18T10:52:01.000Z</time>
      </trkpt>
      <trkpt lat="43.02306" lon="0.54317">
        <ele>524</ele>
        <time>2018-03-18T10:52:03.000Z</time>
      </trkpt>
      <trkpt lat="43.02309" lon="0.54317">
        <ele>524</ele>
        <time>2018-03-18T10:52:05.000Z</time>
      </trkpt>
      <trkpt lat="43.02309" lon="0.54317">
        <ele>524</ele>
        <time>2018-03-18T10:52:07.000Z</time>
      </trkpt>
      <trkpt lat="43.02306" lon="0.54318">
        <ele>523</ele>
        <time>2018-03-18T10:52:09.000Z</time>
      </trkpt>
      <trkpt lat="43.02304" lon="0.54319">
        <ele>523</ele>
        <time>2018-03-18T10:52:11.000Z</time>
      </trkpt>
      <trkpt lat="43.02304" lon="0.54319">
        <ele>523</ele>
        <time>2018-03-18T10:52:13.000Z</time>
      </trkpt>
      <trkpt lat="43.02304" lon="0.54318">
        <ele>523</ele>
        <time>2018-03-18T10:52:15.000Z</time>
      </trkpt>
      <trkpt lat="43.02304" lon="0.54318">
        <ele>523</ele>
        <time>2018-03-18T10:52:17.000Z</time>
      </trkpt>
      <trkpt lat="43.02304" lon="0.54318">
        <ele>523</ele>
        <time>2018-03-18T10:52:19.000Z</time>
      </trkpt>
      <trkpt lat="43.02304" lon="0.54318">
        <ele>523</ele>
        <time>2018-03-18T10:52:21.000Z</time>
      </trkpt>
      <trkpt lat="43.02304" lon="0.54319">
        <ele>523</ele>
        <time>2018-03-18T10:52:23.000Z</time>
      </trkpt>
      <trkpt lat="43.02303" lon="0.5432">
        <ele>523</ele>
        <time>2018-03-18T10:52:25.000Z</time>
      </trkpt>
      <trkpt lat="43.02303" lon="0.5432">
        <ele>523</ele>
        <time>2018-03-18T10:52:27.000Z</time>
      </trkpt>
      <trkpt lat="43.02303" lon="0.54321">
        <ele>523</ele>
        <time>2018-03-18T10:52:29.000Z</time>
      </trkpt>
      <trkpt lat="43.02303" lon="0.54322">
        <ele>523</ele>
        <time>2018-03-18T10:52:31.000Z</time>
      </trkpt>
      <trkpt lat="43.02303" lon="0.54323">
        <ele>523</ele>
        <time>2018-03-18T10:52:33.000Z</time>
      </trkpt>
      <trkpt lat="43.02303" lon="0.54323">
        <ele>523</ele>
        <time>2018-03-18T10:52:35.000Z</time>
      </trkpt>
      <trkpt lat="43.02303" lon="0.54324">
        <ele>523</ele>
        <time>2018-03-18T10:52:37.000Z</time>
      </trkpt>
      <trkpt lat="43.02303" lon="0.54325">
        <ele>523</ele>
        <time>2018-03-18T10:52:39.000Z</time>
      </trkpt>
      <trkpt lat="43.02303" lon="0.54326">
        <ele>523</ele>
        <time>2018-03-18T10:52:41.000Z</time>
      </trkpt>
      <trkpt lat="43.02303" lon="0.54326">
        <ele>523</ele>
        <time>2018-03-18T10:52:43.000Z</time>
      </trkpt>
      <trkpt lat="43.02304" lon="0.54327">
        <ele>523</ele>
        <time>2018-03-18T10:52:45.000Z</time>
      </trkpt>
      <trkpt lat="43.02303" lon="0.54329">
        <ele>523</ele>
        <time>2018-03-18T10:52:47.000Z</time>
      </trkpt>
      <trkpt lat="43.02302" lon="0.54328">
        <ele>523</ele>
        <time>2018-03-18T10:52:49.000Z</time>
      </trkpt>
      <trkpt lat="43.02301" lon="0.54328">
        <ele>523</ele>
        <time>2018-03-18T10:52:51.000Z</time>
      </trkpt>
      <trkpt lat="43.023" lon="0.54328">
        <ele>523</ele>
        <time>2018-03-18T10:52:53.000Z</time>
      </trkpt>
      <trkpt lat="43.02298" lon="0.54328">
        <ele>522</ele>
        <time>2018-03-18T10:52:55.000Z</time>
      </trkpt>
      <trkpt lat="43.02298" lon="0.54328">
        <ele>522</ele>
        <time>2018-03-18T10:52:57.000Z</time>
      </trkpt>
      <trkpt lat="43.02298" lon="0.54328">
        <ele>522</ele>
        <time>2018-03-18T10:52:59.000Z</time>
      </trkpt>
      <trkpt lat="43.02299" lon="0.54328">
        <ele>523</ele>
        <time>2018-03-18T10:53:01.000Z</time>
      </trkpt>
      <trkpt lat="43.02298" lon="0.54327">
        <ele>523</ele>
        <time>2018-03-18T10:53:03.000Z</time>
      </trkpt>
      <trkpt lat="43.02298" lon="0.54328">
        <ele>522</ele>
        <time>2018-03-18T10:53:05.000Z</time>
      </trkpt>
      <trkpt lat="43.02297" lon="0.54328">
        <ele>522</ele>
        <time>2018-03-18T10:53:07.000Z</time>
      </trkpt>
      <trkpt lat="43.02297" lon="0.54329">
        <ele>522</ele>
        <time>2018-03-18T10:53:09.000Z</time>
      </trkpt>
      <trkpt lat="43.02297" lon="0.54329">
        <ele>522</ele>
        <time>2018-03-18T10:53:11.000Z</time>
      </trkpt>
      <trkpt lat="43.02297" lon="0.54328">
        <ele>522</ele>
        <time>2018-03-18T10:53:13.000Z</time>
      </trkpt>
      <trkpt lat="43.02298" lon="0.54328">
        <ele>522</ele>
        <time>2018-03-18T10:53:15.000Z</time>
      </trkpt>
      <trkpt lat="43.02299" lon="0.54328">
        <ele>523</ele>
        <time>2018-03-18T10:53:17.000Z</time>
      </trkpt>
      <trkpt lat="43.02299" lon="0.54328">
        <ele>523</ele>
        <time>2018-03-18T10:53:19.000Z</time>
      </trkpt>
      <trkpt lat="43.02301" lon="0.54328">
        <ele>523</ele>
        <time>2018-03-18T10:53:21.000Z</time>
      </trkpt>
      <trkpt lat="43.02302" lon="0.54327">
        <ele>523</ele>
        <time>2018-03-18T10:53:23.000Z</time>
      </trkpt>
      <trkpt lat="43.02303" lon="0.54326">
        <ele>523</ele>
        <time>2018-03-18T10:53:25.000Z</time>
      </trkpt>
      <trkpt lat="43.02305" lon="0.54326">
        <ele>523</ele>
        <time>2018-03-18T10:53:27.000Z</time>
      </trkpt>
      <trkpt lat="43.02306" lon="0.54325">
        <ele>523</ele>
        <time>2018-03-18T10:53:29.000Z</time>
      </trkpt>
      <trkpt lat="43.02307" lon="0.54323">
        <ele>523</ele>
        <time>2018-03-18T10:53:31.000Z</time>
      </trkpt>
      <trkpt lat="43.02308" lon="0.54321">
        <ele>523</ele>
        <time>2018-03-18T10:53:33.000Z</time>
      </trkpt>
      <trkpt lat="43.02309" lon="0.5432">
        <ele>523</ele>
        <time>2018-03-18T10:53:35.000Z</time>
      </trkpt>
      <trkpt lat="43.0231" lon="0.54319">
        <ele>523</ele>
        <time>2018-03-18T10:53:37.000Z</time>
      </trkpt>
      <trkpt lat="43.0231" lon="0.54319">
        <ele>524</ele>
        <time>2018-03-18T10:53:39.000Z</time>
      </trkpt>
      <trkpt lat="43.02309" lon="0.54319">
        <ele>524</ele>
        <time>2018-03-18T10:53:41.000Z</time>
      </trkpt>
      <trkpt lat="43.02308" lon="0.54319">
        <ele>523</ele>
        <time>2018-03-18T10:53:43.000Z</time>
      </trkpt>
      <trkpt lat="43.02308" lon="0.54319">
        <ele>523</ele>
        <time>2018-03-18T10:53:45.000Z</time>
      </trkpt>
      <trkpt lat="43.02307" lon="0.5432">
        <ele>523</ele>
        <time>2018-03-18T10:53:47.000Z</time>
      </trkpt>
      <trkpt lat="43.02306" lon="0.54321">
        <ele>523</ele>
        <time>2018-03-18T10:53:49.000Z</time>
      </trkpt>
      <trkpt lat="43.02305" lon="0.54321">
        <ele>523</ele>
        <time>2018-03-18T10:53:51.000Z</time>
      </trkpt>
      <trkpt lat="43.02305" lon="0.54321">
        <ele>523</ele>
        <time>2018-03-18T10:53:53.000Z</time>
      </trkpt>
      <trkpt lat="43.02304" lon="0.54322">
        <ele>523</ele>
        <time>2018-03-18T10:53:55.000Z</time>
      </trkpt>
      <trkpt lat="43.02304" lon="0.54321">
        <ele>523</ele>
        <time>2018-03-18T10:53:57.000Z</time>
      </trkpt>
      <trkpt lat="43.02305" lon="0.54321">
        <ele>523</ele>
        <time>2018-03-18T10:53:59.000Z</time>
      </trkpt>
      <trkpt lat="43.02305" lon="0.54321">
        <ele>523</ele>
        <time>2018-03-18T10:54:01.000Z</time>
      </trkpt>
      <trkpt lat="43.02305" lon="0.5432">
        <ele>523</ele>
        <time>2018-03-18T10:54:03.000Z</time>
      </trkpt>
      <trkpt lat="43.02305" lon="0.54319">
        <ele>523</ele>
        <time>2018-03-18T10:54:05.000Z</time>
      </trkpt>
      <trkpt lat="43.02305" lon="0.54319">
        <ele>523</ele>
        <time>2018-03-18T10:54:07.000Z</time>
      </trkpt>
      <trkpt lat="43.02306" lon="0.54318">
        <ele>523</ele>
        <time>2018-03-18T10:54:09.000Z</time>
      </trkpt>
      <trkpt lat="43.02307" lon="0.54316">
        <ele>524</ele>
        <time>2018-03-18T10:54:11.000Z</time>
      </trkpt>
      <trkpt lat="43.02309" lon="0.54314">
        <ele>524</ele>
        <time>2018-03-18T10:54:13.000Z</time>
      </trkpt>
      <trkpt lat="43.02311" lon="0.54313">
        <ele>524</ele>
        <time>2018-03-18T10:54:15.000Z</time>
      </trkpt>
      <trkpt lat="43.0231" lon="0.54312">
        <ele>524</ele>
        <time>2018-03-18T10:54:17.000Z</time>
      </trkpt>
      <trkpt lat="43.02314" lon="0.54311">
        <ele>524</ele>
        <time>2018-03-18T10:54:19.000Z</time>
      </trkpt>
      <trkpt lat="43.02315" lon="0.54311">
        <ele>524</ele>
        <time>2018-03-18T10:54:21.000Z</time>
      </trkpt>
      <trkpt lat="43.02315" lon="0.54311">
        <ele>524</ele>
        <time>2018-03-18T10:54:23.000Z</time>
      </trkpt>
      <trkpt lat="43.02314" lon="0.54312">
        <ele>524</ele>
        <time>2018-03-18T10:54:25.000Z</time>
      </trkpt>
      <trkpt lat="43.02314" lon="0.54312">
        <ele>524</ele>
        <time>2018-03-18T10:54:27.000Z</time>
      </trkpt>
      <trkpt lat="43.02314" lon="0.54312">
        <ele>524</ele>
        <time>2018-03-18T10:54:29.000Z</time>
      </trkpt>
      <trkpt lat="43.02313" lon="0.54312">
        <ele>524</ele>
        <time>2018-03-18T10:54:31.000Z</time>
      </trkpt>
      <trkpt lat="43.02312" lon="0.54312">
        <ele>524</ele>
        <time>2018-03-18T10:54:33.000Z</time>
      </trkpt>
      <trkpt lat="43.02311" lon="0.54313">
        <ele>524</ele>
        <time>2018-03-18T10:54:35.000Z</time>
      </trkpt>
      <trkpt lat="43.0231" lon="0.54313">
        <ele>524</ele>
        <time>2018-03-18T10:54:37.000Z</time>
      </trkpt>
      <trkpt lat="43.02309" lon="0.54314">
        <ele>524</ele>
        <time>2018-03-18T10:54:39.000Z</time>
      </trkpt>
      <trkpt lat="43.02308" lon="0.54315">
        <ele>524</ele>
        <time>2018-03-18T10:54:41.000Z</time>
      </trkpt>
      <trkpt lat="43.02307" lon="0.54316">
        <ele>524</ele>
        <time>2018-03-18T10:54:43.000Z</time>
      </trkpt>
      <trkpt lat="43.02306" lon="0.54317">
        <ele>523</ele>
        <time>2018-03-18T10:54:45.000Z</time>
      </trkpt>
      <trkpt lat="43.02305" lon="0.54318">
        <ele>523</ele>
        <time>2018-03-18T10:54:47.000Z</time>
      </trkpt>
      <trkpt lat="43.02305" lon="0.54318">
        <ele>523</ele>
        <time>2018-03-18T10:54:49.000Z</time>
      </trkpt>
      <trkpt lat="43.02305" lon="0.54318">
        <ele>523</ele>
        <time>2018-03-18T10:54:51.000Z</time>
      </trkpt>
      <trkpt lat="43.02306" lon="0.54318">
        <ele>523</ele>
        <time>2018-03-18T10:54:53.000Z</time>
      </trkpt>
      <trkpt lat="43.02306" lon="0.5432">
        <ele>523</ele>
        <time>2018-03-18T10:54:55.000Z</time>
      </trkpt>
      <trkpt lat="43.02308" lon="0.54321">
        <ele>523</ele>
        <time>2018-03-18T10:54:57.000Z</time>
      </trkpt>
      <trkpt lat="43.02309" lon="0.54321">
        <ele>523</ele>
        <time>2018-03-18T10:54:59.000Z</time>
      </trkpt>
      <trkpt lat="43.02311" lon="0.54322">
        <ele>523</ele>
        <time>2018-03-18T10:55:01.000Z</time>
      </trkpt>
      <trkpt lat="43.02313" lon="0.54322">
        <ele>523</ele>
        <time>2018-03-18T10:55:03.000Z</time>
      </trkpt>
      <trkpt lat="43.02317" lon="0.5432">
        <ele>524</ele>
        <time>2018-03-18T10:55:05.000Z</time>
      </trkpt>
      <trkpt lat="43.02321" lon="0.54319">
        <ele>524</ele>
        <time>2018-03-18T10:55:07.000Z</time>
      </trkpt>
      <trkpt lat="43.02324" lon="0.54317">
        <ele>524</ele>
        <time>2018-03-18T10:55:09.000Z</time>
      </trkpt>
      <trkpt lat="43.02321" lon="0.54317">
        <ele>524</ele>
        <time>2018-03-18T10:55:11.000Z</time>
      </trkpt>
      <trkpt lat="43.02318" lon="0.54318">
        <ele>524</ele>
        <time>2018-03-18T10:55:13.000Z</time>
      </trkpt>
      <trkpt lat="43.02316" lon="0.54319">
        <ele>524</ele>
        <time>2018-03-18T10:55:15.000Z</time>
      </trkpt>
      <trkpt lat="43.02314" lon="0.5432">
        <ele>524</ele>
        <time>2018-03-18T10:55:17.000Z</time>
      </trkpt>
      <trkpt lat="43.02312" lon="0.54319">
        <ele>524</ele>
        <time>2018-03-18T10:55:19.000Z</time>
      </trkpt>
      <trkpt lat="43.02312" lon="0.54319">
        <ele>524</ele>
        <time>2018-03-18T10:55:21.000Z</time>
      </trkpt>
      <trkpt lat="43.02309" lon="0.54324">
        <ele>523</ele>
        <time>2018-03-18T10:55:23.000Z</time>
      </trkpt>
      <trkpt lat="43.02308" lon="0.54327">
        <ele>523</ele>
        <time>2018-03-18T10:55:25.000Z</time>
      </trkpt>
      <trkpt lat="43.02307" lon="0.54329">
        <ele>523</ele>
        <time>2018-03-18T10:55:27.000Z</time>
      </trkpt>
      <trkpt lat="43.02306" lon="0.54331">
        <ele>523</ele>
        <time>2018-03-18T10:55:29.000Z</time>
      </trkpt>
      <trkpt lat="43.02306" lon="0.54333">
        <ele>522</ele>
        <time>2018-03-18T10:55:31.000Z</time>
      </trkpt>
      <trkpt lat="43.02305" lon="0.54334">
        <ele>522</ele>
        <time>2018-03-18T10:55:33.000Z</time>
      </trkpt>
      <trkpt lat="43.02305" lon="0.54336">
        <ele>522</ele>
        <time>2018-03-18T10:55:35.000Z</time>
      </trkpt>
      <trkpt lat="43.02304" lon="0.54337">
        <ele>522</ele>
        <time>2018-03-18T10:55:37.000Z</time>
      </trkpt>
      <trkpt lat="43.02303" lon="0.54337">
        <ele>522</ele>
        <time>2018-03-18T10:55:39.000Z</time>
      </trkpt>
      <trkpt lat="43.02303" lon="0.54337">
        <ele>522</ele>
        <time>2018-03-18T10:55:41.000Z</time>
      </trkpt>
      <trkpt lat="43.02303" lon="0.54337">
        <ele>522</ele>
        <time>2018-03-18T10:55:43.000Z</time>
      </trkpt>
      <trkpt lat="43.02303" lon="0.54336">
        <ele>522</ele>
        <time>2018-03-18T10:55:45.000Z</time>
      </trkpt>
      <trkpt lat="43.02303" lon="0.54336">
        <ele>522</ele>
        <time>2018-03-18T10:55:47.000Z</time>
      </trkpt>
      <trkpt lat="43.02303" lon="0.54337">
        <ele>522</ele>
        <time>2018-03-18T10:55:49.000Z</time>
      </trkpt>
      <trkpt lat="43.02303" lon="0.54337">
        <ele>522</ele>
        <time>2018-03-18T10:55:51.000Z</time>
      </trkpt>
      <trkpt lat="43.02303" lon="0.54336">
        <ele>522</ele>
        <time>2018-03-18T10:55:53.000Z</time>
      </trkpt>
      <trkpt lat="43.02303" lon="0.54335">
        <ele>522</ele>
        <time>2018-03-18T10:55:55.000Z</time>
      </trkpt>
      <trkpt lat="43.02305" lon="0.54331">
        <ele>522</ele>
        <time>2018-03-18T10:55:58.000Z</time>
      </trkpt>
      <trkpt lat="43.02308" lon="0.54327">
        <ele>523</ele>
        <time>2018-03-18T10:56:00.000Z</time>
      </trkpt>
      <trkpt lat="43.0231" lon="0.54324">
        <ele>523</ele>
        <time>2018-03-18T10:56:02.000Z</time>
      </trkpt>
      <trkpt lat="43.02311" lon="0.54323">
        <ele>523</ele>
        <time>2018-03-18T10:56:04.000Z</time>
      </trkpt>
      <trkpt lat="43.02313" lon="0.54319">
        <ele>524</ele>
        <time>2018-03-18T10:56:06.000Z</time>
      </trkpt>
      <trkpt lat="43.02315" lon="0.54315">
        <ele>524</ele>
        <time>2018-03-18T10:56:08.000Z</time>
      </trkpt>
      <trkpt lat="43.02316" lon="0.54313">
        <ele>524</ele>
        <time>2018-03-18T10:56:10.000Z</time>
      </trkpt>
      <trkpt lat="43.02319" lon="0.54308">
        <ele>525</ele>
        <time>2018-03-18T10:56:12.000Z</time>
      </trkpt>
      <trkpt lat="43.02317" lon="0.54308">
        <ele>525</ele>
        <time>2018-03-18T10:56:14.000Z</time>
      </trkpt>
      <trkpt lat="43.02316" lon="0.54308">
        <ele>525</ele>
        <time>2018-03-18T10:56:16.000Z</time>
      </trkpt>
      <trkpt lat="43.02315" lon="0.54309">
        <ele>524</ele>
        <time>2018-03-18T10:56:18.000Z</time>
      </trkpt>
      <trkpt lat="43.02315" lon="0.54309">
        <ele>524</ele>
        <time>2018-03-18T10:56:20.000Z</time>
      </trkpt>
      <trkpt lat="43.02314" lon="0.54309">
        <ele>524</ele>
        <time>2018-03-18T10:56:22.000Z</time>
      </trkpt>
      <trkpt lat="43.02313" lon="0.54309">
        <ele>524</ele>
        <time>2018-03-18T10:56:24.000Z</time>
      </trkpt>
      <trkpt lat="43.02311" lon="0.5431">
        <ele>524</ele>
        <time>2018-03-18T10:56:26.000Z</time>
      </trkpt>
      <trkpt lat="43.0231" lon="0.54311">
        <ele>524</ele>
        <time>2018-03-18T10:56:28.000Z</time>
      </trkpt>
      <trkpt lat="43.02309" lon="0.54311">
        <ele>524</ele>
        <time>2018-03-18T10:56:30.000Z</time>
      </trkpt>
      <trkpt lat="43.02308" lon="0.54312">
        <ele>524</ele>
        <time>2018-03-18T10:56:32.000Z</time>
      </trkpt>
      <trkpt lat="43.02307" lon="0.54312">
        <ele>524</ele>
        <time>2018-03-18T10:56:34.000Z</time>
      </trkpt>
      <trkpt lat="43.02306" lon="0.54313">
        <ele>524</ele>
        <time>2018-03-18T10:56:36.000Z</time>
      </trkpt>
      <trkpt lat="43.02306" lon="0.54313">
        <ele>524</ele>
        <time>2018-03-18T10:56:38.000Z</time>
      </trkpt>
      <trkpt lat="43.02307" lon="0.54313">
        <ele>524</ele>
        <time>2018-03-18T10:56:40.000Z</time>
      </trkpt>
      <trkpt lat="43.02308" lon="0.54313">
        <ele>524</ele>
        <time>2018-03-18T10:56:42.000Z</time>
      </trkpt>
      <trkpt lat="43.02308" lon="0.54313">
        <ele>524</ele>
        <time>2018-03-18T10:56:44.000Z</time>
      </trkpt>
      <trkpt lat="43.02307" lon="0.54314">
        <ele>524</ele>
        <time>2018-03-18T10:56:46.000Z</time>
      </trkpt>
      <trkpt lat="43.02308" lon="0.54314">
        <ele>524</ele>
        <time>2018-03-18T10:56:48.000Z</time>
      </trkpt>
      <trkpt lat="43.02308" lon="0.54313">
        <ele>524</ele>
        <time>2018-03-18T10:56:50.000Z</time>
      </trkpt>
      <trkpt lat="43.02307" lon="0.54313">
        <ele>524</ele>
        <time>2018-03-18T10:56:52.000Z</time>
      </trkpt>
      <trkpt lat="43.02307" lon="0.54314">
        <ele>524</ele>
        <time>2018-03-18T10:56:54.000Z</time>
      </trkpt>
      <trkpt lat="43.02307" lon="0.54314">
        <ele>524</ele>
        <time>2018-03-18T10:56:56.000Z</time>
      </trkpt>
      <trkpt lat="43.02307" lon="0.54315">
        <ele>524</ele>
        <time>2018-03-18T10:56:58.000Z</time>
      </trkpt>
      <trkpt lat="43.02307" lon="0.54315">
        <ele>524</ele>
        <time>2018-03-18T10:57:00.000Z</time>
      </trkpt>
      <trkpt lat="43.02307" lon="0.54313">
        <ele>524</ele>
        <time>2018-03-18T10:57:02.000Z</time>
      </trkpt>
      <trkpt lat="43.02306" lon="0.54314">
        <ele>524</ele>
        <time>2018-03-18T10:57:04.000Z</time>
      </trkpt>
      <trkpt lat="43.02304" lon="0.54315">
        <ele>524</ele>
        <time>2018-03-18T10:57:06.000Z</time>
      </trkpt>
      <trkpt lat="43.02304" lon="0.54318">
        <ele>523</ele>
        <time>2018-03-18T10:57:08.000Z</time>
      </trkpt>
      <trkpt lat="43.02302" lon="0.5432">
        <ele>523</ele>
        <time>2018-03-18T10:57:10.000Z</time>
      </trkpt>
      <trkpt lat="43.02301" lon="0.54321">
        <ele>523</ele>
        <time>2018-03-18T10:57:12.000Z</time>
      </trkpt>
      <trkpt lat="43.023" lon="0.54322">
        <ele>523</ele>
        <time>2018-03-18T10:57:14.000Z</time>
      </trkpt>
      <trkpt lat="43.023" lon="0.54322">
        <ele>523</ele>
        <time>2018-03-18T10:57:16.000Z</time>
      </trkpt>
      <trkpt lat="43.023" lon="0.54323">
        <ele>523</ele>
        <time>2018-03-18T10:57:18.000Z</time>
      </trkpt>
      <trkpt lat="43.023" lon="0.54323">
        <ele>523</ele>
        <time>2018-03-18T10:57:20.000Z</time>
      </trkpt>
      <trkpt lat="43.02301" lon="0.54322">
        <ele>523</ele>
        <time>2018-03-18T10:57:22.000Z</time>
      </trkpt>
      <trkpt lat="43.02301" lon="0.54322">
        <ele>523</ele>
        <time>2018-03-18T10:57:24.000Z</time>
      </trkpt>
      <trkpt lat="43.02301" lon="0.54321">
        <ele>523</ele>
        <time>2018-03-18T10:57:26.000Z</time>
      </trkpt>
      <trkpt lat="43.02303" lon="0.5432">
        <ele>523</ele>
        <time>2018-03-18T10:57:28.000Z</time>
      </trkpt>
      <trkpt lat="43.02304" lon="0.54317">
        <ele>523</ele>
        <time>2018-03-18T10:57:30.000Z</time>
      </trkpt>
      <trkpt lat="43.02305" lon="0.54316">
        <ele>524</ele>
        <time>2018-03-18T10:57:32.000Z</time>
      </trkpt>
      <trkpt lat="43.02306" lon="0.54316">
        <ele>524</ele>
        <time>2018-03-18T10:57:34.000Z</time>
      </trkpt>
      <trkpt lat="43.02306" lon="0.54315">
        <ele>524</ele>
        <time>2018-03-18T10:57:36.000Z</time>
      </trkpt>
      <trkpt lat="43.02307" lon="0.54315">
        <ele>524</ele>
        <time>2018-03-18T10:57:38.000Z</time>
      </trkpt>
      <trkpt lat="43.02308" lon="0.54314">
        <ele>524</ele>
        <time>2018-03-18T10:57:40.000Z</time>
      </trkpt>
      <trkpt lat="43.02309" lon="0.54314">
        <ele>524</ele>
        <time>2018-03-18T10:57:42.000Z</time>
      </trkpt>
      <trkpt lat="43.0231" lon="0.54312">
        <ele>524</ele>
        <time>2018-03-18T10:57:44.000Z</time>
      </trkpt>
      <trkpt lat="43.02312" lon="0.5431">
        <ele>524</ele>
        <time>2018-03-18T10:57:46.000Z</time>
      </trkpt>
      <trkpt lat="43.02311" lon="0.5431">
        <ele>524</ele>
        <time>2018-03-18T10:57:48.000Z</time>
      </trkpt>
      <trkpt lat="43.02311" lon="0.54309">
        <ele>524</ele>
        <time>2018-03-18T10:57:50.000Z</time>
      </trkpt>
      <trkpt lat="43.0231" lon="0.54311">
        <ele>524</ele>
        <time>2018-03-18T10:57:52.000Z</time>
      </trkpt>
      <trkpt lat="43.0231" lon="0.54312">
        <ele>524</ele>
        <time>2018-03-18T10:57:55.000Z</time>
      </trkpt>
      <trkpt lat="43.02311" lon="0.54314">
        <ele>524</ele>
        <time>2018-03-18T10:57:57.000Z</time>
      </trkpt>
      <trkpt lat="43.02311" lon="0.54314">
        <ele>524</ele>
        <time>2018-03-18T10:57:59.000Z</time>
      </trkpt>
      <trkpt lat="43.02313" lon="0.54313">
        <ele>524</ele>
        <time>2018-03-18T10:58:01.000Z</time>
      </trkpt>
      <trkpt lat="43.02315" lon="0.54312">
        <ele>524</ele>
        <time>2018-03-18T10:58:03.000Z</time>
      </trkpt>
      <trkpt lat="43.02316" lon="0.54313">
        <ele>524</ele>
        <time>2018-03-18T10:58:05.000Z</time>
      </trkpt>
      <trkpt lat="43.02318" lon="0.54313">
        <ele>524</ele>
        <time>2018-03-18T10:58:07.000Z</time>
      </trkpt>
      <trkpt lat="43.0232" lon="0.54312">
        <ele>524</ele>
        <time>2018-03-18T10:58:09.000Z</time>
      </trkpt>
      <trkpt lat="43.02321" lon="0.54312">
        <ele>524</ele>
        <time>2018-03-18T10:58:11.000Z</time>
      </trkpt>
      <trkpt lat="43.02322" lon="0.54312">
        <ele>524</ele>
        <time>2018-03-18T10:58:13.000Z</time>
      </trkpt>
      <trkpt lat="43.02324" lon="0.54311">
        <ele>525</ele>
        <time>2018-03-18T10:58:15.000Z</time>
      </trkpt>
      <trkpt lat="43.02326" lon="0.5431">
        <ele>525</ele>
        <time>2018-03-18T10:58:17.000Z</time>
      </trkpt>
      <trkpt lat="43.02323" lon="0.54312">
        <ele>525</ele>
        <time>2018-03-18T10:58:20.000Z</time>
      </trkpt>
      <trkpt lat="43.02322" lon="0.54313">
        <ele>524</ele>
        <time>2018-03-18T10:58:22.000Z</time>
      </trkpt>
      <trkpt lat="43.02321" lon="0.54314">
        <ele>524</ele>
        <time>2018-03-18T10:58:24.000Z</time>
      </trkpt>
      <trkpt lat="43.02319" lon="0.54316">
        <ele>524</ele>
        <time>2018-03-18T10:58:26.000Z</time>
      </trkpt>
      <trkpt lat="43.02319" lon="0.54318">
        <ele>524</ele>
        <time>2018-03-18T10:58:28.000Z</time>
      </trkpt>
      <trkpt lat="43.02319" lon="0.5432">
        <ele>524</ele>
        <time>2018-03-18T10:58:30.000Z</time>
      </trkpt>
      <trkpt lat="43.02318" lon="0.54322">
        <ele>524</ele>
        <time>2018-03-18T10:58:32.000Z</time>
      </trkpt>
      <trkpt lat="43.02317" lon="0.54324">
        <ele>523</ele>
        <time>2018-03-18T10:58:34.000Z</time>
      </trkpt>
      <trkpt lat="43.02315" lon="0.54326">
        <ele>523</ele>
        <time>2018-03-18T10:58:36.000Z</time>
      </trkpt>
      <trkpt lat="43.02314" lon="0.54327">
        <ele>523</ele>
        <time>2018-03-18T10:58:38.000Z</time>
      </trkpt>
      <trkpt lat="43.02313" lon="0.54327">
        <ele>523</ele>
        <time>2018-03-18T10:58:40.000Z</time>
      </trkpt>
      <trkpt lat="43.02313" lon="0.54328">
        <ele>523</ele>
        <time>2018-03-18T10:58:42.000Z</time>
      </trkpt>
      <trkpt lat="43.02311" lon="0.54327">
        <ele>523</ele>
        <time>2018-03-18T10:58:44.000Z</time>
      </trkpt>
      <trkpt lat="43.02311" lon="0.54327">
        <ele>523</ele>
        <time>2018-03-18T10:58:46.000Z</time>
      </trkpt>
      <trkpt lat="43.0231" lon="0.54325">
        <ele>523</ele>
        <time>2018-03-18T10:58:48.000Z</time>
      </trkpt>
      <trkpt lat="43.0231" lon="0.54323">
        <ele>523</ele>
        <time>2018-03-18T10:58:50.000Z</time>
      </trkpt>
      <trkpt lat="43.02309" lon="0.54321">
        <ele>523</ele>
        <time>2018-03-18T10:58:52.000Z</time>
      </trkpt>
      <trkpt lat="43.02308" lon="0.5432">
        <ele>523</ele>
        <time>2018-03-18T10:58:54.000Z</time>
      </trkpt>
      <trkpt lat="43.02308" lon="0.5432">
        <ele>523</ele>
        <time>2018-03-18T10:58:56.000Z</time>
      </trkpt>
      <trkpt lat="43.02307" lon="0.54321">
        <ele>523</ele>
        <time>2018-03-18T10:58:58.000Z</time>
      </trkpt>
      <trkpt lat="43.02307" lon="0.54322">
        <ele>523</ele>
        <time>2018-03-18T10:59:00.000Z</time>
      </trkpt>
      <trkpt lat="43.02306" lon="0.54322">
        <ele>523</ele>
        <time>2018-03-18T10:59:02.000Z</time>
      </trkpt>
      <trkpt lat="43.02305" lon="0.54322">
        <ele>523</ele>
        <time>2018-03-18T10:59:04.000Z</time>
      </trkpt>
      <trkpt lat="43.02304" lon="0.54322">
        <ele>523</ele>
        <time>2018-03-18T10:59:06.000Z</time>
      </trkpt>
      <trkpt lat="43.02305" lon="0.54323">
        <ele>523</ele>
        <time>2018-03-18T10:59:08.000Z</time>
      </trkpt>
      <trkpt lat="43.02305" lon="0.54324">
        <ele>523</ele>
        <time>2018-03-18T10:59:10.000Z</time>
      </trkpt>
      <trkpt lat="43.02308" lon="0.5432">
        <ele>523</ele>
        <time>2018-03-18T10:59:12.000Z</time>
      </trkpt>
      <trkpt lat="43.02308" lon="0.5432">
        <ele>523</ele>
        <time>2018-03-18T10:59:14.000Z</time>
      </trkpt>
      <trkpt lat="43.0231" lon="0.54318">
        <ele>524</ele>
        <time>2018-03-18T10:59:16.000Z</time>
      </trkpt>
      <trkpt lat="43.0231" lon="0.54318">
        <ele>524</ele>
        <time>2018-03-18T10:59:18.000Z</time>
      </trkpt>
      <trkpt lat="43.0231" lon="0.54317">
        <ele>524</ele>
        <time>2018-03-18T10:59:20.000Z</time>
      </trkpt>
      <trkpt lat="43.02311" lon="0.54317">
        <ele>524</ele>
        <time>2018-03-18T10:59:22.000Z</time>
      </trkpt>
      <trkpt lat="43.02311" lon="0.54317">
        <ele>524</ele>
        <time>2018-03-18T10:59:24.000Z</time>
      </trkpt>
      <trkpt lat="43.02312" lon="0.54316">
        <ele>524</ele>
        <time>2018-03-18T10:59:26.000Z</time>
      </trkpt>
      <trkpt lat="43.02314" lon="0.54316">
        <ele>524</ele>
        <time>2018-03-18T10:59:28.000Z</time>
      </trkpt>
      <trkpt lat="43.02315" lon="0.54314">
        <ele>524</ele>
        <time>2018-03-18T10:59:30.000Z</time>
      </trkpt>
      <trkpt lat="43.02316" lon="0.54314">
        <ele>524</ele>
        <time>2018-03-18T10:59:32.000Z</time>
      </trkpt>
      <trkpt lat="43.02316" lon="0.54314">
        <ele>524</ele>
        <time>2018-03-18T10:59:34.000Z</time>
      </trkpt>
      <trkpt lat="43.02317" lon="0.54313">
        <ele>524</ele>
        <time>2018-03-18T10:59:36.000Z</time>
      </trkpt>
      <trkpt lat="43.02318" lon="0.54312">
        <ele>524</ele>
        <time>2018-03-18T10:59:38.000Z</time>
      </trkpt>
      <trkpt lat="43.02318" lon="0.54311">
        <ele>524</ele>
        <time>2018-03-18T10:59:40.000Z</time>
      </trkpt>
      <trkpt lat="43.02318" lon="0.5431">
        <ele>524</ele>
        <time>2018-03-18T10:59:42.000Z</time>
      </trkpt>
      <trkpt lat="43.02318" lon="0.54309">
        <ele>525</ele>
        <time>2018-03-18T10:59:44.000Z</time>
      </trkpt>
      <trkpt lat="43.02318" lon="0.54309">
        <ele>524</ele>
        <time>2018-03-18T10:59:46.000Z</time>
      </trkpt>
      <trkpt lat="43.02317" lon="0.5431">
        <ele>524</ele>
        <time>2018-03-18T10:59:48.000Z</time>
      </trkpt>
      <trkpt lat="43.02317" lon="0.5431">
        <ele>524</ele>
        <time>2018-03-18T10:59:50.000Z</time>
      </trkpt>
      <trkpt lat="43.02317" lon="0.5431">
        <ele>524</ele>
        <time>2018-03-18T10:59:52.000Z</time>
      </trkpt>
      <trkpt lat="43.02316" lon="0.54311">
        <ele>524</ele>
        <time>2018-03-18T10:59:54.000Z</time>
      </trkpt>
      <trkpt lat="43.02315" lon="0.54311">
        <ele>524</ele>
        <time>2018-03-18T10:59:56.000Z</time>
      </trkpt>
      <trkpt lat="43.02314" lon="0.54312">
        <ele>524</ele>
        <time>2018-03-18T10:59:58.000Z</time>
      </trkpt>
      <trkpt lat="43.02313" lon="0.54313">
        <ele>524</ele>
        <time>2018-03-18T11:00:00.000Z</time>
      </trkpt>
      <trkpt lat="43.02312" lon="0.54313">
        <ele>524</ele>
        <time>2018-03-18T11:00:02.000Z</time>
      </trkpt>
      <trkpt lat="43.02311" lon="0.54314">
        <ele>524</ele>
        <time>2018-03-18T11:00:04.000Z</time>
      </trkpt>
      <trkpt lat="43.02311" lon="0.54315">
        <ele>524</ele>
        <time>2018-03-18T11:00:06.000Z</time>
      </trkpt>
      <trkpt lat="43.0231" lon="0.54315">
        <ele>524</ele>
        <time>2018-03-18T11:00:08.000Z</time>
      </trkpt>
      <trkpt lat="43.02309" lon="0.54315">
        <ele>524</ele>
        <time>2018-03-18T11:00:10.000Z</time>
      </trkpt>
      <trkpt lat="43.02309" lon="0.54315">
        <ele>524</ele>
        <time>2018-03-18T11:00:12.000Z</time>
      </trkpt>
      <trkpt lat="43.0231" lon="0.54315">
        <ele>524</ele>
        <time>2018-03-18T11:00:14.000Z</time>
      </trkpt>
      <trkpt lat="43.0231" lon="0.54315">
        <ele>524</ele>
        <time>2018-03-18T11:00:16.000Z</time>
      </trkpt>
      <trkpt lat="43.02309" lon="0.54316">
        <ele>524</ele>
        <time>2018-03-18T11:00:18.000Z</time>
      </trkpt>
      <trkpt lat="43.02308" lon="0.54317">
        <ele>524</ele>
        <time>2018-03-18T11:00:20.000Z</time>
      </trkpt>
      <trkpt lat="43.02308" lon="0.54319">
        <ele>523</ele>
        <time>2018-03-18T11:00:22.000Z</time>
      </trkpt>
      <trkpt lat="43.02307" lon="0.54321">
        <ele>523</ele>
        <time>2018-03-18T11:00:24.000Z</time>
      </trkpt>
      <trkpt lat="43.02307" lon="0.54322">
        <ele>523</ele>
        <time>2018-03-18T11:00:26.000Z</time>
      </trkpt>
      <trkpt lat="43.02307" lon="0.54323">
        <ele>523</ele>
        <time>2018-03-18T11:00:28.000Z</time>
      </trkpt>
      <trkpt lat="43.02307" lon="0.54322">
        <ele>523</ele>
        <time>2018-03-18T11:00:30.000Z</time>
      </trkpt>
      <trkpt lat="43.02308" lon="0.54322">
        <ele>523</ele>
        <time>2018-03-18T11:00:32.000Z</time>
      </trkpt>
      <trkpt lat="43.02307" lon="0.54322">
        <ele>523</ele>
        <time>2018-03-18T11:00:34.000Z</time>
      </trkpt>
      <trkpt lat="43.02307" lon="0.54321">
        <ele>523</ele>
        <time>2018-03-18T11:00:36.000Z</time>
      </trkpt>
      <trkpt lat="43.02306" lon="0.54323">
        <ele>523</ele>
        <time>2018-03-18T11:00:38.000Z</time>
      </trkpt>
      <trkpt lat="43.02305" lon="0.54324">
        <ele>523</ele>
        <time>2018-03-18T11:00:40.000Z</time>
      </trkpt>
      <trkpt lat="43.02304" lon="0.54325">
        <ele>523</ele>
        <time>2018-03-18T11:00:42.000Z</time>
      </trkpt>
      <trkpt lat="43.02303" lon="0.54327">
        <ele>523</ele>
        <time>2018-03-18T11:00:44.000Z</time>
      </trkpt>
      <trkpt lat="43.023" lon="0.54338">
        <ele>522</ele>
        <time>2018-03-18T11:00:46.000Z</time>
      </trkpt>
      <trkpt lat="43.02298" lon="0.54344">
        <ele>522</ele>
        <time>2018-03-18T11:00:48.000Z</time>
      </trkpt>
      <trkpt lat="43.02297" lon="0.54346">
        <ele>522</ele>
        <time>2018-03-18T11:00:50.000Z</time>
      </trkpt>
      <trkpt lat="43.02298" lon="0.54347">
        <ele>522</ele>
        <time>2018-03-18T11:00:52.000Z</time>
      </trkpt>
      <trkpt lat="43.02298" lon="0.54348">
        <ele>522</ele>
        <time>2018-03-18T11:00:54.000Z</time>
      </trkpt>
      <trkpt lat="43.02298" lon="0.54349">
        <ele>523</ele>
        <time>2018-03-18T11:00:56.000Z</time>
      </trkpt>
      <trkpt lat="43.02297" lon="0.54349">
        <ele>523</ele>
        <time>2018-03-18T11:00:58.000Z</time>
      </trkpt>
      <trkpt lat="43.02296" lon="0.54349">
        <ele>523</ele>
        <time>2018-03-18T11:01:00.000Z</time>
      </trkpt>
      <trkpt lat="43.02295" lon="0.54349">
        <ele>523</ele>
        <time>2018-03-18T11:01:02.000Z</time>
      </trkpt>
      <trkpt lat="43.02294" lon="0.5435">
        <ele>523</ele>
        <time>2018-03-18T11:01:04.000Z</time>
      </trkpt>
      <trkpt lat="43.02294" lon="0.54349">
        <ele>523</ele>
        <time>2018-03-18T11:01:06.000Z</time>
      </trkpt>
      <trkpt lat="43.02295" lon="0.54349">
        <ele>523</ele>
        <time>2018-03-18T11:01:08.000Z</time>
      </trkpt>
      <trkpt lat="43.02297" lon="0.54348">
        <ele>523</ele>
        <time>2018-03-18T11:01:10.000Z</time>
      </trkpt>
      <trkpt lat="43.02298" lon="0.54348">
        <ele>523</ele>
        <time>2018-03-18T11:01:12.000Z</time>
      </trkpt>
      <trkpt lat="43.02299" lon="0.54349">
        <ele>522</ele>
        <time>2018-03-18T11:01:14.000Z</time>
      </trkpt>
      <trkpt lat="43.023" lon="0.54349">
        <ele>522</ele>
        <time>2018-03-18T11:01:16.000Z</time>
      </trkpt>
      <trkpt lat="43.023" lon="0.54349">
        <ele>522</ele>
        <time>2018-03-18T11:01:18.000Z</time>
      </trkpt>
      <trkpt lat="43.02301" lon="0.54348">
        <ele>522</ele>
        <time>2018-03-18T11:01:20.000Z</time>
      </trkpt>
      <trkpt lat="43.02303" lon="0.54347">
        <ele>522</ele>
        <time>2018-03-18T11:01:22.000Z</time>
      </trkpt>
      <trkpt lat="43.02305" lon="0.54345">
        <ele>521</ele>
        <time>2018-03-18T11:01:24.000Z</time>
      </trkpt>
      <trkpt lat="43.02307" lon="0.54341">
        <ele>522</ele>
        <time>2018-03-18T11:01:26.000Z</time>
      </trkpt>
      <trkpt lat="43.02307" lon="0.54339">
        <ele>522</ele>
        <time>2018-03-18T11:01:28.000Z</time>
      </trkpt>
      <trkpt lat="43.02307" lon="0.54337">
        <ele>522</ele>
        <time>2018-03-18T11:01:30.000Z</time>
      </trkpt>
      <trkpt lat="43.02307" lon="0.54334">
        <ele>522</ele>
        <time>2018-03-18T11:01:32.000Z</time>
      </trkpt>
      <trkpt lat="43.02307" lon="0.54331">
        <ele>523</ele>
        <time>2018-03-18T11:01:34.000Z</time>
      </trkpt>
      <trkpt lat="43.02306" lon="0.54328">
        <ele>523</ele>
        <time>2018-03-18T11:01:36.000Z</time>
      </trkpt>
      <trkpt lat="43.02305" lon="0.54327">
        <ele>523</ele>
        <time>2018-03-18T11:01:39.000Z</time>
      </trkpt>
      <trkpt lat="43.02304" lon="0.54328">
        <ele>523</ele>
        <time>2018-03-18T11:01:41.000Z</time>
      </trkpt>
      <trkpt lat="43.02302" lon="0.54328">
        <ele>523</ele>
        <time>2018-03-18T11:01:43.000Z</time>
      </trkpt>
      <trkpt lat="43.02301" lon="0.54329">
        <ele>522</ele>
        <time>2018-03-18T11:01:45.000Z</time>
      </trkpt>
      <trkpt lat="43.02301" lon="0.54329">
        <ele>522</ele>
        <time>2018-03-18T11:01:47.000Z</time>
      </trkpt>
      <trkpt lat="43.02301" lon="0.54329">
        <ele>523</ele>
        <time>2018-03-18T11:01:49.000Z</time>
      </trkpt>
      <trkpt lat="43.02302" lon="0.54328">
        <ele>523</ele>
        <time>2018-03-18T11:01:51.000Z</time>
      </trkpt>
      <trkpt lat="43.02302" lon="0.54328">
        <ele>523</ele>
        <time>2018-03-18T11:01:53.000Z</time>
      </trkpt>
      <trkpt lat="43.02303" lon="0.54326">
        <ele>523</ele>
        <time>2018-03-18T11:01:55.000Z</time>
      </trkpt>
      <trkpt lat="43.02305" lon="0.54324">
        <ele>523</ele>
        <time>2018-03-18T11:01:57.000Z</time>
      </trkpt>
      <trkpt lat="43.02306" lon="0.54324">
        <ele>523</ele>
        <time>2018-03-18T11:01:59.000Z</time>
      </trkpt>
      <trkpt lat="43.02306" lon="0.54324">
        <ele>523</ele>
        <time>2018-03-18T11:02:01.000Z</time>
      </trkpt>
      <trkpt lat="43.02306" lon="0.54324">
        <ele>523</ele>
        <time>2018-03-18T11:02:03.000Z</time>
      </trkpt>
      <trkpt lat="43.02306" lon="0.54324">
        <ele>523</ele>
        <time>2018-03-18T11:02:05.000Z</time>
      </trkpt>
      <trkpt lat="43.02307" lon="0.54323">
        <ele>523</ele>
        <time>2018-03-18T11:02:07.000Z</time>
      </trkpt>
      <trkpt lat="43.02307" lon="0.54323">
        <ele>523</ele>
        <time>2018-03-18T11:02:09.000Z</time>
      </trkpt>
      <trkpt lat="43.02308" lon="0.54322">
        <ele>523</ele>
        <time>2018-03-18T11:02:11.000Z</time>
      </trkpt>
      <trkpt lat="43.02309" lon="0.54323">
        <ele>523</ele>
        <time>2018-03-18T11:02:13.000Z</time>
      </trkpt>
      <trkpt lat="43.0231" lon="0.54323">
        <ele>523</ele>
        <time>2018-03-18T11:02:15.000Z</time>
      </trkpt>
      <trkpt lat="43.02311" lon="0.54323">
        <ele>523</ele>
        <time>2018-03-18T11:02:17.000Z</time>
      </trkpt>
      <trkpt lat="43.02311" lon="0.5432">
        <ele>523</ele>
        <time>2018-03-18T11:02:19.000Z</time>
      </trkpt>
      <trkpt lat="43.02311" lon="0.54319">
        <ele>524</ele>
        <time>2018-03-18T11:02:21.000Z</time>
      </trkpt>
      <trkpt lat="43.02312" lon="0.54318">
        <ele>524</ele>
        <time>2018-03-18T11:02:23.000Z</time>
      </trkpt>
      <trkpt lat="43.02313" lon="0.54317">
        <ele>524</ele>
        <time>2018-03-18T11:02:25.000Z</time>
      </trkpt>
      <trkpt lat="43.02315" lon="0.54314">
        <ele>524</ele>
        <time>2018-03-18T11:02:28.000Z</time>
      </trkpt>
      <trkpt lat="43.02316" lon="0.54312">
        <ele>524</ele>
        <time>2018-03-18T11:02:30.000Z</time>
      </trkpt>
      <trkpt lat="43.02317" lon="0.54313">
        <ele>524</ele>
        <time>2018-03-18T11:02:32.000Z</time>
      </trkpt>
      <trkpt lat="43.02316" lon="0.54315">
        <ele>524</ele>
        <time>2018-03-18T11:02:34.000Z</time>
      </trkpt>
      <trkpt lat="43.02315" lon="0.54317">
        <ele>524</ele>
        <time>2018-03-18T11:02:36.000Z</time>
      </trkpt>
      <trkpt lat="43.02315" lon="0.54318">
        <ele>524</ele>
        <time>2018-03-18T11:02:38.000Z</time>
      </trkpt>
      <trkpt lat="43.02315" lon="0.5432">
        <ele>524</ele>
        <time>2018-03-18T11:02:40.000Z</time>
      </trkpt>
      <trkpt lat="43.02316" lon="0.54321">
        <ele>524</ele>
        <time>2018-03-18T11:02:43.000Z</time>
      </trkpt>
      <trkpt lat="43.02317" lon="0.54321">
        <ele>524</ele>
        <time>2018-03-18T11:02:45.000Z</time>
      </trkpt>
      <trkpt lat="43.02317" lon="0.54321">
        <ele>524</ele>
        <time>2018-03-18T11:02:47.000Z</time>
      </trkpt>
      <trkpt lat="43.02319" lon="0.54322">
        <ele>524</ele>
        <time>2018-03-18T11:02:49.000Z</time>
      </trkpt>
      <trkpt lat="43.0232" lon="0.54322">
        <ele>524</ele>
        <time>2018-03-18T11:02:51.000Z</time>
      </trkpt>
      <trkpt lat="43.02319" lon="0.54325">
        <ele>523</ele>
        <time>2018-03-18T11:02:53.000Z</time>
      </trkpt>
      <trkpt lat="43.02318" lon="0.54328">
        <ele>523</ele>
        <time>2018-03-18T11:02:55.000Z</time>
      </trkpt>
      <trkpt lat="43.02318" lon="0.5433">
        <ele>523</ele>
        <time>2018-03-18T11:02:57.000Z</time>
      </trkpt>
      <trkpt lat="43.02317" lon="0.54332">
        <ele>523</ele>
        <time>2018-03-18T11:02:59.000Z</time>
      </trkpt>
      <trkpt lat="43.02314" lon="0.54336">
        <ele>522</ele>
        <time>2018-03-18T11:03:01.000Z</time>
      </trkpt>
      <trkpt lat="43.02315" lon="0.54329">
        <ele>523</ele>
        <time>2018-03-18T11:03:03.000Z</time>
      </trkpt>
      <trkpt lat="43.02315" lon="0.54326">
        <ele>523</ele>
        <time>2018-03-18T11:03:05.000Z</time>
      </trkpt>
      <trkpt lat="43.02317" lon="0.54323">
        <ele>523</ele>
        <time>2018-03-18T11:03:07.000Z</time>
      </trkpt>
      <trkpt lat="43.02318" lon="0.54322">
        <ele>524</ele>
        <time>2018-03-18T11:03:09.000Z</time>
      </trkpt>
      <trkpt lat="43.02318" lon="0.54321">
        <ele>524</ele>
        <time>2018-03-18T11:03:11.000Z</time>
      </trkpt>
      <trkpt lat="43.02319" lon="0.54321">
        <ele>524</ele>
        <time>2018-03-18T11:03:13.000Z</time>
      </trkpt>
      <trkpt lat="43.02318" lon="0.54321">
        <ele>524</ele>
        <time>2018-03-18T11:03:15.000Z</time>
      </trkpt>
      <trkpt lat="43.02319" lon="0.5432">
        <ele>524</ele>
        <time>2018-03-18T11:03:17.000Z</time>
      </trkpt>
      <trkpt lat="43.02317" lon="0.54321">
        <ele>524</ele>
        <time>2018-03-18T11:03:19.000Z</time>
      </trkpt>
      <trkpt lat="43.02315" lon="0.54319">
        <ele>524</ele>
        <time>2018-03-18T11:03:21.000Z</time>
      </trkpt>
      <trkpt lat="43.02314" lon="0.54319">
        <ele>524</ele>
        <time>2018-03-18T11:03:23.000Z</time>
      </trkpt>
      <trkpt lat="43.02313" lon="0.54319">
        <ele>524</ele>
        <time>2018-03-18T11:03:25.000Z</time>
      </trkpt>
      <trkpt lat="43.02312" lon="0.54319">
        <ele>524</ele>
        <time>2018-03-18T11:03:27.000Z</time>
      </trkpt>
      <trkpt lat="43.02311" lon="0.5432">
        <ele>523</ele>
        <time>2018-03-18T11:03:29.000Z</time>
      </trkpt>
      <trkpt lat="43.0231" lon="0.5432">
        <ele>523</ele>
        <time>2018-03-18T11:03:31.000Z</time>
      </trkpt>
      <trkpt lat="43.0231" lon="0.54319">
        <ele>524</ele>
        <time>2018-03-18T11:03:33.000Z</time>
      </trkpt>
      <trkpt lat="43.0231" lon="0.54318">
        <ele>524</ele>
        <time>2018-03-18T11:03:35.000Z</time>
      </trkpt>
      <trkpt lat="43.0231" lon="0.54319">
        <ele>524</ele>
        <time>2018-03-18T11:03:37.000Z</time>
      </trkpt>
      <trkpt lat="43.02309" lon="0.5432">
        <ele>523</ele>
        <time>2018-03-18T11:03:39.000Z</time>
      </trkpt>
      <trkpt lat="43.02308" lon="0.5432">
        <ele>523</ele>
        <time>2018-03-18T11:03:41.000Z</time>
      </trkpt>
      <trkpt lat="43.02309" lon="0.54321">
        <ele>523</ele>
        <time>2018-03-18T11:03:43.000Z</time>
      </trkpt>
      <trkpt lat="43.0231" lon="0.54321">
        <ele>523</ele>
        <time>2018-03-18T11:03:45.000Z</time>
      </trkpt>
      <trkpt lat="43.02311" lon="0.5432">
        <ele>523</ele>
        <time>2018-03-18T11:03:47.000Z</time>
      </trkpt>
      <trkpt lat="43.02311" lon="0.5432">
        <ele>524</ele>
        <time>2018-03-18T11:03:49.000Z</time>
      </trkpt>
      <trkpt lat="43.02311" lon="0.54319">
        <ele>524</ele>
        <time>2018-03-18T11:03:51.000Z</time>
      </trkpt>
      <trkpt lat="43.02312" lon="0.54318">
        <ele>524</ele>
        <time>2018-03-18T11:03:53.000Z</time>
      </trkpt>
      <trkpt lat="43.02311" lon="0.54317">
        <ele>524</ele>
        <time>2018-03-18T11:03:55.000Z</time>
      </trkpt>
      <trkpt lat="43.02311" lon="0.54317">
        <ele>524</ele>
        <time>2018-03-18T11:03:57.000Z</time>
      </trkpt>
      <trkpt lat="43.02311" lon="0.54317">
        <ele>524</ele>
        <time>2018-03-18T11:03:59.000Z</time>
      </trkpt>
      <trkpt lat="43.02311" lon="0.54317">
        <ele>524</ele>
        <time>2018-03-18T11:04:01.000Z</time>
      </trkpt>
      <trkpt lat="43.02312" lon="0.54317">
        <ele>524</ele>
        <time>2018-03-18T11:04:03.000Z</time>
      </trkpt>
      <trkpt lat="43.02312" lon="0.54317">
        <ele>524</ele>
        <time>2018-03-18T11:04:05.000Z</time>
      </trkpt>
      <trkpt lat="43.02312" lon="0.54318">
        <ele>524</ele>
        <time>2018-03-18T11:04:07.000Z</time>
      </trkpt>
      <trkpt lat="43.02313" lon="0.54318">
        <ele>524</ele>
        <time>2018-03-18T11:04:09.000Z</time>
      </trkpt>
      <trkpt lat="43.02312" lon="0.54319">
        <ele>524</ele>
        <time>2018-03-18T11:04:11.000Z</time>
      </trkpt>
      <trkpt lat="43.02312" lon="0.54319">
        <ele>524</ele>
        <time>2018-03-18T11:04:13.000Z</time>
      </trkpt>
      <trkpt lat="43.02312" lon="0.5432">
        <ele>524</ele>
        <time>2018-03-18T11:04:15.000Z</time>
      </trkpt>
      <trkpt lat="43.02312" lon="0.54319">
        <ele>524</ele>
        <time>2018-03-18T11:04:17.000Z</time>
      </trkpt>
      <trkpt lat="43.02313" lon="0.54319">
        <ele>524</ele>
        <time>2018-03-18T11:04:19.000Z</time>
      </trkpt>
      <trkpt lat="43.02314" lon="0.54319">
        <ele>524</ele>
        <time>2018-03-18T11:04:21.000Z</time>
      </trkpt>
      <trkpt lat="43.02315" lon="0.54318">
        <ele>524</ele>
        <time>2018-03-18T11:04:23.000Z</time>
      </trkpt>
      <trkpt lat="43.02315" lon="0.54317">
        <ele>524</ele>
        <time>2018-03-18T11:04:25.000Z</time>
      </trkpt>
      <trkpt lat="43.02315" lon="0.54318">
        <ele>524</ele>
        <time>2018-03-18T11:04:27.000Z</time>
      </trkpt>
      <trkpt lat="43.02315" lon="0.54318">
        <ele>524</ele>
        <time>2018-03-18T11:04:29.000Z</time>
      </trkpt>
      <trkpt lat="43.02316" lon="0.54318">
        <ele>524</ele>
        <time>2018-03-18T11:04:31.000Z</time>
      </trkpt>
      <trkpt lat="43.02316" lon="0.54318">
        <ele>524</ele>
        <time>2018-03-18T11:04:33.000Z</time>
      </trkpt>
      <trkpt lat="43.02315" lon="0.54318">
        <ele>524</ele>
        <time>2018-03-18T11:04:35.000Z</time>
      </trkpt>
      <trkpt lat="43.02314" lon="0.54318">
        <ele>524</ele>
        <time>2018-03-18T11:04:37.000Z</time>
      </trkpt>
      <trkpt lat="43.02315" lon="0.54317">
        <ele>524</ele>
        <time>2018-03-18T11:04:39.000Z</time>
      </trkpt>
      <trkpt lat="43.02315" lon="0.54317">
        <ele>524</ele>
        <time>2018-03-18T11:04:41.000Z</time>
      </trkpt>
      <trkpt lat="43.02315" lon="0.54318">
        <ele>524</ele>
        <time>2018-03-18T11:04:43.000Z</time>
      </trkpt>
      <trkpt lat="43.02315" lon="0.54317">
        <ele>524</ele>
        <time>2018-03-18T11:04:45.000Z</time>
      </trkpt>
      <trkpt lat="43.02315" lon="0.54318">
        <ele>524</ele>
        <time>2018-03-18T11:04:47.000Z</time>
      </trkpt>
      <trkpt lat="43.02315" lon="0.54317">
        <ele>524</ele>
        <time>2018-03-18T11:04:49.000Z</time>
      </trkpt>
      <trkpt lat="43.02314" lon="0.54316">
        <ele>524</ele>
        <time>2018-03-18T11:04:51.000Z</time>
      </trkpt>
      <trkpt lat="43.02313" lon="0.54317">
        <ele>524</ele>
        <time>2018-03-18T11:04:54.000Z</time>
      </trkpt>
      <trkpt lat="43.02311" lon="0.54318">
        <ele>524</ele>
        <time>2018-03-18T11:04:56.000Z</time>
      </trkpt>
      <trkpt lat="43.0231" lon="0.54317">
        <ele>524</ele>
        <time>2018-03-18T11:04:58.000Z</time>
      </trkpt>
      <trkpt lat="43.0231" lon="0.54317">
        <ele>524</ele>
        <time>2018-03-18T11:05:00.000Z</time>
      </trkpt>
      <trkpt lat="43.02308" lon="0.54316">
        <ele>524</ele>
        <time>2018-03-18T11:05:02.000Z</time>
      </trkpt>
      <trkpt lat="43.02308" lon="0.54315">
        <ele>524</ele>
        <time>2018-03-18T11:05:04.000Z</time>
      </trkpt>
      <trkpt lat="43.02306" lon="0.54319">
        <ele>523</ele>
        <time>2018-03-18T11:05:06.000Z</time>
      </trkpt>
      <trkpt lat="43.02306" lon="0.54318">
        <ele>523</ele>
        <time>2018-03-18T11:05:09.000Z</time>
      </trkpt>
      <trkpt lat="43.02307" lon="0.54317">
        <ele>524</ele>
        <time>2018-03-18T11:05:11.000Z</time>
      </trkpt>
      <trkpt lat="43.02307" lon="0.54316">
        <ele>524</ele>
        <time>2018-03-18T11:05:13.000Z</time>
      </trkpt>
      <trkpt lat="43.02308" lon="0.54315">
        <ele>524</ele>
        <time>2018-03-18T11:05:15.000Z</time>
      </trkpt>
      <trkpt lat="43.02309" lon="0.54314">
        <ele>524</ele>
        <time>2018-03-18T11:05:17.000Z</time>
      </trkpt>
      <trkpt lat="43.0231" lon="0.54314">
        <ele>524</ele>
        <time>2018-03-18T11:05:19.000Z</time>
      </trkpt>
      <trkpt lat="43.02311" lon="0.54312">
        <ele>524</ele>
        <time>2018-03-18T11:05:21.000Z</time>
      </trkpt>
      <trkpt lat="43.02314" lon="0.54311">
        <ele>524</ele>
        <time>2018-03-18T11:05:23.000Z</time>
      </trkpt>
      <trkpt lat="43.02315" lon="0.54309">
        <ele>524</ele>
        <time>2018-03-18T11:05:25.000Z</time>
      </trkpt>
      <trkpt lat="43.02316" lon="0.54308">
        <ele>524</ele>
        <time>2018-03-18T11:05:27.000Z</time>
      </trkpt>
      <trkpt lat="43.02316" lon="0.54309">
        <ele>524</ele>
        <time>2018-03-18T11:05:29.000Z</time>
      </trkpt>
      <trkpt lat="43.02312" lon="0.54312">
        <ele>524</ele>
        <time>2018-03-18T11:05:32.000Z</time>
      </trkpt>
      <trkpt lat="43.02311" lon="0.54311">
        <ele>524</ele>
        <time>2018-03-18T11:05:34.000Z</time>
      </trkpt>
      <trkpt lat="43.02311" lon="0.54311">
        <ele>524</ele>
        <time>2018-03-18T11:05:36.000Z</time>
      </trkpt>
      <trkpt lat="43.02311" lon="0.54311">
        <ele>524</ele>
        <time>2018-03-18T11:05:38.000Z</time>
      </trkpt>
      <trkpt lat="43.02312" lon="0.54311">
        <ele>524</ele>
        <time>2018-03-18T11:05:40.000Z</time>
      </trkpt>
      <trkpt lat="43.02312" lon="0.54311">
        <ele>524</ele>
        <time>2018-03-18T11:05:42.000Z</time>
      </trkpt>
      <trkpt lat="43.02312" lon="0.54312">
        <ele>524</ele>
        <time>2018-03-18T11:05:44.000Z</time>
      </trkpt>
      <trkpt lat="43.02312" lon="0.54312">
        <ele>524</ele>
        <time>2018-03-18T11:05:46.000Z</time>
      </trkpt>
      <trkpt lat="43.02311" lon="0.54312">
        <ele>524</ele>
        <time>2018-03-18T11:05:48.000Z</time>
      </trkpt>
      <trkpt lat="43.02311" lon="0.54312">
        <ele>524</ele>
        <time>2018-03-18T11:05:50.000Z</time>
      </trkpt>
      <trkpt lat="43.02311" lon="0.5431">
        <ele>524</ele>
        <time>2018-03-18T11:05:52.000Z</time>
      </trkpt>
      <trkpt lat="43.02311" lon="0.54309">
        <ele>524</ele>
        <time>2018-03-18T11:05:54.000Z</time>
      </trkpt>
      <trkpt lat="43.02311" lon="0.54309">
        <ele>524</ele>
        <time>2018-03-18T11:05:56.000Z</time>
      </trkpt>
      <trkpt lat="43.02311" lon="0.54309">
        <ele>524</ele>
        <time>2018-03-18T11:05:58.000Z</time>
      </trkpt>
      <trkpt lat="43.02311" lon="0.54309">
        <ele>524</ele>
        <time>2018-03-18T11:06:00.000Z</time>
      </trkpt>
      <trkpt lat="43.0231" lon="0.54309">
        <ele>524</ele>
        <time>2018-03-18T11:06:02.000Z</time>
      </trkpt>
      <trkpt lat="43.0231" lon="0.54309">
        <ele>524</ele>
        <time>2018-03-18T11:06:04.000Z</time>
      </trkpt>
      <trkpt lat="43.0231" lon="0.54308">
        <ele>524</ele>
        <time>2018-03-18T11:06:06.000Z</time>
      </trkpt>
      <trkpt lat="43.0231" lon="0.54308">
        <ele>524</ele>
        <time>2018-03-18T11:06:08.000Z</time>
      </trkpt>
      <trkpt lat="43.02309" lon="0.54313">
        <ele>524</ele>
        <time>2018-03-18T11:06:10.000Z</time>
      </trkpt>
      <trkpt lat="43.02305" lon="0.54315">
        <ele>524</ele>
        <time>2018-03-18T11:06:12.000Z</time>
      </trkpt>
      <trkpt lat="43.02306" lon="0.54316">
        <ele>524</ele>
        <time>2018-03-18T11:06:14.000Z</time>
      </trkpt>
      <trkpt lat="43.02306" lon="0.54316">
        <ele>524</ele>
        <time>2018-03-18T11:06:16.000Z</time>
      </trkpt>
      <trkpt lat="43.02307" lon="0.54317">
        <ele>524</ele>
        <time>2018-03-18T11:06:18.000Z</time>
      </trkpt>
      <trkpt lat="43.02308" lon="0.54317">
        <ele>524</ele>
        <time>2018-03-18T11:06:20.000Z</time>
      </trkpt>
      <trkpt lat="43.02308" lon="0.54318">
        <ele>524</ele>
        <time>2018-03-18T11:06:22.000Z</time>
      </trkpt>
      <trkpt lat="43.02308" lon="0.54317">
        <ele>524</ele>
        <time>2018-03-18T11:06:24.000Z</time>
      </trkpt>
      <trkpt lat="43.02309" lon="0.54316">
        <ele>524</ele>
        <time>2018-03-18T11:06:26.000Z</time>
      </trkpt>
      <trkpt lat="43.0231" lon="0.54315">
        <ele>524</ele>
        <time>2018-03-18T11:06:28.000Z</time>
      </trkpt>
      <trkpt lat="43.02311" lon="0.54315">
        <ele>524</ele>
        <time>2018-03-18T11:06:30.000Z</time>
      </trkpt>
      <trkpt lat="43.02312" lon="0.54313">
        <ele>524</ele>
        <time>2018-03-18T11:06:32.000Z</time>
      </trkpt>
      <trkpt lat="43.02313" lon="0.54313">
        <ele>524</ele>
        <time>2018-03-18T11:06:34.000Z</time>
      </trkpt>
      <trkpt lat="43.02314" lon="0.54312">
        <ele>524</ele>
        <time>2018-03-18T11:06:36.000Z</time>
      </trkpt>
      <trkpt lat="43.02315" lon="0.5431">
        <ele>524</ele>
        <time>2018-03-18T11:06:38.000Z</time>
      </trkpt>
      <trkpt lat="43.02315" lon="0.5431">
        <ele>524</ele>
        <time>2018-03-18T11:06:40.000Z</time>
      </trkpt>
      <trkpt lat="43.02315" lon="0.54309">
        <ele>524</ele>
        <time>2018-03-18T11:06:42.000Z</time>
      </trkpt>
      <trkpt lat="43.02314" lon="0.54309">
        <ele>524</ele>
        <time>2018-03-18T11:06:44.000Z</time>
      </trkpt>
      <trkpt lat="43.02314" lon="0.5431">
        <ele>524</ele>
        <time>2018-03-18T11:06:46.000Z</time>
      </trkpt>
      <trkpt lat="43.02314" lon="0.54311">
        <ele>524</ele>
        <time>2018-03-18T11:06:48.000Z</time>
      </trkpt>
      <trkpt lat="43.02313" lon="0.54313">
        <ele>524</ele>
        <time>2018-03-18T11:06:50.000Z</time>
      </trkpt>
      <trkpt lat="43.02312" lon="0.54315">
        <ele>524</ele>
        <time>2018-03-18T11:06:52.000Z</time>
      </trkpt>
      <trkpt lat="43.02311" lon="0.54317">
        <ele>524</ele>
        <time>2018-03-18T11:06:54.000Z</time>
      </trkpt>
      <trkpt lat="43.0231" lon="0.5432">
        <ele>523</ele>
        <time>2018-03-18T11:06:56.000Z</time>
      </trkpt>
      <trkpt lat="43.02309" lon="0.54321">
        <ele>523</ele>
        <time>2018-03-18T11:06:58.000Z</time>
      </trkpt>
      <trkpt lat="43.02309" lon="0.54322">
        <ele>523</ele>
        <time>2018-03-18T11:07:00.000Z</time>
      </trkpt>
      <trkpt lat="43.02308" lon="0.54323">
        <ele>523</ele>
        <time>2018-03-18T11:07:02.000Z</time>
      </trkpt>
      <trkpt lat="43.02308" lon="0.54321">
        <ele>523</ele>
        <time>2018-03-18T11:07:04.000Z</time>
      </trkpt>
      <trkpt lat="43.02309" lon="0.54319">
        <ele>523</ele>
        <time>2018-03-18T11:07:06.000Z</time>
      </trkpt>
      <trkpt lat="43.02309" lon="0.54317">
        <ele>524</ele>
        <time>2018-03-18T11:07:08.000Z</time>
      </trkpt>
      <trkpt lat="43.02309" lon="0.54315">
        <ele>524</ele>
        <time>2018-03-18T11:07:10.000Z</time>
      </trkpt>
      <trkpt lat="43.02309" lon="0.54315">
        <ele>524</ele>
        <time>2018-03-18T11:07:12.000Z</time>
      </trkpt>
      <trkpt lat="43.0231" lon="0.54314">
        <ele>524</ele>
        <time>2018-03-18T11:07:14.000Z</time>
      </trkpt>
      <trkpt lat="43.02311" lon="0.54314">
        <ele>524</ele>
        <time>2018-03-18T11:07:16.000Z</time>
      </trkpt>
      <trkpt lat="43.02311" lon="0.54313">
        <ele>524</ele>
        <time>2018-03-18T11:07:18.000Z</time>
      </trkpt>
      <trkpt lat="43.02311" lon="0.54313">
        <ele>524</ele>
        <time>2018-03-18T11:07:20.000Z</time>
      </trkpt>
      <trkpt lat="43.02311" lon="0.54312">
        <ele>524</ele>
        <time>2018-03-18T11:07:22.000Z</time>
      </trkpt>
      <trkpt lat="43.02309" lon="0.54313">
        <ele>524</ele>
        <time>2018-03-18T11:07:24.000Z</time>
      </trkpt>
      <trkpt lat="43.02308" lon="0.54313">
        <ele>524</ele>
        <time>2018-03-18T11:07:26.000Z</time>
      </trkpt>
      <trkpt lat="43.02308" lon="0.54314">
        <ele>524</ele>
        <time>2018-03-18T11:07:28.000Z</time>
      </trkpt>
      <trkpt lat="43.02307" lon="0.54314">
        <ele>524</ele>
        <time>2018-03-18T11:07:30.000Z</time>
      </trkpt>
      <trkpt lat="43.02307" lon="0.54315">
        <ele>524</ele>
        <time>2018-03-18T11:07:32.000Z</time>
      </trkpt>
      <trkpt lat="43.02307" lon="0.54315">
        <ele>524</ele>
        <time>2018-03-18T11:07:34.000Z</time>
      </trkpt>
      <trkpt lat="43.02308" lon="0.54316">
        <ele>524</ele>
        <time>2018-03-18T11:07:36.000Z</time>
      </trkpt>
      <trkpt lat="43.02309" lon="0.54315">
        <ele>524</ele>
        <time>2018-03-18T11:07:38.000Z</time>
      </trkpt>
      <trkpt lat="43.0231" lon="0.54315">
        <ele>524</ele>
        <time>2018-03-18T11:07:40.000Z</time>
      </trkpt>
      <trkpt lat="43.0231" lon="0.54315">
        <ele>524</ele>
        <time>2018-03-18T11:07:42.000Z</time>
      </trkpt>
      <trkpt lat="43.02311" lon="0.54315">
        <ele>524</ele>
        <time>2018-03-18T11:07:44.000Z</time>
      </trkpt>
      <trkpt lat="43.02312" lon="0.54314">
        <ele>524</ele>
        <time>2018-03-18T11:07:46.000Z</time>
      </trkpt>
      <trkpt lat="43.02313" lon="0.54314">
        <ele>524</ele>
        <time>2018-03-18T11:07:48.000Z</time>
      </trkpt>
      <trkpt lat="43.02314" lon="0.54313">
        <ele>524</ele>
        <time>2018-03-18T11:07:50.000Z</time>
      </trkpt>
      <trkpt lat="43.02315" lon="0.54312">
        <ele>524</ele>
        <time>2018-03-18T11:07:52.000Z</time>
      </trkpt>
      <trkpt lat="43.02315" lon="0.54312">
        <ele>524</ele>
        <time>2018-03-18T11:07:54.000Z</time>
      </trkpt>
      <trkpt lat="43.02316" lon="0.54311">
        <ele>524</ele>
        <time>2018-03-18T11:07:56.000Z</time>
      </trkpt>
      <trkpt lat="43.02316" lon="0.54309">
        <ele>524</ele>
        <time>2018-03-18T11:07:58.000Z</time>
      </trkpt>
      <trkpt lat="43.02317" lon="0.54307">
        <ele>525</ele>
        <time>2018-03-18T11:08:00.000Z</time>
      </trkpt>
      <trkpt lat="43.02317" lon="0.54307">
        <ele>525</ele>
        <time>2018-03-18T11:08:02.000Z</time>
      </trkpt>
      <trkpt lat="43.02318" lon="0.54306">
        <ele>525</ele>
        <time>2018-03-18T11:08:04.000Z</time>
      </trkpt>
      <trkpt lat="43.02318" lon="0.54303">
        <ele>525</ele>
        <time>2018-03-18T11:08:06.000Z</time>
      </trkpt>
      <trkpt lat="43.02319" lon="0.54301">
        <ele>525</ele>
        <time>2018-03-18T11:08:08.000Z</time>
      </trkpt>
      <trkpt lat="43.0232" lon="0.54299">
        <ele>525</ele>
        <time>2018-03-18T11:08:10.000Z</time>
      </trkpt>
      <trkpt lat="43.02321" lon="0.54297">
        <ele>526</ele>
        <time>2018-03-18T11:08:12.000Z</time>
      </trkpt>
      <trkpt lat="43.02321" lon="0.54296">
        <ele>526</ele>
        <time>2018-03-18T11:08:14.000Z</time>
      </trkpt>
      <trkpt lat="43.02321" lon="0.54295">
        <ele>526</ele>
        <time>2018-03-18T11:08:16.000Z</time>
      </trkpt>
      <trkpt lat="43.02321" lon="0.54297">
        <ele>526</ele>
        <time>2018-03-18T11:08:18.000Z</time>
      </trkpt>
      <trkpt lat="43.0232" lon="0.54301">
        <ele>525</ele>
        <time>2018-03-18T11:08:20.000Z</time>
      </trkpt>
      <trkpt lat="43.02319" lon="0.54302">
        <ele>525</ele>
        <time>2018-03-18T11:08:22.000Z</time>
      </trkpt>
      <trkpt lat="43.02319" lon="0.54302">
        <ele>525</ele>
        <time>2018-03-18T11:08:24.000Z</time>
      </trkpt>
      <trkpt lat="43.02318" lon="0.54305">
        <ele>525</ele>
        <time>2018-03-18T11:08:26.000Z</time>
      </trkpt>
      <trkpt lat="43.02317" lon="0.54308">
        <ele>525</ele>
        <time>2018-03-18T11:08:28.000Z</time>
      </trkpt>
      <trkpt lat="43.02317" lon="0.5431">
        <ele>524</ele>
        <time>2018-03-18T11:08:30.000Z</time>
      </trkpt>
      <trkpt lat="43.02317" lon="0.54311">
        <ele>524</ele>
        <time>2018-03-18T11:08:32.000Z</time>
      </trkpt>
      <trkpt lat="43.02315" lon="0.54313">
        <ele>524</ele>
        <time>2018-03-18T11:08:34.000Z</time>
      </trkpt>
      <trkpt lat="43.02314" lon="0.54315">
        <ele>524</ele>
        <time>2018-03-18T11:08:36.000Z</time>
      </trkpt>
      <trkpt lat="43.02313" lon="0.54315">
        <ele>524</ele>
        <time>2018-03-18T11:08:38.000Z</time>
      </trkpt>
      <trkpt lat="43.02313" lon="0.54316">
        <ele>524</ele>
        <time>2018-03-18T11:08:40.000Z</time>
      </trkpt>
      <trkpt lat="43.02313" lon="0.54316">
        <ele>524</ele>
        <time>2018-03-18T11:08:42.000Z</time>
      </trkpt>
      <trkpt lat="43.02312" lon="0.54316">
        <ele>524</ele>
        <time>2018-03-18T11:08:44.000Z</time>
      </trkpt>
      <trkpt lat="43.02313" lon="0.54314">
        <ele>524</ele>
        <time>2018-03-18T11:08:46.000Z</time>
      </trkpt>
      <trkpt lat="43.02313" lon="0.54313">
        <ele>524</ele>
        <time>2018-03-18T11:08:48.000Z</time>
      </trkpt>
      <trkpt lat="43.02314" lon="0.54312">
        <ele>524</ele>
        <time>2018-03-18T11:08:50.000Z</time>
      </trkpt>
      <trkpt lat="43.02314" lon="0.54312">
        <ele>524</ele>
        <time>2018-03-18T11:08:52.000Z</time>
      </trkpt>
      <trkpt lat="43.02314" lon="0.54312">
        <ele>524</ele>
        <time>2018-03-18T11:08:54.000Z</time>
      </trkpt>
      <trkpt lat="43.02315" lon="0.54313">
        <ele>524</ele>
        <time>2018-03-18T11:08:56.000Z</time>
      </trkpt>
      <trkpt lat="43.02315" lon="0.54313">
        <ele>524</ele>
        <time>2018-03-18T11:08:58.000Z</time>
      </trkpt>
      <trkpt lat="43.02315" lon="0.54314">
        <ele>524</ele>
        <time>2018-03-18T11:09:00.000Z</time>
      </trkpt>
      <trkpt lat="43.02314" lon="0.54315">
        <ele>524</ele>
        <time>2018-03-18T11:09:02.000Z</time>
      </trkpt>
      <trkpt lat="43.02314" lon="0.54316">
        <ele>524</ele>
        <time>2018-03-18T11:09:04.000Z</time>
      </trkpt>
      <trkpt lat="43.02314" lon="0.54317">
        <ele>524</ele>
        <time>2018-03-18T11:09:06.000Z</time>
      </trkpt>
      <trkpt lat="43.02316" lon="0.54317">
        <ele>524</ele>
        <time>2018-03-18T11:09:08.000Z</time>
      </trkpt>
      <trkpt lat="43.02318" lon="0.54317">
        <ele>524</ele>
        <time>2018-03-18T11:09:10.000Z</time>
      </trkpt>
      <trkpt lat="43.02318" lon="0.54317">
        <ele>524</ele>
        <time>2018-03-18T11:09:12.000Z</time>
      </trkpt>
      <trkpt lat="43.02318" lon="0.54316">
        <ele>524</ele>
        <time>2018-03-18T11:09:14.000Z</time>
      </trkpt>
      <trkpt lat="43.02318" lon="0.54316">
        <ele>524</ele>
        <time>2018-03-18T11:09:16.000Z</time>
      </trkpt>
      <trkpt lat="43.02318" lon="0.54317">
        <ele>524</ele>
        <time>2018-03-18T11:09:18.000Z</time>
      </trkpt>
      <trkpt lat="43.02318" lon="0.54315">
        <ele>524</ele>
        <time>2018-03-18T11:09:20.000Z</time>
      </trkpt>
      <trkpt lat="43.02318" lon="0.54313">
        <ele>524</ele>
        <time>2018-03-18T11:09:22.000Z</time>
      </trkpt>
      <trkpt lat="43.02317" lon="0.54311">
        <ele>524</ele>
        <time>2018-03-18T11:09:24.000Z</time>
      </trkpt>
      <trkpt lat="43.02317" lon="0.5431">
        <ele>524</ele>
        <time>2018-03-18T11:09:26.000Z</time>
      </trkpt>
      <trkpt lat="43.02317" lon="0.5431">
        <ele>524</ele>
        <time>2018-03-18T11:09:28.000Z</time>
      </trkpt>
      <trkpt lat="43.02316" lon="0.54311">
        <ele>524</ele>
        <time>2018-03-18T11:09:30.000Z</time>
      </trkpt>
      <trkpt lat="43.02315" lon="0.54311">
        <ele>524</ele>
        <time>2018-03-18T11:09:32.000Z</time>
      </trkpt>
      <trkpt lat="43.02315" lon="0.54311">
        <ele>524</ele>
        <time>2018-03-18T11:09:34.000Z</time>
      </trkpt>
      <trkpt lat="43.02316" lon="0.54311">
        <ele>524</ele>
        <time>2018-03-18T11:09:36.000Z</time>
      </trkpt>
      <trkpt lat="43.02316" lon="0.54312">
        <ele>524</ele>
        <time>2018-03-18T11:09:38.000Z</time>
      </trkpt>
      <trkpt lat="43.02315" lon="0.54312">
        <ele>524</ele>
        <time>2018-03-18T11:09:40.000Z</time>
      </trkpt>
      <trkpt lat="43.02314" lon="0.54314">
        <ele>524</ele>
        <time>2018-03-18T11:09:42.000Z</time>
      </trkpt>
      <trkpt lat="43.02313" lon="0.54316">
        <ele>524</ele>
        <time>2018-03-18T11:09:44.000Z</time>
      </trkpt>
      <trkpt lat="43.02312" lon="0.54317">
        <ele>524</ele>
        <time>2018-03-18T11:09:46.000Z</time>
      </trkpt>
      <trkpt lat="43.02311" lon="0.54319">
        <ele>524</ele>
        <time>2018-03-18T11:09:48.000Z</time>
      </trkpt>
      <trkpt lat="43.02311" lon="0.54319">
        <ele>524</ele>
        <time>2018-03-18T11:09:50.000Z</time>
      </trkpt>
      <trkpt lat="43.02312" lon="0.54319">
        <ele>524</ele>
        <time>2018-03-18T11:09:52.000Z</time>
      </trkpt>
      <trkpt lat="43.02314" lon="0.54317">
        <ele>524</ele>
        <time>2018-03-18T11:09:54.000Z</time>
      </trkpt>
      <trkpt lat="43.02316" lon="0.54316">
        <ele>524</ele>
        <time>2018-03-18T11:09:56.000Z</time>
      </trkpt>
      <trkpt lat="43.02318" lon="0.54315">
        <ele>524</ele>
        <time>2018-03-18T11:09:58.000Z</time>
      </trkpt>
      <trkpt lat="43.02318" lon="0.54314">
        <ele>524</ele>
        <time>2018-03-18T11:10:00.000Z</time>
      </trkpt>
      <trkpt lat="43.02318" lon="0.54314">
        <ele>524</ele>
        <time>2018-03-18T11:10:02.000Z</time>
      </trkpt>
      <trkpt lat="43.02317" lon="0.54314">
        <ele>524</ele>
        <time>2018-03-18T11:10:04.000Z</time>
      </trkpt>
      <trkpt lat="43.02318" lon="0.54313">
        <ele>524</ele>
        <time>2018-03-18T11:10:06.000Z</time>
      </trkpt>
      <trkpt lat="43.02318" lon="0.54314">
        <ele>524</ele>
        <time>2018-03-18T11:10:08.000Z</time>
      </trkpt>
      <trkpt lat="43.02318" lon="0.54314">
        <ele>524</ele>
        <time>2018-03-18T11:10:10.000Z</time>
      </trkpt>
      <trkpt lat="43.02315" lon="0.54317">
        <ele>524</ele>
        <time>2018-03-18T11:10:12.000Z</time>
      </trkpt>
      <trkpt lat="43.02313" lon="0.54318">
        <ele>524</ele>
        <time>2018-03-18T11:10:14.000Z</time>
      </trkpt>
      <trkpt lat="43.02312" lon="0.54319">
        <ele>524</ele>
        <time>2018-03-18T11:10:16.000Z</time>
      </trkpt>
      <trkpt lat="43.02311" lon="0.54319">
        <ele>524</ele>
        <time>2018-03-18T11:10:18.000Z</time>
      </trkpt>
      <trkpt lat="43.0231" lon="0.54319">
        <ele>524</ele>
        <time>2018-03-18T11:10:20.000Z</time>
      </trkpt>
      <trkpt lat="43.0231" lon="0.54319">
        <ele>524</ele>
        <time>2018-03-18T11:10:22.000Z</time>
      </trkpt>
      <trkpt lat="43.0231" lon="0.54317">
        <ele>524</ele>
        <time>2018-03-18T11:10:24.000Z</time>
      </trkpt>
      <trkpt lat="43.0231" lon="0.54316">
        <ele>524</ele>
        <time>2018-03-18T11:10:26.000Z</time>
      </trkpt>
      <trkpt lat="43.0231" lon="0.54315">
        <ele>524</ele>
        <time>2018-03-18T11:10:28.000Z</time>
      </trkpt>
      <trkpt lat="43.0231" lon="0.54314">
        <ele>524</ele>
        <time>2018-03-18T11:10:30.000Z</time>
      </trkpt>
      <trkpt lat="43.02311" lon="0.54313">
        <ele>524</ele>
        <time>2018-03-18T11:10:32.000Z</time>
      </trkpt>
      <trkpt lat="43.02311" lon="0.54313">
        <ele>524</ele>
        <time>2018-03-18T11:10:34.000Z</time>
      </trkpt>
      <trkpt lat="43.02312" lon="0.54311">
        <ele>524</ele>
        <time>2018-03-18T11:10:36.000Z</time>
      </trkpt>
      <trkpt lat="43.02312" lon="0.54311">
        <ele>524</ele>
        <time>2018-03-18T11:10:38.000Z</time>
      </trkpt>
      <trkpt lat="43.02312" lon="0.54313">
        <ele>524</ele>
        <time>2018-03-18T11:10:40.000Z</time>
      </trkpt>
      <trkpt lat="43.02312" lon="0.54314">
        <ele>524</ele>
        <time>2018-03-18T11:10:42.000Z</time>
      </trkpt>
      <trkpt lat="43.02312" lon="0.54313">
        <ele>524</ele>
        <time>2018-03-18T11:10:44.000Z</time>
      </trkpt>
      <trkpt lat="43.02313" lon="0.54312">
        <ele>524</ele>
        <time>2018-03-18T11:10:46.000Z</time>
      </trkpt>
      <trkpt lat="43.02313" lon="0.54311">
        <ele>524</ele>
        <time>2018-03-18T11:10:48.000Z</time>
      </trkpt>
      <trkpt lat="43.02314" lon="0.5431">
        <ele>524</ele>
        <time>2018-03-18T11:10:50.000Z</time>
      </trkpt>
      <trkpt lat="43.02313" lon="0.54311">
        <ele>524</ele>
        <time>2018-03-18T11:10:52.000Z</time>
      </trkpt>
      <trkpt lat="43.02312" lon="0.54312">
        <ele>524</ele>
        <time>2018-03-18T11:10:54.000Z</time>
      </trkpt>
      <trkpt lat="43.02311" lon="0.54312">
        <ele>524</ele>
        <time>2018-03-18T11:10:56.000Z</time>
      </trkpt>
      <trkpt lat="43.02311" lon="0.54312">
        <ele>524</ele>
        <time>2018-03-18T11:10:58.000Z</time>
      </trkpt>
      <trkpt lat="43.02311" lon="0.54313">
        <ele>524</ele>
        <time>2018-03-18T11:11:00.000Z</time>
      </trkpt>
      <trkpt lat="43.02312" lon="0.54313">
        <ele>524</ele>
        <time>2018-03-18T11:11:02.000Z</time>
      </trkpt>
      <trkpt lat="43.02312" lon="0.54313">
        <ele>524</ele>
        <time>2018-03-18T11:11:04.000Z</time>
      </trkpt>
      <trkpt lat="43.02312" lon="0.54313">
        <ele>524</ele>
        <time>2018-03-18T11:11:06.000Z</time>
      </trkpt>
      <trkpt lat="43.02312" lon="0.54313">
        <ele>524</ele>
        <time>2018-03-18T11:11:08.000Z</time>
      </trkpt>
      <trkpt lat="43.02311" lon="0.54312">
        <ele>524</ele>
        <time>2018-03-18T11:11:10.000Z</time>
      </trkpt>
      <trkpt lat="43.02311" lon="0.54312">
        <ele>524</ele>
        <time>2018-03-18T11:11:12.000Z</time>
      </trkpt>
      <trkpt lat="43.02311" lon="0.54312">
        <ele>524</ele>
        <time>2018-03-18T11:11:14.000Z</time>
      </trkpt>
      <trkpt lat="43.02311" lon="0.54311">
        <ele>524</ele>
        <time>2018-03-18T11:11:16.000Z</time>
      </trkpt>
      <trkpt lat="43.02311" lon="0.54309">
        <ele>524</ele>
        <time>2018-03-18T11:11:18.000Z</time>
      </trkpt>
      <trkpt lat="43.0231" lon="0.54308">
        <ele>524</ele>
        <time>2018-03-18T11:11:20.000Z</time>
      </trkpt>
      <trkpt lat="43.02311" lon="0.54308">
        <ele>524</ele>
        <time>2018-03-18T11:11:22.000Z</time>
      </trkpt>
      <trkpt lat="43.0231" lon="0.54308">
        <ele>524</ele>
        <time>2018-03-18T11:11:24.000Z</time>
      </trkpt>
      <trkpt lat="43.0231" lon="0.54309">
        <ele>524</ele>
        <time>2018-03-18T11:11:26.000Z</time>
      </trkpt>
      <trkpt lat="43.02309" lon="0.5431">
        <ele>524</ele>
        <time>2018-03-18T11:11:28.000Z</time>
      </trkpt>
      <trkpt lat="43.02308" lon="0.54311">
        <ele>524</ele>
        <time>2018-03-18T11:11:30.000Z</time>
      </trkpt>
      <trkpt lat="43.02308" lon="0.54311">
        <ele>524</ele>
        <time>2018-03-18T11:11:32.000Z</time>
      </trkpt>
      <trkpt lat="43.02308" lon="0.54311">
        <ele>524</ele>
        <time>2018-03-18T11:11:34.000Z</time>
      </trkpt>
      <trkpt lat="43.02308" lon="0.54311">
        <ele>524</ele>
        <time>2018-03-18T11:11:36.000Z</time>
      </trkpt>
      <trkpt lat="43.02308" lon="0.54311">
        <ele>524</ele>
        <time>2018-03-18T11:11:38.000Z</time>
      </trkpt>
      <trkpt lat="43.02308" lon="0.54311">
        <ele>524</ele>
        <time>2018-03-18T11:11:40.000Z</time>
      </trkpt>
      <trkpt lat="43.02309" lon="0.54311">
        <ele>524</ele>
        <time>2018-03-18T11:11:42.000Z</time>
      </trkpt>
      <trkpt lat="43.02308" lon="0.54312">
        <ele>524</ele>
        <time>2018-03-18T11:11:44.000Z</time>
      </trkpt>
      <trkpt lat="43.02308" lon="0.54312">
        <ele>524</ele>
        <time>2018-03-18T11:11:46.000Z</time>
      </trkpt>
      <trkpt lat="43.02308" lon="0.54312">
        <ele>524</ele>
        <time>2018-03-18T11:11:48.000Z</time>
      </trkpt>
      <trkpt lat="43.02308" lon="0.54312">
        <ele>524</ele>
        <time>2018-03-18T11:11:50.000Z</time>
      </trkpt>
      <trkpt lat="43.02308" lon="0.54311">
        <ele>524</ele>
        <time>2018-03-18T11:11:52.000Z</time>
      </trkpt>
      <trkpt lat="43.02308" lon="0.5431">
        <ele>524</ele>
        <time>2018-03-18T11:11:54.000Z</time>
      </trkpt>
      <trkpt lat="43.02309" lon="0.5431">
        <ele>524</ele>
        <time>2018-03-18T11:11:56.000Z</time>
      </trkpt>
      <trkpt lat="43.02309" lon="0.54309">
        <ele>524</ele>
        <time>2018-03-18T11:11:58.000Z</time>
      </trkpt>
      <trkpt lat="43.02309" lon="0.54308">
        <ele>524</ele>
        <time>2018-03-18T11:12:00.000Z</time>
      </trkpt>
      <trkpt lat="43.02309" lon="0.54308">
        <ele>524</ele>
        <time>2018-03-18T11:12:02.000Z</time>
      </trkpt>
      <trkpt lat="43.02309" lon="0.54308">
        <ele>524</ele>
        <time>2018-03-18T11:12:04.000Z</time>
      </trkpt>
      <trkpt lat="43.02309" lon="0.54309">
        <ele>524</ele>
        <time>2018-03-18T11:12:06.000Z</time>
      </trkpt>
      <trkpt lat="43.02309" lon="0.5431">
        <ele>524</ele>
        <time>2018-03-18T11:12:08.000Z</time>
      </trkpt>
      <trkpt lat="43.02309" lon="0.54311">
        <ele>524</ele>
        <time>2018-03-18T11:12:10.000Z</time>
      </trkpt>
      <trkpt lat="43.02309" lon="0.54312">
        <ele>524</ele>
        <time>2018-03-18T11:12:12.000Z</time>
      </trkpt>
      <trkpt lat="43.02309" lon="0.54313">
        <ele>524</ele>
        <time>2018-03-18T11:12:14.000Z</time>
      </trkpt>
      <trkpt lat="43.02308" lon="0.54314">
        <ele>524</ele>
        <time>2018-03-18T11:12:16.000Z</time>
      </trkpt>
      <trkpt lat="43.02308" lon="0.54315">
        <ele>524</ele>
        <time>2018-03-18T11:12:18.000Z</time>
      </trkpt>
      <trkpt lat="43.02308" lon="0.54316">
        <ele>524</ele>
        <time>2018-03-18T11:12:20.000Z</time>
      </trkpt>
      <trkpt lat="43.02308" lon="0.54317">
        <ele>524</ele>
        <time>2018-03-18T11:12:22.000Z</time>
      </trkpt>
      <trkpt lat="43.02307" lon="0.54319">
        <ele>523</ele>
        <time>2018-03-18T11:12:24.000Z</time>
      </trkpt>
      <trkpt lat="43.02307" lon="0.5432">
        <ele>523</ele>
        <time>2018-03-18T11:12:26.000Z</time>
      </trkpt>
      <trkpt lat="43.02307" lon="0.54321">
        <ele>523</ele>
        <time>2018-03-18T11:12:28.000Z</time>
      </trkpt>
      <trkpt lat="43.02307" lon="0.54322">
        <ele>523</ele>
        <time>2018-03-18T11:12:30.000Z</time>
      </trkpt>
      <trkpt lat="43.02306" lon="0.54324">
        <ele>523</ele>
        <time>2018-03-18T11:12:32.000Z</time>
      </trkpt>
      <trkpt lat="43.02306" lon="0.54324">
        <ele>523</ele>
        <time>2018-03-18T11:12:34.000Z</time>
      </trkpt>
      <trkpt lat="43.02306" lon="0.54325">
        <ele>523</ele>
        <time>2018-03-18T11:12:36.000Z</time>
      </trkpt>
      <trkpt lat="43.02307" lon="0.54325">
        <ele>523</ele>
        <time>2018-03-18T11:12:38.000Z</time>
      </trkpt>
      <trkpt lat="43.02309" lon="0.54326">
        <ele>523</ele>
        <time>2018-03-18T11:12:40.000Z</time>
      </trkpt>
      <trkpt lat="43.02309" lon="0.54325">
        <ele>523</ele>
        <time>2018-03-18T11:12:42.000Z</time>
      </trkpt>
      <trkpt lat="43.02309" lon="0.54326">
        <ele>523</ele>
        <time>2018-03-18T11:12:44.000Z</time>
      </trkpt>
      <trkpt lat="43.02309" lon="0.54327">
        <ele>523</ele>
        <time>2018-03-18T11:12:46.000Z</time>
      </trkpt>
      <trkpt lat="43.02308" lon="0.54328">
        <ele>523</ele>
        <time>2018-03-18T11:12:48.000Z</time>
      </trkpt>
      <trkpt lat="43.02308" lon="0.54329">
        <ele>523</ele>
        <time>2018-03-18T11:12:50.000Z</time>
      </trkpt>
      <trkpt lat="43.02306" lon="0.54332">
        <ele>522</ele>
        <time>2018-03-18T11:12:52.000Z</time>
      </trkpt>
      <trkpt lat="43.02305" lon="0.54334">
        <ele>522</ele>
        <time>2018-03-18T11:12:54.000Z</time>
      </trkpt>
      <trkpt lat="43.02304" lon="0.54334">
        <ele>522</ele>
        <time>2018-03-18T11:12:56.000Z</time>
      </trkpt>
      <trkpt lat="43.02303" lon="0.54331">
        <ele>522</ele>
        <time>2018-03-18T11:12:58.000Z</time>
      </trkpt>
      <trkpt lat="43.02303" lon="0.5433">
        <ele>522</ele>
        <time>2018-03-18T11:13:00.000Z</time>
      </trkpt>
      <trkpt lat="43.02303" lon="0.54329">
        <ele>523</ele>
        <time>2018-03-18T11:13:02.000Z</time>
      </trkpt>
      <trkpt lat="43.02303" lon="0.54329">
        <ele>523</ele>
        <time>2018-03-18T11:13:04.000Z</time>
      </trkpt>
      <trkpt lat="43.02302" lon="0.54331">
        <ele>522</ele>
        <time>2018-03-18T11:13:06.000Z</time>
      </trkpt>
      <trkpt lat="43.02302" lon="0.5433">
        <ele>522</ele>
        <time>2018-03-18T11:13:08.000Z</time>
      </trkpt>
      <trkpt lat="43.02302" lon="0.54328">
        <ele>523</ele>
        <time>2018-03-18T11:13:10.000Z</time>
      </trkpt>
      <trkpt lat="43.02303" lon="0.54327">
        <ele>523</ele>
        <time>2018-03-18T11:13:12.000Z</time>
      </trkpt>
      <trkpt lat="43.02304" lon="0.54325">
        <ele>523</ele>
        <time>2018-03-18T11:13:14.000Z</time>
      </trkpt>
      <trkpt lat="43.02304" lon="0.54325">
        <ele>523</ele>
        <time>2018-03-18T11:13:16.000Z</time>
      </trkpt>
      <trkpt lat="43.02304" lon="0.54325">
        <ele>523</ele>
        <time>2018-03-18T11:13:18.000Z</time>
      </trkpt>
      <trkpt lat="43.02304" lon="0.54325">
        <ele>523</ele>
        <time>2018-03-18T11:13:20.000Z</time>
      </trkpt>
      <trkpt lat="43.02303" lon="0.54324">
        <ele>523</ele>
        <time>2018-03-18T11:13:22.000Z</time>
      </trkpt>
      <trkpt lat="43.02303" lon="0.54323">
        <ele>523</ele>
        <time>2018-03-18T11:13:24.000Z</time>
      </trkpt>
      <trkpt lat="43.02302" lon="0.54323">
        <ele>523</ele>
        <time>2018-03-18T11:13:26.000Z</time>
      </trkpt>
      <trkpt lat="43.02302" lon="0.54322">
        <ele>523</ele>
        <time>2018-03-18T11:13:28.000Z</time>
      </trkpt>
      <trkpt lat="43.02301" lon="0.54321">
        <ele>523</ele>
        <time>2018-03-18T11:13:30.000Z</time>
      </trkpt>
      <trkpt lat="43.02301" lon="0.54321">
        <ele>523</ele>
        <time>2018-03-18T11:13:32.000Z</time>
      </trkpt>
      <trkpt lat="43.02301" lon="0.5432">
        <ele>523</ele>
        <time>2018-03-18T11:13:34.000Z</time>
      </trkpt>
      <trkpt lat="43.02303" lon="0.54319">
        <ele>523</ele>
        <time>2018-03-18T11:13:36.000Z</time>
      </trkpt>
      <trkpt lat="43.02303" lon="0.54319">
        <ele>523</ele>
        <time>2018-03-18T11:13:38.000Z</time>
      </trkpt>
      <trkpt lat="43.02304" lon="0.54319">
        <ele>523</ele>
        <time>2018-03-18T11:13:40.000Z</time>
      </trkpt>
      <trkpt lat="43.02305" lon="0.54318">
        <ele>523</ele>
        <time>2018-03-18T11:13:42.000Z</time>
      </trkpt>
      <trkpt lat="43.02305" lon="0.54318">
        <ele>523</ele>
        <time>2018-03-18T11:13:44.000Z</time>
      </trkpt>
      <trkpt lat="43.02306" lon="0.54318">
        <ele>523</ele>
        <time>2018-03-18T11:13:46.000Z</time>
      </trkpt>
      <trkpt lat="43.02307" lon="0.54317">
        <ele>524</ele>
        <time>2018-03-18T11:13:48.000Z</time>
      </trkpt>
      <trkpt lat="43.02308" lon="0.54317">
        <ele>524</ele>
        <time>2018-03-18T11:13:50.000Z</time>
      </trkpt>
      <trkpt lat="43.02308" lon="0.54317">
        <ele>524</ele>
        <time>2018-03-18T11:13:52.000Z</time>
      </trkpt>
      <trkpt lat="43.02309" lon="0.54316">
        <ele>524</ele>
        <time>2018-03-18T11:13:54.000Z</time>
      </trkpt>
      <trkpt lat="43.0231" lon="0.54315">
        <ele>524</ele>
        <time>2018-03-18T11:13:56.000Z</time>
      </trkpt>
      <trkpt lat="43.02311" lon="0.54315">
        <ele>524</ele>
        <time>2018-03-18T11:13:58.000Z</time>
      </trkpt>
      <trkpt lat="43.02312" lon="0.54314">
        <ele>524</ele>
        <time>2018-03-18T11:14:00.000Z</time>
      </trkpt>
      <trkpt lat="43.02313" lon="0.54314">
        <ele>524</ele>
        <time>2018-03-18T11:14:02.000Z</time>
      </trkpt>
      <trkpt lat="43.02313" lon="0.54315">
        <ele>524</ele>
        <time>2018-03-18T11:14:04.000Z</time>
      </trkpt>
      <trkpt lat="43.02313" lon="0.54316">
        <ele>524</ele>
        <time>2018-03-18T11:14:06.000Z</time>
      </trkpt>
      <trkpt lat="43.02311" lon="0.54318">
        <ele>524</ele>
        <time>2018-03-18T11:14:08.000Z</time>
      </trkpt>
      <trkpt lat="43.0231" lon="0.54317">
        <ele>524</ele>
        <time>2018-03-18T11:14:10.000Z</time>
      </trkpt>
      <trkpt lat="43.02309" lon="0.54316">
        <ele>524</ele>
        <time>2018-03-18T11:14:12.000Z</time>
      </trkpt>
      <trkpt lat="43.02304" lon="0.54318">
        <ele>523</ele>
        <time>2018-03-18T11:14:14.000Z</time>
      </trkpt>
      <trkpt lat="43.02298" lon="0.54323">
        <ele>523</ele>
        <time>2018-03-18T11:14:16.000Z</time>
      </trkpt>
      <trkpt lat="43.02292" lon="0.54326">
        <ele>522</ele>
        <time>2018-03-18T11:14:18.000Z</time>
      </trkpt>
      <trkpt lat="43.0229" lon="0.54328">
        <ele>522</ele>
        <time>2018-03-18T11:14:20.000Z</time>
      </trkpt>
      <trkpt lat="43.02288" lon="0.54328">
        <ele>522</ele>
        <time>2018-03-18T11:14:22.000Z</time>
      </trkpt>
      <trkpt lat="43.02286" lon="0.54328">
        <ele>522</ele>
        <time>2018-03-18T11:14:24.000Z</time>
      </trkpt>
      <trkpt lat="43.02288" lon="0.54329">
        <ele>522</ele>
        <time>2018-03-18T11:14:26.000Z</time>
      </trkpt>
      <trkpt lat="43.0229" lon="0.5433">
        <ele>522</ele>
        <time>2018-03-18T11:14:28.000Z</time>
      </trkpt>
      <trkpt lat="43.02289" lon="0.54333">
        <ele>522</ele>
        <time>2018-03-18T11:14:31.000Z</time>
      </trkpt>
      <trkpt lat="43.02288" lon="0.54334">
        <ele>522</ele>
        <time>2018-03-18T11:14:33.000Z</time>
      </trkpt>
      <trkpt lat="43.02291" lon="0.54333">
        <ele>522</ele>
        <time>2018-03-18T11:14:36.000Z</time>
      </trkpt>
      <trkpt lat="43.02297" lon="0.54332">
        <ele>522</ele>
        <time>2018-03-18T11:14:38.000Z</time>
      </trkpt>
      <trkpt lat="43.02302" lon="0.54331">
        <ele>522</ele>
        <time>2018-03-18T11:14:40.000Z</time>
      </trkpt>
      <trkpt lat="43.02306" lon="0.54331">
        <ele>523</ele>
        <time>2018-03-18T11:14:42.000Z</time>
      </trkpt>
      <trkpt lat="43.02308" lon="0.5433">
        <ele>523</ele>
        <time>2018-03-18T11:14:44.000Z</time>
      </trkpt>
      <trkpt lat="43.0231" lon="0.54329">
        <ele>523</ele>
        <time>2018-03-18T11:14:46.000Z</time>
      </trkpt>
      <trkpt lat="43.02309" lon="0.5433">
        <ele>523</ele>
        <time>2018-03-18T11:14:48.000Z</time>
      </trkpt>
      <trkpt lat="43.02316" lon="0.54326">
        <ele>523</ele>
        <time>2018-03-18T11:14:50.000Z</time>
      </trkpt>
      <trkpt lat="43.0232" lon="0.54324">
        <ele>524</ele>
        <time>2018-03-18T11:14:52.000Z</time>
      </trkpt>
      <trkpt lat="43.02325" lon="0.54321">
        <ele>524</ele>
        <time>2018-03-18T11:14:54.000Z</time>
      </trkpt>
      <trkpt lat="43.02328" lon="0.54318">
        <ele>524</ele>
        <time>2018-03-18T11:14:56.000Z</time>
      </trkpt>
      <trkpt lat="43.02331" lon="0.54316">
        <ele>524</ele>
        <time>2018-03-18T11:14:58.000Z</time>
      </trkpt>
      <trkpt lat="43.02334" lon="0.54314">
        <ele>525</ele>
        <time>2018-03-18T11:15:00.000Z</time>
      </trkpt>
      <trkpt lat="43.02336" lon="0.54312">
        <ele>525</ele>
        <time>2018-03-18T11:15:02.000Z</time>
      </trkpt>
      <trkpt lat="43.02339" lon="0.54309">
        <ele>525</ele>
        <time>2018-03-18T11:15:04.000Z</time>
      </trkpt>
      <trkpt lat="43.0234" lon="0.54307">
        <ele>525</ele>
        <time>2018-03-18T11:15:06.000Z</time>
      </trkpt>
      <trkpt lat="43.02343" lon="0.54305">
        <ele>526</ele>
        <time>2018-03-18T11:15:09.000Z</time>
      </trkpt>
      <trkpt lat="43.02345" lon="0.54302">
        <ele>526</ele>
        <time>2018-03-18T11:15:11.000Z</time>
      </trkpt>
      <trkpt lat="43.02346" lon="0.54299">
        <ele>526</ele>
        <time>2018-03-18T11:15:13.000Z</time>
      </trkpt>
      <trkpt lat="43.02348" lon="0.54297">
        <ele>527</ele>
        <time>2018-03-18T11:15:15.000Z</time>
      </trkpt>
      <trkpt lat="43.02349" lon="0.54295">
        <ele>527</ele>
        <time>2018-03-18T11:15:17.000Z</time>
      </trkpt>
      <trkpt lat="43.02349" lon="0.54292">
        <ele>527</ele>
        <time>2018-03-18T11:15:19.000Z</time>
      </trkpt>
      <trkpt lat="43.02348" lon="0.54292">
        <ele>528</ele>
        <time>2018-03-18T11:15:21.000Z</time>
      </trkpt>
      <trkpt lat="43.02341" lon="0.54296">
        <ele>527</ele>
        <time>2018-03-18T11:15:23.000Z</time>
      </trkpt>
      <trkpt lat="43.02336" lon="0.543">
        <ele>526</ele>
        <time>2018-03-18T11:15:25.000Z</time>
      </trkpt>
      <trkpt lat="43.02332" lon="0.54304">
        <ele>525</ele>
        <time>2018-03-18T11:15:27.000Z</time>
      </trkpt>
      <trkpt lat="43.02331" lon="0.54307">
        <ele>525</ele>
        <time>2018-03-18T11:15:29.000Z</time>
      </trkpt>
      <trkpt lat="43.0233" lon="0.54308">
        <ele>525</ele>
        <time>2018-03-18T11:15:31.000Z</time>
      </trkpt>
      <trkpt lat="43.0233" lon="0.54309">
        <ele>525</ele>
        <time>2018-03-18T11:15:33.000Z</time>
      </trkpt>
      <trkpt lat="43.0233" lon="0.54309">
        <ele>525</ele>
        <time>2018-03-18T11:15:35.000Z</time>
      </trkpt>
      <trkpt lat="43.0233" lon="0.54309">
        <ele>525</ele>
        <time>2018-03-18T11:15:37.000Z</time>
      </trkpt>
      <trkpt lat="43.0233" lon="0.54309">
        <ele>525</ele>
        <time>2018-03-18T11:15:39.000Z</time>
      </trkpt>
      <trkpt lat="43.0233" lon="0.54309">
        <ele>525</ele>
        <time>2018-03-18T11:15:41.000Z</time>
      </trkpt>
      <trkpt lat="43.0233" lon="0.54309">
        <ele>525</ele>
        <time>2018-03-18T11:15:43.000Z</time>
      </trkpt>
      <trkpt lat="43.02328" lon="0.5431">
        <ele>525</ele>
        <time>2018-03-18T11:15:45.000Z</time>
      </trkpt>
      <trkpt lat="43.02326" lon="0.54313">
        <ele>525</ele>
        <time>2018-03-18T11:15:47.000Z</time>
      </trkpt>
      <trkpt lat="43.02324" lon="0.54315">
        <ele>524</ele>
        <time>2018-03-18T11:15:49.000Z</time>
      </trkpt>
      <trkpt lat="43.02323" lon="0.54316">
        <ele>524</ele>
        <time>2018-03-18T11:15:51.000Z</time>
      </trkpt>
      <trkpt lat="43.02321" lon="0.54318">
        <ele>524</ele>
        <time>2018-03-18T11:15:53.000Z</time>
      </trkpt>
      <trkpt lat="43.02317" lon="0.54321">
        <ele>524</ele>
        <time>2018-03-18T11:15:55.000Z</time>
      </trkpt>
      <trkpt lat="43.02314" lon="0.54323">
        <ele>523</ele>
        <time>2018-03-18T11:15:57.000Z</time>
      </trkpt>
      <trkpt lat="43.02312" lon="0.54324">
        <ele>523</ele>
        <time>2018-03-18T11:15:59.000Z</time>
      </trkpt>
      <trkpt lat="43.02311" lon="0.54323">
        <ele>523</ele>
        <time>2018-03-18T11:16:01.000Z</time>
      </trkpt>
      <trkpt lat="43.0231" lon="0.54322">
        <ele>523</ele>
        <time>2018-03-18T11:16:03.000Z</time>
      </trkpt>
      <trkpt lat="43.02309" lon="0.54321">
        <ele>523</ele>
        <time>2018-03-18T11:16:05.000Z</time>
      </trkpt>
      <trkpt lat="43.02309" lon="0.54318">
        <ele>524</ele>
        <time>2018-03-18T11:16:07.000Z</time>
      </trkpt>
      <trkpt lat="43.0231" lon="0.54316">
        <ele>524</ele>
        <time>2018-03-18T11:16:09.000Z</time>
      </trkpt>
      <trkpt lat="43.0231" lon="0.54315">
        <ele>524</ele>
        <time>2018-03-18T11:16:11.000Z</time>
      </trkpt>
      <trkpt lat="43.02311" lon="0.54314">
        <ele>524</ele>
        <time>2018-03-18T11:16:13.000Z</time>
      </trkpt>
      <trkpt lat="43.02312" lon="0.54313">
        <ele>524</ele>
        <time>2018-03-18T11:16:15.000Z</time>
      </trkpt>
      <trkpt lat="43.02313" lon="0.54312">
        <ele>524</ele>
        <time>2018-03-18T11:16:17.000Z</time>
      </trkpt>
      <trkpt lat="43.02314" lon="0.54312">
        <ele>524</ele>
        <time>2018-03-18T11:16:19.000Z</time>
      </trkpt>
      <trkpt lat="43.02315" lon="0.54311">
        <ele>524</ele>
        <time>2018-03-18T11:16:21.000Z</time>
      </trkpt>
      <trkpt lat="43.02316" lon="0.5431">
        <ele>524</ele>
        <time>2018-03-18T11:16:23.000Z</time>
      </trkpt>
      <trkpt lat="43.02316" lon="0.5431">
        <ele>524</ele>
        <time>2018-03-18T11:16:25.000Z</time>
      </trkpt>
      <trkpt lat="43.02317" lon="0.54309">
        <ele>525</ele>
        <time>2018-03-18T11:16:27.000Z</time>
      </trkpt>
      <trkpt lat="43.02317" lon="0.54308">
        <ele>525</ele>
        <time>2018-03-18T11:16:29.000Z</time>
      </trkpt>
      <trkpt lat="43.02318" lon="0.54307">
        <ele>525</ele>
        <time>2018-03-18T11:16:31.000Z</time>
      </trkpt>
      <trkpt lat="43.02317" lon="0.54307">
        <ele>525</ele>
        <time>2018-03-18T11:16:33.000Z</time>
      </trkpt>
      <trkpt lat="43.02317" lon="0.54307">
        <ele>525</ele>
        <time>2018-03-18T11:16:35.000Z</time>
      </trkpt>
      <trkpt lat="43.02316" lon="0.54308">
        <ele>525</ele>
        <time>2018-03-18T11:16:37.000Z</time>
      </trkpt>
      <trkpt lat="43.02316" lon="0.54308">
        <ele>525</ele>
        <time>2018-03-18T11:16:39.000Z</time>
      </trkpt>
      <trkpt lat="43.02315" lon="0.54308">
        <ele>524</ele>
        <time>2018-03-18T11:16:41.000Z</time>
      </trkpt>
      <trkpt lat="43.02315" lon="0.54309">
        <ele>524</ele>
        <time>2018-03-18T11:16:43.000Z</time>
      </trkpt>
      <trkpt lat="43.02314" lon="0.54309">
        <ele>524</ele>
        <time>2018-03-18T11:16:45.000Z</time>
      </trkpt>
      <trkpt lat="43.02314" lon="0.5431">
        <ele>524</ele>
        <time>2018-03-18T11:16:47.000Z</time>
      </trkpt>
      <trkpt lat="43.02314" lon="0.5431">
        <ele>524</ele>
        <time>2018-03-18T11:16:49.000Z</time>
      </trkpt>
      <trkpt lat="43.02313" lon="0.54311">
        <ele>524</ele>
        <time>2018-03-18T11:16:51.000Z</time>
      </trkpt>
      <trkpt lat="43.02313" lon="0.54312">
        <ele>524</ele>
        <time>2018-03-18T11:16:53.000Z</time>
      </trkpt>
      <trkpt lat="43.02312" lon="0.54313">
        <ele>524</ele>
        <time>2018-03-18T11:16:55.000Z</time>
      </trkpt>
      <trkpt lat="43.02311" lon="0.54314">
        <ele>524</ele>
        <time>2018-03-18T11:16:57.000Z</time>
      </trkpt>
      <trkpt lat="43.02309" lon="0.54315">
        <ele>524</ele>
        <time>2018-03-18T11:16:59.000Z</time>
      </trkpt>
      <trkpt lat="43.02308" lon="0.54315">
        <ele>524</ele>
        <time>2018-03-18T11:17:01.000Z</time>
      </trkpt>
      <trkpt lat="43.02307" lon="0.54315">
        <ele>524</ele>
        <time>2018-03-18T11:17:03.000Z</time>
      </trkpt>
      <trkpt lat="43.02308" lon="0.54315">
        <ele>524</ele>
        <time>2018-03-18T11:17:05.000Z</time>
      </trkpt>
      <trkpt lat="43.02309" lon="0.54314">
        <ele>524</ele>
        <time>2018-03-18T11:17:07.000Z</time>
      </trkpt>
      <trkpt lat="43.02309" lon="0.54314">
        <ele>524</ele>
        <time>2018-03-18T11:17:09.000Z</time>
      </trkpt>
      <trkpt lat="43.02309" lon="0.54314">
        <ele>524</ele>
        <time>2018-03-18T11:17:11.000Z</time>
      </trkpt>
      <trkpt lat="43.0231" lon="0.54314">
        <ele>524</ele>
        <time>2018-03-18T11:17:13.000Z</time>
      </trkpt>
      <trkpt lat="43.02309" lon="0.54313">
        <ele>524</ele>
        <time>2018-03-18T11:17:15.000Z</time>
      </trkpt>
      <trkpt lat="43.02309" lon="0.54313">
        <ele>524</ele>
        <time>2018-03-18T11:17:17.000Z</time>
      </trkpt>
      <trkpt lat="43.0231" lon="0.54313">
        <ele>524</ele>
        <time>2018-03-18T11:17:19.000Z</time>
      </trkpt>
      <trkpt lat="43.02309" lon="0.54314">
        <ele>524</ele>
        <time>2018-03-18T11:17:21.000Z</time>
      </trkpt>
      <trkpt lat="43.0231" lon="0.54314">
        <ele>524</ele>
        <time>2018-03-18T11:17:23.000Z</time>
      </trkpt>
      <trkpt lat="43.0231" lon="0.54315">
        <ele>524</ele>
        <time>2018-03-18T11:17:25.000Z</time>
      </trkpt>
      <trkpt lat="43.02311" lon="0.54316">
        <ele>524</ele>
        <time>2018-03-18T11:17:27.000Z</time>
      </trkpt>
      <trkpt lat="43.02311" lon="0.54316">
        <ele>524</ele>
        <time>2018-03-18T11:17:29.000Z</time>
      </trkpt>
      <trkpt lat="43.02311" lon="0.54316">
        <ele>524</ele>
        <time>2018-03-18T11:17:31.000Z</time>
      </trkpt>
      <trkpt lat="43.02311" lon="0.54316">
        <ele>524</ele>
        <time>2018-03-18T11:17:33.000Z</time>
      </trkpt>
      <trkpt lat="43.02312" lon="0.54316">
        <ele>524</ele>
        <time>2018-03-18T11:17:35.000Z</time>
      </trkpt>
      <trkpt lat="43.02313" lon="0.54317">
        <ele>524</ele>
        <time>2018-03-18T11:17:37.000Z</time>
      </trkpt>
      <trkpt lat="43.02313" lon="0.54317">
        <ele>524</ele>
        <time>2018-03-18T11:17:39.000Z</time>
      </trkpt>
      <trkpt lat="43.02314" lon="0.54317">
        <ele>524</ele>
        <time>2018-03-18T11:17:41.000Z</time>
      </trkpt>
      <trkpt lat="43.02314" lon="0.54317">
        <ele>524</ele>
        <time>2018-03-18T11:17:43.000Z</time>
      </trkpt>
      <trkpt lat="43.02313" lon="0.54318">
        <ele>524</ele>
        <time>2018-03-18T11:17:45.000Z</time>
      </trkpt>
      <trkpt lat="43.02312" lon="0.54318">
        <ele>524</ele>
        <time>2018-03-18T11:17:47.000Z</time>
      </trkpt>
      <trkpt lat="43.02311" lon="0.54318">
        <ele>524</ele>
        <time>2018-03-18T11:17:49.000Z</time>
      </trkpt>
      <trkpt lat="43.0231" lon="0.54318">
        <ele>524</ele>
        <time>2018-03-18T11:17:51.000Z</time>
      </trkpt>
      <trkpt lat="43.02311" lon="0.54318">
        <ele>524</ele>
        <time>2018-03-18T11:17:53.000Z</time>
      </trkpt>
      <trkpt lat="43.02311" lon="0.54317">
        <ele>524</ele>
        <time>2018-03-18T11:17:55.000Z</time>
      </trkpt>
      <trkpt lat="43.0231" lon="0.54316">
        <ele>524</ele>
        <time>2018-03-18T11:17:57.000Z</time>
      </trkpt>
      <trkpt lat="43.0231" lon="0.54315">
        <ele>524</ele>
        <time>2018-03-18T11:17:59.000Z</time>
      </trkpt>
      <trkpt lat="43.02309" lon="0.54314">
        <ele>524</ele>
        <time>2018-03-18T11:18:01.000Z</time>
      </trkpt>
      <trkpt lat="43.02309" lon="0.54312">
        <ele>524</ele>
        <time>2018-03-18T11:18:03.000Z</time>
      </trkpt>
      <trkpt lat="43.02309" lon="0.54311">
        <ele>524</ele>
        <time>2018-03-18T11:18:05.000Z</time>
      </trkpt>
      <trkpt lat="43.0231" lon="0.54309">
        <ele>524</ele>
        <time>2018-03-18T11:18:07.000Z</time>
      </trkpt>
      <trkpt lat="43.0231" lon="0.54308">
        <ele>524</ele>
        <time>2018-03-18T11:18:09.000Z</time>
      </trkpt>
      <trkpt lat="43.0231" lon="0.54307">
        <ele>524</ele>
        <time>2018-03-18T11:18:11.000Z</time>
      </trkpt>
      <trkpt lat="43.0231" lon="0.54306">
        <ele>524</ele>
        <time>2018-03-18T11:18:13.000Z</time>
      </trkpt>
      <trkpt lat="43.0231" lon="0.54305">
        <ele>525</ele>
        <time>2018-03-18T11:18:15.000Z</time>
      </trkpt>
      <trkpt lat="43.02309" lon="0.54305">
        <ele>525</ele>
        <time>2018-03-18T11:18:17.000Z</time>
      </trkpt>
      <trkpt lat="43.02309" lon="0.54305">
        <ele>524</ele>
        <time>2018-03-18T11:18:19.000Z</time>
      </trkpt>
      <trkpt lat="43.02309" lon="0.54306">
        <ele>524</ele>
        <time>2018-03-18T11:18:21.000Z</time>
      </trkpt>
      <trkpt lat="43.02309" lon="0.54306">
        <ele>524</ele>
        <time>2018-03-18T11:18:23.000Z</time>
      </trkpt>
      <trkpt lat="43.02309" lon="0.54306">
        <ele>524</ele>
        <time>2018-03-18T11:18:25.000Z</time>
      </trkpt>
      <trkpt lat="43.02309" lon="0.54306">
        <ele>524</ele>
        <time>2018-03-18T11:18:27.000Z</time>
      </trkpt>
      <trkpt lat="43.02309" lon="0.54306">
        <ele>524</ele>
        <time>2018-03-18T11:18:29.000Z</time>
      </trkpt>
      <trkpt lat="43.02309" lon="0.54306">
        <ele>524</ele>
        <time>2018-03-18T11:18:31.000Z</time>
      </trkpt>
      <trkpt lat="43.02309" lon="0.54306">
        <ele>524</ele>
        <time>2018-03-18T11:18:33.000Z</time>
      </trkpt>
      <trkpt lat="43.02309" lon="0.54306">
        <ele>524</ele>
        <time>2018-03-18T11:18:35.000Z</time>
      </trkpt>
      <trkpt lat="43.02308" lon="0.54306">
        <ele>524</ele>
        <time>2018-03-18T11:18:37.000Z</time>
      </trkpt>
      <trkpt lat="43.02308" lon="0.54306">
        <ele>524</ele>
        <time>2018-03-18T11:18:39.000Z</time>
      </trkpt>
      <trkpt lat="43.02307" lon="0.54306">
        <ele>524</ele>
        <time>2018-03-18T11:18:41.000Z</time>
      </trkpt>
      <trkpt lat="43.02306" lon="0.54305">
        <ele>524</ele>
        <time>2018-03-18T11:18:43.000Z</time>
      </trkpt>
      <trkpt lat="43.02306" lon="0.54305">
        <ele>524</ele>
        <time>2018-03-18T11:18:45.000Z</time>
      </trkpt>
      <trkpt lat="43.02307" lon="0.54306">
        <ele>524</ele>
        <time>2018-03-18T11:18:47.000Z</time>
      </trkpt>
      <trkpt lat="43.02306" lon="0.54306">
        <ele>524</ele>
        <time>2018-03-18T11:18:49.000Z</time>
      </trkpt>
      <trkpt lat="43.02305" lon="0.54307">
        <ele>524</ele>
        <time>2018-03-18T11:18:51.000Z</time>
      </trkpt>
      <trkpt lat="43.02305" lon="0.54308">
        <ele>524</ele>
        <time>2018-03-18T11:18:53.000Z</time>
      </trkpt>
      <trkpt lat="43.02304" lon="0.54308">
        <ele>524</ele>
        <time>2018-03-18T11:18:55.000Z</time>
      </trkpt>
      <trkpt lat="43.02303" lon="0.54308">
        <ele>524</ele>
        <time>2018-03-18T11:18:57.000Z</time>
      </trkpt>
      <trkpt lat="43.02303" lon="0.54309">
        <ele>524</ele>
        <time>2018-03-18T11:18:59.000Z</time>
      </trkpt>
      <trkpt lat="43.02303" lon="0.54309">
        <ele>524</ele>
        <time>2018-03-18T11:19:01.000Z</time>
      </trkpt>
      <trkpt lat="43.02303" lon="0.5431">
        <ele>524</ele>
        <time>2018-03-18T11:19:03.000Z</time>
      </trkpt>
      <trkpt lat="43.02303" lon="0.54311">
        <ele>524</ele>
        <time>2018-03-18T11:19:05.000Z</time>
      </trkpt>
      <trkpt lat="43.02304" lon="0.54312">
        <ele>524</ele>
        <time>2018-03-18T11:19:07.000Z</time>
      </trkpt>
      <trkpt lat="43.02304" lon="0.54313">
        <ele>524</ele>
        <time>2018-03-18T11:19:09.000Z</time>
      </trkpt>
      <trkpt lat="43.02304" lon="0.54313">
        <ele>524</ele>
        <time>2018-03-18T11:19:11.000Z</time>
      </trkpt>
      <trkpt lat="43.02305" lon="0.54311">
        <ele>524</ele>
        <time>2018-03-18T11:19:13.000Z</time>
      </trkpt>
      <trkpt lat="43.02306" lon="0.54309">
        <ele>524</ele>
        <time>2018-03-18T11:19:15.000Z</time>
      </trkpt>
      <trkpt lat="43.02306" lon="0.54308">
        <ele>524</ele>
        <time>2018-03-18T11:19:17.000Z</time>
      </trkpt>
      <trkpt lat="43.02306" lon="0.54307">
        <ele>524</ele>
        <time>2018-03-18T11:19:19.000Z</time>
      </trkpt>
      <trkpt lat="43.02306" lon="0.54307">
        <ele>524</ele>
        <time>2018-03-18T11:19:21.000Z</time>
      </trkpt>
      <trkpt lat="43.02307" lon="0.54306">
        <ele>524</ele>
        <time>2018-03-18T11:19:23.000Z</time>
      </trkpt>
      <trkpt lat="43.02307" lon="0.54306">
        <ele>524</ele>
        <time>2018-03-18T11:19:25.000Z</time>
      </trkpt>
      <trkpt lat="43.02307" lon="0.54306">
        <ele>524</ele>
        <time>2018-03-18T11:19:27.000Z</time>
      </trkpt>
      <trkpt lat="43.02306" lon="0.54306">
        <ele>524</ele>
        <time>2018-03-18T11:19:29.000Z</time>
      </trkpt>
      <trkpt lat="43.02306" lon="0.54306">
        <ele>524</ele>
        <time>2018-03-18T11:19:31.000Z</time>
      </trkpt>
      <trkpt lat="43.02306" lon="0.54306">
        <ele>524</ele>
        <time>2018-03-18T11:19:33.000Z</time>
      </trkpt>
      <trkpt lat="43.02307" lon="0.54306">
        <ele>524</ele>
        <time>2018-03-18T11:19:35.000Z</time>
      </trkpt>
      <trkpt lat="43.02307" lon="0.54305">
        <ele>524</ele>
        <time>2018-03-18T11:19:37.000Z</time>
      </trkpt>
      <trkpt lat="43.02308" lon="0.54305">
        <ele>525</ele>
        <time>2018-03-18T11:19:39.000Z</time>
      </trkpt>
      <trkpt lat="43.02309" lon="0.54303">
        <ele>525</ele>
        <time>2018-03-18T11:19:41.000Z</time>
      </trkpt>
      <trkpt lat="43.0231" lon="0.54302">
        <ele>525</ele>
        <time>2018-03-18T11:19:43.000Z</time>
      </trkpt>
      <trkpt lat="43.0231" lon="0.54301">
        <ele>525</ele>
        <time>2018-03-18T11:19:45.000Z</time>
      </trkpt>
      <trkpt lat="43.02311" lon="0.54301">
        <ele>525</ele>
        <time>2018-03-18T11:19:47.000Z</time>
      </trkpt>
      <trkpt lat="43.02311" lon="0.54301">
        <ele>525</ele>
        <time>2018-03-18T11:19:49.000Z</time>
      </trkpt>
      <trkpt lat="43.02312" lon="0.543">
        <ele>525</ele>
        <time>2018-03-18T11:19:51.000Z</time>
      </trkpt>
      <trkpt lat="43.02312" lon="0.543">
        <ele>525</ele>
        <time>2018-03-18T11:19:53.000Z</time>
      </trkpt>
      <trkpt lat="43.02312" lon="0.543">
        <ele>525</ele>
        <time>2018-03-18T11:19:55.000Z</time>
      </trkpt>
      <trkpt lat="43.02312" lon="0.543">
        <ele>525</ele>
        <time>2018-03-18T11:19:57.000Z</time>
      </trkpt>
      <trkpt lat="43.02313" lon="0.543">
        <ele>525</ele>
        <time>2018-03-18T11:19:59.000Z</time>
      </trkpt>
      <trkpt lat="43.02313" lon="0.543">
        <ele>525</ele>
        <time>2018-03-18T11:20:01.000Z</time>
      </trkpt>
      <trkpt lat="43.02313" lon="0.54301">
        <ele>525</ele>
        <time>2018-03-18T11:20:03.000Z</time>
      </trkpt>
      <trkpt lat="43.02312" lon="0.54302">
        <ele>525</ele>
        <time>2018-03-18T11:20:05.000Z</time>
      </trkpt>
      <trkpt lat="43.02312" lon="0.54303">
        <ele>525</ele>
        <time>2018-03-18T11:20:07.000Z</time>
      </trkpt>
      <trkpt lat="43.02311" lon="0.54304">
        <ele>525</ele>
        <time>2018-03-18T11:20:09.000Z</time>
      </trkpt>
      <trkpt lat="43.02311" lon="0.54304">
        <ele>525</ele>
        <time>2018-03-18T11:20:11.000Z</time>
      </trkpt>
      <trkpt lat="43.0231" lon="0.54306">
        <ele>525</ele>
        <time>2018-03-18T11:20:13.000Z</time>
      </trkpt>
      <trkpt lat="43.0231" lon="0.54306">
        <ele>524</ele>
        <time>2018-03-18T11:20:15.000Z</time>
      </trkpt>
      <trkpt lat="43.0231" lon="0.54306">
        <ele>524</ele>
        <time>2018-03-18T11:20:17.000Z</time>
      </trkpt>
      <trkpt lat="43.0231" lon="0.54306">
        <ele>524</ele>
        <time>2018-03-18T11:20:19.000Z</time>
      </trkpt>
      <trkpt lat="43.0231" lon="0.54306">
        <ele>524</ele>
        <time>2018-03-18T11:20:21.000Z</time>
      </trkpt>
      <trkpt lat="43.0231" lon="0.54306">
        <ele>524</ele>
        <time>2018-03-18T11:20:23.000Z</time>
      </trkpt>
      <trkpt lat="43.02309" lon="0.54306">
        <ele>524</ele>
        <time>2018-03-18T11:20:25.000Z</time>
      </trkpt>
      <trkpt lat="43.02308" lon="0.54307">
        <ele>524</ele>
        <time>2018-03-18T11:20:27.000Z</time>
      </trkpt>
      <trkpt lat="43.02307" lon="0.54308">
        <ele>524</ele>
        <time>2018-03-18T11:20:29.000Z</time>
      </trkpt>
      <trkpt lat="43.02306" lon="0.54309">
        <ele>524</ele>
        <time>2018-03-18T11:20:31.000Z</time>
      </trkpt>
      <trkpt lat="43.02306" lon="0.5431">
        <ele>524</ele>
        <time>2018-03-18T11:20:33.000Z</time>
      </trkpt>
      <trkpt lat="43.02306" lon="0.54309">
        <ele>524</ele>
        <time>2018-03-18T11:20:35.000Z</time>
      </trkpt>
      <trkpt lat="43.02307" lon="0.54308">
        <ele>524</ele>
        <time>2018-03-18T11:20:37.000Z</time>
      </trkpt>
      <trkpt lat="43.02307" lon="0.54308">
        <ele>524</ele>
        <time>2018-03-18T11:20:39.000Z</time>
      </trkpt>
      <trkpt lat="43.02308" lon="0.54307">
        <ele>524</ele>
        <time>2018-03-18T11:20:41.000Z</time>
      </trkpt>
      <trkpt lat="43.02308" lon="0.54308">
        <ele>524</ele>
        <time>2018-03-18T11:20:43.000Z</time>
      </trkpt>
      <trkpt lat="43.02308" lon="0.54308">
        <ele>524</ele>
        <time>2018-03-18T11:20:45.000Z</time>
      </trkpt>
      <trkpt lat="43.02308" lon="0.54307">
        <ele>524</ele>
        <time>2018-03-18T11:20:47.000Z</time>
      </trkpt>
      <trkpt lat="43.02307" lon="0.54307">
        <ele>524</ele>
        <time>2018-03-18T11:20:49.000Z</time>
      </trkpt>
      <trkpt lat="43.02308" lon="0.54307">
        <ele>524</ele>
        <time>2018-03-18T11:20:51.000Z</time>
      </trkpt>
      <trkpt lat="43.02308" lon="0.54306">
        <ele>524</ele>
        <time>2018-03-18T11:20:53.000Z</time>
      </trkpt>
      <trkpt lat="43.0231" lon="0.54306">
        <ele>524</ele>
        <time>2018-03-18T11:20:55.000Z</time>
      </trkpt>
      <trkpt lat="43.02311" lon="0.54305">
        <ele>525</ele>
        <time>2018-03-18T11:20:57.000Z</time>
      </trkpt>
      <trkpt lat="43.0231" lon="0.54306">
        <ele>524</ele>
        <time>2018-03-18T11:20:59.000Z</time>
      </trkpt>
      <trkpt lat="43.02311" lon="0.54306">
        <ele>524</ele>
        <time>2018-03-18T11:21:01.000Z</time>
      </trkpt>
      <trkpt lat="43.02311" lon="0.54306">
        <ele>525</ele>
        <time>2018-03-18T11:21:03.000Z</time>
      </trkpt>
      <trkpt lat="43.02311" lon="0.54306">
        <ele>525</ele>
        <time>2018-03-18T11:21:05.000Z</time>
      </trkpt>
      <trkpt lat="43.02312" lon="0.54306">
        <ele>525</ele>
        <time>2018-03-18T11:21:07.000Z</time>
      </trkpt>
      <trkpt lat="43.02312" lon="0.54306">
        <ele>525</ele>
        <time>2018-03-18T11:21:09.000Z</time>
      </trkpt>
      <trkpt lat="43.02314" lon="0.54304">
        <ele>525</ele>
        <time>2018-03-18T11:21:11.000Z</time>
      </trkpt>
      <trkpt lat="43.02315" lon="0.54304">
        <ele>525</ele>
        <time>2018-03-18T11:21:13.000Z</time>
      </trkpt>
      <trkpt lat="43.02316" lon="0.54304">
        <ele>525</ele>
        <time>2018-03-18T11:21:15.000Z</time>
      </trkpt>
      <trkpt lat="43.02316" lon="0.54304">
        <ele>525</ele>
        <time>2018-03-18T11:21:17.000Z</time>
      </trkpt>
      <trkpt lat="43.02316" lon="0.54304">
        <ele>525</ele>
        <time>2018-03-18T11:21:19.000Z</time>
      </trkpt>
      <trkpt lat="43.02315" lon="0.54305">
        <ele>525</ele>
        <time>2018-03-18T11:21:21.000Z</time>
      </trkpt>
      <trkpt lat="43.02315" lon="0.54305">
        <ele>525</ele>
        <time>2018-03-18T11:21:23.000Z</time>
      </trkpt>
      <trkpt lat="43.02314" lon="0.54305">
        <ele>525</ele>
        <time>2018-03-18T11:21:25.000Z</time>
      </trkpt>
      <trkpt lat="43.02313" lon="0.54305">
        <ele>525</ele>
        <time>2018-03-18T11:21:27.000Z</time>
      </trkpt>
      <trkpt lat="43.02312" lon="0.54305">
        <ele>525</ele>
        <time>2018-03-18T11:21:29.000Z</time>
      </trkpt>
      <trkpt lat="43.02311" lon="0.54305">
        <ele>525</ele>
        <time>2018-03-18T11:21:31.000Z</time>
      </trkpt>
      <trkpt lat="43.02311" lon="0.54305">
        <ele>525</ele>
        <time>2018-03-18T11:21:33.000Z</time>
      </trkpt>
      <trkpt lat="43.0231" lon="0.54305">
        <ele>525</ele>
        <time>2018-03-18T11:21:35.000Z</time>
      </trkpt>
      <trkpt lat="43.0231" lon="0.54306">
        <ele>524</ele>
        <time>2018-03-18T11:21:37.000Z</time>
      </trkpt>
      <trkpt lat="43.0231" lon="0.54306">
        <ele>524</ele>
        <time>2018-03-18T11:21:39.000Z</time>
      </trkpt>
      <trkpt lat="43.0231" lon="0.54307">
        <ele>524</ele>
        <time>2018-03-18T11:21:41.000Z</time>
      </trkpt>
      <trkpt lat="43.0231" lon="0.54307">
        <ele>524</ele>
        <time>2018-03-18T11:21:43.000Z</time>
      </trkpt>
      <trkpt lat="43.02309" lon="0.54308">
        <ele>524</ele>
        <time>2018-03-18T11:21:45.000Z</time>
      </trkpt>
      <trkpt lat="43.02309" lon="0.54309">
        <ele>524</ele>
        <time>2018-03-18T11:21:47.000Z</time>
      </trkpt>
      <trkpt lat="43.02309" lon="0.5431">
        <ele>524</ele>
        <time>2018-03-18T11:21:49.000Z</time>
      </trkpt>
      <trkpt lat="43.02309" lon="0.54311">
        <ele>524</ele>
        <time>2018-03-18T11:21:51.000Z</time>
      </trkpt>
      <trkpt lat="43.02308" lon="0.54312">
        <ele>524</ele>
        <time>2018-03-18T11:21:53.000Z</time>
      </trkpt>
      <trkpt lat="43.02308" lon="0.54312">
        <ele>524</ele>
        <time>2018-03-18T11:21:55.000Z</time>
      </trkpt>
      <trkpt lat="43.02308" lon="0.54312">
        <ele>524</ele>
        <time>2018-03-18T11:21:57.000Z</time>
      </trkpt>
      <trkpt lat="43.02308" lon="0.54312">
        <ele>524</ele>
        <time>2018-03-18T11:21:59.000Z</time>
      </trkpt>
      <trkpt lat="43.02307" lon="0.54311">
        <ele>524</ele>
        <time>2018-03-18T11:22:01.000Z</time>
      </trkpt>
      <trkpt lat="43.02307" lon="0.54311">
        <ele>524</ele>
        <time>2018-03-18T11:22:03.000Z</time>
      </trkpt>
      <trkpt lat="43.02307" lon="0.54311">
        <ele>524</ele>
        <time>2018-03-18T11:22:05.000Z</time>
      </trkpt>
      <trkpt lat="43.02306" lon="0.5431">
        <ele>524</ele>
        <time>2018-03-18T11:22:07.000Z</time>
      </trkpt>
      <trkpt lat="43.02306" lon="0.5431">
        <ele>524</ele>
        <time>2018-03-18T11:22:09.000Z</time>
      </trkpt>
      <trkpt lat="43.02306" lon="0.54309">
        <ele>524</ele>
        <time>2018-03-18T11:22:11.000Z</time>
      </trkpt>
      <trkpt lat="43.02307" lon="0.54309">
        <ele>524</ele>
        <time>2018-03-18T11:22:13.000Z</time>
      </trkpt>
      <trkpt lat="43.02307" lon="0.54309">
        <ele>524</ele>
        <time>2018-03-18T11:22:15.000Z</time>
      </trkpt>
      <trkpt lat="43.02309" lon="0.54308">
        <ele>524</ele>
        <time>2018-03-18T11:22:17.000Z</time>
      </trkpt>
      <trkpt lat="43.02309" lon="0.54307">
        <ele>524</ele>
        <time>2018-03-18T11:22:19.000Z</time>
      </trkpt>
      <trkpt lat="43.02309" lon="0.54307">
        <ele>524</ele>
        <time>2018-03-18T11:22:21.000Z</time>
      </trkpt>
      <trkpt lat="43.02309" lon="0.54308">
        <ele>524</ele>
        <time>2018-03-18T11:22:23.000Z</time>
      </trkpt>
      <trkpt lat="43.02309" lon="0.54309">
        <ele>524</ele>
        <time>2018-03-18T11:22:25.000Z</time>
      </trkpt>
      <trkpt lat="43.02308" lon="0.54308">
        <ele>524</ele>
        <time>2018-03-18T11:22:27.000Z</time>
      </trkpt>
      <trkpt lat="43.02307" lon="0.54307">
        <ele>524</ele>
        <time>2018-03-18T11:22:29.000Z</time>
      </trkpt>
      <trkpt lat="43.02307" lon="0.54308">
        <ele>524</ele>
        <time>2018-03-18T11:22:31.000Z</time>
      </trkpt>
      <trkpt lat="43.02308" lon="0.54308">
        <ele>524</ele>
        <time>2018-03-18T11:22:33.000Z</time>
      </trkpt>
      <trkpt lat="43.02308" lon="0.54308">
        <ele>524</ele>
        <time>2018-03-18T11:22:35.000Z</time>
      </trkpt>
      <trkpt lat="43.02308" lon="0.54308">
        <ele>524</ele>
        <time>2018-03-18T11:22:37.000Z</time>
      </trkpt>
      <trkpt lat="43.02307" lon="0.54308">
        <ele>524</ele>
        <time>2018-03-18T11:22:39.000Z</time>
      </trkpt>
      <trkpt lat="43.02307" lon="0.54308">
        <ele>524</ele>
        <time>2018-03-18T11:22:41.000Z</time>
      </trkpt>
      <trkpt lat="43.02307" lon="0.54309">
        <ele>524</ele>
        <time>2018-03-18T11:22:43.000Z</time>
      </trkpt>
      <trkpt lat="43.02308" lon="0.5431">
        <ele>524</ele>
        <time>2018-03-18T11:22:45.000Z</time>
      </trkpt>
      <trkpt lat="43.02309" lon="0.54309">
        <ele>524</ele>
        <time>2018-03-18T11:22:47.000Z</time>
      </trkpt>
      <trkpt lat="43.0231" lon="0.54309">
        <ele>524</ele>
        <time>2018-03-18T11:22:49.000Z</time>
      </trkpt>
      <trkpt lat="43.0231" lon="0.54309">
        <ele>524</ele>
        <time>2018-03-18T11:22:51.000Z</time>
      </trkpt>
      <trkpt lat="43.0231" lon="0.54308">
        <ele>524</ele>
        <time>2018-03-18T11:22:53.000Z</time>
      </trkpt>
      <trkpt lat="43.0231" lon="0.54308">
        <ele>524</ele>
        <time>2018-03-18T11:22:55.000Z</time>
      </trkpt>
      <trkpt lat="43.0231" lon="0.54308">
        <ele>524</ele>
        <time>2018-03-18T11:22:57.000Z</time>
      </trkpt>
      <trkpt lat="43.0231" lon="0.54307">
        <ele>524</ele>
        <time>2018-03-18T11:22:59.000Z</time>
      </trkpt>
      <trkpt lat="43.02309" lon="0.54307">
        <ele>524</ele>
        <time>2018-03-18T11:23:01.000Z</time>
      </trkpt>
      <trkpt lat="43.02309" lon="0.54308">
        <ele>524</ele>
        <time>2018-03-18T11:23:03.000Z</time>
      </trkpt>
      <trkpt lat="43.02308" lon="0.54308">
        <ele>524</ele>
        <time>2018-03-18T11:23:05.000Z</time>
      </trkpt>
      <trkpt lat="43.02308" lon="0.54308">
        <ele>524</ele>
        <time>2018-03-18T11:23:07.000Z</time>
      </trkpt>
      <trkpt lat="43.02307" lon="0.54308">
        <ele>524</ele>
        <time>2018-03-18T11:23:09.000Z</time>
      </trkpt>
      <trkpt lat="43.02307" lon="0.54307">
        <ele>524</ele>
        <time>2018-03-18T11:23:11.000Z</time>
      </trkpt>
      <trkpt lat="43.02307" lon="0.54307">
        <ele>524</ele>
        <time>2018-03-18T11:23:13.000Z</time>
      </trkpt>
      <trkpt lat="43.02307" lon="0.54307">
        <ele>524</ele>
        <time>2018-03-18T11:23:15.000Z</time>
      </trkpt>
      <trkpt lat="43.02307" lon="0.54307">
        <ele>524</ele>
        <time>2018-03-18T11:23:17.000Z</time>
      </trkpt>
      <trkpt lat="43.02307" lon="0.54306">
        <ele>524</ele>
        <time>2018-03-18T11:23:19.000Z</time>
      </trkpt>
      <trkpt lat="43.02307" lon="0.54306">
        <ele>524</ele>
        <time>2018-03-18T11:23:21.000Z</time>
      </trkpt>
      <trkpt lat="43.02307" lon="0.54306">
        <ele>524</ele>
        <time>2018-03-18T11:23:23.000Z</time>
      </trkpt>
      <trkpt lat="43.02307" lon="0.54306">
        <ele>524</ele>
        <time>2018-03-18T11:23:25.000Z</time>
      </trkpt>
      <trkpt lat="43.02307" lon="0.54307">
        <ele>524</ele>
        <time>2018-03-18T11:23:27.000Z</time>
      </trkpt>
      <trkpt lat="43.02307" lon="0.54307">
        <ele>524</ele>
        <time>2018-03-18T11:23:29.000Z</time>
      </trkpt>
      <trkpt lat="43.02307" lon="0.54307">
        <ele>524</ele>
        <time>2018-03-18T11:23:31.000Z</time>
      </trkpt>
      <trkpt lat="43.02306" lon="0.54307">
        <ele>524</ele>
        <time>2018-03-18T11:23:33.000Z</time>
      </trkpt>
      <trkpt lat="43.02306" lon="0.54306">
        <ele>524</ele>
        <time>2018-03-18T11:23:35.000Z</time>
      </trkpt>
      <trkpt lat="43.02306" lon="0.54306">
        <ele>524</ele>
        <time>2018-03-18T11:23:37.000Z</time>
      </trkpt>
      <trkpt lat="43.02306" lon="0.54305">
        <ele>524</ele>
        <time>2018-03-18T11:23:39.000Z</time>
      </trkpt>
      <trkpt lat="43.02306" lon="0.54304">
        <ele>524</ele>
        <time>2018-03-18T11:23:41.000Z</time>
      </trkpt>
      <trkpt lat="43.02306" lon="0.54304">
        <ele>524</ele>
        <time>2018-03-18T11:23:43.000Z</time>
      </trkpt>
      <trkpt lat="43.02306" lon="0.54303">
        <ele>525</ele>
        <time>2018-03-18T11:23:45.000Z</time>
      </trkpt>
      <trkpt lat="43.02307" lon="0.54302">
        <ele>525</ele>
        <time>2018-03-18T11:23:47.000Z</time>
      </trkpt>
      <trkpt lat="43.02307" lon="0.54301">
        <ele>525</ele>
        <time>2018-03-18T11:23:49.000Z</time>
      </trkpt>
      <trkpt lat="43.02308" lon="0.543">
        <ele>525</ele>
        <time>2018-03-18T11:23:51.000Z</time>
      </trkpt>
      <trkpt lat="43.02308" lon="0.54299">
        <ele>525</ele>
        <time>2018-03-18T11:23:53.000Z</time>
      </trkpt>
      <trkpt lat="43.02309" lon="0.54299">
        <ele>525</ele>
        <time>2018-03-18T11:23:55.000Z</time>
      </trkpt>
      <trkpt lat="43.02309" lon="0.54298">
        <ele>525</ele>
        <time>2018-03-18T11:23:57.000Z</time>
      </trkpt>
      <trkpt lat="43.0231" lon="0.54298">
        <ele>525</ele>
        <time>2018-03-18T11:23:59.000Z</time>
      </trkpt>
      <trkpt lat="43.02311" lon="0.54298">
        <ele>525</ele>
        <time>2018-03-18T11:24:01.000Z</time>
      </trkpt>
      <trkpt lat="43.02312" lon="0.54299">
        <ele>525</ele>
        <time>2018-03-18T11:24:03.000Z</time>
      </trkpt>
      <trkpt lat="43.02312" lon="0.54299">
        <ele>525</ele>
        <time>2018-03-18T11:24:05.000Z</time>
      </trkpt>
      <trkpt lat="43.02312" lon="0.543">
        <ele>525</ele>
        <time>2018-03-18T11:24:07.000Z</time>
      </trkpt>
      <trkpt lat="43.02312" lon="0.54301">
        <ele>525</ele>
        <time>2018-03-18T11:24:09.000Z</time>
      </trkpt>
      <trkpt lat="43.02312" lon="0.54302">
        <ele>525</ele>
        <time>2018-03-18T11:24:11.000Z</time>
      </trkpt>
      <trkpt lat="43.02311" lon="0.54302">
        <ele>525</ele>
        <time>2018-03-18T11:24:13.000Z</time>
      </trkpt>
      <trkpt lat="43.0231" lon="0.54303">
        <ele>525</ele>
        <time>2018-03-18T11:24:15.000Z</time>
      </trkpt>
      <trkpt lat="43.02309" lon="0.54303">
        <ele>525</ele>
        <time>2018-03-18T11:24:17.000Z</time>
      </trkpt>
      <trkpt lat="43.02308" lon="0.54304">
        <ele>525</ele>
        <time>2018-03-18T11:24:19.000Z</time>
      </trkpt>
      <trkpt lat="43.02308" lon="0.54304">
        <ele>525</ele>
        <time>2018-03-18T11:24:21.000Z</time>
      </trkpt>
      <trkpt lat="43.02307" lon="0.54304">
        <ele>524</ele>
        <time>2018-03-18T11:24:23.000Z</time>
      </trkpt>
      <trkpt lat="43.02306" lon="0.54305">
        <ele>524</ele>
        <time>2018-03-18T11:24:25.000Z</time>
      </trkpt>
      <trkpt lat="43.02305" lon="0.54305">
        <ele>524</ele>
        <time>2018-03-18T11:24:27.000Z</time>
      </trkpt>
      <trkpt lat="43.02304" lon="0.54305">
        <ele>524</ele>
        <time>2018-03-18T11:24:29.000Z</time>
      </trkpt>
      <trkpt lat="43.02303" lon="0.54307">
        <ele>524</ele>
        <time>2018-03-18T11:24:31.000Z</time>
      </trkpt>
      <trkpt lat="43.02302" lon="0.54308">
        <ele>524</ele>
        <time>2018-03-18T11:24:33.000Z</time>
      </trkpt>
      <trkpt lat="43.02301" lon="0.54308">
        <ele>524</ele>
        <time>2018-03-18T11:24:35.000Z</time>
      </trkpt>
      <trkpt lat="43.023" lon="0.54309">
        <ele>524</ele>
        <time>2018-03-18T11:24:37.000Z</time>
      </trkpt>
      <trkpt lat="43.023" lon="0.5431">
        <ele>524</ele>
        <time>2018-03-18T11:24:39.000Z</time>
      </trkpt>
      <trkpt lat="43.023" lon="0.54311">
        <ele>524</ele>
        <time>2018-03-18T11:24:41.000Z</time>
      </trkpt>
      <trkpt lat="43.023" lon="0.54311">
        <ele>524</ele>
        <time>2018-03-18T11:24:43.000Z</time>
      </trkpt>
      <trkpt lat="43.02301" lon="0.54311">
        <ele>524</ele>
        <time>2018-03-18T11:24:45.000Z</time>
      </trkpt>
      <trkpt lat="43.02302" lon="0.54311">
        <ele>524</ele>
        <time>2018-03-18T11:24:47.000Z</time>
      </trkpt>
      <trkpt lat="43.02302" lon="0.54311">
        <ele>524</ele>
        <time>2018-03-18T11:24:49.000Z</time>
      </trkpt>
      <trkpt lat="43.02303" lon="0.54312">
        <ele>524</ele>
        <time>2018-03-18T11:24:51.000Z</time>
      </trkpt>
      <trkpt lat="43.02303" lon="0.54312">
        <ele>524</ele>
        <time>2018-03-18T11:24:53.000Z</time>
      </trkpt>
      <trkpt lat="43.02303" lon="0.54313">
        <ele>524</ele>
        <time>2018-03-18T11:24:55.000Z</time>
      </trkpt>
      <trkpt lat="43.02303" lon="0.54314">
        <ele>524</ele>
        <time>2018-03-18T11:24:57.000Z</time>
      </trkpt>
      <trkpt lat="43.02305" lon="0.54315">
        <ele>524</ele>
        <time>2018-03-18T11:24:59.000Z</time>
      </trkpt>
      <trkpt lat="43.02305" lon="0.54316">
        <ele>524</ele>
        <time>2018-03-18T11:25:01.000Z</time>
      </trkpt>
      <trkpt lat="43.02305" lon="0.54317">
        <ele>523</ele>
        <time>2018-03-18T11:25:03.000Z</time>
      </trkpt>
      <trkpt lat="43.02305" lon="0.54318">
        <ele>523</ele>
        <time>2018-03-18T11:25:05.000Z</time>
      </trkpt>
      <trkpt lat="43.02305" lon="0.54318">
        <ele>523</ele>
        <time>2018-03-18T11:25:07.000Z</time>
      </trkpt>
      <trkpt lat="43.02305" lon="0.54319">
        <ele>523</ele>
        <time>2018-03-18T11:25:09.000Z</time>
      </trkpt>
      <trkpt lat="43.02305" lon="0.5432">
        <ele>523</ele>
        <time>2018-03-18T11:25:11.000Z</time>
      </trkpt>
      <trkpt lat="43.02304" lon="0.5432">
        <ele>523</ele>
        <time>2018-03-18T11:25:13.000Z</time>
      </trkpt>
      <trkpt lat="43.02304" lon="0.5432">
        <ele>523</ele>
        <time>2018-03-18T11:25:15.000Z</time>
      </trkpt>
      <trkpt lat="43.02304" lon="0.54319">
        <ele>523</ele>
        <time>2018-03-18T11:25:17.000Z</time>
      </trkpt>
      <trkpt lat="43.02304" lon="0.54319">
        <ele>523</ele>
        <time>2018-03-18T11:25:19.000Z</time>
      </trkpt>
      <trkpt lat="43.02304" lon="0.54318">
        <ele>523</ele>
        <time>2018-03-18T11:25:21.000Z</time>
      </trkpt>
      <trkpt lat="43.02304" lon="0.54318">
        <ele>523</ele>
        <time>2018-03-18T11:25:23.000Z</time>
      </trkpt>
      <trkpt lat="43.02304" lon="0.54318">
        <ele>523</ele>
        <time>2018-03-18T11:25:25.000Z</time>
      </trkpt>
      <trkpt lat="43.02303" lon="0.54317">
        <ele>523</ele>
        <time>2018-03-18T11:25:27.000Z</time>
      </trkpt>
      <trkpt lat="43.02303" lon="0.54316">
        <ele>523</ele>
        <time>2018-03-18T11:25:29.000Z</time>
      </trkpt>
      <trkpt lat="43.02302" lon="0.54317">
        <ele>523</ele>
        <time>2018-03-18T11:25:31.000Z</time>
      </trkpt>
      <trkpt lat="43.02302" lon="0.54317">
        <ele>523</ele>
        <time>2018-03-18T11:25:33.000Z</time>
      </trkpt>
      <trkpt lat="43.02301" lon="0.54318">
        <ele>523</ele>
        <time>2018-03-18T11:25:35.000Z</time>
      </trkpt>
      <trkpt lat="43.02301" lon="0.54319">
        <ele>523</ele>
        <time>2018-03-18T11:25:37.000Z</time>
      </trkpt>
      <trkpt lat="43.02302" lon="0.54319">
        <ele>523</ele>
        <time>2018-03-18T11:25:39.000Z</time>
      </trkpt>
      <trkpt lat="43.02304" lon="0.54319">
        <ele>523</ele>
        <time>2018-03-18T11:25:41.000Z</time>
      </trkpt>
      <trkpt lat="43.02305" lon="0.54319">
        <ele>523</ele>
        <time>2018-03-18T11:25:43.000Z</time>
      </trkpt>
      <trkpt lat="43.02304" lon="0.54319">
        <ele>523</ele>
        <time>2018-03-18T11:25:45.000Z</time>
      </trkpt>
      <trkpt lat="43.02305" lon="0.54318">
        <ele>523</ele>
        <time>2018-03-18T11:25:47.000Z</time>
      </trkpt>
      <trkpt lat="43.02305" lon="0.54317">
        <ele>523</ele>
        <time>2018-03-18T11:25:49.000Z</time>
      </trkpt>
      <trkpt lat="43.02306" lon="0.54316">
        <ele>524</ele>
        <time>2018-03-18T11:25:51.000Z</time>
      </trkpt>
      <trkpt lat="43.02306" lon="0.54316">
        <ele>524</ele>
        <time>2018-03-18T11:25:53.000Z</time>
      </trkpt>
      <trkpt lat="43.02307" lon="0.54316">
        <ele>524</ele>
        <time>2018-03-18T11:25:55.000Z</time>
      </trkpt>
      <trkpt lat="43.02307" lon="0.54316">
        <ele>524</ele>
        <time>2018-03-18T11:25:57.000Z</time>
      </trkpt>
      <trkpt lat="43.02307" lon="0.54316">
        <ele>524</ele>
        <time>2018-03-18T11:25:59.000Z</time>
      </trkpt>
      <trkpt lat="43.02307" lon="0.54315">
        <ele>524</ele>
        <time>2018-03-18T11:26:01.000Z</time>
      </trkpt>
      <trkpt lat="43.02307" lon="0.54315">
        <ele>524</ele>
        <time>2018-03-18T11:26:03.000Z</time>
      </trkpt>
      <trkpt lat="43.02307" lon="0.54315">
        <ele>524</ele>
        <time>2018-03-18T11:26:05.000Z</time>
      </trkpt>
      <trkpt lat="43.02308" lon="0.54315">
        <ele>524</ele>
        <time>2018-03-18T11:26:07.000Z</time>
      </trkpt>
      <trkpt lat="43.02309" lon="0.54315">
        <ele>524</ele>
        <time>2018-03-18T11:26:09.000Z</time>
      </trkpt>
      <trkpt lat="43.02309" lon="0.54315">
        <ele>524</ele>
        <time>2018-03-18T11:26:11.000Z</time>
      </trkpt>
      <trkpt lat="43.0231" lon="0.54315">
        <ele>524</ele>
        <time>2018-03-18T11:26:13.000Z</time>
      </trkpt>
      <trkpt lat="43.02311" lon="0.54315">
        <ele>524</ele>
        <time>2018-03-18T11:26:15.000Z</time>
      </trkpt>
      <trkpt lat="43.02311" lon="0.54314">
        <ele>524</ele>
        <time>2018-03-18T11:26:17.000Z</time>
      </trkpt>
      <trkpt lat="43.02311" lon="0.54313">
        <ele>524</ele>
        <time>2018-03-18T11:26:19.000Z</time>
      </trkpt>
      <trkpt lat="43.02313" lon="0.54313">
        <ele>524</ele>
        <time>2018-03-18T11:26:21.000Z</time>
      </trkpt>
      <trkpt lat="43.02314" lon="0.54313">
        <ele>524</ele>
        <time>2018-03-18T11:26:23.000Z</time>
      </trkpt>
      <trkpt lat="43.02314" lon="0.54313">
        <ele>524</ele>
        <time>2018-03-18T11:26:25.000Z</time>
      </trkpt>
      <trkpt lat="43.02315" lon="0.54313">
        <ele>524</ele>
        <time>2018-03-18T11:26:27.000Z</time>
      </trkpt>
      <trkpt lat="43.02316" lon="0.54313">
        <ele>524</ele>
        <time>2018-03-18T11:26:29.000Z</time>
      </trkpt>
      <trkpt lat="43.02316" lon="0.54312">
        <ele>524</ele>
        <time>2018-03-18T11:26:31.000Z</time>
      </trkpt>
      <trkpt lat="43.02316" lon="0.54311">
        <ele>524</ele>
        <time>2018-03-18T11:26:33.000Z</time>
      </trkpt>
      <trkpt lat="43.02317" lon="0.54312">
        <ele>524</ele>
        <time>2018-03-18T11:26:35.000Z</time>
      </trkpt>
      <trkpt lat="43.02317" lon="0.54311">
        <ele>524</ele>
        <time>2018-03-18T11:26:37.000Z</time>
      </trkpt>
      <trkpt lat="43.02317" lon="0.5431">
        <ele>524</ele>
        <time>2018-03-18T11:26:39.000Z</time>
      </trkpt>
      <trkpt lat="43.02317" lon="0.5431">
        <ele>524</ele>
        <time>2018-03-18T11:26:41.000Z</time>
      </trkpt>
      <trkpt lat="43.02318" lon="0.5431">
        <ele>524</ele>
        <time>2018-03-18T11:26:43.000Z</time>
      </trkpt>
      <trkpt lat="43.02318" lon="0.5431">
        <ele>524</ele>
        <time>2018-03-18T11:26:45.000Z</time>
      </trkpt>
      <trkpt lat="43.02317" lon="0.5431">
        <ele>524</ele>
        <time>2018-03-18T11:26:47.000Z</time>
      </trkpt>
      <trkpt lat="43.02316" lon="0.5431">
        <ele>524</ele>
        <time>2018-03-18T11:26:49.000Z</time>
      </trkpt>
      <trkpt lat="43.02316" lon="0.5431">
        <ele>524</ele>
        <time>2018-03-18T11:26:51.000Z</time>
      </trkpt>
      <trkpt lat="43.02315" lon="0.5431">
        <ele>524</ele>
        <time>2018-03-18T11:26:53.000Z</time>
      </trkpt>
      <trkpt lat="43.02314" lon="0.5431">
        <ele>524</ele>
        <time>2018-03-18T11:26:55.000Z</time>
      </trkpt>
      <trkpt lat="43.02314" lon="0.54311">
        <ele>524</ele>
        <time>2018-03-18T11:26:57.000Z</time>
      </trkpt>
      <trkpt lat="43.02313" lon="0.5431">
        <ele>524</ele>
        <time>2018-03-18T11:26:59.000Z</time>
      </trkpt>
      <trkpt lat="43.02313" lon="0.5431">
        <ele>524</ele>
        <time>2018-03-18T11:27:01.000Z</time>
      </trkpt>
      <trkpt lat="43.02314" lon="0.54311">
        <ele>524</ele>
        <time>2018-03-18T11:27:03.000Z</time>
      </trkpt>
      <trkpt lat="43.02314" lon="0.54311">
        <ele>524</ele>
        <time>2018-03-18T11:27:05.000Z</time>
      </trkpt>
      <trkpt lat="43.02314" lon="0.54312">
        <ele>524</ele>
        <time>2018-03-18T11:27:07.000Z</time>
      </trkpt>
      <trkpt lat="43.02314" lon="0.54312">
        <ele>524</ele>
        <time>2018-03-18T11:27:09.000Z</time>
      </trkpt>
      <trkpt lat="43.02314" lon="0.54311">
        <ele>524</ele>
        <time>2018-03-18T11:27:11.000Z</time>
      </trkpt>
      <trkpt lat="43.02314" lon="0.54311">
        <ele>524</ele>
        <time>2018-03-18T11:27:13.000Z</time>
      </trkpt>
      <trkpt lat="43.02314" lon="0.5431">
        <ele>524</ele>
        <time>2018-03-18T11:27:15.000Z</time>
      </trkpt>
      <trkpt lat="43.02313" lon="0.5431">
        <ele>524</ele>
        <time>2018-03-18T11:27:17.000Z</time>
      </trkpt>
      <trkpt lat="43.02314" lon="0.5431">
        <ele>524</ele>
        <time>2018-03-18T11:27:19.000Z</time>
      </trkpt>
      <trkpt lat="43.02315" lon="0.5431">
        <ele>524</ele>
        <time>2018-03-18T11:27:21.000Z</time>
      </trkpt>
      <trkpt lat="43.02316" lon="0.5431">
        <ele>524</ele>
        <time>2018-03-18T11:27:23.000Z</time>
      </trkpt>
      <trkpt lat="43.02319" lon="0.54308">
        <ele>525</ele>
        <time>2018-03-18T11:27:25.000Z</time>
      </trkpt>
      <trkpt lat="43.0232" lon="0.54307">
        <ele>525</ele>
        <time>2018-03-18T11:27:27.000Z</time>
      </trkpt>
      <trkpt lat="43.02322" lon="0.54306">
        <ele>525</ele>
        <time>2018-03-18T11:27:29.000Z</time>
      </trkpt>
      <trkpt lat="43.02323" lon="0.54306">
        <ele>525</ele>
        <time>2018-03-18T11:27:31.000Z</time>
      </trkpt>
      <trkpt lat="43.02323" lon="0.54307">
        <ele>525</ele>
        <time>2018-03-18T11:27:33.000Z</time>
      </trkpt>
      <trkpt lat="43.02323" lon="0.54307">
        <ele>525</ele>
        <time>2018-03-18T11:27:35.000Z</time>
      </trkpt>
      <trkpt lat="43.02323" lon="0.54307">
        <ele>525</ele>
        <time>2018-03-18T11:27:37.000Z</time>
      </trkpt>
      <trkpt lat="43.02323" lon="0.54307">
        <ele>525</ele>
        <time>2018-03-18T11:27:39.000Z</time>
      </trkpt>
      <trkpt lat="43.02323" lon="0.54307">
        <ele>525</ele>
        <time>2018-03-18T11:27:41.000Z</time>
      </trkpt>
      <trkpt lat="43.02323" lon="0.54307">
        <ele>525</ele>
        <time>2018-03-18T11:27:43.000Z</time>
      </trkpt>
      <trkpt lat="43.02323" lon="0.54307">
        <ele>525</ele>
        <time>2018-03-18T11:27:45.000Z</time>
      </trkpt>
      <trkpt lat="43.02323" lon="0.54309">
        <ele>525</ele>
        <time>2018-03-18T11:27:47.000Z</time>
      </trkpt>
      <trkpt lat="43.02323" lon="0.54311">
        <ele>525</ele>
        <time>2018-03-18T11:27:49.000Z</time>
      </trkpt>
      <trkpt lat="43.02321" lon="0.5431">
        <ele>525</ele>
        <time>2018-03-18T11:27:51.000Z</time>
      </trkpt>
      <trkpt lat="43.02321" lon="0.54312">
        <ele>524</ele>
        <time>2018-03-18T11:27:53.000Z</time>
      </trkpt>
      <trkpt lat="43.02319" lon="0.54314">
        <ele>524</ele>
        <time>2018-03-18T11:27:55.000Z</time>
      </trkpt>
      <trkpt lat="43.02317" lon="0.54315">
        <ele>524</ele>
        <time>2018-03-18T11:27:57.000Z</time>
      </trkpt>
      <trkpt lat="43.02316" lon="0.54316">
        <ele>524</ele>
        <time>2018-03-18T11:27:59.000Z</time>
      </trkpt>
      <trkpt lat="43.02315" lon="0.54318">
        <ele>524</ele>
        <time>2018-03-18T11:28:01.000Z</time>
      </trkpt>
      <trkpt lat="43.02314" lon="0.54319">
        <ele>524</ele>
        <time>2018-03-18T11:28:03.000Z</time>
      </trkpt>
      <trkpt lat="43.02314" lon="0.54319">
        <ele>524</ele>
        <time>2018-03-18T11:28:05.000Z</time>
      </trkpt>
      <trkpt lat="43.02313" lon="0.54319">
        <ele>524</ele>
        <time>2018-03-18T11:28:07.000Z</time>
      </trkpt>
      <trkpt lat="43.02311" lon="0.5432">
        <ele>524</ele>
        <time>2018-03-18T11:28:09.000Z</time>
      </trkpt>
      <trkpt lat="43.02311" lon="0.54319">
        <ele>524</ele>
        <time>2018-03-18T11:28:11.000Z</time>
      </trkpt>
      <trkpt lat="43.02309" lon="0.54318">
        <ele>524</ele>
        <time>2018-03-18T11:28:13.000Z</time>
      </trkpt>
      <trkpt lat="43.02307" lon="0.54318">
        <ele>524</ele>
        <time>2018-03-18T11:28:15.000Z</time>
      </trkpt>
      <trkpt lat="43.02306" lon="0.54317">
        <ele>524</ele>
        <time>2018-03-18T11:28:17.000Z</time>
      </trkpt>
      <trkpt lat="43.02304" lon="0.54317">
        <ele>523</ele>
        <time>2018-03-18T11:28:19.000Z</time>
      </trkpt>
      <trkpt lat="43.02303" lon="0.54317">
        <ele>523</ele>
        <time>2018-03-18T11:28:21.000Z</time>
      </trkpt>
      <trkpt lat="43.02301" lon="0.54316">
        <ele>523</ele>
        <time>2018-03-18T11:28:23.000Z</time>
      </trkpt>
      <trkpt lat="43.02301" lon="0.54315">
        <ele>523</ele>
        <time>2018-03-18T11:28:25.000Z</time>
      </trkpt>
      <trkpt lat="43.023" lon="0.54315">
        <ele>523</ele>
        <time>2018-03-18T11:28:27.000Z</time>
      </trkpt>
      <trkpt lat="43.023" lon="0.54315">
        <ele>523</ele>
        <time>2018-03-18T11:28:29.000Z</time>
      </trkpt>
      <trkpt lat="43.023" lon="0.54315">
        <ele>523</ele>
        <time>2018-03-18T11:28:31.000Z</time>
      </trkpt>
      <trkpt lat="43.023" lon="0.54315">
        <ele>523</ele>
        <time>2018-03-18T11:28:33.000Z</time>
      </trkpt>
      <trkpt lat="43.02299" lon="0.54314">
        <ele>524</ele>
        <time>2018-03-18T11:28:35.000Z</time>
      </trkpt>
      <trkpt lat="43.02299" lon="0.54313">
        <ele>524</ele>
        <time>2018-03-18T11:28:37.000Z</time>
      </trkpt>
      <trkpt lat="43.02298" lon="0.54313">
        <ele>524</ele>
        <time>2018-03-18T11:28:39.000Z</time>
      </trkpt>
      <trkpt lat="43.02298" lon="0.54312">
        <ele>524</ele>
        <time>2018-03-18T11:28:41.000Z</time>
      </trkpt>
      <trkpt lat="43.02298" lon="0.54312">
        <ele>524</ele>
        <time>2018-03-18T11:28:43.000Z</time>
      </trkpt>
      <trkpt lat="43.02298" lon="0.54311">
        <ele>524</ele>
        <time>2018-03-18T11:28:45.000Z</time>
      </trkpt>
      <trkpt lat="43.02299" lon="0.54311">
        <ele>524</ele>
        <time>2018-03-18T11:28:47.000Z</time>
      </trkpt>
      <trkpt lat="43.02301" lon="0.5431">
        <ele>524</ele>
        <time>2018-03-18T11:28:49.000Z</time>
      </trkpt>
      <trkpt lat="43.02302" lon="0.54309">
        <ele>524</ele>
        <time>2018-03-18T11:28:51.000Z</time>
      </trkpt>
      <trkpt lat="43.02303" lon="0.54309">
        <ele>524</ele>
        <time>2018-03-18T11:28:53.000Z</time>
      </trkpt>
      <trkpt lat="43.02303" lon="0.54309">
        <ele>524</ele>
        <time>2018-03-18T11:28:55.000Z</time>
      </trkpt>
      <trkpt lat="43.02302" lon="0.54308">
        <ele>524</ele>
        <time>2018-03-18T11:28:57.000Z</time>
      </trkpt>
      <trkpt lat="43.02302" lon="0.54308">
        <ele>524</ele>
        <time>2018-03-18T11:28:59.000Z</time>
      </trkpt>
      <trkpt lat="43.02302" lon="0.54307">
        <ele>524</ele>
        <time>2018-03-18T11:29:01.000Z</time>
      </trkpt>
      <trkpt lat="43.02303" lon="0.54306">
        <ele>524</ele>
        <time>2018-03-18T11:29:03.000Z</time>
      </trkpt>
      <trkpt lat="43.02303" lon="0.54306">
        <ele>524</ele>
        <time>2018-03-18T11:29:05.000Z</time>
      </trkpt>
      <trkpt lat="43.02303" lon="0.54305">
        <ele>524</ele>
        <time>2018-03-18T11:29:07.000Z</time>
      </trkpt>
      <trkpt lat="43.02304" lon="0.54304">
        <ele>524</ele>
        <time>2018-03-18T11:29:09.000Z</time>
      </trkpt>
      <trkpt lat="43.02305" lon="0.54303">
        <ele>525</ele>
        <time>2018-03-18T11:29:11.000Z</time>
      </trkpt>
      <trkpt lat="43.02306" lon="0.54302">
        <ele>525</ele>
        <time>2018-03-18T11:29:13.000Z</time>
      </trkpt>
      <trkpt lat="43.02307" lon="0.543">
        <ele>525</ele>
        <time>2018-03-18T11:29:15.000Z</time>
      </trkpt>
      <trkpt lat="43.02308" lon="0.54298">
        <ele>525</ele>
        <time>2018-03-18T11:29:17.000Z</time>
      </trkpt>
      <trkpt lat="43.02309" lon="0.54296">
        <ele>525</ele>
        <time>2018-03-18T11:29:19.000Z</time>
      </trkpt>
      <trkpt lat="43.0231" lon="0.54294">
        <ele>525</ele>
        <time>2018-03-18T11:29:21.000Z</time>
      </trkpt>
      <trkpt lat="43.0231" lon="0.54293">
        <ele>525</ele>
        <time>2018-03-18T11:29:23.000Z</time>
      </trkpt>
      <trkpt lat="43.02311" lon="0.54292">
        <ele>526</ele>
        <time>2018-03-18T11:29:25.000Z</time>
      </trkpt>
      <trkpt lat="43.02312" lon="0.5429">
        <ele>526</ele>
        <time>2018-03-18T11:29:27.000Z</time>
      </trkpt>
      <trkpt lat="43.02313" lon="0.54288">
        <ele>526</ele>
        <time>2018-03-18T11:29:29.000Z</time>
      </trkpt>
      <trkpt lat="43.02313" lon="0.54287">
        <ele>526</ele>
        <time>2018-03-18T11:29:31.000Z</time>
      </trkpt>
      <trkpt lat="43.02313" lon="0.54286">
        <ele>526</ele>
        <time>2018-03-18T11:29:33.000Z</time>
      </trkpt>
      <trkpt lat="43.02313" lon="0.54286">
        <ele>526</ele>
        <time>2018-03-18T11:29:35.000Z</time>
      </trkpt>
      <trkpt lat="43.02312" lon="0.54286">
        <ele>526</ele>
        <time>2018-03-18T11:29:37.000Z</time>
      </trkpt>
      <trkpt lat="43.02312" lon="0.54286">
        <ele>526</ele>
        <time>2018-03-18T11:29:39.000Z</time>
      </trkpt>
      <trkpt lat="43.02311" lon="0.54287">
        <ele>526</ele>
        <time>2018-03-18T11:29:41.000Z</time>
      </trkpt>
      <trkpt lat="43.02311" lon="0.54287">
        <ele>526</ele>
        <time>2018-03-18T11:29:43.000Z</time>
      </trkpt>
      <trkpt lat="43.02312" lon="0.54285">
        <ele>526</ele>
        <time>2018-03-18T11:29:45.000Z</time>
      </trkpt>
      <trkpt lat="43.02312" lon="0.54284">
        <ele>526</ele>
        <time>2018-03-18T11:29:47.000Z</time>
      </trkpt>
      <trkpt lat="43.02313" lon="0.54283">
        <ele>526</ele>
        <time>2018-03-18T11:29:49.000Z</time>
      </trkpt>
      <trkpt lat="43.02315" lon="0.54283">
        <ele>527</ele>
        <time>2018-03-18T11:29:51.000Z</time>
      </trkpt>
      <trkpt lat="43.02316" lon="0.54282">
        <ele>527</ele>
        <time>2018-03-18T11:29:53.000Z</time>
      </trkpt>
      <trkpt lat="43.02317" lon="0.54282">
        <ele>527</ele>
        <time>2018-03-18T11:29:55.000Z</time>
      </trkpt>
      <trkpt lat="43.02317" lon="0.54282">
        <ele>527</ele>
        <time>2018-03-18T11:29:57.000Z</time>
      </trkpt>
      <trkpt lat="43.02319" lon="0.54282">
        <ele>527</ele>
        <time>2018-03-18T11:29:59.000Z</time>
      </trkpt>
      <trkpt lat="43.02319" lon="0.54281">
        <ele>527</ele>
        <time>2018-03-18T11:30:01.000Z</time>
      </trkpt>
      <trkpt lat="43.0232" lon="0.54281">
        <ele>527</ele>
        <time>2018-03-18T11:30:03.000Z</time>
      </trkpt>
      <trkpt lat="43.02321" lon="0.5428">
        <ele>527</ele>
        <time>2018-03-18T11:30:05.000Z</time>
      </trkpt>
      <trkpt lat="43.02322" lon="0.5428">
        <ele>527</ele>
        <time>2018-03-18T11:30:07.000Z</time>
      </trkpt>
      <trkpt lat="43.02323" lon="0.54279">
        <ele>527</ele>
        <time>2018-03-18T11:30:09.000Z</time>
      </trkpt>
      <trkpt lat="43.02324" lon="0.54279">
        <ele>527</ele>
        <time>2018-03-18T11:30:11.000Z</time>
      </trkpt>
      <trkpt lat="43.02325" lon="0.54279">
        <ele>528</ele>
        <time>2018-03-18T11:30:13.000Z</time>
      </trkpt>
      <trkpt lat="43.02326" lon="0.54278">
        <ele>528</ele>
        <time>2018-03-18T11:30:15.000Z</time>
      </trkpt>
      <trkpt lat="43.02327" lon="0.54278">
        <ele>528</ele>
        <time>2018-03-18T11:30:17.000Z</time>
      </trkpt>
      <trkpt lat="43.02328" lon="0.54278">
        <ele>528</ele>
        <time>2018-03-18T11:30:19.000Z</time>
      </trkpt>
      <trkpt lat="43.02328" lon="0.54279">
        <ele>528</ele>
        <time>2018-03-18T11:30:21.000Z</time>
      </trkpt>
      <trkpt lat="43.02329" lon="0.5428">
        <ele>528</ele>
        <time>2018-03-18T11:30:23.000Z</time>
      </trkpt>
      <trkpt lat="43.02331" lon="0.54281">
        <ele>528</ele>
        <time>2018-03-18T11:30:25.000Z</time>
      </trkpt>
      <trkpt lat="43.02332" lon="0.54282">
        <ele>528</ele>
        <time>2018-03-18T11:30:27.000Z</time>
      </trkpt>
      <trkpt lat="43.02334" lon="0.54284">
        <ele>528</ele>
        <time>2018-03-18T11:30:29.000Z</time>
      </trkpt>
      <trkpt lat="43.02336" lon="0.54285">
        <ele>528</ele>
        <time>2018-03-18T11:30:31.000Z</time>
      </trkpt>
      <trkpt lat="43.02337" lon="0.54286">
        <ele>528</ele>
        <time>2018-03-18T11:30:33.000Z</time>
      </trkpt>
      <trkpt lat="43.02338" lon="0.54287">
        <ele>528</ele>
        <time>2018-03-18T11:30:35.000Z</time>
      </trkpt>
      <trkpt lat="43.02339" lon="0.54288">
        <ele>528</ele>
        <time>2018-03-18T11:30:37.000Z</time>
      </trkpt>
      <trkpt lat="43.0234" lon="0.5429">
        <ele>528</ele>
        <time>2018-03-18T11:30:39.000Z</time>
      </trkpt>
      <trkpt lat="43.0234" lon="0.54291">
        <ele>527</ele>
        <time>2018-03-18T11:30:41.000Z</time>
      </trkpt>
      <trkpt lat="43.02341" lon="0.54292">
        <ele>527</ele>
        <time>2018-03-18T11:30:43.000Z</time>
      </trkpt>
      <trkpt lat="43.02341" lon="0.54293">
        <ele>527</ele>
        <time>2018-03-18T11:30:45.000Z</time>
      </trkpt>
      <trkpt lat="43.02341" lon="0.54293">
        <ele>527</ele>
        <time>2018-03-18T11:30:47.000Z</time>
      </trkpt>
      <trkpt lat="43.02342" lon="0.54294">
        <ele>527</ele>
        <time>2018-03-18T11:30:49.000Z</time>
      </trkpt>
      <trkpt lat="43.02342" lon="0.54294">
        <ele>527</ele>
        <time>2018-03-18T11:30:51.000Z</time>
      </trkpt>
      <trkpt lat="43.02343" lon="0.54294">
        <ele>527</ele>
        <time>2018-03-18T11:30:53.000Z</time>
      </trkpt>
      <trkpt lat="43.02343" lon="0.54294">
        <ele>527</ele>
        <time>2018-03-18T11:30:55.000Z</time>
      </trkpt>
      <trkpt lat="43.02343" lon="0.54295">
        <ele>527</ele>
        <time>2018-03-18T11:30:57.000Z</time>
      </trkpt>
      <trkpt lat="43.02343" lon="0.54295">
        <ele>527</ele>
        <time>2018-03-18T11:30:59.000Z</time>
      </trkpt>
      <trkpt lat="43.02344" lon="0.54295">
        <ele>527</ele>
        <time>2018-03-18T11:31:01.000Z</time>
      </trkpt>
      <trkpt lat="43.02344" lon="0.54296">
        <ele>527</ele>
        <time>2018-03-18T11:31:03.000Z</time>
      </trkpt>
      <trkpt lat="43.02345" lon="0.54296">
        <ele>527</ele>
        <time>2018-03-18T11:31:05.000Z</time>
      </trkpt>
      <trkpt lat="43.02345" lon="0.54296">
        <ele>527</ele>
        <time>2018-03-18T11:31:07.000Z</time>
      </trkpt>
      <trkpt lat="43.02345" lon="0.54296">
        <ele>527</ele>
        <time>2018-03-18T11:31:09.000Z</time>
      </trkpt>
      <trkpt lat="43.02345" lon="0.54296">
        <ele>527</ele>
        <time>2018-03-18T11:31:11.000Z</time>
      </trkpt>
      <trkpt lat="43.02346" lon="0.54296">
        <ele>527</ele>
        <time>2018-03-18T11:31:13.000Z</time>
      </trkpt>
      <trkpt lat="43.02346" lon="0.54295">
        <ele>527</ele>
        <time>2018-03-18T11:31:15.000Z</time>
      </trkpt>
      <trkpt lat="43.02347" lon="0.54294">
        <ele>527</ele>
        <time>2018-03-18T11:31:17.000Z</time>
      </trkpt>
      <trkpt lat="43.02348" lon="0.54294">
        <ele>527</ele>
        <time>2018-03-18T11:31:19.000Z</time>
      </trkpt>
      <trkpt lat="43.02349" lon="0.54294">
        <ele>527</ele>
        <time>2018-03-18T11:31:21.000Z</time>
      </trkpt>
      <trkpt lat="43.0235" lon="0.54294">
        <ele>527</ele>
        <time>2018-03-18T11:31:23.000Z</time>
      </trkpt>
      <trkpt lat="43.02351" lon="0.54295">
        <ele>527</ele>
        <time>2018-03-18T11:31:25.000Z</time>
      </trkpt>
      <trkpt lat="43.02352" lon="0.54296">
        <ele>527</ele>
        <time>2018-03-18T11:31:27.000Z</time>
      </trkpt>
      <trkpt lat="43.02352" lon="0.54296">
        <ele>527</ele>
        <time>2018-03-18T11:31:29.000Z</time>
      </trkpt>
      <trkpt lat="43.02353" lon="0.54297">
        <ele>527</ele>
        <time>2018-03-18T11:31:31.000Z</time>
      </trkpt>
      <trkpt lat="43.02356" lon="0.54298">
        <ele>527</ele>
        <time>2018-03-18T11:31:33.000Z</time>
      </trkpt>
      <trkpt lat="43.02358" lon="0.54298">
        <ele>527</ele>
        <time>2018-03-18T11:31:35.000Z</time>
      </trkpt>
      <trkpt lat="43.0236" lon="0.54298">
        <ele>527</ele>
        <time>2018-03-18T11:31:37.000Z</time>
      </trkpt>
      <trkpt lat="43.02361" lon="0.54298">
        <ele>527</ele>
        <time>2018-03-18T11:31:39.000Z</time>
      </trkpt>
      <trkpt lat="43.02362" lon="0.54297">
        <ele>527</ele>
        <time>2018-03-18T11:31:41.000Z</time>
      </trkpt>
      <trkpt lat="43.02363" lon="0.54297">
        <ele>527</ele>
        <time>2018-03-18T11:31:43.000Z</time>
      </trkpt>
      <trkpt lat="43.02364" lon="0.54297">
        <ele>527</ele>
        <time>2018-03-18T11:31:45.000Z</time>
      </trkpt>
      <trkpt lat="43.02364" lon="0.54297">
        <ele>527</ele>
        <time>2018-03-18T11:31:47.000Z</time>
      </trkpt>
      <trkpt lat="43.02364" lon="0.54297">
        <ele>527</ele>
        <time>2018-03-18T11:31:49.000Z</time>
      </trkpt>
      <trkpt lat="43.02364" lon="0.54298">
        <ele>527</ele>
        <time>2018-03-18T11:31:51.000Z</time>
      </trkpt>
      <trkpt lat="43.02367" lon="0.54297">
        <ele>527</ele>
        <time>2018-03-18T11:31:53.000Z</time>
      </trkpt>
      <trkpt lat="43.02368" lon="0.54297">
        <ele>527</ele>
        <time>2018-03-18T11:31:55.000Z</time>
      </trkpt>
      <trkpt lat="43.0237" lon="0.54297">
        <ele>527</ele>
        <time>2018-03-18T11:31:57.000Z</time>
      </trkpt>
      <trkpt lat="43.02371" lon="0.54297">
        <ele>527</ele>
        <time>2018-03-18T11:31:59.000Z</time>
      </trkpt>
      <trkpt lat="43.02373" lon="0.54297">
        <ele>527</ele>
        <time>2018-03-18T11:32:01.000Z</time>
      </trkpt>
      <trkpt lat="43.02374" lon="0.54297">
        <ele>527</ele>
        <time>2018-03-18T11:32:03.000Z</time>
      </trkpt>
      <trkpt lat="43.02376" lon="0.54297">
        <ele>527</ele>
        <time>2018-03-18T11:32:05.000Z</time>
      </trkpt>
      <trkpt lat="43.02377" lon="0.54297">
        <ele>527</ele>
        <time>2018-03-18T11:32:07.000Z</time>
      </trkpt>
      <trkpt lat="43.0238" lon="0.54297">
        <ele>527</ele>
        <time>2018-03-18T11:32:09.000Z</time>
      </trkpt>
      <trkpt lat="43.02382" lon="0.54296">
        <ele>527</ele>
        <time>2018-03-18T11:32:11.000Z</time>
      </trkpt>
      <trkpt lat="43.02384" lon="0.54296">
        <ele>527</ele>
        <time>2018-03-18T11:32:13.000Z</time>
      </trkpt>
      <trkpt lat="43.02385" lon="0.54296">
        <ele>527</ele>
        <time>2018-03-18T11:32:15.000Z</time>
      </trkpt>
      <trkpt lat="43.02387" lon="0.54296">
        <ele>527</ele>
        <time>2018-03-18T11:32:17.000Z</time>
      </trkpt>
      <trkpt lat="43.02388" lon="0.54297">
        <ele>527</ele>
        <time>2018-03-18T11:32:19.000Z</time>
      </trkpt>
      <trkpt lat="43.0239" lon="0.54297">
        <ele>527</ele>
        <time>2018-03-18T11:32:21.000Z</time>
      </trkpt>
      <trkpt lat="43.02392" lon="0.54297">
        <ele>527</ele>
        <time>2018-03-18T11:32:23.000Z</time>
      </trkpt>
      <trkpt lat="43.02394" lon="0.54297">
        <ele>527</ele>
        <time>2018-03-18T11:32:25.000Z</time>
      </trkpt>
      <trkpt lat="43.02395" lon="0.54298">
        <ele>527</ele>
        <time>2018-03-18T11:32:27.000Z</time>
      </trkpt>
      <trkpt lat="43.02397" lon="0.54298">
        <ele>527</ele>
        <time>2018-03-18T11:32:29.000Z</time>
      </trkpt>
      <trkpt lat="43.02401" lon="0.54299">
        <ele>527</ele>
        <time>2018-03-18T11:32:31.000Z</time>
      </trkpt>
      <trkpt lat="43.02402" lon="0.543">
        <ele>527</ele>
        <time>2018-03-18T11:32:33.000Z</time>
      </trkpt>
      <trkpt lat="43.02405" lon="0.543">
        <ele>527</ele>
        <time>2018-03-18T11:32:35.000Z</time>
      </trkpt>
      <trkpt lat="43.02408" lon="0.54301">
        <ele>527</ele>
        <time>2018-03-18T11:32:37.000Z</time>
      </trkpt>
      <trkpt lat="43.02411" lon="0.54302">
        <ele>527</ele>
        <time>2018-03-18T11:32:39.000Z</time>
      </trkpt>
      <trkpt lat="43.02412" lon="0.54302">
        <ele>527</ele>
        <time>2018-03-18T11:32:41.000Z</time>
      </trkpt>
      <trkpt lat="43.02413" lon="0.54303">
        <ele>527</ele>
        <time>2018-03-18T11:32:43.000Z</time>
      </trkpt>
      <trkpt lat="43.02415" lon="0.54303">
        <ele>527</ele>
        <time>2018-03-18T11:32:45.000Z</time>
      </trkpt>
      <trkpt lat="43.02416" lon="0.54303">
        <ele>527</ele>
        <time>2018-03-18T11:32:47.000Z</time>
      </trkpt>
      <trkpt lat="43.02417" lon="0.54304">
        <ele>527</ele>
        <time>2018-03-18T11:32:49.000Z</time>
      </trkpt>
      <trkpt lat="43.02419" lon="0.54305">
        <ele>526</ele>
        <time>2018-03-18T11:32:51.000Z</time>
      </trkpt>
      <trkpt lat="43.0242" lon="0.54306">
        <ele>526</ele>
        <time>2018-03-18T11:32:53.000Z</time>
      </trkpt>
      <trkpt lat="43.02423" lon="0.54306">
        <ele>526</ele>
        <time>2018-03-18T11:32:55.000Z</time>
      </trkpt>
      <trkpt lat="43.02424" lon="0.54305">
        <ele>526</ele>
        <time>2018-03-18T11:32:57.000Z</time>
      </trkpt>
      <trkpt lat="43.02425" lon="0.54305">
        <ele>527</ele>
        <time>2018-03-18T11:32:59.000Z</time>
      </trkpt>
      <trkpt lat="43.02426" lon="0.54304">
        <ele>527</ele>
        <time>2018-03-18T11:33:01.000Z</time>
      </trkpt>
      <trkpt lat="43.02427" lon="0.54303">
        <ele>527</ele>
        <time>2018-03-18T11:33:03.000Z</time>
      </trkpt>
      <trkpt lat="43.02428" lon="0.54302">
        <ele>527</ele>
        <time>2018-03-18T11:33:05.000Z</time>
      </trkpt>
      <trkpt lat="43.0243" lon="0.54302">
        <ele>527</ele>
        <time>2018-03-18T11:33:07.000Z</time>
      </trkpt>
      <trkpt lat="43.02431" lon="0.54301">
        <ele>527</ele>
        <time>2018-03-18T11:33:09.000Z</time>
      </trkpt>
      <trkpt lat="43.02433" lon="0.54302">
        <ele>527</ele>
        <time>2018-03-18T11:33:11.000Z</time>
      </trkpt>
      <trkpt lat="43.02435" lon="0.54303">
        <ele>526</ele>
        <time>2018-03-18T11:33:13.000Z</time>
      </trkpt>
      <trkpt lat="43.02437" lon="0.54303">
        <ele>526</ele>
        <time>2018-03-18T11:33:15.000Z</time>
      </trkpt>
      <trkpt lat="43.02438" lon="0.54303">
        <ele>526</ele>
        <time>2018-03-18T11:33:17.000Z</time>
      </trkpt>
      <trkpt lat="43.02439" lon="0.54305">
        <ele>526</ele>
        <time>2018-03-18T11:33:19.000Z</time>
      </trkpt>
      <trkpt lat="43.02441" lon="0.54305">
        <ele>526</ele>
        <time>2018-03-18T11:33:21.000Z</time>
      </trkpt>
      <trkpt lat="43.02443" lon="0.54306">
        <ele>526</ele>
        <time>2018-03-18T11:33:23.000Z</time>
      </trkpt>
      <trkpt lat="43.02445" lon="0.54307">
        <ele>526</ele>
        <time>2018-03-18T11:33:25.000Z</time>
      </trkpt>
      <trkpt lat="43.02447" lon="0.54309">
        <ele>525</ele>
        <time>2018-03-18T11:33:27.000Z</time>
      </trkpt>
      <trkpt lat="43.02448" lon="0.54309">
        <ele>525</ele>
        <time>2018-03-18T11:33:29.000Z</time>
      </trkpt>
      <trkpt lat="43.0245" lon="0.5431">
        <ele>525</ele>
        <time>2018-03-18T11:33:31.000Z</time>
      </trkpt>
      <trkpt lat="43.02453" lon="0.54311">
        <ele>525</ele>
        <time>2018-03-18T11:33:33.000Z</time>
      </trkpt>
      <trkpt lat="43.02456" lon="0.54312">
        <ele>525</ele>
        <time>2018-03-18T11:33:35.000Z</time>
      </trkpt>
      <trkpt lat="43.02459" lon="0.54313">
        <ele>524</ele>
        <time>2018-03-18T11:33:37.000Z</time>
      </trkpt>
      <trkpt lat="43.02462" lon="0.54314">
        <ele>524</ele>
        <time>2018-03-18T11:33:39.000Z</time>
      </trkpt>
      <trkpt lat="43.02463" lon="0.54317">
        <ele>524</ele>
        <time>2018-03-18T11:33:41.000Z</time>
      </trkpt>
      <trkpt lat="43.02465" lon="0.54319">
        <ele>524</ele>
        <time>2018-03-18T11:33:43.000Z</time>
      </trkpt>
      <trkpt lat="43.02466" lon="0.5432">
        <ele>524</ele>
        <time>2018-03-18T11:33:45.000Z</time>
      </trkpt>
      <trkpt lat="43.02467" lon="0.54321">
        <ele>524</ele>
        <time>2018-03-18T11:33:47.000Z</time>
      </trkpt>
      <trkpt lat="43.02469" lon="0.54322">
        <ele>523</ele>
        <time>2018-03-18T11:33:49.000Z</time>
      </trkpt>
      <trkpt lat="43.0247" lon="0.54323">
        <ele>523</ele>
        <time>2018-03-18T11:33:51.000Z</time>
      </trkpt>
      <trkpt lat="43.02471" lon="0.54324">
        <ele>523</ele>
        <time>2018-03-18T11:33:53.000Z</time>
      </trkpt>
      <trkpt lat="43.02472" lon="0.54326">
        <ele>523</ele>
        <time>2018-03-18T11:33:55.000Z</time>
      </trkpt>
      <trkpt lat="43.02471" lon="0.54327">
        <ele>523</ele>
        <time>2018-03-18T11:33:57.000Z</time>
      </trkpt>
      <trkpt lat="43.02472" lon="0.54328">
        <ele>523</ele>
        <time>2018-03-18T11:33:59.000Z</time>
      </trkpt>
      <trkpt lat="43.02472" lon="0.54329">
        <ele>523</ele>
        <time>2018-03-18T11:34:01.000Z</time>
      </trkpt>
      <trkpt lat="43.02473" lon="0.54329">
        <ele>523</ele>
        <time>2018-03-18T11:34:03.000Z</time>
      </trkpt>
      <trkpt lat="43.02473" lon="0.5433">
        <ele>523</ele>
        <time>2018-03-18T11:34:05.000Z</time>
      </trkpt>
      <trkpt lat="43.02474" lon="0.54331">
        <ele>523</ele>
        <time>2018-03-18T11:34:07.000Z</time>
      </trkpt>
      <trkpt lat="43.02475" lon="0.54331">
        <ele>522</ele>
        <time>2018-03-18T11:34:09.000Z</time>
      </trkpt>
      <trkpt lat="43.02475" lon="0.54331">
        <ele>522</ele>
        <time>2018-03-18T11:34:11.000Z</time>
      </trkpt>
      <trkpt lat="43.02476" lon="0.54331">
        <ele>522</ele>
        <time>2018-03-18T11:34:13.000Z</time>
      </trkpt>
      <trkpt lat="43.02478" lon="0.54332">
        <ele>522</ele>
        <time>2018-03-18T11:34:15.000Z</time>
      </trkpt>
      <trkpt lat="43.02481" lon="0.54332">
        <ele>522</ele>
        <time>2018-03-18T11:34:17.000Z</time>
      </trkpt>
      <trkpt lat="43.02483" lon="0.54333">
        <ele>522</ele>
        <time>2018-03-18T11:34:19.000Z</time>
      </trkpt>
      <trkpt lat="43.02485" lon="0.54335">
        <ele>522</ele>
        <time>2018-03-18T11:34:21.000Z</time>
      </trkpt>
      <trkpt lat="43.02487" lon="0.54336">
        <ele>522</ele>
        <time>2018-03-18T11:34:23.000Z</time>
      </trkpt>
      <trkpt lat="43.02488" lon="0.54337">
        <ele>521</ele>
        <time>2018-03-18T11:34:25.000Z</time>
      </trkpt>
      <trkpt lat="43.02489" lon="0.54338">
        <ele>521</ele>
        <time>2018-03-18T11:34:27.000Z</time>
      </trkpt>
      <trkpt lat="43.02489" lon="0.54338">
        <ele>521</ele>
        <time>2018-03-18T11:34:29.000Z</time>
      </trkpt>
      <trkpt lat="43.0249" lon="0.54338">
        <ele>521</ele>
        <time>2018-03-18T11:34:31.000Z</time>
      </trkpt>
      <trkpt lat="43.0249" lon="0.54339">
        <ele>521</ele>
        <time>2018-03-18T11:34:33.000Z</time>
      </trkpt>
      <trkpt lat="43.02491" lon="0.54339">
        <ele>521</ele>
        <time>2018-03-18T11:34:35.000Z</time>
      </trkpt>
      <trkpt lat="43.02491" lon="0.5434">
        <ele>521</ele>
        <time>2018-03-18T11:34:37.000Z</time>
      </trkpt>
      <trkpt lat="43.02491" lon="0.5434">
        <ele>521</ele>
        <time>2018-03-18T11:34:39.000Z</time>
      </trkpt>
      <trkpt lat="43.02491" lon="0.5434">
        <ele>521</ele>
        <time>2018-03-18T11:34:41.000Z</time>
      </trkpt>
      <trkpt lat="43.02491" lon="0.5434">
        <ele>521</ele>
        <time>2018-03-18T11:34:43.000Z</time>
      </trkpt>
      <trkpt lat="43.0249" lon="0.54341">
        <ele>521</ele>
        <time>2018-03-18T11:34:45.000Z</time>
      </trkpt>
      <trkpt lat="43.0249" lon="0.54341">
        <ele>521</ele>
        <time>2018-03-18T11:34:47.000Z</time>
      </trkpt>
      <trkpt lat="43.0249" lon="0.54341">
        <ele>521</ele>
        <time>2018-03-18T11:34:49.000Z</time>
      </trkpt>
      <trkpt lat="43.0249" lon="0.54341">
        <ele>521</ele>
        <time>2018-03-18T11:34:51.000Z</time>
      </trkpt>
      <trkpt lat="43.02489" lon="0.54341">
        <ele>521</ele>
        <time>2018-03-18T11:34:53.000Z</time>
      </trkpt>
      <trkpt lat="43.02488" lon="0.54341">
        <ele>521</ele>
        <time>2018-03-18T11:34:55.000Z</time>
      </trkpt>
      <trkpt lat="43.02488" lon="0.5434">
        <ele>521</ele>
        <time>2018-03-18T11:34:57.000Z</time>
      </trkpt>
      <trkpt lat="43.02489" lon="0.54342">
        <ele>521</ele>
        <time>2018-03-18T11:34:59.000Z</time>
      </trkpt>
      <trkpt lat="43.0249" lon="0.54342">
        <ele>521</ele>
        <time>2018-03-18T11:35:01.000Z</time>
      </trkpt>
      <trkpt lat="43.02491" lon="0.54343">
        <ele>521</ele>
        <time>2018-03-18T11:35:03.000Z</time>
      </trkpt>
      <trkpt lat="43.02492" lon="0.54343">
        <ele>521</ele>
        <time>2018-03-18T11:35:05.000Z</time>
      </trkpt>
      <trkpt lat="43.02493" lon="0.54344">
        <ele>521</ele>
        <time>2018-03-18T11:35:07.000Z</time>
      </trkpt>
      <trkpt lat="43.02494" lon="0.54345">
        <ele>520</ele>
        <time>2018-03-18T11:35:09.000Z</time>
      </trkpt>
      <trkpt lat="43.02495" lon="0.54346">
        <ele>520</ele>
        <time>2018-03-18T11:35:11.000Z</time>
      </trkpt>
      <trkpt lat="43.02495" lon="0.54346">
        <ele>520</ele>
        <time>2018-03-18T11:35:13.000Z</time>
      </trkpt>
      <trkpt lat="43.02496" lon="0.54346">
        <ele>520</ele>
        <time>2018-03-18T11:35:15.000Z</time>
      </trkpt>
      <trkpt lat="43.02496" lon="0.54346">
        <ele>520</ele>
        <time>2018-03-18T11:35:17.000Z</time>
      </trkpt>
      <trkpt lat="43.02497" lon="0.54347">
        <ele>520</ele>
        <time>2018-03-18T11:35:19.000Z</time>
      </trkpt>
      <trkpt lat="43.02498" lon="0.54348">
        <ele>520</ele>
        <time>2018-03-18T11:35:21.000Z</time>
      </trkpt>
      <trkpt lat="43.02498" lon="0.54348">
        <ele>520</ele>
        <time>2018-03-18T11:35:23.000Z</time>
      </trkpt>
      <trkpt lat="43.02499" lon="0.54348">
        <ele>520</ele>
        <time>2018-03-18T11:35:25.000Z</time>
      </trkpt>
      <trkpt lat="43.02499" lon="0.54349">
        <ele>520</ele>
        <time>2018-03-18T11:35:27.000Z</time>
      </trkpt>
      <trkpt lat="43.02498" lon="0.54349">
        <ele>520</ele>
        <time>2018-03-18T11:35:29.000Z</time>
      </trkpt>
      <trkpt lat="43.02497" lon="0.54349">
        <ele>520</ele>
        <time>2018-03-18T11:35:31.000Z</time>
      </trkpt>
      <trkpt lat="43.02495" lon="0.54348">
        <ele>520</ele>
        <time>2018-03-18T11:35:33.000Z</time>
      </trkpt>
      <trkpt lat="43.02494" lon="0.54348">
        <ele>520</ele>
        <time>2018-03-18T11:35:35.000Z</time>
      </trkpt>
      <trkpt lat="43.02495" lon="0.54349">
        <ele>520</ele>
        <time>2018-03-18T11:35:37.000Z</time>
      </trkpt>
      <trkpt lat="43.02501" lon="0.54352">
        <ele>520</ele>
        <time>2018-03-18T11:35:39.000Z</time>
      </trkpt>
      <trkpt lat="43.02505" lon="0.54353">
        <ele>519</ele>
        <time>2018-03-18T11:35:41.000Z</time>
      </trkpt>
      <trkpt lat="43.02507" lon="0.54354">
        <ele>519</ele>
        <time>2018-03-18T11:35:43.000Z</time>
      </trkpt>
      <trkpt lat="43.02508" lon="0.54355">
        <ele>519</ele>
        <time>2018-03-18T11:35:45.000Z</time>
      </trkpt>
      <trkpt lat="43.02509" lon="0.54356">
        <ele>519</ele>
        <time>2018-03-18T11:35:47.000Z</time>
      </trkpt>
      <trkpt lat="43.0251" lon="0.54356">
        <ele>519</ele>
        <time>2018-03-18T11:35:49.000Z</time>
      </trkpt>
      <trkpt lat="43.0251" lon="0.54356">
        <ele>519</ele>
        <time>2018-03-18T11:35:51.000Z</time>
      </trkpt>
      <trkpt lat="43.02511" lon="0.54356">
        <ele>519</ele>
        <time>2018-03-18T11:35:53.000Z</time>
      </trkpt>
      <trkpt lat="43.0251" lon="0.54356">
        <ele>519</ele>
        <time>2018-03-18T11:35:55.000Z</time>
      </trkpt>
      <trkpt lat="43.0251" lon="0.54356">
        <ele>519</ele>
        <time>2018-03-18T11:35:57.000Z</time>
      </trkpt>
      <trkpt lat="43.0251" lon="0.54357">
        <ele>519</ele>
        <time>2018-03-18T11:35:59.000Z</time>
      </trkpt>
      <trkpt lat="43.02511" lon="0.54357">
        <ele>519</ele>
        <time>2018-03-18T11:36:01.000Z</time>
      </trkpt>
      <trkpt lat="43.02512" lon="0.54357">
        <ele>519</ele>
        <time>2018-03-18T11:36:03.000Z</time>
      </trkpt>
      <trkpt lat="43.02513" lon="0.54358">
        <ele>519</ele>
        <time>2018-03-18T11:36:05.000Z</time>
      </trkpt>
      <trkpt lat="43.02514" lon="0.54358">
        <ele>519</ele>
        <time>2018-03-18T11:36:07.000Z</time>
      </trkpt>
      <trkpt lat="43.02515" lon="0.54359">
        <ele>519</ele>
        <time>2018-03-18T11:36:09.000Z</time>
      </trkpt>
      <trkpt lat="43.02516" lon="0.5436">
        <ele>518</ele>
        <time>2018-03-18T11:36:11.000Z</time>
      </trkpt>
      <trkpt lat="43.02518" lon="0.54361">
        <ele>518</ele>
        <time>2018-03-18T11:36:13.000Z</time>
      </trkpt>
      <trkpt lat="43.02519" lon="0.54362">
        <ele>518</ele>
        <time>2018-03-18T11:36:15.000Z</time>
      </trkpt>
      <trkpt lat="43.02521" lon="0.54363">
        <ele>518</ele>
        <time>2018-03-18T11:36:17.000Z</time>
      </trkpt>
      <trkpt lat="43.02521" lon="0.54363">
        <ele>518</ele>
        <time>2018-03-18T11:36:19.000Z</time>
      </trkpt>
      <trkpt lat="43.0252" lon="0.54363">
        <ele>518</ele>
        <time>2018-03-18T11:36:21.000Z</time>
      </trkpt>
      <trkpt lat="43.0252" lon="0.54363">
        <ele>518</ele>
        <time>2018-03-18T11:36:23.000Z</time>
      </trkpt>
      <trkpt lat="43.02519" lon="0.54363">
        <ele>518</ele>
        <time>2018-03-18T11:36:25.000Z</time>
      </trkpt>
      <trkpt lat="43.02519" lon="0.54363">
        <ele>518</ele>
        <time>2018-03-18T11:36:27.000Z</time>
      </trkpt>
      <trkpt lat="43.02519" lon="0.54363">
        <ele>518</ele>
        <time>2018-03-18T11:36:29.000Z</time>
      </trkpt>
      <trkpt lat="43.02519" lon="0.54363">
        <ele>518</ele>
        <time>2018-03-18T11:36:31.000Z</time>
      </trkpt>
      <trkpt lat="43.0252" lon="0.54364">
        <ele>518</ele>
        <time>2018-03-18T11:36:33.000Z</time>
      </trkpt>
      <trkpt lat="43.02521" lon="0.54364">
        <ele>518</ele>
        <time>2018-03-18T11:36:35.000Z</time>
      </trkpt>
      <trkpt lat="43.02523" lon="0.54365">
        <ele>518</ele>
        <time>2018-03-18T11:36:37.000Z</time>
      </trkpt>
      <trkpt lat="43.02524" lon="0.54366">
        <ele>518</ele>
        <time>2018-03-18T11:36:39.000Z</time>
      </trkpt>
      <trkpt lat="43.02525" lon="0.54367">
        <ele>518</ele>
        <time>2018-03-18T11:36:41.000Z</time>
      </trkpt>
      <trkpt lat="43.02527" lon="0.54367">
        <ele>518</ele>
        <time>2018-03-18T11:36:43.000Z</time>
      </trkpt>
      <trkpt lat="43.02528" lon="0.54367">
        <ele>518</ele>
        <time>2018-03-18T11:36:45.000Z</time>
      </trkpt>
      <trkpt lat="43.02528" lon="0.54368">
        <ele>517</ele>
        <time>2018-03-18T11:36:47.000Z</time>
      </trkpt>
      <trkpt lat="43.02529" lon="0.54368">
        <ele>517</ele>
        <time>2018-03-18T11:36:49.000Z</time>
      </trkpt>
      <trkpt lat="43.02531" lon="0.54368">
        <ele>517</ele>
        <time>2018-03-18T11:36:51.000Z</time>
      </trkpt>
      <trkpt lat="43.02532" lon="0.54368">
        <ele>517</ele>
        <time>2018-03-18T11:36:53.000Z</time>
      </trkpt>
      <trkpt lat="43.02534" lon="0.54368">
        <ele>517</ele>
        <time>2018-03-18T11:36:55.000Z</time>
      </trkpt>
      <trkpt lat="43.02536" lon="0.54369">
        <ele>517</ele>
        <time>2018-03-18T11:36:57.000Z</time>
      </trkpt>
      <trkpt lat="43.02538" lon="0.54369">
        <ele>517</ele>
        <time>2018-03-18T11:36:59.000Z</time>
      </trkpt>
      <trkpt lat="43.02542" lon="0.5437">
        <ele>517</ele>
        <time>2018-03-18T11:37:01.000Z</time>
      </trkpt>
      <trkpt lat="43.02543" lon="0.54372">
        <ele>517</ele>
        <time>2018-03-18T11:37:03.000Z</time>
      </trkpt>
      <trkpt lat="43.02545" lon="0.54373">
        <ele>517</ele>
        <time>2018-03-18T11:37:05.000Z</time>
      </trkpt>
      <trkpt lat="43.02546" lon="0.54373">
        <ele>516</ele>
        <time>2018-03-18T11:37:07.000Z</time>
      </trkpt>
      <trkpt lat="43.02548" lon="0.54374">
        <ele>516</ele>
        <time>2018-03-18T11:37:09.000Z</time>
      </trkpt>
      <trkpt lat="43.02551" lon="0.54375">
        <ele>516</ele>
        <time>2018-03-18T11:37:11.000Z</time>
      </trkpt>
      <trkpt lat="43.02554" lon="0.54375">
        <ele>516</ele>
        <time>2018-03-18T11:37:13.000Z</time>
      </trkpt>
      <trkpt lat="43.02557" lon="0.54376">
        <ele>516</ele>
        <time>2018-03-18T11:37:15.000Z</time>
      </trkpt>
      <trkpt lat="43.02558" lon="0.54377">
        <ele>516</ele>
        <time>2018-03-18T11:37:17.000Z</time>
      </trkpt>
      <trkpt lat="43.0256" lon="0.54377">
        <ele>516</ele>
        <time>2018-03-18T11:37:19.000Z</time>
      </trkpt>
      <trkpt lat="43.02561" lon="0.54377">
        <ele>516</ele>
        <time>2018-03-18T11:37:21.000Z</time>
      </trkpt>
      <trkpt lat="43.02562" lon="0.54377">
        <ele>516</ele>
        <time>2018-03-18T11:37:23.000Z</time>
      </trkpt>
      <trkpt lat="43.02563" lon="0.54377">
        <ele>516</ele>
        <time>2018-03-18T11:37:25.000Z</time>
      </trkpt>
      <trkpt lat="43.02565" lon="0.54375">
        <ele>516</ele>
        <time>2018-03-18T11:37:27.000Z</time>
      </trkpt>
      <trkpt lat="43.02567" lon="0.54374">
        <ele>516</ele>
        <time>2018-03-18T11:37:29.000Z</time>
      </trkpt>
      <trkpt lat="43.02569" lon="0.54374">
        <ele>516</ele>
        <time>2018-03-18T11:37:31.000Z</time>
      </trkpt>
      <trkpt lat="43.0257" lon="0.54373">
        <ele>516</ele>
        <time>2018-03-18T11:37:33.000Z</time>
      </trkpt>
      <trkpt lat="43.02572" lon="0.54372">
        <ele>516</ele>
        <time>2018-03-18T11:37:35.000Z</time>
      </trkpt>
      <trkpt lat="43.02573" lon="0.54372">
        <ele>516</ele>
        <time>2018-03-18T11:37:37.000Z</time>
      </trkpt>
      <trkpt lat="43.02575" lon="0.54371">
        <ele>516</ele>
        <time>2018-03-18T11:37:39.000Z</time>
      </trkpt>
      <trkpt lat="43.02576" lon="0.54371">
        <ele>516</ele>
        <time>2018-03-18T11:37:41.000Z</time>
      </trkpt>
      <trkpt lat="43.02577" lon="0.54371">
        <ele>515</ele>
        <time>2018-03-18T11:37:43.000Z</time>
      </trkpt>
      <trkpt lat="43.02577" lon="0.54372">
        <ele>515</ele>
        <time>2018-03-18T11:37:45.000Z</time>
      </trkpt>
      <trkpt lat="43.02577" lon="0.54373">
        <ele>515</ele>
        <time>2018-03-18T11:37:47.000Z</time>
      </trkpt>
      <trkpt lat="43.02578" lon="0.54374">
        <ele>515</ele>
        <time>2018-03-18T11:37:49.000Z</time>
      </trkpt>
      <trkpt lat="43.02578" lon="0.54374">
        <ele>515</ele>
        <time>2018-03-18T11:37:51.000Z</time>
      </trkpt>
      <trkpt lat="43.02578" lon="0.54374">
        <ele>515</ele>
        <time>2018-03-18T11:37:53.000Z</time>
      </trkpt>
      <trkpt lat="43.02579" lon="0.54375">
        <ele>515</ele>
        <time>2018-03-18T11:37:55.000Z</time>
      </trkpt>
      <trkpt lat="43.0258" lon="0.54376">
        <ele>515</ele>
        <time>2018-03-18T11:37:57.000Z</time>
      </trkpt>
      <trkpt lat="43.0258" lon="0.54376">
        <ele>515</ele>
        <time>2018-03-18T11:37:59.000Z</time>
      </trkpt>
      <trkpt lat="43.02582" lon="0.54377">
        <ele>515</ele>
        <time>2018-03-18T11:38:01.000Z</time>
      </trkpt>
      <trkpt lat="43.02582" lon="0.54377">
        <ele>515</ele>
        <time>2018-03-18T11:38:03.000Z</time>
      </trkpt>
      <trkpt lat="43.02583" lon="0.54378">
        <ele>515</ele>
        <time>2018-03-18T11:38:05.000Z</time>
      </trkpt>
      <trkpt lat="43.02584" lon="0.54378">
        <ele>515</ele>
        <time>2018-03-18T11:38:07.000Z</time>
      </trkpt>
      <trkpt lat="43.02584" lon="0.54377">
        <ele>515</ele>
        <time>2018-03-18T11:38:09.000Z</time>
      </trkpt>
      <trkpt lat="43.02584" lon="0.54377">
        <ele>515</ele>
        <time>2018-03-18T11:38:11.000Z</time>
      </trkpt>
      <trkpt lat="43.02584" lon="0.54377">
        <ele>515</ele>
        <time>2018-03-18T11:38:13.000Z</time>
      </trkpt>
      <trkpt lat="43.02585" lon="0.54379">
        <ele>515</ele>
        <time>2018-03-18T11:38:15.000Z</time>
      </trkpt>
      <trkpt lat="43.02586" lon="0.54378">
        <ele>515</ele>
        <time>2018-03-18T11:38:17.000Z</time>
      </trkpt>
      <trkpt lat="43.02587" lon="0.54378">
        <ele>515</ele>
        <time>2018-03-18T11:38:19.000Z</time>
      </trkpt>
      <trkpt lat="43.02589" lon="0.54379">
        <ele>514</ele>
        <time>2018-03-18T11:38:21.000Z</time>
      </trkpt>
      <trkpt lat="43.0259" lon="0.5438">
        <ele>514</ele>
        <time>2018-03-18T11:38:23.000Z</time>
      </trkpt>
      <trkpt lat="43.02592" lon="0.5438">
        <ele>514</ele>
        <time>2018-03-18T11:38:25.000Z</time>
      </trkpt>
      <trkpt lat="43.02593" lon="0.54382">
        <ele>514</ele>
        <time>2018-03-18T11:38:27.000Z</time>
      </trkpt>
      <trkpt lat="43.02593" lon="0.54383">
        <ele>514</ele>
        <time>2018-03-18T11:38:29.000Z</time>
      </trkpt>
      <trkpt lat="43.02595" lon="0.54384">
        <ele>514</ele>
        <time>2018-03-18T11:38:31.000Z</time>
      </trkpt>
      <trkpt lat="43.02596" lon="0.54385">
        <ele>514</ele>
        <time>2018-03-18T11:38:33.000Z</time>
      </trkpt>
      <trkpt lat="43.02597" lon="0.54386">
        <ele>514</ele>
        <time>2018-03-18T11:38:35.000Z</time>
      </trkpt>
      <trkpt lat="43.02598" lon="0.54386">
        <ele>514</ele>
        <time>2018-03-18T11:38:37.000Z</time>
      </trkpt>
      <trkpt lat="43.026" lon="0.54388">
        <ele>514</ele>
        <time>2018-03-18T11:38:39.000Z</time>
      </trkpt>
      <trkpt lat="43.02601" lon="0.54389">
        <ele>514</ele>
        <time>2018-03-18T11:38:41.000Z</time>
      </trkpt>
      <trkpt lat="43.02603" lon="0.5439">
        <ele>514</ele>
        <time>2018-03-18T11:38:43.000Z</time>
      </trkpt>
      <trkpt lat="43.02605" lon="0.54391">
        <ele>514</ele>
        <time>2018-03-18T11:38:45.000Z</time>
      </trkpt>
      <trkpt lat="43.02608" lon="0.54391">
        <ele>514</ele>
        <time>2018-03-18T11:38:47.000Z</time>
      </trkpt>
      <trkpt lat="43.0261" lon="0.54392">
        <ele>514</ele>
        <time>2018-03-18T11:38:49.000Z</time>
      </trkpt>
      <trkpt lat="43.02612" lon="0.54393">
        <ele>514</ele>
        <time>2018-03-18T11:38:51.000Z</time>
      </trkpt>
      <trkpt lat="43.02614" lon="0.54394">
        <ele>514</ele>
        <time>2018-03-18T11:38:53.000Z</time>
      </trkpt>
      <trkpt lat="43.02616" lon="0.54395">
        <ele>514</ele>
        <time>2018-03-18T11:38:55.000Z</time>
      </trkpt>
      <trkpt lat="43.02618" lon="0.54396">
        <ele>514</ele>
        <time>2018-03-18T11:38:57.000Z</time>
      </trkpt>
      <trkpt lat="43.02619" lon="0.54396">
        <ele>514</ele>
        <time>2018-03-18T11:38:59.000Z</time>
      </trkpt>
      <trkpt lat="43.02621" lon="0.54397">
        <ele>514</ele>
        <time>2018-03-18T11:39:01.000Z</time>
      </trkpt>
      <trkpt lat="43.02623" lon="0.54399">
        <ele>514</ele>
        <time>2018-03-18T11:39:03.000Z</time>
      </trkpt>
      <trkpt lat="43.02625" lon="0.544">
        <ele>514</ele>
        <time>2018-03-18T11:39:05.000Z</time>
      </trkpt>
      <trkpt lat="43.02627" lon="0.54401">
        <ele>514</ele>
        <time>2018-03-18T11:39:07.000Z</time>
      </trkpt>
      <trkpt lat="43.02629" lon="0.54402">
        <ele>514</ele>
        <time>2018-03-18T11:39:09.000Z</time>
      </trkpt>
      <trkpt lat="43.02631" lon="0.54403">
        <ele>514</ele>
        <time>2018-03-18T11:39:11.000Z</time>
      </trkpt>
      <trkpt lat="43.02633" lon="0.54404">
        <ele>514</ele>
        <time>2018-03-18T11:39:13.000Z</time>
      </trkpt>
      <trkpt lat="43.02635" lon="0.54404">
        <ele>514</ele>
        <time>2018-03-18T11:39:15.000Z</time>
      </trkpt>
      <trkpt lat="43.02637" lon="0.54406">
        <ele>514</ele>
        <time>2018-03-18T11:39:17.000Z</time>
      </trkpt>
      <trkpt lat="43.0264" lon="0.54407">
        <ele>514</ele>
        <time>2018-03-18T11:39:19.000Z</time>
      </trkpt>
      <trkpt lat="43.02642" lon="0.54408">
        <ele>514</ele>
        <time>2018-03-18T11:39:21.000Z</time>
      </trkpt>
      <trkpt lat="43.02644" lon="0.54409">
        <ele>514</ele>
        <time>2018-03-18T11:39:23.000Z</time>
      </trkpt>
      <trkpt lat="43.02646" lon="0.54411">
        <ele>514</ele>
        <time>2018-03-18T11:39:25.000Z</time>
      </trkpt>
      <trkpt lat="43.02648" lon="0.54412">
        <ele>514</ele>
        <time>2018-03-18T11:39:27.000Z</time>
      </trkpt>
      <trkpt lat="43.0265" lon="0.54413">
        <ele>514</ele>
        <time>2018-03-18T11:39:29.000Z</time>
      </trkpt>
      <trkpt lat="43.02652" lon="0.54414">
        <ele>514</ele>
        <time>2018-03-18T11:39:31.000Z</time>
      </trkpt>
      <trkpt lat="43.02654" lon="0.54416">
        <ele>514</ele>
        <time>2018-03-18T11:39:33.000Z</time>
      </trkpt>
      <trkpt lat="43.02657" lon="0.54418">
        <ele>514</ele>
        <time>2018-03-18T11:39:35.000Z</time>
      </trkpt>
      <trkpt lat="43.02658" lon="0.5442">
        <ele>514</ele>
        <time>2018-03-18T11:39:37.000Z</time>
      </trkpt>
      <trkpt lat="43.0266" lon="0.54422">
        <ele>514</ele>
        <time>2018-03-18T11:39:39.000Z</time>
      </trkpt>
      <trkpt lat="43.02663" lon="0.54424">
        <ele>514</ele>
        <time>2018-03-18T11:39:41.000Z</time>
      </trkpt>
      <trkpt lat="43.02665" lon="0.54426">
        <ele>514</ele>
        <time>2018-03-18T11:39:43.000Z</time>
      </trkpt>
      <trkpt lat="43.02668" lon="0.54427">
        <ele>514</ele>
        <time>2018-03-18T11:39:45.000Z</time>
      </trkpt>
      <trkpt lat="43.0267" lon="0.54429">
        <ele>514</ele>
        <time>2018-03-18T11:39:47.000Z</time>
      </trkpt>
      <trkpt lat="43.02672" lon="0.5443">
        <ele>514</ele>
        <time>2018-03-18T11:39:49.000Z</time>
      </trkpt>
      <trkpt lat="43.02674" lon="0.54431">
        <ele>514</ele>
        <time>2018-03-18T11:39:51.000Z</time>
      </trkpt>
      <trkpt lat="43.02676" lon="0.54432">
        <ele>514</ele>
        <time>2018-03-18T11:39:53.000Z</time>
      </trkpt>
      <trkpt lat="43.02678" lon="0.54434">
        <ele>514</ele>
        <time>2018-03-18T11:39:55.000Z</time>
      </trkpt>
      <trkpt lat="43.02679" lon="0.54435">
        <ele>513</ele>
        <time>2018-03-18T11:39:57.000Z</time>
      </trkpt>
      <trkpt lat="43.02681" lon="0.54437">
        <ele>513</ele>
        <time>2018-03-18T11:39:59.000Z</time>
      </trkpt>
      <trkpt lat="43.02683" lon="0.54438">
        <ele>513</ele>
        <time>2018-03-18T11:40:01.000Z</time>
      </trkpt>
      <trkpt lat="43.02685" lon="0.5444">
        <ele>513</ele>
        <time>2018-03-18T11:40:03.000Z</time>
      </trkpt>
      <trkpt lat="43.02687" lon="0.54441">
        <ele>513</ele>
        <time>2018-03-18T11:40:05.000Z</time>
      </trkpt>
      <trkpt lat="43.02687" lon="0.54442">
        <ele>513</ele>
        <time>2018-03-18T11:40:07.000Z</time>
      </trkpt>
      <trkpt lat="43.02688" lon="0.54442">
        <ele>513</ele>
        <time>2018-03-18T11:40:09.000Z</time>
      </trkpt>
      <trkpt lat="43.02688" lon="0.54442">
        <ele>513</ele>
        <time>2018-03-18T11:40:11.000Z</time>
      </trkpt>
      <trkpt lat="43.0269" lon="0.54443">
        <ele>513</ele>
        <time>2018-03-18T11:40:13.000Z</time>
      </trkpt>
      <trkpt lat="43.02691" lon="0.54443">
        <ele>513</ele>
        <time>2018-03-18T11:40:15.000Z</time>
      </trkpt>
      <trkpt lat="43.02692" lon="0.54444">
        <ele>513</ele>
        <time>2018-03-18T11:40:17.000Z</time>
      </trkpt>
      <trkpt lat="43.02693" lon="0.54444">
        <ele>513</ele>
        <time>2018-03-18T11:40:19.000Z</time>
      </trkpt>
      <trkpt lat="43.02694" lon="0.54444">
        <ele>513</ele>
        <time>2018-03-18T11:40:21.000Z</time>
      </trkpt>
      <trkpt lat="43.02695" lon="0.54445">
        <ele>513</ele>
        <time>2018-03-18T11:40:23.000Z</time>
      </trkpt>
      <trkpt lat="43.02697" lon="0.54446">
        <ele>513</ele>
        <time>2018-03-18T11:40:25.000Z</time>
      </trkpt>
      <trkpt lat="43.02698" lon="0.54446">
        <ele>513</ele>
        <time>2018-03-18T11:40:27.000Z</time>
      </trkpt>
      <trkpt lat="43.02699" lon="0.54448">
        <ele>513</ele>
        <time>2018-03-18T11:40:29.000Z</time>
      </trkpt>
      <trkpt lat="43.02701" lon="0.54449">
        <ele>513</ele>
        <time>2018-03-18T11:40:31.000Z</time>
      </trkpt>
      <trkpt lat="43.02702" lon="0.5445">
        <ele>513</ele>
        <time>2018-03-18T11:40:33.000Z</time>
      </trkpt>
      <trkpt lat="43.02704" lon="0.54451">
        <ele>513</ele>
        <time>2018-03-18T11:40:35.000Z</time>
      </trkpt>
      <trkpt lat="43.02705" lon="0.54452">
        <ele>513</ele>
        <time>2018-03-18T11:40:37.000Z</time>
      </trkpt>
      <trkpt lat="43.02707" lon="0.54454">
        <ele>513</ele>
        <time>2018-03-18T11:40:39.000Z</time>
      </trkpt>
      <trkpt lat="43.02708" lon="0.54455">
        <ele>513</ele>
        <time>2018-03-18T11:40:41.000Z</time>
      </trkpt>
      <trkpt lat="43.02709" lon="0.54456">
        <ele>513</ele>
        <time>2018-03-18T11:40:43.000Z</time>
      </trkpt>
      <trkpt lat="43.02711" lon="0.54456">
        <ele>513</ele>
        <time>2018-03-18T11:40:45.000Z</time>
      </trkpt>
      <trkpt lat="43.02713" lon="0.54456">
        <ele>513</ele>
        <time>2018-03-18T11:40:47.000Z</time>
      </trkpt>
      <trkpt lat="43.02714" lon="0.54455">
        <ele>512</ele>
        <time>2018-03-18T11:40:49.000Z</time>
      </trkpt>
      <trkpt lat="43.02715" lon="0.54454">
        <ele>512</ele>
        <time>2018-03-18T11:40:51.000Z</time>
      </trkpt>
      <trkpt lat="43.02716" lon="0.54452">
        <ele>512</ele>
        <time>2018-03-18T11:40:53.000Z</time>
      </trkpt>
      <trkpt lat="43.02717" lon="0.54451">
        <ele>512</ele>
        <time>2018-03-18T11:40:55.000Z</time>
      </trkpt>
      <trkpt lat="43.02717" lon="0.5445">
        <ele>512</ele>
        <time>2018-03-18T11:40:57.000Z</time>
      </trkpt>
      <trkpt lat="43.02718" lon="0.54449">
        <ele>512</ele>
        <time>2018-03-18T11:40:59.000Z</time>
      </trkpt>
      <trkpt lat="43.02719" lon="0.54447">
        <ele>512</ele>
        <time>2018-03-18T11:41:01.000Z</time>
      </trkpt>
      <trkpt lat="43.02719" lon="0.54446">
        <ele>512</ele>
        <time>2018-03-18T11:41:03.000Z</time>
      </trkpt>
      <trkpt lat="43.0272" lon="0.54444">
        <ele>512</ele>
        <time>2018-03-18T11:41:05.000Z</time>
      </trkpt>
      <trkpt lat="43.02721" lon="0.54443">
        <ele>512</ele>
        <time>2018-03-18T11:41:07.000Z</time>
      </trkpt>
      <trkpt lat="43.02721" lon="0.54441">
        <ele>512</ele>
        <time>2018-03-18T11:41:09.000Z</time>
      </trkpt>
      <trkpt lat="43.02722" lon="0.54439">
        <ele>512</ele>
        <time>2018-03-18T11:41:11.000Z</time>
      </trkpt>
      <trkpt lat="43.02724" lon="0.54437">
        <ele>512</ele>
        <time>2018-03-18T11:41:13.000Z</time>
      </trkpt>
      <trkpt lat="43.02725" lon="0.54435">
        <ele>512</ele>
        <time>2018-03-18T11:41:15.000Z</time>
      </trkpt>
      <trkpt lat="43.02726" lon="0.54433">
        <ele>512</ele>
        <time>2018-03-18T11:41:17.000Z</time>
      </trkpt>
      <trkpt lat="43.02727" lon="0.54431">
        <ele>512</ele>
        <time>2018-03-18T11:41:19.000Z</time>
      </trkpt>
      <trkpt lat="43.02728" lon="0.54429">
        <ele>512</ele>
        <time>2018-03-18T11:41:21.000Z</time>
      </trkpt>
      <trkpt lat="43.02729" lon="0.54426">
        <ele>512</ele>
        <time>2018-03-18T11:41:23.000Z</time>
      </trkpt>
      <trkpt lat="43.02729" lon="0.54424">
        <ele>512</ele>
        <time>2018-03-18T11:41:25.000Z</time>
      </trkpt>
      <trkpt lat="43.02731" lon="0.54422">
        <ele>512</ele>
        <time>2018-03-18T11:41:27.000Z</time>
      </trkpt>
      <trkpt lat="43.02732" lon="0.54419">
        <ele>512</ele>
        <time>2018-03-18T11:41:29.000Z</time>
      </trkpt>
      <trkpt lat="43.02733" lon="0.54417">
        <ele>512</ele>
        <time>2018-03-18T11:41:31.000Z</time>
      </trkpt>
      <trkpt lat="43.02735" lon="0.54414">
        <ele>512</ele>
        <time>2018-03-18T11:41:33.000Z</time>
      </trkpt>
      <trkpt lat="43.02736" lon="0.54412">
        <ele>512</ele>
        <time>2018-03-18T11:41:35.000Z</time>
      </trkpt>
      <trkpt lat="43.02736" lon="0.5441">
        <ele>512</ele>
        <time>2018-03-18T11:41:37.000Z</time>
      </trkpt>
      <trkpt lat="43.02738" lon="0.54408">
        <ele>512</ele>
        <time>2018-03-18T11:41:39.000Z</time>
      </trkpt>
      <trkpt lat="43.02738" lon="0.54406">
        <ele>512</ele>
        <time>2018-03-18T11:41:41.000Z</time>
      </trkpt>
      <trkpt lat="43.02739" lon="0.54405">
        <ele>513</ele>
        <time>2018-03-18T11:41:43.000Z</time>
      </trkpt>
      <trkpt lat="43.02739" lon="0.54403">
        <ele>513</ele>
        <time>2018-03-18T11:41:45.000Z</time>
      </trkpt>
      <trkpt lat="43.02739" lon="0.54402">
        <ele>513</ele>
        <time>2018-03-18T11:41:47.000Z</time>
      </trkpt>
      <trkpt lat="43.0274" lon="0.54398">
        <ele>513</ele>
        <time>2018-03-18T11:41:49.000Z</time>
      </trkpt>
      <trkpt lat="43.02741" lon="0.54396">
        <ele>513</ele>
        <time>2018-03-18T11:41:51.000Z</time>
      </trkpt>
      <trkpt lat="43.02743" lon="0.54393">
        <ele>513</ele>
        <time>2018-03-18T11:41:53.000Z</time>
      </trkpt>
      <trkpt lat="43.02743" lon="0.5439">
        <ele>513</ele>
        <time>2018-03-18T11:41:55.000Z</time>
      </trkpt>
      <trkpt lat="43.02744" lon="0.54388">
        <ele>513</ele>
        <time>2018-03-18T11:41:57.000Z</time>
      </trkpt>
      <trkpt lat="43.02746" lon="0.54385">
        <ele>513</ele>
        <time>2018-03-18T11:41:59.000Z</time>
      </trkpt>
      <trkpt lat="43.02747" lon="0.54383">
        <ele>513</ele>
        <time>2018-03-18T11:42:01.000Z</time>
      </trkpt>
      <trkpt lat="43.02748" lon="0.54381">
        <ele>513</ele>
        <time>2018-03-18T11:42:03.000Z</time>
      </trkpt>
      <trkpt lat="43.02749" lon="0.54379">
        <ele>513</ele>
        <time>2018-03-18T11:42:05.000Z</time>
      </trkpt>
      <trkpt lat="43.0275" lon="0.54377">
        <ele>513</ele>
        <time>2018-03-18T11:42:07.000Z</time>
      </trkpt>
      <trkpt lat="43.02751" lon="0.54375">
        <ele>513</ele>
        <time>2018-03-18T11:42:09.000Z</time>
      </trkpt>
      <trkpt lat="43.02752" lon="0.54373">
        <ele>513</ele>
        <time>2018-03-18T11:42:11.000Z</time>
      </trkpt>
      <trkpt lat="43.02754" lon="0.54371">
        <ele>513</ele>
        <time>2018-03-18T11:42:13.000Z</time>
      </trkpt>
      <trkpt lat="43.02754" lon="0.5437">
        <ele>513</ele>
        <time>2018-03-18T11:42:15.000Z</time>
      </trkpt>
      <trkpt lat="43.02755" lon="0.54369">
        <ele>513</ele>
        <time>2018-03-18T11:42:17.000Z</time>
      </trkpt>
      <trkpt lat="43.02757" lon="0.54367">
        <ele>513</ele>
        <time>2018-03-18T11:42:19.000Z</time>
      </trkpt>
      <trkpt lat="43.02757" lon="0.54365">
        <ele>513</ele>
        <time>2018-03-18T11:42:21.000Z</time>
      </trkpt>
      <trkpt lat="43.02758" lon="0.54364">
        <ele>513</ele>
        <time>2018-03-18T11:42:23.000Z</time>
      </trkpt>
      <trkpt lat="43.02759" lon="0.54362">
        <ele>513</ele>
        <time>2018-03-18T11:42:25.000Z</time>
      </trkpt>
      <trkpt lat="43.0276" lon="0.54359">
        <ele>513</ele>
        <time>2018-03-18T11:42:27.000Z</time>
      </trkpt>
      <trkpt lat="43.02761" lon="0.54357">
        <ele>513</ele>
        <time>2018-03-18T11:42:29.000Z</time>
      </trkpt>
      <trkpt lat="43.02762" lon="0.54354">
        <ele>513</ele>
        <time>2018-03-18T11:42:31.000Z</time>
      </trkpt>
      <trkpt lat="43.02764" lon="0.54353">
        <ele>513</ele>
        <time>2018-03-18T11:42:33.000Z</time>
      </trkpt>
      <trkpt lat="43.02765" lon="0.54351">
        <ele>513</ele>
        <time>2018-03-18T11:42:35.000Z</time>
      </trkpt>
      <trkpt lat="43.02765" lon="0.54349">
        <ele>513</ele>
        <time>2018-03-18T11:42:37.000Z</time>
      </trkpt>
      <trkpt lat="43.02766" lon="0.54347">
        <ele>514</ele>
        <time>2018-03-18T11:42:39.000Z</time>
      </trkpt>
      <trkpt lat="43.02767" lon="0.54345">
        <ele>514</ele>
        <time>2018-03-18T11:42:41.000Z</time>
      </trkpt>
      <trkpt lat="43.02768" lon="0.54343">
        <ele>514</ele>
        <time>2018-03-18T11:42:43.000Z</time>
      </trkpt>
      <trkpt lat="43.02769" lon="0.54341">
        <ele>514</ele>
        <time>2018-03-18T11:42:45.000Z</time>
      </trkpt>
      <trkpt lat="43.02771" lon="0.54339">
        <ele>514</ele>
        <time>2018-03-18T11:42:47.000Z</time>
      </trkpt>
      <trkpt lat="43.02771" lon="0.54337">
        <ele>514</ele>
        <time>2018-03-18T11:42:49.000Z</time>
      </trkpt>
      <trkpt lat="43.02773" lon="0.54335">
        <ele>514</ele>
        <time>2018-03-18T11:42:51.000Z</time>
      </trkpt>
      <trkpt lat="43.02774" lon="0.54333">
        <ele>514</ele>
        <time>2018-03-18T11:42:53.000Z</time>
      </trkpt>
      <trkpt lat="43.02774" lon="0.54332">
        <ele>514</ele>
        <time>2018-03-18T11:42:55.000Z</time>
      </trkpt>
      <trkpt lat="43.02775" lon="0.5433">
        <ele>514</ele>
        <time>2018-03-18T11:42:57.000Z</time>
      </trkpt>
      <trkpt lat="43.02776" lon="0.54329">
        <ele>514</ele>
        <time>2018-03-18T11:42:59.000Z</time>
      </trkpt>
      <trkpt lat="43.02777" lon="0.54327">
        <ele>514</ele>
        <time>2018-03-18T11:43:01.000Z</time>
      </trkpt>
      <trkpt lat="43.02778" lon="0.54325">
        <ele>514</ele>
        <time>2018-03-18T11:43:03.000Z</time>
      </trkpt>
      <trkpt lat="43.02779" lon="0.54323">
        <ele>514</ele>
        <time>2018-03-18T11:43:05.000Z</time>
      </trkpt>
      <trkpt lat="43.0278" lon="0.54321">
        <ele>514</ele>
        <time>2018-03-18T11:43:07.000Z</time>
      </trkpt>
      <trkpt lat="43.02781" lon="0.54318">
        <ele>514</ele>
        <time>2018-03-18T11:43:09.000Z</time>
      </trkpt>
      <trkpt lat="43.02781" lon="0.54316">
        <ele>515</ele>
        <time>2018-03-18T11:43:11.000Z</time>
      </trkpt>
      <trkpt lat="43.02781" lon="0.54314">
        <ele>515</ele>
        <time>2018-03-18T11:43:13.000Z</time>
      </trkpt>
      <trkpt lat="43.02782" lon="0.54311">
        <ele>515</ele>
        <time>2018-03-18T11:43:15.000Z</time>
      </trkpt>
      <trkpt lat="43.02782" lon="0.54308">
        <ele>516</ele>
        <time>2018-03-18T11:43:17.000Z</time>
      </trkpt>
      <trkpt lat="43.02783" lon="0.54306">
        <ele>516</ele>
        <time>2018-03-18T11:43:19.000Z</time>
      </trkpt>
      <trkpt lat="43.02783" lon="0.54303">
        <ele>516</ele>
        <time>2018-03-18T11:43:21.000Z</time>
      </trkpt>
      <trkpt lat="43.02783" lon="0.54301">
        <ele>516</ele>
        <time>2018-03-18T11:43:23.000Z</time>
      </trkpt>
      <trkpt lat="43.02783" lon="0.54299">
        <ele>517</ele>
        <time>2018-03-18T11:43:25.000Z</time>
      </trkpt>
      <trkpt lat="43.02783" lon="0.54296">
        <ele>517</ele>
        <time>2018-03-18T11:43:27.000Z</time>
      </trkpt>
      <trkpt lat="43.02782" lon="0.54294">
        <ele>517</ele>
        <time>2018-03-18T11:43:29.000Z</time>
      </trkpt>
      <trkpt lat="43.02781" lon="0.54293">
        <ele>518</ele>
        <time>2018-03-18T11:43:31.000Z</time>
      </trkpt>
      <trkpt lat="43.0278" lon="0.54291">
        <ele>518</ele>
        <time>2018-03-18T11:43:33.000Z</time>
      </trkpt>
      <trkpt lat="43.02778" lon="0.5429">
        <ele>518</ele>
        <time>2018-03-18T11:43:35.000Z</time>
      </trkpt>
      <trkpt lat="43.02777" lon="0.54289">
        <ele>518</ele>
        <time>2018-03-18T11:43:37.000Z</time>
      </trkpt>
      <trkpt lat="43.02776" lon="0.54287">
        <ele>518</ele>
        <time>2018-03-18T11:43:39.000Z</time>
      </trkpt>
      <trkpt lat="43.02774" lon="0.54286">
        <ele>518</ele>
        <time>2018-03-18T11:43:41.000Z</time>
      </trkpt>
      <trkpt lat="43.02774" lon="0.54285">
        <ele>518</ele>
        <time>2018-03-18T11:43:43.000Z</time>
      </trkpt>
      <trkpt lat="43.02773" lon="0.54284">
        <ele>518</ele>
        <time>2018-03-18T11:43:45.000Z</time>
      </trkpt>
      <trkpt lat="43.02772" lon="0.54283">
        <ele>518</ele>
        <time>2018-03-18T11:43:47.000Z</time>
      </trkpt>
      <trkpt lat="43.02771" lon="0.54283">
        <ele>518</ele>
        <time>2018-03-18T11:43:49.000Z</time>
      </trkpt>
      <trkpt lat="43.0277" lon="0.54282">
        <ele>519</ele>
        <time>2018-03-18T11:43:51.000Z</time>
      </trkpt>
      <trkpt lat="43.02769" lon="0.5428">
        <ele>519</ele>
        <time>2018-03-18T11:43:53.000Z</time>
      </trkpt>
      <trkpt lat="43.02768" lon="0.5428">
        <ele>519</ele>
        <time>2018-03-18T11:43:55.000Z</time>
      </trkpt>
      <trkpt lat="43.02767" lon="0.54279">
        <ele>519</ele>
        <time>2018-03-18T11:43:57.000Z</time>
      </trkpt>
      <trkpt lat="43.02766" lon="0.54278">
        <ele>519</ele>
        <time>2018-03-18T11:43:59.000Z</time>
      </trkpt>
      <trkpt lat="43.02766" lon="0.54277">
        <ele>519</ele>
        <time>2018-03-18T11:44:01.000Z</time>
      </trkpt>
      <trkpt lat="43.02765" lon="0.54277">
        <ele>519</ele>
        <time>2018-03-18T11:44:03.000Z</time>
      </trkpt>
      <trkpt lat="43.02765" lon="0.54277">
        <ele>519</ele>
        <time>2018-03-18T11:44:05.000Z</time>
      </trkpt>
      <trkpt lat="43.02765" lon="0.54276">
        <ele>519</ele>
        <time>2018-03-18T11:44:07.000Z</time>
      </trkpt>
      <trkpt lat="43.02764" lon="0.54275">
        <ele>519</ele>
        <time>2018-03-18T11:44:09.000Z</time>
      </trkpt>
      <trkpt lat="43.02764" lon="0.54274">
        <ele>519</ele>
        <time>2018-03-18T11:44:11.000Z</time>
      </trkpt>
      <trkpt lat="43.02763" lon="0.54274">
        <ele>519</ele>
        <time>2018-03-18T11:44:13.000Z</time>
      </trkpt>
      <trkpt lat="43.02763" lon="0.54273">
        <ele>519</ele>
        <time>2018-03-18T11:44:15.000Z</time>
      </trkpt>
      <trkpt lat="43.02761" lon="0.54272">
        <ele>519</ele>
        <time>2018-03-18T11:44:17.000Z</time>
      </trkpt>
      <trkpt lat="43.0276" lon="0.54271">
        <ele>519</ele>
        <time>2018-03-18T11:44:19.000Z</time>
      </trkpt>
      <trkpt lat="43.02758" lon="0.5427">
        <ele>520</ele>
        <time>2018-03-18T11:44:21.000Z</time>
      </trkpt>
      <trkpt lat="43.02757" lon="0.54268">
        <ele>520</ele>
        <time>2018-03-18T11:44:23.000Z</time>
      </trkpt>
      <trkpt lat="43.02757" lon="0.54267">
        <ele>520</ele>
        <time>2018-03-18T11:44:25.000Z</time>
      </trkpt>
      <trkpt lat="43.02756" lon="0.54267">
        <ele>520</ele>
        <time>2018-03-18T11:44:27.000Z</time>
      </trkpt>
      <trkpt lat="43.02755" lon="0.54266">
        <ele>520</ele>
        <time>2018-03-18T11:44:29.000Z</time>
      </trkpt>
      <trkpt lat="43.02754" lon="0.54264">
        <ele>520</ele>
        <time>2018-03-18T11:44:31.000Z</time>
      </trkpt>
      <trkpt lat="43.02753" lon="0.54263">
        <ele>520</ele>
        <time>2018-03-18T11:44:33.000Z</time>
      </trkpt>
      <trkpt lat="43.02751" lon="0.54261">
        <ele>521</ele>
        <time>2018-03-18T11:44:35.000Z</time>
      </trkpt>
      <trkpt lat="43.0275" lon="0.5426">
        <ele>521</ele>
        <time>2018-03-18T11:44:37.000Z</time>
      </trkpt>
      <trkpt lat="43.02749" lon="0.54258">
        <ele>521</ele>
        <time>2018-03-18T11:44:39.000Z</time>
      </trkpt>
      <trkpt lat="43.02746" lon="0.54257">
        <ele>521</ele>
        <time>2018-03-18T11:44:41.000Z</time>
      </trkpt>
      <trkpt lat="43.02746" lon="0.54255">
        <ele>521</ele>
        <time>2018-03-18T11:44:43.000Z</time>
      </trkpt>
      <trkpt lat="43.02745" lon="0.54254">
        <ele>521</ele>
        <time>2018-03-18T11:44:45.000Z</time>
      </trkpt>
      <trkpt lat="43.02744" lon="0.54253">
        <ele>522</ele>
        <time>2018-03-18T11:44:47.000Z</time>
      </trkpt>
      <trkpt lat="43.02743" lon="0.54252">
        <ele>522</ele>
        <time>2018-03-18T11:44:49.000Z</time>
      </trkpt>
      <trkpt lat="43.02742" lon="0.5425">
        <ele>522</ele>
        <time>2018-03-18T11:44:51.000Z</time>
      </trkpt>
      <trkpt lat="43.02741" lon="0.54249">
        <ele>522</ele>
        <time>2018-03-18T11:44:53.000Z</time>
      </trkpt>
      <trkpt lat="43.02741" lon="0.54248">
        <ele>522</ele>
        <time>2018-03-18T11:44:55.000Z</time>
      </trkpt>
      <trkpt lat="43.02741" lon="0.54247">
        <ele>522</ele>
        <time>2018-03-18T11:44:57.000Z</time>
      </trkpt>
      <trkpt lat="43.02741" lon="0.54245">
        <ele>523</ele>
        <time>2018-03-18T11:44:59.000Z</time>
      </trkpt>
      <trkpt lat="43.02741" lon="0.54244">
        <ele>523</ele>
        <time>2018-03-18T11:45:01.000Z</time>
      </trkpt>
      <trkpt lat="43.02741" lon="0.54243">
        <ele>523</ele>
        <time>2018-03-18T11:45:03.000Z</time>
      </trkpt>
      <trkpt lat="43.02741" lon="0.54242">
        <ele>523</ele>
        <time>2018-03-18T11:45:05.000Z</time>
      </trkpt>
      <trkpt lat="43.02741" lon="0.54241">
        <ele>524</ele>
        <time>2018-03-18T11:45:07.000Z</time>
      </trkpt>
      <trkpt lat="43.0274" lon="0.54238">
        <ele>524</ele>
        <time>2018-03-18T11:45:09.000Z</time>
      </trkpt>
      <trkpt lat="43.0274" lon="0.54236">
        <ele>524</ele>
        <time>2018-03-18T11:45:11.000Z</time>
      </trkpt>
      <trkpt lat="43.02739" lon="0.54235">
        <ele>524</ele>
        <time>2018-03-18T11:45:13.000Z</time>
      </trkpt>
      <trkpt lat="43.02738" lon="0.54233">
        <ele>525</ele>
        <time>2018-03-18T11:45:15.000Z</time>
      </trkpt>
      <trkpt lat="43.02738" lon="0.54231">
        <ele>525</ele>
        <time>2018-03-18T11:45:17.000Z</time>
      </trkpt>
      <trkpt lat="43.02737" lon="0.54229">
        <ele>525</ele>
        <time>2018-03-18T11:45:19.000Z</time>
      </trkpt>
      <trkpt lat="43.02736" lon="0.54228">
        <ele>525</ele>
        <time>2018-03-18T11:45:21.000Z</time>
      </trkpt>
      <trkpt lat="43.02736" lon="0.54228">
        <ele>525</ele>
        <time>2018-03-18T11:45:23.000Z</time>
      </trkpt>
      <trkpt lat="43.02735" lon="0.54228">
        <ele>525</ele>
        <time>2018-03-18T11:45:25.000Z</time>
      </trkpt>
      <trkpt lat="43.02735" lon="0.54228">
        <ele>525</ele>
        <time>2018-03-18T11:45:27.000Z</time>
      </trkpt>
      <trkpt lat="43.02735" lon="0.54227">
        <ele>526</ele>
        <time>2018-03-18T11:45:29.000Z</time>
      </trkpt>
      <trkpt lat="43.02735" lon="0.54228">
        <ele>525</ele>
        <time>2018-03-18T11:45:31.000Z</time>
      </trkpt>
      <trkpt lat="43.02734" lon="0.54228">
        <ele>525</ele>
        <time>2018-03-18T11:45:33.000Z</time>
      </trkpt>
      <trkpt lat="43.02734" lon="0.54228">
        <ele>525</ele>
        <time>2018-03-18T11:45:35.000Z</time>
      </trkpt>
      <trkpt lat="43.02733" lon="0.54228">
        <ele>525</ele>
        <time>2018-03-18T11:45:37.000Z</time>
      </trkpt>
      <trkpt lat="43.02731" lon="0.54229">
        <ele>525</ele>
        <time>2018-03-18T11:45:39.000Z</time>
      </trkpt>
      <trkpt lat="43.02731" lon="0.54228">
        <ele>525</ele>
        <time>2018-03-18T11:45:41.000Z</time>
      </trkpt>
      <trkpt lat="43.02731" lon="0.54228">
        <ele>525</ele>
        <time>2018-03-18T11:45:43.000Z</time>
      </trkpt>
      <trkpt lat="43.0273" lon="0.54228">
        <ele>525</ele>
        <time>2018-03-18T11:45:45.000Z</time>
      </trkpt>
      <trkpt lat="43.0273" lon="0.54228">
        <ele>525</ele>
        <time>2018-03-18T11:45:47.000Z</time>
      </trkpt>
      <trkpt lat="43.0273" lon="0.54227">
        <ele>525</ele>
        <time>2018-03-18T11:45:49.000Z</time>
      </trkpt>
      <trkpt lat="43.0273" lon="0.54226">
        <ele>525</ele>
        <time>2018-03-18T11:45:51.000Z</time>
      </trkpt>
      <trkpt lat="43.0273" lon="0.54225">
        <ele>525</ele>
        <time>2018-03-18T11:45:53.000Z</time>
      </trkpt>
      <trkpt lat="43.0273" lon="0.54225">
        <ele>526</ele>
        <time>2018-03-18T11:45:55.000Z</time>
      </trkpt>
      <trkpt lat="43.0273" lon="0.54224">
        <ele>526</ele>
        <time>2018-03-18T11:45:57.000Z</time>
      </trkpt>
      <trkpt lat="43.02729" lon="0.54224">
        <ele>526</ele>
        <time>2018-03-18T11:45:59.000Z</time>
      </trkpt>
      <trkpt lat="43.02729" lon="0.54225">
        <ele>526</ele>
        <time>2018-03-18T11:46:01.000Z</time>
      </trkpt>
      <trkpt lat="43.02728" lon="0.54225">
        <ele>525</ele>
        <time>2018-03-18T11:46:03.000Z</time>
      </trkpt>
      <trkpt lat="43.02728" lon="0.54225">
        <ele>525</ele>
        <time>2018-03-18T11:46:05.000Z</time>
      </trkpt>
      <trkpt lat="43.02728" lon="0.54225">
        <ele>525</ele>
        <time>2018-03-18T11:46:07.000Z</time>
      </trkpt>
      <trkpt lat="43.02728" lon="0.54224">
        <ele>526</ele>
        <time>2018-03-18T11:46:09.000Z</time>
      </trkpt>
      <trkpt lat="43.02728" lon="0.54224">
        <ele>526</ele>
        <time>2018-03-18T11:46:11.000Z</time>
      </trkpt>
      <trkpt lat="43.02727" lon="0.54224">
        <ele>526</ele>
        <time>2018-03-18T11:46:13.000Z</time>
      </trkpt>
      <trkpt lat="43.02727" lon="0.54224">
        <ele>526</ele>
        <time>2018-03-18T11:46:15.000Z</time>
      </trkpt>
      <trkpt lat="43.02727" lon="0.54223">
        <ele>526</ele>
        <time>2018-03-18T11:46:17.000Z</time>
      </trkpt>
      <trkpt lat="43.02727" lon="0.54223">
        <ele>526</ele>
        <time>2018-03-18T11:46:19.000Z</time>
      </trkpt>
      <trkpt lat="43.02727" lon="0.54223">
        <ele>526</ele>
        <time>2018-03-18T11:46:21.000Z</time>
      </trkpt>
      <trkpt lat="43.02726" lon="0.54222">
        <ele>526</ele>
        <time>2018-03-18T11:46:23.000Z</time>
      </trkpt>
      <trkpt lat="43.02726" lon="0.54222">
        <ele>526</ele>
        <time>2018-03-18T11:46:25.000Z</time>
      </trkpt>
      <trkpt lat="43.02726" lon="0.54222">
        <ele>526</ele>
        <time>2018-03-18T11:46:27.000Z</time>
      </trkpt>
      <trkpt lat="43.02725" lon="0.5422">
        <ele>526</ele>
        <time>2018-03-18T11:46:29.000Z</time>
      </trkpt>
      <trkpt lat="43.02723" lon="0.54218">
        <ele>526</ele>
        <time>2018-03-18T11:46:31.000Z</time>
      </trkpt>
      <trkpt lat="43.02723" lon="0.54218">
        <ele>526</ele>
        <time>2018-03-18T11:46:33.000Z</time>
      </trkpt>
      <trkpt lat="43.02722" lon="0.54218">
        <ele>526</ele>
        <time>2018-03-18T11:46:35.000Z</time>
      </trkpt>
      <trkpt lat="43.02721" lon="0.54219">
        <ele>526</ele>
        <time>2018-03-18T11:46:37.000Z</time>
      </trkpt>
      <trkpt lat="43.02719" lon="0.54218">
        <ele>526</ele>
        <time>2018-03-18T11:46:39.000Z</time>
      </trkpt>
      <trkpt lat="43.02718" lon="0.54219">
        <ele>526</ele>
        <time>2018-03-18T11:46:41.000Z</time>
      </trkpt>
      <trkpt lat="43.02718" lon="0.54219">
        <ele>526</ele>
        <time>2018-03-18T11:46:43.000Z</time>
      </trkpt>
      <trkpt lat="43.02719" lon="0.54219">
        <ele>526</ele>
        <time>2018-03-18T11:46:45.000Z</time>
      </trkpt>
      <trkpt lat="43.02718" lon="0.54219">
        <ele>526</ele>
        <time>2018-03-18T11:46:47.000Z</time>
      </trkpt>
      <trkpt lat="43.02719" lon="0.54219">
        <ele>526</ele>
        <time>2018-03-18T11:46:49.000Z</time>
      </trkpt>
      <trkpt lat="43.0272" lon="0.54219">
        <ele>526</ele>
        <time>2018-03-18T11:46:51.000Z</time>
      </trkpt>
      <trkpt lat="43.0272" lon="0.5422">
        <ele>526</ele>
        <time>2018-03-18T11:46:53.000Z</time>
      </trkpt>
      <trkpt lat="43.02721" lon="0.5422">
        <ele>526</ele>
        <time>2018-03-18T11:46:55.000Z</time>
      </trkpt>
      <trkpt lat="43.02721" lon="0.5422">
        <ele>526</ele>
        <time>2018-03-18T11:46:57.000Z</time>
      </trkpt>
      <trkpt lat="43.02722" lon="0.54221">
        <ele>526</ele>
        <time>2018-03-18T11:46:59.000Z</time>
      </trkpt>
      <trkpt lat="43.02722" lon="0.54222">
        <ele>526</ele>
        <time>2018-03-18T11:47:01.000Z</time>
      </trkpt>
      <trkpt lat="43.02722" lon="0.54222">
        <ele>525</ele>
        <time>2018-03-18T11:47:03.000Z</time>
      </trkpt>
      <trkpt lat="43.02722" lon="0.54223">
        <ele>525</ele>
        <time>2018-03-18T11:47:05.000Z</time>
      </trkpt>
      <trkpt lat="43.02723" lon="0.54223">
        <ele>525</ele>
        <time>2018-03-18T11:47:07.000Z</time>
      </trkpt>
      <trkpt lat="43.02724" lon="0.54222">
        <ele>526</ele>
        <time>2018-03-18T11:47:09.000Z</time>
      </trkpt>
      <trkpt lat="43.02724" lon="0.54222">
        <ele>526</ele>
        <time>2018-03-18T11:47:11.000Z</time>
      </trkpt>
      <trkpt lat="43.02724" lon="0.54222">
        <ele>526</ele>
        <time>2018-03-18T11:47:13.000Z</time>
      </trkpt>
      <trkpt lat="43.02725" lon="0.54222">
        <ele>526</ele>
        <time>2018-03-18T11:47:15.000Z</time>
      </trkpt>
      <trkpt lat="43.02725" lon="0.54222">
        <ele>526</ele>
        <time>2018-03-18T11:47:17.000Z</time>
      </trkpt>
      <trkpt lat="43.02726" lon="0.54222">
        <ele>526</ele>
        <time>2018-03-18T11:47:19.000Z</time>
      </trkpt>
      <trkpt lat="43.02726" lon="0.54223">
        <ele>526</ele>
        <time>2018-03-18T11:47:21.000Z</time>
      </trkpt>
      <trkpt lat="43.02727" lon="0.54223">
        <ele>526</ele>
        <time>2018-03-18T11:47:23.000Z</time>
      </trkpt>
      <trkpt lat="43.02727" lon="0.54223">
        <ele>526</ele>
        <time>2018-03-18T11:47:25.000Z</time>
      </trkpt>
      <trkpt lat="43.02728" lon="0.54223">
        <ele>526</ele>
        <time>2018-03-18T11:47:27.000Z</time>
      </trkpt>
      <trkpt lat="43.02728" lon="0.54223">
        <ele>526</ele>
        <time>2018-03-18T11:47:29.000Z</time>
      </trkpt>
      <trkpt lat="43.02728" lon="0.54223">
        <ele>526</ele>
        <time>2018-03-18T11:47:31.000Z</time>
      </trkpt>
      <trkpt lat="43.02728" lon="0.54223">
        <ele>526</ele>
        <time>2018-03-18T11:47:33.000Z</time>
      </trkpt>
      <trkpt lat="43.02728" lon="0.54223">
        <ele>526</ele>
        <time>2018-03-18T11:47:35.000Z</time>
      </trkpt>
      <trkpt lat="43.02728" lon="0.54223">
        <ele>526</ele>
        <time>2018-03-18T11:47:37.000Z</time>
      </trkpt>
      <trkpt lat="43.02727" lon="0.54223">
        <ele>526</ele>
        <time>2018-03-18T11:47:39.000Z</time>
      </trkpt>
      <trkpt lat="43.02727" lon="0.54224">
        <ele>526</ele>
        <time>2018-03-18T11:47:41.000Z</time>
      </trkpt>
      <trkpt lat="43.02726" lon="0.54224">
        <ele>525</ele>
        <time>2018-03-18T11:47:43.000Z</time>
      </trkpt>
      <trkpt lat="43.02725" lon="0.54224">
        <ele>525</ele>
        <time>2018-03-18T11:47:45.000Z</time>
      </trkpt>
      <trkpt lat="43.02724" lon="0.54223">
        <ele>525</ele>
        <time>2018-03-18T11:47:47.000Z</time>
      </trkpt>
      <trkpt lat="43.02724" lon="0.54223">
        <ele>525</ele>
        <time>2018-03-18T11:47:49.000Z</time>
      </trkpt>
      <trkpt lat="43.02724" lon="0.54223">
        <ele>526</ele>
        <time>2018-03-18T11:47:51.000Z</time>
      </trkpt>
      <trkpt lat="43.02724" lon="0.54222">
        <ele>526</ele>
        <time>2018-03-18T11:47:53.000Z</time>
      </trkpt>
      <trkpt lat="43.02724" lon="0.54222">
        <ele>526</ele>
        <time>2018-03-18T11:47:55.000Z</time>
      </trkpt>
      <trkpt lat="43.02724" lon="0.54222">
        <ele>526</ele>
        <time>2018-03-18T11:47:57.000Z</time>
      </trkpt>
      <trkpt lat="43.02724" lon="0.54221">
        <ele>526</ele>
        <time>2018-03-18T11:47:59.000Z</time>
      </trkpt>
      <trkpt lat="43.02724" lon="0.54222">
        <ele>526</ele>
        <time>2018-03-18T11:48:01.000Z</time>
      </trkpt>
      <trkpt lat="43.02725" lon="0.54222">
        <ele>526</ele>
        <time>2018-03-18T11:48:03.000Z</time>
      </trkpt>
      <trkpt lat="43.02725" lon="0.54221">
        <ele>526</ele>
        <time>2018-03-18T11:48:05.000Z</time>
      </trkpt>
      <trkpt lat="43.02726" lon="0.54219">
        <ele>526</ele>
        <time>2018-03-18T11:48:07.000Z</time>
      </trkpt>
      <trkpt lat="43.02726" lon="0.54217">
        <ele>527</ele>
        <time>2018-03-18T11:48:09.000Z</time>
      </trkpt>
      <trkpt lat="43.02726" lon="0.54216">
        <ele>527</ele>
        <time>2018-03-18T11:48:11.000Z</time>
      </trkpt>
      <trkpt lat="43.02725" lon="0.54215">
        <ele>527</ele>
        <time>2018-03-18T11:48:13.000Z</time>
      </trkpt>
      <trkpt lat="43.02725" lon="0.54213">
        <ele>528</ele>
        <time>2018-03-18T11:48:15.000Z</time>
      </trkpt>
      <trkpt lat="43.02723" lon="0.54212">
        <ele>528</ele>
        <time>2018-03-18T11:48:17.000Z</time>
      </trkpt>
      <trkpt lat="43.0272" lon="0.54209">
        <ele>528</ele>
        <time>2018-03-18T11:48:19.000Z</time>
      </trkpt>
      <trkpt lat="43.02718" lon="0.54207">
        <ele>529</ele>
        <time>2018-03-18T11:48:21.000Z</time>
      </trkpt>
      <trkpt lat="43.02716" lon="0.54205">
        <ele>529</ele>
        <time>2018-03-18T11:48:23.000Z</time>
      </trkpt>
      <trkpt lat="43.02714" lon="0.54203">
        <ele>529</ele>
        <time>2018-03-18T11:48:25.000Z</time>
      </trkpt>
      <trkpt lat="43.02713" lon="0.54202">
        <ele>530</ele>
        <time>2018-03-18T11:48:27.000Z</time>
      </trkpt>
      <trkpt lat="43.02711" lon="0.542">
        <ele>530</ele>
        <time>2018-03-18T11:48:29.000Z</time>
      </trkpt>
      <trkpt lat="43.02711" lon="0.54198">
        <ele>530</ele>
        <time>2018-03-18T11:48:31.000Z</time>
      </trkpt>
      <trkpt lat="43.0271" lon="0.54197">
        <ele>531</ele>
        <time>2018-03-18T11:48:33.000Z</time>
      </trkpt>
      <trkpt lat="43.0271" lon="0.54197">
        <ele>531</ele>
        <time>2018-03-18T11:48:35.000Z</time>
      </trkpt>
      <trkpt lat="43.0271" lon="0.54196">
        <ele>531</ele>
        <time>2018-03-18T11:48:37.000Z</time>
      </trkpt>
      <trkpt lat="43.02709" lon="0.54195">
        <ele>531</ele>
        <time>2018-03-18T11:48:39.000Z</time>
      </trkpt>
      <trkpt lat="43.02708" lon="0.54194">
        <ele>531</ele>
        <time>2018-03-18T11:48:41.000Z</time>
      </trkpt>
      <trkpt lat="43.02707" lon="0.54194">
        <ele>531</ele>
        <time>2018-03-18T11:48:43.000Z</time>
      </trkpt>
      <trkpt lat="43.02705" lon="0.54193">
        <ele>531</ele>
        <time>2018-03-18T11:48:45.000Z</time>
      </trkpt>
      <trkpt lat="43.02704" lon="0.54192">
        <ele>531</ele>
        <time>2018-03-18T11:48:47.000Z</time>
      </trkpt>
      <trkpt lat="43.02703" lon="0.54191">
        <ele>532</ele>
        <time>2018-03-18T11:48:49.000Z</time>
      </trkpt>
      <trkpt lat="43.02703" lon="0.5419">
        <ele>532</ele>
        <time>2018-03-18T11:48:51.000Z</time>
      </trkpt>
      <trkpt lat="43.02702" lon="0.5419">
        <ele>532</ele>
        <time>2018-03-18T11:48:53.000Z</time>
      </trkpt>
      <trkpt lat="43.02701" lon="0.54188">
        <ele>532</ele>
        <time>2018-03-18T11:48:55.000Z</time>
      </trkpt>
      <trkpt lat="43.027" lon="0.54187">
        <ele>532</ele>
        <time>2018-03-18T11:48:57.000Z</time>
      </trkpt>
      <trkpt lat="43.02699" lon="0.54185">
        <ele>533</ele>
        <time>2018-03-18T11:48:59.000Z</time>
      </trkpt>
      <trkpt lat="43.02698" lon="0.54184">
        <ele>533</ele>
        <time>2018-03-18T11:49:01.000Z</time>
      </trkpt>
      <trkpt lat="43.02698" lon="0.54182">
        <ele>533</ele>
        <time>2018-03-18T11:49:03.000Z</time>
      </trkpt>
      <trkpt lat="43.02696" lon="0.54181">
        <ele>534</ele>
        <time>2018-03-18T11:49:05.000Z</time>
      </trkpt>
      <trkpt lat="43.02695" lon="0.5418">
        <ele>534</ele>
        <time>2018-03-18T11:49:07.000Z</time>
      </trkpt>
      <trkpt lat="43.02695" lon="0.54179">
        <ele>534</ele>
        <time>2018-03-18T11:49:09.000Z</time>
      </trkpt>
      <trkpt lat="43.02694" lon="0.54179">
        <ele>534</ele>
        <time>2018-03-18T11:49:11.000Z</time>
      </trkpt>
      <trkpt lat="43.02692" lon="0.54179">
        <ele>534</ele>
        <time>2018-03-18T11:49:13.000Z</time>
      </trkpt>
      <trkpt lat="43.02691" lon="0.54179">
        <ele>534</ele>
        <time>2018-03-18T11:49:15.000Z</time>
      </trkpt>
      <trkpt lat="43.0269" lon="0.54179">
        <ele>534</ele>
        <time>2018-03-18T11:49:17.000Z</time>
      </trkpt>
      <trkpt lat="43.02687" lon="0.54178">
        <ele>534</ele>
        <time>2018-03-18T11:49:19.000Z</time>
      </trkpt>
      <trkpt lat="43.02686" lon="0.54178">
        <ele>534</ele>
        <time>2018-03-18T11:49:21.000Z</time>
      </trkpt>
      <trkpt lat="43.02684" lon="0.54177">
        <ele>534</ele>
        <time>2018-03-18T11:49:23.000Z</time>
      </trkpt>
      <trkpt lat="43.02682" lon="0.54177">
        <ele>534</ele>
        <time>2018-03-18T11:49:25.000Z</time>
      </trkpt>
      <trkpt lat="43.02681" lon="0.54176">
        <ele>534</ele>
        <time>2018-03-18T11:49:27.000Z</time>
      </trkpt>
      <trkpt lat="43.0268" lon="0.54174">
        <ele>534</ele>
        <time>2018-03-18T11:49:29.000Z</time>
      </trkpt>
      <trkpt lat="43.02679" lon="0.54172">
        <ele>535</ele>
        <time>2018-03-18T11:49:31.000Z</time>
      </trkpt>
      <trkpt lat="43.02678" lon="0.5417">
        <ele>535</ele>
        <time>2018-03-18T11:49:33.000Z</time>
      </trkpt>
      <trkpt lat="43.02677" lon="0.54168">
        <ele>536</ele>
        <time>2018-03-18T11:49:35.000Z</time>
      </trkpt>
      <trkpt lat="43.02677" lon="0.54166">
        <ele>536</ele>
        <time>2018-03-18T11:49:37.000Z</time>
      </trkpt>
      <trkpt lat="43.02676" lon="0.54164">
        <ele>536</ele>
        <time>2018-03-18T11:49:39.000Z</time>
      </trkpt>
      <trkpt lat="43.02674" lon="0.54162">
        <ele>537</ele>
        <time>2018-03-18T11:49:41.000Z</time>
      </trkpt>
      <trkpt lat="43.02672" lon="0.5416">
        <ele>537</ele>
        <time>2018-03-18T11:49:43.000Z</time>
      </trkpt>
      <trkpt lat="43.02671" lon="0.54158">
        <ele>537</ele>
        <time>2018-03-18T11:49:45.000Z</time>
      </trkpt>
      <trkpt lat="43.02669" lon="0.54156">
        <ele>538</ele>
        <time>2018-03-18T11:49:47.000Z</time>
      </trkpt>
      <trkpt lat="43.02668" lon="0.54154">
        <ele>538</ele>
        <time>2018-03-18T11:49:49.000Z</time>
      </trkpt>
      <trkpt lat="43.02667" lon="0.54153">
        <ele>538</ele>
        <time>2018-03-18T11:49:51.000Z</time>
      </trkpt>
      <trkpt lat="43.02666" lon="0.54151">
        <ele>538</ele>
        <time>2018-03-18T11:49:53.000Z</time>
      </trkpt>
      <trkpt lat="43.02665" lon="0.54149">
        <ele>539</ele>
        <time>2018-03-18T11:49:55.000Z</time>
      </trkpt>
      <trkpt lat="43.02664" lon="0.54148">
        <ele>539</ele>
        <time>2018-03-18T11:49:57.000Z</time>
      </trkpt>
      <trkpt lat="43.02663" lon="0.54146">
        <ele>539</ele>
        <time>2018-03-18T11:49:59.000Z</time>
      </trkpt>
      <trkpt lat="43.02661" lon="0.54145">
        <ele>539</ele>
        <time>2018-03-18T11:50:01.000Z</time>
      </trkpt>
      <trkpt lat="43.0266" lon="0.54143">
        <ele>540</ele>
        <time>2018-03-18T11:50:03.000Z</time>
      </trkpt>
      <trkpt lat="43.02659" lon="0.54142">
        <ele>540</ele>
        <time>2018-03-18T11:50:05.000Z</time>
      </trkpt>
      <trkpt lat="43.02657" lon="0.54141">
        <ele>540</ele>
        <time>2018-03-18T11:50:07.000Z</time>
      </trkpt>
      <trkpt lat="43.02655" lon="0.5414">
        <ele>540</ele>
        <time>2018-03-18T11:50:09.000Z</time>
      </trkpt>
      <trkpt lat="43.02652" lon="0.54138">
        <ele>540</ele>
        <time>2018-03-18T11:50:11.000Z</time>
      </trkpt>
      <trkpt lat="43.0265" lon="0.54137">
        <ele>540</ele>
        <time>2018-03-18T11:50:13.000Z</time>
      </trkpt>
      <trkpt lat="43.02649" lon="0.54136">
        <ele>540</ele>
        <time>2018-03-18T11:50:15.000Z</time>
      </trkpt>
      <trkpt lat="43.02648" lon="0.54135">
        <ele>540</ele>
        <time>2018-03-18T11:50:17.000Z</time>
      </trkpt>
      <trkpt lat="43.02646" lon="0.54134">
        <ele>540</ele>
        <time>2018-03-18T11:50:19.000Z</time>
      </trkpt>
      <trkpt lat="43.02645" lon="0.54133">
        <ele>540</ele>
        <time>2018-03-18T11:50:21.000Z</time>
      </trkpt>
      <trkpt lat="43.02643" lon="0.54132">
        <ele>540</ele>
        <time>2018-03-18T11:50:23.000Z</time>
      </trkpt>
      <trkpt lat="43.02642" lon="0.54131">
        <ele>540</ele>
        <time>2018-03-18T11:50:25.000Z</time>
      </trkpt>
      <trkpt lat="43.02641" lon="0.5413">
        <ele>540</ele>
        <time>2018-03-18T11:50:27.000Z</time>
      </trkpt>
      <trkpt lat="43.0264" lon="0.54129">
        <ele>541</ele>
        <time>2018-03-18T11:50:29.000Z</time>
      </trkpt>
      <trkpt lat="43.02639" lon="0.54128">
        <ele>541</ele>
        <time>2018-03-18T11:50:31.000Z</time>
      </trkpt>
      <trkpt lat="43.02638" lon="0.54127">
        <ele>541</ele>
        <time>2018-03-18T11:50:33.000Z</time>
      </trkpt>
      <trkpt lat="43.02636" lon="0.54126">
        <ele>541</ele>
        <time>2018-03-18T11:50:35.000Z</time>
      </trkpt>
      <trkpt lat="43.02635" lon="0.54124">
        <ele>541</ele>
        <time>2018-03-18T11:50:37.000Z</time>
      </trkpt>
      <trkpt lat="43.02634" lon="0.54124">
        <ele>541</ele>
        <time>2018-03-18T11:50:39.000Z</time>
      </trkpt>
      <trkpt lat="43.02634" lon="0.54122">
        <ele>541</ele>
        <time>2018-03-18T11:50:41.000Z</time>
      </trkpt>
      <trkpt lat="43.02632" lon="0.54121">
        <ele>541</ele>
        <time>2018-03-18T11:50:43.000Z</time>
      </trkpt>
      <trkpt lat="43.02631" lon="0.5412">
        <ele>542</ele>
        <time>2018-03-18T11:50:45.000Z</time>
      </trkpt>
      <trkpt lat="43.0263" lon="0.54119">
        <ele>542</ele>
        <time>2018-03-18T11:50:47.000Z</time>
      </trkpt>
      <trkpt lat="43.02628" lon="0.54118">
        <ele>542</ele>
        <time>2018-03-18T11:50:49.000Z</time>
      </trkpt>
      <trkpt lat="43.02627" lon="0.54116">
        <ele>542</ele>
        <time>2018-03-18T11:50:51.000Z</time>
      </trkpt>
      <trkpt lat="43.02627" lon="0.54115">
        <ele>542</ele>
        <time>2018-03-18T11:50:53.000Z</time>
      </trkpt>
      <trkpt lat="43.02625" lon="0.54114">
        <ele>542</ele>
        <time>2018-03-18T11:50:55.000Z</time>
      </trkpt>
      <trkpt lat="43.02623" lon="0.54112">
        <ele>542</ele>
        <time>2018-03-18T11:50:57.000Z</time>
      </trkpt>
      <trkpt lat="43.02622" lon="0.54111">
        <ele>542</ele>
        <time>2018-03-18T11:50:59.000Z</time>
      </trkpt>
      <trkpt lat="43.02621" lon="0.5411">
        <ele>543</ele>
        <time>2018-03-18T11:51:01.000Z</time>
      </trkpt>
      <trkpt lat="43.02619" lon="0.54108">
        <ele>543</ele>
        <time>2018-03-18T11:51:03.000Z</time>
      </trkpt>
      <trkpt lat="43.02618" lon="0.54105">
        <ele>543</ele>
        <time>2018-03-18T11:51:05.000Z</time>
      </trkpt>
      <trkpt lat="43.02618" lon="0.54105">
        <ele>543</ele>
        <time>2018-03-18T11:51:07.000Z</time>
      </trkpt>
      <trkpt lat="43.02618" lon="0.54103">
        <ele>544</ele>
        <time>2018-03-18T11:51:09.000Z</time>
      </trkpt>
      <trkpt lat="43.02618" lon="0.54103">
        <ele>544</ele>
        <time>2018-03-18T11:51:11.000Z</time>
      </trkpt>
      <trkpt lat="43.02618" lon="0.54102">
        <ele>544</ele>
        <time>2018-03-18T11:51:13.000Z</time>
      </trkpt>
      <trkpt lat="43.02619" lon="0.541">
        <ele>545</ele>
        <time>2018-03-18T11:51:15.000Z</time>
      </trkpt>
      <trkpt lat="43.02619" lon="0.54098">
        <ele>545</ele>
        <time>2018-03-18T11:51:17.000Z</time>
      </trkpt>
      <trkpt lat="43.02621" lon="0.54097">
        <ele>546</ele>
        <time>2018-03-18T11:51:19.000Z</time>
      </trkpt>
      <trkpt lat="43.02622" lon="0.54096">
        <ele>546</ele>
        <time>2018-03-18T11:51:21.000Z</time>
      </trkpt>
      <trkpt lat="43.02622" lon="0.54096">
        <ele>546</ele>
        <time>2018-03-18T11:51:23.000Z</time>
      </trkpt>
      <trkpt lat="43.02623" lon="0.54096">
        <ele>546</ele>
        <time>2018-03-18T11:51:25.000Z</time>
      </trkpt>
      <trkpt lat="43.02624" lon="0.54096">
        <ele>546</ele>
        <time>2018-03-18T11:51:27.000Z</time>
      </trkpt>
      <trkpt lat="43.02625" lon="0.54096">
        <ele>547</ele>
        <time>2018-03-18T11:51:29.000Z</time>
      </trkpt>
      <trkpt lat="43.02626" lon="0.54096">
        <ele>547</ele>
        <time>2018-03-18T11:51:31.000Z</time>
      </trkpt>
      <trkpt lat="43.02627" lon="0.54096">
        <ele>547</ele>
        <time>2018-03-18T11:51:33.000Z</time>
      </trkpt>
      <trkpt lat="43.02629" lon="0.54096">
        <ele>547</ele>
        <time>2018-03-18T11:51:35.000Z</time>
      </trkpt>
      <trkpt lat="43.02631" lon="0.54096">
        <ele>547</ele>
        <time>2018-03-18T11:51:37.000Z</time>
      </trkpt>
      <trkpt lat="43.02632" lon="0.54096">
        <ele>547</ele>
        <time>2018-03-18T11:51:39.000Z</time>
      </trkpt>
      <trkpt lat="43.02635" lon="0.54096">
        <ele>548</ele>
        <time>2018-03-18T11:51:41.000Z</time>
      </trkpt>
      <trkpt lat="43.02636" lon="0.54096">
        <ele>548</ele>
        <time>2018-03-18T11:51:43.000Z</time>
      </trkpt>
      <trkpt lat="43.02638" lon="0.54096">
        <ele>548</ele>
        <time>2018-03-18T11:51:45.000Z</time>
      </trkpt>
      <trkpt lat="43.0264" lon="0.54096">
        <ele>549</ele>
        <time>2018-03-18T11:51:47.000Z</time>
      </trkpt>
      <trkpt lat="43.02641" lon="0.54096">
        <ele>549</ele>
        <time>2018-03-18T11:51:49.000Z</time>
      </trkpt>
      <trkpt lat="43.02643" lon="0.54095">
        <ele>549</ele>
        <time>2018-03-18T11:51:51.000Z</time>
      </trkpt>
      <trkpt lat="43.02644" lon="0.54095">
        <ele>550</ele>
        <time>2018-03-18T11:51:53.000Z</time>
      </trkpt>
      <trkpt lat="43.02645" lon="0.54095">
        <ele>550</ele>
        <time>2018-03-18T11:51:55.000Z</time>
      </trkpt>
      <trkpt lat="43.02647" lon="0.54095">
        <ele>550</ele>
        <time>2018-03-18T11:51:57.000Z</time>
      </trkpt>
      <trkpt lat="43.02647" lon="0.54096">
        <ele>550</ele>
        <time>2018-03-18T11:51:59.000Z</time>
      </trkpt>
      <trkpt lat="43.02648" lon="0.54097">
        <ele>550</ele>
        <time>2018-03-18T11:52:01.000Z</time>
      </trkpt>
      <trkpt lat="43.02649" lon="0.54097">
        <ele>550</ele>
        <time>2018-03-18T11:52:03.000Z</time>
      </trkpt>
      <trkpt lat="43.02651" lon="0.54097">
        <ele>550</ele>
        <time>2018-03-18T11:52:05.000Z</time>
      </trkpt>
      <trkpt lat="43.02652" lon="0.54097">
        <ele>550</ele>
        <time>2018-03-18T11:52:07.000Z</time>
      </trkpt>
      <trkpt lat="43.02653" lon="0.54097">
        <ele>551</ele>
        <time>2018-03-18T11:52:09.000Z</time>
      </trkpt>
      <trkpt lat="43.02654" lon="0.54097">
        <ele>551</ele>
        <time>2018-03-18T11:52:11.000Z</time>
      </trkpt>
      <trkpt lat="43.02655" lon="0.54097">
        <ele>551</ele>
        <time>2018-03-18T11:52:13.000Z</time>
      </trkpt>
      <trkpt lat="43.02655" lon="0.54096">
        <ele>551</ele>
        <time>2018-03-18T11:52:15.000Z</time>
      </trkpt>
      <trkpt lat="43.02656" lon="0.54096">
        <ele>552</ele>
        <time>2018-03-18T11:52:17.000Z</time>
      </trkpt>
      <trkpt lat="43.02657" lon="0.54096">
        <ele>552</ele>
        <time>2018-03-18T11:52:19.000Z</time>
      </trkpt>
      <trkpt lat="43.02658" lon="0.54096">
        <ele>552</ele>
        <time>2018-03-18T11:52:21.000Z</time>
      </trkpt>
      <trkpt lat="43.02659" lon="0.54096">
        <ele>552</ele>
        <time>2018-03-18T11:52:23.000Z</time>
      </trkpt>
      <trkpt lat="43.02662" lon="0.54096">
        <ele>553</ele>
        <time>2018-03-18T11:52:25.000Z</time>
      </trkpt>
      <trkpt lat="43.02664" lon="0.54097">
        <ele>553</ele>
        <time>2018-03-18T11:52:27.000Z</time>
      </trkpt>
      <trkpt lat="43.02666" lon="0.54096">
        <ele>554</ele>
        <time>2018-03-18T11:52:29.000Z</time>
      </trkpt>
      <trkpt lat="43.02668" lon="0.54096">
        <ele>554</ele>
        <time>2018-03-18T11:52:31.000Z</time>
      </trkpt>
      <trkpt lat="43.0267" lon="0.54095">
        <ele>555</ele>
        <time>2018-03-18T11:52:33.000Z</time>
      </trkpt>
      <trkpt lat="43.02671" lon="0.54096">
        <ele>555</ele>
        <time>2018-03-18T11:52:35.000Z</time>
      </trkpt>
      <trkpt lat="43.02674" lon="0.54096">
        <ele>555</ele>
        <time>2018-03-18T11:52:37.000Z</time>
      </trkpt>
      <trkpt lat="43.02676" lon="0.54097">
        <ele>555</ele>
        <time>2018-03-18T11:52:39.000Z</time>
      </trkpt>
      <trkpt lat="43.02678" lon="0.54097">
        <ele>555</ele>
        <time>2018-03-18T11:52:41.000Z</time>
      </trkpt>
      <trkpt lat="43.02679" lon="0.54097">
        <ele>555</ele>
        <time>2018-03-18T11:52:43.000Z</time>
      </trkpt>
      <trkpt lat="43.0268" lon="0.54097">
        <ele>556</ele>
        <time>2018-03-18T11:52:45.000Z</time>
      </trkpt>
      <trkpt lat="43.02681" lon="0.54098">
        <ele>555</ele>
        <time>2018-03-18T11:52:47.000Z</time>
      </trkpt>
      <trkpt lat="43.02681" lon="0.54098">
        <ele>555</ele>
        <time>2018-03-18T11:52:49.000Z</time>
      </trkpt>
      <trkpt lat="43.02682" lon="0.54098">
        <ele>556</ele>
        <time>2018-03-18T11:52:51.000Z</time>
      </trkpt>
      <trkpt lat="43.02683" lon="0.54097">
        <ele>556</ele>
        <time>2018-03-18T11:52:53.000Z</time>
      </trkpt>
      <trkpt lat="43.02685" lon="0.54098">
        <ele>556</ele>
        <time>2018-03-18T11:52:55.000Z</time>
      </trkpt>
      <trkpt lat="43.02686" lon="0.54098">
        <ele>556</ele>
        <time>2018-03-18T11:52:57.000Z</time>
      </trkpt>
      <trkpt lat="43.02688" lon="0.54099">
        <ele>556</ele>
        <time>2018-03-18T11:52:59.000Z</time>
      </trkpt>
      <trkpt lat="43.0269" lon="0.54099">
        <ele>556</ele>
        <time>2018-03-18T11:53:01.000Z</time>
      </trkpt>
      <trkpt lat="43.02692" lon="0.54099">
        <ele>556</ele>
        <time>2018-03-18T11:53:03.000Z</time>
      </trkpt>
      <trkpt lat="43.02694" lon="0.541">
        <ele>556</ele>
        <time>2018-03-18T11:53:05.000Z</time>
      </trkpt>
      <trkpt lat="43.02696" lon="0.541">
        <ele>556</ele>
        <time>2018-03-18T11:53:07.000Z</time>
      </trkpt>
      <trkpt lat="43.02698" lon="0.54101">
        <ele>556</ele>
        <time>2018-03-18T11:53:09.000Z</time>
      </trkpt>
      <trkpt lat="43.02699" lon="0.541">
        <ele>557</ele>
        <time>2018-03-18T11:53:11.000Z</time>
      </trkpt>
      <trkpt lat="43.02701" lon="0.541">
        <ele>557</ele>
        <time>2018-03-18T11:53:13.000Z</time>
      </trkpt>
      <trkpt lat="43.02702" lon="0.541">
        <ele>557</ele>
        <time>2018-03-18T11:53:15.000Z</time>
      </trkpt>
      <trkpt lat="43.02704" lon="0.541">
        <ele>557</ele>
        <time>2018-03-18T11:53:17.000Z</time>
      </trkpt>
      <trkpt lat="43.02706" lon="0.541">
        <ele>558</ele>
        <time>2018-03-18T11:53:19.000Z</time>
      </trkpt>
      <trkpt lat="43.02708" lon="0.541">
        <ele>558</ele>
        <time>2018-03-18T11:53:21.000Z</time>
      </trkpt>
      <trkpt lat="43.0271" lon="0.54099">
        <ele>558</ele>
        <time>2018-03-18T11:53:23.000Z</time>
      </trkpt>
      <trkpt lat="43.02711" lon="0.541">
        <ele>558</ele>
        <time>2018-03-18T11:53:25.000Z</time>
      </trkpt>
      <trkpt lat="43.02712" lon="0.54101">
        <ele>558</ele>
        <time>2018-03-18T11:53:27.000Z</time>
      </trkpt>
      <trkpt lat="43.02712" lon="0.54101">
        <ele>558</ele>
        <time>2018-03-18T11:53:29.000Z</time>
      </trkpt>
      <trkpt lat="43.02713" lon="0.541">
        <ele>558</ele>
        <time>2018-03-18T11:53:31.000Z</time>
      </trkpt>
      <trkpt lat="43.02714" lon="0.541">
        <ele>558</ele>
        <time>2018-03-18T11:53:33.000Z</time>
      </trkpt>
      <trkpt lat="43.02714" lon="0.541">
        <ele>559</ele>
        <time>2018-03-18T11:53:35.000Z</time>
      </trkpt>
      <trkpt lat="43.02715" lon="0.54099">
        <ele>559</ele>
        <time>2018-03-18T11:53:37.000Z</time>
      </trkpt>
      <trkpt lat="43.02717" lon="0.54098">
        <ele>559</ele>
        <time>2018-03-18T11:53:39.000Z</time>
      </trkpt>
      <trkpt lat="43.02718" lon="0.54097">
        <ele>560</ele>
        <time>2018-03-18T11:53:41.000Z</time>
      </trkpt>
      <trkpt lat="43.02719" lon="0.54098">
        <ele>560</ele>
        <time>2018-03-18T11:53:43.000Z</time>
      </trkpt>
      <trkpt lat="43.0272" lon="0.54098">
        <ele>560</ele>
        <time>2018-03-18T11:53:45.000Z</time>
      </trkpt>
      <trkpt lat="43.02722" lon="0.54099">
        <ele>560</ele>
        <time>2018-03-18T11:53:47.000Z</time>
      </trkpt>
      <trkpt lat="43.02722" lon="0.54099">
        <ele>559</ele>
        <time>2018-03-18T11:53:49.000Z</time>
      </trkpt>
      <trkpt lat="43.02723" lon="0.54101">
        <ele>559</ele>
        <time>2018-03-18T11:53:51.000Z</time>
      </trkpt>
      <trkpt lat="43.02724" lon="0.54101">
        <ele>559</ele>
        <time>2018-03-18T11:53:53.000Z</time>
      </trkpt>
      <trkpt lat="43.02724" lon="0.54102">
        <ele>559</ele>
        <time>2018-03-18T11:53:55.000Z</time>
      </trkpt>
      <trkpt lat="43.02724" lon="0.54103">
        <ele>559</ele>
        <time>2018-03-18T11:53:57.000Z</time>
      </trkpt>
      <trkpt lat="43.02724" lon="0.54104">
        <ele>558</ele>
        <time>2018-03-18T11:53:59.000Z</time>
      </trkpt>
      <trkpt lat="43.02725" lon="0.54105">
        <ele>558</ele>
        <time>2018-03-18T11:54:01.000Z</time>
      </trkpt>
      <trkpt lat="43.02725" lon="0.54106">
        <ele>558</ele>
        <time>2018-03-18T11:54:03.000Z</time>
      </trkpt>
      <trkpt lat="43.02726" lon="0.54106">
        <ele>558</ele>
        <time>2018-03-18T11:54:05.000Z</time>
      </trkpt>
      <trkpt lat="43.02726" lon="0.54107">
        <ele>558</ele>
        <time>2018-03-18T11:54:07.000Z</time>
      </trkpt>
      <trkpt lat="43.02726" lon="0.54108">
        <ele>557</ele>
        <time>2018-03-18T11:54:09.000Z</time>
      </trkpt>
      <trkpt lat="43.02726" lon="0.54108">
        <ele>557</ele>
        <time>2018-03-18T11:54:11.000Z</time>
      </trkpt>
      <trkpt lat="43.02727" lon="0.54109">
        <ele>557</ele>
        <time>2018-03-18T11:54:13.000Z</time>
      </trkpt>
      <trkpt lat="43.02728" lon="0.54109">
        <ele>557</ele>
        <time>2018-03-18T11:54:15.000Z</time>
      </trkpt>
      <trkpt lat="43.02728" lon="0.54109">
        <ele>557</ele>
        <time>2018-03-18T11:54:17.000Z</time>
      </trkpt>
      <trkpt lat="43.02729" lon="0.54109">
        <ele>557</ele>
        <time>2018-03-18T11:54:19.000Z</time>
      </trkpt>
      <trkpt lat="43.02729" lon="0.5411">
        <ele>557</ele>
        <time>2018-03-18T11:54:21.000Z</time>
      </trkpt>
      <trkpt lat="43.02729" lon="0.54111">
        <ele>557</ele>
        <time>2018-03-18T11:54:23.000Z</time>
      </trkpt>
      <trkpt lat="43.02728" lon="0.54111">
        <ele>557</ele>
        <time>2018-03-18T11:54:25.000Z</time>
      </trkpt>
      <trkpt lat="43.02729" lon="0.54111">
        <ele>557</ele>
        <time>2018-03-18T11:54:27.000Z</time>
      </trkpt>
      <trkpt lat="43.0273" lon="0.54111">
        <ele>557</ele>
        <time>2018-03-18T11:54:29.000Z</time>
      </trkpt>
      <trkpt lat="43.0273" lon="0.54111">
        <ele>557</ele>
        <time>2018-03-18T11:54:31.000Z</time>
      </trkpt>
      <trkpt lat="43.02731" lon="0.54112">
        <ele>557</ele>
        <time>2018-03-18T11:54:33.000Z</time>
      </trkpt>
      <trkpt lat="43.02731" lon="0.54112">
        <ele>557</ele>
        <time>2018-03-18T11:54:35.000Z</time>
      </trkpt>
      <trkpt lat="43.02731" lon="0.54112">
        <ele>557</ele>
        <time>2018-03-18T11:54:37.000Z</time>
      </trkpt>
      <trkpt lat="43.02732" lon="0.54111">
        <ele>557</ele>
        <time>2018-03-18T11:54:39.000Z</time>
      </trkpt>
      <trkpt lat="43.02732" lon="0.54111">
        <ele>557</ele>
        <time>2018-03-18T11:54:41.000Z</time>
      </trkpt>
      <trkpt lat="43.02732" lon="0.54111">
        <ele>557</ele>
        <time>2018-03-18T11:54:43.000Z</time>
      </trkpt>
      <trkpt lat="43.02731" lon="0.54111">
        <ele>557</ele>
        <time>2018-03-18T11:54:45.000Z</time>
      </trkpt>
      <trkpt lat="43.02731" lon="0.5411">
        <ele>557</ele>
        <time>2018-03-18T11:54:47.000Z</time>
      </trkpt>
      <trkpt lat="43.02731" lon="0.5411">
        <ele>557</ele>
        <time>2018-03-18T11:54:49.000Z</time>
      </trkpt>
      <trkpt lat="43.02733" lon="0.54109">
        <ele>558</ele>
        <time>2018-03-18T11:54:51.000Z</time>
      </trkpt>
      <trkpt lat="43.02733" lon="0.54108">
        <ele>558</ele>
        <time>2018-03-18T11:54:53.000Z</time>
      </trkpt>
      <trkpt lat="43.02734" lon="0.54108">
        <ele>558</ele>
        <time>2018-03-18T11:54:55.000Z</time>
      </trkpt>
      <trkpt lat="43.02735" lon="0.54108">
        <ele>558</ele>
        <time>2018-03-18T11:54:57.000Z</time>
      </trkpt>
      <trkpt lat="43.02736" lon="0.54108">
        <ele>559</ele>
        <time>2018-03-18T11:54:59.000Z</time>
      </trkpt>
      <trkpt lat="43.02737" lon="0.54108">
        <ele>559</ele>
        <time>2018-03-18T11:55:01.000Z</time>
      </trkpt>
      <trkpt lat="43.02738" lon="0.54108">
        <ele>559</ele>
        <time>2018-03-18T11:55:03.000Z</time>
      </trkpt>
      <trkpt lat="43.0274" lon="0.54108">
        <ele>559</ele>
        <time>2018-03-18T11:55:05.000Z</time>
      </trkpt>
      <trkpt lat="43.02741" lon="0.54108">
        <ele>559</ele>
        <time>2018-03-18T11:55:07.000Z</time>
      </trkpt>
      <trkpt lat="43.02742" lon="0.54108">
        <ele>560</ele>
        <time>2018-03-18T11:55:09.000Z</time>
      </trkpt>
      <trkpt lat="43.02743" lon="0.54109">
        <ele>560</ele>
        <time>2018-03-18T11:55:11.000Z</time>
      </trkpt>
      <trkpt lat="43.02744" lon="0.54109">
        <ele>560</ele>
        <time>2018-03-18T11:55:13.000Z</time>
      </trkpt>
      <trkpt lat="43.02746" lon="0.54109">
        <ele>560</ele>
        <time>2018-03-18T11:55:15.000Z</time>
      </trkpt>
      <trkpt lat="43.02748" lon="0.54109">
        <ele>560</ele>
        <time>2018-03-18T11:55:17.000Z</time>
      </trkpt>
      <trkpt lat="43.0275" lon="0.54109">
        <ele>561</ele>
        <time>2018-03-18T11:55:19.000Z</time>
      </trkpt>
      <trkpt lat="43.02752" lon="0.54109">
        <ele>561</ele>
        <time>2018-03-18T11:55:21.000Z</time>
      </trkpt>
      <trkpt lat="43.02753" lon="0.54109">
        <ele>561</ele>
        <time>2018-03-18T11:55:23.000Z</time>
      </trkpt>
      <trkpt lat="43.02755" lon="0.54109">
        <ele>562</ele>
        <time>2018-03-18T11:55:25.000Z</time>
      </trkpt>
      <trkpt lat="43.02757" lon="0.54109">
        <ele>562</ele>
        <time>2018-03-18T11:55:27.000Z</time>
      </trkpt>
      <trkpt lat="43.02758" lon="0.54108">
        <ele>562</ele>
        <time>2018-03-18T11:55:29.000Z</time>
      </trkpt>
      <trkpt lat="43.02758" lon="0.54108">
        <ele>562</ele>
        <time>2018-03-18T11:55:31.000Z</time>
      </trkpt>
      <trkpt lat="43.02759" lon="0.54108">
        <ele>563</ele>
        <time>2018-03-18T11:55:33.000Z</time>
      </trkpt>
      <trkpt lat="43.0276" lon="0.54109">
        <ele>562</ele>
        <time>2018-03-18T11:55:35.000Z</time>
      </trkpt>
      <trkpt lat="43.02761" lon="0.54109">
        <ele>563</ele>
        <time>2018-03-18T11:55:37.000Z</time>
      </trkpt>
      <trkpt lat="43.02762" lon="0.54108">
        <ele>563</ele>
        <time>2018-03-18T11:55:39.000Z</time>
      </trkpt>
      <trkpt lat="43.02763" lon="0.54109">
        <ele>563</ele>
        <time>2018-03-18T11:55:41.000Z</time>
      </trkpt>
      <trkpt lat="43.02764" lon="0.54109">
        <ele>563</ele>
        <time>2018-03-18T11:55:43.000Z</time>
      </trkpt>
      <trkpt lat="43.02765" lon="0.54109">
        <ele>563</ele>
        <time>2018-03-18T11:55:45.000Z</time>
      </trkpt>
      <trkpt lat="43.02766" lon="0.54109">
        <ele>563</ele>
        <time>2018-03-18T11:55:47.000Z</time>
      </trkpt>
      <trkpt lat="43.02767" lon="0.54109">
        <ele>563</ele>
        <time>2018-03-18T11:55:49.000Z</time>
      </trkpt>
      <trkpt lat="43.02768" lon="0.54109">
        <ele>564</ele>
        <time>2018-03-18T11:55:51.000Z</time>
      </trkpt>
      <trkpt lat="43.0277" lon="0.54109">
        <ele>564</ele>
        <time>2018-03-18T11:55:53.000Z</time>
      </trkpt>
      <trkpt lat="43.02771" lon="0.54109">
        <ele>564</ele>
        <time>2018-03-18T11:55:55.000Z</time>
      </trkpt>
      <trkpt lat="43.02773" lon="0.5411">
        <ele>564</ele>
        <time>2018-03-18T11:55:57.000Z</time>
      </trkpt>
      <trkpt lat="43.02775" lon="0.54111">
        <ele>564</ele>
        <time>2018-03-18T11:55:59.000Z</time>
      </trkpt>
      <trkpt lat="43.02777" lon="0.54112">
        <ele>564</ele>
        <time>2018-03-18T11:56:01.000Z</time>
      </trkpt>
      <trkpt lat="43.02778" lon="0.54112">
        <ele>564</ele>
        <time>2018-03-18T11:56:03.000Z</time>
      </trkpt>
      <trkpt lat="43.02779" lon="0.54113">
        <ele>564</ele>
        <time>2018-03-18T11:56:05.000Z</time>
      </trkpt>
      <trkpt lat="43.02781" lon="0.54113">
        <ele>564</ele>
        <time>2018-03-18T11:56:07.000Z</time>
      </trkpt>
      <trkpt lat="43.02784" lon="0.54114">
        <ele>564</ele>
        <time>2018-03-18T11:56:09.000Z</time>
      </trkpt>
      <trkpt lat="43.02786" lon="0.54114">
        <ele>564</ele>
        <time>2018-03-18T11:56:11.000Z</time>
      </trkpt>
      <trkpt lat="43.0279" lon="0.54115">
        <ele>564</ele>
        <time>2018-03-18T11:56:13.000Z</time>
      </trkpt>
      <trkpt lat="43.02792" lon="0.54116">
        <ele>564</ele>
        <time>2018-03-18T11:56:15.000Z</time>
      </trkpt>
      <trkpt lat="43.02794" lon="0.54116">
        <ele>564</ele>
        <time>2018-03-18T11:56:17.000Z</time>
      </trkpt>
      <trkpt lat="43.02796" lon="0.54117">
        <ele>564</ele>
        <time>2018-03-18T11:56:19.000Z</time>
      </trkpt>
      <trkpt lat="43.02798" lon="0.54118">
        <ele>564</ele>
        <time>2018-03-18T11:56:21.000Z</time>
      </trkpt>
      <trkpt lat="43.028" lon="0.54119">
        <ele>564</ele>
        <time>2018-03-18T11:56:23.000Z</time>
      </trkpt>
      <trkpt lat="43.02803" lon="0.54119">
        <ele>564</ele>
        <time>2018-03-18T11:56:25.000Z</time>
      </trkpt>
      <trkpt lat="43.02804" lon="0.54119">
        <ele>565</ele>
        <time>2018-03-18T11:56:27.000Z</time>
      </trkpt>
      <trkpt lat="43.02806" lon="0.54119">
        <ele>565</ele>
        <time>2018-03-18T11:56:29.000Z</time>
      </trkpt>
      <trkpt lat="43.02807" lon="0.5412">
        <ele>565</ele>
        <time>2018-03-18T11:56:31.000Z</time>
      </trkpt>
      <trkpt lat="43.02809" lon="0.5412">
        <ele>565</ele>
        <time>2018-03-18T11:56:33.000Z</time>
      </trkpt>
      <trkpt lat="43.02811" lon="0.54121">
        <ele>565</ele>
        <time>2018-03-18T11:56:35.000Z</time>
      </trkpt>
      <trkpt lat="43.02813" lon="0.54121">
        <ele>565</ele>
        <time>2018-03-18T11:56:37.000Z</time>
      </trkpt>
      <trkpt lat="43.02816" lon="0.54123">
        <ele>565</ele>
        <time>2018-03-18T11:56:39.000Z</time>
      </trkpt>
      <trkpt lat="43.02818" lon="0.54124">
        <ele>565</ele>
        <time>2018-03-18T11:56:41.000Z</time>
      </trkpt>
      <trkpt lat="43.02819" lon="0.54124">
        <ele>565</ele>
        <time>2018-03-18T11:56:43.000Z</time>
      </trkpt>
      <trkpt lat="43.0282" lon="0.54125">
        <ele>564</ele>
        <time>2018-03-18T11:56:45.000Z</time>
      </trkpt>
      <trkpt lat="43.02822" lon="0.54126">
        <ele>564</ele>
        <time>2018-03-18T11:56:47.000Z</time>
      </trkpt>
      <trkpt lat="43.02823" lon="0.54126">
        <ele>564</ele>
        <time>2018-03-18T11:56:49.000Z</time>
      </trkpt>
      <trkpt lat="43.02825" lon="0.54127">
        <ele>564</ele>
        <time>2018-03-18T11:56:51.000Z</time>
      </trkpt>
      <trkpt lat="43.02827" lon="0.54128">
        <ele>564</ele>
        <time>2018-03-18T11:56:53.000Z</time>
      </trkpt>
      <trkpt lat="43.02828" lon="0.54128">
        <ele>564</ele>
        <time>2018-03-18T11:56:55.000Z</time>
      </trkpt>
      <trkpt lat="43.02829" lon="0.54128">
        <ele>564</ele>
        <time>2018-03-18T11:56:57.000Z</time>
      </trkpt>
      <trkpt lat="43.02829" lon="0.54128">
        <ele>565</ele>
        <time>2018-03-18T11:56:59.000Z</time>
      </trkpt>
      <trkpt lat="43.02831" lon="0.54128">
        <ele>565</ele>
        <time>2018-03-18T11:57:01.000Z</time>
      </trkpt>
      <trkpt lat="43.02833" lon="0.54129">
        <ele>565</ele>
        <time>2018-03-18T11:57:03.000Z</time>
      </trkpt>
      <trkpt lat="43.02835" lon="0.5413">
        <ele>565</ele>
        <time>2018-03-18T11:57:05.000Z</time>
      </trkpt>
      <trkpt lat="43.02837" lon="0.5413">
        <ele>565</ele>
        <time>2018-03-18T11:57:07.000Z</time>
      </trkpt>
      <trkpt lat="43.02838" lon="0.54131">
        <ele>565</ele>
        <time>2018-03-18T11:57:09.000Z</time>
      </trkpt>
      <trkpt lat="43.02839" lon="0.54132">
        <ele>564</ele>
        <time>2018-03-18T11:57:11.000Z</time>
      </trkpt>
      <trkpt lat="43.02841" lon="0.54133">
        <ele>564</ele>
        <time>2018-03-18T11:57:13.000Z</time>
      </trkpt>
      <trkpt lat="43.02843" lon="0.54134">
        <ele>564</ele>
        <time>2018-03-18T11:57:15.000Z</time>
      </trkpt>
      <trkpt lat="43.02844" lon="0.54135">
        <ele>564</ele>
        <time>2018-03-18T11:57:17.000Z</time>
      </trkpt>
      <trkpt lat="43.02845" lon="0.54137">
        <ele>564</ele>
        <time>2018-03-18T11:57:19.000Z</time>
      </trkpt>
      <trkpt lat="43.02848" lon="0.54137">
        <ele>564</ele>
        <time>2018-03-18T11:57:21.000Z</time>
      </trkpt>
      <trkpt lat="43.02849" lon="0.54137">
        <ele>564</ele>
        <time>2018-03-18T11:57:23.000Z</time>
      </trkpt>
      <trkpt lat="43.02851" lon="0.54138">
        <ele>564</ele>
        <time>2018-03-18T11:57:25.000Z</time>
      </trkpt>
      <trkpt lat="43.02853" lon="0.54138">
        <ele>564</ele>
        <time>2018-03-18T11:57:27.000Z</time>
      </trkpt>
      <trkpt lat="43.02855" lon="0.54139">
        <ele>564</ele>
        <time>2018-03-18T11:57:29.000Z</time>
      </trkpt>
      <trkpt lat="43.02858" lon="0.5414">
        <ele>564</ele>
        <time>2018-03-18T11:57:31.000Z</time>
      </trkpt>
      <trkpt lat="43.0286" lon="0.54141">
        <ele>564</ele>
        <time>2018-03-18T11:57:33.000Z</time>
      </trkpt>
      <trkpt lat="43.02863" lon="0.54143">
        <ele>564</ele>
        <time>2018-03-18T11:57:35.000Z</time>
      </trkpt>
      <trkpt lat="43.02865" lon="0.54144">
        <ele>564</ele>
        <time>2018-03-18T11:57:37.000Z</time>
      </trkpt>
      <trkpt lat="43.02866" lon="0.54145">
        <ele>564</ele>
        <time>2018-03-18T11:57:39.000Z</time>
      </trkpt>
      <trkpt lat="43.02868" lon="0.54146">
        <ele>564</ele>
        <time>2018-03-18T11:57:41.000Z</time>
      </trkpt>
      <trkpt lat="43.0287" lon="0.54148">
        <ele>563</ele>
        <time>2018-03-18T11:57:43.000Z</time>
      </trkpt>
      <trkpt lat="43.02872" lon="0.54149">
        <ele>563</ele>
        <time>2018-03-18T11:57:45.000Z</time>
      </trkpt>
      <trkpt lat="43.02874" lon="0.5415">
        <ele>563</ele>
        <time>2018-03-18T11:57:47.000Z</time>
      </trkpt>
      <trkpt lat="43.02877" lon="0.54152">
        <ele>563</ele>
        <time>2018-03-18T11:57:49.000Z</time>
      </trkpt>
      <trkpt lat="43.02879" lon="0.54154">
        <ele>563</ele>
        <time>2018-03-18T11:57:51.000Z</time>
      </trkpt>
      <trkpt lat="43.02881" lon="0.54156">
        <ele>563</ele>
        <time>2018-03-18T11:57:53.000Z</time>
      </trkpt>
      <trkpt lat="43.02883" lon="0.54157">
        <ele>563</ele>
        <time>2018-03-18T11:57:55.000Z</time>
      </trkpt>
      <trkpt lat="43.02885" lon="0.54158">
        <ele>562</ele>
        <time>2018-03-18T11:57:57.000Z</time>
      </trkpt>
      <trkpt lat="43.02886" lon="0.54159">
        <ele>562</ele>
        <time>2018-03-18T11:57:59.000Z</time>
      </trkpt>
      <trkpt lat="43.02887" lon="0.54161">
        <ele>562</ele>
        <time>2018-03-18T11:58:01.000Z</time>
      </trkpt>
      <trkpt lat="43.02889" lon="0.54162">
        <ele>562</ele>
        <time>2018-03-18T11:58:03.000Z</time>
      </trkpt>
      <trkpt lat="43.0289" lon="0.54163">
        <ele>562</ele>
        <time>2018-03-18T11:58:05.000Z</time>
      </trkpt>
      <trkpt lat="43.02892" lon="0.54163">
        <ele>562</ele>
        <time>2018-03-18T11:58:07.000Z</time>
      </trkpt>
      <trkpt lat="43.02894" lon="0.54165">
        <ele>562</ele>
        <time>2018-03-18T11:58:09.000Z</time>
      </trkpt>
      <trkpt lat="43.02896" lon="0.54165">
        <ele>562</ele>
        <time>2018-03-18T11:58:11.000Z</time>
      </trkpt>
      <trkpt lat="43.02898" lon="0.54166">
        <ele>562</ele>
        <time>2018-03-18T11:58:13.000Z</time>
      </trkpt>
      <trkpt lat="43.029" lon="0.54166">
        <ele>562</ele>
        <time>2018-03-18T11:58:15.000Z</time>
      </trkpt>
      <trkpt lat="43.02901" lon="0.54167">
        <ele>562</ele>
        <time>2018-03-18T11:58:17.000Z</time>
      </trkpt>
      <trkpt lat="43.02902" lon="0.54169">
        <ele>561</ele>
        <time>2018-03-18T11:58:19.000Z</time>
      </trkpt>
      <trkpt lat="43.02904" lon="0.5417">
        <ele>561</ele>
        <time>2018-03-18T11:58:21.000Z</time>
      </trkpt>
      <trkpt lat="43.02905" lon="0.54171">
        <ele>561</ele>
        <time>2018-03-18T11:58:23.000Z</time>
      </trkpt>
      <trkpt lat="43.02904" lon="0.54171">
        <ele>561</ele>
        <time>2018-03-18T11:58:25.000Z</time>
      </trkpt>
      <trkpt lat="43.02905" lon="0.54172">
        <ele>561</ele>
        <time>2018-03-18T11:58:27.000Z</time>
      </trkpt>
      <trkpt lat="43.02906" lon="0.54172">
        <ele>561</ele>
        <time>2018-03-18T11:58:29.000Z</time>
      </trkpt>
      <trkpt lat="43.02906" lon="0.54173">
        <ele>561</ele>
        <time>2018-03-18T11:58:31.000Z</time>
      </trkpt>
      <trkpt lat="43.02908" lon="0.54173">
        <ele>561</ele>
        <time>2018-03-18T11:58:33.000Z</time>
      </trkpt>
      <trkpt lat="43.02908" lon="0.54173">
        <ele>561</ele>
        <time>2018-03-18T11:58:35.000Z</time>
      </trkpt>
      <trkpt lat="43.02908" lon="0.54172">
        <ele>561</ele>
        <time>2018-03-18T11:58:37.000Z</time>
      </trkpt>
      <trkpt lat="43.02908" lon="0.54172">
        <ele>561</ele>
        <time>2018-03-18T11:58:39.000Z</time>
      </trkpt>
      <trkpt lat="43.02909" lon="0.54172">
        <ele>562</ele>
        <time>2018-03-18T11:58:41.000Z</time>
      </trkpt>
      <trkpt lat="43.02908" lon="0.5417">
        <ele>562</ele>
        <time>2018-03-18T11:58:43.000Z</time>
      </trkpt>
      <trkpt lat="43.02909" lon="0.5417">
        <ele>562</ele>
        <time>2018-03-18T11:58:45.000Z</time>
      </trkpt>
      <trkpt lat="43.02908" lon="0.5417">
        <ele>562</ele>
        <time>2018-03-18T11:58:47.000Z</time>
      </trkpt>
      <trkpt lat="43.02909" lon="0.54169">
        <ele>562</ele>
        <time>2018-03-18T11:58:49.000Z</time>
      </trkpt>
      <trkpt lat="43.02909" lon="0.54169">
        <ele>562</ele>
        <time>2018-03-18T11:58:51.000Z</time>
      </trkpt>
      <trkpt lat="43.02911" lon="0.54168">
        <ele>563</ele>
        <time>2018-03-18T11:58:53.000Z</time>
      </trkpt>
      <trkpt lat="43.02911" lon="0.54167">
        <ele>563</ele>
        <time>2018-03-18T11:58:55.000Z</time>
      </trkpt>
      <trkpt lat="43.02912" lon="0.54167">
        <ele>563</ele>
        <time>2018-03-18T11:58:57.000Z</time>
      </trkpt>
      <trkpt lat="43.02911" lon="0.54167">
        <ele>563</ele>
        <time>2018-03-18T11:58:59.000Z</time>
      </trkpt>
      <trkpt lat="43.02911" lon="0.54167">
        <ele>563</ele>
        <time>2018-03-18T11:59:01.000Z</time>
      </trkpt>
      <trkpt lat="43.02912" lon="0.54166">
        <ele>564</ele>
        <time>2018-03-18T11:59:03.000Z</time>
      </trkpt>
      <trkpt lat="43.02911" lon="0.54166">
        <ele>564</ele>
        <time>2018-03-18T11:59:05.000Z</time>
      </trkpt>
      <trkpt lat="43.02911" lon="0.54167">
        <ele>563</ele>
        <time>2018-03-18T11:59:07.000Z</time>
      </trkpt>
      <trkpt lat="43.02911" lon="0.54167">
        <ele>563</ele>
        <time>2018-03-18T11:59:09.000Z</time>
      </trkpt>
      <trkpt lat="43.02911" lon="0.54167">
        <ele>563</ele>
        <time>2018-03-18T11:59:11.000Z</time>
      </trkpt>
      <trkpt lat="43.02911" lon="0.54167">
        <ele>563</ele>
        <time>2018-03-18T11:59:13.000Z</time>
      </trkpt>
      <trkpt lat="43.02911" lon="0.54168">
        <ele>563</ele>
        <time>2018-03-18T11:59:15.000Z</time>
      </trkpt>
      <trkpt lat="43.02912" lon="0.54168">
        <ele>563</ele>
        <time>2018-03-18T11:59:17.000Z</time>
      </trkpt>
      <trkpt lat="43.02913" lon="0.54168">
        <ele>563</ele>
        <time>2018-03-18T11:59:19.000Z</time>
      </trkpt>
      <trkpt lat="43.02913" lon="0.54169">
        <ele>563</ele>
        <time>2018-03-18T11:59:21.000Z</time>
      </trkpt>
      <trkpt lat="43.02913" lon="0.54169">
        <ele>563</ele>
        <time>2018-03-18T11:59:23.000Z</time>
      </trkpt>
      <trkpt lat="43.02912" lon="0.54171">
        <ele>562</ele>
        <time>2018-03-18T11:59:25.000Z</time>
      </trkpt>
      <trkpt lat="43.02913" lon="0.54171">
        <ele>562</ele>
        <time>2018-03-18T11:59:27.000Z</time>
      </trkpt>
      <trkpt lat="43.02913" lon="0.54173">
        <ele>562</ele>
        <time>2018-03-18T11:59:29.000Z</time>
      </trkpt>
      <trkpt lat="43.02912" lon="0.54175">
        <ele>561</ele>
        <time>2018-03-18T11:59:31.000Z</time>
      </trkpt>
      <trkpt lat="43.02912" lon="0.54176">
        <ele>561</ele>
        <time>2018-03-18T11:59:33.000Z</time>
      </trkpt>
      <trkpt lat="43.02912" lon="0.54177">
        <ele>560</ele>
        <time>2018-03-18T11:59:35.000Z</time>
      </trkpt>
      <trkpt lat="43.02911" lon="0.54177">
        <ele>560</ele>
        <time>2018-03-18T11:59:37.000Z</time>
      </trkpt>
      <trkpt lat="43.0291" lon="0.54178">
        <ele>560</ele>
        <time>2018-03-18T11:59:39.000Z</time>
      </trkpt>
      <trkpt lat="43.0291" lon="0.54178">
        <ele>560</ele>
        <time>2018-03-18T11:59:41.000Z</time>
      </trkpt>
      <trkpt lat="43.02909" lon="0.54179">
        <ele>559</ele>
        <time>2018-03-18T11:59:43.000Z</time>
      </trkpt>
      <trkpt lat="43.0291" lon="0.54179">
        <ele>559</ele>
        <time>2018-03-18T11:59:45.000Z</time>
      </trkpt>
      <trkpt lat="43.02911" lon="0.54179">
        <ele>559</ele>
        <time>2018-03-18T11:59:47.000Z</time>
      </trkpt>
      <trkpt lat="43.02911" lon="0.54179">
        <ele>560</ele>
        <time>2018-03-18T11:59:49.000Z</time>
      </trkpt>
      <trkpt lat="43.02912" lon="0.54178">
        <ele>560</ele>
        <time>2018-03-18T11:59:51.000Z</time>
      </trkpt>
      <trkpt lat="43.02911" lon="0.54178">
        <ele>560</ele>
        <time>2018-03-18T11:59:53.000Z</time>
      </trkpt>
      <trkpt lat="43.02911" lon="0.54179">
        <ele>560</ele>
        <time>2018-03-18T11:59:55.000Z</time>
      </trkpt>
      <trkpt lat="43.02911" lon="0.54179">
        <ele>560</ele>
        <time>2018-03-18T11:59:57.000Z</time>
      </trkpt>
      <trkpt lat="43.02912" lon="0.54178">
        <ele>560</ele>
        <time>2018-03-18T11:59:59.000Z</time>
      </trkpt>
      <trkpt lat="43.02911" lon="0.5418">
        <ele>559</ele>
        <time>2018-03-18T12:00:01.000Z</time>
      </trkpt>
      <trkpt lat="43.0291" lon="0.54181">
        <ele>559</ele>
        <time>2018-03-18T12:00:03.000Z</time>
      </trkpt>
      <trkpt lat="43.0291" lon="0.54181">
        <ele>559</ele>
        <time>2018-03-18T12:00:05.000Z</time>
      </trkpt>
      <trkpt lat="43.02909" lon="0.54183">
        <ele>558</ele>
        <time>2018-03-18T12:00:07.000Z</time>
      </trkpt>
      <trkpt lat="43.02909" lon="0.54183">
        <ele>558</ele>
        <time>2018-03-18T12:00:09.000Z</time>
      </trkpt>
      <trkpt lat="43.02908" lon="0.54183">
        <ele>558</ele>
        <time>2018-03-18T12:00:11.000Z</time>
      </trkpt>
      <trkpt lat="43.02907" lon="0.54184">
        <ele>558</ele>
        <time>2018-03-18T12:00:13.000Z</time>
      </trkpt>
      <trkpt lat="43.02907" lon="0.54183">
        <ele>558</ele>
        <time>2018-03-18T12:00:15.000Z</time>
      </trkpt>
      <trkpt lat="43.02907" lon="0.54184">
        <ele>558</ele>
        <time>2018-03-18T12:00:17.000Z</time>
      </trkpt>
      <trkpt lat="43.02907" lon="0.54184">
        <ele>558</ele>
        <time>2018-03-18T12:00:19.000Z</time>
      </trkpt>
      <trkpt lat="43.02906" lon="0.54184">
        <ele>557</ele>
        <time>2018-03-18T12:00:21.000Z</time>
      </trkpt>
      <trkpt lat="43.02906" lon="0.54185">
        <ele>557</ele>
        <time>2018-03-18T12:00:23.000Z</time>
      </trkpt>
      <trkpt lat="43.02906" lon="0.54186">
        <ele>557</ele>
        <time>2018-03-18T12:00:25.000Z</time>
      </trkpt>
      <trkpt lat="43.02907" lon="0.54186">
        <ele>557</ele>
        <time>2018-03-18T12:00:27.000Z</time>
      </trkpt>
      <trkpt lat="43.02907" lon="0.54186">
        <ele>557</ele>
        <time>2018-03-18T12:00:29.000Z</time>
      </trkpt>
      <trkpt lat="43.02908" lon="0.54185">
        <ele>557</ele>
        <time>2018-03-18T12:00:31.000Z</time>
      </trkpt>
      <trkpt lat="43.0291" lon="0.54184">
        <ele>558</ele>
        <time>2018-03-18T12:00:33.000Z</time>
      </trkpt>
      <trkpt lat="43.02911" lon="0.54182">
        <ele>559</ele>
        <time>2018-03-18T12:00:35.000Z</time>
      </trkpt>
      <trkpt lat="43.02913" lon="0.54181">
        <ele>559</ele>
        <time>2018-03-18T12:00:37.000Z</time>
      </trkpt>
      <trkpt lat="43.02914" lon="0.54181">
        <ele>560</ele>
        <time>2018-03-18T12:00:39.000Z</time>
      </trkpt>
      <trkpt lat="43.02916" lon="0.5418">
        <ele>560</ele>
        <time>2018-03-18T12:00:41.000Z</time>
      </trkpt>
      <trkpt lat="43.02918" lon="0.5418">
        <ele>560</ele>
        <time>2018-03-18T12:00:43.000Z</time>
      </trkpt>
      <trkpt lat="43.02921" lon="0.54178">
        <ele>561</ele>
        <time>2018-03-18T12:00:45.000Z</time>
      </trkpt>
      <trkpt lat="43.02922" lon="0.54178">
        <ele>562</ele>
        <time>2018-03-18T12:00:47.000Z</time>
      </trkpt>
      <trkpt lat="43.02924" lon="0.54177">
        <ele>562</ele>
        <time>2018-03-18T12:00:49.000Z</time>
      </trkpt>
      <trkpt lat="43.02925" lon="0.54177">
        <ele>562</ele>
        <time>2018-03-18T12:00:51.000Z</time>
      </trkpt>
      <trkpt lat="43.02927" lon="0.54177">
        <ele>562</ele>
        <time>2018-03-18T12:00:53.000Z</time>
      </trkpt>
      <trkpt lat="43.02928" lon="0.54176">
        <ele>562</ele>
        <time>2018-03-18T12:00:55.000Z</time>
      </trkpt>
      <trkpt lat="43.0293" lon="0.54176">
        <ele>562</ele>
        <time>2018-03-18T12:00:57.000Z</time>
      </trkpt>
      <trkpt lat="43.02931" lon="0.54175">
        <ele>562</ele>
        <time>2018-03-18T12:00:59.000Z</time>
      </trkpt>
      <trkpt lat="43.02933" lon="0.54176">
        <ele>562</ele>
        <time>2018-03-18T12:01:01.000Z</time>
      </trkpt>
      <trkpt lat="43.02935" lon="0.54175">
        <ele>562</ele>
        <time>2018-03-18T12:01:03.000Z</time>
      </trkpt>
      <trkpt lat="43.02936" lon="0.54175">
        <ele>562</ele>
        <time>2018-03-18T12:01:05.000Z</time>
      </trkpt>
      <trkpt lat="43.02938" lon="0.54174">
        <ele>562</ele>
        <time>2018-03-18T12:01:07.000Z</time>
      </trkpt>
      <trkpt lat="43.0294" lon="0.54172">
        <ele>563</ele>
        <time>2018-03-18T12:01:09.000Z</time>
      </trkpt>
      <trkpt lat="43.02942" lon="0.54171">
        <ele>563</ele>
        <time>2018-03-18T12:01:11.000Z</time>
      </trkpt>
      <trkpt lat="43.02944" lon="0.5417">
        <ele>563</ele>
        <time>2018-03-18T12:01:13.000Z</time>
      </trkpt>
      <trkpt lat="43.02945" lon="0.54169">
        <ele>563</ele>
        <time>2018-03-18T12:01:15.000Z</time>
      </trkpt>
      <trkpt lat="43.02948" lon="0.54169">
        <ele>563</ele>
        <time>2018-03-18T12:01:17.000Z</time>
      </trkpt>
      <trkpt lat="43.0295" lon="0.54168">
        <ele>563</ele>
        <time>2018-03-18T12:01:19.000Z</time>
      </trkpt>
      <trkpt lat="43.02952" lon="0.54168">
        <ele>563</ele>
        <time>2018-03-18T12:01:21.000Z</time>
      </trkpt>
      <trkpt lat="43.02955" lon="0.54167">
        <ele>563</ele>
        <time>2018-03-18T12:01:23.000Z</time>
      </trkpt>
      <trkpt lat="43.02958" lon="0.54166">
        <ele>564</ele>
        <time>2018-03-18T12:01:25.000Z</time>
      </trkpt>
      <trkpt lat="43.0296" lon="0.54165">
        <ele>564</ele>
        <time>2018-03-18T12:01:27.000Z</time>
      </trkpt>
      <trkpt lat="43.02962" lon="0.54164">
        <ele>564</ele>
        <time>2018-03-18T12:01:29.000Z</time>
      </trkpt>
      <trkpt lat="43.02964" lon="0.54164">
        <ele>564</ele>
        <time>2018-03-18T12:01:31.000Z</time>
      </trkpt>
      <trkpt lat="43.02966" lon="0.54162">
        <ele>565</ele>
        <time>2018-03-18T12:01:33.000Z</time>
      </trkpt>
      <trkpt lat="43.02968" lon="0.54161">
        <ele>565</ele>
        <time>2018-03-18T12:01:35.000Z</time>
      </trkpt>
      <trkpt lat="43.0297" lon="0.5416">
        <ele>566</ele>
        <time>2018-03-18T12:01:37.000Z</time>
      </trkpt>
      <trkpt lat="43.02971" lon="0.54158">
        <ele>566</ele>
        <time>2018-03-18T12:01:39.000Z</time>
      </trkpt>
      <trkpt lat="43.02973" lon="0.54158">
        <ele>566</ele>
        <time>2018-03-18T12:01:41.000Z</time>
      </trkpt>
      <trkpt lat="43.02975" lon="0.54157">
        <ele>567</ele>
        <time>2018-03-18T12:01:43.000Z</time>
      </trkpt>
      <trkpt lat="43.02976" lon="0.54157">
        <ele>567</ele>
        <time>2018-03-18T12:01:45.000Z</time>
      </trkpt>
      <trkpt lat="43.02979" lon="0.54157">
        <ele>567</ele>
        <time>2018-03-18T12:01:47.000Z</time>
      </trkpt>
      <trkpt lat="43.02981" lon="0.54157">
        <ele>567</ele>
        <time>2018-03-18T12:01:49.000Z</time>
      </trkpt>
      <trkpt lat="43.02983" lon="0.54158">
        <ele>566</ele>
        <time>2018-03-18T12:01:51.000Z</time>
      </trkpt>
      <trkpt lat="43.02986" lon="0.54159">
        <ele>566</ele>
        <time>2018-03-18T12:01:53.000Z</time>
      </trkpt>
      <trkpt lat="43.02988" lon="0.54159">
        <ele>566</ele>
        <time>2018-03-18T12:01:55.000Z</time>
      </trkpt>
      <trkpt lat="43.0299" lon="0.5416">
        <ele>566</ele>
        <time>2018-03-18T12:01:57.000Z</time>
      </trkpt>
      <trkpt lat="43.02992" lon="0.5416">
        <ele>566</ele>
        <time>2018-03-18T12:01:59.000Z</time>
      </trkpt>
      <trkpt lat="43.02994" lon="0.54161">
        <ele>565</ele>
        <time>2018-03-18T12:02:01.000Z</time>
      </trkpt>
      <trkpt lat="43.02998" lon="0.54161">
        <ele>565</ele>
        <time>2018-03-18T12:02:03.000Z</time>
      </trkpt>
      <trkpt lat="43.02999" lon="0.54162">
        <ele>565</ele>
        <time>2018-03-18T12:02:05.000Z</time>
      </trkpt>
      <trkpt lat="43.03" lon="0.54161">
        <ele>565</ele>
        <time>2018-03-18T12:02:07.000Z</time>
      </trkpt>
      <trkpt lat="43.03003" lon="0.54161">
        <ele>565</ele>
        <time>2018-03-18T12:02:09.000Z</time>
      </trkpt>
      <trkpt lat="43.03005" lon="0.54161">
        <ele>565</ele>
        <time>2018-03-18T12:02:11.000Z</time>
      </trkpt>
      <trkpt lat="43.03008" lon="0.54162">
        <ele>565</ele>
        <time>2018-03-18T12:02:13.000Z</time>
      </trkpt>
      <trkpt lat="43.03011" lon="0.54163">
        <ele>565</ele>
        <time>2018-03-18T12:02:15.000Z</time>
      </trkpt>
      <trkpt lat="43.03013" lon="0.54163">
        <ele>564</ele>
        <time>2018-03-18T12:02:17.000Z</time>
      </trkpt>
      <trkpt lat="43.03016" lon="0.54163">
        <ele>564</ele>
        <time>2018-03-18T12:02:19.000Z</time>
      </trkpt>
      <trkpt lat="43.03017" lon="0.54163">
        <ele>564</ele>
        <time>2018-03-18T12:02:21.000Z</time>
      </trkpt>
      <trkpt lat="43.03019" lon="0.54162">
        <ele>564</ele>
        <time>2018-03-18T12:02:23.000Z</time>
      </trkpt>
      <trkpt lat="43.03021" lon="0.54162">
        <ele>564</ele>
        <time>2018-03-18T12:02:25.000Z</time>
      </trkpt>
      <trkpt lat="43.03022" lon="0.54162">
        <ele>564</ele>
        <time>2018-03-18T12:02:27.000Z</time>
      </trkpt>
      <trkpt lat="43.03024" lon="0.54162">
        <ele>564</ele>
        <time>2018-03-18T12:02:29.000Z</time>
      </trkpt>
      <trkpt lat="43.03027" lon="0.54162">
        <ele>564</ele>
        <time>2018-03-18T12:02:31.000Z</time>
      </trkpt>
      <trkpt lat="43.03029" lon="0.54163">
        <ele>564</ele>
        <time>2018-03-18T12:02:33.000Z</time>
      </trkpt>
      <trkpt lat="43.03031" lon="0.54162">
        <ele>564</ele>
        <time>2018-03-18T12:02:35.000Z</time>
      </trkpt>
      <trkpt lat="43.03034" lon="0.54162">
        <ele>563</ele>
        <time>2018-03-18T12:02:37.000Z</time>
      </trkpt>
      <trkpt lat="43.03036" lon="0.54161">
        <ele>564</ele>
        <time>2018-03-18T12:02:39.000Z</time>
      </trkpt>
      <trkpt lat="43.03038" lon="0.54161">
        <ele>564</ele>
        <time>2018-03-18T12:02:41.000Z</time>
      </trkpt>
      <trkpt lat="43.0304" lon="0.5416">
        <ele>564</ele>
        <time>2018-03-18T12:02:43.000Z</time>
      </trkpt>
      <trkpt lat="43.03041" lon="0.54159">
        <ele>564</ele>
        <time>2018-03-18T12:02:45.000Z</time>
      </trkpt>
      <trkpt lat="43.03043" lon="0.54159">
        <ele>564</ele>
        <time>2018-03-18T12:02:47.000Z</time>
      </trkpt>
      <trkpt lat="43.03044" lon="0.54159">
        <ele>564</ele>
        <time>2018-03-18T12:02:49.000Z</time>
      </trkpt>
      <trkpt lat="43.03047" lon="0.54158">
        <ele>564</ele>
        <time>2018-03-18T12:02:51.000Z</time>
      </trkpt>
      <trkpt lat="43.0305" lon="0.54158">
        <ele>564</ele>
        <time>2018-03-18T12:02:53.000Z</time>
      </trkpt>
      <trkpt lat="43.03053" lon="0.54158">
        <ele>564</ele>
        <time>2018-03-18T12:02:55.000Z</time>
      </trkpt>
      <trkpt lat="43.03055" lon="0.54158">
        <ele>564</ele>
        <time>2018-03-18T12:02:57.000Z</time>
      </trkpt>
      <trkpt lat="43.03057" lon="0.54157">
        <ele>564</ele>
        <time>2018-03-18T12:02:59.000Z</time>
      </trkpt>
      <trkpt lat="43.0306" lon="0.54156">
        <ele>565</ele>
        <time>2018-03-18T12:03:01.000Z</time>
      </trkpt>
      <trkpt lat="43.03063" lon="0.54156">
        <ele>565</ele>
        <time>2018-03-18T12:03:03.000Z</time>
      </trkpt>
      <trkpt lat="43.03065" lon="0.54155">
        <ele>565</ele>
        <time>2018-03-18T12:03:05.000Z</time>
      </trkpt>
      <trkpt lat="43.03067" lon="0.54155">
        <ele>565</ele>
        <time>2018-03-18T12:03:07.000Z</time>
      </trkpt>
      <trkpt lat="43.0307" lon="0.54155">
        <ele>565</ele>
        <time>2018-03-18T12:03:09.000Z</time>
      </trkpt>
      <trkpt lat="43.03073" lon="0.54154">
        <ele>565</ele>
        <time>2018-03-18T12:03:11.000Z</time>
      </trkpt>
      <trkpt lat="43.03075" lon="0.54154">
        <ele>565</ele>
        <time>2018-03-18T12:03:13.000Z</time>
      </trkpt>
      <trkpt lat="43.03077" lon="0.54153">
        <ele>565</ele>
        <time>2018-03-18T12:03:15.000Z</time>
      </trkpt>
      <trkpt lat="43.0308" lon="0.54152">
        <ele>565</ele>
        <time>2018-03-18T12:03:17.000Z</time>
      </trkpt>
      <trkpt lat="43.03083" lon="0.54152">
        <ele>566</ele>
        <time>2018-03-18T12:03:19.000Z</time>
      </trkpt>
      <trkpt lat="43.03085" lon="0.54151">
        <ele>566</ele>
        <time>2018-03-18T12:03:21.000Z</time>
      </trkpt>
      <trkpt lat="43.03088" lon="0.5415">
        <ele>566</ele>
        <time>2018-03-18T12:03:23.000Z</time>
      </trkpt>
      <trkpt lat="43.0309" lon="0.54149">
        <ele>566</ele>
        <time>2018-03-18T12:03:25.000Z</time>
      </trkpt>
      <trkpt lat="43.03092" lon="0.54148">
        <ele>567</ele>
        <time>2018-03-18T12:03:27.000Z</time>
      </trkpt>
      <trkpt lat="43.03093" lon="0.54148">
        <ele>567</ele>
        <time>2018-03-18T12:03:29.000Z</time>
      </trkpt>
      <trkpt lat="43.03094" lon="0.54146">
        <ele>567</ele>
        <time>2018-03-18T12:03:31.000Z</time>
      </trkpt>
      <trkpt lat="43.03096" lon="0.54145">
        <ele>568</ele>
        <time>2018-03-18T12:03:33.000Z</time>
      </trkpt>
      <trkpt lat="43.03097" lon="0.54145">
        <ele>568</ele>
        <time>2018-03-18T12:03:35.000Z</time>
      </trkpt>
      <trkpt lat="43.03098" lon="0.54145">
        <ele>568</ele>
        <time>2018-03-18T12:03:37.000Z</time>
      </trkpt>
      <trkpt lat="43.031" lon="0.54145">
        <ele>568</ele>
        <time>2018-03-18T12:03:39.000Z</time>
      </trkpt>
      <trkpt lat="43.03102" lon="0.54144">
        <ele>568</ele>
        <time>2018-03-18T12:03:41.000Z</time>
      </trkpt>
      <trkpt lat="43.03104" lon="0.54143">
        <ele>568</ele>
        <time>2018-03-18T12:03:43.000Z</time>
      </trkpt>
      <trkpt lat="43.03106" lon="0.54142">
        <ele>568</ele>
        <time>2018-03-18T12:03:45.000Z</time>
      </trkpt>
      <trkpt lat="43.03107" lon="0.54141">
        <ele>569</ele>
        <time>2018-03-18T12:03:47.000Z</time>
      </trkpt>
      <trkpt lat="43.0311" lon="0.54141">
        <ele>568</ele>
        <time>2018-03-18T12:03:49.000Z</time>
      </trkpt>
      <trkpt lat="43.03113" lon="0.5414">
        <ele>568</ele>
        <time>2018-03-18T12:03:51.000Z</time>
      </trkpt>
      <trkpt lat="43.03116" lon="0.54138">
        <ele>568</ele>
        <time>2018-03-18T12:03:53.000Z</time>
      </trkpt>
      <trkpt lat="43.03118" lon="0.54137">
        <ele>569</ele>
        <time>2018-03-18T12:03:55.000Z</time>
      </trkpt>
      <trkpt lat="43.03119" lon="0.54137">
        <ele>569</ele>
        <time>2018-03-18T12:03:57.000Z</time>
      </trkpt>
      <trkpt lat="43.03122" lon="0.54136">
        <ele>569</ele>
        <time>2018-03-18T12:03:59.000Z</time>
      </trkpt>
      <trkpt lat="43.03124" lon="0.54136">
        <ele>568</ele>
        <time>2018-03-18T12:04:01.000Z</time>
      </trkpt>
      <trkpt lat="43.03128" lon="0.54135">
        <ele>568</ele>
        <time>2018-03-18T12:04:03.000Z</time>
      </trkpt>
      <trkpt lat="43.03131" lon="0.54135">
        <ele>568</ele>
        <time>2018-03-18T12:04:05.000Z</time>
      </trkpt>
      <trkpt lat="43.03133" lon="0.54135">
        <ele>568</ele>
        <time>2018-03-18T12:04:07.000Z</time>
      </trkpt>
      <trkpt lat="43.03135" lon="0.54133">
        <ele>568</ele>
        <time>2018-03-18T12:04:09.000Z</time>
      </trkpt>
      <trkpt lat="43.03136" lon="0.54132">
        <ele>568</ele>
        <time>2018-03-18T12:04:11.000Z</time>
      </trkpt>
      <trkpt lat="43.03138" lon="0.54132">
        <ele>569</ele>
        <time>2018-03-18T12:04:13.000Z</time>
      </trkpt>
      <trkpt lat="43.03139" lon="0.54131">
        <ele>569</ele>
        <time>2018-03-18T12:04:15.000Z</time>
      </trkpt>
      <trkpt lat="43.0314" lon="0.54131">
        <ele>569</ele>
        <time>2018-03-18T12:04:17.000Z</time>
      </trkpt>
      <trkpt lat="43.03143" lon="0.5413">
        <ele>569</ele>
        <time>2018-03-18T12:04:19.000Z</time>
      </trkpt>
      <trkpt lat="43.03145" lon="0.5413">
        <ele>568</ele>
        <time>2018-03-18T12:04:21.000Z</time>
      </trkpt>
      <trkpt lat="43.03146" lon="0.5413">
        <ele>568</ele>
        <time>2018-03-18T12:04:23.000Z</time>
      </trkpt>
      <trkpt lat="43.03149" lon="0.54131">
        <ele>568</ele>
        <time>2018-03-18T12:04:25.000Z</time>
      </trkpt>
      <trkpt lat="43.03151" lon="0.54131">
        <ele>567</ele>
        <time>2018-03-18T12:04:27.000Z</time>
      </trkpt>
      <trkpt lat="43.03154" lon="0.5413">
        <ele>567</ele>
        <time>2018-03-18T12:04:29.000Z</time>
      </trkpt>
      <trkpt lat="43.03156" lon="0.5413">
        <ele>567</ele>
        <time>2018-03-18T12:04:31.000Z</time>
      </trkpt>
      <trkpt lat="43.03158" lon="0.54131">
        <ele>567</ele>
        <time>2018-03-18T12:04:33.000Z</time>
      </trkpt>
      <trkpt lat="43.0316" lon="0.54131">
        <ele>567</ele>
        <time>2018-03-18T12:04:35.000Z</time>
      </trkpt>
      <trkpt lat="43.03162" lon="0.54132">
        <ele>566</ele>
        <time>2018-03-18T12:04:37.000Z</time>
      </trkpt>
      <trkpt lat="43.03165" lon="0.54133">
        <ele>566</ele>
        <time>2018-03-18T12:04:39.000Z</time>
      </trkpt>
      <trkpt lat="43.03167" lon="0.54134">
        <ele>565</ele>
        <time>2018-03-18T12:04:41.000Z</time>
      </trkpt>
      <trkpt lat="43.03172" lon="0.54136">
        <ele>564</ele>
        <time>2018-03-18T12:04:43.000Z</time>
      </trkpt>
      <trkpt lat="43.03176" lon="0.54137">
        <ele>563</ele>
        <time>2018-03-18T12:04:45.000Z</time>
      </trkpt>
      <trkpt lat="43.03179" lon="0.54138">
        <ele>563</ele>
        <time>2018-03-18T12:04:47.000Z</time>
      </trkpt>
      <trkpt lat="43.03181" lon="0.5414">
        <ele>563</ele>
        <time>2018-03-18T12:04:49.000Z</time>
      </trkpt>
      <trkpt lat="43.03183" lon="0.54141">
        <ele>563</ele>
        <time>2018-03-18T12:04:51.000Z</time>
      </trkpt>
      <trkpt lat="43.03186" lon="0.54141">
        <ele>563</ele>
        <time>2018-03-18T12:04:53.000Z</time>
      </trkpt>
      <trkpt lat="43.03187" lon="0.54141">
        <ele>563</ele>
        <time>2018-03-18T12:04:55.000Z</time>
      </trkpt>
      <trkpt lat="43.03189" lon="0.54144">
        <ele>562</ele>
        <time>2018-03-18T12:04:57.000Z</time>
      </trkpt>
      <trkpt lat="43.0319" lon="0.54144">
        <ele>562</ele>
        <time>2018-03-18T12:04:59.000Z</time>
      </trkpt>
      <trkpt lat="43.0319" lon="0.54144">
        <ele>562</ele>
        <time>2018-03-18T12:05:01.000Z</time>
      </trkpt>
      <trkpt lat="43.03192" lon="0.54146">
        <ele>562</ele>
        <time>2018-03-18T12:05:03.000Z</time>
      </trkpt>
      <trkpt lat="43.03194" lon="0.54148">
        <ele>562</ele>
        <time>2018-03-18T12:05:05.000Z</time>
      </trkpt>
      <trkpt lat="43.03197" lon="0.54149">
        <ele>562</ele>
        <time>2018-03-18T12:05:07.000Z</time>
      </trkpt>
      <trkpt lat="43.03199" lon="0.54151">
        <ele>561</ele>
        <time>2018-03-18T12:05:09.000Z</time>
      </trkpt>
      <trkpt lat="43.03201" lon="0.54153">
        <ele>561</ele>
        <time>2018-03-18T12:05:11.000Z</time>
      </trkpt>
      <trkpt lat="43.03203" lon="0.54156">
        <ele>560</ele>
        <time>2018-03-18T12:05:13.000Z</time>
      </trkpt>
      <trkpt lat="43.03204" lon="0.54159">
        <ele>559</ele>
        <time>2018-03-18T12:05:15.000Z</time>
      </trkpt>
      <trkpt lat="43.03205" lon="0.54163">
        <ele>559</ele>
        <time>2018-03-18T12:05:17.000Z</time>
      </trkpt>
      <trkpt lat="43.03207" lon="0.54165">
        <ele>558</ele>
        <time>2018-03-18T12:05:19.000Z</time>
      </trkpt>
      <trkpt lat="43.03209" lon="0.54167">
        <ele>558</ele>
        <time>2018-03-18T12:05:21.000Z</time>
      </trkpt>
      <trkpt lat="43.0321" lon="0.54168">
        <ele>557</ele>
        <time>2018-03-18T12:05:23.000Z</time>
      </trkpt>
      <trkpt lat="43.03212" lon="0.5417">
        <ele>557</ele>
        <time>2018-03-18T12:05:25.000Z</time>
      </trkpt>
      <trkpt lat="43.03213" lon="0.54171">
        <ele>557</ele>
        <time>2018-03-18T12:05:27.000Z</time>
      </trkpt>
      <trkpt lat="43.03214" lon="0.54173">
        <ele>557</ele>
        <time>2018-03-18T12:05:29.000Z</time>
      </trkpt>
      <trkpt lat="43.03215" lon="0.54175">
        <ele>556</ele>
        <time>2018-03-18T12:05:31.000Z</time>
      </trkpt>
      <trkpt lat="43.03216" lon="0.54177">
        <ele>556</ele>
        <time>2018-03-18T12:05:33.000Z</time>
      </trkpt>
      <trkpt lat="43.03218" lon="0.54179">
        <ele>555</ele>
        <time>2018-03-18T12:05:35.000Z</time>
      </trkpt>
      <trkpt lat="43.0322" lon="0.54181">
        <ele>555</ele>
        <time>2018-03-18T12:05:37.000Z</time>
      </trkpt>
      <trkpt lat="43.03222" lon="0.54185">
        <ele>554</ele>
        <time>2018-03-18T12:05:39.000Z</time>
      </trkpt>
      <trkpt lat="43.03224" lon="0.54187">
        <ele>553</ele>
        <time>2018-03-18T12:05:41.000Z</time>
      </trkpt>
      <trkpt lat="43.03227" lon="0.54189">
        <ele>553</ele>
        <time>2018-03-18T12:05:43.000Z</time>
      </trkpt>
      <trkpt lat="43.03229" lon="0.54193">
        <ele>552</ele>
        <time>2018-03-18T12:05:45.000Z</time>
      </trkpt>
      <trkpt lat="43.03233" lon="0.54195">
        <ele>552</ele>
        <time>2018-03-18T12:05:47.000Z</time>
      </trkpt>
      <trkpt lat="43.03235" lon="0.54197">
        <ele>552</ele>
        <time>2018-03-18T12:05:49.000Z</time>
      </trkpt>
      <trkpt lat="43.03237" lon="0.54199">
        <ele>551</ele>
        <time>2018-03-18T12:05:51.000Z</time>
      </trkpt>
      <trkpt lat="43.0324" lon="0.542">
        <ele>551</ele>
        <time>2018-03-18T12:05:53.000Z</time>
      </trkpt>
      <trkpt lat="43.03241" lon="0.54202">
        <ele>551</ele>
        <time>2018-03-18T12:05:55.000Z</time>
      </trkpt>
      <trkpt lat="43.03243" lon="0.54204">
        <ele>550</ele>
        <time>2018-03-18T12:05:57.000Z</time>
      </trkpt>
      <trkpt lat="43.03244" lon="0.54206">
        <ele>550</ele>
        <time>2018-03-18T12:05:59.000Z</time>
      </trkpt>
      <trkpt lat="43.03245" lon="0.54208">
        <ele>549</ele>
        <time>2018-03-18T12:06:01.000Z</time>
      </trkpt>
      <trkpt lat="43.03246" lon="0.5421">
        <ele>549</ele>
        <time>2018-03-18T12:06:03.000Z</time>
      </trkpt>
      <trkpt lat="43.03248" lon="0.54211">
        <ele>549</ele>
        <time>2018-03-18T12:06:05.000Z</time>
      </trkpt>
      <trkpt lat="43.0325" lon="0.54214">
        <ele>548</ele>
        <time>2018-03-18T12:06:07.000Z</time>
      </trkpt>
      <trkpt lat="43.03252" lon="0.54215">
        <ele>548</ele>
        <time>2018-03-18T12:06:09.000Z</time>
      </trkpt>
      <trkpt lat="43.03254" lon="0.54218">
        <ele>547</ele>
        <time>2018-03-18T12:06:11.000Z</time>
      </trkpt>
      <trkpt lat="43.03256" lon="0.54221">
        <ele>547</ele>
        <time>2018-03-18T12:06:13.000Z</time>
      </trkpt>
      <trkpt lat="43.03259" lon="0.54223">
        <ele>547</ele>
        <time>2018-03-18T12:06:15.000Z</time>
      </trkpt>
      <trkpt lat="43.03261" lon="0.54225">
        <ele>547</ele>
        <time>2018-03-18T12:06:17.000Z</time>
      </trkpt>
      <trkpt lat="43.03263" lon="0.54228">
        <ele>547</ele>
        <time>2018-03-18T12:06:19.000Z</time>
      </trkpt>
      <trkpt lat="43.03265" lon="0.5423">
        <ele>547</ele>
        <time>2018-03-18T12:06:21.000Z</time>
      </trkpt>
      <trkpt lat="43.03268" lon="0.54232">
        <ele>548</ele>
        <time>2018-03-18T12:06:23.000Z</time>
      </trkpt>
      <trkpt lat="43.03269" lon="0.54233">
        <ele>548</ele>
        <time>2018-03-18T12:06:25.000Z</time>
      </trkpt>
      <trkpt lat="43.03269" lon="0.54233">
        <ele>548</ele>
        <time>2018-03-18T12:06:27.000Z</time>
      </trkpt>
      <trkpt lat="43.03269" lon="0.54234">
        <ele>548</ele>
        <time>2018-03-18T12:06:29.000Z</time>
      </trkpt>
      <trkpt lat="43.03272" lon="0.54236">
        <ele>548</ele>
        <time>2018-03-18T12:06:31.000Z</time>
      </trkpt>
      <trkpt lat="43.03275" lon="0.54237">
        <ele>548</ele>
        <time>2018-03-18T12:06:33.000Z</time>
      </trkpt>
      <trkpt lat="43.03277" lon="0.54239">
        <ele>548</ele>
        <time>2018-03-18T12:06:35.000Z</time>
      </trkpt>
      <trkpt lat="43.03279" lon="0.54241">
        <ele>548</ele>
        <time>2018-03-18T12:06:37.000Z</time>
      </trkpt>
      <trkpt lat="43.03281" lon="0.54242">
        <ele>549</ele>
        <time>2018-03-18T12:06:39.000Z</time>
      </trkpt>
      <trkpt lat="43.03283" lon="0.54244">
        <ele>549</ele>
        <time>2018-03-18T12:06:41.000Z</time>
      </trkpt>
      <trkpt lat="43.03285" lon="0.54246">
        <ele>549</ele>
        <time>2018-03-18T12:06:43.000Z</time>
      </trkpt>
      <trkpt lat="43.03287" lon="0.54248">
        <ele>549</ele>
        <time>2018-03-18T12:06:45.000Z</time>
      </trkpt>
      <trkpt lat="43.03289" lon="0.54251">
        <ele>549</ele>
        <time>2018-03-18T12:06:47.000Z</time>
      </trkpt>
      <trkpt lat="43.03291" lon="0.54252">
        <ele>549</ele>
        <time>2018-03-18T12:06:49.000Z</time>
      </trkpt>
      <trkpt lat="43.03292" lon="0.54254">
        <ele>549</ele>
        <time>2018-03-18T12:06:51.000Z</time>
      </trkpt>
      <trkpt lat="43.03293" lon="0.54256">
        <ele>549</ele>
        <time>2018-03-18T12:06:53.000Z</time>
      </trkpt>
      <trkpt lat="43.03295" lon="0.54258">
        <ele>549</ele>
        <time>2018-03-18T12:06:55.000Z</time>
      </trkpt>
      <trkpt lat="43.03296" lon="0.5426">
        <ele>549</ele>
        <time>2018-03-18T12:06:57.000Z</time>
      </trkpt>
      <trkpt lat="43.03298" lon="0.54262">
        <ele>549</ele>
        <time>2018-03-18T12:06:59.000Z</time>
      </trkpt>
      <trkpt lat="43.03299" lon="0.54264">
        <ele>549</ele>
        <time>2018-03-18T12:07:01.000Z</time>
      </trkpt>
      <trkpt lat="43.033" lon="0.54267">
        <ele>549</ele>
        <time>2018-03-18T12:07:03.000Z</time>
      </trkpt>
      <trkpt lat="43.03301" lon="0.54269">
        <ele>548</ele>
        <time>2018-03-18T12:07:05.000Z</time>
      </trkpt>
      <trkpt lat="43.03301" lon="0.54272">
        <ele>548</ele>
        <time>2018-03-18T12:07:07.000Z</time>
      </trkpt>
      <trkpt lat="43.03302" lon="0.54274">
        <ele>548</ele>
        <time>2018-03-18T12:07:09.000Z</time>
      </trkpt>
      <trkpt lat="43.03303" lon="0.54275">
        <ele>548</ele>
        <time>2018-03-18T12:07:11.000Z</time>
      </trkpt>
      <trkpt lat="43.03304" lon="0.54275">
        <ele>548</ele>
        <time>2018-03-18T12:07:13.000Z</time>
      </trkpt>
      <trkpt lat="43.03304" lon="0.54276">
        <ele>548</ele>
        <time>2018-03-18T12:07:15.000Z</time>
      </trkpt>
      <trkpt lat="43.03304" lon="0.54277">
        <ele>548</ele>
        <time>2018-03-18T12:07:17.000Z</time>
      </trkpt>
      <trkpt lat="43.03304" lon="0.54277">
        <ele>548</ele>
        <time>2018-03-18T12:07:19.000Z</time>
      </trkpt>
      <trkpt lat="43.03304" lon="0.54276">
        <ele>548</ele>
        <time>2018-03-18T12:07:21.000Z</time>
      </trkpt>
      <trkpt lat="43.03304" lon="0.54276">
        <ele>548</ele>
        <time>2018-03-18T12:07:23.000Z</time>
      </trkpt>
      <trkpt lat="43.03304" lon="0.54276">
        <ele>548</ele>
        <time>2018-03-18T12:07:25.000Z</time>
      </trkpt>
      <trkpt lat="43.03303" lon="0.54277">
        <ele>548</ele>
        <time>2018-03-18T12:07:27.000Z</time>
      </trkpt>
      <trkpt lat="43.03304" lon="0.54276">
        <ele>548</ele>
        <time>2018-03-18T12:07:29.000Z</time>
      </trkpt>
      <trkpt lat="43.03303" lon="0.54276">
        <ele>548</ele>
        <time>2018-03-18T12:07:31.000Z</time>
      </trkpt>
      <trkpt lat="43.03303" lon="0.54275">
        <ele>548</ele>
        <time>2018-03-18T12:07:33.000Z</time>
      </trkpt>
      <trkpt lat="43.03303" lon="0.54275">
        <ele>548</ele>
        <time>2018-03-18T12:07:35.000Z</time>
      </trkpt>
      <trkpt lat="43.03304" lon="0.54275">
        <ele>548</ele>
        <time>2018-03-18T12:07:37.000Z</time>
      </trkpt>
      <trkpt lat="43.03304" lon="0.54275">
        <ele>548</ele>
        <time>2018-03-18T12:07:39.000Z</time>
      </trkpt>
      <trkpt lat="43.03304" lon="0.54276">
        <ele>548</ele>
        <time>2018-03-18T12:07:41.000Z</time>
      </trkpt>
      <trkpt lat="43.03304" lon="0.54276">
        <ele>548</ele>
        <time>2018-03-18T12:07:43.000Z</time>
      </trkpt>
      <trkpt lat="43.03304" lon="0.54276">
        <ele>548</ele>
        <time>2018-03-18T12:07:45.000Z</time>
      </trkpt>
      <trkpt lat="43.03302" lon="0.54275">
        <ele>548</ele>
        <time>2018-03-18T12:07:47.000Z</time>
      </trkpt>
      <trkpt lat="43.03301" lon="0.54275">
        <ele>548</ele>
        <time>2018-03-18T12:07:49.000Z</time>
      </trkpt>
      <trkpt lat="43.033" lon="0.54274">
        <ele>548</ele>
        <time>2018-03-18T12:07:51.000Z</time>
      </trkpt>
      <trkpt lat="43.033" lon="0.54273">
        <ele>548</ele>
        <time>2018-03-18T12:07:53.000Z</time>
      </trkpt>
      <trkpt lat="43.03298" lon="0.54272">
        <ele>548</ele>
        <time>2018-03-18T12:07:55.000Z</time>
      </trkpt>
      <trkpt lat="43.03297" lon="0.5427">
        <ele>548</ele>
        <time>2018-03-18T12:07:57.000Z</time>
      </trkpt>
      <trkpt lat="43.03296" lon="0.54268">
        <ele>548</ele>
        <time>2018-03-18T12:07:59.000Z</time>
      </trkpt>
      <trkpt lat="43.03295" lon="0.54266">
        <ele>548</ele>
        <time>2018-03-18T12:08:01.000Z</time>
      </trkpt>
      <trkpt lat="43.03295" lon="0.54264">
        <ele>548</ele>
        <time>2018-03-18T12:08:03.000Z</time>
      </trkpt>
      <trkpt lat="43.03294" lon="0.54262">
        <ele>548</ele>
        <time>2018-03-18T12:08:05.000Z</time>
      </trkpt>
      <trkpt lat="43.03295" lon="0.54261">
        <ele>548</ele>
        <time>2018-03-18T12:08:07.000Z</time>
      </trkpt>
      <trkpt lat="43.03296" lon="0.54261">
        <ele>549</ele>
        <time>2018-03-18T12:08:09.000Z</time>
      </trkpt>
      <trkpt lat="43.03296" lon="0.54261">
        <ele>549</ele>
        <time>2018-03-18T12:08:11.000Z</time>
      </trkpt>
      <trkpt lat="43.03297" lon="0.54261">
        <ele>549</ele>
        <time>2018-03-18T12:08:13.000Z</time>
      </trkpt>
      <trkpt lat="43.03297" lon="0.54261">
        <ele>549</ele>
        <time>2018-03-18T12:08:15.000Z</time>
      </trkpt>
      <trkpt lat="43.03298" lon="0.54261">
        <ele>549</ele>
        <time>2018-03-18T12:08:17.000Z</time>
      </trkpt>
      <trkpt lat="43.03299" lon="0.54261">
        <ele>549</ele>
        <time>2018-03-18T12:08:19.000Z</time>
      </trkpt>
      <trkpt lat="43.03299" lon="0.5426">
        <ele>550</ele>
        <time>2018-03-18T12:08:21.000Z</time>
      </trkpt>
      <trkpt lat="43.03299" lon="0.54261">
        <ele>549</ele>
        <time>2018-03-18T12:08:23.000Z</time>
      </trkpt>
      <trkpt lat="43.03299" lon="0.5426">
        <ele>550</ele>
        <time>2018-03-18T12:08:25.000Z</time>
      </trkpt>
      <trkpt lat="43.03299" lon="0.54259">
        <ele>550</ele>
        <time>2018-03-18T12:08:27.000Z</time>
      </trkpt>
      <trkpt lat="43.03297" lon="0.54258">
        <ele>550</ele>
        <time>2018-03-18T12:08:29.000Z</time>
      </trkpt>
      <trkpt lat="43.03297" lon="0.54256">
        <ele>550</ele>
        <time>2018-03-18T12:08:31.000Z</time>
      </trkpt>
      <trkpt lat="43.03296" lon="0.54254">
        <ele>550</ele>
        <time>2018-03-18T12:08:33.000Z</time>
      </trkpt>
      <trkpt lat="43.03295" lon="0.54252">
        <ele>550</ele>
        <time>2018-03-18T12:08:35.000Z</time>
      </trkpt>
      <trkpt lat="43.03294" lon="0.5425">
        <ele>550</ele>
        <time>2018-03-18T12:08:37.000Z</time>
      </trkpt>
      <trkpt lat="43.03293" lon="0.54248">
        <ele>550</ele>
        <time>2018-03-18T12:08:39.000Z</time>
      </trkpt>
      <trkpt lat="43.03291" lon="0.54247">
        <ele>550</ele>
        <time>2018-03-18T12:08:41.000Z</time>
      </trkpt>
      <trkpt lat="43.03289" lon="0.54246">
        <ele>550</ele>
        <time>2018-03-18T12:08:43.000Z</time>
      </trkpt>
      <trkpt lat="43.03289" lon="0.54246">
        <ele>550</ele>
        <time>2018-03-18T12:08:45.000Z</time>
      </trkpt>
      <trkpt lat="43.03288" lon="0.54245">
        <ele>550</ele>
        <time>2018-03-18T12:08:47.000Z</time>
      </trkpt>
      <trkpt lat="43.03287" lon="0.54244">
        <ele>550</ele>
        <time>2018-03-18T12:08:49.000Z</time>
      </trkpt>
      <trkpt lat="43.03286" lon="0.54242">
        <ele>550</ele>
        <time>2018-03-18T12:08:51.000Z</time>
      </trkpt>
      <trkpt lat="43.03285" lon="0.5424">
        <ele>550</ele>
        <time>2018-03-18T12:08:53.000Z</time>
      </trkpt>
      <trkpt lat="43.03284" lon="0.54238">
        <ele>550</ele>
        <time>2018-03-18T12:08:55.000Z</time>
      </trkpt>
      <trkpt lat="43.03284" lon="0.54237">
        <ele>550</ele>
        <time>2018-03-18T12:08:57.000Z</time>
      </trkpt>
      <trkpt lat="43.03283" lon="0.54236">
        <ele>550</ele>
        <time>2018-03-18T12:08:59.000Z</time>
      </trkpt>
      <trkpt lat="43.03282" lon="0.54234">
        <ele>550</ele>
        <time>2018-03-18T12:09:01.000Z</time>
      </trkpt>
      <trkpt lat="43.03281" lon="0.54232">
        <ele>550</ele>
        <time>2018-03-18T12:09:03.000Z</time>
      </trkpt>
      <trkpt lat="43.03279" lon="0.54231">
        <ele>550</ele>
        <time>2018-03-18T12:09:05.000Z</time>
      </trkpt>
      <trkpt lat="43.03278" lon="0.54229">
        <ele>550</ele>
        <time>2018-03-18T12:09:07.000Z</time>
      </trkpt>
      <trkpt lat="43.03277" lon="0.54227">
        <ele>550</ele>
        <time>2018-03-18T12:09:09.000Z</time>
      </trkpt>
      <trkpt lat="43.03276" lon="0.54226">
        <ele>550</ele>
        <time>2018-03-18T12:09:11.000Z</time>
      </trkpt>
      <trkpt lat="43.03275" lon="0.54224">
        <ele>550</ele>
        <time>2018-03-18T12:09:13.000Z</time>
      </trkpt>
      <trkpt lat="43.03274" lon="0.54222">
        <ele>551</ele>
        <time>2018-03-18T12:09:15.000Z</time>
      </trkpt>
      <trkpt lat="43.03273" lon="0.54219">
        <ele>551</ele>
        <time>2018-03-18T12:09:17.000Z</time>
      </trkpt>
      <trkpt lat="43.03271" lon="0.54217">
        <ele>551</ele>
        <time>2018-03-18T12:09:19.000Z</time>
      </trkpt>
      <trkpt lat="43.0327" lon="0.54215">
        <ele>551</ele>
        <time>2018-03-18T12:09:21.000Z</time>
      </trkpt>
      <trkpt lat="43.0327" lon="0.54212">
        <ele>552</ele>
        <time>2018-03-18T12:09:23.000Z</time>
      </trkpt>
      <trkpt lat="43.0327" lon="0.5421">
        <ele>553</ele>
        <time>2018-03-18T12:09:25.000Z</time>
      </trkpt>
      <trkpt lat="43.03269" lon="0.54208">
        <ele>553</ele>
        <time>2018-03-18T12:09:27.000Z</time>
      </trkpt>
      <trkpt lat="43.03269" lon="0.54207">
        <ele>553</ele>
        <time>2018-03-18T12:09:29.000Z</time>
      </trkpt>
      <trkpt lat="43.03269" lon="0.54205">
        <ele>554</ele>
        <time>2018-03-18T12:09:31.000Z</time>
      </trkpt>
      <trkpt lat="43.03268" lon="0.54204">
        <ele>554</ele>
        <time>2018-03-18T12:09:33.000Z</time>
      </trkpt>
      <trkpt lat="43.03268" lon="0.54203">
        <ele>554</ele>
        <time>2018-03-18T12:09:35.000Z</time>
      </trkpt>
      <trkpt lat="43.03268" lon="0.54203">
        <ele>554</ele>
        <time>2018-03-18T12:09:37.000Z</time>
      </trkpt>
      <trkpt lat="43.03268" lon="0.54202">
        <ele>554</ele>
        <time>2018-03-18T12:09:39.000Z</time>
      </trkpt>
      <trkpt lat="43.03268" lon="0.54201">
        <ele>555</ele>
        <time>2018-03-18T12:09:41.000Z</time>
      </trkpt>
      <trkpt lat="43.03268" lon="0.54201">
        <ele>555</ele>
        <time>2018-03-18T12:09:43.000Z</time>
      </trkpt>
      <trkpt lat="43.03266" lon="0.542">
        <ele>555</ele>
        <time>2018-03-18T12:09:45.000Z</time>
      </trkpt>
      <trkpt lat="43.03266" lon="0.54198">
        <ele>555</ele>
        <time>2018-03-18T12:09:47.000Z</time>
      </trkpt>
      <trkpt lat="43.03265" lon="0.54196">
        <ele>555</ele>
        <time>2018-03-18T12:09:49.000Z</time>
      </trkpt>
      <trkpt lat="43.03264" lon="0.54195">
        <ele>556</ele>
        <time>2018-03-18T12:09:51.000Z</time>
      </trkpt>
      <trkpt lat="43.03263" lon="0.54195">
        <ele>555</ele>
        <time>2018-03-18T12:09:53.000Z</time>
      </trkpt>
      <trkpt lat="43.03262" lon="0.54194">
        <ele>555</ele>
        <time>2018-03-18T12:09:55.000Z</time>
      </trkpt>
      <trkpt lat="43.03262" lon="0.54193">
        <ele>556</ele>
        <time>2018-03-18T12:09:57.000Z</time>
      </trkpt>
      <trkpt lat="43.03262" lon="0.54193">
        <ele>556</ele>
        <time>2018-03-18T12:09:59.000Z</time>
      </trkpt>
      <trkpt lat="43.03261" lon="0.54192">
        <ele>556</ele>
        <time>2018-03-18T12:10:01.000Z</time>
      </trkpt>
      <trkpt lat="43.03262" lon="0.5419">
        <ele>556</ele>
        <time>2018-03-18T12:10:03.000Z</time>
      </trkpt>
      <trkpt lat="43.03261" lon="0.54189">
        <ele>557</ele>
        <time>2018-03-18T12:10:05.000Z</time>
      </trkpt>
      <trkpt lat="43.0326" lon="0.54187">
        <ele>557</ele>
        <time>2018-03-18T12:10:07.000Z</time>
      </trkpt>
      <trkpt lat="43.03259" lon="0.54187">
        <ele>557</ele>
        <time>2018-03-18T12:10:09.000Z</time>
      </trkpt>
      <trkpt lat="43.03258" lon="0.54186">
        <ele>557</ele>
        <time>2018-03-18T12:10:11.000Z</time>
      </trkpt>
      <trkpt lat="43.03257" lon="0.54185">
        <ele>557</ele>
        <time>2018-03-18T12:10:13.000Z</time>
      </trkpt>
      <trkpt lat="43.03256" lon="0.54184">
        <ele>557</ele>
        <time>2018-03-18T12:10:15.000Z</time>
      </trkpt>
      <trkpt lat="43.03255" lon="0.54182">
        <ele>558</ele>
        <time>2018-03-18T12:10:17.000Z</time>
      </trkpt>
      <trkpt lat="43.03254" lon="0.54181">
        <ele>558</ele>
        <time>2018-03-18T12:10:19.000Z</time>
      </trkpt>
      <trkpt lat="43.03254" lon="0.54179">
        <ele>559</ele>
        <time>2018-03-18T12:10:21.000Z</time>
      </trkpt>
      <trkpt lat="43.03254" lon="0.54178">
        <ele>559</ele>
        <time>2018-03-18T12:10:23.000Z</time>
      </trkpt>
      <trkpt lat="43.03253" lon="0.54177">
        <ele>559</ele>
        <time>2018-03-18T12:10:25.000Z</time>
      </trkpt>
      <trkpt lat="43.03252" lon="0.54176">
        <ele>559</ele>
        <time>2018-03-18T12:10:27.000Z</time>
      </trkpt>
      <trkpt lat="43.0325" lon="0.54175">
        <ele>560</ele>
        <time>2018-03-18T12:10:29.000Z</time>
      </trkpt>
      <trkpt lat="43.0325" lon="0.54172">
        <ele>560</ele>
        <time>2018-03-18T12:10:31.000Z</time>
      </trkpt>
      <trkpt lat="43.03249" lon="0.54171">
        <ele>561</ele>
        <time>2018-03-18T12:10:33.000Z</time>
      </trkpt>
      <trkpt lat="43.03248" lon="0.54169">
        <ele>561</ele>
        <time>2018-03-18T12:10:35.000Z</time>
      </trkpt>
      <trkpt lat="43.03247" lon="0.54168">
        <ele>561</ele>
        <time>2018-03-18T12:10:37.000Z</time>
      </trkpt>
      <trkpt lat="43.03247" lon="0.54166">
        <ele>562</ele>
        <time>2018-03-18T12:10:39.000Z</time>
      </trkpt>
      <trkpt lat="43.03246" lon="0.54164">
        <ele>562</ele>
        <time>2018-03-18T12:10:41.000Z</time>
      </trkpt>
      <trkpt lat="43.03245" lon="0.54163">
        <ele>562</ele>
        <time>2018-03-18T12:10:43.000Z</time>
      </trkpt>
      <trkpt lat="43.03245" lon="0.54162">
        <ele>563</ele>
        <time>2018-03-18T12:10:45.000Z</time>
      </trkpt>
      <trkpt lat="43.03244" lon="0.5416">
        <ele>563</ele>
        <time>2018-03-18T12:10:47.000Z</time>
      </trkpt>
      <trkpt lat="43.03243" lon="0.54158">
        <ele>564</ele>
        <time>2018-03-18T12:10:49.000Z</time>
      </trkpt>
      <trkpt lat="43.03242" lon="0.54156">
        <ele>564</ele>
        <time>2018-03-18T12:10:51.000Z</time>
      </trkpt>
      <trkpt lat="43.03241" lon="0.54155">
        <ele>564</ele>
        <time>2018-03-18T12:10:53.000Z</time>
      </trkpt>
      <trkpt lat="43.0324" lon="0.54153">
        <ele>565</ele>
        <time>2018-03-18T12:10:55.000Z</time>
      </trkpt>
      <trkpt lat="43.0324" lon="0.54151">
        <ele>565</ele>
        <time>2018-03-18T12:10:57.000Z</time>
      </trkpt>
      <trkpt lat="43.03239" lon="0.5415">
        <ele>566</ele>
        <time>2018-03-18T12:10:59.000Z</time>
      </trkpt>
      <trkpt lat="43.03238" lon="0.54149">
        <ele>566</ele>
        <time>2018-03-18T12:11:01.000Z</time>
      </trkpt>
      <trkpt lat="43.03237" lon="0.54148">
        <ele>566</ele>
        <time>2018-03-18T12:11:03.000Z</time>
      </trkpt>
      <trkpt lat="43.03236" lon="0.54147">
        <ele>566</ele>
        <time>2018-03-18T12:11:05.000Z</time>
      </trkpt>
      <trkpt lat="43.03235" lon="0.54146">
        <ele>566</ele>
        <time>2018-03-18T12:11:07.000Z</time>
      </trkpt>
      <trkpt lat="43.03234" lon="0.54144">
        <ele>567</ele>
        <time>2018-03-18T12:11:09.000Z</time>
      </trkpt>
      <trkpt lat="43.03233" lon="0.54143">
        <ele>567</ele>
        <time>2018-03-18T12:11:11.000Z</time>
      </trkpt>
      <trkpt lat="43.03232" lon="0.54142">
        <ele>567</ele>
        <time>2018-03-18T12:11:13.000Z</time>
      </trkpt>
      <trkpt lat="43.03231" lon="0.54141">
        <ele>567</ele>
        <time>2018-03-18T12:11:15.000Z</time>
      </trkpt>
      <trkpt lat="43.0323" lon="0.5414">
        <ele>568</ele>
        <time>2018-03-18T12:11:17.000Z</time>
      </trkpt>
      <trkpt lat="43.0323" lon="0.54138">
        <ele>568</ele>
        <time>2018-03-18T12:11:19.000Z</time>
      </trkpt>
      <trkpt lat="43.03229" lon="0.54137">
        <ele>568</ele>
        <time>2018-03-18T12:11:21.000Z</time>
      </trkpt>
      <trkpt lat="43.03228" lon="0.54136">
        <ele>568</ele>
        <time>2018-03-18T12:11:23.000Z</time>
      </trkpt>
      <trkpt lat="43.03228" lon="0.54135">
        <ele>569</ele>
        <time>2018-03-18T12:11:25.000Z</time>
      </trkpt>
      <trkpt lat="43.03226" lon="0.54133">
        <ele>569</ele>
        <time>2018-03-18T12:11:27.000Z</time>
      </trkpt>
      <trkpt lat="43.03225" lon="0.54132">
        <ele>569</ele>
        <time>2018-03-18T12:11:29.000Z</time>
      </trkpt>
      <trkpt lat="43.03224" lon="0.54131">
        <ele>570</ele>
        <time>2018-03-18T12:11:31.000Z</time>
      </trkpt>
      <trkpt lat="43.03222" lon="0.5413">
        <ele>570</ele>
        <time>2018-03-18T12:11:33.000Z</time>
      </trkpt>
      <trkpt lat="43.03222" lon="0.54129">
        <ele>570</ele>
        <time>2018-03-18T12:11:35.000Z</time>
      </trkpt>
      <trkpt lat="43.0322" lon="0.54128">
        <ele>570</ele>
        <time>2018-03-18T12:11:37.000Z</time>
      </trkpt>
      <trkpt lat="43.03219" lon="0.54127">
        <ele>571</ele>
        <time>2018-03-18T12:11:39.000Z</time>
      </trkpt>
      <trkpt lat="43.03218" lon="0.54126">
        <ele>571</ele>
        <time>2018-03-18T12:11:41.000Z</time>
      </trkpt>
      <trkpt lat="43.03217" lon="0.54124">
        <ele>572</ele>
        <time>2018-03-18T12:11:43.000Z</time>
      </trkpt>
      <trkpt lat="43.03216" lon="0.54123">
        <ele>572</ele>
        <time>2018-03-18T12:11:45.000Z</time>
      </trkpt>
      <trkpt lat="43.03215" lon="0.54122">
        <ele>572</ele>
        <time>2018-03-18T12:11:47.000Z</time>
      </trkpt>
      <trkpt lat="43.03213" lon="0.54121">
        <ele>572</ele>
        <time>2018-03-18T12:11:49.000Z</time>
      </trkpt>
      <trkpt lat="43.03213" lon="0.5412">
        <ele>573</ele>
        <time>2018-03-18T12:11:51.000Z</time>
      </trkpt>
      <trkpt lat="43.03212" lon="0.54119">
        <ele>573</ele>
        <time>2018-03-18T12:11:53.000Z</time>
      </trkpt>
      <trkpt lat="43.03212" lon="0.54118">
        <ele>573</ele>
        <time>2018-03-18T12:11:55.000Z</time>
      </trkpt>
      <trkpt lat="43.03211" lon="0.54116">
        <ele>574</ele>
        <time>2018-03-18T12:11:57.000Z</time>
      </trkpt>
      <trkpt lat="43.03211" lon="0.54115">
        <ele>574</ele>
        <time>2018-03-18T12:11:59.000Z</time>
      </trkpt>
      <trkpt lat="43.0321" lon="0.54115">
        <ele>574</ele>
        <time>2018-03-18T12:12:01.000Z</time>
      </trkpt>
      <trkpt lat="43.03209" lon="0.54113">
        <ele>575</ele>
        <time>2018-03-18T12:12:03.000Z</time>
      </trkpt>
      <trkpt lat="43.03209" lon="0.54112">
        <ele>575</ele>
        <time>2018-03-18T12:12:05.000Z</time>
      </trkpt>
      <trkpt lat="43.03208" lon="0.54111">
        <ele>575</ele>
        <time>2018-03-18T12:12:07.000Z</time>
      </trkpt>
      <trkpt lat="43.03209" lon="0.5411">
        <ele>576</ele>
        <time>2018-03-18T12:12:09.000Z</time>
      </trkpt>
      <trkpt lat="43.03208" lon="0.54109">
        <ele>576</ele>
        <time>2018-03-18T12:12:11.000Z</time>
      </trkpt>
      <trkpt lat="43.03208" lon="0.54108">
        <ele>577</ele>
        <time>2018-03-18T12:12:13.000Z</time>
      </trkpt>
      <trkpt lat="43.03208" lon="0.54107">
        <ele>577</ele>
        <time>2018-03-18T12:12:15.000Z</time>
      </trkpt>
      <trkpt lat="43.03209" lon="0.54106">
        <ele>577</ele>
        <time>2018-03-18T12:12:17.000Z</time>
      </trkpt>
      <trkpt lat="43.03209" lon="0.54106">
        <ele>577</ele>
        <time>2018-03-18T12:12:19.000Z</time>
      </trkpt>
      <trkpt lat="43.03209" lon="0.54104">
        <ele>578</ele>
        <time>2018-03-18T12:12:21.000Z</time>
      </trkpt>
      <trkpt lat="43.0321" lon="0.54103">
        <ele>578</ele>
        <time>2018-03-18T12:12:23.000Z</time>
      </trkpt>
      <trkpt lat="43.03211" lon="0.54102">
        <ele>579</ele>
        <time>2018-03-18T12:12:25.000Z</time>
      </trkpt>
      <trkpt lat="43.03212" lon="0.54101">
        <ele>579</ele>
        <time>2018-03-18T12:12:27.000Z</time>
      </trkpt>
      <trkpt lat="43.03214" lon="0.541">
        <ele>580</ele>
        <time>2018-03-18T12:12:29.000Z</time>
      </trkpt>
      <trkpt lat="43.03215" lon="0.54098">
        <ele>581</ele>
        <time>2018-03-18T12:12:31.000Z</time>
      </trkpt>
      <trkpt lat="43.03215" lon="0.54097">
        <ele>581</ele>
        <time>2018-03-18T12:12:33.000Z</time>
      </trkpt>
      <trkpt lat="43.03217" lon="0.54096">
        <ele>582</ele>
        <time>2018-03-18T12:12:35.000Z</time>
      </trkpt>
      <trkpt lat="43.03218" lon="0.54095">
        <ele>582</ele>
        <time>2018-03-18T12:12:37.000Z</time>
      </trkpt>
      <trkpt lat="43.03219" lon="0.54095">
        <ele>582</ele>
        <time>2018-03-18T12:12:39.000Z</time>
      </trkpt>
      <trkpt lat="43.0322" lon="0.54094">
        <ele>583</ele>
        <time>2018-03-18T12:12:41.000Z</time>
      </trkpt>
      <trkpt lat="43.03221" lon="0.54093">
        <ele>583</ele>
        <time>2018-03-18T12:12:43.000Z</time>
      </trkpt>
      <trkpt lat="43.03222" lon="0.54092">
        <ele>583</ele>
        <time>2018-03-18T12:12:45.000Z</time>
      </trkpt>
      <trkpt lat="43.03222" lon="0.54091">
        <ele>583</ele>
        <time>2018-03-18T12:12:47.000Z</time>
      </trkpt>
      <trkpt lat="43.03224" lon="0.5409">
        <ele>583</ele>
        <time>2018-03-18T12:12:49.000Z</time>
      </trkpt>
      <trkpt lat="43.03225" lon="0.5409">
        <ele>583</ele>
        <time>2018-03-18T12:12:51.000Z</time>
      </trkpt>
      <trkpt lat="43.03226" lon="0.54089">
        <ele>584</ele>
        <time>2018-03-18T12:12:53.000Z</time>
      </trkpt>
      <trkpt lat="43.03228" lon="0.54088">
        <ele>584</ele>
        <time>2018-03-18T12:12:55.000Z</time>
      </trkpt>
      <trkpt lat="43.03229" lon="0.54088">
        <ele>584</ele>
        <time>2018-03-18T12:12:57.000Z</time>
      </trkpt>
      <trkpt lat="43.0323" lon="0.54087">
        <ele>584</ele>
        <time>2018-03-18T12:12:59.000Z</time>
      </trkpt>
      <trkpt lat="43.03232" lon="0.54087">
        <ele>584</ele>
        <time>2018-03-18T12:13:01.000Z</time>
      </trkpt>
      <trkpt lat="43.03233" lon="0.54087">
        <ele>584</ele>
        <time>2018-03-18T12:13:03.000Z</time>
      </trkpt>
      <trkpt lat="43.03233" lon="0.54088">
        <ele>584</ele>
        <time>2018-03-18T12:13:05.000Z</time>
      </trkpt>
      <trkpt lat="43.03235" lon="0.54088">
        <ele>584</ele>
        <time>2018-03-18T12:13:07.000Z</time>
      </trkpt>
      <trkpt lat="43.03235" lon="0.54089">
        <ele>583</ele>
        <time>2018-03-18T12:13:09.000Z</time>
      </trkpt>
      <trkpt lat="43.03237" lon="0.54088">
        <ele>583</ele>
        <time>2018-03-18T12:13:11.000Z</time>
      </trkpt>
      <trkpt lat="43.03238" lon="0.54088">
        <ele>584</ele>
        <time>2018-03-18T12:13:13.000Z</time>
      </trkpt>
      <trkpt lat="43.0324" lon="0.54088">
        <ele>584</ele>
        <time>2018-03-18T12:13:15.000Z</time>
      </trkpt>
      <trkpt lat="43.03241" lon="0.54088">
        <ele>583</ele>
        <time>2018-03-18T12:13:17.000Z</time>
      </trkpt>
      <trkpt lat="43.03243" lon="0.54089">
        <ele>583</ele>
        <time>2018-03-18T12:13:19.000Z</time>
      </trkpt>
      <trkpt lat="43.03244" lon="0.54089">
        <ele>583</ele>
        <time>2018-03-18T12:13:21.000Z</time>
      </trkpt>
      <trkpt lat="43.03246" lon="0.54089">
        <ele>583</ele>
        <time>2018-03-18T12:13:23.000Z</time>
      </trkpt>
      <trkpt lat="43.03248" lon="0.54089">
        <ele>583</ele>
        <time>2018-03-18T12:13:25.000Z</time>
      </trkpt>
      <trkpt lat="43.0325" lon="0.54089">
        <ele>583</ele>
        <time>2018-03-18T12:13:27.000Z</time>
      </trkpt>
      <trkpt lat="43.03253" lon="0.54089">
        <ele>583</ele>
        <time>2018-03-18T12:13:29.000Z</time>
      </trkpt>
      <trkpt lat="43.03254" lon="0.54089">
        <ele>583</ele>
        <time>2018-03-18T12:13:31.000Z</time>
      </trkpt>
      <trkpt lat="43.03255" lon="0.5409">
        <ele>583</ele>
        <time>2018-03-18T12:13:33.000Z</time>
      </trkpt>
      <trkpt lat="43.03257" lon="0.54089">
        <ele>583</ele>
        <time>2018-03-18T12:13:35.000Z</time>
      </trkpt>
      <trkpt lat="43.03258" lon="0.54088">
        <ele>583</ele>
        <time>2018-03-18T12:13:37.000Z</time>
      </trkpt>
      <trkpt lat="43.0326" lon="0.54087">
        <ele>583</ele>
        <time>2018-03-18T12:13:39.000Z</time>
      </trkpt>
      <trkpt lat="43.03261" lon="0.54087">
        <ele>584</ele>
        <time>2018-03-18T12:13:41.000Z</time>
      </trkpt>
      <trkpt lat="43.03263" lon="0.54087">
        <ele>584</ele>
        <time>2018-03-18T12:13:43.000Z</time>
      </trkpt>
      <trkpt lat="43.03264" lon="0.54086">
        <ele>584</ele>
        <time>2018-03-18T12:13:45.000Z</time>
      </trkpt>
      <trkpt lat="43.03265" lon="0.54085">
        <ele>585</ele>
        <time>2018-03-18T12:13:47.000Z</time>
      </trkpt>
      <trkpt lat="43.03267" lon="0.54085">
        <ele>585</ele>
        <time>2018-03-18T12:13:49.000Z</time>
      </trkpt>
      <trkpt lat="43.03268" lon="0.54085">
        <ele>585</ele>
        <time>2018-03-18T12:13:51.000Z</time>
      </trkpt>
      <trkpt lat="43.03269" lon="0.54085">
        <ele>585</ele>
        <time>2018-03-18T12:13:53.000Z</time>
      </trkpt>
      <trkpt lat="43.0327" lon="0.54085">
        <ele>585</ele>
        <time>2018-03-18T12:13:55.000Z</time>
      </trkpt>
      <trkpt lat="43.03272" lon="0.54085">
        <ele>586</ele>
        <time>2018-03-18T12:13:57.000Z</time>
      </trkpt>
      <trkpt lat="43.03273" lon="0.54085">
        <ele>586</ele>
        <time>2018-03-18T12:13:59.000Z</time>
      </trkpt>
      <trkpt lat="43.03275" lon="0.54085">
        <ele>586</ele>
        <time>2018-03-18T12:14:01.000Z</time>
      </trkpt>
      <trkpt lat="43.03276" lon="0.54086">
        <ele>586</ele>
        <time>2018-03-18T12:14:03.000Z</time>
      </trkpt>
      <trkpt lat="43.03277" lon="0.54086">
        <ele>586</ele>
        <time>2018-03-18T12:14:05.000Z</time>
      </trkpt>
      <trkpt lat="43.03279" lon="0.54086">
        <ele>586</ele>
        <time>2018-03-18T12:14:07.000Z</time>
      </trkpt>
      <trkpt lat="43.0328" lon="0.54086">
        <ele>587</ele>
        <time>2018-03-18T12:14:09.000Z</time>
      </trkpt>
      <trkpt lat="43.03282" lon="0.54086">
        <ele>587</ele>
        <time>2018-03-18T12:14:11.000Z</time>
      </trkpt>
      <trkpt lat="43.03283" lon="0.54086">
        <ele>587</ele>
        <time>2018-03-18T12:14:13.000Z</time>
      </trkpt>
      <trkpt lat="43.03284" lon="0.54086">
        <ele>587</ele>
        <time>2018-03-18T12:14:15.000Z</time>
      </trkpt>
      <trkpt lat="43.03286" lon="0.54086">
        <ele>587</ele>
        <time>2018-03-18T12:14:17.000Z</time>
      </trkpt>
      <trkpt lat="43.03288" lon="0.54085">
        <ele>588</ele>
        <time>2018-03-18T12:14:19.000Z</time>
      </trkpt>
      <trkpt lat="43.03289" lon="0.54084">
        <ele>588</ele>
        <time>2018-03-18T12:14:21.000Z</time>
      </trkpt>
      <trkpt lat="43.0329" lon="0.54084">
        <ele>589</ele>
        <time>2018-03-18T12:14:23.000Z</time>
      </trkpt>
      <trkpt lat="43.03291" lon="0.54083">
        <ele>589</ele>
        <time>2018-03-18T12:14:25.000Z</time>
      </trkpt>
      <trkpt lat="43.03291" lon="0.54082">
        <ele>589</ele>
        <time>2018-03-18T12:14:27.000Z</time>
      </trkpt>
      <trkpt lat="43.03291" lon="0.54081">
        <ele>589</ele>
        <time>2018-03-18T12:14:29.000Z</time>
      </trkpt>
      <trkpt lat="43.03291" lon="0.54083">
        <ele>589</ele>
        <time>2018-03-18T12:14:31.000Z</time>
      </trkpt>
      <trkpt lat="43.03291" lon="0.54083">
        <ele>589</ele>
        <time>2018-03-18T12:14:33.000Z</time>
      </trkpt>
      <trkpt lat="43.03292" lon="0.54084">
        <ele>589</ele>
        <time>2018-03-18T12:14:35.000Z</time>
      </trkpt>
      <trkpt lat="43.03293" lon="0.54083">
        <ele>589</ele>
        <time>2018-03-18T12:14:37.000Z</time>
      </trkpt>
      <trkpt lat="43.03293" lon="0.54083">
        <ele>589</ele>
        <time>2018-03-18T12:14:39.000Z</time>
      </trkpt>
      <trkpt lat="43.03293" lon="0.54083">
        <ele>589</ele>
        <time>2018-03-18T12:14:41.000Z</time>
      </trkpt>
      <trkpt lat="43.03293" lon="0.54084">
        <ele>589</ele>
        <time>2018-03-18T12:14:43.000Z</time>
      </trkpt>
      <trkpt lat="43.03294" lon="0.54084">
        <ele>589</ele>
        <time>2018-03-18T12:14:45.000Z</time>
      </trkpt>
      <trkpt lat="43.03294" lon="0.54084">
        <ele>589</ele>
        <time>2018-03-18T12:14:47.000Z</time>
      </trkpt>
      <trkpt lat="43.03293" lon="0.54084">
        <ele>589</ele>
        <time>2018-03-18T12:14:49.000Z</time>
      </trkpt>
      <trkpt lat="43.03293" lon="0.54084">
        <ele>589</ele>
        <time>2018-03-18T12:14:51.000Z</time>
      </trkpt>
      <trkpt lat="43.03293" lon="0.54085">
        <ele>589</ele>
        <time>2018-03-18T12:14:53.000Z</time>
      </trkpt>
      <trkpt lat="43.03293" lon="0.54085">
        <ele>589</ele>
        <time>2018-03-18T12:14:55.000Z</time>
      </trkpt>
      <trkpt lat="43.03293" lon="0.54085">
        <ele>589</ele>
        <time>2018-03-18T12:14:57.000Z</time>
      </trkpt>
      <trkpt lat="43.03293" lon="0.54085">
        <ele>589</ele>
        <time>2018-03-18T12:14:59.000Z</time>
      </trkpt>
      <trkpt lat="43.03293" lon="0.54085">
        <ele>589</ele>
        <time>2018-03-18T12:15:01.000Z</time>
      </trkpt>
      <trkpt lat="43.03293" lon="0.54085">
        <ele>589</ele>
        <time>2018-03-18T12:15:03.000Z</time>
      </trkpt>
      <trkpt lat="43.03293" lon="0.54085">
        <ele>589</ele>
        <time>2018-03-18T12:15:05.000Z</time>
      </trkpt>
      <trkpt lat="43.03293" lon="0.54086">
        <ele>588</ele>
        <time>2018-03-18T12:15:07.000Z</time>
      </trkpt>
      <trkpt lat="43.03292" lon="0.54086">
        <ele>588</ele>
        <time>2018-03-18T12:15:09.000Z</time>
      </trkpt>
      <trkpt lat="43.03292" lon="0.54086">
        <ele>588</ele>
        <time>2018-03-18T12:15:11.000Z</time>
      </trkpt>
      <trkpt lat="43.03292" lon="0.54086">
        <ele>588</ele>
        <time>2018-03-18T12:15:13.000Z</time>
      </trkpt>
      <trkpt lat="43.03292" lon="0.54086">
        <ele>588</ele>
        <time>2018-03-18T12:15:15.000Z</time>
      </trkpt>
      <trkpt lat="43.03291" lon="0.54086">
        <ele>588</ele>
        <time>2018-03-18T12:15:17.000Z</time>
      </trkpt>
      <trkpt lat="43.03292" lon="0.54086">
        <ele>588</ele>
        <time>2018-03-18T12:15:19.000Z</time>
      </trkpt>
      <trkpt lat="43.03291" lon="0.54086">
        <ele>588</ele>
        <time>2018-03-18T12:15:21.000Z</time>
      </trkpt>
      <trkpt lat="43.03292" lon="0.54086">
        <ele>588</ele>
        <time>2018-03-18T12:15:23.000Z</time>
      </trkpt>
      <trkpt lat="43.03292" lon="0.54086">
        <ele>588</ele>
        <time>2018-03-18T12:15:25.000Z</time>
      </trkpt>
      <trkpt lat="43.03292" lon="0.54086">
        <ele>588</ele>
        <time>2018-03-18T12:15:27.000Z</time>
      </trkpt>
      <trkpt lat="43.03291" lon="0.54086">
        <ele>588</ele>
        <time>2018-03-18T12:15:29.000Z</time>
      </trkpt>
      <trkpt lat="43.03292" lon="0.54086">
        <ele>588</ele>
        <time>2018-03-18T12:15:31.000Z</time>
      </trkpt>
      <trkpt lat="43.03292" lon="0.54086">
        <ele>588</ele>
        <time>2018-03-18T12:15:33.000Z</time>
      </trkpt>
      <trkpt lat="43.03292" lon="0.54086">
        <ele>588</ele>
        <time>2018-03-18T12:15:35.000Z</time>
      </trkpt>
      <trkpt lat="43.03292" lon="0.54085">
        <ele>588</ele>
        <time>2018-03-18T12:15:37.000Z</time>
      </trkpt>
      <trkpt lat="43.03292" lon="0.54085">
        <ele>589</ele>
        <time>2018-03-18T12:15:39.000Z</time>
      </trkpt>
      <trkpt lat="43.03294" lon="0.54084">
        <ele>589</ele>
        <time>2018-03-18T12:15:41.000Z</time>
      </trkpt>
      <trkpt lat="43.03294" lon="0.54084">
        <ele>589</ele>
        <time>2018-03-18T12:15:43.000Z</time>
      </trkpt>
      <trkpt lat="43.03294" lon="0.54084">
        <ele>589</ele>
        <time>2018-03-18T12:15:45.000Z</time>
      </trkpt>
      <trkpt lat="43.03294" lon="0.54085">
        <ele>589</ele>
        <time>2018-03-18T12:15:47.000Z</time>
      </trkpt>
      <trkpt lat="43.03294" lon="0.54085">
        <ele>589</ele>
        <time>2018-03-18T12:15:49.000Z</time>
      </trkpt>
      <trkpt lat="43.03295" lon="0.54085">
        <ele>589</ele>
        <time>2018-03-18T12:15:51.000Z</time>
      </trkpt>
      <trkpt lat="43.03295" lon="0.54087">
        <ele>588</ele>
        <time>2018-03-18T12:15:53.000Z</time>
      </trkpt>
      <trkpt lat="43.03295" lon="0.54088">
        <ele>588</ele>
        <time>2018-03-18T12:15:55.000Z</time>
      </trkpt>
      <trkpt lat="43.03295" lon="0.54088">
        <ele>588</ele>
        <time>2018-03-18T12:15:57.000Z</time>
      </trkpt>
      <trkpt lat="43.03295" lon="0.54088">
        <ele>588</ele>
        <time>2018-03-18T12:15:59.000Z</time>
      </trkpt>
      <trkpt lat="43.03296" lon="0.54089">
        <ele>588</ele>
        <time>2018-03-18T12:16:01.000Z</time>
      </trkpt>
      <trkpt lat="43.03297" lon="0.54089">
        <ele>588</ele>
        <time>2018-03-18T12:16:03.000Z</time>
      </trkpt>
      <trkpt lat="43.03298" lon="0.5409">
        <ele>588</ele>
        <time>2018-03-18T12:16:05.000Z</time>
      </trkpt>
      <trkpt lat="43.03298" lon="0.5409">
        <ele>588</ele>
        <time>2018-03-18T12:16:07.000Z</time>
      </trkpt>
      <trkpt lat="43.03299" lon="0.54091">
        <ele>588</ele>
        <time>2018-03-18T12:16:09.000Z</time>
      </trkpt>
      <trkpt lat="43.03299" lon="0.54091">
        <ele>588</ele>
        <time>2018-03-18T12:16:11.000Z</time>
      </trkpt>
      <trkpt lat="43.03299" lon="0.54091">
        <ele>588</ele>
        <time>2018-03-18T12:16:13.000Z</time>
      </trkpt>
      <trkpt lat="43.03299" lon="0.54092">
        <ele>588</ele>
        <time>2018-03-18T12:16:15.000Z</time>
      </trkpt>
      <trkpt lat="43.03299" lon="0.54092">
        <ele>588</ele>
        <time>2018-03-18T12:16:17.000Z</time>
      </trkpt>
      <trkpt lat="43.03299" lon="0.54093">
        <ele>588</ele>
        <time>2018-03-18T12:16:19.000Z</time>
      </trkpt>
      <trkpt lat="43.03298" lon="0.54092">
        <ele>588</ele>
        <time>2018-03-18T12:16:21.000Z</time>
      </trkpt>
      <trkpt lat="43.03298" lon="0.54092">
        <ele>588</ele>
        <time>2018-03-18T12:16:23.000Z</time>
      </trkpt>
      <trkpt lat="43.03299" lon="0.54093">
        <ele>588</ele>
        <time>2018-03-18T12:16:25.000Z</time>
      </trkpt>
      <trkpt lat="43.033" lon="0.54092">
        <ele>588</ele>
        <time>2018-03-18T12:16:27.000Z</time>
      </trkpt>
      <trkpt lat="43.03301" lon="0.54092">
        <ele>588</ele>
        <time>2018-03-18T12:16:29.000Z</time>
      </trkpt>
      <trkpt lat="43.03303" lon="0.54092">
        <ele>588</ele>
        <time>2018-03-18T12:16:31.000Z</time>
      </trkpt>
      <trkpt lat="43.03304" lon="0.54091">
        <ele>588</ele>
        <time>2018-03-18T12:16:33.000Z</time>
      </trkpt>
      <trkpt lat="43.03305" lon="0.54091">
        <ele>588</ele>
        <time>2018-03-18T12:16:35.000Z</time>
      </trkpt>
      <trkpt lat="43.03306" lon="0.54091">
        <ele>589</ele>
        <time>2018-03-18T12:16:37.000Z</time>
      </trkpt>
      <trkpt lat="43.03307" lon="0.54091">
        <ele>589</ele>
        <time>2018-03-18T12:16:39.000Z</time>
      </trkpt>
      <trkpt lat="43.03309" lon="0.54091">
        <ele>589</ele>
        <time>2018-03-18T12:16:41.000Z</time>
      </trkpt>
      <trkpt lat="43.03309" lon="0.54091">
        <ele>589</ele>
        <time>2018-03-18T12:16:43.000Z</time>
      </trkpt>
      <trkpt lat="43.03311" lon="0.5409">
        <ele>589</ele>
        <time>2018-03-18T12:16:45.000Z</time>
      </trkpt>
      <trkpt lat="43.03312" lon="0.5409">
        <ele>589</ele>
        <time>2018-03-18T12:16:47.000Z</time>
      </trkpt>
      <trkpt lat="43.03313" lon="0.54089">
        <ele>589</ele>
        <time>2018-03-18T12:16:49.000Z</time>
      </trkpt>
      <trkpt lat="43.03313" lon="0.54089">
        <ele>589</ele>
        <time>2018-03-18T12:16:51.000Z</time>
      </trkpt>
      <trkpt lat="43.03313" lon="0.54089">
        <ele>589</ele>
        <time>2018-03-18T12:16:53.000Z</time>
      </trkpt>
      <trkpt lat="43.03314" lon="0.54089">
        <ele>589</ele>
        <time>2018-03-18T12:16:55.000Z</time>
      </trkpt>
      <trkpt lat="43.03316" lon="0.54088">
        <ele>590</ele>
        <time>2018-03-18T12:16:57.000Z</time>
      </trkpt>
      <trkpt lat="43.03317" lon="0.54088">
        <ele>590</ele>
        <time>2018-03-18T12:16:59.000Z</time>
      </trkpt>
      <trkpt lat="43.03318" lon="0.54088">
        <ele>590</ele>
        <time>2018-03-18T12:17:01.000Z</time>
      </trkpt>
      <trkpt lat="43.0332" lon="0.54087">
        <ele>590</ele>
        <time>2018-03-18T12:17:03.000Z</time>
      </trkpt>
      <trkpt lat="43.03321" lon="0.54087">
        <ele>590</ele>
        <time>2018-03-18T12:17:05.000Z</time>
      </trkpt>
      <trkpt lat="43.03321" lon="0.54086">
        <ele>590</ele>
        <time>2018-03-18T12:17:07.000Z</time>
      </trkpt>
      <trkpt lat="43.03322" lon="0.54086">
        <ele>590</ele>
        <time>2018-03-18T12:17:09.000Z</time>
      </trkpt>
      <trkpt lat="43.03323" lon="0.54085">
        <ele>590</ele>
        <time>2018-03-18T12:17:11.000Z</time>
      </trkpt>
      <trkpt lat="43.03324" lon="0.54085">
        <ele>591</ele>
        <time>2018-03-18T12:17:13.000Z</time>
      </trkpt>
      <trkpt lat="43.03325" lon="0.54084">
        <ele>591</ele>
        <time>2018-03-18T12:17:15.000Z</time>
      </trkpt>
      <trkpt lat="43.03327" lon="0.54084">
        <ele>591</ele>
        <time>2018-03-18T12:17:17.000Z</time>
      </trkpt>
      <trkpt lat="43.03328" lon="0.54083">
        <ele>591</ele>
        <time>2018-03-18T12:17:19.000Z</time>
      </trkpt>
      <trkpt lat="43.03329" lon="0.54082">
        <ele>591</ele>
        <time>2018-03-18T12:17:21.000Z</time>
      </trkpt>
      <trkpt lat="43.0333" lon="0.5408">
        <ele>592</ele>
        <time>2018-03-18T12:17:23.000Z</time>
      </trkpt>
      <trkpt lat="43.03329" lon="0.54079">
        <ele>592</ele>
        <time>2018-03-18T12:17:25.000Z</time>
      </trkpt>
      <trkpt lat="43.03329" lon="0.54078">
        <ele>592</ele>
        <time>2018-03-18T12:17:27.000Z</time>
      </trkpt>
      <trkpt lat="43.03329" lon="0.54077">
        <ele>592</ele>
        <time>2018-03-18T12:17:29.000Z</time>
      </trkpt>
      <trkpt lat="43.03329" lon="0.54076">
        <ele>592</ele>
        <time>2018-03-18T12:17:31.000Z</time>
      </trkpt>
      <trkpt lat="43.0333" lon="0.54075">
        <ele>592</ele>
        <time>2018-03-18T12:17:33.000Z</time>
      </trkpt>
      <trkpt lat="43.0333" lon="0.54074">
        <ele>593</ele>
        <time>2018-03-18T12:17:35.000Z</time>
      </trkpt>
      <trkpt lat="43.0333" lon="0.54074">
        <ele>593</ele>
        <time>2018-03-18T12:17:37.000Z</time>
      </trkpt>
      <trkpt lat="43.0333" lon="0.54074">
        <ele>593</ele>
        <time>2018-03-18T12:17:39.000Z</time>
      </trkpt>
      <trkpt lat="43.0333" lon="0.54073">
        <ele>593</ele>
        <time>2018-03-18T12:17:41.000Z</time>
      </trkpt>
      <trkpt lat="43.0333" lon="0.54073">
        <ele>593</ele>
        <time>2018-03-18T12:17:43.000Z</time>
      </trkpt>
      <trkpt lat="43.0333" lon="0.54073">
        <ele>593</ele>
        <time>2018-03-18T12:17:45.000Z</time>
      </trkpt>
      <trkpt lat="43.0333" lon="0.54073">
        <ele>593</ele>
        <time>2018-03-18T12:17:47.000Z</time>
      </trkpt>
      <trkpt lat="43.03331" lon="0.54072">
        <ele>593</ele>
        <time>2018-03-18T12:17:49.000Z</time>
      </trkpt>
      <trkpt lat="43.03332" lon="0.54071">
        <ele>593</ele>
        <time>2018-03-18T12:17:51.000Z</time>
      </trkpt>
      <trkpt lat="43.03333" lon="0.54069">
        <ele>594</ele>
        <time>2018-03-18T12:17:53.000Z</time>
      </trkpt>
      <trkpt lat="43.03334" lon="0.54068">
        <ele>594</ele>
        <time>2018-03-18T12:17:55.000Z</time>
      </trkpt>
      <trkpt lat="43.03334" lon="0.54067">
        <ele>594</ele>
        <time>2018-03-18T12:17:57.000Z</time>
      </trkpt>
      <trkpt lat="43.03335" lon="0.54067">
        <ele>594</ele>
        <time>2018-03-18T12:17:59.000Z</time>
      </trkpt>
      <trkpt lat="43.03335" lon="0.54066">
        <ele>594</ele>
        <time>2018-03-18T12:18:01.000Z</time>
      </trkpt>
      <trkpt lat="43.03335" lon="0.54066">
        <ele>594</ele>
        <time>2018-03-18T12:18:03.000Z</time>
      </trkpt>
      <trkpt lat="43.03335" lon="0.54066">
        <ele>594</ele>
        <time>2018-03-18T12:18:05.000Z</time>
      </trkpt>
      <trkpt lat="43.03334" lon="0.54067">
        <ele>594</ele>
        <time>2018-03-18T12:18:07.000Z</time>
      </trkpt>
      <trkpt lat="43.03334" lon="0.54067">
        <ele>594</ele>
        <time>2018-03-18T12:18:09.000Z</time>
      </trkpt>
      <trkpt lat="43.03334" lon="0.54067">
        <ele>594</ele>
        <time>2018-03-18T12:18:11.000Z</time>
      </trkpt>
      <trkpt lat="43.03334" lon="0.54067">
        <ele>594</ele>
        <time>2018-03-18T12:18:13.000Z</time>
      </trkpt>
      <trkpt lat="43.03333" lon="0.54068">
        <ele>594</ele>
        <time>2018-03-18T12:18:15.000Z</time>
      </trkpt>
      <trkpt lat="43.03333" lon="0.54068">
        <ele>594</ele>
        <time>2018-03-18T12:18:17.000Z</time>
      </trkpt>
      <trkpt lat="43.03333" lon="0.54068">
        <ele>594</ele>
        <time>2018-03-18T12:18:19.000Z</time>
      </trkpt>
      <trkpt lat="43.03333" lon="0.54067">
        <ele>594</ele>
        <time>2018-03-18T12:18:21.000Z</time>
      </trkpt>
      <trkpt lat="43.03334" lon="0.54066">
        <ele>594</ele>
        <time>2018-03-18T12:18:23.000Z</time>
      </trkpt>
      <trkpt lat="43.03334" lon="0.54064">
        <ele>594</ele>
        <time>2018-03-18T12:18:25.000Z</time>
      </trkpt>
      <trkpt lat="43.03336" lon="0.54062">
        <ele>595</ele>
        <time>2018-03-18T12:18:27.000Z</time>
      </trkpt>
      <trkpt lat="43.03336" lon="0.54061">
        <ele>595</ele>
        <time>2018-03-18T12:18:29.000Z</time>
      </trkpt>
      <trkpt lat="43.03337" lon="0.54059">
        <ele>595</ele>
        <time>2018-03-18T12:18:31.000Z</time>
      </trkpt>
      <trkpt lat="43.03338" lon="0.54058">
        <ele>596</ele>
        <time>2018-03-18T12:18:33.000Z</time>
      </trkpt>
      <trkpt lat="43.03338" lon="0.54057">
        <ele>596</ele>
        <time>2018-03-18T12:18:35.000Z</time>
      </trkpt>
      <trkpt lat="43.03338" lon="0.54056">
        <ele>596</ele>
        <time>2018-03-18T12:18:37.000Z</time>
      </trkpt>
      <trkpt lat="43.03338" lon="0.54056">
        <ele>596</ele>
        <time>2018-03-18T12:18:39.000Z</time>
      </trkpt>
      <trkpt lat="43.03338" lon="0.54057">
        <ele>596</ele>
        <time>2018-03-18T12:18:41.000Z</time>
      </trkpt>
      <trkpt lat="43.03338" lon="0.54057">
        <ele>596</ele>
        <time>2018-03-18T12:18:43.000Z</time>
      </trkpt>
      <trkpt lat="43.03339" lon="0.54057">
        <ele>596</ele>
        <time>2018-03-18T12:18:45.000Z</time>
      </trkpt>
      <trkpt lat="43.03339" lon="0.54057">
        <ele>596</ele>
        <time>2018-03-18T12:18:47.000Z</time>
      </trkpt>
      <trkpt lat="43.03339" lon="0.54057">
        <ele>596</ele>
        <time>2018-03-18T12:18:49.000Z</time>
      </trkpt>
      <trkpt lat="43.03339" lon="0.54057">
        <ele>596</ele>
        <time>2018-03-18T12:18:51.000Z</time>
      </trkpt>
      <trkpt lat="43.03339" lon="0.54057">
        <ele>596</ele>
        <time>2018-03-18T12:18:53.000Z</time>
      </trkpt>
      <trkpt lat="43.03339" lon="0.54057">
        <ele>596</ele>
        <time>2018-03-18T12:18:55.000Z</time>
      </trkpt>
      <trkpt lat="43.03339" lon="0.54057">
        <ele>596</ele>
        <time>2018-03-18T12:18:57.000Z</time>
      </trkpt>
      <trkpt lat="43.03339" lon="0.54058">
        <ele>596</ele>
        <time>2018-03-18T12:18:59.000Z</time>
      </trkpt>
      <trkpt lat="43.03337" lon="0.54059">
        <ele>595</ele>
        <time>2018-03-18T12:19:01.000Z</time>
      </trkpt>
      <trkpt lat="43.03337" lon="0.54059">
        <ele>595</ele>
        <time>2018-03-18T12:19:03.000Z</time>
      </trkpt>
      <trkpt lat="43.03336" lon="0.5406">
        <ele>595</ele>
        <time>2018-03-18T12:19:05.000Z</time>
      </trkpt>
      <trkpt lat="43.03336" lon="0.5406">
        <ele>595</ele>
        <time>2018-03-18T12:19:07.000Z</time>
      </trkpt>
      <trkpt lat="43.03335" lon="0.54061">
        <ele>595</ele>
        <time>2018-03-18T12:19:09.000Z</time>
      </trkpt>
      <trkpt lat="43.03335" lon="0.54061">
        <ele>595</ele>
        <time>2018-03-18T12:19:11.000Z</time>
      </trkpt>
      <trkpt lat="43.03336" lon="0.54062">
        <ele>595</ele>
        <time>2018-03-18T12:19:13.000Z</time>
      </trkpt>
      <trkpt lat="43.03336" lon="0.54063">
        <ele>595</ele>
        <time>2018-03-18T12:19:15.000Z</time>
      </trkpt>
      <trkpt lat="43.03336" lon="0.54063">
        <ele>595</ele>
        <time>2018-03-18T12:19:17.000Z</time>
      </trkpt>
      <trkpt lat="43.03336" lon="0.54063">
        <ele>595</ele>
        <time>2018-03-18T12:19:19.000Z</time>
      </trkpt>
      <trkpt lat="43.03335" lon="0.54063">
        <ele>595</ele>
        <time>2018-03-18T12:19:21.000Z</time>
      </trkpt>
      <trkpt lat="43.03334" lon="0.54064">
        <ele>595</ele>
        <time>2018-03-18T12:19:23.000Z</time>
      </trkpt>
      <trkpt lat="43.03335" lon="0.54063">
        <ele>595</ele>
        <time>2018-03-18T12:19:25.000Z</time>
      </trkpt>
      <trkpt lat="43.03335" lon="0.54062">
        <ele>595</ele>
        <time>2018-03-18T12:19:27.000Z</time>
      </trkpt>
      <trkpt lat="43.03336" lon="0.54062">
        <ele>595</ele>
        <time>2018-03-18T12:19:29.000Z</time>
      </trkpt>
      <trkpt lat="43.03336" lon="0.54062">
        <ele>595</ele>
        <time>2018-03-18T12:19:31.000Z</time>
      </trkpt>
      <trkpt lat="43.03337" lon="0.54061">
        <ele>595</ele>
        <time>2018-03-18T12:19:33.000Z</time>
      </trkpt>
      <trkpt lat="43.03337" lon="0.5406">
        <ele>595</ele>
        <time>2018-03-18T12:19:35.000Z</time>
      </trkpt>
      <trkpt lat="43.03338" lon="0.5406">
        <ele>595</ele>
        <time>2018-03-18T12:19:37.000Z</time>
      </trkpt>
      <trkpt lat="43.03338" lon="0.54059">
        <ele>595</ele>
        <time>2018-03-18T12:19:39.000Z</time>
      </trkpt>
      <trkpt lat="43.03338" lon="0.54059">
        <ele>596</ele>
        <time>2018-03-18T12:19:41.000Z</time>
      </trkpt>
      <trkpt lat="43.03339" lon="0.54058">
        <ele>596</ele>
        <time>2018-03-18T12:19:43.000Z</time>
      </trkpt>
      <trkpt lat="43.03339" lon="0.54057">
        <ele>596</ele>
        <time>2018-03-18T12:19:45.000Z</time>
      </trkpt>
      <trkpt lat="43.03339" lon="0.54057">
        <ele>596</ele>
        <time>2018-03-18T12:19:47.000Z</time>
      </trkpt>
      <trkpt lat="43.03339" lon="0.54057">
        <ele>596</ele>
        <time>2018-03-18T12:19:49.000Z</time>
      </trkpt>
      <trkpt lat="43.03339" lon="0.54057">
        <ele>596</ele>
        <time>2018-03-18T12:19:51.000Z</time>
      </trkpt>
      <trkpt lat="43.0334" lon="0.54057">
        <ele>596</ele>
        <time>2018-03-18T12:19:53.000Z</time>
      </trkpt>
      <trkpt lat="43.0334" lon="0.54057">
        <ele>596</ele>
        <time>2018-03-18T12:19:55.000Z</time>
      </trkpt>
      <trkpt lat="43.03341" lon="0.54056">
        <ele>596</ele>
        <time>2018-03-18T12:19:57.000Z</time>
      </trkpt>
      <trkpt lat="43.0334" lon="0.54056">
        <ele>596</ele>
        <time>2018-03-18T12:19:59.000Z</time>
      </trkpt>
      <trkpt lat="43.0334" lon="0.54056">
        <ele>596</ele>
        <time>2018-03-18T12:20:01.000Z</time>
      </trkpt>
      <trkpt lat="43.03341" lon="0.54057">
        <ele>596</ele>
        <time>2018-03-18T12:20:03.000Z</time>
      </trkpt>
      <trkpt lat="43.03341" lon="0.54057">
        <ele>596</ele>
        <time>2018-03-18T12:20:05.000Z</time>
      </trkpt>
      <trkpt lat="43.03341" lon="0.54058">
        <ele>596</ele>
        <time>2018-03-18T12:20:07.000Z</time>
      </trkpt>
      <trkpt lat="43.03342" lon="0.54058">
        <ele>596</ele>
        <time>2018-03-18T12:20:09.000Z</time>
      </trkpt>
      <trkpt lat="43.03341" lon="0.54058">
        <ele>596</ele>
        <time>2018-03-18T12:20:11.000Z</time>
      </trkpt>
      <trkpt lat="43.03341" lon="0.54058">
        <ele>596</ele>
        <time>2018-03-18T12:20:13.000Z</time>
      </trkpt>
      <trkpt lat="43.03341" lon="0.54058">
        <ele>596</ele>
        <time>2018-03-18T12:20:15.000Z</time>
      </trkpt>
      <trkpt lat="43.03341" lon="0.54058">
        <ele>596</ele>
        <time>2018-03-18T12:20:17.000Z</time>
      </trkpt>
      <trkpt lat="43.03341" lon="0.54059">
        <ele>596</ele>
        <time>2018-03-18T12:20:19.000Z</time>
      </trkpt>
      <trkpt lat="43.0334" lon="0.54059">
        <ele>596</ele>
        <time>2018-03-18T12:20:21.000Z</time>
      </trkpt>
      <trkpt lat="43.0334" lon="0.54059">
        <ele>596</ele>
        <time>2018-03-18T12:20:23.000Z</time>
      </trkpt>
      <trkpt lat="43.0334" lon="0.54059">
        <ele>596</ele>
        <time>2018-03-18T12:20:25.000Z</time>
      </trkpt>
      <trkpt lat="43.0334" lon="0.5406">
        <ele>595</ele>
        <time>2018-03-18T12:20:27.000Z</time>
      </trkpt>
      <trkpt lat="43.0334" lon="0.54061">
        <ele>595</ele>
        <time>2018-03-18T12:20:29.000Z</time>
      </trkpt>
      <trkpt lat="43.0334" lon="0.54061">
        <ele>595</ele>
        <time>2018-03-18T12:20:31.000Z</time>
      </trkpt>
      <trkpt lat="43.0334" lon="0.54061">
        <ele>595</ele>
        <time>2018-03-18T12:20:33.000Z</time>
      </trkpt>
      <trkpt lat="43.0334" lon="0.54061">
        <ele>595</ele>
        <time>2018-03-18T12:20:35.000Z</time>
      </trkpt>
      <trkpt lat="43.0334" lon="0.54061">
        <ele>595</ele>
        <time>2018-03-18T12:20:37.000Z</time>
      </trkpt>
      <trkpt lat="43.0334" lon="0.54062">
        <ele>595</ele>
        <time>2018-03-18T12:20:39.000Z</time>
      </trkpt>
      <trkpt lat="43.0334" lon="0.54063">
        <ele>595</ele>
        <time>2018-03-18T12:20:41.000Z</time>
      </trkpt>
      <trkpt lat="43.0334" lon="0.54063">
        <ele>595</ele>
        <time>2018-03-18T12:20:43.000Z</time>
      </trkpt>
      <trkpt lat="43.03339" lon="0.54063">
        <ele>595</ele>
        <time>2018-03-18T12:20:45.000Z</time>
      </trkpt>
      <trkpt lat="43.03339" lon="0.54062">
        <ele>595</ele>
        <time>2018-03-18T12:20:47.000Z</time>
      </trkpt>
      <trkpt lat="43.03339" lon="0.54061">
        <ele>595</ele>
        <time>2018-03-18T12:20:49.000Z</time>
      </trkpt>
      <trkpt lat="43.0334" lon="0.54061">
        <ele>595</ele>
        <time>2018-03-18T12:20:51.000Z</time>
      </trkpt>
      <trkpt lat="43.0334" lon="0.54061">
        <ele>595</ele>
        <time>2018-03-18T12:20:53.000Z</time>
      </trkpt>
      <trkpt lat="43.0334" lon="0.54061">
        <ele>595</ele>
        <time>2018-03-18T12:20:55.000Z</time>
      </trkpt>
      <trkpt lat="43.0334" lon="0.54061">
        <ele>595</ele>
        <time>2018-03-18T12:20:57.000Z</time>
      </trkpt>
      <trkpt lat="43.03341" lon="0.5406">
        <ele>595</ele>
        <time>2018-03-18T12:20:59.000Z</time>
      </trkpt>
      <trkpt lat="43.03341" lon="0.5406">
        <ele>595</ele>
        <time>2018-03-18T12:21:01.000Z</time>
      </trkpt>
      <trkpt lat="43.03341" lon="0.5406">
        <ele>595</ele>
        <time>2018-03-18T12:21:03.000Z</time>
      </trkpt>
      <trkpt lat="43.03341" lon="0.5406">
        <ele>596</ele>
        <time>2018-03-18T12:21:05.000Z</time>
      </trkpt>
      <trkpt lat="43.03341" lon="0.5406">
        <ele>596</ele>
        <time>2018-03-18T12:21:07.000Z</time>
      </trkpt>
      <trkpt lat="43.03341" lon="0.54059">
        <ele>596</ele>
        <time>2018-03-18T12:21:09.000Z</time>
      </trkpt>
      <trkpt lat="43.03341" lon="0.54059">
        <ele>596</ele>
        <time>2018-03-18T12:21:11.000Z</time>
      </trkpt>
      <trkpt lat="43.03341" lon="0.54059">
        <ele>596</ele>
        <time>2018-03-18T12:21:13.000Z</time>
      </trkpt>
      <trkpt lat="43.03341" lon="0.54059">
        <ele>596</ele>
        <time>2018-03-18T12:21:15.000Z</time>
      </trkpt>
      <trkpt lat="43.03341" lon="0.54059">
        <ele>596</ele>
        <time>2018-03-18T12:21:17.000Z</time>
      </trkpt>
      <trkpt lat="43.03341" lon="0.5406">
        <ele>596</ele>
        <time>2018-03-18T12:21:19.000Z</time>
      </trkpt>
      <trkpt lat="43.03341" lon="0.5406">
        <ele>595</ele>
        <time>2018-03-18T12:21:21.000Z</time>
      </trkpt>
      <trkpt lat="43.03341" lon="0.54061">
        <ele>595</ele>
        <time>2018-03-18T12:21:23.000Z</time>
      </trkpt>
      <trkpt lat="43.03341" lon="0.54061">
        <ele>595</ele>
        <time>2018-03-18T12:21:25.000Z</time>
      </trkpt>
      <trkpt lat="43.03341" lon="0.54061">
        <ele>595</ele>
        <time>2018-03-18T12:21:27.000Z</time>
      </trkpt>
      <trkpt lat="43.03341" lon="0.54061">
        <ele>595</ele>
        <time>2018-03-18T12:21:29.000Z</time>
      </trkpt>
      <trkpt lat="43.03342" lon="0.54061">
        <ele>595</ele>
        <time>2018-03-18T12:21:31.000Z</time>
      </trkpt>
      <trkpt lat="43.03342" lon="0.54061">
        <ele>595</ele>
        <time>2018-03-18T12:21:33.000Z</time>
      </trkpt>
      <trkpt lat="43.03342" lon="0.54061">
        <ele>595</ele>
        <time>2018-03-18T12:21:35.000Z</time>
      </trkpt>
      <trkpt lat="43.03343" lon="0.54061">
        <ele>595</ele>
        <time>2018-03-18T12:21:37.000Z</time>
      </trkpt>
      <trkpt lat="43.03343" lon="0.54061">
        <ele>595</ele>
        <time>2018-03-18T12:21:39.000Z</time>
      </trkpt>
      <trkpt lat="43.03343" lon="0.54061">
        <ele>595</ele>
        <time>2018-03-18T12:21:41.000Z</time>
      </trkpt>
      <trkpt lat="43.03344" lon="0.54062">
        <ele>595</ele>
        <time>2018-03-18T12:21:43.000Z</time>
      </trkpt>
      <trkpt lat="43.03344" lon="0.54062">
        <ele>595</ele>
        <time>2018-03-18T12:21:45.000Z</time>
      </trkpt>
      <trkpt lat="43.03344" lon="0.54063">
        <ele>595</ele>
        <time>2018-03-18T12:21:47.000Z</time>
      </trkpt>
      <trkpt lat="43.03345" lon="0.54063">
        <ele>595</ele>
        <time>2018-03-18T12:21:49.000Z</time>
      </trkpt>
      <trkpt lat="43.03345" lon="0.54063">
        <ele>595</ele>
        <time>2018-03-18T12:21:51.000Z</time>
      </trkpt>
      <trkpt lat="43.03345" lon="0.54063">
        <ele>595</ele>
        <time>2018-03-18T12:21:53.000Z</time>
      </trkpt>
      <trkpt lat="43.03345" lon="0.54064">
        <ele>595</ele>
        <time>2018-03-18T12:21:55.000Z</time>
      </trkpt>
      <trkpt lat="43.03345" lon="0.54063">
        <ele>595</ele>
        <time>2018-03-18T12:21:57.000Z</time>
      </trkpt>
      <trkpt lat="43.03345" lon="0.54064">
        <ele>595</ele>
        <time>2018-03-18T12:21:59.000Z</time>
      </trkpt>
      <trkpt lat="43.03345" lon="0.54064">
        <ele>595</ele>
        <time>2018-03-18T12:22:01.000Z</time>
      </trkpt>
      <trkpt lat="43.03344" lon="0.54064">
        <ele>595</ele>
        <time>2018-03-18T12:22:03.000Z</time>
      </trkpt>
      <trkpt lat="43.03344" lon="0.54065">
        <ele>595</ele>
        <time>2018-03-18T12:22:05.000Z</time>
      </trkpt>
      <trkpt lat="43.03344" lon="0.54064">
        <ele>595</ele>
        <time>2018-03-18T12:22:07.000Z</time>
      </trkpt>
      <trkpt lat="43.03344" lon="0.54064">
        <ele>595</ele>
        <time>2018-03-18T12:22:09.000Z</time>
      </trkpt>
      <trkpt lat="43.03344" lon="0.54065">
        <ele>595</ele>
        <time>2018-03-18T12:22:11.000Z</time>
      </trkpt>
      <trkpt lat="43.03344" lon="0.54065">
        <ele>595</ele>
        <time>2018-03-18T12:22:13.000Z</time>
      </trkpt>
      <trkpt lat="43.03344" lon="0.54065">
        <ele>595</ele>
        <time>2018-03-18T12:22:15.000Z</time>
      </trkpt>
      <trkpt lat="43.03343" lon="0.54066">
        <ele>595</ele>
        <time>2018-03-18T12:22:17.000Z</time>
      </trkpt>
      <trkpt lat="43.03341" lon="0.54066">
        <ele>594</ele>
        <time>2018-03-18T12:22:19.000Z</time>
      </trkpt>
      <trkpt lat="43.03339" lon="0.54066">
        <ele>594</ele>
        <time>2018-03-18T12:22:21.000Z</time>
      </trkpt>
      <trkpt lat="43.03339" lon="0.54066">
        <ele>594</ele>
        <time>2018-03-18T12:22:23.000Z</time>
      </trkpt>
      <trkpt lat="43.03338" lon="0.54066">
        <ele>594</ele>
        <time>2018-03-18T12:22:25.000Z</time>
      </trkpt>
      <trkpt lat="43.03338" lon="0.54067">
        <ele>594</ele>
        <time>2018-03-18T12:22:27.000Z</time>
      </trkpt>
      <trkpt lat="43.03338" lon="0.54066">
        <ele>594</ele>
        <time>2018-03-18T12:22:29.000Z</time>
      </trkpt>
      <trkpt lat="43.03337" lon="0.54066">
        <ele>594</ele>
        <time>2018-03-18T12:22:31.000Z</time>
      </trkpt>
      <trkpt lat="43.03337" lon="0.54067">
        <ele>594</ele>
        <time>2018-03-18T12:22:33.000Z</time>
      </trkpt>
      <trkpt lat="43.03336" lon="0.54068">
        <ele>594</ele>
        <time>2018-03-18T12:22:35.000Z</time>
      </trkpt>
      <trkpt lat="43.03337" lon="0.54068">
        <ele>594</ele>
        <time>2018-03-18T12:22:37.000Z</time>
      </trkpt>
      <trkpt lat="43.03336" lon="0.5407">
        <ele>594</ele>
        <time>2018-03-18T12:22:39.000Z</time>
      </trkpt>
      <trkpt lat="43.03336" lon="0.54069">
        <ele>594</ele>
        <time>2018-03-18T12:22:41.000Z</time>
      </trkpt>
      <trkpt lat="43.03336" lon="0.54069">
        <ele>594</ele>
        <time>2018-03-18T12:22:43.000Z</time>
      </trkpt>
      <trkpt lat="43.03336" lon="0.54068">
        <ele>594</ele>
        <time>2018-03-18T12:22:45.000Z</time>
      </trkpt>
      <trkpt lat="43.03336" lon="0.54067">
        <ele>594</ele>
        <time>2018-03-18T12:22:47.000Z</time>
      </trkpt>
      <trkpt lat="43.03337" lon="0.54067">
        <ele>594</ele>
        <time>2018-03-18T12:22:49.000Z</time>
      </trkpt>
      <trkpt lat="43.03337" lon="0.54066">
        <ele>594</ele>
        <time>2018-03-18T12:22:51.000Z</time>
      </trkpt>
      <trkpt lat="43.03337" lon="0.54066">
        <ele>594</ele>
        <time>2018-03-18T12:22:53.000Z</time>
      </trkpt>
      <trkpt lat="43.03336" lon="0.54066">
        <ele>594</ele>
        <time>2018-03-18T12:22:55.000Z</time>
      </trkpt>
      <trkpt lat="43.03336" lon="0.54066">
        <ele>594</ele>
        <time>2018-03-18T12:22:57.000Z</time>
      </trkpt>
      <trkpt lat="43.03336" lon="0.54066">
        <ele>594</ele>
        <time>2018-03-18T12:22:59.000Z</time>
      </trkpt>
      <trkpt lat="43.03336" lon="0.54067">
        <ele>594</ele>
        <time>2018-03-18T12:23:01.000Z</time>
      </trkpt>
      <trkpt lat="43.03335" lon="0.54066">
        <ele>594</ele>
        <time>2018-03-18T12:23:03.000Z</time>
      </trkpt>
      <trkpt lat="43.03335" lon="0.54066">
        <ele>594</ele>
        <time>2018-03-18T12:23:05.000Z</time>
      </trkpt>
      <trkpt lat="43.03335" lon="0.54066">
        <ele>594</ele>
        <time>2018-03-18T12:23:07.000Z</time>
      </trkpt>
      <trkpt lat="43.03335" lon="0.54066">
        <ele>594</ele>
        <time>2018-03-18T12:23:09.000Z</time>
      </trkpt>
      <trkpt lat="43.03335" lon="0.54065">
        <ele>594</ele>
        <time>2018-03-18T12:23:11.000Z</time>
      </trkpt>
      <trkpt lat="43.03335" lon="0.54065">
        <ele>594</ele>
        <time>2018-03-18T12:23:13.000Z</time>
      </trkpt>
      <trkpt lat="43.03335" lon="0.54065">
        <ele>594</ele>
        <time>2018-03-18T12:23:15.000Z</time>
      </trkpt>
      <trkpt lat="43.03335" lon="0.54064">
        <ele>594</ele>
        <time>2018-03-18T12:23:17.000Z</time>
      </trkpt>
      <trkpt lat="43.03335" lon="0.54064">
        <ele>595</ele>
        <time>2018-03-18T12:23:19.000Z</time>
      </trkpt>
      <trkpt lat="43.03335" lon="0.54064">
        <ele>594</ele>
        <time>2018-03-18T12:23:21.000Z</time>
      </trkpt>
      <trkpt lat="43.03335" lon="0.54064">
        <ele>595</ele>
        <time>2018-03-18T12:23:23.000Z</time>
      </trkpt>
      <trkpt lat="43.03335" lon="0.54064">
        <ele>594</ele>
        <time>2018-03-18T12:23:25.000Z</time>
      </trkpt>
      <trkpt lat="43.03334" lon="0.54064">
        <ele>594</ele>
        <time>2018-03-18T12:23:27.000Z</time>
      </trkpt>
      <trkpt lat="43.03334" lon="0.54064">
        <ele>594</ele>
        <time>2018-03-18T12:23:29.000Z</time>
      </trkpt>
      <trkpt lat="43.03334" lon="0.54064">
        <ele>594</ele>
        <time>2018-03-18T12:23:31.000Z</time>
      </trkpt>
      <trkpt lat="43.03333" lon="0.54065">
        <ele>594</ele>
        <time>2018-03-18T12:23:33.000Z</time>
      </trkpt>
      <trkpt lat="43.03333" lon="0.54066">
        <ele>594</ele>
        <time>2018-03-18T12:23:35.000Z</time>
      </trkpt>
      <trkpt lat="43.03332" lon="0.54066">
        <ele>594</ele>
        <time>2018-03-18T12:23:37.000Z</time>
      </trkpt>
      <trkpt lat="43.03332" lon="0.54066">
        <ele>594</ele>
        <time>2018-03-18T12:23:39.000Z</time>
      </trkpt>
      <trkpt lat="43.03332" lon="0.54065">
        <ele>594</ele>
        <time>2018-03-18T12:23:41.000Z</time>
      </trkpt>
      <trkpt lat="43.03332" lon="0.54064">
        <ele>594</ele>
        <time>2018-03-18T12:23:43.000Z</time>
      </trkpt>
      <trkpt lat="43.03333" lon="0.54063">
        <ele>595</ele>
        <time>2018-03-18T12:23:45.000Z</time>
      </trkpt>
      <trkpt lat="43.03334" lon="0.54062">
        <ele>595</ele>
        <time>2018-03-18T12:23:47.000Z</time>
      </trkpt>
      <trkpt lat="43.03335" lon="0.54061">
        <ele>595</ele>
        <time>2018-03-18T12:23:49.000Z</time>
      </trkpt>
      <trkpt lat="43.03336" lon="0.5406">
        <ele>595</ele>
        <time>2018-03-18T12:23:51.000Z</time>
      </trkpt>
      <trkpt lat="43.03337" lon="0.54059">
        <ele>595</ele>
        <time>2018-03-18T12:23:53.000Z</time>
      </trkpt>
      <trkpt lat="43.03337" lon="0.54057">
        <ele>596</ele>
        <time>2018-03-18T12:23:55.000Z</time>
      </trkpt>
      <trkpt lat="43.03337" lon="0.54056">
        <ele>596</ele>
        <time>2018-03-18T12:23:57.000Z</time>
      </trkpt>
      <trkpt lat="43.03337" lon="0.54056">
        <ele>596</ele>
        <time>2018-03-18T12:23:59.000Z</time>
      </trkpt>
      <trkpt lat="43.03337" lon="0.54056">
        <ele>596</ele>
        <time>2018-03-18T12:24:01.000Z</time>
      </trkpt>
      <trkpt lat="43.03337" lon="0.54056">
        <ele>596</ele>
        <time>2018-03-18T12:24:03.000Z</time>
      </trkpt>
      <trkpt lat="43.03337" lon="0.54055">
        <ele>596</ele>
        <time>2018-03-18T12:24:05.000Z</time>
      </trkpt>
      <trkpt lat="43.03337" lon="0.54055">
        <ele>596</ele>
        <time>2018-03-18T12:24:07.000Z</time>
      </trkpt>
      <trkpt lat="43.03337" lon="0.54056">
        <ele>596</ele>
        <time>2018-03-18T12:24:09.000Z</time>
      </trkpt>
      <trkpt lat="43.03337" lon="0.54056">
        <ele>596</ele>
        <time>2018-03-18T12:24:11.000Z</time>
      </trkpt>
      <trkpt lat="43.03338" lon="0.54056">
        <ele>596</ele>
        <time>2018-03-18T12:24:13.000Z</time>
      </trkpt>
      <trkpt lat="43.03339" lon="0.54057">
        <ele>596</ele>
        <time>2018-03-18T12:24:15.000Z</time>
      </trkpt>
      <trkpt lat="43.03339" lon="0.54058">
        <ele>596</ele>
        <time>2018-03-18T12:24:17.000Z</time>
      </trkpt>
      <trkpt lat="43.03339" lon="0.54059">
        <ele>596</ele>
        <time>2018-03-18T12:24:19.000Z</time>
      </trkpt>
      <trkpt lat="43.03339" lon="0.54059">
        <ele>596</ele>
        <time>2018-03-18T12:24:21.000Z</time>
      </trkpt>
      <trkpt lat="43.03339" lon="0.54059">
        <ele>596</ele>
        <time>2018-03-18T12:24:23.000Z</time>
      </trkpt>
      <trkpt lat="43.03339" lon="0.54059">
        <ele>595</ele>
        <time>2018-03-18T12:24:25.000Z</time>
      </trkpt>
      <trkpt lat="43.03339" lon="0.54059">
        <ele>595</ele>
        <time>2018-03-18T12:24:27.000Z</time>
      </trkpt>
      <trkpt lat="43.03339" lon="0.5406">
        <ele>595</ele>
        <time>2018-03-18T12:24:29.000Z</time>
      </trkpt>
      <trkpt lat="43.03339" lon="0.5406">
        <ele>595</ele>
        <time>2018-03-18T12:24:31.000Z</time>
      </trkpt>
      <trkpt lat="43.03339" lon="0.5406">
        <ele>595</ele>
        <time>2018-03-18T12:24:33.000Z</time>
      </trkpt>
      <trkpt lat="43.03339" lon="0.54061">
        <ele>595</ele>
        <time>2018-03-18T12:24:35.000Z</time>
      </trkpt>
      <trkpt lat="43.03339" lon="0.54061">
        <ele>595</ele>
        <time>2018-03-18T12:24:37.000Z</time>
      </trkpt>
      <trkpt lat="43.03339" lon="0.54061">
        <ele>595</ele>
        <time>2018-03-18T12:24:39.000Z</time>
      </trkpt>
      <trkpt lat="43.03339" lon="0.54061">
        <ele>595</ele>
        <time>2018-03-18T12:24:41.000Z</time>
      </trkpt>
      <trkpt lat="43.03339" lon="0.54061">
        <ele>595</ele>
        <time>2018-03-18T12:24:43.000Z</time>
      </trkpt>
      <trkpt lat="43.03339" lon="0.54061">
        <ele>595</ele>
        <time>2018-03-18T12:24:45.000Z</time>
      </trkpt>
      <trkpt lat="43.0334" lon="0.54061">
        <ele>595</ele>
        <time>2018-03-18T12:24:47.000Z</time>
      </trkpt>
      <trkpt lat="43.0334" lon="0.54061">
        <ele>595</ele>
        <time>2018-03-18T12:24:49.000Z</time>
      </trkpt>
      <trkpt lat="43.0334" lon="0.54061">
        <ele>595</ele>
        <time>2018-03-18T12:24:51.000Z</time>
      </trkpt>
      <trkpt lat="43.03341" lon="0.54061">
        <ele>595</ele>
        <time>2018-03-18T12:24:53.000Z</time>
      </trkpt>
      <trkpt lat="43.03341" lon="0.54061">
        <ele>595</ele>
        <time>2018-03-18T12:24:55.000Z</time>
      </trkpt>
      <trkpt lat="43.03341" lon="0.54062">
        <ele>595</ele>
        <time>2018-03-18T12:24:57.000Z</time>
      </trkpt>
      <trkpt lat="43.03341" lon="0.54062">
        <ele>595</ele>
        <time>2018-03-18T12:24:59.000Z</time>
      </trkpt>
      <trkpt lat="43.03341" lon="0.54061">
        <ele>595</ele>
        <time>2018-03-18T12:25:01.000Z</time>
      </trkpt>
      <trkpt lat="43.03342" lon="0.54061">
        <ele>595</ele>
        <time>2018-03-18T12:25:03.000Z</time>
      </trkpt>
      <trkpt lat="43.03342" lon="0.54061">
        <ele>595</ele>
        <time>2018-03-18T12:25:05.000Z</time>
      </trkpt>
      <trkpt lat="43.03344" lon="0.54061">
        <ele>595</ele>
        <time>2018-03-18T12:25:07.000Z</time>
      </trkpt>
      <trkpt lat="43.03344" lon="0.54061">
        <ele>595</ele>
        <time>2018-03-18T12:25:09.000Z</time>
      </trkpt>
      <trkpt lat="43.03344" lon="0.54061">
        <ele>596</ele>
        <time>2018-03-18T12:25:11.000Z</time>
      </trkpt>
      <trkpt lat="43.03344" lon="0.5406">
        <ele>596</ele>
        <time>2018-03-18T12:25:13.000Z</time>
      </trkpt>
      <trkpt lat="43.03344" lon="0.5406">
        <ele>596</ele>
        <time>2018-03-18T12:25:15.000Z</time>
      </trkpt>
      <trkpt lat="43.03344" lon="0.5406">
        <ele>596</ele>
        <time>2018-03-18T12:25:17.000Z</time>
      </trkpt>
      <trkpt lat="43.03344" lon="0.5406">
        <ele>596</ele>
        <time>2018-03-18T12:25:19.000Z</time>
      </trkpt>
      <trkpt lat="43.03343" lon="0.54061">
        <ele>596</ele>
        <time>2018-03-18T12:25:21.000Z</time>
      </trkpt>
      <trkpt lat="43.03343" lon="0.54061">
        <ele>595</ele>
        <time>2018-03-18T12:25:23.000Z</time>
      </trkpt>
      <trkpt lat="43.03342" lon="0.54061">
        <ele>595</ele>
        <time>2018-03-18T12:25:25.000Z</time>
      </trkpt>
      <trkpt lat="43.03341" lon="0.54062">
        <ele>595</ele>
        <time>2018-03-18T12:25:27.000Z</time>
      </trkpt>
      <trkpt lat="43.03341" lon="0.54062">
        <ele>595</ele>
        <time>2018-03-18T12:25:29.000Z</time>
      </trkpt>
      <trkpt lat="43.0334" lon="0.54062">
        <ele>595</ele>
        <time>2018-03-18T12:25:31.000Z</time>
      </trkpt>
      <trkpt lat="43.0334" lon="0.54063">
        <ele>595</ele>
        <time>2018-03-18T12:25:33.000Z</time>
      </trkpt>
      <trkpt lat="43.0334" lon="0.54063">
        <ele>595</ele>
        <time>2018-03-18T12:25:35.000Z</time>
      </trkpt>
      <trkpt lat="43.0334" lon="0.54064">
        <ele>595</ele>
        <time>2018-03-18T12:25:37.000Z</time>
      </trkpt>
      <trkpt lat="43.03339" lon="0.54064">
        <ele>595</ele>
        <time>2018-03-18T12:25:39.000Z</time>
      </trkpt>
      <trkpt lat="43.03339" lon="0.54065">
        <ele>595</ele>
        <time>2018-03-18T12:25:41.000Z</time>
      </trkpt>
      <trkpt lat="43.03338" lon="0.54065">
        <ele>595</ele>
        <time>2018-03-18T12:25:43.000Z</time>
      </trkpt>
      <trkpt lat="43.03339" lon="0.54065">
        <ele>595</ele>
        <time>2018-03-18T12:25:45.000Z</time>
      </trkpt>
      <trkpt lat="43.03339" lon="0.54066">
        <ele>594</ele>
        <time>2018-03-18T12:25:47.000Z</time>
      </trkpt>
      <trkpt lat="43.03339" lon="0.54068">
        <ele>594</ele>
        <time>2018-03-18T12:25:49.000Z</time>
      </trkpt>
      <trkpt lat="43.03338" lon="0.54069">
        <ele>594</ele>
        <time>2018-03-18T12:25:51.000Z</time>
      </trkpt>
      <trkpt lat="43.03338" lon="0.54069">
        <ele>594</ele>
        <time>2018-03-18T12:25:53.000Z</time>
      </trkpt>
      <trkpt lat="43.03338" lon="0.54068">
        <ele>594</ele>
        <time>2018-03-18T12:25:55.000Z</time>
      </trkpt>
      <trkpt lat="43.03338" lon="0.54068">
        <ele>594</ele>
        <time>2018-03-18T12:25:57.000Z</time>
      </trkpt>
      <trkpt lat="43.03338" lon="0.54068">
        <ele>594</ele>
        <time>2018-03-18T12:25:59.000Z</time>
      </trkpt>
      <trkpt lat="43.03338" lon="0.54068">
        <ele>594</ele>
        <time>2018-03-18T12:26:01.000Z</time>
      </trkpt>
      <trkpt lat="43.03338" lon="0.54067">
        <ele>594</ele>
        <time>2018-03-18T12:26:03.000Z</time>
      </trkpt>
      <trkpt lat="43.03339" lon="0.54067">
        <ele>594</ele>
        <time>2018-03-18T12:26:05.000Z</time>
      </trkpt>
      <trkpt lat="43.03338" lon="0.54067">
        <ele>594</ele>
        <time>2018-03-18T12:26:07.000Z</time>
      </trkpt>
      <trkpt lat="43.03338" lon="0.54067">
        <ele>594</ele>
        <time>2018-03-18T12:26:09.000Z</time>
      </trkpt>
      <trkpt lat="43.03339" lon="0.54067">
        <ele>594</ele>
        <time>2018-03-18T12:26:11.000Z</time>
      </trkpt>
      <trkpt lat="43.0334" lon="0.54066">
        <ele>594</ele>
        <time>2018-03-18T12:26:13.000Z</time>
      </trkpt>
      <trkpt lat="43.03339" lon="0.54067">
        <ele>594</ele>
        <time>2018-03-18T12:26:15.000Z</time>
      </trkpt>
      <trkpt lat="43.03339" lon="0.54067">
        <ele>594</ele>
        <time>2018-03-18T12:26:17.000Z</time>
      </trkpt>
      <trkpt lat="43.03339" lon="0.54068">
        <ele>594</ele>
        <time>2018-03-18T12:26:19.000Z</time>
      </trkpt>
      <trkpt lat="43.03338" lon="0.54067">
        <ele>594</ele>
        <time>2018-03-18T12:26:21.000Z</time>
      </trkpt>
      <trkpt lat="43.03338" lon="0.54067">
        <ele>594</ele>
        <time>2018-03-18T12:26:23.000Z</time>
      </trkpt>
      <trkpt lat="43.03337" lon="0.54067">
        <ele>594</ele>
        <time>2018-03-18T12:26:25.000Z</time>
      </trkpt>
      <trkpt lat="43.03337" lon="0.54066">
        <ele>594</ele>
        <time>2018-03-18T12:26:27.000Z</time>
      </trkpt>
      <trkpt lat="43.03337" lon="0.54066">
        <ele>594</ele>
        <time>2018-03-18T12:26:29.000Z</time>
      </trkpt>
      <trkpt lat="43.03337" lon="0.54066">
        <ele>594</ele>
        <time>2018-03-18T12:26:31.000Z</time>
      </trkpt>
      <trkpt lat="43.03337" lon="0.54066">
        <ele>594</ele>
        <time>2018-03-18T12:26:33.000Z</time>
      </trkpt>
      <trkpt lat="43.03337" lon="0.54066">
        <ele>594</ele>
        <time>2018-03-18T12:26:35.000Z</time>
      </trkpt>
      <trkpt lat="43.03337" lon="0.54066">
        <ele>594</ele>
        <time>2018-03-18T12:26:37.000Z</time>
      </trkpt>
      <trkpt lat="43.03337" lon="0.54065">
        <ele>594</ele>
        <time>2018-03-18T12:26:39.000Z</time>
      </trkpt>
      <trkpt lat="43.03337" lon="0.54065">
        <ele>594</ele>
        <time>2018-03-18T12:26:41.000Z</time>
      </trkpt>
      <trkpt lat="43.03337" lon="0.54065">
        <ele>594</ele>
        <time>2018-03-18T12:26:43.000Z</time>
      </trkpt>
      <trkpt lat="43.03337" lon="0.54066">
        <ele>594</ele>
        <time>2018-03-18T12:26:45.000Z</time>
      </trkpt>
      <trkpt lat="43.03337" lon="0.54065">
        <ele>594</ele>
        <time>2018-03-18T12:26:47.000Z</time>
      </trkpt>
      <trkpt lat="43.03337" lon="0.54065">
        <ele>594</ele>
        <time>2018-03-18T12:26:49.000Z</time>
      </trkpt>
      <trkpt lat="43.03337" lon="0.54066">
        <ele>594</ele>
        <time>2018-03-18T12:26:51.000Z</time>
      </trkpt>
      <trkpt lat="43.03337" lon="0.54066">
        <ele>594</ele>
        <time>2018-03-18T12:26:53.000Z</time>
      </trkpt>
      <trkpt lat="43.03337" lon="0.54066">
        <ele>594</ele>
        <time>2018-03-18T12:26:55.000Z</time>
      </trkpt>
      <trkpt lat="43.03337" lon="0.54066">
        <ele>594</ele>
        <time>2018-03-18T12:26:57.000Z</time>
      </trkpt>
      <trkpt lat="43.03336" lon="0.54066">
        <ele>594</ele>
        <time>2018-03-18T12:26:59.000Z</time>
      </trkpt>
      <trkpt lat="43.03336" lon="0.54067">
        <ele>594</ele>
        <time>2018-03-18T12:27:01.000Z</time>
      </trkpt>
      <trkpt lat="43.03335" lon="0.54068">
        <ele>594</ele>
        <time>2018-03-18T12:27:03.000Z</time>
      </trkpt>
      <trkpt lat="43.03335" lon="0.54068">
        <ele>594</ele>
        <time>2018-03-18T12:27:05.000Z</time>
      </trkpt>
      <trkpt lat="43.03335" lon="0.54068">
        <ele>594</ele>
        <time>2018-03-18T12:27:07.000Z</time>
      </trkpt>
      <trkpt lat="43.03335" lon="0.54069">
        <ele>594</ele>
        <time>2018-03-18T12:27:09.000Z</time>
      </trkpt>
      <trkpt lat="43.03334" lon="0.54069">
        <ele>594</ele>
        <time>2018-03-18T12:27:11.000Z</time>
      </trkpt>
      <trkpt lat="43.03334" lon="0.5407">
        <ele>594</ele>
        <time>2018-03-18T12:27:13.000Z</time>
      </trkpt>
      <trkpt lat="43.03334" lon="0.5407">
        <ele>594</ele>
        <time>2018-03-18T12:27:15.000Z</time>
      </trkpt>
      <trkpt lat="43.03334" lon="0.5407">
        <ele>593</ele>
        <time>2018-03-18T12:27:17.000Z</time>
      </trkpt>
      <trkpt lat="43.03333" lon="0.54071">
        <ele>593</ele>
        <time>2018-03-18T12:27:19.000Z</time>
      </trkpt>
      <trkpt lat="43.03333" lon="0.54072">
        <ele>593</ele>
        <time>2018-03-18T12:27:21.000Z</time>
      </trkpt>
      <trkpt lat="43.03332" lon="0.54072">
        <ele>593</ele>
        <time>2018-03-18T12:27:23.000Z</time>
      </trkpt>
      <trkpt lat="43.03332" lon="0.54072">
        <ele>593</ele>
        <time>2018-03-18T12:27:25.000Z</time>
      </trkpt>
      <trkpt lat="43.03333" lon="0.54072">
        <ele>593</ele>
        <time>2018-03-18T12:27:27.000Z</time>
      </trkpt>
      <trkpt lat="43.03332" lon="0.54072">
        <ele>593</ele>
        <time>2018-03-18T12:27:29.000Z</time>
      </trkpt>
      <trkpt lat="43.03332" lon="0.54072">
        <ele>593</ele>
        <time>2018-03-18T12:27:31.000Z</time>
      </trkpt>
      <trkpt lat="43.03332" lon="0.54071">
        <ele>593</ele>
        <time>2018-03-18T12:27:33.000Z</time>
      </trkpt>
      <trkpt lat="43.03332" lon="0.54071">
        <ele>593</ele>
        <time>2018-03-18T12:27:35.000Z</time>
      </trkpt>
      <trkpt lat="43.03332" lon="0.5407">
        <ele>593</ele>
        <time>2018-03-18T12:27:37.000Z</time>
      </trkpt>
      <trkpt lat="43.03332" lon="0.5407">
        <ele>593</ele>
        <time>2018-03-18T12:27:39.000Z</time>
      </trkpt>
      <trkpt lat="43.03333" lon="0.5407">
        <ele>593</ele>
        <time>2018-03-18T12:27:41.000Z</time>
      </trkpt>
      <trkpt lat="43.03334" lon="0.5407">
        <ele>594</ele>
        <time>2018-03-18T12:27:43.000Z</time>
      </trkpt>
      <trkpt lat="43.03334" lon="0.5407">
        <ele>594</ele>
        <time>2018-03-18T12:27:45.000Z</time>
      </trkpt>
      <trkpt lat="43.03334" lon="0.54069">
        <ele>594</ele>
        <time>2018-03-18T12:27:47.000Z</time>
      </trkpt>
      <trkpt lat="43.03335" lon="0.54069">
        <ele>594</ele>
        <time>2018-03-18T12:27:49.000Z</time>
      </trkpt>
      <trkpt lat="43.03335" lon="0.54069">
        <ele>594</ele>
        <time>2018-03-18T12:27:51.000Z</time>
      </trkpt>
      <trkpt lat="43.03335" lon="0.54068">
        <ele>594</ele>
        <time>2018-03-18T12:27:53.000Z</time>
      </trkpt>
      <trkpt lat="43.03335" lon="0.54068">
        <ele>594</ele>
        <time>2018-03-18T12:27:55.000Z</time>
      </trkpt>
      <trkpt lat="43.03336" lon="0.54068">
        <ele>594</ele>
        <time>2018-03-18T12:27:57.000Z</time>
      </trkpt>
      <trkpt lat="43.03336" lon="0.54067">
        <ele>594</ele>
        <time>2018-03-18T12:27:59.000Z</time>
      </trkpt>
      <trkpt lat="43.03336" lon="0.54067">
        <ele>594</ele>
        <time>2018-03-18T12:28:01.000Z</time>
      </trkpt>
      <trkpt lat="43.03336" lon="0.54066">
        <ele>594</ele>
        <time>2018-03-18T12:28:03.000Z</time>
      </trkpt>
      <trkpt lat="43.03336" lon="0.54066">
        <ele>594</ele>
        <time>2018-03-18T12:28:05.000Z</time>
      </trkpt>
      <trkpt lat="43.03336" lon="0.54066">
        <ele>594</ele>
        <time>2018-03-18T12:28:07.000Z</time>
      </trkpt>
      <trkpt lat="43.03336" lon="0.54066">
        <ele>594</ele>
        <time>2018-03-18T12:28:09.000Z</time>
      </trkpt>
      <trkpt lat="43.03335" lon="0.54065">
        <ele>594</ele>
        <time>2018-03-18T12:28:11.000Z</time>
      </trkpt>
      <trkpt lat="43.03335" lon="0.54065">
        <ele>594</ele>
        <time>2018-03-18T12:28:13.000Z</time>
      </trkpt>
      <trkpt lat="43.03335" lon="0.54065">
        <ele>594</ele>
        <time>2018-03-18T12:28:15.000Z</time>
      </trkpt>
      <trkpt lat="43.03335" lon="0.54065">
        <ele>594</ele>
        <time>2018-03-18T12:28:17.000Z</time>
      </trkpt>
      <trkpt lat="43.03335" lon="0.54066">
        <ele>594</ele>
        <time>2018-03-18T12:28:19.000Z</time>
      </trkpt>
      <trkpt lat="43.03335" lon="0.54066">
        <ele>594</ele>
        <time>2018-03-18T12:28:21.000Z</time>
      </trkpt>
      <trkpt lat="43.03335" lon="0.54065">
        <ele>594</ele>
        <time>2018-03-18T12:28:23.000Z</time>
      </trkpt>
      <trkpt lat="43.03334" lon="0.54065">
        <ele>594</ele>
        <time>2018-03-18T12:28:25.000Z</time>
      </trkpt>
      <trkpt lat="43.03334" lon="0.54065">
        <ele>594</ele>
        <time>2018-03-18T12:28:27.000Z</time>
      </trkpt>
      <trkpt lat="43.03334" lon="0.54066">
        <ele>594</ele>
        <time>2018-03-18T12:28:29.000Z</time>
      </trkpt>
      <trkpt lat="43.03334" lon="0.54066">
        <ele>594</ele>
        <time>2018-03-18T12:28:31.000Z</time>
      </trkpt>
      <trkpt lat="43.03335" lon="0.54066">
        <ele>594</ele>
        <time>2018-03-18T12:28:33.000Z</time>
      </trkpt>
      <trkpt lat="43.03336" lon="0.54066">
        <ele>594</ele>
        <time>2018-03-18T12:28:35.000Z</time>
      </trkpt>
      <trkpt lat="43.03336" lon="0.54066">
        <ele>594</ele>
        <time>2018-03-18T12:28:37.000Z</time>
      </trkpt>
      <trkpt lat="43.03337" lon="0.54066">
        <ele>594</ele>
        <time>2018-03-18T12:28:39.000Z</time>
      </trkpt>
      <trkpt lat="43.03337" lon="0.54066">
        <ele>594</ele>
        <time>2018-03-18T12:28:41.000Z</time>
      </trkpt>
      <trkpt lat="43.03337" lon="0.54066">
        <ele>594</ele>
        <time>2018-03-18T12:28:43.000Z</time>
      </trkpt>
      <trkpt lat="43.03337" lon="0.54066">
        <ele>594</ele>
        <time>2018-03-18T12:28:45.000Z</time>
      </trkpt>
      <trkpt lat="43.03336" lon="0.54067">
        <ele>594</ele>
        <time>2018-03-18T12:28:47.000Z</time>
      </trkpt>
      <trkpt lat="43.03336" lon="0.54067">
        <ele>594</ele>
        <time>2018-03-18T12:28:49.000Z</time>
      </trkpt>
      <trkpt lat="43.03336" lon="0.54067">
        <ele>594</ele>
        <time>2018-03-18T12:28:51.000Z</time>
      </trkpt>
      <trkpt lat="43.03335" lon="0.54067">
        <ele>594</ele>
        <time>2018-03-18T12:28:53.000Z</time>
      </trkpt>
      <trkpt lat="43.03335" lon="0.54067">
        <ele>594</ele>
        <time>2018-03-18T12:28:55.000Z</time>
      </trkpt>
      <trkpt lat="43.03335" lon="0.54067">
        <ele>594</ele>
        <time>2018-03-18T12:28:57.000Z</time>
      </trkpt>
      <trkpt lat="43.03335" lon="0.54068">
        <ele>594</ele>
        <time>2018-03-18T12:28:59.000Z</time>
      </trkpt>
      <trkpt lat="43.03335" lon="0.54068">
        <ele>594</ele>
        <time>2018-03-18T12:29:01.000Z</time>
      </trkpt>
      <trkpt lat="43.03335" lon="0.54068">
        <ele>594</ele>
        <time>2018-03-18T12:29:03.000Z</time>
      </trkpt>
      <trkpt lat="43.03335" lon="0.54068">
        <ele>594</ele>
        <time>2018-03-18T12:29:05.000Z</time>
      </trkpt>
      <trkpt lat="43.03335" lon="0.54068">
        <ele>594</ele>
        <time>2018-03-18T12:29:07.000Z</time>
      </trkpt>
      <trkpt lat="43.03335" lon="0.54068">
        <ele>594</ele>
        <time>2018-03-18T12:29:09.000Z</time>
      </trkpt>
      <trkpt lat="43.03334" lon="0.54069">
        <ele>594</ele>
        <time>2018-03-18T12:29:11.000Z</time>
      </trkpt>
      <trkpt lat="43.03334" lon="0.54069">
        <ele>594</ele>
        <time>2018-03-18T12:29:13.000Z</time>
      </trkpt>
      <trkpt lat="43.03333" lon="0.5407">
        <ele>593</ele>
        <time>2018-03-18T12:29:15.000Z</time>
      </trkpt>
      <trkpt lat="43.03333" lon="0.5407">
        <ele>593</ele>
        <time>2018-03-18T12:29:17.000Z</time>
      </trkpt>
      <trkpt lat="43.03333" lon="0.54071">
        <ele>593</ele>
        <time>2018-03-18T12:29:19.000Z</time>
      </trkpt>
      <trkpt lat="43.03334" lon="0.54071">
        <ele>593</ele>
        <time>2018-03-18T12:29:21.000Z</time>
      </trkpt>
      <trkpt lat="43.03335" lon="0.54071">
        <ele>593</ele>
        <time>2018-03-18T12:29:23.000Z</time>
      </trkpt>
      <trkpt lat="43.03335" lon="0.54071">
        <ele>593</ele>
        <time>2018-03-18T12:29:25.000Z</time>
      </trkpt>
      <trkpt lat="43.03335" lon="0.54071">
        <ele>593</ele>
        <time>2018-03-18T12:29:27.000Z</time>
      </trkpt>
      <trkpt lat="43.03335" lon="0.54072">
        <ele>593</ele>
        <time>2018-03-18T12:29:29.000Z</time>
      </trkpt>
      <trkpt lat="43.03335" lon="0.54072">
        <ele>593</ele>
        <time>2018-03-18T12:29:31.000Z</time>
      </trkpt>
      <trkpt lat="43.03334" lon="0.54072">
        <ele>593</ele>
        <time>2018-03-18T12:29:33.000Z</time>
      </trkpt>
      <trkpt lat="43.03334" lon="0.54073">
        <ele>593</ele>
        <time>2018-03-18T12:29:35.000Z</time>
      </trkpt>
      <trkpt lat="43.03334" lon="0.54074">
        <ele>593</ele>
        <time>2018-03-18T12:29:37.000Z</time>
      </trkpt>
      <trkpt lat="43.03333" lon="0.54075">
        <ele>593</ele>
        <time>2018-03-18T12:29:39.000Z</time>
      </trkpt>
      <trkpt lat="43.03333" lon="0.54075">
        <ele>593</ele>
        <time>2018-03-18T12:29:41.000Z</time>
      </trkpt>
      <trkpt lat="43.03333" lon="0.54076">
        <ele>593</ele>
        <time>2018-03-18T12:29:43.000Z</time>
      </trkpt>
      <trkpt lat="43.03333" lon="0.54076">
        <ele>592</ele>
        <time>2018-03-18T12:29:45.000Z</time>
      </trkpt>
      <trkpt lat="43.03333" lon="0.54076">
        <ele>592</ele>
        <time>2018-03-18T12:29:47.000Z</time>
      </trkpt>
      <trkpt lat="43.03334" lon="0.54075">
        <ele>593</ele>
        <time>2018-03-18T12:29:49.000Z</time>
      </trkpt>
      <trkpt lat="43.03334" lon="0.54074">
        <ele>593</ele>
        <time>2018-03-18T12:29:51.000Z</time>
      </trkpt>
      <trkpt lat="43.03335" lon="0.54073">
        <ele>593</ele>
        <time>2018-03-18T12:29:53.000Z</time>
      </trkpt>
      <trkpt lat="43.03335" lon="0.54072">
        <ele>593</ele>
        <time>2018-03-18T12:29:55.000Z</time>
      </trkpt>
      <trkpt lat="43.03335" lon="0.54071">
        <ele>593</ele>
        <time>2018-03-18T12:29:57.000Z</time>
      </trkpt>
      <trkpt lat="43.03335" lon="0.54071">
        <ele>593</ele>
        <time>2018-03-18T12:29:59.000Z</time>
      </trkpt>
      <trkpt lat="43.03336" lon="0.5407">
        <ele>594</ele>
        <time>2018-03-18T12:30:01.000Z</time>
      </trkpt>
      <trkpt lat="43.03337" lon="0.5407">
        <ele>594</ele>
        <time>2018-03-18T12:30:03.000Z</time>
      </trkpt>
      <trkpt lat="43.03338" lon="0.54069">
        <ele>594</ele>
        <time>2018-03-18T12:30:05.000Z</time>
      </trkpt>
      <trkpt lat="43.03338" lon="0.54068">
        <ele>594</ele>
        <time>2018-03-18T12:30:07.000Z</time>
      </trkpt>
      <trkpt lat="43.03338" lon="0.54068">
        <ele>594</ele>
        <time>2018-03-18T12:30:09.000Z</time>
      </trkpt>
      <trkpt lat="43.03338" lon="0.54068">
        <ele>594</ele>
        <time>2018-03-18T12:30:11.000Z</time>
      </trkpt>
      <trkpt lat="43.03338" lon="0.54068">
        <ele>594</ele>
        <time>2018-03-18T12:30:13.000Z</time>
      </trkpt>
      <trkpt lat="43.03338" lon="0.54068">
        <ele>594</ele>
        <time>2018-03-18T12:30:15.000Z</time>
      </trkpt>
      <trkpt lat="43.03338" lon="0.54068">
        <ele>594</ele>
        <time>2018-03-18T12:30:17.000Z</time>
      </trkpt>
      <trkpt lat="43.03338" lon="0.54068">
        <ele>594</ele>
        <time>2018-03-18T12:30:19.000Z</time>
      </trkpt>
      <trkpt lat="43.03337" lon="0.54067">
        <ele>594</ele>
        <time>2018-03-18T12:30:21.000Z</time>
      </trkpt>
      <trkpt lat="43.03337" lon="0.54067">
        <ele>594</ele>
        <time>2018-03-18T12:30:23.000Z</time>
      </trkpt>
      <trkpt lat="43.03336" lon="0.54067">
        <ele>594</ele>
        <time>2018-03-18T12:30:25.000Z</time>
      </trkpt>
      <trkpt lat="43.03336" lon="0.54067">
        <ele>594</ele>
        <time>2018-03-18T12:30:27.000Z</time>
      </trkpt>
      <trkpt lat="43.03336" lon="0.54067">
        <ele>594</ele>
        <time>2018-03-18T12:30:29.000Z</time>
      </trkpt>
      <trkpt lat="43.03336" lon="0.54067">
        <ele>594</ele>
        <time>2018-03-18T12:30:31.000Z</time>
      </trkpt>
      <trkpt lat="43.03337" lon="0.54067">
        <ele>594</ele>
        <time>2018-03-18T12:30:33.000Z</time>
      </trkpt>
      <trkpt lat="43.03337" lon="0.54068">
        <ele>594</ele>
        <time>2018-03-18T12:30:35.000Z</time>
      </trkpt>
      <trkpt lat="43.03338" lon="0.54068">
        <ele>594</ele>
        <time>2018-03-18T12:30:37.000Z</time>
      </trkpt>
      <trkpt lat="43.03338" lon="0.54068">
        <ele>594</ele>
        <time>2018-03-18T12:30:39.000Z</time>
      </trkpt>
      <trkpt lat="43.03338" lon="0.54068">
        <ele>594</ele>
        <time>2018-03-18T12:30:41.000Z</time>
      </trkpt>
      <trkpt lat="43.03338" lon="0.54068">
        <ele>594</ele>
        <time>2018-03-18T12:30:43.000Z</time>
      </trkpt>
      <trkpt lat="43.03338" lon="0.54068">
        <ele>594</ele>
        <time>2018-03-18T12:30:45.000Z</time>
      </trkpt>
      <trkpt lat="43.03338" lon="0.54068">
        <ele>594</ele>
        <time>2018-03-18T12:30:47.000Z</time>
      </trkpt>
      <trkpt lat="43.03338" lon="0.54068">
        <ele>594</ele>
        <time>2018-03-18T12:30:49.000Z</time>
      </trkpt>
      <trkpt lat="43.03338" lon="0.54068">
        <ele>594</ele>
        <time>2018-03-18T12:30:51.000Z</time>
      </trkpt>
      <trkpt lat="43.03338" lon="0.54068">
        <ele>594</ele>
        <time>2018-03-18T12:30:53.000Z</time>
      </trkpt>
      <trkpt lat="43.03339" lon="0.54068">
        <ele>594</ele>
        <time>2018-03-18T12:30:55.000Z</time>
      </trkpt>
      <trkpt lat="43.03339" lon="0.54068">
        <ele>594</ele>
        <time>2018-03-18T12:30:57.000Z</time>
      </trkpt>
      <trkpt lat="43.03339" lon="0.54068">
        <ele>594</ele>
        <time>2018-03-18T12:30:59.000Z</time>
      </trkpt>
      <trkpt lat="43.03339" lon="0.54068">
        <ele>594</ele>
        <time>2018-03-18T12:31:01.000Z</time>
      </trkpt>
      <trkpt lat="43.03339" lon="0.54068">
        <ele>594</ele>
        <time>2018-03-18T12:31:03.000Z</time>
      </trkpt>
      <trkpt lat="43.03339" lon="0.54068">
        <ele>594</ele>
        <time>2018-03-18T12:31:05.000Z</time>
      </trkpt>
      <trkpt lat="43.0334" lon="0.54068">
        <ele>594</ele>
        <time>2018-03-18T12:31:07.000Z</time>
      </trkpt>
      <trkpt lat="43.0334" lon="0.54068">
        <ele>594</ele>
        <time>2018-03-18T12:31:09.000Z</time>
      </trkpt>
      <trkpt lat="43.0334" lon="0.54069">
        <ele>594</ele>
        <time>2018-03-18T12:31:11.000Z</time>
      </trkpt>
      <trkpt lat="43.0334" lon="0.54069">
        <ele>594</ele>
        <time>2018-03-18T12:31:13.000Z</time>
      </trkpt>
      <trkpt lat="43.0334" lon="0.54069">
        <ele>594</ele>
        <time>2018-03-18T12:31:15.000Z</time>
      </trkpt>
      <trkpt lat="43.03341" lon="0.54069">
        <ele>594</ele>
        <time>2018-03-18T12:31:17.000Z</time>
      </trkpt>
      <trkpt lat="43.0334" lon="0.54068">
        <ele>594</ele>
        <time>2018-03-18T12:31:19.000Z</time>
      </trkpt>
      <trkpt lat="43.0334" lon="0.54068">
        <ele>594</ele>
        <time>2018-03-18T12:31:21.000Z</time>
      </trkpt>
      <trkpt lat="43.0334" lon="0.54068">
        <ele>594</ele>
        <time>2018-03-18T12:31:23.000Z</time>
      </trkpt>
      <trkpt lat="43.0334" lon="0.54068">
        <ele>594</ele>
        <time>2018-03-18T12:31:25.000Z</time>
      </trkpt>
      <trkpt lat="43.0334" lon="0.54068">
        <ele>594</ele>
        <time>2018-03-18T12:31:27.000Z</time>
      </trkpt>
      <trkpt lat="43.0334" lon="0.54068">
        <ele>594</ele>
        <time>2018-03-18T12:31:29.000Z</time>
      </trkpt>
      <trkpt lat="43.0334" lon="0.54068">
        <ele>594</ele>
        <time>2018-03-18T12:31:31.000Z</time>
      </trkpt>
      <trkpt lat="43.0334" lon="0.54068">
        <ele>594</ele>
        <time>2018-03-18T12:31:33.000Z</time>
      </trkpt>
      <trkpt lat="43.03339" lon="0.54068">
        <ele>594</ele>
        <time>2018-03-18T12:31:35.000Z</time>
      </trkpt>
      <trkpt lat="43.03339" lon="0.54067">
        <ele>594</ele>
        <time>2018-03-18T12:31:37.000Z</time>
      </trkpt>
      <trkpt lat="43.03339" lon="0.54067">
        <ele>594</ele>
        <time>2018-03-18T12:31:39.000Z</time>
      </trkpt>
      <trkpt lat="43.03339" lon="0.54067">
        <ele>594</ele>
        <time>2018-03-18T12:31:41.000Z</time>
      </trkpt>
      <trkpt lat="43.03339" lon="0.54067">
        <ele>594</ele>
        <time>2018-03-18T12:31:43.000Z</time>
      </trkpt>
      <trkpt lat="43.03339" lon="0.54067">
        <ele>594</ele>
        <time>2018-03-18T12:31:45.000Z</time>
      </trkpt>
      <trkpt lat="43.03338" lon="0.54067">
        <ele>594</ele>
        <time>2018-03-18T12:31:47.000Z</time>
      </trkpt>
      <trkpt lat="43.03338" lon="0.54068">
        <ele>594</ele>
        <time>2018-03-18T12:31:49.000Z</time>
      </trkpt>
      <trkpt lat="43.03338" lon="0.54068">
        <ele>594</ele>
        <time>2018-03-18T12:31:51.000Z</time>
      </trkpt>
      <trkpt lat="43.03338" lon="0.54068">
        <ele>594</ele>
        <time>2018-03-18T12:31:53.000Z</time>
      </trkpt>
      <trkpt lat="43.03338" lon="0.54068">
        <ele>594</ele>
        <time>2018-03-18T12:31:55.000Z</time>
      </trkpt>
      <trkpt lat="43.03337" lon="0.54068">
        <ele>594</ele>
        <time>2018-03-18T12:31:57.000Z</time>
      </trkpt>
      <trkpt lat="43.03337" lon="0.54068">
        <ele>594</ele>
        <time>2018-03-18T12:31:59.000Z</time>
      </trkpt>
      <trkpt lat="43.03337" lon="0.54068">
        <ele>594</ele>
        <time>2018-03-18T12:32:01.000Z</time>
      </trkpt>
      <trkpt lat="43.03337" lon="0.54067">
        <ele>594</ele>
        <time>2018-03-18T12:32:03.000Z</time>
      </trkpt>
      <trkpt lat="43.03337" lon="0.54067">
        <ele>594</ele>
        <time>2018-03-18T12:32:05.000Z</time>
      </trkpt>
      <trkpt lat="43.03337" lon="0.54067">
        <ele>594</ele>
        <time>2018-03-18T12:32:07.000Z</time>
      </trkpt>
      <trkpt lat="43.03337" lon="0.54067">
        <ele>594</ele>
        <time>2018-03-18T12:32:09.000Z</time>
      </trkpt>
      <trkpt lat="43.03338" lon="0.54067">
        <ele>594</ele>
        <time>2018-03-18T12:32:11.000Z</time>
      </trkpt>
      <trkpt lat="43.03338" lon="0.54067">
        <ele>594</ele>
        <time>2018-03-18T12:32:13.000Z</time>
      </trkpt>
      <trkpt lat="43.03338" lon="0.54067">
        <ele>594</ele>
        <time>2018-03-18T12:32:15.000Z</time>
      </trkpt>
      <trkpt lat="43.03338" lon="0.54067">
        <ele>594</ele>
        <time>2018-03-18T12:32:17.000Z</time>
      </trkpt>
      <trkpt lat="43.03338" lon="0.54067">
        <ele>594</ele>
        <time>2018-03-18T12:32:19.000Z</time>
      </trkpt>
      <trkpt lat="43.03338" lon="0.54067">
        <ele>594</ele>
        <time>2018-03-18T12:32:21.000Z</time>
      </trkpt>
      <trkpt lat="43.03338" lon="0.54066">
        <ele>594</ele>
        <time>2018-03-18T12:32:23.000Z</time>
      </trkpt>
      <trkpt lat="43.03338" lon="0.54066">
        <ele>594</ele>
        <time>2018-03-18T12:32:25.000Z</time>
      </trkpt>
      <trkpt lat="43.03337" lon="0.54066">
        <ele>594</ele>
        <time>2018-03-18T12:32:27.000Z</time>
      </trkpt>
      <trkpt lat="43.03338" lon="0.54066">
        <ele>594</ele>
        <time>2018-03-18T12:32:29.000Z</time>
      </trkpt>
      <trkpt lat="43.03337" lon="0.54066">
        <ele>594</ele>
        <time>2018-03-18T12:32:31.000Z</time>
      </trkpt>
      <trkpt lat="43.03337" lon="0.54066">
        <ele>594</ele>
        <time>2018-03-18T12:32:33.000Z</time>
      </trkpt>
      <trkpt lat="43.03337" lon="0.54066">
        <ele>594</ele>
        <time>2018-03-18T12:32:35.000Z</time>
      </trkpt>
      <trkpt lat="43.03337" lon="0.54066">
        <ele>594</ele>
        <time>2018-03-18T12:32:37.000Z</time>
      </trkpt>
      <trkpt lat="43.03337" lon="0.54066">
        <ele>594</ele>
        <time>2018-03-18T12:32:39.000Z</time>
      </trkpt>
      <trkpt lat="43.03337" lon="0.54066">
        <ele>594</ele>
        <time>2018-03-18T12:32:41.000Z</time>
      </trkpt>
      <trkpt lat="43.03336" lon="0.54067">
        <ele>594</ele>
        <time>2018-03-18T12:32:43.000Z</time>
      </trkpt>
      <trkpt lat="43.03336" lon="0.54067">
        <ele>594</ele>
        <time>2018-03-18T12:32:45.000Z</time>
      </trkpt>
      <trkpt lat="43.03336" lon="0.54067">
        <ele>594</ele>
        <time>2018-03-18T12:32:47.000Z</time>
      </trkpt>
      <trkpt lat="43.03335" lon="0.54067">
        <ele>594</ele>
        <time>2018-03-18T12:32:49.000Z</time>
      </trkpt>
      <trkpt lat="43.03335" lon="0.54066">
        <ele>594</ele>
        <time>2018-03-18T12:32:51.000Z</time>
      </trkpt>
      <trkpt lat="43.03335" lon="0.54066">
        <ele>594</ele>
        <time>2018-03-18T12:32:53.000Z</time>
      </trkpt>
      <trkpt lat="43.03335" lon="0.54066">
        <ele>594</ele>
        <time>2018-03-18T12:32:55.000Z</time>
      </trkpt>
      <trkpt lat="43.03335" lon="0.54066">
        <ele>594</ele>
        <time>2018-03-18T12:32:57.000Z</time>
      </trkpt>
      <trkpt lat="43.03334" lon="0.54066">
        <ele>594</ele>
        <time>2018-03-18T12:32:59.000Z</time>
      </trkpt>
      <trkpt lat="43.03335" lon="0.54066">
        <ele>594</ele>
        <time>2018-03-18T12:33:01.000Z</time>
      </trkpt>
      <trkpt lat="43.03335" lon="0.54065">
        <ele>594</ele>
        <time>2018-03-18T12:33:03.000Z</time>
      </trkpt>
      <trkpt lat="43.03335" lon="0.54066">
        <ele>594</ele>
        <time>2018-03-18T12:33:05.000Z</time>
      </trkpt>
      <trkpt lat="43.03334" lon="0.54066">
        <ele>594</ele>
        <time>2018-03-18T12:33:07.000Z</time>
      </trkpt>
      <trkpt lat="43.03334" lon="0.54066">
        <ele>594</ele>
        <time>2018-03-18T12:33:09.000Z</time>
      </trkpt>
      <trkpt lat="43.03334" lon="0.54067">
        <ele>594</ele>
        <time>2018-03-18T12:33:11.000Z</time>
      </trkpt>
      <trkpt lat="43.03334" lon="0.54067">
        <ele>594</ele>
        <time>2018-03-18T12:33:13.000Z</time>
      </trkpt>
      <trkpt lat="43.03334" lon="0.54067">
        <ele>594</ele>
        <time>2018-03-18T12:33:15.000Z</time>
      </trkpt>
      <trkpt lat="43.03335" lon="0.54067">
        <ele>594</ele>
        <time>2018-03-18T12:33:17.000Z</time>
      </trkpt>
      <trkpt lat="43.03335" lon="0.54067">
        <ele>594</ele>
        <time>2018-03-18T12:33:19.000Z</time>
      </trkpt>
      <trkpt lat="43.03335" lon="0.54067">
        <ele>594</ele>
        <time>2018-03-18T12:33:21.000Z</time>
      </trkpt>
      <trkpt lat="43.03334" lon="0.54067">
        <ele>594</ele>
        <time>2018-03-18T12:33:23.000Z</time>
      </trkpt>
      <trkpt lat="43.03334" lon="0.54067">
        <ele>594</ele>
        <time>2018-03-18T12:33:25.000Z</time>
      </trkpt>
      <trkpt lat="43.03334" lon="0.54067">
        <ele>594</ele>
        <time>2018-03-18T12:33:27.000Z</time>
      </trkpt>
      <trkpt lat="43.03334" lon="0.54067">
        <ele>594</ele>
        <time>2018-03-18T12:33:29.000Z</time>
      </trkpt>
      <trkpt lat="43.03334" lon="0.54067">
        <ele>594</ele>
        <time>2018-03-18T12:33:31.000Z</time>
      </trkpt>
      <trkpt lat="43.03333" lon="0.54067">
        <ele>594</ele>
        <time>2018-03-18T12:33:33.000Z</time>
      </trkpt>
      <trkpt lat="43.03333" lon="0.54068">
        <ele>594</ele>
        <time>2018-03-18T12:33:35.000Z</time>
      </trkpt>
      <trkpt lat="43.03332" lon="0.54068">
        <ele>594</ele>
        <time>2018-03-18T12:33:37.000Z</time>
      </trkpt>
      <trkpt lat="43.03332" lon="0.54068">
        <ele>594</ele>
        <time>2018-03-18T12:33:39.000Z</time>
      </trkpt>
      <trkpt lat="43.03332" lon="0.54068">
        <ele>594</ele>
        <time>2018-03-18T12:33:41.000Z</time>
      </trkpt>
      <trkpt lat="43.03332" lon="0.54068">
        <ele>594</ele>
        <time>2018-03-18T12:33:43.000Z</time>
      </trkpt>
      <trkpt lat="43.03332" lon="0.54068">
        <ele>594</ele>
        <time>2018-03-18T12:33:45.000Z</time>
      </trkpt>
      <trkpt lat="43.03332" lon="0.54069">
        <ele>594</ele>
        <time>2018-03-18T12:33:47.000Z</time>
      </trkpt>
      <trkpt lat="43.03332" lon="0.54069">
        <ele>594</ele>
        <time>2018-03-18T12:33:49.000Z</time>
      </trkpt>
      <trkpt lat="43.03332" lon="0.5407">
        <ele>593</ele>
        <time>2018-03-18T12:33:51.000Z</time>
      </trkpt>
      <trkpt lat="43.03332" lon="0.5407">
        <ele>593</ele>
        <time>2018-03-18T12:33:53.000Z</time>
      </trkpt>
      <trkpt lat="43.03332" lon="0.5407">
        <ele>593</ele>
        <time>2018-03-18T12:33:55.000Z</time>
      </trkpt>
      <trkpt lat="43.03332" lon="0.5407">
        <ele>593</ele>
        <time>2018-03-18T12:33:57.000Z</time>
      </trkpt>
      <trkpt lat="43.03332" lon="0.5407">
        <ele>593</ele>
        <time>2018-03-18T12:33:59.000Z</time>
      </trkpt>
      <trkpt lat="43.03331" lon="0.54071">
        <ele>593</ele>
        <time>2018-03-18T12:34:01.000Z</time>
      </trkpt>
      <trkpt lat="43.03331" lon="0.54071">
        <ele>593</ele>
        <time>2018-03-18T12:34:03.000Z</time>
      </trkpt>
      <trkpt lat="43.03331" lon="0.54071">
        <ele>593</ele>
        <time>2018-03-18T12:34:05.000Z</time>
      </trkpt>
      <trkpt lat="43.03331" lon="0.54071">
        <ele>593</ele>
        <time>2018-03-18T12:34:07.000Z</time>
      </trkpt>
      <trkpt lat="43.03331" lon="0.54072">
        <ele>593</ele>
        <time>2018-03-18T12:34:09.000Z</time>
      </trkpt>
      <trkpt lat="43.03332" lon="0.54072">
        <ele>593</ele>
        <time>2018-03-18T12:34:11.000Z</time>
      </trkpt>
      <trkpt lat="43.03332" lon="0.54073">
        <ele>593</ele>
        <time>2018-03-18T12:34:13.000Z</time>
      </trkpt>
      <trkpt lat="43.03332" lon="0.54073">
        <ele>593</ele>
        <time>2018-03-18T12:34:15.000Z</time>
      </trkpt>
      <trkpt lat="43.03332" lon="0.54073">
        <ele>593</ele>
        <time>2018-03-18T12:34:17.000Z</time>
      </trkpt>
      <trkpt lat="43.03333" lon="0.54073">
        <ele>593</ele>
        <time>2018-03-18T12:34:19.000Z</time>
      </trkpt>
      <trkpt lat="43.03333" lon="0.54073">
        <ele>593</ele>
        <time>2018-03-18T12:34:21.000Z</time>
      </trkpt>
      <trkpt lat="43.03333" lon="0.54074">
        <ele>593</ele>
        <time>2018-03-18T12:34:23.000Z</time>
      </trkpt>
      <trkpt lat="43.03333" lon="0.54073">
        <ele>593</ele>
        <time>2018-03-18T12:34:25.000Z</time>
      </trkpt>
      <trkpt lat="43.03332" lon="0.54073">
        <ele>593</ele>
        <time>2018-03-18T12:34:27.000Z</time>
      </trkpt>
      <trkpt lat="43.03332" lon="0.54072">
        <ele>593</ele>
        <time>2018-03-18T12:34:29.000Z</time>
      </trkpt>
      <trkpt lat="43.03331" lon="0.54072">
        <ele>593</ele>
        <time>2018-03-18T12:34:31.000Z</time>
      </trkpt>
      <trkpt lat="43.0333" lon="0.54071">
        <ele>593</ele>
        <time>2018-03-18T12:34:33.000Z</time>
      </trkpt>
      <trkpt lat="43.0333" lon="0.54072">
        <ele>593</ele>
        <time>2018-03-18T12:34:35.000Z</time>
      </trkpt>
      <trkpt lat="43.03331" lon="0.54071">
        <ele>593</ele>
        <time>2018-03-18T12:34:37.000Z</time>
      </trkpt>
      <trkpt lat="43.0333" lon="0.5407">
        <ele>593</ele>
        <time>2018-03-18T12:34:39.000Z</time>
      </trkpt>
      <trkpt lat="43.0333" lon="0.54069">
        <ele>593</ele>
        <time>2018-03-18T12:34:41.000Z</time>
      </trkpt>
      <trkpt lat="43.0333" lon="0.54068">
        <ele>594</ele>
        <time>2018-03-18T12:34:43.000Z</time>
      </trkpt>
      <trkpt lat="43.0333" lon="0.54067">
        <ele>594</ele>
        <time>2018-03-18T12:34:45.000Z</time>
      </trkpt>
      <trkpt lat="43.0333" lon="0.54067">
        <ele>594</ele>
        <time>2018-03-18T12:34:47.000Z</time>
      </trkpt>
      <trkpt lat="43.0333" lon="0.54066">
        <ele>594</ele>
        <time>2018-03-18T12:34:49.000Z</time>
      </trkpt>
      <trkpt lat="43.03331" lon="0.54065">
        <ele>594</ele>
        <time>2018-03-18T12:34:51.000Z</time>
      </trkpt>
      <trkpt lat="43.03332" lon="0.54065">
        <ele>594</ele>
        <time>2018-03-18T12:34:53.000Z</time>
      </trkpt>
      <trkpt lat="43.03332" lon="0.54064">
        <ele>594</ele>
        <time>2018-03-18T12:34:55.000Z</time>
      </trkpt>
      <trkpt lat="43.03333" lon="0.54064">
        <ele>594</ele>
        <time>2018-03-18T12:34:57.000Z</time>
      </trkpt>
      <trkpt lat="43.03333" lon="0.54065">
        <ele>594</ele>
        <time>2018-03-18T12:34:59.000Z</time>
      </trkpt>
      <trkpt lat="43.03333" lon="0.54065">
        <ele>594</ele>
        <time>2018-03-18T12:35:01.000Z</time>
      </trkpt>
      <trkpt lat="43.03333" lon="0.54064">
        <ele>594</ele>
        <time>2018-03-18T12:35:03.000Z</time>
      </trkpt>
      <trkpt lat="43.03333" lon="0.54064">
        <ele>594</ele>
        <time>2018-03-18T12:35:05.000Z</time>
      </trkpt>
      <trkpt lat="43.03333" lon="0.54064">
        <ele>594</ele>
        <time>2018-03-18T12:35:07.000Z</time>
      </trkpt>
      <trkpt lat="43.03333" lon="0.54063">
        <ele>595</ele>
        <time>2018-03-18T12:35:09.000Z</time>
      </trkpt>
      <trkpt lat="43.03333" lon="0.54063">
        <ele>595</ele>
        <time>2018-03-18T12:35:11.000Z</time>
      </trkpt>
      <trkpt lat="43.03334" lon="0.54063">
        <ele>595</ele>
        <time>2018-03-18T12:35:13.000Z</time>
      </trkpt>
      <trkpt lat="43.03334" lon="0.54063">
        <ele>595</ele>
        <time>2018-03-18T12:35:15.000Z</time>
      </trkpt>
      <trkpt lat="43.03334" lon="0.54063">
        <ele>595</ele>
        <time>2018-03-18T12:35:17.000Z</time>
      </trkpt>
      <trkpt lat="43.03334" lon="0.54063">
        <ele>595</ele>
        <time>2018-03-18T12:35:19.000Z</time>
      </trkpt>
      <trkpt lat="43.03335" lon="0.54064">
        <ele>595</ele>
        <time>2018-03-18T12:35:21.000Z</time>
      </trkpt>
      <trkpt lat="43.03335" lon="0.54064">
        <ele>594</ele>
        <time>2018-03-18T12:35:23.000Z</time>
      </trkpt>
      <trkpt lat="43.03335" lon="0.54065">
        <ele>594</ele>
        <time>2018-03-18T12:35:25.000Z</time>
      </trkpt>
      <trkpt lat="43.03335" lon="0.54065">
        <ele>594</ele>
        <time>2018-03-18T12:35:27.000Z</time>
      </trkpt>
      <trkpt lat="43.03335" lon="0.54065">
        <ele>594</ele>
        <time>2018-03-18T12:35:29.000Z</time>
      </trkpt>
      <trkpt lat="43.03335" lon="0.54065">
        <ele>594</ele>
        <time>2018-03-18T12:35:31.000Z</time>
      </trkpt>
      <trkpt lat="43.03335" lon="0.54065">
        <ele>594</ele>
        <time>2018-03-18T12:35:33.000Z</time>
      </trkpt>
      <trkpt lat="43.03335" lon="0.54065">
        <ele>594</ele>
        <time>2018-03-18T12:35:35.000Z</time>
      </trkpt>
      <trkpt lat="43.03335" lon="0.54065">
        <ele>594</ele>
        <time>2018-03-18T12:35:37.000Z</time>
      </trkpt>
      <trkpt lat="43.03336" lon="0.54065">
        <ele>594</ele>
        <time>2018-03-18T12:35:39.000Z</time>
      </trkpt>
      <trkpt lat="43.03336" lon="0.54065">
        <ele>594</ele>
        <time>2018-03-18T12:35:41.000Z</time>
      </trkpt>
      <trkpt lat="43.03336" lon="0.54065">
        <ele>594</ele>
        <time>2018-03-18T12:35:43.000Z</time>
      </trkpt>
      <trkpt lat="43.03335" lon="0.54065">
        <ele>594</ele>
        <time>2018-03-18T12:35:45.000Z</time>
      </trkpt>
      <trkpt lat="43.03335" lon="0.54065">
        <ele>594</ele>
        <time>2018-03-18T12:35:47.000Z</time>
      </trkpt>
      <trkpt lat="43.03334" lon="0.54065">
        <ele>594</ele>
        <time>2018-03-18T12:35:49.000Z</time>
      </trkpt>
      <trkpt lat="43.03333" lon="0.54066">
        <ele>594</ele>
        <time>2018-03-18T12:35:51.000Z</time>
      </trkpt>
      <trkpt lat="43.03332" lon="0.54066">
        <ele>594</ele>
        <time>2018-03-18T12:35:53.000Z</time>
      </trkpt>
      <trkpt lat="43.03331" lon="0.54066">
        <ele>594</ele>
        <time>2018-03-18T12:35:55.000Z</time>
      </trkpt>
      <trkpt lat="43.03331" lon="0.54066">
        <ele>594</ele>
        <time>2018-03-18T12:35:57.000Z</time>
      </trkpt>
      <trkpt lat="43.0333" lon="0.54066">
        <ele>594</ele>
        <time>2018-03-18T12:35:59.000Z</time>
      </trkpt>
      <trkpt lat="43.0333" lon="0.54066">
        <ele>594</ele>
        <time>2018-03-18T12:36:01.000Z</time>
      </trkpt>
      <trkpt lat="43.0333" lon="0.54066">
        <ele>594</ele>
        <time>2018-03-18T12:36:03.000Z</time>
      </trkpt>
      <trkpt lat="43.0333" lon="0.54066">
        <ele>594</ele>
        <time>2018-03-18T12:36:05.000Z</time>
      </trkpt>
      <trkpt lat="43.03331" lon="0.54066">
        <ele>594</ele>
        <time>2018-03-18T12:36:07.000Z</time>
      </trkpt>
      <trkpt lat="43.03331" lon="0.54066">
        <ele>594</ele>
        <time>2018-03-18T12:36:09.000Z</time>
      </trkpt>
      <trkpt lat="43.03331" lon="0.54066">
        <ele>594</ele>
        <time>2018-03-18T12:36:11.000Z</time>
      </trkpt>
      <trkpt lat="43.03331" lon="0.54066">
        <ele>594</ele>
        <time>2018-03-18T12:36:13.000Z</time>
      </trkpt>
      <trkpt lat="43.03331" lon="0.54067">
        <ele>594</ele>
        <time>2018-03-18T12:36:15.000Z</time>
      </trkpt>
      <trkpt lat="43.0333" lon="0.54067">
        <ele>594</ele>
        <time>2018-03-18T12:36:17.000Z</time>
      </trkpt>
      <trkpt lat="43.03329" lon="0.54068">
        <ele>594</ele>
        <time>2018-03-18T12:36:19.000Z</time>
      </trkpt>
      <trkpt lat="43.03329" lon="0.54068">
        <ele>593</ele>
        <time>2018-03-18T12:36:21.000Z</time>
      </trkpt>
      <trkpt lat="43.03329" lon="0.54069">
        <ele>593</ele>
        <time>2018-03-18T12:36:23.000Z</time>
      </trkpt>
      <trkpt lat="43.03328" lon="0.54069">
        <ele>593</ele>
        <time>2018-03-18T12:36:25.000Z</time>
      </trkpt>
      <trkpt lat="43.03328" lon="0.5407">
        <ele>593</ele>
        <time>2018-03-18T12:36:27.000Z</time>
      </trkpt>
      <trkpt lat="43.03328" lon="0.5407">
        <ele>593</ele>
        <time>2018-03-18T12:36:29.000Z</time>
      </trkpt>
      <trkpt lat="43.03328" lon="0.5407">
        <ele>593</ele>
        <time>2018-03-18T12:36:31.000Z</time>
      </trkpt>
      <trkpt lat="43.03327" lon="0.54071">
        <ele>593</ele>
        <time>2018-03-18T12:36:33.000Z</time>
      </trkpt>
      <trkpt lat="43.03327" lon="0.54071">
        <ele>593</ele>
        <time>2018-03-18T12:36:35.000Z</time>
      </trkpt>
      <trkpt lat="43.03327" lon="0.54071">
        <ele>593</ele>
        <time>2018-03-18T12:36:37.000Z</time>
      </trkpt>
      <trkpt lat="43.03327" lon="0.5407">
        <ele>593</ele>
        <time>2018-03-18T12:36:39.000Z</time>
      </trkpt>
      <trkpt lat="43.03327" lon="0.5407">
        <ele>593</ele>
        <time>2018-03-18T12:36:41.000Z</time>
      </trkpt>
      <trkpt lat="43.03327" lon="0.5407">
        <ele>593</ele>
        <time>2018-03-18T12:36:43.000Z</time>
      </trkpt>
      <trkpt lat="43.03327" lon="0.5407">
        <ele>593</ele>
        <time>2018-03-18T12:36:45.000Z</time>
      </trkpt>
      <trkpt lat="43.03327" lon="0.5407">
        <ele>593</ele>
        <time>2018-03-18T12:36:47.000Z</time>
      </trkpt>
      <trkpt lat="43.03327" lon="0.5407">
        <ele>593</ele>
        <time>2018-03-18T12:36:49.000Z</time>
      </trkpt>
      <trkpt lat="43.03326" lon="0.5407">
        <ele>593</ele>
        <time>2018-03-18T12:36:51.000Z</time>
      </trkpt>
      <trkpt lat="43.03326" lon="0.54069">
        <ele>593</ele>
        <time>2018-03-18T12:36:53.000Z</time>
      </trkpt>
      <trkpt lat="43.03326" lon="0.54069">
        <ele>593</ele>
        <time>2018-03-18T12:36:55.000Z</time>
      </trkpt>
      <trkpt lat="43.03326" lon="0.54069">
        <ele>593</ele>
        <time>2018-03-18T12:36:57.000Z</time>
      </trkpt>
      <trkpt lat="43.03326" lon="0.54069">
        <ele>593</ele>
        <time>2018-03-18T12:36:59.000Z</time>
      </trkpt>
      <trkpt lat="43.03326" lon="0.54069">
        <ele>593</ele>
        <time>2018-03-18T12:37:01.000Z</time>
      </trkpt>
      <trkpt lat="43.03327" lon="0.54069">
        <ele>593</ele>
        <time>2018-03-18T12:37:03.000Z</time>
      </trkpt>
      <trkpt lat="43.03327" lon="0.54069">
        <ele>593</ele>
        <time>2018-03-18T12:37:05.000Z</time>
      </trkpt>
      <trkpt lat="43.03327" lon="0.54069">
        <ele>593</ele>
        <time>2018-03-18T12:37:07.000Z</time>
      </trkpt>
      <trkpt lat="43.03327" lon="0.54068">
        <ele>593</ele>
        <time>2018-03-18T12:37:09.000Z</time>
      </trkpt>
      <trkpt lat="43.03328" lon="0.54068">
        <ele>593</ele>
        <time>2018-03-18T12:37:11.000Z</time>
      </trkpt>
      <trkpt lat="43.03328" lon="0.54068">
        <ele>593</ele>
        <time>2018-03-18T12:37:13.000Z</time>
      </trkpt>
      <trkpt lat="43.03328" lon="0.54068">
        <ele>594</ele>
        <time>2018-03-18T12:37:15.000Z</time>
      </trkpt>
      <trkpt lat="43.03329" lon="0.54067">
        <ele>594</ele>
        <time>2018-03-18T12:37:17.000Z</time>
      </trkpt>
      <trkpt lat="43.0333" lon="0.54067">
        <ele>594</ele>
        <time>2018-03-18T12:37:19.000Z</time>
      </trkpt>
      <trkpt lat="43.0333" lon="0.54067">
        <ele>594</ele>
        <time>2018-03-18T12:37:21.000Z</time>
      </trkpt>
      <trkpt lat="43.03331" lon="0.54067">
        <ele>594</ele>
        <time>2018-03-18T12:37:23.000Z</time>
      </trkpt>
      <trkpt lat="43.03331" lon="0.54067">
        <ele>594</ele>
        <time>2018-03-18T12:37:25.000Z</time>
      </trkpt>
      <trkpt lat="43.03332" lon="0.54067">
        <ele>594</ele>
        <time>2018-03-18T12:37:27.000Z</time>
      </trkpt>
      <trkpt lat="43.03333" lon="0.54067">
        <ele>594</ele>
        <time>2018-03-18T12:37:29.000Z</time>
      </trkpt>
      <trkpt lat="43.03333" lon="0.54067">
        <ele>594</ele>
        <time>2018-03-18T12:37:31.000Z</time>
      </trkpt>
      <trkpt lat="43.03334" lon="0.54066">
        <ele>594</ele>
        <time>2018-03-18T12:37:33.000Z</time>
      </trkpt>
      <trkpt lat="43.03334" lon="0.54066">
        <ele>594</ele>
        <time>2018-03-18T12:37:35.000Z</time>
      </trkpt>
      <trkpt lat="43.03335" lon="0.54066">
        <ele>594</ele>
        <time>2018-03-18T12:37:37.000Z</time>
      </trkpt>
      <trkpt lat="43.03335" lon="0.54066">
        <ele>594</ele>
        <time>2018-03-18T12:37:39.000Z</time>
      </trkpt>
      <trkpt lat="43.03336" lon="0.54066">
        <ele>594</ele>
        <time>2018-03-18T12:37:41.000Z</time>
      </trkpt>
      <trkpt lat="43.03337" lon="0.54066">
        <ele>594</ele>
        <time>2018-03-18T12:37:43.000Z</time>
      </trkpt>
      <trkpt lat="43.03337" lon="0.54065">
        <ele>594</ele>
        <time>2018-03-18T12:37:45.000Z</time>
      </trkpt>
      <trkpt lat="43.03337" lon="0.54065">
        <ele>594</ele>
        <time>2018-03-18T12:37:47.000Z</time>
      </trkpt>
      <trkpt lat="43.03338" lon="0.54065">
        <ele>594</ele>
        <time>2018-03-18T12:37:49.000Z</time>
      </trkpt>
      <trkpt lat="43.03338" lon="0.54066">
        <ele>594</ele>
        <time>2018-03-18T12:37:51.000Z</time>
      </trkpt>
      <trkpt lat="43.03338" lon="0.54065">
        <ele>594</ele>
        <time>2018-03-18T12:37:53.000Z</time>
      </trkpt>
      <trkpt lat="43.03338" lon="0.54066">
        <ele>594</ele>
        <time>2018-03-18T12:37:55.000Z</time>
      </trkpt>
      <trkpt lat="43.03338" lon="0.54066">
        <ele>594</ele>
        <time>2018-03-18T12:37:57.000Z</time>
      </trkpt>
      <trkpt lat="43.03338" lon="0.54066">
        <ele>594</ele>
        <time>2018-03-18T12:37:59.000Z</time>
      </trkpt>
      <trkpt lat="43.03338" lon="0.54066">
        <ele>594</ele>
        <time>2018-03-18T12:38:01.000Z</time>
      </trkpt>
      <trkpt lat="43.03337" lon="0.54067">
        <ele>594</ele>
        <time>2018-03-18T12:38:03.000Z</time>
      </trkpt>
      <trkpt lat="43.03337" lon="0.54067">
        <ele>594</ele>
        <time>2018-03-18T12:38:05.000Z</time>
      </trkpt>
      <trkpt lat="43.03337" lon="0.54066">
        <ele>594</ele>
        <time>2018-03-18T12:38:07.000Z</time>
      </trkpt>
      <trkpt lat="43.03336" lon="0.54066">
        <ele>594</ele>
        <time>2018-03-18T12:38:09.000Z</time>
      </trkpt>
      <trkpt lat="43.03336" lon="0.54066">
        <ele>594</ele>
        <time>2018-03-18T12:38:11.000Z</time>
      </trkpt>
      <trkpt lat="43.03336" lon="0.54066">
        <ele>594</ele>
        <time>2018-03-18T12:38:13.000Z</time>
      </trkpt>
      <trkpt lat="43.03335" lon="0.54066">
        <ele>594</ele>
        <time>2018-03-18T12:38:15.000Z</time>
      </trkpt>
      <trkpt lat="43.03335" lon="0.54066">
        <ele>594</ele>
        <time>2018-03-18T12:38:17.000Z</time>
      </trkpt>
      <trkpt lat="43.03335" lon="0.54065">
        <ele>594</ele>
        <time>2018-03-18T12:38:19.000Z</time>
      </trkpt>
      <trkpt lat="43.03335" lon="0.54065">
        <ele>594</ele>
        <time>2018-03-18T12:38:21.000Z</time>
      </trkpt>
      <trkpt lat="43.03334" lon="0.54066">
        <ele>594</ele>
        <time>2018-03-18T12:38:23.000Z</time>
      </trkpt>
      <trkpt lat="43.03334" lon="0.54066">
        <ele>594</ele>
        <time>2018-03-18T12:38:25.000Z</time>
      </trkpt>
      <trkpt lat="43.03333" lon="0.54065">
        <ele>594</ele>
        <time>2018-03-18T12:38:27.000Z</time>
      </trkpt>
      <trkpt lat="43.03333" lon="0.54065">
        <ele>594</ele>
        <time>2018-03-18T12:38:29.000Z</time>
      </trkpt>
      <trkpt lat="43.03333" lon="0.54066">
        <ele>594</ele>
        <time>2018-03-18T12:38:31.000Z</time>
      </trkpt>
      <trkpt lat="43.03333" lon="0.54066">
        <ele>594</ele>
        <time>2018-03-18T12:38:33.000Z</time>
      </trkpt>
      <trkpt lat="43.03333" lon="0.54065">
        <ele>594</ele>
        <time>2018-03-18T12:38:35.000Z</time>
      </trkpt>
      <trkpt lat="43.03333" lon="0.54065">
        <ele>594</ele>
        <time>2018-03-18T12:38:37.000Z</time>
      </trkpt>
      <trkpt lat="43.03333" lon="0.54065">
        <ele>594</ele>
        <time>2018-03-18T12:38:39.000Z</time>
      </trkpt>
      <trkpt lat="43.03333" lon="0.54065">
        <ele>594</ele>
        <time>2018-03-18T12:38:41.000Z</time>
      </trkpt>
      <trkpt lat="43.03333" lon="0.54065">
        <ele>594</ele>
        <time>2018-03-18T12:38:43.000Z</time>
      </trkpt>
      <trkpt lat="43.03334" lon="0.54065">
        <ele>594</ele>
        <time>2018-03-18T12:38:45.000Z</time>
      </trkpt>
      <trkpt lat="43.03334" lon="0.54064">
        <ele>594</ele>
        <time>2018-03-18T12:38:47.000Z</time>
      </trkpt>
      <trkpt lat="43.03334" lon="0.54064">
        <ele>594</ele>
        <time>2018-03-18T12:38:49.000Z</time>
      </trkpt>
      <trkpt lat="43.03334" lon="0.54064">
        <ele>594</ele>
        <time>2018-03-18T12:38:51.000Z</time>
      </trkpt>
      <trkpt lat="43.03334" lon="0.54064">
        <ele>595</ele>
        <time>2018-03-18T12:38:53.000Z</time>
      </trkpt>
      <trkpt lat="43.03334" lon="0.54063">
        <ele>595</ele>
        <time>2018-03-18T12:38:55.000Z</time>
      </trkpt>
      <trkpt lat="43.03335" lon="0.54063">
        <ele>595</ele>
        <time>2018-03-18T12:38:57.000Z</time>
      </trkpt>
      <trkpt lat="43.03335" lon="0.54062">
        <ele>595</ele>
        <time>2018-03-18T12:38:59.000Z</time>
      </trkpt>
      <trkpt lat="43.03335" lon="0.54062">
        <ele>595</ele>
        <time>2018-03-18T12:39:01.000Z</time>
      </trkpt>
      <trkpt lat="43.03336" lon="0.54062">
        <ele>595</ele>
        <time>2018-03-18T12:39:03.000Z</time>
      </trkpt>
      <trkpt lat="43.03337" lon="0.54062">
        <ele>595</ele>
        <time>2018-03-18T12:39:05.000Z</time>
      </trkpt>
      <trkpt lat="43.03337" lon="0.54062">
        <ele>595</ele>
        <time>2018-03-18T12:39:07.000Z</time>
      </trkpt>
      <trkpt lat="43.03337" lon="0.54062">
        <ele>595</ele>
        <time>2018-03-18T12:39:09.000Z</time>
      </trkpt>
      <trkpt lat="43.03337" lon="0.54062">
        <ele>595</ele>
        <time>2018-03-18T12:39:11.000Z</time>
      </trkpt>
      <trkpt lat="43.03336" lon="0.54062">
        <ele>595</ele>
        <time>2018-03-18T12:39:13.000Z</time>
      </trkpt>
      <trkpt lat="43.03336" lon="0.54062">
        <ele>595</ele>
        <time>2018-03-18T12:39:15.000Z</time>
      </trkpt>
      <trkpt lat="43.03336" lon="0.54062">
        <ele>595</ele>
        <time>2018-03-18T12:39:17.000Z</time>
      </trkpt>
      <trkpt lat="43.03336" lon="0.54062">
        <ele>595</ele>
        <time>2018-03-18T12:39:19.000Z</time>
      </trkpt>
      <trkpt lat="43.03336" lon="0.54063">
        <ele>595</ele>
        <time>2018-03-18T12:39:21.000Z</time>
      </trkpt>
      <trkpt lat="43.03336" lon="0.54063">
        <ele>595</ele>
        <time>2018-03-18T12:39:23.000Z</time>
      </trkpt>
      <trkpt lat="43.03336" lon="0.54063">
        <ele>595</ele>
        <time>2018-03-18T12:39:25.000Z</time>
      </trkpt>
      <trkpt lat="43.03336" lon="0.54063">
        <ele>595</ele>
        <time>2018-03-18T12:39:27.000Z</time>
      </trkpt>
      <trkpt lat="43.03337" lon="0.54063">
        <ele>595</ele>
        <time>2018-03-18T12:39:29.000Z</time>
      </trkpt>
      <trkpt lat="43.03337" lon="0.54064">
        <ele>595</ele>
        <time>2018-03-18T12:39:31.000Z</time>
      </trkpt>
      <trkpt lat="43.03337" lon="0.54064">
        <ele>595</ele>
        <time>2018-03-18T12:39:33.000Z</time>
      </trkpt>
      <trkpt lat="43.03338" lon="0.54064">
        <ele>595</ele>
        <time>2018-03-18T12:39:35.000Z</time>
      </trkpt>
      <trkpt lat="43.03338" lon="0.54064">
        <ele>595</ele>
        <time>2018-03-18T12:39:37.000Z</time>
      </trkpt>
      <trkpt lat="43.03338" lon="0.54064">
        <ele>595</ele>
        <time>2018-03-18T12:39:39.000Z</time>
      </trkpt>
      <trkpt lat="43.03338" lon="0.54065">
        <ele>595</ele>
        <time>2018-03-18T12:39:41.000Z</time>
      </trkpt>
      <trkpt lat="43.03338" lon="0.54065">
        <ele>595</ele>
        <time>2018-03-18T12:39:43.000Z</time>
      </trkpt>
      <trkpt lat="43.03338" lon="0.54065">
        <ele>594</ele>
        <time>2018-03-18T12:39:45.000Z</time>
      </trkpt>
      <trkpt lat="43.03338" lon="0.54066">
        <ele>594</ele>
        <time>2018-03-18T12:39:47.000Z</time>
      </trkpt>
      <trkpt lat="43.03338" lon="0.54066">
        <ele>594</ele>
        <time>2018-03-18T12:39:49.000Z</time>
      </trkpt>
      <trkpt lat="43.03338" lon="0.54067">
        <ele>594</ele>
        <time>2018-03-18T12:39:51.000Z</time>
      </trkpt>
      <trkpt lat="43.03338" lon="0.54067">
        <ele>594</ele>
        <time>2018-03-18T12:39:53.000Z</time>
      </trkpt>
      <trkpt lat="43.03338" lon="0.54067">
        <ele>594</ele>
        <time>2018-03-18T12:39:55.000Z</time>
      </trkpt>
      <trkpt lat="43.03338" lon="0.54066">
        <ele>594</ele>
        <time>2018-03-18T12:39:57.000Z</time>
      </trkpt>
      <trkpt lat="43.03337" lon="0.54066">
        <ele>594</ele>
        <time>2018-03-18T12:39:59.000Z</time>
      </trkpt>
      <trkpt lat="43.03337" lon="0.54066">
        <ele>594</ele>
        <time>2018-03-18T12:40:01.000Z</time>
      </trkpt>
      <trkpt lat="43.03337" lon="0.54066">
        <ele>594</ele>
        <time>2018-03-18T12:40:03.000Z</time>
      </trkpt>
      <trkpt lat="43.03337" lon="0.54065">
        <ele>594</ele>
        <time>2018-03-18T12:40:05.000Z</time>
      </trkpt>
      <trkpt lat="43.03337" lon="0.54065">
        <ele>594</ele>
        <time>2018-03-18T12:40:07.000Z</time>
      </trkpt>
      <trkpt lat="43.03336" lon="0.54065">
        <ele>594</ele>
        <time>2018-03-18T12:40:09.000Z</time>
      </trkpt>
      <trkpt lat="43.03336" lon="0.54065">
        <ele>594</ele>
        <time>2018-03-18T12:40:11.000Z</time>
      </trkpt>
      <trkpt lat="43.03336" lon="0.54065">
        <ele>594</ele>
        <time>2018-03-18T12:40:13.000Z</time>
      </trkpt>
      <trkpt lat="43.03336" lon="0.54064">
        <ele>594</ele>
        <time>2018-03-18T12:40:15.000Z</time>
      </trkpt>
      <trkpt lat="43.03336" lon="0.54064">
        <ele>595</ele>
        <time>2018-03-18T12:40:17.000Z</time>
      </trkpt>
      <trkpt lat="43.03336" lon="0.54064">
        <ele>595</ele>
        <time>2018-03-18T12:40:19.000Z</time>
      </trkpt>
      <trkpt lat="43.03336" lon="0.54064">
        <ele>595</ele>
        <time>2018-03-18T12:40:21.000Z</time>
      </trkpt>
      <trkpt lat="43.03336" lon="0.54064">
        <ele>595</ele>
        <time>2018-03-18T12:40:23.000Z</time>
      </trkpt>
      <trkpt lat="43.03336" lon="0.54064">
        <ele>595</ele>
        <time>2018-03-18T12:40:25.000Z</time>
      </trkpt>
      <trkpt lat="43.03336" lon="0.54064">
        <ele>595</ele>
        <time>2018-03-18T12:40:27.000Z</time>
      </trkpt>
      <trkpt lat="43.03336" lon="0.54064">
        <ele>595</ele>
        <time>2018-03-18T12:40:29.000Z</time>
      </trkpt>
      <trkpt lat="43.03336" lon="0.54064">
        <ele>595</ele>
        <time>2018-03-18T12:40:31.000Z</time>
      </trkpt>
      <trkpt lat="43.03336" lon="0.54065">
        <ele>594</ele>
        <time>2018-03-18T12:40:33.000Z</time>
      </trkpt>
      <trkpt lat="43.03336" lon="0.54065">
        <ele>594</ele>
        <time>2018-03-18T12:40:35.000Z</time>
      </trkpt>
      <trkpt lat="43.03336" lon="0.54065">
        <ele>594</ele>
        <time>2018-03-18T12:40:37.000Z</time>
      </trkpt>
      <trkpt lat="43.03336" lon="0.54065">
        <ele>594</ele>
        <time>2018-03-18T12:40:39.000Z</time>
      </trkpt>
      <trkpt lat="43.03336" lon="0.54065">
        <ele>594</ele>
        <time>2018-03-18T12:40:41.000Z</time>
      </trkpt>
      <trkpt lat="43.03336" lon="0.54065">
        <ele>594</ele>
        <time>2018-03-18T12:40:43.000Z</time>
      </trkpt>
      <trkpt lat="43.03337" lon="0.54065">
        <ele>594</ele>
        <time>2018-03-18T12:40:45.000Z</time>
      </trkpt>
      <trkpt lat="43.03337" lon="0.54065">
        <ele>594</ele>
        <time>2018-03-18T12:40:47.000Z</time>
      </trkpt>
      <trkpt lat="43.03337" lon="0.54065">
        <ele>594</ele>
        <time>2018-03-18T12:40:49.000Z</time>
      </trkpt>
      <trkpt lat="43.03338" lon="0.54065">
        <ele>594</ele>
        <time>2018-03-18T12:40:51.000Z</time>
      </trkpt>
      <trkpt lat="43.03338" lon="0.54065">
        <ele>595</ele>
        <time>2018-03-18T12:40:53.000Z</time>
      </trkpt>
      <trkpt lat="43.03338" lon="0.54065">
        <ele>595</ele>
        <time>2018-03-18T12:40:55.000Z</time>
      </trkpt>
      <trkpt lat="43.03338" lon="0.54065">
        <ele>595</ele>
        <time>2018-03-18T12:40:57.000Z</time>
      </trkpt>
      <trkpt lat="43.03338" lon="0.54065">
        <ele>595</ele>
        <time>2018-03-18T12:40:59.000Z</time>
      </trkpt>
      <trkpt lat="43.03339" lon="0.54065">
        <ele>595</ele>
        <time>2018-03-18T12:41:01.000Z</time>
      </trkpt>
      <trkpt lat="43.03339" lon="0.54065">
        <ele>595</ele>
        <time>2018-03-18T12:41:03.000Z</time>
      </trkpt>
      <trkpt lat="43.03339" lon="0.54065">
        <ele>595</ele>
        <time>2018-03-18T12:41:05.000Z</time>
      </trkpt>
      <trkpt lat="43.03338" lon="0.54066">
        <ele>594</ele>
        <time>2018-03-18T12:41:07.000Z</time>
      </trkpt>
      <trkpt lat="43.03338" lon="0.54066">
        <ele>594</ele>
        <time>2018-03-18T12:41:09.000Z</time>
      </trkpt>
      <trkpt lat="43.03337" lon="0.54066">
        <ele>594</ele>
        <time>2018-03-18T12:41:11.000Z</time>
      </trkpt>
      <trkpt lat="43.03337" lon="0.54066">
        <ele>594</ele>
        <time>2018-03-18T12:41:13.000Z</time>
      </trkpt>
      <trkpt lat="43.03337" lon="0.54066">
        <ele>594</ele>
        <time>2018-03-18T12:41:15.000Z</time>
      </trkpt>
      <trkpt lat="43.03337" lon="0.54066">
        <ele>594</ele>
        <time>2018-03-18T12:41:17.000Z</time>
      </trkpt>
      <trkpt lat="43.03336" lon="0.54066">
        <ele>594</ele>
        <time>2018-03-18T12:41:19.000Z</time>
      </trkpt>
      <trkpt lat="43.03336" lon="0.54066">
        <ele>594</ele>
        <time>2018-03-18T12:41:21.000Z</time>
      </trkpt>
      <trkpt lat="43.03336" lon="0.54066">
        <ele>594</ele>
        <time>2018-03-18T12:41:23.000Z</time>
      </trkpt>
      <trkpt lat="43.03336" lon="0.54066">
        <ele>594</ele>
        <time>2018-03-18T12:41:25.000Z</time>
      </trkpt>
      <trkpt lat="43.03336" lon="0.54066">
        <ele>594</ele>
        <time>2018-03-18T12:41:27.000Z</time>
      </trkpt>
      <trkpt lat="43.03336" lon="0.54066">
        <ele>594</ele>
        <time>2018-03-18T12:41:29.000Z</time>
      </trkpt>
      <trkpt lat="43.03336" lon="0.54066">
        <ele>594</ele>
        <time>2018-03-18T12:41:31.000Z</time>
      </trkpt>
      <trkpt lat="43.03336" lon="0.54066">
        <ele>594</ele>
        <time>2018-03-18T12:41:33.000Z</time>
      </trkpt>
      <trkpt lat="43.03336" lon="0.54066">
        <ele>594</ele>
        <time>2018-03-18T12:41:35.000Z</time>
      </trkpt>
      <trkpt lat="43.03336" lon="0.54066">
        <ele>594</ele>
        <time>2018-03-18T12:41:37.000Z</time>
      </trkpt>
      <trkpt lat="43.03336" lon="0.54067">
        <ele>594</ele>
        <time>2018-03-18T12:41:39.000Z</time>
      </trkpt>
      <trkpt lat="43.03335" lon="0.54067">
        <ele>594</ele>
        <time>2018-03-18T12:41:41.000Z</time>
      </trkpt>
      <trkpt lat="43.03335" lon="0.54068">
        <ele>594</ele>
        <time>2018-03-18T12:41:43.000Z</time>
      </trkpt>
      <trkpt lat="43.03334" lon="0.54068">
        <ele>594</ele>
        <time>2018-03-18T12:41:45.000Z</time>
      </trkpt>
      <trkpt lat="43.03334" lon="0.54068">
        <ele>594</ele>
        <time>2018-03-18T12:41:47.000Z</time>
      </trkpt>
      <trkpt lat="43.03333" lon="0.54069">
        <ele>594</ele>
        <time>2018-03-18T12:41:49.000Z</time>
      </trkpt>
      <trkpt lat="43.03333" lon="0.54069">
        <ele>594</ele>
        <time>2018-03-18T12:41:51.000Z</time>
      </trkpt>
      <trkpt lat="43.03333" lon="0.54069">
        <ele>594</ele>
        <time>2018-03-18T12:41:53.000Z</time>
      </trkpt>
      <trkpt lat="43.03333" lon="0.5407">
        <ele>594</ele>
        <time>2018-03-18T12:41:55.000Z</time>
      </trkpt>
      <trkpt lat="43.03333" lon="0.5407">
        <ele>593</ele>
        <time>2018-03-18T12:41:57.000Z</time>
      </trkpt>
      <trkpt lat="43.03333" lon="0.5407">
        <ele>594</ele>
        <time>2018-03-18T12:41:59.000Z</time>
      </trkpt>
      <trkpt lat="43.03334" lon="0.5407">
        <ele>594</ele>
        <time>2018-03-18T12:42:01.000Z</time>
      </trkpt>
      <trkpt lat="43.03334" lon="0.54069">
        <ele>594</ele>
        <time>2018-03-18T12:42:03.000Z</time>
      </trkpt>
      <trkpt lat="43.03334" lon="0.54069">
        <ele>594</ele>
        <time>2018-03-18T12:42:05.000Z</time>
      </trkpt>
      <trkpt lat="43.03335" lon="0.54069">
        <ele>594</ele>
        <time>2018-03-18T12:42:07.000Z</time>
      </trkpt>
      <trkpt lat="43.03335" lon="0.54069">
        <ele>594</ele>
        <time>2018-03-18T12:42:09.000Z</time>
      </trkpt>
      <trkpt lat="43.03335" lon="0.54068">
        <ele>594</ele>
        <time>2018-03-18T12:42:11.000Z</time>
      </trkpt>
      <trkpt lat="43.03335" lon="0.54068">
        <ele>594</ele>
        <time>2018-03-18T12:42:13.000Z</time>
      </trkpt>
      <trkpt lat="43.03336" lon="0.54068">
        <ele>594</ele>
        <time>2018-03-18T12:42:15.000Z</time>
      </trkpt>
      <trkpt lat="43.03336" lon="0.54068">
        <ele>594</ele>
        <time>2018-03-18T12:42:17.000Z</time>
      </trkpt>
      <trkpt lat="43.03336" lon="0.54068">
        <ele>594</ele>
        <time>2018-03-18T12:42:19.000Z</time>
      </trkpt>
      <trkpt lat="43.03337" lon="0.54067">
        <ele>594</ele>
        <time>2018-03-18T12:42:21.000Z</time>
      </trkpt>
      <trkpt lat="43.03337" lon="0.54067">
        <ele>594</ele>
        <time>2018-03-18T12:42:23.000Z</time>
      </trkpt>
      <trkpt lat="43.03337" lon="0.54066">
        <ele>594</ele>
        <time>2018-03-18T12:42:25.000Z</time>
      </trkpt>
      <trkpt lat="43.03338" lon="0.54066">
        <ele>594</ele>
        <time>2018-03-18T12:42:27.000Z</time>
      </trkpt>
      <trkpt lat="43.03338" lon="0.54065">
        <ele>594</ele>
        <time>2018-03-18T12:42:29.000Z</time>
      </trkpt>
      <trkpt lat="43.03338" lon="0.54065">
        <ele>595</ele>
        <time>2018-03-18T12:42:31.000Z</time>
      </trkpt>
      <trkpt lat="43.03337" lon="0.54065">
        <ele>595</ele>
        <time>2018-03-18T12:42:33.000Z</time>
      </trkpt>
      <trkpt lat="43.03337" lon="0.54065">
        <ele>595</ele>
        <time>2018-03-18T12:42:35.000Z</time>
      </trkpt>
      <trkpt lat="43.03337" lon="0.54064">
        <ele>595</ele>
        <time>2018-03-18T12:42:37.000Z</time>
      </trkpt>
      <trkpt lat="43.03337" lon="0.54064">
        <ele>595</ele>
        <time>2018-03-18T12:42:39.000Z</time>
      </trkpt>
      <trkpt lat="43.03336" lon="0.54064">
        <ele>595</ele>
        <time>2018-03-18T12:42:41.000Z</time>
      </trkpt>
      <trkpt lat="43.03336" lon="0.54064">
        <ele>595</ele>
        <time>2018-03-18T12:42:43.000Z</time>
      </trkpt>
      <trkpt lat="43.03336" lon="0.54064">
        <ele>595</ele>
        <time>2018-03-18T12:42:45.000Z</time>
      </trkpt>
      <trkpt lat="43.03336" lon="0.54064">
        <ele>595</ele>
        <time>2018-03-18T12:42:47.000Z</time>
      </trkpt>
      <trkpt lat="43.03336" lon="0.54064">
        <ele>595</ele>
        <time>2018-03-18T12:42:49.000Z</time>
      </trkpt>
      <trkpt lat="43.03336" lon="0.54064">
        <ele>595</ele>
        <time>2018-03-18T12:42:51.000Z</time>
      </trkpt>
      <trkpt lat="43.03336" lon="0.54064">
        <ele>595</ele>
        <time>2018-03-18T12:42:53.000Z</time>
      </trkpt>
      <trkpt lat="43.03336" lon="0.54064">
        <ele>595</ele>
        <time>2018-03-18T12:42:55.000Z</time>
      </trkpt>
      <trkpt lat="43.03336" lon="0.54064">
        <ele>595</ele>
        <time>2018-03-18T12:42:57.000Z</time>
      </trkpt>
      <trkpt lat="43.03336" lon="0.54064">
        <ele>595</ele>
        <time>2018-03-18T12:42:59.000Z</time>
      </trkpt>
      <trkpt lat="43.03336" lon="0.54064">
        <ele>595</ele>
        <time>2018-03-18T12:43:01.000Z</time>
      </trkpt>
      <trkpt lat="43.03336" lon="0.54064">
        <ele>595</ele>
        <time>2018-03-18T12:43:03.000Z</time>
      </trkpt>
      <trkpt lat="43.03336" lon="0.54064">
        <ele>595</ele>
        <time>2018-03-18T12:43:05.000Z</time>
      </trkpt>
      <trkpt lat="43.03336" lon="0.54065">
        <ele>594</ele>
        <time>2018-03-18T12:43:07.000Z</time>
      </trkpt>
      <trkpt lat="43.03336" lon="0.54064">
        <ele>594</ele>
        <time>2018-03-18T12:43:09.000Z</time>
      </trkpt>
      <trkpt lat="43.03336" lon="0.54065">
        <ele>594</ele>
        <time>2018-03-18T12:43:11.000Z</time>
      </trkpt>
      <trkpt lat="43.03336" lon="0.54065">
        <ele>594</ele>
        <time>2018-03-18T12:43:13.000Z</time>
      </trkpt>
      <trkpt lat="43.03336" lon="0.54065">
        <ele>594</ele>
        <time>2018-03-18T12:43:15.000Z</time>
      </trkpt>
      <trkpt lat="43.03336" lon="0.54065">
        <ele>594</ele>
        <time>2018-03-18T12:43:17.000Z</time>
      </trkpt>
      <trkpt lat="43.03336" lon="0.54065">
        <ele>594</ele>
        <time>2018-03-18T12:43:19.000Z</time>
      </trkpt>
      <trkpt lat="43.03336" lon="0.54065">
        <ele>594</ele>
        <time>2018-03-18T12:43:21.000Z</time>
      </trkpt>
      <trkpt lat="43.03337" lon="0.54065">
        <ele>594</ele>
        <time>2018-03-18T12:43:23.000Z</time>
      </trkpt>
      <trkpt lat="43.03337" lon="0.54065">
        <ele>594</ele>
        <time>2018-03-18T12:43:25.000Z</time>
      </trkpt>
      <trkpt lat="43.03337" lon="0.54065">
        <ele>594</ele>
        <time>2018-03-18T12:43:27.000Z</time>
      </trkpt>
      <trkpt lat="43.03338" lon="0.54065">
        <ele>595</ele>
        <time>2018-03-18T12:43:29.000Z</time>
      </trkpt>
      <trkpt lat="43.03337" lon="0.54065">
        <ele>594</ele>
        <time>2018-03-18T12:43:31.000Z</time>
      </trkpt>
      <trkpt lat="43.03337" lon="0.54065">
        <ele>594</ele>
        <time>2018-03-18T12:43:33.000Z</time>
      </trkpt>
      <trkpt lat="43.03337" lon="0.54065">
        <ele>595</ele>
        <time>2018-03-18T12:43:35.000Z</time>
      </trkpt>
      <trkpt lat="43.03337" lon="0.54064">
        <ele>595</ele>
        <time>2018-03-18T12:43:37.000Z</time>
      </trkpt>
      <trkpt lat="43.03337" lon="0.54065">
        <ele>594</ele>
        <time>2018-03-18T12:43:39.000Z</time>
      </trkpt>
      <trkpt lat="43.03337" lon="0.54065">
        <ele>595</ele>
        <time>2018-03-18T12:43:41.000Z</time>
      </trkpt>
      <trkpt lat="43.03337" lon="0.54065">
        <ele>594</ele>
        <time>2018-03-18T12:43:43.000Z</time>
      </trkpt>
      <trkpt lat="43.03337" lon="0.54065">
        <ele>594</ele>
        <time>2018-03-18T12:43:45.000Z</time>
      </trkpt>
      <trkpt lat="43.03337" lon="0.54065">
        <ele>594</ele>
        <time>2018-03-18T12:43:47.000Z</time>
      </trkpt>
      <trkpt lat="43.03336" lon="0.54065">
        <ele>594</ele>
        <time>2018-03-18T12:43:49.000Z</time>
      </trkpt>
      <trkpt lat="43.03335" lon="0.54066">
        <ele>594</ele>
        <time>2018-03-18T12:43:51.000Z</time>
      </trkpt>
      <trkpt lat="43.03334" lon="0.54066">
        <ele>594</ele>
        <time>2018-03-18T12:43:53.000Z</time>
      </trkpt>
      <trkpt lat="43.03333" lon="0.54066">
        <ele>594</ele>
        <time>2018-03-18T12:43:55.000Z</time>
      </trkpt>
      <trkpt lat="43.03332" lon="0.54066">
        <ele>594</ele>
        <time>2018-03-18T12:43:57.000Z</time>
      </trkpt>
      <trkpt lat="43.03332" lon="0.54066">
        <ele>594</ele>
        <time>2018-03-18T12:43:59.000Z</time>
      </trkpt>
      <trkpt lat="43.03332" lon="0.54067">
        <ele>594</ele>
        <time>2018-03-18T12:44:01.000Z</time>
      </trkpt>
      <trkpt lat="43.03332" lon="0.54066">
        <ele>594</ele>
        <time>2018-03-18T12:44:03.000Z</time>
      </trkpt>
      <trkpt lat="43.03333" lon="0.54066">
        <ele>594</ele>
        <time>2018-03-18T12:44:05.000Z</time>
      </trkpt>
      <trkpt lat="43.03333" lon="0.54066">
        <ele>594</ele>
        <time>2018-03-18T12:44:07.000Z</time>
      </trkpt>
      <trkpt lat="43.03334" lon="0.54066">
        <ele>594</ele>
        <time>2018-03-18T12:44:09.000Z</time>
      </trkpt>
      <trkpt lat="43.03334" lon="0.54065">
        <ele>594</ele>
        <time>2018-03-18T12:44:11.000Z</time>
      </trkpt>
      <trkpt lat="43.03335" lon="0.54065">
        <ele>594</ele>
        <time>2018-03-18T12:44:13.000Z</time>
      </trkpt>
      <trkpt lat="43.03336" lon="0.54064">
        <ele>594</ele>
        <time>2018-03-18T12:44:15.000Z</time>
      </trkpt>
      <trkpt lat="43.03336" lon="0.54064">
        <ele>595</ele>
        <time>2018-03-18T12:44:17.000Z</time>
      </trkpt>
      <trkpt lat="43.03337" lon="0.54064">
        <ele>595</ele>
        <time>2018-03-18T12:44:19.000Z</time>
      </trkpt>
      <trkpt lat="43.03338" lon="0.54065">
        <ele>595</ele>
        <time>2018-03-18T12:44:21.000Z</time>
      </trkpt>
      <trkpt lat="43.03338" lon="0.54065">
        <ele>595</ele>
        <time>2018-03-18T12:44:23.000Z</time>
      </trkpt>
      <trkpt lat="43.03339" lon="0.54064">
        <ele>595</ele>
        <time>2018-03-18T12:44:25.000Z</time>
      </trkpt>
      <trkpt lat="43.03339" lon="0.54064">
        <ele>595</ele>
        <time>2018-03-18T12:44:27.000Z</time>
      </trkpt>
      <trkpt lat="43.0334" lon="0.54064">
        <ele>595</ele>
        <time>2018-03-18T12:44:29.000Z</time>
      </trkpt>
      <trkpt lat="43.0334" lon="0.54063">
        <ele>595</ele>
        <time>2018-03-18T12:44:31.000Z</time>
      </trkpt>
      <trkpt lat="43.0334" lon="0.54063">
        <ele>595</ele>
        <time>2018-03-18T12:44:33.000Z</time>
      </trkpt>
      <trkpt lat="43.0334" lon="0.54063">
        <ele>595</ele>
        <time>2018-03-18T12:44:35.000Z</time>
      </trkpt>
      <trkpt lat="43.03341" lon="0.54062">
        <ele>595</ele>
        <time>2018-03-18T12:44:37.000Z</time>
      </trkpt>
      <trkpt lat="43.03341" lon="0.54062">
        <ele>595</ele>
        <time>2018-03-18T12:44:39.000Z</time>
      </trkpt>
      <trkpt lat="43.03341" lon="0.54062">
        <ele>595</ele>
        <time>2018-03-18T12:44:41.000Z</time>
      </trkpt>
      <trkpt lat="43.03341" lon="0.54061">
        <ele>595</ele>
        <time>2018-03-18T12:44:43.000Z</time>
      </trkpt>
      <trkpt lat="43.03341" lon="0.54061">
        <ele>595</ele>
        <time>2018-03-18T12:44:45.000Z</time>
      </trkpt>
      <trkpt lat="43.03341" lon="0.54061">
        <ele>595</ele>
        <time>2018-03-18T12:44:47.000Z</time>
      </trkpt>
      <trkpt lat="43.03341" lon="0.54061">
        <ele>595</ele>
        <time>2018-03-18T12:44:49.000Z</time>
      </trkpt>
      <trkpt lat="43.0334" lon="0.54061">
        <ele>595</ele>
        <time>2018-03-18T12:44:51.000Z</time>
      </trkpt>
      <trkpt lat="43.0334" lon="0.54062">
        <ele>595</ele>
        <time>2018-03-18T12:44:53.000Z</time>
      </trkpt>
      <trkpt lat="43.03338" lon="0.54062">
        <ele>595</ele>
        <time>2018-03-18T12:44:55.000Z</time>
      </trkpt>
      <trkpt lat="43.03336" lon="0.54062">
        <ele>595</ele>
        <time>2018-03-18T12:44:57.000Z</time>
      </trkpt>
      <trkpt lat="43.03336" lon="0.54062">
        <ele>595</ele>
        <time>2018-03-18T12:44:59.000Z</time>
      </trkpt>
      <trkpt lat="43.03335" lon="0.54063">
        <ele>595</ele>
        <time>2018-03-18T12:45:01.000Z</time>
      </trkpt>
      <trkpt lat="43.03335" lon="0.54063">
        <ele>595</ele>
        <time>2018-03-18T12:45:03.000Z</time>
      </trkpt>
      <trkpt lat="43.03335" lon="0.54063">
        <ele>595</ele>
        <time>2018-03-18T12:45:05.000Z</time>
      </trkpt>
      <trkpt lat="43.03335" lon="0.54063">
        <ele>595</ele>
        <time>2018-03-18T12:45:07.000Z</time>
      </trkpt>
      <trkpt lat="43.03335" lon="0.54064">
        <ele>595</ele>
        <time>2018-03-18T12:45:09.000Z</time>
      </trkpt>
      <trkpt lat="43.03335" lon="0.54064">
        <ele>595</ele>
        <time>2018-03-18T12:45:11.000Z</time>
      </trkpt>
      <trkpt lat="43.03336" lon="0.54064">
        <ele>595</ele>
        <time>2018-03-18T12:45:13.000Z</time>
      </trkpt>
      <trkpt lat="43.03336" lon="0.54064">
        <ele>595</ele>
        <time>2018-03-18T12:45:15.000Z</time>
      </trkpt>
      <trkpt lat="43.03337" lon="0.54065">
        <ele>594</ele>
        <time>2018-03-18T12:45:17.000Z</time>
      </trkpt>
      <trkpt lat="43.03337" lon="0.54065">
        <ele>594</ele>
        <time>2018-03-18T12:45:19.000Z</time>
      </trkpt>
      <trkpt lat="43.03338" lon="0.54065">
        <ele>594</ele>
        <time>2018-03-18T12:45:21.000Z</time>
      </trkpt>
      <trkpt lat="43.03338" lon="0.54065">
        <ele>595</ele>
        <time>2018-03-18T12:45:23.000Z</time>
      </trkpt>
      <trkpt lat="43.03339" lon="0.54065">
        <ele>595</ele>
        <time>2018-03-18T12:45:25.000Z</time>
      </trkpt>
      <trkpt lat="43.03339" lon="0.54064">
        <ele>595</ele>
        <time>2018-03-18T12:45:27.000Z</time>
      </trkpt>
      <trkpt lat="43.03339" lon="0.54064">
        <ele>595</ele>
        <time>2018-03-18T12:45:29.000Z</time>
      </trkpt>
      <trkpt lat="43.03339" lon="0.54064">
        <ele>595</ele>
        <time>2018-03-18T12:45:31.000Z</time>
      </trkpt>
      <trkpt lat="43.03339" lon="0.54064">
        <ele>595</ele>
        <time>2018-03-18T12:45:33.000Z</time>
      </trkpt>
      <trkpt lat="43.03339" lon="0.54064">
        <ele>595</ele>
        <time>2018-03-18T12:45:35.000Z</time>
      </trkpt>
      <trkpt lat="43.03339" lon="0.54064">
        <ele>595</ele>
        <time>2018-03-18T12:45:37.000Z</time>
      </trkpt>
      <trkpt lat="43.03339" lon="0.54064">
        <ele>595</ele>
        <time>2018-03-18T12:45:39.000Z</time>
      </trkpt>
      <trkpt lat="43.03339" lon="0.54064">
        <ele>595</ele>
        <time>2018-03-18T12:45:41.000Z</time>
      </trkpt>
      <trkpt lat="43.03339" lon="0.54064">
        <ele>595</ele>
        <time>2018-03-18T12:45:43.000Z</time>
      </trkpt>
      <trkpt lat="43.03339" lon="0.54064">
        <ele>595</ele>
        <time>2018-03-18T12:45:45.000Z</time>
      </trkpt>
      <trkpt lat="43.03339" lon="0.54064">
        <ele>595</ele>
        <time>2018-03-18T12:45:47.000Z</time>
      </trkpt>
      <trkpt lat="43.03339" lon="0.54064">
        <ele>595</ele>
        <time>2018-03-18T12:45:49.000Z</time>
      </trkpt>
      <trkpt lat="43.03338" lon="0.54064">
        <ele>595</ele>
        <time>2018-03-18T12:45:51.000Z</time>
      </trkpt>
      <trkpt lat="43.03338" lon="0.54064">
        <ele>595</ele>
        <time>2018-03-18T12:45:53.000Z</time>
      </trkpt>
      <trkpt lat="43.03338" lon="0.54065">
        <ele>595</ele>
        <time>2018-03-18T12:45:55.000Z</time>
      </trkpt>
      <trkpt lat="43.03338" lon="0.54065">
        <ele>595</ele>
        <time>2018-03-18T12:45:57.000Z</time>
      </trkpt>
      <trkpt lat="43.03338" lon="0.54065">
        <ele>594</ele>
        <time>2018-03-18T12:45:59.000Z</time>
      </trkpt>
      <trkpt lat="43.03337" lon="0.54066">
        <ele>594</ele>
        <time>2018-03-18T12:46:01.000Z</time>
      </trkpt>
      <trkpt lat="43.03337" lon="0.54066">
        <ele>594</ele>
        <time>2018-03-18T12:46:03.000Z</time>
      </trkpt>
      <trkpt lat="43.03337" lon="0.54066">
        <ele>594</ele>
        <time>2018-03-18T12:46:05.000Z</time>
      </trkpt>
      <trkpt lat="43.03338" lon="0.54066">
        <ele>594</ele>
        <time>2018-03-18T12:46:07.000Z</time>
      </trkpt>
      <trkpt lat="43.03338" lon="0.54066">
        <ele>594</ele>
        <time>2018-03-18T12:46:09.000Z</time>
      </trkpt>
      <trkpt lat="43.03338" lon="0.54066">
        <ele>594</ele>
        <time>2018-03-18T12:46:11.000Z</time>
      </trkpt>
      <trkpt lat="43.03338" lon="0.54066">
        <ele>594</ele>
        <time>2018-03-18T12:46:13.000Z</time>
      </trkpt>
      <trkpt lat="43.03338" lon="0.54066">
        <ele>594</ele>
        <time>2018-03-18T12:46:15.000Z</time>
      </trkpt>
      <trkpt lat="43.03338" lon="0.54067">
        <ele>594</ele>
        <time>2018-03-18T12:46:17.000Z</time>
      </trkpt>
      <trkpt lat="43.03337" lon="0.54067">
        <ele>594</ele>
        <time>2018-03-18T12:46:19.000Z</time>
      </trkpt>
      <trkpt lat="43.03337" lon="0.54067">
        <ele>594</ele>
        <time>2018-03-18T12:46:21.000Z</time>
      </trkpt>
      <trkpt lat="43.03338" lon="0.54067">
        <ele>594</ele>
        <time>2018-03-18T12:46:23.000Z</time>
      </trkpt>
      <trkpt lat="43.03338" lon="0.54067">
        <ele>594</ele>
        <time>2018-03-18T12:46:25.000Z</time>
      </trkpt>
      <trkpt lat="43.03339" lon="0.54067">
        <ele>594</ele>
        <time>2018-03-18T12:46:27.000Z</time>
      </trkpt>
      <trkpt lat="43.0334" lon="0.54066">
        <ele>594</ele>
        <time>2018-03-18T12:46:29.000Z</time>
      </trkpt>
      <trkpt lat="43.0334" lon="0.54066">
        <ele>594</ele>
        <time>2018-03-18T12:46:31.000Z</time>
      </trkpt>
      <trkpt lat="43.03341" lon="0.54066">
        <ele>595</ele>
        <time>2018-03-18T12:46:33.000Z</time>
      </trkpt>
      <trkpt lat="43.03342" lon="0.54066">
        <ele>595</ele>
        <time>2018-03-18T12:46:35.000Z</time>
      </trkpt>
      <trkpt lat="43.03342" lon="0.54065">
        <ele>595</ele>
        <time>2018-03-18T12:46:37.000Z</time>
      </trkpt>
      <trkpt lat="43.03343" lon="0.54064">
        <ele>595</ele>
        <time>2018-03-18T12:46:39.000Z</time>
      </trkpt>
      <trkpt lat="43.03343" lon="0.54065">
        <ele>595</ele>
        <time>2018-03-18T12:46:41.000Z</time>
      </trkpt>
      <trkpt lat="43.03343" lon="0.54065">
        <ele>595</ele>
        <time>2018-03-18T12:46:43.000Z</time>
      </trkpt>
      <trkpt lat="43.03344" lon="0.54065">
        <ele>595</ele>
        <time>2018-03-18T12:46:45.000Z</time>
      </trkpt>
      <trkpt lat="43.03344" lon="0.54065">
        <ele>595</ele>
        <time>2018-03-18T12:46:47.000Z</time>
      </trkpt>
      <trkpt lat="43.03344" lon="0.54065">
        <ele>595</ele>
        <time>2018-03-18T12:46:49.000Z</time>
      </trkpt>
      <trkpt lat="43.03343" lon="0.54065">
        <ele>595</ele>
        <time>2018-03-18T12:46:51.000Z</time>
      </trkpt>
      <trkpt lat="43.03342" lon="0.54065">
        <ele>595</ele>
        <time>2018-03-18T12:46:53.000Z</time>
      </trkpt>
      <trkpt lat="43.03342" lon="0.54065">
        <ele>595</ele>
        <time>2018-03-18T12:46:55.000Z</time>
      </trkpt>
      <trkpt lat="43.03341" lon="0.54065">
        <ele>595</ele>
        <time>2018-03-18T12:46:57.000Z</time>
      </trkpt>
      <trkpt lat="43.0334" lon="0.54065">
        <ele>595</ele>
        <time>2018-03-18T12:46:59.000Z</time>
      </trkpt>
      <trkpt lat="43.03339" lon="0.54066">
        <ele>594</ele>
        <time>2018-03-18T12:47:01.000Z</time>
      </trkpt>
      <trkpt lat="43.03339" lon="0.54066">
        <ele>594</ele>
        <time>2018-03-18T12:47:03.000Z</time>
      </trkpt>
      <trkpt lat="43.03338" lon="0.54065">
        <ele>594</ele>
        <time>2018-03-18T12:47:05.000Z</time>
      </trkpt>
      <trkpt lat="43.03338" lon="0.54065">
        <ele>594</ele>
        <time>2018-03-18T12:47:07.000Z</time>
      </trkpt>
      <trkpt lat="43.03338" lon="0.54065">
        <ele>594</ele>
        <time>2018-03-18T12:47:09.000Z</time>
      </trkpt>
      <trkpt lat="43.03338" lon="0.54065">
        <ele>594</ele>
        <time>2018-03-18T12:47:11.000Z</time>
      </trkpt>
      <trkpt lat="43.03338" lon="0.54065">
        <ele>594</ele>
        <time>2018-03-18T12:47:13.000Z</time>
      </trkpt>
      <trkpt lat="43.03338" lon="0.54065">
        <ele>594</ele>
        <time>2018-03-18T12:47:15.000Z</time>
      </trkpt>
      <trkpt lat="43.03338" lon="0.54065">
        <ele>594</ele>
        <time>2018-03-18T12:47:17.000Z</time>
      </trkpt>
      <trkpt lat="43.03338" lon="0.54065">
        <ele>594</ele>
        <time>2018-03-18T12:47:19.000Z</time>
      </trkpt>
      <trkpt lat="43.03338" lon="0.54065">
        <ele>594</ele>
        <time>2018-03-18T12:47:21.000Z</time>
      </trkpt>
      <trkpt lat="43.03338" lon="0.54066">
        <ele>594</ele>
        <time>2018-03-18T12:47:23.000Z</time>
      </trkpt>
      <trkpt lat="43.03338" lon="0.54066">
        <ele>594</ele>
        <time>2018-03-18T12:47:25.000Z</time>
      </trkpt>
      <trkpt lat="43.03338" lon="0.54066">
        <ele>594</ele>
        <time>2018-03-18T12:47:27.000Z</time>
      </trkpt>
      <trkpt lat="43.03338" lon="0.54066">
        <ele>594</ele>
        <time>2018-03-18T12:47:29.000Z</time>
      </trkpt>
      <trkpt lat="43.03338" lon="0.54066">
        <ele>594</ele>
        <time>2018-03-18T12:47:31.000Z</time>
      </trkpt>
      <trkpt lat="43.03338" lon="0.54066">
        <ele>594</ele>
        <time>2018-03-18T12:47:33.000Z</time>
      </trkpt>
      <trkpt lat="43.03338" lon="0.54066">
        <ele>594</ele>
        <time>2018-03-18T12:47:35.000Z</time>
      </trkpt>
      <trkpt lat="43.03338" lon="0.54066">
        <ele>594</ele>
        <time>2018-03-18T12:47:37.000Z</time>
      </trkpt>
      <trkpt lat="43.03339" lon="0.54066">
        <ele>594</ele>
        <time>2018-03-18T12:47:39.000Z</time>
      </trkpt>
      <trkpt lat="43.03339" lon="0.54066">
        <ele>594</ele>
        <time>2018-03-18T12:47:41.000Z</time>
      </trkpt>
      <trkpt lat="43.03339" lon="0.54066">
        <ele>594</ele>
        <time>2018-03-18T12:47:43.000Z</time>
      </trkpt>
      <trkpt lat="43.03339" lon="0.54066">
        <ele>594</ele>
        <time>2018-03-18T12:47:45.000Z</time>
      </trkpt>
      <trkpt lat="43.03339" lon="0.54066">
        <ele>594</ele>
        <time>2018-03-18T12:47:47.000Z</time>
      </trkpt>
      <trkpt lat="43.03339" lon="0.54066">
        <ele>594</ele>
        <time>2018-03-18T12:47:49.000Z</time>
      </trkpt>
      <trkpt lat="43.03339" lon="0.54066">
        <ele>594</ele>
        <time>2018-03-18T12:47:51.000Z</time>
      </trkpt>
      <trkpt lat="43.03339" lon="0.54066">
        <ele>594</ele>
        <time>2018-03-18T12:47:53.000Z</time>
      </trkpt>
      <trkpt lat="43.03338" lon="0.54066">
        <ele>594</ele>
        <time>2018-03-18T12:47:55.000Z</time>
      </trkpt>
      <trkpt lat="43.03338" lon="0.54066">
        <ele>594</ele>
        <time>2018-03-18T12:47:57.000Z</time>
      </trkpt>
      <trkpt lat="43.03338" lon="0.54066">
        <ele>594</ele>
        <time>2018-03-18T12:47:59.000Z</time>
      </trkpt>
      <trkpt lat="43.03338" lon="0.54066">
        <ele>594</ele>
        <time>2018-03-18T12:48:01.000Z</time>
      </trkpt>
      <trkpt lat="43.03338" lon="0.54066">
        <ele>594</ele>
        <time>2018-03-18T12:48:03.000Z</time>
      </trkpt>
      <trkpt lat="43.03338" lon="0.54066">
        <ele>594</ele>
        <time>2018-03-18T12:48:05.000Z</time>
      </trkpt>
      <trkpt lat="43.03338" lon="0.54065">
        <ele>594</ele>
        <time>2018-03-18T12:48:07.000Z</time>
      </trkpt>
      <trkpt lat="43.03338" lon="0.54065">
        <ele>594</ele>
        <time>2018-03-18T12:48:09.000Z</time>
      </trkpt>
      <trkpt lat="43.03338" lon="0.54065">
        <ele>594</ele>
        <time>2018-03-18T12:48:11.000Z</time>
      </trkpt>
      <trkpt lat="43.03337" lon="0.54065">
        <ele>595</ele>
        <time>2018-03-18T12:48:13.000Z</time>
      </trkpt>
      <trkpt lat="43.03337" lon="0.54065">
        <ele>595</ele>
        <time>2018-03-18T12:48:15.000Z</time>
      </trkpt>
      <trkpt lat="43.03337" lon="0.54065">
        <ele>594</ele>
        <time>2018-03-18T12:48:17.000Z</time>
      </trkpt>
      <trkpt lat="43.03337" lon="0.54065">
        <ele>594</ele>
        <time>2018-03-18T12:48:19.000Z</time>
      </trkpt>
      <trkpt lat="43.03337" lon="0.54065">
        <ele>594</ele>
        <time>2018-03-18T12:48:21.000Z</time>
      </trkpt>
      <trkpt lat="43.03337" lon="0.54065">
        <ele>594</ele>
        <time>2018-03-18T12:48:23.000Z</time>
      </trkpt>
      <trkpt lat="43.03337" lon="0.54065">
        <ele>594</ele>
        <time>2018-03-18T12:48:25.000Z</time>
      </trkpt>
      <trkpt lat="43.03337" lon="0.54065">
        <ele>594</ele>
        <time>2018-03-18T12:48:27.000Z</time>
      </trkpt>
      <trkpt lat="43.03336" lon="0.54065">
        <ele>594</ele>
        <time>2018-03-18T12:48:29.000Z</time>
      </trkpt>
      <trkpt lat="43.03336" lon="0.54065">
        <ele>594</ele>
        <time>2018-03-18T12:48:31.000Z</time>
      </trkpt>
      <trkpt lat="43.03336" lon="0.54065">
        <ele>594</ele>
        <time>2018-03-18T12:48:33.000Z</time>
      </trkpt>
      <trkpt lat="43.03336" lon="0.54065">
        <ele>594</ele>
        <time>2018-03-18T12:48:35.000Z</time>
      </trkpt>
      <trkpt lat="43.03336" lon="0.54064">
        <ele>594</ele>
        <time>2018-03-18T12:48:37.000Z</time>
      </trkpt>
      <trkpt lat="43.03335" lon="0.54064">
        <ele>594</ele>
        <time>2018-03-18T12:48:39.000Z</time>
      </trkpt>
      <trkpt lat="43.03335" lon="0.54064">
        <ele>594</ele>
        <time>2018-03-18T12:48:41.000Z</time>
      </trkpt>
      <trkpt lat="43.03335" lon="0.54064">
        <ele>594</ele>
        <time>2018-03-18T12:48:43.000Z</time>
      </trkpt>
      <trkpt lat="43.03335" lon="0.54064">
        <ele>594</ele>
        <time>2018-03-18T12:48:45.000Z</time>
      </trkpt>
      <trkpt lat="43.03335" lon="0.54064">
        <ele>594</ele>
        <time>2018-03-18T12:48:47.000Z</time>
      </trkpt>
      <trkpt lat="43.03335" lon="0.54065">
        <ele>594</ele>
        <time>2018-03-18T12:48:49.000Z</time>
      </trkpt>
      <trkpt lat="43.03335" lon="0.54065">
        <ele>594</ele>
        <time>2018-03-18T12:48:51.000Z</time>
      </trkpt>
      <trkpt lat="43.03336" lon="0.54065">
        <ele>594</ele>
        <time>2018-03-18T12:48:53.000Z</time>
      </trkpt>
      <trkpt lat="43.03336" lon="0.54065">
        <ele>594</ele>
        <time>2018-03-18T12:48:55.000Z</time>
      </trkpt>
      <trkpt lat="43.03336" lon="0.54065">
        <ele>594</ele>
        <time>2018-03-18T12:48:57.000Z</time>
      </trkpt>
      <trkpt lat="43.03336" lon="0.54066">
        <ele>594</ele>
        <time>2018-03-18T12:48:59.000Z</time>
      </trkpt>
      <trkpt lat="43.03336" lon="0.54066">
        <ele>594</ele>
        <time>2018-03-18T12:49:01.000Z</time>
      </trkpt>
      <trkpt lat="43.03336" lon="0.54066">
        <ele>594</ele>
        <time>2018-03-18T12:49:03.000Z</time>
      </trkpt>
      <trkpt lat="43.03336" lon="0.54066">
        <ele>594</ele>
        <time>2018-03-18T12:49:05.000Z</time>
      </trkpt>
      <trkpt lat="43.03336" lon="0.54066">
        <ele>594</ele>
        <time>2018-03-18T12:49:07.000Z</time>
      </trkpt>
      <trkpt lat="43.03336" lon="0.54066">
        <ele>594</ele>
        <time>2018-03-18T12:49:09.000Z</time>
      </trkpt>
      <trkpt lat="43.03336" lon="0.54067">
        <ele>594</ele>
        <time>2018-03-18T12:49:11.000Z</time>
      </trkpt>
      <trkpt lat="43.03336" lon="0.54067">
        <ele>594</ele>
        <time>2018-03-18T12:49:13.000Z</time>
      </trkpt>
      <trkpt lat="43.03336" lon="0.54067">
        <ele>594</ele>
        <time>2018-03-18T12:49:15.000Z</time>
      </trkpt>
      <trkpt lat="43.03337" lon="0.54067">
        <ele>594</ele>
        <time>2018-03-18T12:49:17.000Z</time>
      </trkpt>
      <trkpt lat="43.03337" lon="0.54068">
        <ele>594</ele>
        <time>2018-03-18T12:49:19.000Z</time>
      </trkpt>
      <trkpt lat="43.03337" lon="0.54068">
        <ele>594</ele>
        <time>2018-03-18T12:49:21.000Z</time>
      </trkpt>
      <trkpt lat="43.03337" lon="0.54067">
        <ele>594</ele>
        <time>2018-03-18T12:49:23.000Z</time>
      </trkpt>
      <trkpt lat="43.03337" lon="0.54067">
        <ele>594</ele>
        <time>2018-03-18T12:49:25.000Z</time>
      </trkpt>
      <trkpt lat="43.03338" lon="0.54067">
        <ele>594</ele>
        <time>2018-03-18T12:49:27.000Z</time>
      </trkpt>
      <trkpt lat="43.03337" lon="0.54066">
        <ele>594</ele>
        <time>2018-03-18T12:49:29.000Z</time>
      </trkpt>
      <trkpt lat="43.03338" lon="0.54066">
        <ele>594</ele>
        <time>2018-03-18T12:49:31.000Z</time>
      </trkpt>
      <trkpt lat="43.03337" lon="0.54066">
        <ele>594</ele>
        <time>2018-03-18T12:49:33.000Z</time>
      </trkpt>
      <trkpt lat="43.03338" lon="0.54066">
        <ele>594</ele>
        <time>2018-03-18T12:49:35.000Z</time>
      </trkpt>
      <trkpt lat="43.03338" lon="0.54066">
        <ele>594</ele>
        <time>2018-03-18T12:49:37.000Z</time>
      </trkpt>
      <trkpt lat="43.03338" lon="0.54066">
        <ele>594</ele>
        <time>2018-03-18T12:49:39.000Z</time>
      </trkpt>
      <trkpt lat="43.03338" lon="0.54066">
        <ele>594</ele>
        <time>2018-03-18T12:49:41.000Z</time>
      </trkpt>
      <trkpt lat="43.03338" lon="0.54067">
        <ele>594</ele>
        <time>2018-03-18T12:49:43.000Z</time>
      </trkpt>
      <trkpt lat="43.03338" lon="0.54067">
        <ele>594</ele>
        <time>2018-03-18T12:49:45.000Z</time>
      </trkpt>
      <trkpt lat="43.03337" lon="0.54068">
        <ele>594</ele>
        <time>2018-03-18T12:49:47.000Z</time>
      </trkpt>
      <trkpt lat="43.03337" lon="0.54068">
        <ele>594</ele>
        <time>2018-03-18T12:49:49.000Z</time>
      </trkpt>
      <trkpt lat="43.03337" lon="0.54068">
        <ele>594</ele>
        <time>2018-03-18T12:49:51.000Z</time>
      </trkpt>
      <trkpt lat="43.03337" lon="0.54069">
        <ele>594</ele>
        <time>2018-03-18T12:49:53.000Z</time>
      </trkpt>
      <trkpt lat="43.03338" lon="0.54069">
        <ele>594</ele>
        <time>2018-03-18T12:49:55.000Z</time>
      </trkpt>
      <trkpt lat="43.03338" lon="0.5407">
        <ele>594</ele>
        <time>2018-03-18T12:49:57.000Z</time>
      </trkpt>
      <trkpt lat="43.03338" lon="0.5407">
        <ele>594</ele>
        <time>2018-03-18T12:49:59.000Z</time>
      </trkpt>
      <trkpt lat="43.03338" lon="0.5407">
        <ele>594</ele>
        <time>2018-03-18T12:50:01.000Z</time>
      </trkpt>
      <trkpt lat="43.03338" lon="0.54071">
        <ele>594</ele>
        <time>2018-03-18T12:50:03.000Z</time>
      </trkpt>
      <trkpt lat="43.03338" lon="0.54071">
        <ele>594</ele>
        <time>2018-03-18T12:50:05.000Z</time>
      </trkpt>
      <trkpt lat="43.03338" lon="0.54071">
        <ele>594</ele>
        <time>2018-03-18T12:50:07.000Z</time>
      </trkpt>
      <trkpt lat="43.03338" lon="0.54071">
        <ele>594</ele>
        <time>2018-03-18T12:50:09.000Z</time>
      </trkpt>
      <trkpt lat="43.03338" lon="0.54071">
        <ele>594</ele>
        <time>2018-03-18T12:50:11.000Z</time>
      </trkpt>
      <trkpt lat="43.03337" lon="0.5407">
        <ele>594</ele>
        <time>2018-03-18T12:50:13.000Z</time>
      </trkpt>
      <trkpt lat="43.03337" lon="0.5407">
        <ele>594</ele>
        <time>2018-03-18T12:50:15.000Z</time>
      </trkpt>
      <trkpt lat="43.03338" lon="0.5407">
        <ele>594</ele>
        <time>2018-03-18T12:50:17.000Z</time>
      </trkpt>
      <trkpt lat="43.03338" lon="0.5407">
        <ele>594</ele>
        <time>2018-03-18T12:50:19.000Z</time>
      </trkpt>
      <trkpt lat="43.03338" lon="0.54069">
        <ele>594</ele>
        <time>2018-03-18T12:50:21.000Z</time>
      </trkpt>
      <trkpt lat="43.03338" lon="0.54069">
        <ele>594</ele>
        <time>2018-03-18T12:50:23.000Z</time>
      </trkpt>
      <trkpt lat="43.03337" lon="0.54069">
        <ele>594</ele>
        <time>2018-03-18T12:50:25.000Z</time>
      </trkpt>
      <trkpt lat="43.03338" lon="0.54069">
        <ele>594</ele>
        <time>2018-03-18T12:50:27.000Z</time>
      </trkpt>
      <trkpt lat="43.03338" lon="0.54068">
        <ele>594</ele>
        <time>2018-03-18T12:50:29.000Z</time>
      </trkpt>
      <trkpt lat="43.03338" lon="0.54068">
        <ele>594</ele>
        <time>2018-03-18T12:50:31.000Z</time>
      </trkpt>
      <trkpt lat="43.03338" lon="0.54068">
        <ele>594</ele>
        <time>2018-03-18T12:50:33.000Z</time>
      </trkpt>
      <trkpt lat="43.03338" lon="0.54067">
        <ele>594</ele>
        <time>2018-03-18T12:50:35.000Z</time>
      </trkpt>
      <trkpt lat="43.03339" lon="0.54066">
        <ele>594</ele>
        <time>2018-03-18T12:50:37.000Z</time>
      </trkpt>
      <trkpt lat="43.03339" lon="0.54066">
        <ele>594</ele>
        <time>2018-03-18T12:50:39.000Z</time>
      </trkpt>
      <trkpt lat="43.0334" lon="0.54066">
        <ele>595</ele>
        <time>2018-03-18T12:50:41.000Z</time>
      </trkpt>
      <trkpt lat="43.0334" lon="0.54066">
        <ele>595</ele>
        <time>2018-03-18T12:50:43.000Z</time>
      </trkpt>
      <trkpt lat="43.03339" lon="0.54065">
        <ele>595</ele>
        <time>2018-03-18T12:50:45.000Z</time>
      </trkpt>
      <trkpt lat="43.03339" lon="0.54065">
        <ele>595</ele>
        <time>2018-03-18T12:50:47.000Z</time>
      </trkpt>
      <trkpt lat="43.03339" lon="0.54064">
        <ele>595</ele>
        <time>2018-03-18T12:50:49.000Z</time>
      </trkpt>
      <trkpt lat="43.03339" lon="0.54064">
        <ele>595</ele>
        <time>2018-03-18T12:50:51.000Z</time>
      </trkpt>
      <trkpt lat="43.03339" lon="0.54064">
        <ele>595</ele>
        <time>2018-03-18T12:50:53.000Z</time>
      </trkpt>
      <trkpt lat="43.03338" lon="0.54064">
        <ele>595</ele>
        <time>2018-03-18T12:50:55.000Z</time>
      </trkpt>
      <trkpt lat="43.03338" lon="0.54064">
        <ele>595</ele>
        <time>2018-03-18T12:50:57.000Z</time>
      </trkpt>
      <trkpt lat="43.03337" lon="0.54064">
        <ele>595</ele>
        <time>2018-03-18T12:50:59.000Z</time>
      </trkpt>
      <trkpt lat="43.03337" lon="0.54064">
        <ele>595</ele>
        <time>2018-03-18T12:51:01.000Z</time>
      </trkpt>
      <trkpt lat="43.03337" lon="0.54064">
        <ele>595</ele>
        <time>2018-03-18T12:51:03.000Z</time>
      </trkpt>
      <trkpt lat="43.03337" lon="0.54064">
        <ele>595</ele>
        <time>2018-03-18T12:51:05.000Z</time>
      </trkpt>
      <trkpt lat="43.03337" lon="0.54063">
        <ele>595</ele>
        <time>2018-03-18T12:51:07.000Z</time>
      </trkpt>
      <trkpt lat="43.03337" lon="0.54063">
        <ele>595</ele>
        <time>2018-03-18T12:51:09.000Z</time>
      </trkpt>
      <trkpt lat="43.03338" lon="0.54062">
        <ele>595</ele>
        <time>2018-03-18T12:51:11.000Z</time>
      </trkpt>
      <trkpt lat="43.03338" lon="0.54062">
        <ele>595</ele>
        <time>2018-03-18T12:51:13.000Z</time>
      </trkpt>
      <trkpt lat="43.03338" lon="0.54062">
        <ele>595</ele>
        <time>2018-03-18T12:51:15.000Z</time>
      </trkpt>
      <trkpt lat="43.03338" lon="0.54062">
        <ele>595</ele>
        <time>2018-03-18T12:51:17.000Z</time>
      </trkpt>
      <trkpt lat="43.03337" lon="0.54062">
        <ele>595</ele>
        <time>2018-03-18T12:51:19.000Z</time>
      </trkpt>
      <trkpt lat="43.03337" lon="0.54062">
        <ele>595</ele>
        <time>2018-03-18T12:51:21.000Z</time>
      </trkpt>
      <trkpt lat="43.03337" lon="0.54063">
        <ele>595</ele>
        <time>2018-03-18T12:51:23.000Z</time>
      </trkpt>
      <trkpt lat="43.03337" lon="0.54063">
        <ele>595</ele>
        <time>2018-03-18T12:51:25.000Z</time>
      </trkpt>
      <trkpt lat="43.03337" lon="0.54063">
        <ele>595</ele>
        <time>2018-03-18T12:51:27.000Z</time>
      </trkpt>
      <trkpt lat="43.03337" lon="0.54063">
        <ele>595</ele>
        <time>2018-03-18T12:51:29.000Z</time>
      </trkpt>
      <trkpt lat="43.03337" lon="0.54063">
        <ele>595</ele>
        <time>2018-03-18T12:51:31.000Z</time>
      </trkpt>
      <trkpt lat="43.03337" lon="0.54062">
        <ele>595</ele>
        <time>2018-03-18T12:51:33.000Z</time>
      </trkpt>
      <trkpt lat="43.03337" lon="0.54062">
        <ele>595</ele>
        <time>2018-03-18T12:51:35.000Z</time>
      </trkpt>
      <trkpt lat="43.03337" lon="0.54062">
        <ele>595</ele>
        <time>2018-03-18T12:51:37.000Z</time>
      </trkpt>
      <trkpt lat="43.03337" lon="0.54062">
        <ele>595</ele>
        <time>2018-03-18T12:51:39.000Z</time>
      </trkpt>
      <trkpt lat="43.03337" lon="0.54062">
        <ele>595</ele>
        <time>2018-03-18T12:51:41.000Z</time>
      </trkpt>
      <trkpt lat="43.03337" lon="0.54061">
        <ele>595</ele>
        <time>2018-03-18T12:51:43.000Z</time>
      </trkpt>
      <trkpt lat="43.03337" lon="0.54061">
        <ele>595</ele>
        <time>2018-03-18T12:51:45.000Z</time>
      </trkpt>
      <trkpt lat="43.03337" lon="0.54061">
        <ele>595</ele>
        <time>2018-03-18T12:51:47.000Z</time>
      </trkpt>
      <trkpt lat="43.03337" lon="0.54061">
        <ele>595</ele>
        <time>2018-03-18T12:51:49.000Z</time>
      </trkpt>
      <trkpt lat="43.03338" lon="0.54061">
        <ele>595</ele>
        <time>2018-03-18T12:51:51.000Z</time>
      </trkpt>
      <trkpt lat="43.03338" lon="0.54061">
        <ele>595</ele>
        <time>2018-03-18T12:51:53.000Z</time>
      </trkpt>
      <trkpt lat="43.03338" lon="0.54061">
        <ele>595</ele>
        <time>2018-03-18T12:51:55.000Z</time>
      </trkpt>
      <trkpt lat="43.03338" lon="0.54061">
        <ele>595</ele>
        <time>2018-03-18T12:51:57.000Z</time>
      </trkpt>
      <trkpt lat="43.03338" lon="0.54061">
        <ele>595</ele>
        <time>2018-03-18T12:51:59.000Z</time>
      </trkpt>
      <trkpt lat="43.03338" lon="0.5406">
        <ele>595</ele>
        <time>2018-03-18T12:52:01.000Z</time>
      </trkpt>
      <trkpt lat="43.03338" lon="0.5406">
        <ele>595</ele>
        <time>2018-03-18T12:52:03.000Z</time>
      </trkpt>
      <trkpt lat="43.03338" lon="0.5406">
        <ele>595</ele>
        <time>2018-03-18T12:52:05.000Z</time>
      </trkpt>
      <trkpt lat="43.03338" lon="0.5406">
        <ele>595</ele>
        <time>2018-03-18T12:52:07.000Z</time>
      </trkpt>
      <trkpt lat="43.03339" lon="0.5406">
        <ele>595</ele>
        <time>2018-03-18T12:52:09.000Z</time>
      </trkpt>
      <trkpt lat="43.03339" lon="0.5406">
        <ele>595</ele>
        <time>2018-03-18T12:52:11.000Z</time>
      </trkpt>
      <trkpt lat="43.03339" lon="0.5406">
        <ele>595</ele>
        <time>2018-03-18T12:52:13.000Z</time>
      </trkpt>
      <trkpt lat="43.03339" lon="0.5406">
        <ele>595</ele>
        <time>2018-03-18T12:52:15.000Z</time>
      </trkpt>
      <trkpt lat="43.03339" lon="0.5406">
        <ele>595</ele>
        <time>2018-03-18T12:52:17.000Z</time>
      </trkpt>
      <trkpt lat="43.03339" lon="0.5406">
        <ele>595</ele>
        <time>2018-03-18T12:52:20.000Z</time>
      </trkpt>
      <trkpt lat="43.0334" lon="0.5406">
        <ele>595</ele>
        <time>2018-03-18T12:52:22.000Z</time>
      </trkpt>
      <trkpt lat="43.0334" lon="0.5406">
        <ele>595</ele>
        <time>2018-03-18T12:52:24.000Z</time>
      </trkpt>
      <trkpt lat="43.0334" lon="0.54059">
        <ele>596</ele>
        <time>2018-03-18T12:52:26.000Z</time>
      </trkpt>
      <trkpt lat="43.0334" lon="0.54059">
        <ele>596</ele>
        <time>2018-03-18T12:52:28.000Z</time>
      </trkpt>
      <trkpt lat="43.0334" lon="0.54059">
        <ele>596</ele>
        <time>2018-03-18T12:52:30.000Z</time>
      </trkpt>
      <trkpt lat="43.0334" lon="0.54059">
        <ele>596</ele>
        <time>2018-03-18T12:52:32.000Z</time>
      </trkpt>
      <trkpt lat="43.0334" lon="0.54059">
        <ele>596</ele>
        <time>2018-03-18T12:52:35.000Z</time>
      </trkpt>
      <trkpt lat="43.03339" lon="0.54059">
        <ele>596</ele>
        <time>2018-03-18T12:52:37.000Z</time>
      </trkpt>
      <trkpt lat="43.03339" lon="0.54058">
        <ele>596</ele>
        <time>2018-03-18T12:52:39.000Z</time>
      </trkpt>
      <trkpt lat="43.03339" lon="0.54058">
        <ele>596</ele>
        <time>2018-03-18T12:52:41.000Z</time>
      </trkpt>
      <trkpt lat="43.03339" lon="0.54057">
        <ele>596</ele>
        <time>2018-03-18T12:52:43.000Z</time>
      </trkpt>
      <trkpt lat="43.03339" lon="0.54057">
        <ele>596</ele>
        <time>2018-03-18T12:52:45.000Z</time>
      </trkpt>
      <trkpt lat="43.03339" lon="0.54057">
        <ele>596</ele>
        <time>2018-03-18T12:52:47.000Z</time>
      </trkpt>
      <trkpt lat="43.03339" lon="0.54057">
        <ele>596</ele>
        <time>2018-03-18T12:52:49.000Z</time>
      </trkpt>
      <trkpt lat="43.03339" lon="0.54056">
        <ele>596</ele>
        <time>2018-03-18T12:52:51.000Z</time>
      </trkpt>
      <trkpt lat="43.03339" lon="0.54056">
        <ele>596</ele>
        <time>2018-03-18T12:52:53.000Z</time>
      </trkpt>
      <trkpt lat="43.03338" lon="0.54055">
        <ele>596</ele>
        <time>2018-03-18T12:52:55.000Z</time>
      </trkpt>
      <trkpt lat="43.03338" lon="0.54055">
        <ele>596</ele>
        <time>2018-03-18T12:52:58.000Z</time>
      </trkpt>
      <trkpt lat="43.03338" lon="0.54055">
        <ele>596</ele>
        <time>2018-03-18T12:53:00.000Z</time>
      </trkpt>
      <trkpt lat="43.03338" lon="0.54055">
        <ele>596</ele>
        <time>2018-03-18T12:53:02.000Z</time>
      </trkpt>
      <trkpt lat="43.03338" lon="0.54055">
        <ele>596</ele>
        <time>2018-03-18T12:53:04.000Z</time>
      </trkpt>
      <trkpt lat="43.03338" lon="0.54056">
        <ele>596</ele>
        <time>2018-03-18T12:53:06.000Z</time>
      </trkpt>
      <trkpt lat="43.03338" lon="0.54056">
        <ele>596</ele>
        <time>2018-03-18T12:53:09.000Z</time>
      </trkpt>
      <trkpt lat="43.03338" lon="0.54056">
        <ele>596</ele>
        <time>2018-03-18T12:53:11.000Z</time>
      </trkpt>
      <trkpt lat="43.03337" lon="0.54056">
        <ele>596</ele>
        <time>2018-03-18T12:53:13.000Z</time>
      </trkpt>
      <trkpt lat="43.03338" lon="0.54056">
        <ele>596</ele>
        <time>2018-03-18T12:53:15.000Z</time>
      </trkpt>
      <trkpt lat="43.03338" lon="0.54057">
        <ele>596</ele>
        <time>2018-03-18T12:53:17.000Z</time>
      </trkpt>
      <trkpt lat="43.03338" lon="0.54057">
        <ele>596</ele>
        <time>2018-03-18T12:53:19.000Z</time>
      </trkpt>
      <trkpt lat="43.03337" lon="0.54058">
        <ele>596</ele>
        <time>2018-03-18T12:53:21.000Z</time>
      </trkpt>
      <trkpt lat="43.03337" lon="0.54059">
        <ele>595</ele>
        <time>2018-03-18T12:53:23.000Z</time>
      </trkpt>
      <trkpt lat="43.03337" lon="0.5406">
        <ele>595</ele>
        <time>2018-03-18T12:53:25.000Z</time>
      </trkpt>
      <trkpt lat="43.03337" lon="0.5406">
        <ele>595</ele>
        <time>2018-03-18T12:53:27.000Z</time>
      </trkpt>
      <trkpt lat="43.03336" lon="0.54061">
        <ele>595</ele>
        <time>2018-03-18T12:53:29.000Z</time>
      </trkpt>
      <trkpt lat="43.03337" lon="0.54061">
        <ele>595</ele>
        <time>2018-03-18T12:53:31.000Z</time>
      </trkpt>
      <trkpt lat="43.03336" lon="0.54061">
        <ele>595</ele>
        <time>2018-03-18T12:53:33.000Z</time>
      </trkpt>
      <trkpt lat="43.03336" lon="0.54062">
        <ele>595</ele>
        <time>2018-03-18T12:53:35.000Z</time>
      </trkpt>
      <trkpt lat="43.03336" lon="0.54062">
        <ele>595</ele>
        <time>2018-03-18T12:53:37.000Z</time>
      </trkpt>
      <trkpt lat="43.03336" lon="0.54061">
        <ele>595</ele>
        <time>2018-03-18T12:53:39.000Z</time>
      </trkpt>
      <trkpt lat="43.03336" lon="0.54061">
        <ele>595</ele>
        <time>2018-03-18T12:53:41.000Z</time>
      </trkpt>
      <trkpt lat="43.03337" lon="0.54062">
        <ele>595</ele>
        <time>2018-03-18T12:53:43.000Z</time>
      </trkpt>
      <trkpt lat="43.03337" lon="0.54062">
        <ele>595</ele>
        <time>2018-03-18T12:53:45.000Z</time>
      </trkpt>
      <trkpt lat="43.03337" lon="0.54062">
        <ele>595</ele>
        <time>2018-03-18T12:53:47.000Z</time>
      </trkpt>
      <trkpt lat="43.03338" lon="0.54062">
        <ele>595</ele>
        <time>2018-03-18T12:53:49.000Z</time>
      </trkpt>
      <trkpt lat="43.03338" lon="0.54062">
        <ele>595</ele>
        <time>2018-03-18T12:53:51.000Z</time>
      </trkpt>
      <trkpt lat="43.03338" lon="0.54062">
        <ele>595</ele>
        <time>2018-03-18T12:53:53.000Z</time>
      </trkpt>
      <trkpt lat="43.03338" lon="0.54062">
        <ele>595</ele>
        <time>2018-03-18T12:53:55.000Z</time>
      </trkpt>
      <trkpt lat="43.03339" lon="0.54062">
        <ele>595</ele>
        <time>2018-03-18T12:53:57.000Z</time>
      </trkpt>
      <trkpt lat="43.03339" lon="0.54061">
        <ele>595</ele>
        <time>2018-03-18T12:53:59.000Z</time>
      </trkpt>
      <trkpt lat="43.03339" lon="0.54061">
        <ele>595</ele>
        <time>2018-03-18T12:54:01.000Z</time>
      </trkpt>
      <trkpt lat="43.03339" lon="0.54061">
        <ele>595</ele>
        <time>2018-03-18T12:54:03.000Z</time>
      </trkpt>
      <trkpt lat="43.0334" lon="0.54061">
        <ele>595</ele>
        <time>2018-03-18T12:54:05.000Z</time>
      </trkpt>
      <trkpt lat="43.0334" lon="0.54061">
        <ele>595</ele>
        <time>2018-03-18T12:54:07.000Z</time>
      </trkpt>
      <trkpt lat="43.0334" lon="0.5406">
        <ele>595</ele>
        <time>2018-03-18T12:54:09.000Z</time>
      </trkpt>
      <trkpt lat="43.0334" lon="0.54059">
        <ele>596</ele>
        <time>2018-03-18T12:54:11.000Z</time>
      </trkpt>
      <trkpt lat="43.0334" lon="0.54059">
        <ele>596</ele>
        <time>2018-03-18T12:54:13.000Z</time>
      </trkpt>
      <trkpt lat="43.03341" lon="0.54059">
        <ele>596</ele>
        <time>2018-03-18T12:54:15.000Z</time>
      </trkpt>
      <trkpt lat="43.03341" lon="0.54059">
        <ele>596</ele>
        <time>2018-03-18T12:54:17.000Z</time>
      </trkpt>
      <trkpt lat="43.03342" lon="0.54059">
        <ele>596</ele>
        <time>2018-03-18T12:54:19.000Z</time>
      </trkpt>
      <trkpt lat="43.03342" lon="0.54059">
        <ele>596</ele>
        <time>2018-03-18T12:54:21.000Z</time>
      </trkpt>
      <trkpt lat="43.03342" lon="0.54059">
        <ele>596</ele>
        <time>2018-03-18T12:54:23.000Z</time>
      </trkpt>
      <trkpt lat="43.03342" lon="0.54059">
        <ele>596</ele>
        <time>2018-03-18T12:54:25.000Z</time>
      </trkpt>
      <trkpt lat="43.03341" lon="0.54059">
        <ele>596</ele>
        <time>2018-03-18T12:54:27.000Z</time>
      </trkpt>
      <trkpt lat="43.03341" lon="0.54058">
        <ele>596</ele>
        <time>2018-03-18T12:54:29.000Z</time>
      </trkpt>
      <trkpt lat="43.03341" lon="0.54059">
        <ele>596</ele>
        <time>2018-03-18T12:54:31.000Z</time>
      </trkpt>
      <trkpt lat="43.03341" lon="0.54059">
        <ele>596</ele>
        <time>2018-03-18T12:54:33.000Z</time>
      </trkpt>
      <trkpt lat="43.0334" lon="0.54059">
        <ele>596</ele>
        <time>2018-03-18T12:54:35.000Z</time>
      </trkpt>
      <trkpt lat="43.0334" lon="0.54059">
        <ele>596</ele>
        <time>2018-03-18T12:54:37.000Z</time>
      </trkpt>
      <trkpt lat="43.0334" lon="0.54058">
        <ele>596</ele>
        <time>2018-03-18T12:54:39.000Z</time>
      </trkpt>
      <trkpt lat="43.03339" lon="0.54058">
        <ele>596</ele>
        <time>2018-03-18T12:54:41.000Z</time>
      </trkpt>
      <trkpt lat="43.03339" lon="0.54059">
        <ele>596</ele>
        <time>2018-03-18T12:54:43.000Z</time>
      </trkpt>
      <trkpt lat="43.03339" lon="0.54059">
        <ele>596</ele>
        <time>2018-03-18T12:54:45.000Z</time>
      </trkpt>
      <trkpt lat="43.03338" lon="0.54059">
        <ele>596</ele>
        <time>2018-03-18T12:54:47.000Z</time>
      </trkpt>
      <trkpt lat="43.03338" lon="0.54058">
        <ele>596</ele>
        <time>2018-03-18T12:54:49.000Z</time>
      </trkpt>
      <trkpt lat="43.03338" lon="0.54058">
        <ele>596</ele>
        <time>2018-03-18T12:54:51.000Z</time>
      </trkpt>
      <trkpt lat="43.03338" lon="0.54058">
        <ele>596</ele>
        <time>2018-03-18T12:54:53.000Z</time>
      </trkpt>
      <trkpt lat="43.03338" lon="0.54058">
        <ele>596</ele>
        <time>2018-03-18T12:54:55.000Z</time>
      </trkpt>
      <trkpt lat="43.03337" lon="0.54058">
        <ele>596</ele>
        <time>2018-03-18T12:54:57.000Z</time>
      </trkpt>
      <trkpt lat="43.03337" lon="0.54058">
        <ele>596</ele>
        <time>2018-03-18T12:54:59.000Z</time>
      </trkpt>
      <trkpt lat="43.03337" lon="0.54058">
        <ele>596</ele>
        <time>2018-03-18T12:55:01.000Z</time>
      </trkpt>
      <trkpt lat="43.03337" lon="0.54058">
        <ele>595</ele>
        <time>2018-03-18T12:55:03.000Z</time>
      </trkpt>
      <trkpt lat="43.03337" lon="0.54059">
        <ele>595</ele>
        <time>2018-03-18T12:55:05.000Z</time>
      </trkpt>
      <trkpt lat="43.03337" lon="0.54059">
        <ele>595</ele>
        <time>2018-03-18T12:55:07.000Z</time>
      </trkpt>
      <trkpt lat="43.03337" lon="0.54059">
        <ele>595</ele>
        <time>2018-03-18T12:55:09.000Z</time>
      </trkpt>
      <trkpt lat="43.03337" lon="0.54059">
        <ele>595</ele>
        <time>2018-03-18T12:55:11.000Z</time>
      </trkpt>
      <trkpt lat="43.03337" lon="0.54059">
        <ele>595</ele>
        <time>2018-03-18T12:55:13.000Z</time>
      </trkpt>
      <trkpt lat="43.03337" lon="0.54059">
        <ele>595</ele>
        <time>2018-03-18T12:55:15.000Z</time>
      </trkpt>
      <trkpt lat="43.03337" lon="0.5406">
        <ele>595</ele>
        <time>2018-03-18T12:55:17.000Z</time>
      </trkpt>
      <trkpt lat="43.03337" lon="0.5406">
        <ele>595</ele>
        <time>2018-03-18T12:55:19.000Z</time>
      </trkpt>
      <trkpt lat="43.03337" lon="0.5406">
        <ele>595</ele>
        <time>2018-03-18T12:55:21.000Z</time>
      </trkpt>
      <trkpt lat="43.03337" lon="0.5406">
        <ele>595</ele>
        <time>2018-03-18T12:55:23.000Z</time>
      </trkpt>
      <trkpt lat="43.03337" lon="0.5406">
        <ele>595</ele>
        <time>2018-03-18T12:55:25.000Z</time>
      </trkpt>
      <trkpt lat="43.03337" lon="0.5406">
        <ele>595</ele>
        <time>2018-03-18T12:55:27.000Z</time>
      </trkpt>
      <trkpt lat="43.03337" lon="0.5406">
        <ele>595</ele>
        <time>2018-03-18T12:55:29.000Z</time>
      </trkpt>
      <trkpt lat="43.03337" lon="0.5406">
        <ele>595</ele>
        <time>2018-03-18T12:55:31.000Z</time>
      </trkpt>
      <trkpt lat="43.03337" lon="0.5406">
        <ele>595</ele>
        <time>2018-03-18T12:55:33.000Z</time>
      </trkpt>
      <trkpt lat="43.03337" lon="0.5406">
        <ele>595</ele>
        <time>2018-03-18T12:55:35.000Z</time>
      </trkpt>
      <trkpt lat="43.03337" lon="0.5406">
        <ele>595</ele>
        <time>2018-03-18T12:55:37.000Z</time>
      </trkpt>
      <trkpt lat="43.03337" lon="0.54059">
        <ele>595</ele>
        <time>2018-03-18T12:55:39.000Z</time>
      </trkpt>
      <trkpt lat="43.03337" lon="0.5406">
        <ele>595</ele>
        <time>2018-03-18T12:55:41.000Z</time>
      </trkpt>
      <trkpt lat="43.03337" lon="0.54059">
        <ele>595</ele>
        <time>2018-03-18T12:55:43.000Z</time>
      </trkpt>
      <trkpt lat="43.03337" lon="0.5406">
        <ele>595</ele>
        <time>2018-03-18T12:55:45.000Z</time>
      </trkpt>
      <trkpt lat="43.03336" lon="0.5406">
        <ele>595</ele>
        <time>2018-03-18T12:55:47.000Z</time>
      </trkpt>
      <trkpt lat="43.03336" lon="0.54061">
        <ele>595</ele>
        <time>2018-03-18T12:55:49.000Z</time>
      </trkpt>
      <trkpt lat="43.03336" lon="0.54061">
        <ele>595</ele>
        <time>2018-03-18T12:55:51.000Z</time>
      </trkpt>
      <trkpt lat="43.03337" lon="0.54061">
        <ele>595</ele>
        <time>2018-03-18T12:55:53.000Z</time>
      </trkpt>
      <trkpt lat="43.03337" lon="0.54062">
        <ele>595</ele>
        <time>2018-03-18T12:55:55.000Z</time>
      </trkpt>
      <trkpt lat="43.03336" lon="0.54063">
        <ele>595</ele>
        <time>2018-03-18T12:55:57.000Z</time>
      </trkpt>
      <trkpt lat="43.03336" lon="0.54063">
        <ele>595</ele>
        <time>2018-03-18T12:55:59.000Z</time>
      </trkpt>
      <trkpt lat="43.03336" lon="0.54063">
        <ele>595</ele>
        <time>2018-03-18T12:56:01.000Z</time>
      </trkpt>
      <trkpt lat="43.03336" lon="0.54062">
        <ele>595</ele>
        <time>2018-03-18T12:56:03.000Z</time>
      </trkpt>
      <trkpt lat="43.03336" lon="0.54062">
        <ele>595</ele>
        <time>2018-03-18T12:56:05.000Z</time>
      </trkpt>
      <trkpt lat="43.03335" lon="0.54061">
        <ele>595</ele>
        <time>2018-03-18T12:56:07.000Z</time>
      </trkpt>
      <trkpt lat="43.03335" lon="0.54061">
        <ele>595</ele>
        <time>2018-03-18T12:56:09.000Z</time>
      </trkpt>
      <trkpt lat="43.03335" lon="0.54061">
        <ele>595</ele>
        <time>2018-03-18T12:56:11.000Z</time>
      </trkpt>
      <trkpt lat="43.03335" lon="0.5406">
        <ele>595</ele>
        <time>2018-03-18T12:56:13.000Z</time>
      </trkpt>
      <trkpt lat="43.03334" lon="0.54059">
        <ele>595</ele>
        <time>2018-03-18T12:56:15.000Z</time>
      </trkpt>
      <trkpt lat="43.03335" lon="0.54059">
        <ele>595</ele>
        <time>2018-03-18T12:56:17.000Z</time>
      </trkpt>
      <trkpt lat="43.03335" lon="0.5406">
        <ele>595</ele>
        <time>2018-03-18T12:56:19.000Z</time>
      </trkpt>
      <trkpt lat="43.03335" lon="0.5406">
        <ele>595</ele>
        <time>2018-03-18T12:56:21.000Z</time>
      </trkpt>
      <trkpt lat="43.03336" lon="0.54061">
        <ele>595</ele>
        <time>2018-03-18T12:56:23.000Z</time>
      </trkpt>
      <trkpt lat="43.03336" lon="0.54061">
        <ele>595</ele>
        <time>2018-03-18T12:56:25.000Z</time>
      </trkpt>
      <trkpt lat="43.03336" lon="0.54061">
        <ele>595</ele>
        <time>2018-03-18T12:56:27.000Z</time>
      </trkpt>
      <trkpt lat="43.03337" lon="0.54061">
        <ele>595</ele>
        <time>2018-03-18T12:56:29.000Z</time>
      </trkpt>
      <trkpt lat="43.03337" lon="0.54061">
        <ele>595</ele>
        <time>2018-03-18T12:56:31.000Z</time>
      </trkpt>
      <trkpt lat="43.03337" lon="0.54061">
        <ele>595</ele>
        <time>2018-03-18T12:56:33.000Z</time>
      </trkpt>
      <trkpt lat="43.03337" lon="0.54062">
        <ele>595</ele>
        <time>2018-03-18T12:56:35.000Z</time>
      </trkpt>
      <trkpt lat="43.03337" lon="0.54062">
        <ele>595</ele>
        <time>2018-03-18T12:56:37.000Z</time>
      </trkpt>
      <trkpt lat="43.03337" lon="0.54062">
        <ele>595</ele>
        <time>2018-03-18T12:56:39.000Z</time>
      </trkpt>
      <trkpt lat="43.03338" lon="0.54062">
        <ele>595</ele>
        <time>2018-03-18T12:56:41.000Z</time>
      </trkpt>
      <trkpt lat="43.03338" lon="0.54062">
        <ele>595</ele>
        <time>2018-03-18T12:56:43.000Z</time>
      </trkpt>
      <trkpt lat="43.03338" lon="0.54062">
        <ele>595</ele>
        <time>2018-03-18T12:56:45.000Z</time>
      </trkpt>
      <trkpt lat="43.03338" lon="0.54062">
        <ele>595</ele>
        <time>2018-03-18T12:56:47.000Z</time>
      </trkpt>
      <trkpt lat="43.03339" lon="0.54061">
        <ele>595</ele>
        <time>2018-03-18T12:56:49.000Z</time>
      </trkpt>
      <trkpt lat="43.03339" lon="0.54062">
        <ele>595</ele>
        <time>2018-03-18T12:56:51.000Z</time>
      </trkpt>
      <trkpt lat="43.03339" lon="0.54062">
        <ele>595</ele>
        <time>2018-03-18T12:56:53.000Z</time>
      </trkpt>
      <trkpt lat="43.03339" lon="0.54062">
        <ele>595</ele>
        <time>2018-03-18T12:56:55.000Z</time>
      </trkpt>
      <trkpt lat="43.03339" lon="0.54062">
        <ele>595</ele>
        <time>2018-03-18T12:56:57.000Z</time>
      </trkpt>
      <trkpt lat="43.03339" lon="0.54062">
        <ele>595</ele>
        <time>2018-03-18T12:56:59.000Z</time>
      </trkpt>
      <trkpt lat="43.03339" lon="0.54062">
        <ele>595</ele>
        <time>2018-03-18T12:57:01.000Z</time>
      </trkpt>
      <trkpt lat="43.03339" lon="0.54063">
        <ele>595</ele>
        <time>2018-03-18T12:57:03.000Z</time>
      </trkpt>
      <trkpt lat="43.03339" lon="0.54063">
        <ele>595</ele>
        <time>2018-03-18T12:57:05.000Z</time>
      </trkpt>
      <trkpt lat="43.03339" lon="0.54063">
        <ele>595</ele>
        <time>2018-03-18T12:57:07.000Z</time>
      </trkpt>
      <trkpt lat="43.03339" lon="0.54063">
        <ele>595</ele>
        <time>2018-03-18T12:57:09.000Z</time>
      </trkpt>
      <trkpt lat="43.03338" lon="0.54063">
        <ele>595</ele>
        <time>2018-03-18T12:57:11.000Z</time>
      </trkpt>
      <trkpt lat="43.03337" lon="0.54062">
        <ele>595</ele>
        <time>2018-03-18T12:57:13.000Z</time>
      </trkpt>
      <trkpt lat="43.03337" lon="0.54062">
        <ele>595</ele>
        <time>2018-03-18T12:57:15.000Z</time>
      </trkpt>
      <trkpt lat="43.03336" lon="0.54062">
        <ele>595</ele>
        <time>2018-03-18T12:57:17.000Z</time>
      </trkpt>
      <trkpt lat="43.03336" lon="0.54061">
        <ele>595</ele>
        <time>2018-03-18T12:57:19.000Z</time>
      </trkpt>
      <trkpt lat="43.03336" lon="0.54061">
        <ele>595</ele>
        <time>2018-03-18T12:57:21.000Z</time>
      </trkpt>
      <trkpt lat="43.03336" lon="0.54061">
        <ele>595</ele>
        <time>2018-03-18T12:57:23.000Z</time>
      </trkpt>
      <trkpt lat="43.03336" lon="0.54061">
        <ele>595</ele>
        <time>2018-03-18T12:57:25.000Z</time>
      </trkpt>
      <trkpt lat="43.03336" lon="0.54061">
        <ele>595</ele>
        <time>2018-03-18T12:57:27.000Z</time>
      </trkpt>
      <trkpt lat="43.03336" lon="0.54061">
        <ele>595</ele>
        <time>2018-03-18T12:57:29.000Z</time>
      </trkpt>
      <trkpt lat="43.03336" lon="0.54061">
        <ele>595</ele>
        <time>2018-03-18T12:57:31.000Z</time>
      </trkpt>
      <trkpt lat="43.03335" lon="0.54061">
        <ele>595</ele>
        <time>2018-03-18T12:57:33.000Z</time>
      </trkpt>
      <trkpt lat="43.03335" lon="0.54061">
        <ele>595</ele>
        <time>2018-03-18T12:57:35.000Z</time>
      </trkpt>
      <trkpt lat="43.03335" lon="0.54061">
        <ele>595</ele>
        <time>2018-03-18T12:57:37.000Z</time>
      </trkpt>
      <trkpt lat="43.03335" lon="0.54061">
        <ele>595</ele>
        <time>2018-03-18T12:57:39.000Z</time>
      </trkpt>
      <trkpt lat="43.03336" lon="0.54061">
        <ele>595</ele>
        <time>2018-03-18T12:57:41.000Z</time>
      </trkpt>
      <trkpt lat="43.03336" lon="0.54061">
        <ele>595</ele>
        <time>2018-03-18T12:57:43.000Z</time>
      </trkpt>
      <trkpt lat="43.03336" lon="0.5406">
        <ele>595</ele>
        <time>2018-03-18T12:57:45.000Z</time>
      </trkpt>
      <trkpt lat="43.03336" lon="0.5406">
        <ele>595</ele>
        <time>2018-03-18T12:57:47.000Z</time>
      </trkpt>
      <trkpt lat="43.03336" lon="0.5406">
        <ele>595</ele>
        <time>2018-03-18T12:57:49.000Z</time>
      </trkpt>
      <trkpt lat="43.03336" lon="0.5406">
        <ele>595</ele>
        <time>2018-03-18T12:57:51.000Z</time>
      </trkpt>
      <trkpt lat="43.03336" lon="0.5406">
        <ele>595</ele>
        <time>2018-03-18T12:57:53.000Z</time>
      </trkpt>
      <trkpt lat="43.03336" lon="0.54059">
        <ele>595</ele>
        <time>2018-03-18T12:57:55.000Z</time>
      </trkpt>
      <trkpt lat="43.03336" lon="0.54058">
        <ele>595</ele>
        <time>2018-03-18T12:57:57.000Z</time>
      </trkpt>
      <trkpt lat="43.03336" lon="0.54058">
        <ele>596</ele>
        <time>2018-03-18T12:57:59.000Z</time>
      </trkpt>
      <trkpt lat="43.03337" lon="0.54058">
        <ele>596</ele>
        <time>2018-03-18T12:58:01.000Z</time>
      </trkpt>
      <trkpt lat="43.03337" lon="0.54058">
        <ele>596</ele>
        <time>2018-03-18T12:58:03.000Z</time>
      </trkpt>
      <trkpt lat="43.03337" lon="0.54058">
        <ele>596</ele>
        <time>2018-03-18T12:58:05.000Z</time>
      </trkpt>
      <trkpt lat="43.03338" lon="0.54058">
        <ele>596</ele>
        <time>2018-03-18T12:58:07.000Z</time>
      </trkpt>
      <trkpt lat="43.03338" lon="0.54057">
        <ele>596</ele>
        <time>2018-03-18T12:58:09.000Z</time>
      </trkpt>
      <trkpt lat="43.03339" lon="0.54058">
        <ele>596</ele>
        <time>2018-03-18T12:58:11.000Z</time>
      </trkpt>
      <trkpt lat="43.03339" lon="0.54058">
        <ele>596</ele>
        <time>2018-03-18T12:58:13.000Z</time>
      </trkpt>
      <trkpt lat="43.03339" lon="0.5406">
        <ele>595</ele>
        <time>2018-03-18T12:58:15.000Z</time>
      </trkpt>
      <trkpt lat="43.03339" lon="0.54061">
        <ele>595</ele>
        <time>2018-03-18T12:58:17.000Z</time>
      </trkpt>
      <trkpt lat="43.03339" lon="0.54061">
        <ele>595</ele>
        <time>2018-03-18T12:58:19.000Z</time>
      </trkpt>
      <trkpt lat="43.03339" lon="0.54062">
        <ele>595</ele>
        <time>2018-03-18T12:58:21.000Z</time>
      </trkpt>
      <trkpt lat="43.03339" lon="0.54062">
        <ele>595</ele>
        <time>2018-03-18T12:58:23.000Z</time>
      </trkpt>
      <trkpt lat="43.03339" lon="0.54063">
        <ele>595</ele>
        <time>2018-03-18T12:58:25.000Z</time>
      </trkpt>
      <trkpt lat="43.0334" lon="0.54064">
        <ele>595</ele>
        <time>2018-03-18T12:58:27.000Z</time>
      </trkpt>
      <trkpt lat="43.0334" lon="0.54064">
        <ele>595</ele>
        <time>2018-03-18T12:58:29.000Z</time>
      </trkpt>
      <trkpt lat="43.03341" lon="0.54064">
        <ele>595</ele>
        <time>2018-03-18T12:58:31.000Z</time>
      </trkpt>
      <trkpt lat="43.03341" lon="0.54064">
        <ele>595</ele>
        <time>2018-03-18T12:58:33.000Z</time>
      </trkpt>
      <trkpt lat="43.03341" lon="0.54064">
        <ele>595</ele>
        <time>2018-03-18T12:58:35.000Z</time>
      </trkpt>
      <trkpt lat="43.03341" lon="0.54064">
        <ele>595</ele>
        <time>2018-03-18T12:58:37.000Z</time>
      </trkpt>
      <trkpt lat="43.03341" lon="0.54065">
        <ele>595</ele>
        <time>2018-03-18T12:58:39.000Z</time>
      </trkpt>
      <trkpt lat="43.03341" lon="0.54065">
        <ele>595</ele>
        <time>2018-03-18T12:58:41.000Z</time>
      </trkpt>
      <trkpt lat="43.03341" lon="0.54065">
        <ele>595</ele>
        <time>2018-03-18T12:58:43.000Z</time>
      </trkpt>
      <trkpt lat="43.03342" lon="0.54065">
        <ele>595</ele>
        <time>2018-03-18T12:58:45.000Z</time>
      </trkpt>
      <trkpt lat="43.03342" lon="0.54065">
        <ele>595</ele>
        <time>2018-03-18T12:58:47.000Z</time>
      </trkpt>
      <trkpt lat="43.03342" lon="0.54065">
        <ele>595</ele>
        <time>2018-03-18T12:58:49.000Z</time>
      </trkpt>
      <trkpt lat="43.03342" lon="0.54064">
        <ele>595</ele>
        <time>2018-03-18T12:58:51.000Z</time>
      </trkpt>
      <trkpt lat="43.03343" lon="0.54063">
        <ele>595</ele>
        <time>2018-03-18T12:58:53.000Z</time>
      </trkpt>
      <trkpt lat="43.03344" lon="0.54063">
        <ele>595</ele>
        <time>2018-03-18T12:58:55.000Z</time>
      </trkpt>
      <trkpt lat="43.03345" lon="0.54062">
        <ele>595</ele>
        <time>2018-03-18T12:58:57.000Z</time>
      </trkpt>
      <trkpt lat="43.03346" lon="0.54061">
        <ele>596</ele>
        <time>2018-03-18T12:58:59.000Z</time>
      </trkpt>
      <trkpt lat="43.03347" lon="0.5406">
        <ele>596</ele>
        <time>2018-03-18T12:59:01.000Z</time>
      </trkpt>
      <trkpt lat="43.03348" lon="0.54059">
        <ele>596</ele>
        <time>2018-03-18T12:59:03.000Z</time>
      </trkpt>
      <trkpt lat="43.03349" lon="0.54059">
        <ele>596</ele>
        <time>2018-03-18T12:59:05.000Z</time>
      </trkpt>
      <trkpt lat="43.0335" lon="0.54058">
        <ele>596</ele>
        <time>2018-03-18T12:59:07.000Z</time>
      </trkpt>
      <trkpt lat="43.03351" lon="0.54057">
        <ele>597</ele>
        <time>2018-03-18T12:59:09.000Z</time>
      </trkpt>
      <trkpt lat="43.03352" lon="0.54055">
        <ele>597</ele>
        <time>2018-03-18T12:59:11.000Z</time>
      </trkpt>
      <trkpt lat="43.03353" lon="0.54055">
        <ele>597</ele>
        <time>2018-03-18T12:59:13.000Z</time>
      </trkpt>
      <trkpt lat="43.03355" lon="0.54054">
        <ele>597</ele>
        <time>2018-03-18T12:59:15.000Z</time>
      </trkpt>
      <trkpt lat="43.03355" lon="0.54054">
        <ele>598</ele>
        <time>2018-03-18T12:59:17.000Z</time>
      </trkpt>
      <trkpt lat="43.03355" lon="0.54054">
        <ele>598</ele>
        <time>2018-03-18T12:59:19.000Z</time>
      </trkpt>
      <trkpt lat="43.03355" lon="0.54054">
        <ele>597</ele>
        <time>2018-03-18T12:59:21.000Z</time>
      </trkpt>
      <trkpt lat="43.03355" lon="0.54055">
        <ele>597</ele>
        <time>2018-03-18T12:59:23.000Z</time>
      </trkpt>
      <trkpt lat="43.03355" lon="0.54054">
        <ele>597</ele>
        <time>2018-03-18T12:59:25.000Z</time>
      </trkpt>
      <trkpt lat="43.03356" lon="0.54054">
        <ele>597</ele>
        <time>2018-03-18T12:59:27.000Z</time>
      </trkpt>
      <trkpt lat="43.03356" lon="0.54054">
        <ele>598</ele>
        <time>2018-03-18T12:59:29.000Z</time>
      </trkpt>
      <trkpt lat="43.03357" lon="0.54054">
        <ele>598</ele>
        <time>2018-03-18T12:59:31.000Z</time>
      </trkpt>
      <trkpt lat="43.03357" lon="0.54054">
        <ele>598</ele>
        <time>2018-03-18T12:59:33.000Z</time>
      </trkpt>
      <trkpt lat="43.03358" lon="0.54054">
        <ele>598</ele>
        <time>2018-03-18T12:59:35.000Z</time>
      </trkpt>
      <trkpt lat="43.03358" lon="0.54054">
        <ele>598</ele>
        <time>2018-03-18T12:59:37.000Z</time>
      </trkpt>
      <trkpt lat="43.03357" lon="0.54055">
        <ele>598</ele>
        <time>2018-03-18T12:59:39.000Z</time>
      </trkpt>
      <trkpt lat="43.03358" lon="0.54055">
        <ele>597</ele>
        <time>2018-03-18T12:59:41.000Z</time>
      </trkpt>
      <trkpt lat="43.03358" lon="0.54056">
        <ele>597</ele>
        <time>2018-03-18T12:59:43.000Z</time>
      </trkpt>
      <trkpt lat="43.03358" lon="0.54056">
        <ele>597</ele>
        <time>2018-03-18T12:59:45.000Z</time>
      </trkpt>
      <trkpt lat="43.03358" lon="0.54056">
        <ele>597</ele>
        <time>2018-03-18T12:59:47.000Z</time>
      </trkpt>
      <trkpt lat="43.03359" lon="0.54056">
        <ele>597</ele>
        <time>2018-03-18T12:59:49.000Z</time>
      </trkpt>
      <trkpt lat="43.03359" lon="0.54057">
        <ele>597</ele>
        <time>2018-03-18T12:59:51.000Z</time>
      </trkpt>
      <trkpt lat="43.0336" lon="0.54057">
        <ele>597</ele>
        <time>2018-03-18T12:59:53.000Z</time>
      </trkpt>
      <trkpt lat="43.0336" lon="0.54057">
        <ele>597</ele>
        <time>2018-03-18T12:59:55.000Z</time>
      </trkpt>
      <trkpt lat="43.03361" lon="0.54056">
        <ele>598</ele>
        <time>2018-03-18T12:59:57.000Z</time>
      </trkpt>
      <trkpt lat="43.03361" lon="0.54055">
        <ele>598</ele>
        <time>2018-03-18T12:59:59.000Z</time>
      </trkpt>
      <trkpt lat="43.03362" lon="0.54055">
        <ele>598</ele>
        <time>2018-03-18T13:00:01.000Z</time>
      </trkpt>
      <trkpt lat="43.03362" lon="0.54055">
        <ele>598</ele>
        <time>2018-03-18T13:00:03.000Z</time>
      </trkpt>
      <trkpt lat="43.03362" lon="0.54055">
        <ele>598</ele>
        <time>2018-03-18T13:00:05.000Z</time>
      </trkpt>
      <trkpt lat="43.03362" lon="0.54054">
        <ele>598</ele>
        <time>2018-03-18T13:00:07.000Z</time>
      </trkpt>
      <trkpt lat="43.03362" lon="0.54054">
        <ele>598</ele>
        <time>2018-03-18T13:00:09.000Z</time>
      </trkpt>
      <trkpt lat="43.0336" lon="0.54054">
        <ele>598</ele>
        <time>2018-03-18T13:00:11.000Z</time>
      </trkpt>
      <trkpt lat="43.0336" lon="0.54053">
        <ele>598</ele>
        <time>2018-03-18T13:00:13.000Z</time>
      </trkpt>
      <trkpt lat="43.03358" lon="0.54054">
        <ele>598</ele>
        <time>2018-03-18T13:00:15.000Z</time>
      </trkpt>
      <trkpt lat="43.03357" lon="0.54054">
        <ele>598</ele>
        <time>2018-03-18T13:00:17.000Z</time>
      </trkpt>
      <trkpt lat="43.03356" lon="0.54055">
        <ele>597</ele>
        <time>2018-03-18T13:00:19.000Z</time>
      </trkpt>
      <trkpt lat="43.03354" lon="0.54055">
        <ele>597</ele>
        <time>2018-03-18T13:00:21.000Z</time>
      </trkpt>
      <trkpt lat="43.03352" lon="0.54055">
        <ele>597</ele>
        <time>2018-03-18T13:00:23.000Z</time>
      </trkpt>
      <trkpt lat="43.03351" lon="0.54056">
        <ele>597</ele>
        <time>2018-03-18T13:00:25.000Z</time>
      </trkpt>
      <trkpt lat="43.0335" lon="0.54056">
        <ele>597</ele>
        <time>2018-03-18T13:00:27.000Z</time>
      </trkpt>
      <trkpt lat="43.03349" lon="0.54057">
        <ele>596</ele>
        <time>2018-03-18T13:00:29.000Z</time>
      </trkpt>
      <trkpt lat="43.03348" lon="0.54057">
        <ele>596</ele>
        <time>2018-03-18T13:00:31.000Z</time>
      </trkpt>
      <trkpt lat="43.03346" lon="0.54058">
        <ele>596</ele>
        <time>2018-03-18T13:00:33.000Z</time>
      </trkpt>
      <trkpt lat="43.03345" lon="0.54059">
        <ele>596</ele>
        <time>2018-03-18T13:00:35.000Z</time>
      </trkpt>
      <trkpt lat="43.03344" lon="0.5406">
        <ele>596</ele>
        <time>2018-03-18T13:00:37.000Z</time>
      </trkpt>
      <trkpt lat="43.03343" lon="0.5406">
        <ele>596</ele>
        <time>2018-03-18T13:00:39.000Z</time>
      </trkpt>
      <trkpt lat="43.03342" lon="0.5406">
        <ele>595</ele>
        <time>2018-03-18T13:00:41.000Z</time>
      </trkpt>
      <trkpt lat="43.03342" lon="0.54061">
        <ele>595</ele>
        <time>2018-03-18T13:00:43.000Z</time>
      </trkpt>
      <trkpt lat="43.03341" lon="0.54061">
        <ele>595</ele>
        <time>2018-03-18T13:00:45.000Z</time>
      </trkpt>
      <trkpt lat="43.03341" lon="0.54061">
        <ele>595</ele>
        <time>2018-03-18T13:00:47.000Z</time>
      </trkpt>
      <trkpt lat="43.0334" lon="0.54061">
        <ele>595</ele>
        <time>2018-03-18T13:00:49.000Z</time>
      </trkpt>
      <trkpt lat="43.0334" lon="0.54061">
        <ele>595</ele>
        <time>2018-03-18T13:00:51.000Z</time>
      </trkpt>
      <trkpt lat="43.03339" lon="0.54061">
        <ele>595</ele>
        <time>2018-03-18T13:00:53.000Z</time>
      </trkpt>
      <trkpt lat="43.03339" lon="0.54062">
        <ele>595</ele>
        <time>2018-03-18T13:00:55.000Z</time>
      </trkpt>
      <trkpt lat="43.03338" lon="0.54062">
        <ele>595</ele>
        <time>2018-03-18T13:00:57.000Z</time>
      </trkpt>
      <trkpt lat="43.03338" lon="0.54062">
        <ele>595</ele>
        <time>2018-03-18T13:00:59.000Z</time>
      </trkpt>
      <trkpt lat="43.03338" lon="0.54062">
        <ele>595</ele>
        <time>2018-03-18T13:01:01.000Z</time>
      </trkpt>
      <trkpt lat="43.03337" lon="0.54063">
        <ele>595</ele>
        <time>2018-03-18T13:01:03.000Z</time>
      </trkpt>
      <trkpt lat="43.03337" lon="0.54063">
        <ele>595</ele>
        <time>2018-03-18T13:01:05.000Z</time>
      </trkpt>
      <trkpt lat="43.03337" lon="0.54063">
        <ele>595</ele>
        <time>2018-03-18T13:01:07.000Z</time>
      </trkpt>
      <trkpt lat="43.03336" lon="0.54063">
        <ele>595</ele>
        <time>2018-03-18T13:01:09.000Z</time>
      </trkpt>
      <trkpt lat="43.03336" lon="0.54064">
        <ele>595</ele>
        <time>2018-03-18T13:01:11.000Z</time>
      </trkpt>
      <trkpt lat="43.03336" lon="0.54065">
        <ele>594</ele>
        <time>2018-03-18T13:01:13.000Z</time>
      </trkpt>
      <trkpt lat="43.03336" lon="0.54066">
        <ele>594</ele>
        <time>2018-03-18T13:01:15.000Z</time>
      </trkpt>
      <trkpt lat="43.03336" lon="0.54066">
        <ele>594</ele>
        <time>2018-03-18T13:01:17.000Z</time>
      </trkpt>
      <trkpt lat="43.03336" lon="0.54067">
        <ele>594</ele>
        <time>2018-03-18T13:01:19.000Z</time>
      </trkpt>
      <trkpt lat="43.03336" lon="0.54067">
        <ele>594</ele>
        <time>2018-03-18T13:01:21.000Z</time>
      </trkpt>
      <trkpt lat="43.03336" lon="0.54068">
        <ele>594</ele>
        <time>2018-03-18T13:01:23.000Z</time>
      </trkpt>
      <trkpt lat="43.03336" lon="0.54068">
        <ele>594</ele>
        <time>2018-03-18T13:01:25.000Z</time>
      </trkpt>
      <trkpt lat="43.03336" lon="0.54069">
        <ele>594</ele>
        <time>2018-03-18T13:01:27.000Z</time>
      </trkpt>
      <trkpt lat="43.03336" lon="0.54069">
        <ele>594</ele>
        <time>2018-03-18T13:01:29.000Z</time>
      </trkpt>
      <trkpt lat="43.03335" lon="0.54069">
        <ele>594</ele>
        <time>2018-03-18T13:01:31.000Z</time>
      </trkpt>
      <trkpt lat="43.03335" lon="0.54069">
        <ele>594</ele>
        <time>2018-03-18T13:01:33.000Z</time>
      </trkpt>
      <trkpt lat="43.03334" lon="0.54069">
        <ele>594</ele>
        <time>2018-03-18T13:01:35.000Z</time>
      </trkpt>
      <trkpt lat="43.03334" lon="0.5407">
        <ele>594</ele>
        <time>2018-03-18T13:01:37.000Z</time>
      </trkpt>
      <trkpt lat="43.03334" lon="0.54069">
        <ele>594</ele>
        <time>2018-03-18T13:01:39.000Z</time>
      </trkpt>
      <trkpt lat="43.03334" lon="0.54068">
        <ele>594</ele>
        <time>2018-03-18T13:01:41.000Z</time>
      </trkpt>
      <trkpt lat="43.03334" lon="0.54067">
        <ele>594</ele>
        <time>2018-03-18T13:01:43.000Z</time>
      </trkpt>
      <trkpt lat="43.03335" lon="0.54067">
        <ele>594</ele>
        <time>2018-03-18T13:01:45.000Z</time>
      </trkpt>
      <trkpt lat="43.03335" lon="0.54067">
        <ele>594</ele>
        <time>2018-03-18T13:01:47.000Z</time>
      </trkpt>
      <trkpt lat="43.03335" lon="0.54067">
        <ele>594</ele>
        <time>2018-03-18T13:01:49.000Z</time>
      </trkpt>
      <trkpt lat="43.03336" lon="0.54067">
        <ele>594</ele>
        <time>2018-03-18T13:01:51.000Z</time>
      </trkpt>
      <trkpt lat="43.03336" lon="0.54066">
        <ele>594</ele>
        <time>2018-03-18T13:01:53.000Z</time>
      </trkpt>
      <trkpt lat="43.03336" lon="0.54067">
        <ele>594</ele>
        <time>2018-03-18T13:01:55.000Z</time>
      </trkpt>
      <trkpt lat="43.03336" lon="0.54067">
        <ele>594</ele>
        <time>2018-03-18T13:01:57.000Z</time>
      </trkpt>
      <trkpt lat="43.03336" lon="0.54067">
        <ele>594</ele>
        <time>2018-03-18T13:01:59.000Z</time>
      </trkpt>
      <trkpt lat="43.03336" lon="0.54067">
        <ele>594</ele>
        <time>2018-03-18T13:02:01.000Z</time>
      </trkpt>
      <trkpt lat="43.03336" lon="0.54067">
        <ele>594</ele>
        <time>2018-03-18T13:02:03.000Z</time>
      </trkpt>
      <trkpt lat="43.03336" lon="0.54066">
        <ele>594</ele>
        <time>2018-03-18T13:02:05.000Z</time>
      </trkpt>
      <trkpt lat="43.03336" lon="0.54066">
        <ele>594</ele>
        <time>2018-03-18T13:02:07.000Z</time>
      </trkpt>
      <trkpt lat="43.03336" lon="0.54066">
        <ele>594</ele>
        <time>2018-03-18T13:02:09.000Z</time>
      </trkpt>
      <trkpt lat="43.03337" lon="0.54065">
        <ele>594</ele>
        <time>2018-03-18T13:02:11.000Z</time>
      </trkpt>
      <trkpt lat="43.03337" lon="0.54065">
        <ele>595</ele>
        <time>2018-03-18T13:02:13.000Z</time>
      </trkpt>
      <trkpt lat="43.03337" lon="0.54064">
        <ele>595</ele>
        <time>2018-03-18T13:02:15.000Z</time>
      </trkpt>
      <trkpt lat="43.03337" lon="0.54064">
        <ele>595</ele>
        <time>2018-03-18T13:02:17.000Z</time>
      </trkpt>
      <trkpt lat="43.03338" lon="0.54064">
        <ele>595</ele>
        <time>2018-03-18T13:02:19.000Z</time>
      </trkpt>
      <trkpt lat="43.03338" lon="0.54064">
        <ele>595</ele>
        <time>2018-03-18T13:02:21.000Z</time>
      </trkpt>
      <trkpt lat="43.03338" lon="0.54064">
        <ele>595</ele>
        <time>2018-03-18T13:02:23.000Z</time>
      </trkpt>
      <trkpt lat="43.03338" lon="0.54065">
        <ele>595</ele>
        <time>2018-03-18T13:02:25.000Z</time>
      </trkpt>
      <trkpt lat="43.03338" lon="0.54065">
        <ele>595</ele>
        <time>2018-03-18T13:02:27.000Z</time>
      </trkpt>
      <trkpt lat="43.03338" lon="0.54065">
        <ele>594</ele>
        <time>2018-03-18T13:02:29.000Z</time>
      </trkpt>
      <trkpt lat="43.03339" lon="0.54066">
        <ele>594</ele>
        <time>2018-03-18T13:02:31.000Z</time>
      </trkpt>
      <trkpt lat="43.03339" lon="0.54066">
        <ele>594</ele>
        <time>2018-03-18T13:02:33.000Z</time>
      </trkpt>
      <trkpt lat="43.0334" lon="0.54067">
        <ele>594</ele>
        <time>2018-03-18T13:02:35.000Z</time>
      </trkpt>
      <trkpt lat="43.0334" lon="0.54067">
        <ele>594</ele>
        <time>2018-03-18T13:02:37.000Z</time>
      </trkpt>
      <trkpt lat="43.0334" lon="0.54068">
        <ele>594</ele>
        <time>2018-03-18T13:02:39.000Z</time>
      </trkpt>
      <trkpt lat="43.0334" lon="0.54069">
        <ele>594</ele>
        <time>2018-03-18T13:02:41.000Z</time>
      </trkpt>
      <trkpt lat="43.0334" lon="0.54069">
        <ele>594</ele>
        <time>2018-03-18T13:02:43.000Z</time>
      </trkpt>
      <trkpt lat="43.0334" lon="0.54069">
        <ele>594</ele>
        <time>2018-03-18T13:02:45.000Z</time>
      </trkpt>
      <trkpt lat="43.0334" lon="0.54068">
        <ele>594</ele>
        <time>2018-03-18T13:02:47.000Z</time>
      </trkpt>
      <trkpt lat="43.03341" lon="0.54067">
        <ele>594</ele>
        <time>2018-03-18T13:02:49.000Z</time>
      </trkpt>
      <trkpt lat="43.03341" lon="0.54067">
        <ele>594</ele>
        <time>2018-03-18T13:02:51.000Z</time>
      </trkpt>
      <trkpt lat="43.03341" lon="0.54066">
        <ele>595</ele>
        <time>2018-03-18T13:02:53.000Z</time>
      </trkpt>
      <trkpt lat="43.03341" lon="0.54066">
        <ele>595</ele>
        <time>2018-03-18T13:02:55.000Z</time>
      </trkpt>
      <trkpt lat="43.03341" lon="0.54065">
        <ele>595</ele>
        <time>2018-03-18T13:02:57.000Z</time>
      </trkpt>
      <trkpt lat="43.03341" lon="0.54064">
        <ele>595</ele>
        <time>2018-03-18T13:02:59.000Z</time>
      </trkpt>
      <trkpt lat="43.03342" lon="0.54064">
        <ele>595</ele>
        <time>2018-03-18T13:03:01.000Z</time>
      </trkpt>
      <trkpt lat="43.03341" lon="0.54063">
        <ele>595</ele>
        <time>2018-03-18T13:03:03.000Z</time>
      </trkpt>
      <trkpt lat="43.03341" lon="0.54062">
        <ele>595</ele>
        <time>2018-03-18T13:03:05.000Z</time>
      </trkpt>
      <trkpt lat="43.03341" lon="0.54061">
        <ele>595</ele>
        <time>2018-03-18T13:03:07.000Z</time>
      </trkpt>
      <trkpt lat="43.03341" lon="0.54061">
        <ele>595</ele>
        <time>2018-03-18T13:03:09.000Z</time>
      </trkpt>
      <trkpt lat="43.0334" lon="0.54061">
        <ele>595</ele>
        <time>2018-03-18T13:03:11.000Z</time>
      </trkpt>
      <trkpt lat="43.0334" lon="0.54062">
        <ele>595</ele>
        <time>2018-03-18T13:03:13.000Z</time>
      </trkpt>
      <trkpt lat="43.0334" lon="0.54062">
        <ele>595</ele>
        <time>2018-03-18T13:03:15.000Z</time>
      </trkpt>
      <trkpt lat="43.0334" lon="0.54062">
        <ele>595</ele>
        <time>2018-03-18T13:03:17.000Z</time>
      </trkpt>
      <trkpt lat="43.0334" lon="0.54062">
        <ele>595</ele>
        <time>2018-03-18T13:03:19.000Z</time>
      </trkpt>
      <trkpt lat="43.03341" lon="0.54063">
        <ele>595</ele>
        <time>2018-03-18T13:03:21.000Z</time>
      </trkpt>
      <trkpt lat="43.03341" lon="0.54063">
        <ele>595</ele>
        <time>2018-03-18T13:03:23.000Z</time>
      </trkpt>
      <trkpt lat="43.0334" lon="0.54063">
        <ele>595</ele>
        <time>2018-03-18T13:03:25.000Z</time>
      </trkpt>
      <trkpt lat="43.0334" lon="0.54062">
        <ele>595</ele>
        <time>2018-03-18T13:03:28.000Z</time>
      </trkpt>
      <trkpt lat="43.0334" lon="0.54062">
        <ele>595</ele>
        <time>2018-03-18T13:03:30.000Z</time>
      </trkpt>
      <trkpt lat="43.0334" lon="0.54061">
        <ele>595</ele>
        <time>2018-03-18T13:03:32.000Z</time>
      </trkpt>
      <trkpt lat="43.0334" lon="0.5406">
        <ele>595</ele>
        <time>2018-03-18T13:03:34.000Z</time>
      </trkpt>
      <trkpt lat="43.0334" lon="0.5406">
        <ele>595</ele>
        <time>2018-03-18T13:03:36.000Z</time>
      </trkpt>
      <trkpt lat="43.03339" lon="0.5406">
        <ele>595</ele>
        <time>2018-03-18T13:03:38.000Z</time>
      </trkpt>
      <trkpt lat="43.03339" lon="0.54059">
        <ele>595</ele>
        <time>2018-03-18T13:03:40.000Z</time>
      </trkpt>
      <trkpt lat="43.03339" lon="0.54058">
        <ele>596</ele>
        <time>2018-03-18T13:03:42.000Z</time>
      </trkpt>
      <trkpt lat="43.03339" lon="0.54058">
        <ele>596</ele>
        <time>2018-03-18T13:03:44.000Z</time>
      </trkpt>
      <trkpt lat="43.0334" lon="0.54057">
        <ele>596</ele>
        <time>2018-03-18T13:03:46.000Z</time>
      </trkpt>
      <trkpt lat="43.03341" lon="0.54057">
        <ele>596</ele>
        <time>2018-03-18T13:03:48.000Z</time>
      </trkpt>
      <trkpt lat="43.03341" lon="0.54057">
        <ele>596</ele>
        <time>2018-03-18T13:03:50.000Z</time>
      </trkpt>
      <trkpt lat="43.03341" lon="0.54057">
        <ele>596</ele>
        <time>2018-03-18T13:03:52.000Z</time>
      </trkpt>
      <trkpt lat="43.03342" lon="0.54058">
        <ele>596</ele>
        <time>2018-03-18T13:03:54.000Z</time>
      </trkpt>
      <trkpt lat="43.03341" lon="0.54058">
        <ele>596</ele>
        <time>2018-03-18T13:03:56.000Z</time>
      </trkpt>
      <trkpt lat="43.03341" lon="0.54059">
        <ele>596</ele>
        <time>2018-03-18T13:03:58.000Z</time>
      </trkpt>
      <trkpt lat="43.03341" lon="0.5406">
        <ele>596</ele>
        <time>2018-03-18T13:04:00.000Z</time>
      </trkpt>
      <trkpt lat="43.03341" lon="0.54061">
        <ele>595</ele>
        <time>2018-03-18T13:04:02.000Z</time>
      </trkpt>
      <trkpt lat="43.03341" lon="0.54062">
        <ele>595</ele>
        <time>2018-03-18T13:04:04.000Z</time>
      </trkpt>
      <trkpt lat="43.03341" lon="0.54062">
        <ele>595</ele>
        <time>2018-03-18T13:04:06.000Z</time>
      </trkpt>
      <trkpt lat="43.03342" lon="0.54063">
        <ele>595</ele>
        <time>2018-03-18T13:04:08.000Z</time>
      </trkpt>
      <trkpt lat="43.03342" lon="0.54065">
        <ele>595</ele>
        <time>2018-03-18T13:04:10.000Z</time>
      </trkpt>
      <trkpt lat="43.03342" lon="0.54066">
        <ele>595</ele>
        <time>2018-03-18T13:04:12.000Z</time>
      </trkpt>
      <trkpt lat="43.03342" lon="0.54068">
        <ele>594</ele>
        <time>2018-03-18T13:04:14.000Z</time>
      </trkpt>
      <trkpt lat="43.03341" lon="0.5407">
        <ele>594</ele>
        <time>2018-03-18T13:04:16.000Z</time>
      </trkpt>
      <trkpt lat="43.0334" lon="0.54072">
        <ele>594</ele>
        <time>2018-03-18T13:04:18.000Z</time>
      </trkpt>
      <trkpt lat="43.03338" lon="0.54074">
        <ele>593</ele>
        <time>2018-03-18T13:04:20.000Z</time>
      </trkpt>
      <trkpt lat="43.03337" lon="0.54076">
        <ele>593</ele>
        <time>2018-03-18T13:04:22.000Z</time>
      </trkpt>
      <trkpt lat="43.03335" lon="0.54078">
        <ele>592</ele>
        <time>2018-03-18T13:04:24.000Z</time>
      </trkpt>
      <trkpt lat="43.03334" lon="0.54079">
        <ele>592</ele>
        <time>2018-03-18T13:04:26.000Z</time>
      </trkpt>
      <trkpt lat="43.03332" lon="0.54081">
        <ele>592</ele>
        <time>2018-03-18T13:04:28.000Z</time>
      </trkpt>
      <trkpt lat="43.03331" lon="0.54082">
        <ele>591</ele>
        <time>2018-03-18T13:04:30.000Z</time>
      </trkpt>
      <trkpt lat="43.03329" lon="0.54084">
        <ele>591</ele>
        <time>2018-03-18T13:04:32.000Z</time>
      </trkpt>
      <trkpt lat="43.03327" lon="0.54085">
        <ele>591</ele>
        <time>2018-03-18T13:04:34.000Z</time>
      </trkpt>
      <trkpt lat="43.03326" lon="0.54086">
        <ele>591</ele>
        <time>2018-03-18T13:04:36.000Z</time>
      </trkpt>
      <trkpt lat="43.03325" lon="0.54088">
        <ele>590</ele>
        <time>2018-03-18T13:04:38.000Z</time>
      </trkpt>
      <trkpt lat="43.03324" lon="0.54088">
        <ele>590</ele>
        <time>2018-03-18T13:04:40.000Z</time>
      </trkpt>
      <trkpt lat="43.03322" lon="0.5409">
        <ele>590</ele>
        <time>2018-03-18T13:04:42.000Z</time>
      </trkpt>
      <trkpt lat="43.0332" lon="0.54092">
        <ele>589</ele>
        <time>2018-03-18T13:04:44.000Z</time>
      </trkpt>
      <trkpt lat="43.03318" lon="0.54092">
        <ele>589</ele>
        <time>2018-03-18T13:04:46.000Z</time>
      </trkpt>
      <trkpt lat="43.03317" lon="0.54092">
        <ele>589</ele>
        <time>2018-03-18T13:04:48.000Z</time>
      </trkpt>
      <trkpt lat="43.03316" lon="0.54093">
        <ele>589</ele>
        <time>2018-03-18T13:04:50.000Z</time>
      </trkpt>
      <trkpt lat="43.03314" lon="0.54093">
        <ele>589</ele>
        <time>2018-03-18T13:04:52.000Z</time>
      </trkpt>
      <trkpt lat="43.03313" lon="0.54093">
        <ele>589</ele>
        <time>2018-03-18T13:04:54.000Z</time>
      </trkpt>
      <trkpt lat="43.03311" lon="0.54094">
        <ele>588</ele>
        <time>2018-03-18T13:04:56.000Z</time>
      </trkpt>
      <trkpt lat="43.03309" lon="0.54094">
        <ele>588</ele>
        <time>2018-03-18T13:04:58.000Z</time>
      </trkpt>
      <trkpt lat="43.03308" lon="0.54094">
        <ele>588</ele>
        <time>2018-03-18T13:05:00.000Z</time>
      </trkpt>
      <trkpt lat="43.03307" lon="0.54094">
        <ele>588</ele>
        <time>2018-03-18T13:05:02.000Z</time>
      </trkpt>
      <trkpt lat="43.03307" lon="0.54094">
        <ele>588</ele>
        <time>2018-03-18T13:05:04.000Z</time>
      </trkpt>
      <trkpt lat="43.03305" lon="0.54095">
        <ele>588</ele>
        <time>2018-03-18T13:05:06.000Z</time>
      </trkpt>
      <trkpt lat="43.03304" lon="0.54095">
        <ele>588</ele>
        <time>2018-03-18T13:05:08.000Z</time>
      </trkpt>
      <trkpt lat="43.03302" lon="0.54095">
        <ele>588</ele>
        <time>2018-03-18T13:05:10.000Z</time>
      </trkpt>
      <trkpt lat="43.033" lon="0.54095">
        <ele>587</ele>
        <time>2018-03-18T13:05:12.000Z</time>
      </trkpt>
      <trkpt lat="43.03298" lon="0.54095">
        <ele>587</ele>
        <time>2018-03-18T13:05:14.000Z</time>
      </trkpt>
      <trkpt lat="43.03297" lon="0.54096">
        <ele>587</ele>
        <time>2018-03-18T13:05:16.000Z</time>
      </trkpt>
      <trkpt lat="43.03295" lon="0.54096">
        <ele>586</ele>
        <time>2018-03-18T13:05:18.000Z</time>
      </trkpt>
      <trkpt lat="43.03293" lon="0.54096">
        <ele>586</ele>
        <time>2018-03-18T13:05:20.000Z</time>
      </trkpt>
      <trkpt lat="43.03292" lon="0.54096">
        <ele>586</ele>
        <time>2018-03-18T13:05:22.000Z</time>
      </trkpt>
      <trkpt lat="43.0329" lon="0.54096">
        <ele>586</ele>
        <time>2018-03-18T13:05:24.000Z</time>
      </trkpt>
      <trkpt lat="43.03288" lon="0.54096">
        <ele>585</ele>
        <time>2018-03-18T13:05:26.000Z</time>
      </trkpt>
      <trkpt lat="43.03286" lon="0.54096">
        <ele>585</ele>
        <time>2018-03-18T13:05:28.000Z</time>
      </trkpt>
      <trkpt lat="43.03285" lon="0.54096">
        <ele>585</ele>
        <time>2018-03-18T13:05:30.000Z</time>
      </trkpt>
      <trkpt lat="43.03283" lon="0.54096">
        <ele>585</ele>
        <time>2018-03-18T13:05:32.000Z</time>
      </trkpt>
      <trkpt lat="43.03281" lon="0.54096">
        <ele>584</ele>
        <time>2018-03-18T13:05:34.000Z</time>
      </trkpt>
      <trkpt lat="43.03279" lon="0.54097">
        <ele>584</ele>
        <time>2018-03-18T13:05:36.000Z</time>
      </trkpt>
      <trkpt lat="43.03277" lon="0.54098">
        <ele>583</ele>
        <time>2018-03-18T13:05:38.000Z</time>
      </trkpt>
      <trkpt lat="43.03275" lon="0.54098">
        <ele>583</ele>
        <time>2018-03-18T13:05:40.000Z</time>
      </trkpt>
      <trkpt lat="43.03274" lon="0.54098">
        <ele>583</ele>
        <time>2018-03-18T13:05:42.000Z</time>
      </trkpt>
      <trkpt lat="43.03272" lon="0.54098">
        <ele>583</ele>
        <time>2018-03-18T13:05:44.000Z</time>
      </trkpt>
      <trkpt lat="43.0327" lon="0.54099">
        <ele>582</ele>
        <time>2018-03-18T13:05:46.000Z</time>
      </trkpt>
      <trkpt lat="43.03268" lon="0.54099">
        <ele>582</ele>
        <time>2018-03-18T13:05:48.000Z</time>
      </trkpt>
      <trkpt lat="43.03267" lon="0.541">
        <ele>581</ele>
        <time>2018-03-18T13:05:50.000Z</time>
      </trkpt>
      <trkpt lat="43.03265" lon="0.541">
        <ele>581</ele>
        <time>2018-03-18T13:05:52.000Z</time>
      </trkpt>
      <trkpt lat="43.03264" lon="0.541">
        <ele>581</ele>
        <time>2018-03-18T13:05:54.000Z</time>
      </trkpt>
      <trkpt lat="43.03263" lon="0.54099">
        <ele>581</ele>
        <time>2018-03-18T13:05:56.000Z</time>
      </trkpt>
      <trkpt lat="43.03263" lon="0.54099">
        <ele>581</ele>
        <time>2018-03-18T13:05:58.000Z</time>
      </trkpt>
      <trkpt lat="43.03263" lon="0.54098">
        <ele>581</ele>
        <time>2018-03-18T13:06:00.000Z</time>
      </trkpt>
      <trkpt lat="43.03264" lon="0.54097">
        <ele>581</ele>
        <time>2018-03-18T13:06:02.000Z</time>
      </trkpt>
      <trkpt lat="43.03264" lon="0.54097">
        <ele>582</ele>
        <time>2018-03-18T13:06:04.000Z</time>
      </trkpt>
      <trkpt lat="43.03265" lon="0.54097">
        <ele>582</ele>
        <time>2018-03-18T13:06:06.000Z</time>
      </trkpt>
      <trkpt lat="43.03265" lon="0.54097">
        <ele>582</ele>
        <time>2018-03-18T13:06:08.000Z</time>
      </trkpt>
      <trkpt lat="43.03266" lon="0.54096">
        <ele>582</ele>
        <time>2018-03-18T13:06:10.000Z</time>
      </trkpt>
      <trkpt lat="43.03267" lon="0.54096">
        <ele>582</ele>
        <time>2018-03-18T13:06:12.000Z</time>
      </trkpt>
      <trkpt lat="43.03267" lon="0.54096">
        <ele>582</ele>
        <time>2018-03-18T13:06:14.000Z</time>
      </trkpt>
      <trkpt lat="43.03268" lon="0.54096">
        <ele>582</ele>
        <time>2018-03-18T13:06:16.000Z</time>
      </trkpt>
      <trkpt lat="43.03269" lon="0.54096">
        <ele>582</ele>
        <time>2018-03-18T13:06:18.000Z</time>
      </trkpt>
      <trkpt lat="43.03269" lon="0.54097">
        <ele>582</ele>
        <time>2018-03-18T13:06:20.000Z</time>
      </trkpt>
      <trkpt lat="43.0327" lon="0.54097">
        <ele>582</ele>
        <time>2018-03-18T13:06:22.000Z</time>
      </trkpt>
      <trkpt lat="43.0327" lon="0.54097">
        <ele>583</ele>
        <time>2018-03-18T13:06:24.000Z</time>
      </trkpt>
      <trkpt lat="43.0327" lon="0.54096">
        <ele>583</ele>
        <time>2018-03-18T13:06:26.000Z</time>
      </trkpt>
      <trkpt lat="43.0327" lon="0.54096">
        <ele>583</ele>
        <time>2018-03-18T13:06:28.000Z</time>
      </trkpt>
      <trkpt lat="43.0327" lon="0.54096">
        <ele>583</ele>
        <time>2018-03-18T13:06:30.000Z</time>
      </trkpt>
      <trkpt lat="43.0327" lon="0.54095">
        <ele>583</ele>
        <time>2018-03-18T13:06:32.000Z</time>
      </trkpt>
      <trkpt lat="43.03271" lon="0.54095">
        <ele>583</ele>
        <time>2018-03-18T13:06:34.000Z</time>
      </trkpt>
      <trkpt lat="43.0327" lon="0.54097">
        <ele>583</ele>
        <time>2018-03-18T13:06:36.000Z</time>
      </trkpt>
      <trkpt lat="43.03269" lon="0.54097">
        <ele>582</ele>
        <time>2018-03-18T13:06:38.000Z</time>
      </trkpt>
      <trkpt lat="43.03269" lon="0.54097">
        <ele>582</ele>
        <time>2018-03-18T13:06:40.000Z</time>
      </trkpt>
      <trkpt lat="43.03269" lon="0.54098">
        <ele>582</ele>
        <time>2018-03-18T13:06:42.000Z</time>
      </trkpt>
      <trkpt lat="43.03268" lon="0.54098">
        <ele>582</ele>
        <time>2018-03-18T13:06:44.000Z</time>
      </trkpt>
      <trkpt lat="43.03268" lon="0.54098">
        <ele>582</ele>
        <time>2018-03-18T13:06:46.000Z</time>
      </trkpt>
      <trkpt lat="43.03268" lon="0.54099">
        <ele>582</ele>
        <time>2018-03-18T13:06:48.000Z</time>
      </trkpt>
      <trkpt lat="43.03267" lon="0.54099">
        <ele>582</ele>
        <time>2018-03-18T13:06:50.000Z</time>
      </trkpt>
      <trkpt lat="43.03267" lon="0.54099">
        <ele>582</ele>
        <time>2018-03-18T13:06:52.000Z</time>
      </trkpt>
      <trkpt lat="43.03267" lon="0.54099">
        <ele>581</ele>
        <time>2018-03-18T13:06:54.000Z</time>
      </trkpt>
      <trkpt lat="43.03267" lon="0.541">
        <ele>581</ele>
        <time>2018-03-18T13:06:56.000Z</time>
      </trkpt>
      <trkpt lat="43.03267" lon="0.541">
        <ele>581</ele>
        <time>2018-03-18T13:06:58.000Z</time>
      </trkpt>
      <trkpt lat="43.03268" lon="0.541">
        <ele>581</ele>
        <time>2018-03-18T13:07:00.000Z</time>
      </trkpt>
      <trkpt lat="43.03269" lon="0.541">
        <ele>582</ele>
        <time>2018-03-18T13:07:02.000Z</time>
      </trkpt>
      <trkpt lat="43.03269" lon="0.541">
        <ele>582</ele>
        <time>2018-03-18T13:07:04.000Z</time>
      </trkpt>
      <trkpt lat="43.03269" lon="0.541">
        <ele>582</ele>
        <time>2018-03-18T13:07:06.000Z</time>
      </trkpt>
      <trkpt lat="43.03268" lon="0.541">
        <ele>581</ele>
        <time>2018-03-18T13:07:08.000Z</time>
      </trkpt>
      <trkpt lat="43.03268" lon="0.541">
        <ele>581</ele>
        <time>2018-03-18T13:07:10.000Z</time>
      </trkpt>
      <trkpt lat="43.03267" lon="0.541">
        <ele>581</ele>
        <time>2018-03-18T13:07:12.000Z</time>
      </trkpt>
      <trkpt lat="43.03267" lon="0.541">
        <ele>581</ele>
        <time>2018-03-18T13:07:14.000Z</time>
      </trkpt>
      <trkpt lat="43.03267" lon="0.541">
        <ele>581</ele>
        <time>2018-03-18T13:07:17.000Z</time>
      </trkpt>
      <trkpt lat="43.03268" lon="0.54099">
        <ele>582</ele>
        <time>2018-03-18T13:07:19.000Z</time>
      </trkpt>
      <trkpt lat="43.03268" lon="0.54099">
        <ele>582</ele>
        <time>2018-03-18T13:07:21.000Z</time>
      </trkpt>
      <trkpt lat="43.03266" lon="0.54099">
        <ele>581</ele>
        <time>2018-03-18T13:07:23.000Z</time>
      </trkpt>
      <trkpt lat="43.03265" lon="0.541">
        <ele>581</ele>
        <time>2018-03-18T13:07:25.000Z</time>
      </trkpt>
      <trkpt lat="43.03263" lon="0.54101">
        <ele>580</ele>
        <time>2018-03-18T13:07:27.000Z</time>
      </trkpt>
      <trkpt lat="43.03262" lon="0.54102">
        <ele>580</ele>
        <time>2018-03-18T13:07:29.000Z</time>
      </trkpt>
      <trkpt lat="43.03261" lon="0.54103">
        <ele>580</ele>
        <time>2018-03-18T13:07:31.000Z</time>
      </trkpt>
      <trkpt lat="43.0326" lon="0.54104">
        <ele>579</ele>
        <time>2018-03-18T13:07:33.000Z</time>
      </trkpt>
      <trkpt lat="43.03258" lon="0.54105">
        <ele>579</ele>
        <time>2018-03-18T13:07:35.000Z</time>
      </trkpt>
      <trkpt lat="43.03256" lon="0.54105">
        <ele>579</ele>
        <time>2018-03-18T13:07:37.000Z</time>
      </trkpt>
      <trkpt lat="43.03254" lon="0.54106">
        <ele>579</ele>
        <time>2018-03-18T13:07:39.000Z</time>
      </trkpt>
      <trkpt lat="43.03253" lon="0.54107">
        <ele>579</ele>
        <time>2018-03-18T13:07:41.000Z</time>
      </trkpt>
      <trkpt lat="43.03251" lon="0.54107">
        <ele>579</ele>
        <time>2018-03-18T13:07:43.000Z</time>
      </trkpt>
      <trkpt lat="43.03251" lon="0.54107">
        <ele>579</ele>
        <time>2018-03-18T13:07:45.000Z</time>
      </trkpt>
      <trkpt lat="43.03249" lon="0.54107">
        <ele>579</ele>
        <time>2018-03-18T13:07:47.000Z</time>
      </trkpt>
      <trkpt lat="43.03248" lon="0.54108">
        <ele>579</ele>
        <time>2018-03-18T13:07:49.000Z</time>
      </trkpt>
      <trkpt lat="43.03247" lon="0.54108">
        <ele>579</ele>
        <time>2018-03-18T13:07:51.000Z</time>
      </trkpt>
      <trkpt lat="43.03245" lon="0.54109">
        <ele>578</ele>
        <time>2018-03-18T13:07:53.000Z</time>
      </trkpt>
      <trkpt lat="43.03243" lon="0.54109">
        <ele>578</ele>
        <time>2018-03-18T13:07:55.000Z</time>
      </trkpt>
      <trkpt lat="43.03241" lon="0.54109">
        <ele>578</ele>
        <time>2018-03-18T13:07:57.000Z</time>
      </trkpt>
      <trkpt lat="43.0324" lon="0.54109">
        <ele>578</ele>
        <time>2018-03-18T13:07:59.000Z</time>
      </trkpt>
      <trkpt lat="43.03239" lon="0.5411">
        <ele>578</ele>
        <time>2018-03-18T13:08:01.000Z</time>
      </trkpt>
      <trkpt lat="43.03237" lon="0.5411">
        <ele>578</ele>
        <time>2018-03-18T13:08:03.000Z</time>
      </trkpt>
      <trkpt lat="43.03235" lon="0.5411">
        <ele>578</ele>
        <time>2018-03-18T13:08:05.000Z</time>
      </trkpt>
      <trkpt lat="43.03233" lon="0.54111">
        <ele>578</ele>
        <time>2018-03-18T13:08:07.000Z</time>
      </trkpt>
      <trkpt lat="43.03231" lon="0.54112">
        <ele>577</ele>
        <time>2018-03-18T13:08:09.000Z</time>
      </trkpt>
      <trkpt lat="43.03229" lon="0.54113">
        <ele>577</ele>
        <time>2018-03-18T13:08:11.000Z</time>
      </trkpt>
      <trkpt lat="43.03227" lon="0.54113">
        <ele>577</ele>
        <time>2018-03-18T13:08:13.000Z</time>
      </trkpt>
      <trkpt lat="43.03225" lon="0.54114">
        <ele>576</ele>
        <time>2018-03-18T13:08:15.000Z</time>
      </trkpt>
      <trkpt lat="43.03223" lon="0.54114">
        <ele>576</ele>
        <time>2018-03-18T13:08:17.000Z</time>
      </trkpt>
      <trkpt lat="43.03222" lon="0.54115">
        <ele>575</ele>
        <time>2018-03-18T13:08:19.000Z</time>
      </trkpt>
      <trkpt lat="43.0322" lon="0.54116">
        <ele>575</ele>
        <time>2018-03-18T13:08:21.000Z</time>
      </trkpt>
      <trkpt lat="43.03219" lon="0.54116">
        <ele>574</ele>
        <time>2018-03-18T13:08:23.000Z</time>
      </trkpt>
      <trkpt lat="43.03217" lon="0.54117">
        <ele>574</ele>
        <time>2018-03-18T13:08:25.000Z</time>
      </trkpt>
      <trkpt lat="43.03216" lon="0.54117">
        <ele>574</ele>
        <time>2018-03-18T13:08:27.000Z</time>
      </trkpt>
      <trkpt lat="43.03215" lon="0.54117">
        <ele>574</ele>
        <time>2018-03-18T13:08:29.000Z</time>
      </trkpt>
      <trkpt lat="43.03214" lon="0.54118">
        <ele>573</ele>
        <time>2018-03-18T13:08:31.000Z</time>
      </trkpt>
      <trkpt lat="43.03212" lon="0.5412">
        <ele>573</ele>
        <time>2018-03-18T13:08:33.000Z</time>
      </trkpt>
      <trkpt lat="43.03211" lon="0.5412">
        <ele>572</ele>
        <time>2018-03-18T13:08:35.000Z</time>
      </trkpt>
      <trkpt lat="43.0321" lon="0.54121">
        <ele>572</ele>
        <time>2018-03-18T13:08:37.000Z</time>
      </trkpt>
      <trkpt lat="43.0321" lon="0.54123">
        <ele>571</ele>
        <time>2018-03-18T13:08:39.000Z</time>
      </trkpt>
      <trkpt lat="43.03211" lon="0.54123">
        <ele>571</ele>
        <time>2018-03-18T13:08:41.000Z</time>
      </trkpt>
      <trkpt lat="43.03211" lon="0.54124">
        <ele>571</ele>
        <time>2018-03-18T13:08:43.000Z</time>
      </trkpt>
      <trkpt lat="43.03212" lon="0.54124">
        <ele>571</ele>
        <time>2018-03-18T13:08:45.000Z</time>
      </trkpt>
      <trkpt lat="43.03213" lon="0.54125">
        <ele>571</ele>
        <time>2018-03-18T13:08:47.000Z</time>
      </trkpt>
      <trkpt lat="43.03214" lon="0.54127">
        <ele>570</ele>
        <time>2018-03-18T13:08:49.000Z</time>
      </trkpt>
      <trkpt lat="43.03215" lon="0.54127">
        <ele>570</ele>
        <time>2018-03-18T13:08:51.000Z</time>
      </trkpt>
      <trkpt lat="43.03216" lon="0.54127">
        <ele>570</ele>
        <time>2018-03-18T13:08:53.000Z</time>
      </trkpt>
      <trkpt lat="43.03216" lon="0.54128">
        <ele>570</ele>
        <time>2018-03-18T13:08:55.000Z</time>
      </trkpt>
      <trkpt lat="43.03218" lon="0.54127">
        <ele>570</ele>
        <time>2018-03-18T13:08:57.000Z</time>
      </trkpt>
      <trkpt lat="43.03219" lon="0.54127">
        <ele>571</ele>
        <time>2018-03-18T13:08:59.000Z</time>
      </trkpt>
      <trkpt lat="43.03221" lon="0.54128">
        <ele>571</ele>
        <time>2018-03-18T13:09:01.000Z</time>
      </trkpt>
      <trkpt lat="43.03222" lon="0.54128">
        <ele>571</ele>
        <time>2018-03-18T13:09:03.000Z</time>
      </trkpt>
      <trkpt lat="43.03223" lon="0.54129">
        <ele>571</ele>
        <time>2018-03-18T13:09:05.000Z</time>
      </trkpt>
      <trkpt lat="43.03224" lon="0.54129">
        <ele>570</ele>
        <time>2018-03-18T13:09:07.000Z</time>
      </trkpt>
      <trkpt lat="43.03225" lon="0.54131">
        <ele>570</ele>
        <time>2018-03-18T13:09:09.000Z</time>
      </trkpt>
      <trkpt lat="43.03226" lon="0.54132">
        <ele>570</ele>
        <time>2018-03-18T13:09:11.000Z</time>
      </trkpt>
      <trkpt lat="43.03227" lon="0.54135">
        <ele>569</ele>
        <time>2018-03-18T13:09:13.000Z</time>
      </trkpt>
      <trkpt lat="43.03229" lon="0.54136">
        <ele>569</ele>
        <time>2018-03-18T13:09:15.000Z</time>
      </trkpt>
      <trkpt lat="43.0323" lon="0.54138">
        <ele>568</ele>
        <time>2018-03-18T13:09:17.000Z</time>
      </trkpt>
      <trkpt lat="43.03231" lon="0.5414">
        <ele>568</ele>
        <time>2018-03-18T13:09:19.000Z</time>
      </trkpt>
      <trkpt lat="43.03232" lon="0.54141">
        <ele>567</ele>
        <time>2018-03-18T13:09:21.000Z</time>
      </trkpt>
      <trkpt lat="43.03232" lon="0.54141">
        <ele>567</ele>
        <time>2018-03-18T13:09:23.000Z</time>
      </trkpt>
      <trkpt lat="43.03233" lon="0.54144">
        <ele>567</ele>
        <time>2018-03-18T13:09:25.000Z</time>
      </trkpt>
      <trkpt lat="43.03234" lon="0.54145">
        <ele>566</ele>
        <time>2018-03-18T13:09:27.000Z</time>
      </trkpt>
      <trkpt lat="43.03235" lon="0.54146">
        <ele>566</ele>
        <time>2018-03-18T13:09:29.000Z</time>
      </trkpt>
      <trkpt lat="43.03235" lon="0.54148">
        <ele>566</ele>
        <time>2018-03-18T13:09:31.000Z</time>
      </trkpt>
      <trkpt lat="43.03236" lon="0.54148">
        <ele>566</ele>
        <time>2018-03-18T13:09:33.000Z</time>
      </trkpt>
      <trkpt lat="43.03236" lon="0.54148">
        <ele>566</ele>
        <time>2018-03-18T13:09:35.000Z</time>
      </trkpt>
      <trkpt lat="43.03236" lon="0.54148">
        <ele>566</ele>
        <time>2018-03-18T13:09:37.000Z</time>
      </trkpt>
      <trkpt lat="43.03236" lon="0.54147">
        <ele>566</ele>
        <time>2018-03-18T13:09:39.000Z</time>
      </trkpt>
      <trkpt lat="43.03236" lon="0.54148">
        <ele>566</ele>
        <time>2018-03-18T13:09:41.000Z</time>
      </trkpt>
      <trkpt lat="43.03235" lon="0.54147">
        <ele>566</ele>
        <time>2018-03-18T13:09:43.000Z</time>
      </trkpt>
      <trkpt lat="43.03235" lon="0.54147">
        <ele>566</ele>
        <time>2018-03-18T13:09:45.000Z</time>
      </trkpt>
      <trkpt lat="43.03234" lon="0.54147">
        <ele>566</ele>
        <time>2018-03-18T13:09:47.000Z</time>
      </trkpt>
      <trkpt lat="43.03234" lon="0.54148">
        <ele>566</ele>
        <time>2018-03-18T13:09:49.000Z</time>
      </trkpt>
      <trkpt lat="43.03235" lon="0.54149">
        <ele>565</ele>
        <time>2018-03-18T13:09:51.000Z</time>
      </trkpt>
      <trkpt lat="43.03237" lon="0.54149">
        <ele>566</ele>
        <time>2018-03-18T13:09:53.000Z</time>
      </trkpt>
      <trkpt lat="43.03238" lon="0.54151">
        <ele>565</ele>
        <time>2018-03-18T13:09:55.000Z</time>
      </trkpt>
      <trkpt lat="43.0324" lon="0.54152">
        <ele>565</ele>
        <time>2018-03-18T13:09:57.000Z</time>
      </trkpt>
      <trkpt lat="43.03241" lon="0.54154">
        <ele>565</ele>
        <time>2018-03-18T13:09:59.000Z</time>
      </trkpt>
      <trkpt lat="43.03243" lon="0.54154">
        <ele>565</ele>
        <time>2018-03-18T13:10:01.000Z</time>
      </trkpt>
      <trkpt lat="43.03244" lon="0.54156">
        <ele>564</ele>
        <time>2018-03-18T13:10:03.000Z</time>
      </trkpt>
      <trkpt lat="43.03246" lon="0.54158">
        <ele>564</ele>
        <time>2018-03-18T13:10:05.000Z</time>
      </trkpt>
      <trkpt lat="43.03248" lon="0.5416">
        <ele>563</ele>
        <time>2018-03-18T13:10:07.000Z</time>
      </trkpt>
      <trkpt lat="43.0325" lon="0.54162">
        <ele>563</ele>
        <time>2018-03-18T13:10:09.000Z</time>
      </trkpt>
      <trkpt lat="43.03252" lon="0.54164">
        <ele>563</ele>
        <time>2018-03-18T13:10:11.000Z</time>
      </trkpt>
      <trkpt lat="43.03254" lon="0.54165">
        <ele>562</ele>
        <time>2018-03-18T13:10:13.000Z</time>
      </trkpt>
      <trkpt lat="43.03255" lon="0.54166">
        <ele>562</ele>
        <time>2018-03-18T13:10:15.000Z</time>
      </trkpt>
      <trkpt lat="43.03257" lon="0.54168">
        <ele>562</ele>
        <time>2018-03-18T13:10:17.000Z</time>
      </trkpt>
      <trkpt lat="43.03258" lon="0.54172">
        <ele>561</ele>
        <time>2018-03-18T13:10:19.000Z</time>
      </trkpt>
      <trkpt lat="43.0326" lon="0.54174">
        <ele>561</ele>
        <time>2018-03-18T13:10:21.000Z</time>
      </trkpt>
      <trkpt lat="43.03261" lon="0.54176">
        <ele>560</ele>
        <time>2018-03-18T13:10:23.000Z</time>
      </trkpt>
      <trkpt lat="43.03262" lon="0.54179">
        <ele>560</ele>
        <time>2018-03-18T13:10:25.000Z</time>
      </trkpt>
      <trkpt lat="43.03263" lon="0.5418">
        <ele>560</ele>
        <time>2018-03-18T13:10:27.000Z</time>
      </trkpt>
      <trkpt lat="43.03264" lon="0.54182">
        <ele>559</ele>
        <time>2018-03-18T13:10:29.000Z</time>
      </trkpt>
      <trkpt lat="43.03266" lon="0.54184">
        <ele>559</ele>
        <time>2018-03-18T13:10:31.000Z</time>
      </trkpt>
      <trkpt lat="43.03266" lon="0.54187">
        <ele>559</ele>
        <time>2018-03-18T13:10:33.000Z</time>
      </trkpt>
      <trkpt lat="43.03268" lon="0.54188">
        <ele>558</ele>
        <time>2018-03-18T13:10:35.000Z</time>
      </trkpt>
      <trkpt lat="43.03268" lon="0.5419">
        <ele>558</ele>
        <time>2018-03-18T13:10:37.000Z</time>
      </trkpt>
      <trkpt lat="43.03269" lon="0.54192">
        <ele>558</ele>
        <time>2018-03-18T13:10:39.000Z</time>
      </trkpt>
      <trkpt lat="43.0327" lon="0.54194">
        <ele>557</ele>
        <time>2018-03-18T13:10:41.000Z</time>
      </trkpt>
      <trkpt lat="43.03272" lon="0.54197">
        <ele>557</ele>
        <time>2018-03-18T13:10:43.000Z</time>
      </trkpt>
      <trkpt lat="43.03273" lon="0.54199">
        <ele>557</ele>
        <time>2018-03-18T13:10:45.000Z</time>
      </trkpt>
      <trkpt lat="43.03275" lon="0.54201">
        <ele>556</ele>
        <time>2018-03-18T13:10:47.000Z</time>
      </trkpt>
      <trkpt lat="43.03276" lon="0.54202">
        <ele>556</ele>
        <time>2018-03-18T13:10:49.000Z</time>
      </trkpt>
      <trkpt lat="43.03277" lon="0.54204">
        <ele>556</ele>
        <time>2018-03-18T13:10:51.000Z</time>
      </trkpt>
      <trkpt lat="43.03278" lon="0.54206">
        <ele>556</ele>
        <time>2018-03-18T13:10:53.000Z</time>
      </trkpt>
      <trkpt lat="43.03279" lon="0.54208">
        <ele>555</ele>
        <time>2018-03-18T13:10:55.000Z</time>
      </trkpt>
      <trkpt lat="43.0328" lon="0.5421">
        <ele>555</ele>
        <time>2018-03-18T13:10:57.000Z</time>
      </trkpt>
      <trkpt lat="43.03282" lon="0.54213">
        <ele>554</ele>
        <time>2018-03-18T13:10:59.000Z</time>
      </trkpt>
      <trkpt lat="43.03282" lon="0.54215">
        <ele>554</ele>
        <time>2018-03-18T13:11:01.000Z</time>
      </trkpt>
      <trkpt lat="43.03283" lon="0.54218">
        <ele>553</ele>
        <time>2018-03-18T13:11:03.000Z</time>
      </trkpt>
      <trkpt lat="43.03284" lon="0.5422">
        <ele>553</ele>
        <time>2018-03-18T13:11:05.000Z</time>
      </trkpt>
      <trkpt lat="43.03285" lon="0.54223">
        <ele>553</ele>
        <time>2018-03-18T13:11:07.000Z</time>
      </trkpt>
      <trkpt lat="43.03285" lon="0.54225">
        <ele>553</ele>
        <time>2018-03-18T13:11:09.000Z</time>
      </trkpt>
      <trkpt lat="43.03286" lon="0.54227">
        <ele>552</ele>
        <time>2018-03-18T13:11:11.000Z</time>
      </trkpt>
      <trkpt lat="43.03286" lon="0.54228">
        <ele>552</ele>
        <time>2018-03-18T13:11:13.000Z</time>
      </trkpt>
      <trkpt lat="43.03288" lon="0.5423">
        <ele>552</ele>
        <time>2018-03-18T13:11:15.000Z</time>
      </trkpt>
      <trkpt lat="43.03289" lon="0.54232">
        <ele>552</ele>
        <time>2018-03-18T13:11:17.000Z</time>
      </trkpt>
      <trkpt lat="43.0329" lon="0.54236">
        <ele>552</ele>
        <time>2018-03-18T13:11:19.000Z</time>
      </trkpt>
      <trkpt lat="43.03291" lon="0.54238">
        <ele>552</ele>
        <time>2018-03-18T13:11:21.000Z</time>
      </trkpt>
      <trkpt lat="43.03292" lon="0.5424">
        <ele>551</ele>
        <time>2018-03-18T13:11:23.000Z</time>
      </trkpt>
      <trkpt lat="43.03292" lon="0.54243">
        <ele>551</ele>
        <time>2018-03-18T13:11:25.000Z</time>
      </trkpt>
      <trkpt lat="43.03292" lon="0.54246">
        <ele>551</ele>
        <time>2018-03-18T13:11:27.000Z</time>
      </trkpt>
      <trkpt lat="43.03293" lon="0.54248">
        <ele>550</ele>
        <time>2018-03-18T13:11:29.000Z</time>
      </trkpt>
      <trkpt lat="43.03294" lon="0.5425">
        <ele>550</ele>
        <time>2018-03-18T13:11:31.000Z</time>
      </trkpt>
      <trkpt lat="43.03295" lon="0.54252">
        <ele>550</ele>
        <time>2018-03-18T13:11:33.000Z</time>
      </trkpt>
      <trkpt lat="43.03295" lon="0.54255">
        <ele>549</ele>
        <time>2018-03-18T13:11:35.000Z</time>
      </trkpt>
      <trkpt lat="43.03296" lon="0.54258">
        <ele>549</ele>
        <time>2018-03-18T13:11:37.000Z</time>
      </trkpt>
      <trkpt lat="43.03297" lon="0.54259">
        <ele>549</ele>
        <time>2018-03-18T13:11:39.000Z</time>
      </trkpt>
      <trkpt lat="43.03298" lon="0.54262">
        <ele>549</ele>
        <time>2018-03-18T13:11:41.000Z</time>
      </trkpt>
      <trkpt lat="43.03298" lon="0.54264">
        <ele>549</ele>
        <time>2018-03-18T13:11:43.000Z</time>
      </trkpt>
      <trkpt lat="43.03299" lon="0.54265">
        <ele>549</ele>
        <time>2018-03-18T13:11:45.000Z</time>
      </trkpt>
      <trkpt lat="43.033" lon="0.54266">
        <ele>549</ele>
        <time>2018-03-18T13:11:47.000Z</time>
      </trkpt>
      <trkpt lat="43.03302" lon="0.54268">
        <ele>549</ele>
        <time>2018-03-18T13:11:49.000Z</time>
      </trkpt>
      <trkpt lat="43.03303" lon="0.5427">
        <ele>549</ele>
        <time>2018-03-18T13:11:51.000Z</time>
      </trkpt>
      <trkpt lat="43.03305" lon="0.54272">
        <ele>549</ele>
        <time>2018-03-18T13:11:53.000Z</time>
      </trkpt>
      <trkpt lat="43.03306" lon="0.54274">
        <ele>549</ele>
        <time>2018-03-18T13:11:55.000Z</time>
      </trkpt>
      <trkpt lat="43.03306" lon="0.54277">
        <ele>548</ele>
        <time>2018-03-18T13:11:57.000Z</time>
      </trkpt>
      <trkpt lat="43.03307" lon="0.54278">
        <ele>548</ele>
        <time>2018-03-18T13:11:59.000Z</time>
      </trkpt>
      <trkpt lat="43.03308" lon="0.5428">
        <ele>548</ele>
        <time>2018-03-18T13:12:01.000Z</time>
      </trkpt>
      <trkpt lat="43.03309" lon="0.54282">
        <ele>548</ele>
        <time>2018-03-18T13:12:03.000Z</time>
      </trkpt>
      <trkpt lat="43.0331" lon="0.54284">
        <ele>548</ele>
        <time>2018-03-18T13:12:05.000Z</time>
      </trkpt>
      <trkpt lat="43.03311" lon="0.54288">
        <ele>548</ele>
        <time>2018-03-18T13:12:07.000Z</time>
      </trkpt>
      <trkpt lat="43.03311" lon="0.5429">
        <ele>547</ele>
        <time>2018-03-18T13:12:09.000Z</time>
      </trkpt>
      <trkpt lat="43.03311" lon="0.54293">
        <ele>547</ele>
        <time>2018-03-18T13:12:11.000Z</time>
      </trkpt>
      <trkpt lat="43.03311" lon="0.54296">
        <ele>546</ele>
        <time>2018-03-18T13:12:13.000Z</time>
      </trkpt>
      <trkpt lat="43.03312" lon="0.54299">
        <ele>546</ele>
        <time>2018-03-18T13:12:15.000Z</time>
      </trkpt>
      <trkpt lat="43.03313" lon="0.54301">
        <ele>546</ele>
        <time>2018-03-18T13:12:17.000Z</time>
      </trkpt>
      <trkpt lat="43.03314" lon="0.54304">
        <ele>546</ele>
        <time>2018-03-18T13:12:19.000Z</time>
      </trkpt>
      <trkpt lat="43.03315" lon="0.54306">
        <ele>546</ele>
        <time>2018-03-18T13:12:21.000Z</time>
      </trkpt>
      <trkpt lat="43.03316" lon="0.54309">
        <ele>546</ele>
        <time>2018-03-18T13:12:23.000Z</time>
      </trkpt>
      <trkpt lat="43.03316" lon="0.54311">
        <ele>546</ele>
        <time>2018-03-18T13:12:25.000Z</time>
      </trkpt>
      <trkpt lat="43.03317" lon="0.54313">
        <ele>545</ele>
        <time>2018-03-18T13:12:27.000Z</time>
      </trkpt>
      <trkpt lat="43.03317" lon="0.54316">
        <ele>545</ele>
        <time>2018-03-18T13:12:29.000Z</time>
      </trkpt>
      <trkpt lat="43.03318" lon="0.54317">
        <ele>545</ele>
        <time>2018-03-18T13:12:31.000Z</time>
      </trkpt>
      <trkpt lat="43.03318" lon="0.5432">
        <ele>545</ele>
        <time>2018-03-18T13:12:33.000Z</time>
      </trkpt>
      <trkpt lat="43.03318" lon="0.54322">
        <ele>545</ele>
        <time>2018-03-18T13:12:35.000Z</time>
      </trkpt>
      <trkpt lat="43.03318" lon="0.54325">
        <ele>545</ele>
        <time>2018-03-18T13:12:37.000Z</time>
      </trkpt>
      <trkpt lat="43.03319" lon="0.54327">
        <ele>544</ele>
        <time>2018-03-18T13:12:39.000Z</time>
      </trkpt>
      <trkpt lat="43.03319" lon="0.5433">
        <ele>544</ele>
        <time>2018-03-18T13:12:41.000Z</time>
      </trkpt>
      <trkpt lat="43.03319" lon="0.54334">
        <ele>544</ele>
        <time>2018-03-18T13:12:43.000Z</time>
      </trkpt>
      <trkpt lat="43.03319" lon="0.54338">
        <ele>543</ele>
        <time>2018-03-18T13:12:45.000Z</time>
      </trkpt>
      <trkpt lat="43.03319" lon="0.5434">
        <ele>543</ele>
        <time>2018-03-18T13:12:47.000Z</time>
      </trkpt>
      <trkpt lat="43.03319" lon="0.54343">
        <ele>543</ele>
        <time>2018-03-18T13:12:49.000Z</time>
      </trkpt>
      <trkpt lat="43.0332" lon="0.54346">
        <ele>542</ele>
        <time>2018-03-18T13:12:51.000Z</time>
      </trkpt>
      <trkpt lat="43.03321" lon="0.54349">
        <ele>542</ele>
        <time>2018-03-18T13:12:53.000Z</time>
      </trkpt>
      <trkpt lat="43.03321" lon="0.54352">
        <ele>542</ele>
        <time>2018-03-18T13:12:55.000Z</time>
      </trkpt>
      <trkpt lat="43.03322" lon="0.54354">
        <ele>542</ele>
        <time>2018-03-18T13:12:57.000Z</time>
      </trkpt>
      <trkpt lat="43.03323" lon="0.54357">
        <ele>542</ele>
        <time>2018-03-18T13:12:59.000Z</time>
      </trkpt>
      <trkpt lat="43.03324" lon="0.54359">
        <ele>542</ele>
        <time>2018-03-18T13:13:01.000Z</time>
      </trkpt>
      <trkpt lat="43.03324" lon="0.54361">
        <ele>542</ele>
        <time>2018-03-18T13:13:03.000Z</time>
      </trkpt>
      <trkpt lat="43.03325" lon="0.54363">
        <ele>542</ele>
        <time>2018-03-18T13:13:05.000Z</time>
      </trkpt>
      <trkpt lat="43.03326" lon="0.54366">
        <ele>542</ele>
        <time>2018-03-18T13:13:07.000Z</time>
      </trkpt>
      <trkpt lat="43.03327" lon="0.54367">
        <ele>542</ele>
        <time>2018-03-18T13:13:09.000Z</time>
      </trkpt>
      <trkpt lat="43.03327" lon="0.5437">
        <ele>541</ele>
        <time>2018-03-18T13:13:11.000Z</time>
      </trkpt>
      <trkpt lat="43.03328" lon="0.54373">
        <ele>541</ele>
        <time>2018-03-18T13:13:13.000Z</time>
      </trkpt>
      <trkpt lat="43.03328" lon="0.54376">
        <ele>541</ele>
        <time>2018-03-18T13:13:15.000Z</time>
      </trkpt>
      <trkpt lat="43.03329" lon="0.54378">
        <ele>541</ele>
        <time>2018-03-18T13:13:17.000Z</time>
      </trkpt>
      <trkpt lat="43.0333" lon="0.54381">
        <ele>541</ele>
        <time>2018-03-18T13:13:19.000Z</time>
      </trkpt>
      <trkpt lat="43.0333" lon="0.54383">
        <ele>540</ele>
        <time>2018-03-18T13:13:21.000Z</time>
      </trkpt>
      <trkpt lat="43.0333" lon="0.54386">
        <ele>540</ele>
        <time>2018-03-18T13:13:23.000Z</time>
      </trkpt>
      <trkpt lat="43.03331" lon="0.54389">
        <ele>540</ele>
        <time>2018-03-18T13:13:25.000Z</time>
      </trkpt>
      <trkpt lat="43.03331" lon="0.54391">
        <ele>540</ele>
        <time>2018-03-18T13:13:27.000Z</time>
      </trkpt>
      <trkpt lat="43.03332" lon="0.54393">
        <ele>540</ele>
        <time>2018-03-18T13:13:29.000Z</time>
      </trkpt>
      <trkpt lat="43.03333" lon="0.54396">
        <ele>540</ele>
        <time>2018-03-18T13:13:31.000Z</time>
      </trkpt>
      <trkpt lat="43.03334" lon="0.54398">
        <ele>540</ele>
        <time>2018-03-18T13:13:33.000Z</time>
      </trkpt>
      <trkpt lat="43.03335" lon="0.544">
        <ele>540</ele>
        <time>2018-03-18T13:13:35.000Z</time>
      </trkpt>
      <trkpt lat="43.03336" lon="0.54402">
        <ele>540</ele>
        <time>2018-03-18T13:13:37.000Z</time>
      </trkpt>
      <trkpt lat="43.03338" lon="0.54404">
        <ele>540</ele>
        <time>2018-03-18T13:13:39.000Z</time>
      </trkpt>
      <trkpt lat="43.03339" lon="0.54404">
        <ele>540</ele>
        <time>2018-03-18T13:13:41.000Z</time>
      </trkpt>
      <trkpt lat="43.0334" lon="0.54405">
        <ele>541</ele>
        <time>2018-03-18T13:13:43.000Z</time>
      </trkpt>
      <trkpt lat="43.03341" lon="0.54406">
        <ele>541</ele>
        <time>2018-03-18T13:13:45.000Z</time>
      </trkpt>
      <trkpt lat="43.03343" lon="0.54407">
        <ele>541</ele>
        <time>2018-03-18T13:13:47.000Z</time>
      </trkpt>
      <trkpt lat="43.03344" lon="0.54409">
        <ele>540</ele>
        <time>2018-03-18T13:13:49.000Z</time>
      </trkpt>
      <trkpt lat="43.03344" lon="0.5441">
        <ele>540</ele>
        <time>2018-03-18T13:13:51.000Z</time>
      </trkpt>
      <trkpt lat="43.03346" lon="0.54409">
        <ele>540</ele>
        <time>2018-03-18T13:13:53.000Z</time>
      </trkpt>
      <trkpt lat="43.03347" lon="0.54408">
        <ele>540</ele>
        <time>2018-03-18T13:13:55.000Z</time>
      </trkpt>
      <trkpt lat="43.03349" lon="0.54407">
        <ele>540</ele>
        <time>2018-03-18T13:13:57.000Z</time>
      </trkpt>
      <trkpt lat="43.03351" lon="0.54407">
        <ele>540</ele>
        <time>2018-03-18T13:13:59.000Z</time>
      </trkpt>
      <trkpt lat="43.03352" lon="0.54406">
        <ele>540</ele>
        <time>2018-03-18T13:14:01.000Z</time>
      </trkpt>
      <trkpt lat="43.03354" lon="0.54406">
        <ele>540</ele>
        <time>2018-03-18T13:14:03.000Z</time>
      </trkpt>
      <trkpt lat="43.03355" lon="0.54407">
        <ele>540</ele>
        <time>2018-03-18T13:14:05.000Z</time>
      </trkpt>
      <trkpt lat="43.03357" lon="0.54409">
        <ele>539</ele>
        <time>2018-03-18T13:14:07.000Z</time>
      </trkpt>
      <trkpt lat="43.03358" lon="0.5441">
        <ele>539</ele>
        <time>2018-03-18T13:14:09.000Z</time>
      </trkpt>
      <trkpt lat="43.03359" lon="0.54412">
        <ele>539</ele>
        <time>2018-03-18T13:14:11.000Z</time>
      </trkpt>
      <trkpt lat="43.0336" lon="0.54415">
        <ele>538</ele>
        <time>2018-03-18T13:14:13.000Z</time>
      </trkpt>
      <trkpt lat="43.03361" lon="0.54417">
        <ele>538</ele>
        <time>2018-03-18T13:14:15.000Z</time>
      </trkpt>
      <trkpt lat="43.03362" lon="0.54418">
        <ele>538</ele>
        <time>2018-03-18T13:14:17.000Z</time>
      </trkpt>
      <trkpt lat="43.03364" lon="0.54421">
        <ele>537</ele>
        <time>2018-03-18T13:14:19.000Z</time>
      </trkpt>
      <trkpt lat="43.03366" lon="0.54423">
        <ele>537</ele>
        <time>2018-03-18T13:14:22.000Z</time>
      </trkpt>
      <trkpt lat="43.03368" lon="0.54425">
        <ele>537</ele>
        <time>2018-03-18T13:14:24.000Z</time>
      </trkpt>
      <trkpt lat="43.0337" lon="0.54427">
        <ele>536</ele>
        <time>2018-03-18T13:14:26.000Z</time>
      </trkpt>
      <trkpt lat="43.0337" lon="0.54429">
        <ele>536</ele>
        <time>2018-03-18T13:14:28.000Z</time>
      </trkpt>
      <trkpt lat="43.03371" lon="0.54433">
        <ele>536</ele>
        <time>2018-03-18T13:14:30.000Z</time>
      </trkpt>
      <trkpt lat="43.03371" lon="0.54435">
        <ele>535</ele>
        <time>2018-03-18T13:14:32.000Z</time>
      </trkpt>
      <trkpt lat="43.03373" lon="0.54436">
        <ele>535</ele>
        <time>2018-03-18T13:14:34.000Z</time>
      </trkpt>
      <trkpt lat="43.03374" lon="0.54437">
        <ele>535</ele>
        <time>2018-03-18T13:14:36.000Z</time>
      </trkpt>
      <trkpt lat="43.03375" lon="0.54439">
        <ele>535</ele>
        <time>2018-03-18T13:14:38.000Z</time>
      </trkpt>
      <trkpt lat="43.03375" lon="0.5444">
        <ele>534</ele>
        <time>2018-03-18T13:14:40.000Z</time>
      </trkpt>
      <trkpt lat="43.03375" lon="0.54443">
        <ele>534</ele>
        <time>2018-03-18T13:14:42.000Z</time>
      </trkpt>
      <trkpt lat="43.03376" lon="0.54445">
        <ele>534</ele>
        <time>2018-03-18T13:14:44.000Z</time>
      </trkpt>
      <trkpt lat="43.03376" lon="0.54447">
        <ele>534</ele>
        <time>2018-03-18T13:14:46.000Z</time>
      </trkpt>
      <trkpt lat="43.03377" lon="0.54449">
        <ele>533</ele>
        <time>2018-03-18T13:14:48.000Z</time>
      </trkpt>
      <trkpt lat="43.03376" lon="0.54452">
        <ele>533</ele>
        <time>2018-03-18T13:14:50.000Z</time>
      </trkpt>
      <trkpt lat="43.03376" lon="0.54455">
        <ele>533</ele>
        <time>2018-03-18T13:14:52.000Z</time>
      </trkpt>
      <trkpt lat="43.03376" lon="0.54458">
        <ele>533</ele>
        <time>2018-03-18T13:14:54.000Z</time>
      </trkpt>
      <trkpt lat="43.03376" lon="0.54461">
        <ele>532</ele>
        <time>2018-03-18T13:14:56.000Z</time>
      </trkpt>
      <trkpt lat="43.03377" lon="0.54464">
        <ele>532</ele>
        <time>2018-03-18T13:14:58.000Z</time>
      </trkpt>
      <trkpt lat="43.03378" lon="0.54466">
        <ele>532</ele>
        <time>2018-03-18T13:15:00.000Z</time>
      </trkpt>
      <trkpt lat="43.03377" lon="0.54468">
        <ele>531</ele>
        <time>2018-03-18T13:15:02.000Z</time>
      </trkpt>
      <trkpt lat="43.03377" lon="0.54471">
        <ele>531</ele>
        <time>2018-03-18T13:15:04.000Z</time>
      </trkpt>
      <trkpt lat="43.03378" lon="0.54473">
        <ele>530</ele>
        <time>2018-03-18T13:15:06.000Z</time>
      </trkpt>
      <trkpt lat="43.03378" lon="0.54475">
        <ele>530</ele>
        <time>2018-03-18T13:15:08.000Z</time>
      </trkpt>
      <trkpt lat="43.03378" lon="0.54477">
        <ele>529</ele>
        <time>2018-03-18T13:15:10.000Z</time>
      </trkpt>
      <trkpt lat="43.03378" lon="0.54479">
        <ele>529</ele>
        <time>2018-03-18T13:15:12.000Z</time>
      </trkpt>
      <trkpt lat="43.03378" lon="0.54482">
        <ele>528</ele>
        <time>2018-03-18T13:15:14.000Z</time>
      </trkpt>
      <trkpt lat="43.03378" lon="0.54484">
        <ele>527</ele>
        <time>2018-03-18T13:15:16.000Z</time>
      </trkpt>
      <trkpt lat="43.03378" lon="0.54487">
        <ele>527</ele>
        <time>2018-03-18T13:15:18.000Z</time>
      </trkpt>
      <trkpt lat="43.03378" lon="0.5449">
        <ele>526</ele>
        <time>2018-03-18T13:15:20.000Z</time>
      </trkpt>
      <trkpt lat="43.03378" lon="0.54492">
        <ele>525</ele>
        <time>2018-03-18T13:15:22.000Z</time>
      </trkpt>
      <trkpt lat="43.03378" lon="0.54495">
        <ele>525</ele>
        <time>2018-03-18T13:15:24.000Z</time>
      </trkpt>
      <trkpt lat="43.03378" lon="0.54497">
        <ele>524</ele>
        <time>2018-03-18T13:15:26.000Z</time>
      </trkpt>
      <trkpt lat="43.03377" lon="0.54499">
        <ele>524</ele>
        <time>2018-03-18T13:15:28.000Z</time>
      </trkpt>
      <trkpt lat="43.03376" lon="0.54502">
        <ele>523</ele>
        <time>2018-03-18T13:15:30.000Z</time>
      </trkpt>
      <trkpt lat="43.03376" lon="0.54504">
        <ele>523</ele>
        <time>2018-03-18T13:15:32.000Z</time>
      </trkpt>
      <trkpt lat="43.03375" lon="0.54505">
        <ele>522</ele>
        <time>2018-03-18T13:15:34.000Z</time>
      </trkpt>
      <trkpt lat="43.03374" lon="0.54508">
        <ele>521</ele>
        <time>2018-03-18T13:15:36.000Z</time>
      </trkpt>
      <trkpt lat="43.03373" lon="0.5451">
        <ele>521</ele>
        <time>2018-03-18T13:15:38.000Z</time>
      </trkpt>
      <trkpt lat="43.03372" lon="0.54511">
        <ele>521</ele>
        <time>2018-03-18T13:15:40.000Z</time>
      </trkpt>
      <trkpt lat="43.03371" lon="0.54514">
        <ele>520</ele>
        <time>2018-03-18T13:15:42.000Z</time>
      </trkpt>
      <trkpt lat="43.0337" lon="0.54516">
        <ele>519</ele>
        <time>2018-03-18T13:15:44.000Z</time>
      </trkpt>
      <trkpt lat="43.03368" lon="0.54518">
        <ele>519</ele>
        <time>2018-03-18T13:15:46.000Z</time>
      </trkpt>
      <trkpt lat="43.03368" lon="0.5452">
        <ele>518</ele>
        <time>2018-03-18T13:15:48.000Z</time>
      </trkpt>
      <trkpt lat="43.03366" lon="0.54522">
        <ele>518</ele>
        <time>2018-03-18T13:15:50.000Z</time>
      </trkpt>
      <trkpt lat="43.03364" lon="0.54525">
        <ele>517</ele>
        <time>2018-03-18T13:15:52.000Z</time>
      </trkpt>
      <trkpt lat="43.03362" lon="0.54527">
        <ele>517</ele>
        <time>2018-03-18T13:15:54.000Z</time>
      </trkpt>
      <trkpt lat="43.0336" lon="0.54529">
        <ele>516</ele>
        <time>2018-03-18T13:15:56.000Z</time>
      </trkpt>
      <trkpt lat="43.03357" lon="0.54532">
        <ele>516</ele>
        <time>2018-03-18T13:15:58.000Z</time>
      </trkpt>
      <trkpt lat="43.03355" lon="0.54533">
        <ele>515</ele>
        <time>2018-03-18T13:16:00.000Z</time>
      </trkpt>
      <trkpt lat="43.03353" lon="0.54533">
        <ele>515</ele>
        <time>2018-03-18T13:16:02.000Z</time>
      </trkpt>
      <trkpt lat="43.0335" lon="0.54534">
        <ele>515</ele>
        <time>2018-03-18T13:16:04.000Z</time>
      </trkpt>
      <trkpt lat="43.03348" lon="0.54534">
        <ele>515</ele>
        <time>2018-03-18T13:16:06.000Z</time>
      </trkpt>
      <trkpt lat="43.03346" lon="0.54534">
        <ele>516</ele>
        <time>2018-03-18T13:16:08.000Z</time>
      </trkpt>
      <trkpt lat="43.03343" lon="0.54535">
        <ele>515</ele>
        <time>2018-03-18T13:16:10.000Z</time>
      </trkpt>
      <trkpt lat="43.03341" lon="0.54536">
        <ele>515</ele>
        <time>2018-03-18T13:16:12.000Z</time>
      </trkpt>
      <trkpt lat="43.03339" lon="0.54537">
        <ele>514</ele>
        <time>2018-03-18T13:16:14.000Z</time>
      </trkpt>
      <trkpt lat="43.03337" lon="0.54537">
        <ele>514</ele>
        <time>2018-03-18T13:16:16.000Z</time>
      </trkpt>
      <trkpt lat="43.03335" lon="0.54537">
        <ele>513</ele>
        <time>2018-03-18T13:16:18.000Z</time>
      </trkpt>
      <trkpt lat="43.03333" lon="0.54537">
        <ele>513</ele>
        <time>2018-03-18T13:16:20.000Z</time>
      </trkpt>
      <trkpt lat="43.03332" lon="0.54537">
        <ele>513</ele>
        <time>2018-03-18T13:16:22.000Z</time>
      </trkpt>
      <trkpt lat="43.03331" lon="0.54537">
        <ele>512</ele>
        <time>2018-03-18T13:16:24.000Z</time>
      </trkpt>
      <trkpt lat="43.0333" lon="0.54538">
        <ele>512</ele>
        <time>2018-03-18T13:16:26.000Z</time>
      </trkpt>
      <trkpt lat="43.0333" lon="0.54539">
        <ele>512</ele>
        <time>2018-03-18T13:16:28.000Z</time>
      </trkpt>
      <trkpt lat="43.03331" lon="0.54539">
        <ele>512</ele>
        <time>2018-03-18T13:16:30.000Z</time>
      </trkpt>
      <trkpt lat="43.03332" lon="0.5454">
        <ele>512</ele>
        <time>2018-03-18T13:16:32.000Z</time>
      </trkpt>
      <trkpt lat="43.03333" lon="0.54539">
        <ele>512</ele>
        <time>2018-03-18T13:16:34.000Z</time>
      </trkpt>
      <trkpt lat="43.03336" lon="0.54539">
        <ele>513</ele>
        <time>2018-03-18T13:16:36.000Z</time>
      </trkpt>
      <trkpt lat="43.03337" lon="0.54539">
        <ele>513</ele>
        <time>2018-03-18T13:16:38.000Z</time>
      </trkpt>
      <trkpt lat="43.03338" lon="0.54538">
        <ele>514</ele>
        <time>2018-03-18T13:16:40.000Z</time>
      </trkpt>
      <trkpt lat="43.0334" lon="0.54538">
        <ele>514</ele>
        <time>2018-03-18T13:16:42.000Z</time>
      </trkpt>
      <trkpt lat="43.03342" lon="0.54538">
        <ele>515</ele>
        <time>2018-03-18T13:16:44.000Z</time>
      </trkpt>
      <trkpt lat="43.03344" lon="0.54539">
        <ele>514</ele>
        <time>2018-03-18T13:16:46.000Z</time>
      </trkpt>
      <trkpt lat="43.03346" lon="0.54539">
        <ele>514</ele>
        <time>2018-03-18T13:16:48.000Z</time>
      </trkpt>
      <trkpt lat="43.03347" lon="0.54539">
        <ele>514</ele>
        <time>2018-03-18T13:16:50.000Z</time>
      </trkpt>
      <trkpt lat="43.03348" lon="0.5454">
        <ele>514</ele>
        <time>2018-03-18T13:16:52.000Z</time>
      </trkpt>
      <trkpt lat="43.0335" lon="0.54541">
        <ele>513</ele>
        <time>2018-03-18T13:16:54.000Z</time>
      </trkpt>
      <trkpt lat="43.03351" lon="0.54541">
        <ele>513</ele>
        <time>2018-03-18T13:16:56.000Z</time>
      </trkpt>
      <trkpt lat="43.03353" lon="0.54541">
        <ele>513</ele>
        <time>2018-03-18T13:16:58.000Z</time>
      </trkpt>
      <trkpt lat="43.03354" lon="0.54541">
        <ele>513</ele>
        <time>2018-03-18T13:17:00.000Z</time>
      </trkpt>
      <trkpt lat="43.03356" lon="0.54541">
        <ele>513</ele>
        <time>2018-03-18T13:17:02.000Z</time>
      </trkpt>
      <trkpt lat="43.03357" lon="0.54541">
        <ele>513</ele>
        <time>2018-03-18T13:17:04.000Z</time>
      </trkpt>
      <trkpt lat="43.03358" lon="0.5454">
        <ele>513</ele>
        <time>2018-03-18T13:17:06.000Z</time>
      </trkpt>
      <trkpt lat="43.0336" lon="0.5454">
        <ele>513</ele>
        <time>2018-03-18T13:17:08.000Z</time>
      </trkpt>
      <trkpt lat="43.03362" lon="0.5454">
        <ele>513</ele>
        <time>2018-03-18T13:17:10.000Z</time>
      </trkpt>
      <trkpt lat="43.03363" lon="0.54539">
        <ele>513</ele>
        <time>2018-03-18T13:17:12.000Z</time>
      </trkpt>
      <trkpt lat="43.03365" lon="0.5454">
        <ele>513</ele>
        <time>2018-03-18T13:17:14.000Z</time>
      </trkpt>
      <trkpt lat="43.03367" lon="0.54539">
        <ele>513</ele>
        <time>2018-03-18T13:17:16.000Z</time>
      </trkpt>
      <trkpt lat="43.03369" lon="0.54539">
        <ele>513</ele>
        <time>2018-03-18T13:17:18.000Z</time>
      </trkpt>
      <trkpt lat="43.0337" lon="0.54538">
        <ele>513</ele>
        <time>2018-03-18T13:17:20.000Z</time>
      </trkpt>
      <trkpt lat="43.03371" lon="0.54537">
        <ele>513</ele>
        <time>2018-03-18T13:17:22.000Z</time>
      </trkpt>
      <trkpt lat="43.03373" lon="0.54536">
        <ele>513</ele>
        <time>2018-03-18T13:17:24.000Z</time>
      </trkpt>
      <trkpt lat="43.03374" lon="0.54536">
        <ele>513</ele>
        <time>2018-03-18T13:17:26.000Z</time>
      </trkpt>
      <trkpt lat="43.03375" lon="0.54536">
        <ele>513</ele>
        <time>2018-03-18T13:17:28.000Z</time>
      </trkpt>
      <trkpt lat="43.03377" lon="0.54536">
        <ele>513</ele>
        <time>2018-03-18T13:17:30.000Z</time>
      </trkpt>
      <trkpt lat="43.03378" lon="0.54536">
        <ele>513</ele>
        <time>2018-03-18T13:17:32.000Z</time>
      </trkpt>
      <trkpt lat="43.0338" lon="0.54535">
        <ele>513</ele>
        <time>2018-03-18T13:17:34.000Z</time>
      </trkpt>
      <trkpt lat="43.03381" lon="0.54534">
        <ele>514</ele>
        <time>2018-03-18T13:17:36.000Z</time>
      </trkpt>
      <trkpt lat="43.03383" lon="0.54533">
        <ele>514</ele>
        <time>2018-03-18T13:17:38.000Z</time>
      </trkpt>
      <trkpt lat="43.03385" lon="0.54533">
        <ele>514</ele>
        <time>2018-03-18T13:17:40.000Z</time>
      </trkpt>
      <trkpt lat="43.03386" lon="0.54533">
        <ele>514</ele>
        <time>2018-03-18T13:17:42.000Z</time>
      </trkpt>
      <trkpt lat="43.03388" lon="0.54532">
        <ele>514</ele>
        <time>2018-03-18T13:17:44.000Z</time>
      </trkpt>
      <trkpt lat="43.03389" lon="0.54533">
        <ele>513</ele>
        <time>2018-03-18T13:17:46.000Z</time>
      </trkpt>
      <trkpt lat="43.0339" lon="0.54533">
        <ele>513</ele>
        <time>2018-03-18T13:17:48.000Z</time>
      </trkpt>
      <trkpt lat="43.03391" lon="0.54533">
        <ele>513</ele>
        <time>2018-03-18T13:17:50.000Z</time>
      </trkpt>
      <trkpt lat="43.03393" lon="0.54533">
        <ele>513</ele>
        <time>2018-03-18T13:17:52.000Z</time>
      </trkpt>
      <trkpt lat="43.03394" lon="0.54533">
        <ele>513</ele>
        <time>2018-03-18T13:17:54.000Z</time>
      </trkpt>
      <trkpt lat="43.03396" lon="0.54532">
        <ele>513</ele>
        <time>2018-03-18T13:17:56.000Z</time>
      </trkpt>
      <trkpt lat="43.03397" lon="0.54532">
        <ele>513</ele>
        <time>2018-03-18T13:17:58.000Z</time>
      </trkpt>
      <trkpt lat="43.03399" lon="0.54532">
        <ele>513</ele>
        <time>2018-03-18T13:18:00.000Z</time>
      </trkpt>
      <trkpt lat="43.034" lon="0.54533">
        <ele>513</ele>
        <time>2018-03-18T13:18:02.000Z</time>
      </trkpt>
      <trkpt lat="43.03401" lon="0.54534">
        <ele>512</ele>
        <time>2018-03-18T13:18:04.000Z</time>
      </trkpt>
      <trkpt lat="43.03402" lon="0.54537">
        <ele>511</ele>
        <time>2018-03-18T13:18:06.000Z</time>
      </trkpt>
      <trkpt lat="43.03404" lon="0.54541">
        <ele>510</ele>
        <time>2018-03-18T13:18:08.000Z</time>
      </trkpt>
      <trkpt lat="43.03406" lon="0.54544">
        <ele>509</ele>
        <time>2018-03-18T13:18:10.000Z</time>
      </trkpt>
      <trkpt lat="43.03407" lon="0.54547">
        <ele>508</ele>
        <time>2018-03-18T13:18:12.000Z</time>
      </trkpt>
      <trkpt lat="43.03407" lon="0.5455">
        <ele>507</ele>
        <time>2018-03-18T13:18:14.000Z</time>
      </trkpt>
      <trkpt lat="43.03407" lon="0.54552">
        <ele>507</ele>
        <time>2018-03-18T13:18:16.000Z</time>
      </trkpt>
      <trkpt lat="43.03406" lon="0.54555">
        <ele>507</ele>
        <time>2018-03-18T13:18:18.000Z</time>
      </trkpt>
      <trkpt lat="43.03406" lon="0.54557">
        <ele>506</ele>
        <time>2018-03-18T13:18:20.000Z</time>
      </trkpt>
      <trkpt lat="43.03404" lon="0.5456">
        <ele>506</ele>
        <time>2018-03-18T13:18:22.000Z</time>
      </trkpt>
      <trkpt lat="43.03403" lon="0.54562">
        <ele>506</ele>
        <time>2018-03-18T13:18:24.000Z</time>
      </trkpt>
      <trkpt lat="43.03403" lon="0.54564">
        <ele>506</ele>
        <time>2018-03-18T13:18:26.000Z</time>
      </trkpt>
      <trkpt lat="43.03402" lon="0.54566">
        <ele>506</ele>
        <time>2018-03-18T13:18:28.000Z</time>
      </trkpt>
      <trkpt lat="43.03402" lon="0.54567">
        <ele>505</ele>
        <time>2018-03-18T13:18:30.000Z</time>
      </trkpt>
      <trkpt lat="43.03401" lon="0.54569">
        <ele>505</ele>
        <time>2018-03-18T13:18:32.000Z</time>
      </trkpt>
      <trkpt lat="43.034" lon="0.54571">
        <ele>505</ele>
        <time>2018-03-18T13:18:34.000Z</time>
      </trkpt>
      <trkpt lat="43.034" lon="0.54573">
        <ele>505</ele>
        <time>2018-03-18T13:18:36.000Z</time>
      </trkpt>
      <trkpt lat="43.03399" lon="0.54575">
        <ele>505</ele>
        <time>2018-03-18T13:18:38.000Z</time>
      </trkpt>
      <trkpt lat="43.03398" lon="0.54577">
        <ele>505</ele>
        <time>2018-03-18T13:18:40.000Z</time>
      </trkpt>
      <trkpt lat="43.03397" lon="0.54579">
        <ele>504</ele>
        <time>2018-03-18T13:18:42.000Z</time>
      </trkpt>
      <trkpt lat="43.03396" lon="0.5458">
        <ele>504</ele>
        <time>2018-03-18T13:18:44.000Z</time>
      </trkpt>
      <trkpt lat="43.03394" lon="0.54582">
        <ele>504</ele>
        <time>2018-03-18T13:18:46.000Z</time>
      </trkpt>
      <trkpt lat="43.03393" lon="0.54583">
        <ele>504</ele>
        <time>2018-03-18T13:18:48.000Z</time>
      </trkpt>
      <trkpt lat="43.03392" lon="0.54585">
        <ele>504</ele>
        <time>2018-03-18T13:18:50.000Z</time>
      </trkpt>
      <trkpt lat="43.03391" lon="0.54586">
        <ele>504</ele>
        <time>2018-03-18T13:18:52.000Z</time>
      </trkpt>
      <trkpt lat="43.03389" lon="0.54588">
        <ele>504</ele>
        <time>2018-03-18T13:18:54.000Z</time>
      </trkpt>
      <trkpt lat="43.03387" lon="0.54589">
        <ele>504</ele>
        <time>2018-03-18T13:18:56.000Z</time>
      </trkpt>
      <trkpt lat="43.03385" lon="0.5459">
        <ele>504</ele>
        <time>2018-03-18T13:18:58.000Z</time>
      </trkpt>
      <trkpt lat="43.03382" lon="0.54591">
        <ele>504</ele>
        <time>2018-03-18T13:19:00.000Z</time>
      </trkpt>
      <trkpt lat="43.0338" lon="0.54591">
        <ele>504</ele>
        <time>2018-03-18T13:19:02.000Z</time>
      </trkpt>
      <trkpt lat="43.03379" lon="0.54591">
        <ele>504</ele>
        <time>2018-03-18T13:19:04.000Z</time>
      </trkpt>
      <trkpt lat="43.03378" lon="0.54592">
        <ele>504</ele>
        <time>2018-03-18T13:19:06.000Z</time>
      </trkpt>
      <trkpt lat="43.03377" lon="0.54594">
        <ele>504</ele>
        <time>2018-03-18T13:19:08.000Z</time>
      </trkpt>
      <trkpt lat="43.03377" lon="0.54595">
        <ele>503</ele>
        <time>2018-03-18T13:19:10.000Z</time>
      </trkpt>
      <trkpt lat="43.03377" lon="0.54597">
        <ele>503</ele>
        <time>2018-03-18T13:19:12.000Z</time>
      </trkpt>
      <trkpt lat="43.03375" lon="0.54599">
        <ele>503</ele>
        <time>2018-03-18T13:19:14.000Z</time>
      </trkpt>
      <trkpt lat="43.03374" lon="0.546">
        <ele>503</ele>
        <time>2018-03-18T13:19:16.000Z</time>
      </trkpt>
      <trkpt lat="43.03374" lon="0.54602">
        <ele>502</ele>
        <time>2018-03-18T13:19:18.000Z</time>
      </trkpt>
      <trkpt lat="43.03374" lon="0.54604">
        <ele>502</ele>
        <time>2018-03-18T13:19:20.000Z</time>
      </trkpt>
      <trkpt lat="43.03373" lon="0.54607">
        <ele>502</ele>
        <time>2018-03-18T13:19:22.000Z</time>
      </trkpt>
      <trkpt lat="43.03373" lon="0.54609">
        <ele>501</ele>
        <time>2018-03-18T13:19:24.000Z</time>
      </trkpt>
      <trkpt lat="43.03373" lon="0.54611">
        <ele>501</ele>
        <time>2018-03-18T13:19:26.000Z</time>
      </trkpt>
      <trkpt lat="43.03373" lon="0.54612">
        <ele>501</ele>
        <time>2018-03-18T13:19:28.000Z</time>
      </trkpt>
      <trkpt lat="43.03372" lon="0.54615">
        <ele>501</ele>
        <time>2018-03-18T13:19:30.000Z</time>
      </trkpt>
      <trkpt lat="43.03371" lon="0.54617">
        <ele>500</ele>
        <time>2018-03-18T13:19:32.000Z</time>
      </trkpt>
      <trkpt lat="43.0337" lon="0.54619">
        <ele>500</ele>
        <time>2018-03-18T13:19:34.000Z</time>
      </trkpt>
      <trkpt lat="43.0337" lon="0.5462">
        <ele>500</ele>
        <time>2018-03-18T13:19:36.000Z</time>
      </trkpt>
      <trkpt lat="43.03368" lon="0.54622">
        <ele>500</ele>
        <time>2018-03-18T13:19:38.000Z</time>
      </trkpt>
      <trkpt lat="43.03366" lon="0.54622">
        <ele>500</ele>
        <time>2018-03-18T13:19:40.000Z</time>
      </trkpt>
      <trkpt lat="43.03365" lon="0.54622">
        <ele>500</ele>
        <time>2018-03-18T13:19:42.000Z</time>
      </trkpt>
      <trkpt lat="43.03364" lon="0.54622">
        <ele>500</ele>
        <time>2018-03-18T13:19:44.000Z</time>
      </trkpt>
      <trkpt lat="43.03364" lon="0.54622">
        <ele>500</ele>
        <time>2018-03-18T13:19:46.000Z</time>
      </trkpt>
      <trkpt lat="43.03364" lon="0.54623">
        <ele>500</ele>
        <time>2018-03-18T13:19:48.000Z</time>
      </trkpt>
      <trkpt lat="43.03363" lon="0.54624">
        <ele>500</ele>
        <time>2018-03-18T13:19:50.000Z</time>
      </trkpt>
      <trkpt lat="43.03362" lon="0.54625">
        <ele>500</ele>
        <time>2018-03-18T13:19:52.000Z</time>
      </trkpt>
      <trkpt lat="43.03362" lon="0.54627">
        <ele>499</ele>
        <time>2018-03-18T13:19:54.000Z</time>
      </trkpt>
      <trkpt lat="43.03362" lon="0.54628">
        <ele>499</ele>
        <time>2018-03-18T13:19:56.000Z</time>
      </trkpt>
      <trkpt lat="43.03361" lon="0.5463">
        <ele>499</ele>
        <time>2018-03-18T13:19:58.000Z</time>
      </trkpt>
      <trkpt lat="43.03361" lon="0.54632">
        <ele>499</ele>
        <time>2018-03-18T13:20:00.000Z</time>
      </trkpt>
      <trkpt lat="43.03362" lon="0.54634">
        <ele>498</ele>
        <time>2018-03-18T13:20:02.000Z</time>
      </trkpt>
      <trkpt lat="43.03362" lon="0.54635">
        <ele>498</ele>
        <time>2018-03-18T13:20:04.000Z</time>
      </trkpt>
      <trkpt lat="43.03362" lon="0.54637">
        <ele>498</ele>
        <time>2018-03-18T13:20:06.000Z</time>
      </trkpt>
      <trkpt lat="43.03363" lon="0.5464">
        <ele>499</ele>
        <time>2018-03-18T13:20:08.000Z</time>
      </trkpt>
      <trkpt lat="43.03363" lon="0.54642">
        <ele>499</ele>
        <time>2018-03-18T13:20:10.000Z</time>
      </trkpt>
      <trkpt lat="43.03363" lon="0.54644">
        <ele>499</ele>
        <time>2018-03-18T13:20:12.000Z</time>
      </trkpt>
      <trkpt lat="43.03363" lon="0.54646">
        <ele>499</ele>
        <time>2018-03-18T13:20:14.000Z</time>
      </trkpt>
      <trkpt lat="43.03363" lon="0.54648">
        <ele>499</ele>
        <time>2018-03-18T13:20:16.000Z</time>
      </trkpt>
      <trkpt lat="43.03363" lon="0.5465">
        <ele>499</ele>
        <time>2018-03-18T13:20:18.000Z</time>
      </trkpt>
      <trkpt lat="43.03363" lon="0.54652">
        <ele>500</ele>
        <time>2018-03-18T13:20:20.000Z</time>
      </trkpt>
      <trkpt lat="43.03364" lon="0.54655">
        <ele>500</ele>
        <time>2018-03-18T13:20:22.000Z</time>
      </trkpt>
      <trkpt lat="43.03364" lon="0.54657">
        <ele>500</ele>
        <time>2018-03-18T13:20:24.000Z</time>
      </trkpt>
      <trkpt lat="43.03364" lon="0.5466">
        <ele>500</ele>
        <time>2018-03-18T13:20:26.000Z</time>
      </trkpt>
      <trkpt lat="43.03364" lon="0.54662">
        <ele>500</ele>
        <time>2018-03-18T13:20:28.000Z</time>
      </trkpt>
      <trkpt lat="43.03365" lon="0.54665">
        <ele>500</ele>
        <time>2018-03-18T13:20:30.000Z</time>
      </trkpt>
      <trkpt lat="43.03365" lon="0.54667">
        <ele>500</ele>
        <time>2018-03-18T13:20:32.000Z</time>
      </trkpt>
      <trkpt lat="43.03365" lon="0.54667">
        <ele>500</ele>
        <time>2018-03-18T13:20:34.000Z</time>
      </trkpt>
      <trkpt lat="43.03365" lon="0.54669">
        <ele>500</ele>
        <time>2018-03-18T13:20:36.000Z</time>
      </trkpt>
      <trkpt lat="43.03366" lon="0.5467">
        <ele>500</ele>
        <time>2018-03-18T13:20:38.000Z</time>
      </trkpt>
      <trkpt lat="43.03366" lon="0.54672">
        <ele>500</ele>
        <time>2018-03-18T13:20:40.000Z</time>
      </trkpt>
      <trkpt lat="43.03367" lon="0.54674">
        <ele>500</ele>
        <time>2018-03-18T13:20:42.000Z</time>
      </trkpt>
      <trkpt lat="43.03368" lon="0.54676">
        <ele>500</ele>
        <time>2018-03-18T13:20:44.000Z</time>
      </trkpt>
      <trkpt lat="43.03368" lon="0.54679">
        <ele>500</ele>
        <time>2018-03-18T13:20:46.000Z</time>
      </trkpt>
      <trkpt lat="43.03369" lon="0.54681">
        <ele>500</ele>
        <time>2018-03-18T13:20:48.000Z</time>
      </trkpt>
      <trkpt lat="43.0337" lon="0.54683">
        <ele>501</ele>
        <time>2018-03-18T13:20:50.000Z</time>
      </trkpt>
      <trkpt lat="43.03371" lon="0.54686">
        <ele>501</ele>
        <time>2018-03-18T13:20:52.000Z</time>
      </trkpt>
      <trkpt lat="43.03372" lon="0.54688">
        <ele>501</ele>
        <time>2018-03-18T13:20:54.000Z</time>
      </trkpt>
      <trkpt lat="43.03372" lon="0.54689">
        <ele>501</ele>
        <time>2018-03-18T13:20:56.000Z</time>
      </trkpt>
      <trkpt lat="43.03372" lon="0.54691">
        <ele>501</ele>
        <time>2018-03-18T13:20:58.000Z</time>
      </trkpt>
      <trkpt lat="43.03372" lon="0.54693">
        <ele>501</ele>
        <time>2018-03-18T13:21:00.000Z</time>
      </trkpt>
      <trkpt lat="43.03373" lon="0.54695">
        <ele>501</ele>
        <time>2018-03-18T13:21:02.000Z</time>
      </trkpt>
      <trkpt lat="43.03372" lon="0.54697">
        <ele>501</ele>
        <time>2018-03-18T13:21:04.000Z</time>
      </trkpt>
      <trkpt lat="43.03372" lon="0.54699">
        <ele>501</ele>
        <time>2018-03-18T13:21:06.000Z</time>
      </trkpt>
      <trkpt lat="43.03372" lon="0.54701">
        <ele>501</ele>
        <time>2018-03-18T13:21:08.000Z</time>
      </trkpt>
      <trkpt lat="43.03373" lon="0.54703">
        <ele>501</ele>
        <time>2018-03-18T13:21:10.000Z</time>
      </trkpt>
      <trkpt lat="43.03373" lon="0.54704">
        <ele>501</ele>
        <time>2018-03-18T13:21:12.000Z</time>
      </trkpt>
      <trkpt lat="43.03373" lon="0.54704">
        <ele>501</ele>
        <time>2018-03-18T13:21:14.000Z</time>
      </trkpt>
      <trkpt lat="43.03372" lon="0.54703">
        <ele>501</ele>
        <time>2018-03-18T13:21:16.000Z</time>
      </trkpt>
      <trkpt lat="43.03371" lon="0.54702">
        <ele>501</ele>
        <time>2018-03-18T13:21:18.000Z</time>
      </trkpt>
      <trkpt lat="43.0337" lon="0.54701">
        <ele>501</ele>
        <time>2018-03-18T13:21:20.000Z</time>
      </trkpt>
      <trkpt lat="43.0337" lon="0.547">
        <ele>501</ele>
        <time>2018-03-18T13:21:22.000Z</time>
      </trkpt>
      <trkpt lat="43.03369" lon="0.547">
        <ele>501</ele>
        <time>2018-03-18T13:21:24.000Z</time>
      </trkpt>
      <trkpt lat="43.03368" lon="0.54699">
        <ele>501</ele>
        <time>2018-03-18T13:21:26.000Z</time>
      </trkpt>
      <trkpt lat="43.03368" lon="0.54699">
        <ele>501</ele>
        <time>2018-03-18T13:21:28.000Z</time>
      </trkpt>
      <trkpt lat="43.03368" lon="0.54699">
        <ele>501</ele>
        <time>2018-03-18T13:21:30.000Z</time>
      </trkpt>
      <trkpt lat="43.03367" lon="0.54699">
        <ele>501</ele>
        <time>2018-03-18T13:21:32.000Z</time>
      </trkpt>
      <trkpt lat="43.03367" lon="0.54699">
        <ele>501</ele>
        <time>2018-03-18T13:21:34.000Z</time>
      </trkpt>
      <trkpt lat="43.03366" lon="0.54698">
        <ele>501</ele>
        <time>2018-03-18T13:21:36.000Z</time>
      </trkpt>
      <trkpt lat="43.03366" lon="0.54697">
        <ele>501</ele>
        <time>2018-03-18T13:21:38.000Z</time>
      </trkpt>
      <trkpt lat="43.03365" lon="0.54697">
        <ele>501</ele>
        <time>2018-03-18T13:21:40.000Z</time>
      </trkpt>
      <trkpt lat="43.03365" lon="0.54697">
        <ele>501</ele>
        <time>2018-03-18T13:21:42.000Z</time>
      </trkpt>
      <trkpt lat="43.03364" lon="0.54697">
        <ele>501</ele>
        <time>2018-03-18T13:21:44.000Z</time>
      </trkpt>
      <trkpt lat="43.03364" lon="0.54697">
        <ele>501</ele>
        <time>2018-03-18T13:21:46.000Z</time>
      </trkpt>
      <trkpt lat="43.03364" lon="0.54697">
        <ele>501</ele>
        <time>2018-03-18T13:21:48.000Z</time>
      </trkpt>
      <trkpt lat="43.03364" lon="0.54697">
        <ele>501</ele>
        <time>2018-03-18T13:21:50.000Z</time>
      </trkpt>
      <trkpt lat="43.03364" lon="0.54697">
        <ele>501</ele>
        <time>2018-03-18T13:21:52.000Z</time>
      </trkpt>
      <trkpt lat="43.03364" lon="0.54696">
        <ele>501</ele>
        <time>2018-03-18T13:21:54.000Z</time>
      </trkpt>
      <trkpt lat="43.03365" lon="0.54696">
        <ele>501</ele>
        <time>2018-03-18T13:21:56.000Z</time>
      </trkpt>
      <trkpt lat="43.03365" lon="0.54697">
        <ele>501</ele>
        <time>2018-03-18T13:21:58.000Z</time>
      </trkpt>
      <trkpt lat="43.03365" lon="0.54697">
        <ele>501</ele>
        <time>2018-03-18T13:22:00.000Z</time>
      </trkpt>
      <trkpt lat="43.03366" lon="0.54697">
        <ele>501</ele>
        <time>2018-03-18T13:22:02.000Z</time>
      </trkpt>
      <trkpt lat="43.03367" lon="0.54698">
        <ele>501</ele>
        <time>2018-03-18T13:22:04.000Z</time>
      </trkpt>
      <trkpt lat="43.03368" lon="0.54698">
        <ele>501</ele>
        <time>2018-03-18T13:22:06.000Z</time>
      </trkpt>
      <trkpt lat="43.0337" lon="0.54698">
        <ele>501</ele>
        <time>2018-03-18T13:22:08.000Z</time>
      </trkpt>
      <trkpt lat="43.03372" lon="0.54698">
        <ele>501</ele>
        <time>2018-03-18T13:22:10.000Z</time>
      </trkpt>
      <trkpt lat="43.03374" lon="0.54698">
        <ele>501</ele>
        <time>2018-03-18T13:22:12.000Z</time>
      </trkpt>
      <trkpt lat="43.03376" lon="0.54698">
        <ele>501</ele>
        <time>2018-03-18T13:22:14.000Z</time>
      </trkpt>
      <trkpt lat="43.03378" lon="0.54698">
        <ele>501</ele>
        <time>2018-03-18T13:22:16.000Z</time>
      </trkpt>
      <trkpt lat="43.0338" lon="0.54698">
        <ele>501</ele>
        <time>2018-03-18T13:22:18.000Z</time>
      </trkpt>
      <trkpt lat="43.03382" lon="0.54698">
        <ele>501</ele>
        <time>2018-03-18T13:22:20.000Z</time>
      </trkpt>
      <trkpt lat="43.03384" lon="0.54699">
        <ele>501</ele>
        <time>2018-03-18T13:22:22.000Z</time>
      </trkpt>
      <trkpt lat="43.03386" lon="0.54699">
        <ele>501</ele>
        <time>2018-03-18T13:22:24.000Z</time>
      </trkpt>
      <trkpt lat="43.03389" lon="0.547">
        <ele>501</ele>
        <time>2018-03-18T13:22:26.000Z</time>
      </trkpt>
      <trkpt lat="43.0339" lon="0.547">
        <ele>501</ele>
        <time>2018-03-18T13:22:28.000Z</time>
      </trkpt>
      <trkpt lat="43.03392" lon="0.547">
        <ele>501</ele>
        <time>2018-03-18T13:22:30.000Z</time>
      </trkpt>
      <trkpt lat="43.03394" lon="0.54701">
        <ele>501</ele>
        <time>2018-03-18T13:22:32.000Z</time>
      </trkpt>
      <trkpt lat="43.03396" lon="0.54701">
        <ele>501</ele>
        <time>2018-03-18T13:22:34.000Z</time>
      </trkpt>
      <trkpt lat="43.03398" lon="0.54701">
        <ele>501</ele>
        <time>2018-03-18T13:22:36.000Z</time>
      </trkpt>
      <trkpt lat="43.034" lon="0.54703">
        <ele>501</ele>
        <time>2018-03-18T13:22:38.000Z</time>
      </trkpt>
      <trkpt lat="43.03402" lon="0.54704">
        <ele>501</ele>
        <time>2018-03-18T13:22:40.000Z</time>
      </trkpt>
      <trkpt lat="43.03405" lon="0.54704">
        <ele>501</ele>
        <time>2018-03-18T13:22:42.000Z</time>
      </trkpt>
      <trkpt lat="43.03407" lon="0.54704">
        <ele>501</ele>
        <time>2018-03-18T13:22:44.000Z</time>
      </trkpt>
      <trkpt lat="43.03409" lon="0.54704">
        <ele>501</ele>
        <time>2018-03-18T13:22:46.000Z</time>
      </trkpt>
      <trkpt lat="43.03411" lon="0.54704">
        <ele>501</ele>
        <time>2018-03-18T13:22:48.000Z</time>
      </trkpt>
      <trkpt lat="43.03413" lon="0.54704">
        <ele>501</ele>
        <time>2018-03-18T13:22:50.000Z</time>
      </trkpt>
      <trkpt lat="43.03415" lon="0.54704">
        <ele>501</ele>
        <time>2018-03-18T13:22:52.000Z</time>
      </trkpt>
      <trkpt lat="43.03417" lon="0.54705">
        <ele>501</ele>
        <time>2018-03-18T13:22:54.000Z</time>
      </trkpt>
      <trkpt lat="43.0342" lon="0.54705">
        <ele>501</ele>
        <time>2018-03-18T13:22:56.000Z</time>
      </trkpt>
      <trkpt lat="43.03422" lon="0.54706">
        <ele>501</ele>
        <time>2018-03-18T13:22:58.000Z</time>
      </trkpt>
      <trkpt lat="43.03424" lon="0.54707">
        <ele>501</ele>
        <time>2018-03-18T13:23:00.000Z</time>
      </trkpt>
      <trkpt lat="43.03426" lon="0.54706">
        <ele>501</ele>
        <time>2018-03-18T13:23:02.000Z</time>
      </trkpt>
      <trkpt lat="43.03428" lon="0.54707">
        <ele>501</ele>
        <time>2018-03-18T13:23:04.000Z</time>
      </trkpt>
      <trkpt lat="43.0343" lon="0.54709">
        <ele>501</ele>
        <time>2018-03-18T13:23:06.000Z</time>
      </trkpt>
      <trkpt lat="43.03433" lon="0.54709">
        <ele>501</ele>
        <time>2018-03-18T13:23:08.000Z</time>
      </trkpt>
      <trkpt lat="43.03435" lon="0.5471">
        <ele>501</ele>
        <time>2018-03-18T13:23:10.000Z</time>
      </trkpt>
      <trkpt lat="43.03437" lon="0.5471">
        <ele>501</ele>
        <time>2018-03-18T13:23:12.000Z</time>
      </trkpt>
      <trkpt lat="43.03439" lon="0.5471">
        <ele>501</ele>
        <time>2018-03-18T13:23:14.000Z</time>
      </trkpt>
      <trkpt lat="43.03441" lon="0.5471">
        <ele>501</ele>
        <time>2018-03-18T13:23:16.000Z</time>
      </trkpt>
      <trkpt lat="43.03443" lon="0.5471">
        <ele>501</ele>
        <time>2018-03-18T13:23:18.000Z</time>
      </trkpt>
      <trkpt lat="43.03445" lon="0.5471">
        <ele>501</ele>
        <time>2018-03-18T13:23:20.000Z</time>
      </trkpt>
      <trkpt lat="43.03448" lon="0.5471">
        <ele>501</ele>
        <time>2018-03-18T13:23:22.000Z</time>
      </trkpt>
      <trkpt lat="43.0345" lon="0.5471">
        <ele>501</ele>
        <time>2018-03-18T13:23:24.000Z</time>
      </trkpt>
      <trkpt lat="43.03452" lon="0.5471">
        <ele>501</ele>
        <time>2018-03-18T13:23:26.000Z</time>
      </trkpt>
      <trkpt lat="43.03454" lon="0.5471">
        <ele>501</ele>
        <time>2018-03-18T13:23:28.000Z</time>
      </trkpt>
      <trkpt lat="43.03457" lon="0.54711">
        <ele>501</ele>
        <time>2018-03-18T13:23:30.000Z</time>
      </trkpt>
      <trkpt lat="43.03459" lon="0.54712">
        <ele>501</ele>
        <time>2018-03-18T13:23:32.000Z</time>
      </trkpt>
      <trkpt lat="43.03461" lon="0.54713">
        <ele>501</ele>
        <time>2018-03-18T13:23:34.000Z</time>
      </trkpt>
      <trkpt lat="43.03463" lon="0.54715">
        <ele>501</ele>
        <time>2018-03-18T13:23:36.000Z</time>
      </trkpt>
      <trkpt lat="43.03464" lon="0.54716">
        <ele>501</ele>
        <time>2018-03-18T13:23:38.000Z</time>
      </trkpt>
      <trkpt lat="43.03465" lon="0.54718">
        <ele>502</ele>
        <time>2018-03-18T13:23:40.000Z</time>
      </trkpt>
      <trkpt lat="43.03467" lon="0.5472">
        <ele>502</ele>
        <time>2018-03-18T13:23:42.000Z</time>
      </trkpt>
      <trkpt lat="43.03467" lon="0.54722">
        <ele>502</ele>
        <time>2018-03-18T13:23:44.000Z</time>
      </trkpt>
      <trkpt lat="43.03468" lon="0.54723">
        <ele>502</ele>
        <time>2018-03-18T13:23:46.000Z</time>
      </trkpt>
      <trkpt lat="43.03468" lon="0.54725">
        <ele>502</ele>
        <time>2018-03-18T13:23:48.000Z</time>
      </trkpt>
      <trkpt lat="43.03469" lon="0.54726">
        <ele>502</ele>
        <time>2018-03-18T13:23:50.000Z</time>
      </trkpt>
      <trkpt lat="43.03469" lon="0.54728">
        <ele>502</ele>
        <time>2018-03-18T13:23:52.000Z</time>
      </trkpt>
      <trkpt lat="43.0347" lon="0.5473">
        <ele>503</ele>
        <time>2018-03-18T13:23:54.000Z</time>
      </trkpt>
      <trkpt lat="43.0347" lon="0.54732">
        <ele>503</ele>
        <time>2018-03-18T13:23:56.000Z</time>
      </trkpt>
      <trkpt lat="43.03471" lon="0.54735">
        <ele>503</ele>
        <time>2018-03-18T13:23:58.000Z</time>
      </trkpt>
      <trkpt lat="43.03472" lon="0.54737">
        <ele>503</ele>
        <time>2018-03-18T13:24:00.000Z</time>
      </trkpt>
      <trkpt lat="43.03473" lon="0.54739">
        <ele>503</ele>
        <time>2018-03-18T13:24:02.000Z</time>
      </trkpt>
      <trkpt lat="43.03473" lon="0.54741">
        <ele>503</ele>
        <time>2018-03-18T13:24:04.000Z</time>
      </trkpt>
      <trkpt lat="43.03474" lon="0.54742">
        <ele>503</ele>
        <time>2018-03-18T13:24:06.000Z</time>
      </trkpt>
      <trkpt lat="43.03474" lon="0.54744">
        <ele>504</ele>
        <time>2018-03-18T13:24:08.000Z</time>
      </trkpt>
      <trkpt lat="43.03474" lon="0.54746">
        <ele>504</ele>
        <time>2018-03-18T13:24:10.000Z</time>
      </trkpt>
      <trkpt lat="43.03473" lon="0.54748">
        <ele>504</ele>
        <time>2018-03-18T13:24:12.000Z</time>
      </trkpt>
      <trkpt lat="43.03472" lon="0.5475">
        <ele>504</ele>
        <time>2018-03-18T13:24:14.000Z</time>
      </trkpt>
      <trkpt lat="43.0347" lon="0.54752">
        <ele>504</ele>
        <time>2018-03-18T13:24:16.000Z</time>
      </trkpt>
      <trkpt lat="43.03469" lon="0.54754">
        <ele>505</ele>
        <time>2018-03-18T13:24:18.000Z</time>
      </trkpt>
      <trkpt lat="43.03467" lon="0.54755">
        <ele>505</ele>
        <time>2018-03-18T13:24:20.000Z</time>
      </trkpt>
      <trkpt lat="43.03465" lon="0.54756">
        <ele>505</ele>
        <time>2018-03-18T13:24:22.000Z</time>
      </trkpt>
      <trkpt lat="43.03463" lon="0.54757">
        <ele>505</ele>
        <time>2018-03-18T13:24:24.000Z</time>
      </trkpt>
      <trkpt lat="43.03461" lon="0.54758">
        <ele>505</ele>
        <time>2018-03-18T13:24:26.000Z</time>
      </trkpt>
      <trkpt lat="43.0346" lon="0.54758">
        <ele>505</ele>
        <time>2018-03-18T13:24:28.000Z</time>
      </trkpt>
      <trkpt lat="43.03458" lon="0.54759">
        <ele>505</ele>
        <time>2018-03-18T13:24:30.000Z</time>
      </trkpt>
      <trkpt lat="43.03456" lon="0.54759">
        <ele>506</ele>
        <time>2018-03-18T13:24:32.000Z</time>
      </trkpt>
      <trkpt lat="43.03455" lon="0.54759">
        <ele>506</ele>
        <time>2018-03-18T13:24:34.000Z</time>
      </trkpt>
      <trkpt lat="43.03453" lon="0.5476">
        <ele>506</ele>
        <time>2018-03-18T13:24:36.000Z</time>
      </trkpt>
      <trkpt lat="43.03452" lon="0.5476">
        <ele>506</ele>
        <time>2018-03-18T13:24:38.000Z</time>
      </trkpt>
      <trkpt lat="43.0345" lon="0.5476">
        <ele>506</ele>
        <time>2018-03-18T13:24:40.000Z</time>
      </trkpt>
      <trkpt lat="43.03449" lon="0.54761">
        <ele>506</ele>
        <time>2018-03-18T13:24:42.000Z</time>
      </trkpt>
      <trkpt lat="43.03447" lon="0.54761">
        <ele>506</ele>
        <time>2018-03-18T13:24:44.000Z</time>
      </trkpt>
      <trkpt lat="43.03446" lon="0.54762">
        <ele>507</ele>
        <time>2018-03-18T13:24:46.000Z</time>
      </trkpt>
      <trkpt lat="43.03445" lon="0.54763">
        <ele>507</ele>
        <time>2018-03-18T13:24:48.000Z</time>
      </trkpt>
      <trkpt lat="43.03444" lon="0.54766">
        <ele>507</ele>
        <time>2018-03-18T13:24:50.000Z</time>
      </trkpt>
      <trkpt lat="43.03444" lon="0.54769">
        <ele>508</ele>
        <time>2018-03-18T13:24:52.000Z</time>
      </trkpt>
      <trkpt lat="43.03445" lon="0.54771">
        <ele>508</ele>
        <time>2018-03-18T13:24:54.000Z</time>
      </trkpt>
      <trkpt lat="43.03446" lon="0.54773">
        <ele>508</ele>
        <time>2018-03-18T13:24:56.000Z</time>
      </trkpt>
      <trkpt lat="43.03447" lon="0.54775">
        <ele>508</ele>
        <time>2018-03-18T13:24:58.000Z</time>
      </trkpt>
      <trkpt lat="43.03447" lon="0.54776">
        <ele>508</ele>
        <time>2018-03-18T13:25:00.000Z</time>
      </trkpt>
      <trkpt lat="43.03448" lon="0.54777">
        <ele>509</ele>
        <time>2018-03-18T13:25:02.000Z</time>
      </trkpt>
      <trkpt lat="43.03449" lon="0.54778">
        <ele>509</ele>
        <time>2018-03-18T13:25:04.000Z</time>
      </trkpt>
      <trkpt lat="43.0345" lon="0.54778">
        <ele>508</ele>
        <time>2018-03-18T13:25:06.000Z</time>
      </trkpt>
      <trkpt lat="43.03452" lon="0.54778">
        <ele>508</ele>
        <time>2018-03-18T13:25:08.000Z</time>
      </trkpt>
      <trkpt lat="43.03453" lon="0.54777">
        <ele>508</ele>
        <time>2018-03-18T13:25:10.000Z</time>
      </trkpt>
      <trkpt lat="43.03454" lon="0.54778">
        <ele>508</ele>
        <time>2018-03-18T13:25:12.000Z</time>
      </trkpt>
      <trkpt lat="43.03455" lon="0.54779">
        <ele>508</ele>
        <time>2018-03-18T13:25:14.000Z</time>
      </trkpt>
      <trkpt lat="43.03456" lon="0.5478">
        <ele>508</ele>
        <time>2018-03-18T13:25:16.000Z</time>
      </trkpt>
      <trkpt lat="43.03457" lon="0.54782">
        <ele>509</ele>
        <time>2018-03-18T13:25:18.000Z</time>
      </trkpt>
      <trkpt lat="43.03457" lon="0.54784">
        <ele>509</ele>
        <time>2018-03-18T13:25:20.000Z</time>
      </trkpt>
      <trkpt lat="43.03457" lon="0.54786">
        <ele>509</ele>
        <time>2018-03-18T13:25:22.000Z</time>
      </trkpt>
      <trkpt lat="43.03457" lon="0.54788">
        <ele>509</ele>
        <time>2018-03-18T13:25:24.000Z</time>
      </trkpt>
      <trkpt lat="43.03457" lon="0.5479">
        <ele>510</ele>
        <time>2018-03-18T13:25:26.000Z</time>
      </trkpt>
      <trkpt lat="43.03457" lon="0.5479">
        <ele>510</ele>
        <time>2018-03-18T13:25:28.000Z</time>
      </trkpt>
      <trkpt lat="43.03457" lon="0.54791">
        <ele>510</ele>
        <time>2018-03-18T13:25:30.000Z</time>
      </trkpt>
      <trkpt lat="43.03456" lon="0.54791">
        <ele>510</ele>
        <time>2018-03-18T13:25:32.000Z</time>
      </trkpt>
      <trkpt lat="43.03454" lon="0.54792">
        <ele>510</ele>
        <time>2018-03-18T13:25:34.000Z</time>
      </trkpt>
      <trkpt lat="43.03453" lon="0.54792">
        <ele>510</ele>
        <time>2018-03-18T13:25:36.000Z</time>
      </trkpt>
      <trkpt lat="43.03451" lon="0.54792">
        <ele>510</ele>
        <time>2018-03-18T13:25:38.000Z</time>
      </trkpt>
      <trkpt lat="43.0345" lon="0.54792">
        <ele>510</ele>
        <time>2018-03-18T13:25:40.000Z</time>
      </trkpt>
      <trkpt lat="43.03448" lon="0.54793">
        <ele>511</ele>
        <time>2018-03-18T13:25:42.000Z</time>
      </trkpt>
      <trkpt lat="43.03446" lon="0.54794">
        <ele>511</ele>
        <time>2018-03-18T13:25:44.000Z</time>
      </trkpt>
      <trkpt lat="43.03445" lon="0.54794">
        <ele>511</ele>
        <time>2018-03-18T13:25:46.000Z</time>
      </trkpt>
      <trkpt lat="43.03444" lon="0.54795">
        <ele>511</ele>
        <time>2018-03-18T13:25:48.000Z</time>
      </trkpt>
      <trkpt lat="43.03443" lon="0.54796">
        <ele>511</ele>
        <time>2018-03-18T13:25:50.000Z</time>
      </trkpt>
      <trkpt lat="43.03443" lon="0.54796">
        <ele>511</ele>
        <time>2018-03-18T13:25:52.000Z</time>
      </trkpt>
      <trkpt lat="43.03442" lon="0.54796">
        <ele>511</ele>
        <time>2018-03-18T13:25:54.000Z</time>
      </trkpt>
      <trkpt lat="43.03441" lon="0.54796">
        <ele>511</ele>
        <time>2018-03-18T13:25:56.000Z</time>
      </trkpt>
      <trkpt lat="43.03441" lon="0.54797">
        <ele>512</ele>
        <time>2018-03-18T13:25:58.000Z</time>
      </trkpt>
      <trkpt lat="43.0344" lon="0.54799">
        <ele>512</ele>
        <time>2018-03-18T13:26:00.000Z</time>
      </trkpt>
      <trkpt lat="43.03439" lon="0.548">
        <ele>512</ele>
        <time>2018-03-18T13:26:02.000Z</time>
      </trkpt>
      <trkpt lat="43.03438" lon="0.54803">
        <ele>512</ele>
        <time>2018-03-18T13:26:04.000Z</time>
      </trkpt>
      <trkpt lat="43.03437" lon="0.54805">
        <ele>512</ele>
        <time>2018-03-18T13:26:06.000Z</time>
      </trkpt>
      <trkpt lat="43.03436" lon="0.54808">
        <ele>512</ele>
        <time>2018-03-18T13:26:08.000Z</time>
      </trkpt>
      <trkpt lat="43.03435" lon="0.54811">
        <ele>512</ele>
        <time>2018-03-18T13:26:10.000Z</time>
      </trkpt>
      <trkpt lat="43.03435" lon="0.54813">
        <ele>512</ele>
        <time>2018-03-18T13:26:12.000Z</time>
      </trkpt>
      <trkpt lat="43.03434" lon="0.54815">
        <ele>512</ele>
        <time>2018-03-18T13:26:14.000Z</time>
      </trkpt>
      <trkpt lat="43.03434" lon="0.54817">
        <ele>513</ele>
        <time>2018-03-18T13:26:16.000Z</time>
      </trkpt>
      <trkpt lat="43.03433" lon="0.54819">
        <ele>513</ele>
        <time>2018-03-18T13:26:18.000Z</time>
      </trkpt>
      <trkpt lat="43.03433" lon="0.54821">
        <ele>513</ele>
        <time>2018-03-18T13:26:20.000Z</time>
      </trkpt>
      <trkpt lat="43.03432" lon="0.54822">
        <ele>513</ele>
        <time>2018-03-18T13:26:22.000Z</time>
      </trkpt>
      <trkpt lat="43.03432" lon="0.54822">
        <ele>513</ele>
        <time>2018-03-18T13:26:24.000Z</time>
      </trkpt>
      <trkpt lat="43.03432" lon="0.54822">
        <ele>513</ele>
        <time>2018-03-18T13:26:26.000Z</time>
      </trkpt>
      <trkpt lat="43.03431" lon="0.54823">
        <ele>513</ele>
        <time>2018-03-18T13:26:28.000Z</time>
      </trkpt>
      <trkpt lat="43.03431" lon="0.54823">
        <ele>513</ele>
        <time>2018-03-18T13:26:30.000Z</time>
      </trkpt>
      <trkpt lat="43.03431" lon="0.54824">
        <ele>513</ele>
        <time>2018-03-18T13:26:32.000Z</time>
      </trkpt>
      <trkpt lat="43.0343" lon="0.54824">
        <ele>513</ele>
        <time>2018-03-18T13:26:34.000Z</time>
      </trkpt>
      <trkpt lat="43.0343" lon="0.54825">
        <ele>513</ele>
        <time>2018-03-18T13:26:36.000Z</time>
      </trkpt>
      <trkpt lat="43.0343" lon="0.54826">
        <ele>513</ele>
        <time>2018-03-18T13:26:38.000Z</time>
      </trkpt>
      <trkpt lat="43.03429" lon="0.54828">
        <ele>513</ele>
        <time>2018-03-18T13:26:40.000Z</time>
      </trkpt>
      <trkpt lat="43.03429" lon="0.54829">
        <ele>513</ele>
        <time>2018-03-18T13:26:42.000Z</time>
      </trkpt>
      <trkpt lat="43.03428" lon="0.54831">
        <ele>513</ele>
        <time>2018-03-18T13:26:44.000Z</time>
      </trkpt>
      <trkpt lat="43.03428" lon="0.54832">
        <ele>513</ele>
        <time>2018-03-18T13:26:46.000Z</time>
      </trkpt>
      <trkpt lat="43.03427" lon="0.54834">
        <ele>513</ele>
        <time>2018-03-18T13:26:48.000Z</time>
      </trkpt>
      <trkpt lat="43.03427" lon="0.54835">
        <ele>513</ele>
        <time>2018-03-18T13:26:50.000Z</time>
      </trkpt>
      <trkpt lat="43.03427" lon="0.54838">
        <ele>513</ele>
        <time>2018-03-18T13:26:52.000Z</time>
      </trkpt>
      <trkpt lat="43.03427" lon="0.5484">
        <ele>513</ele>
        <time>2018-03-18T13:26:54.000Z</time>
      </trkpt>
      <trkpt lat="43.03427" lon="0.54842">
        <ele>513</ele>
        <time>2018-03-18T13:26:56.000Z</time>
      </trkpt>
      <trkpt lat="43.03427" lon="0.54845">
        <ele>513</ele>
        <time>2018-03-18T13:26:58.000Z</time>
      </trkpt>
      <trkpt lat="43.03428" lon="0.54848">
        <ele>513</ele>
        <time>2018-03-18T13:27:00.000Z</time>
      </trkpt>
      <trkpt lat="43.03428" lon="0.5485">
        <ele>513</ele>
        <time>2018-03-18T13:27:02.000Z</time>
      </trkpt>
      <trkpt lat="43.03428" lon="0.54853">
        <ele>513</ele>
        <time>2018-03-18T13:27:04.000Z</time>
      </trkpt>
      <trkpt lat="43.03428" lon="0.54855">
        <ele>513</ele>
        <time>2018-03-18T13:27:06.000Z</time>
      </trkpt>
      <trkpt lat="43.03428" lon="0.54858">
        <ele>513</ele>
        <time>2018-03-18T13:27:08.000Z</time>
      </trkpt>
      <trkpt lat="43.03429" lon="0.54861">
        <ele>513</ele>
        <time>2018-03-18T13:27:10.000Z</time>
      </trkpt>
      <trkpt lat="43.03429" lon="0.54864">
        <ele>513</ele>
        <time>2018-03-18T13:27:12.000Z</time>
      </trkpt>
      <trkpt lat="43.03429" lon="0.54866">
        <ele>513</ele>
        <time>2018-03-18T13:27:14.000Z</time>
      </trkpt>
      <trkpt lat="43.03428" lon="0.54869">
        <ele>513</ele>
        <time>2018-03-18T13:27:16.000Z</time>
      </trkpt>
      <trkpt lat="43.03429" lon="0.54871">
        <ele>513</ele>
        <time>2018-03-18T13:27:18.000Z</time>
      </trkpt>
      <trkpt lat="43.0343" lon="0.54874">
        <ele>513</ele>
        <time>2018-03-18T13:27:20.000Z</time>
      </trkpt>
      <trkpt lat="43.03431" lon="0.54876">
        <ele>513</ele>
        <time>2018-03-18T13:27:22.000Z</time>
      </trkpt>
      <trkpt lat="43.03431" lon="0.54879">
        <ele>513</ele>
        <time>2018-03-18T13:27:24.000Z</time>
      </trkpt>
      <trkpt lat="43.03431" lon="0.54881">
        <ele>513</ele>
        <time>2018-03-18T13:27:26.000Z</time>
      </trkpt>
      <trkpt lat="43.0343" lon="0.54883">
        <ele>513</ele>
        <time>2018-03-18T13:27:28.000Z</time>
      </trkpt>
      <trkpt lat="43.0343" lon="0.54886">
        <ele>513</ele>
        <time>2018-03-18T13:27:30.000Z</time>
      </trkpt>
      <trkpt lat="43.03429" lon="0.54888">
        <ele>513</ele>
        <time>2018-03-18T13:27:32.000Z</time>
      </trkpt>
      <trkpt lat="43.03429" lon="0.54891">
        <ele>513</ele>
        <time>2018-03-18T13:27:34.000Z</time>
      </trkpt>
      <trkpt lat="43.03429" lon="0.54894">
        <ele>513</ele>
        <time>2018-03-18T13:27:36.000Z</time>
      </trkpt>
      <trkpt lat="43.03428" lon="0.54897">
        <ele>512</ele>
        <time>2018-03-18T13:27:38.000Z</time>
      </trkpt>
      <trkpt lat="43.03428" lon="0.549">
        <ele>512</ele>
        <time>2018-03-18T13:27:40.000Z</time>
      </trkpt>
      <trkpt lat="43.03428" lon="0.54903">
        <ele>512</ele>
        <time>2018-03-18T13:27:42.000Z</time>
      </trkpt>
      <trkpt lat="43.03428" lon="0.54906">
        <ele>512</ele>
        <time>2018-03-18T13:27:44.000Z</time>
      </trkpt>
      <trkpt lat="43.03428" lon="0.54908">
        <ele>512</ele>
        <time>2018-03-18T13:27:46.000Z</time>
      </trkpt>
      <trkpt lat="43.03428" lon="0.54911">
        <ele>512</ele>
        <time>2018-03-18T13:27:48.000Z</time>
      </trkpt>
      <trkpt lat="43.03428" lon="0.54914">
        <ele>512</ele>
        <time>2018-03-18T13:27:50.000Z</time>
      </trkpt>
      <trkpt lat="43.03428" lon="0.54917">
        <ele>512</ele>
        <time>2018-03-18T13:27:52.000Z</time>
      </trkpt>
      <trkpt lat="43.03429" lon="0.5492">
        <ele>512</ele>
        <time>2018-03-18T13:27:54.000Z</time>
      </trkpt>
      <trkpt lat="43.03429" lon="0.54923">
        <ele>511</ele>
        <time>2018-03-18T13:27:56.000Z</time>
      </trkpt>
      <trkpt lat="43.03429" lon="0.54925">
        <ele>511</ele>
        <time>2018-03-18T13:27:58.000Z</time>
      </trkpt>
      <trkpt lat="43.03429" lon="0.54928">
        <ele>511</ele>
        <time>2018-03-18T13:28:00.000Z</time>
      </trkpt>
      <trkpt lat="43.0343" lon="0.5493">
        <ele>511</ele>
        <time>2018-03-18T13:28:02.000Z</time>
      </trkpt>
      <trkpt lat="43.03431" lon="0.54931">
        <ele>511</ele>
        <time>2018-03-18T13:28:04.000Z</time>
      </trkpt>
      <trkpt lat="43.03431" lon="0.54934">
        <ele>511</ele>
        <time>2018-03-18T13:28:06.000Z</time>
      </trkpt>
      <trkpt lat="43.03432" lon="0.54936">
        <ele>511</ele>
        <time>2018-03-18T13:28:08.000Z</time>
      </trkpt>
      <trkpt lat="43.03432" lon="0.5494">
        <ele>511</ele>
        <time>2018-03-18T13:28:10.000Z</time>
      </trkpt>
      <trkpt lat="43.03432" lon="0.54942">
        <ele>511</ele>
        <time>2018-03-18T13:28:12.000Z</time>
      </trkpt>
      <trkpt lat="43.03433" lon="0.54944">
        <ele>511</ele>
        <time>2018-03-18T13:28:14.000Z</time>
      </trkpt>
      <trkpt lat="43.03433" lon="0.54946">
        <ele>510</ele>
        <time>2018-03-18T13:28:16.000Z</time>
      </trkpt>
      <trkpt lat="43.03434" lon="0.54948">
        <ele>510</ele>
        <time>2018-03-18T13:28:18.000Z</time>
      </trkpt>
      <trkpt lat="43.03434" lon="0.5495">
        <ele>510</ele>
        <time>2018-03-18T13:28:20.000Z</time>
      </trkpt>
      <trkpt lat="43.03434" lon="0.54953">
        <ele>510</ele>
        <time>2018-03-18T13:28:22.000Z</time>
      </trkpt>
      <trkpt lat="43.03434" lon="0.54955">
        <ele>510</ele>
        <time>2018-03-18T13:28:24.000Z</time>
      </trkpt>
      <trkpt lat="43.03433" lon="0.54958">
        <ele>510</ele>
        <time>2018-03-18T13:28:26.000Z</time>
      </trkpt>
      <trkpt lat="43.03433" lon="0.5496">
        <ele>510</ele>
        <time>2018-03-18T13:28:28.000Z</time>
      </trkpt>
      <trkpt lat="43.03433" lon="0.54961">
        <ele>510</ele>
        <time>2018-03-18T13:28:30.000Z</time>
      </trkpt>
      <trkpt lat="43.03433" lon="0.54961">
        <ele>510</ele>
        <time>2018-03-18T13:28:32.000Z</time>
      </trkpt>
      <trkpt lat="43.03433" lon="0.54961">
        <ele>510</ele>
        <time>2018-03-18T13:28:34.000Z</time>
      </trkpt>
      <trkpt lat="43.03432" lon="0.54961">
        <ele>510</ele>
        <time>2018-03-18T13:28:36.000Z</time>
      </trkpt>
      <trkpt lat="43.03432" lon="0.54961">
        <ele>510</ele>
        <time>2018-03-18T13:28:38.000Z</time>
      </trkpt>
      <trkpt lat="43.03432" lon="0.54962">
        <ele>510</ele>
        <time>2018-03-18T13:28:40.000Z</time>
      </trkpt>
      <trkpt lat="43.03432" lon="0.54965">
        <ele>510</ele>
        <time>2018-03-18T13:28:42.000Z</time>
      </trkpt>
      <trkpt lat="43.03431" lon="0.54967">
        <ele>510</ele>
        <time>2018-03-18T13:28:44.000Z</time>
      </trkpt>
      <trkpt lat="43.03431" lon="0.5497">
        <ele>510</ele>
        <time>2018-03-18T13:28:46.000Z</time>
      </trkpt>
      <trkpt lat="43.03431" lon="0.54973">
        <ele>509</ele>
        <time>2018-03-18T13:28:48.000Z</time>
      </trkpt>
      <trkpt lat="43.0343" lon="0.54976">
        <ele>509</ele>
        <time>2018-03-18T13:28:50.000Z</time>
      </trkpt>
      <trkpt lat="43.03429" lon="0.54978">
        <ele>509</ele>
        <time>2018-03-18T13:28:52.000Z</time>
      </trkpt>
      <trkpt lat="43.03428" lon="0.54981">
        <ele>509</ele>
        <time>2018-03-18T13:28:54.000Z</time>
      </trkpt>
      <trkpt lat="43.03427" lon="0.54984">
        <ele>509</ele>
        <time>2018-03-18T13:28:56.000Z</time>
      </trkpt>
      <trkpt lat="43.03426" lon="0.54987">
        <ele>509</ele>
        <time>2018-03-18T13:28:58.000Z</time>
      </trkpt>
      <trkpt lat="43.03425" lon="0.5499">
        <ele>510</ele>
        <time>2018-03-18T13:29:00.000Z</time>
      </trkpt>
      <trkpt lat="43.03424" lon="0.54993">
        <ele>509</ele>
        <time>2018-03-18T13:29:02.000Z</time>
      </trkpt>
      <trkpt lat="43.03423" lon="0.54995">
        <ele>509</ele>
        <time>2018-03-18T13:29:04.000Z</time>
      </trkpt>
      <trkpt lat="43.03423" lon="0.54998">
        <ele>509</ele>
        <time>2018-03-18T13:29:06.000Z</time>
      </trkpt>
      <trkpt lat="43.03422" lon="0.55001">
        <ele>509</ele>
        <time>2018-03-18T13:29:08.000Z</time>
      </trkpt>
      <trkpt lat="43.03421" lon="0.55004">
        <ele>509</ele>
        <time>2018-03-18T13:29:10.000Z</time>
      </trkpt>
      <trkpt lat="43.0342" lon="0.55007">
        <ele>509</ele>
        <time>2018-03-18T13:29:12.000Z</time>
      </trkpt>
      <trkpt lat="43.03419" lon="0.5501">
        <ele>509</ele>
        <time>2018-03-18T13:29:14.000Z</time>
      </trkpt>
      <trkpt lat="43.03418" lon="0.55013">
        <ele>509</ele>
        <time>2018-03-18T13:29:16.000Z</time>
      </trkpt>
      <trkpt lat="43.03417" lon="0.55017">
        <ele>509</ele>
        <time>2018-03-18T13:29:18.000Z</time>
      </trkpt>
      <trkpt lat="43.03416" lon="0.55019">
        <ele>509</ele>
        <time>2018-03-18T13:29:20.000Z</time>
      </trkpt>
      <trkpt lat="43.03415" lon="0.55022">
        <ele>509</ele>
        <time>2018-03-18T13:29:22.000Z</time>
      </trkpt>
      <trkpt lat="43.03415" lon="0.55024">
        <ele>509</ele>
        <time>2018-03-18T13:29:24.000Z</time>
      </trkpt>
      <trkpt lat="43.03414" lon="0.55027">
        <ele>509</ele>
        <time>2018-03-18T13:29:26.000Z</time>
      </trkpt>
      <trkpt lat="43.03414" lon="0.55028">
        <ele>509</ele>
        <time>2018-03-18T13:29:28.000Z</time>
      </trkpt>
      <trkpt lat="43.03412" lon="0.55031">
        <ele>509</ele>
        <time>2018-03-18T13:29:30.000Z</time>
      </trkpt>
      <trkpt lat="43.03411" lon="0.55033">
        <ele>509</ele>
        <time>2018-03-18T13:29:32.000Z</time>
      </trkpt>
      <trkpt lat="43.0341" lon="0.55036">
        <ele>509</ele>
        <time>2018-03-18T13:29:34.000Z</time>
      </trkpt>
      <trkpt lat="43.0341" lon="0.55038">
        <ele>510</ele>
        <time>2018-03-18T13:29:36.000Z</time>
      </trkpt>
      <trkpt lat="43.03409" lon="0.55041">
        <ele>510</ele>
        <time>2018-03-18T13:29:38.000Z</time>
      </trkpt>
      <trkpt lat="43.03408" lon="0.55043">
        <ele>510</ele>
        <time>2018-03-18T13:29:40.000Z</time>
      </trkpt>
      <trkpt lat="43.03408" lon="0.55046">
        <ele>510</ele>
        <time>2018-03-18T13:29:42.000Z</time>
      </trkpt>
      <trkpt lat="43.03406" lon="0.55049">
        <ele>510</ele>
        <time>2018-03-18T13:29:44.000Z</time>
      </trkpt>
      <trkpt lat="43.03405" lon="0.55051">
        <ele>510</ele>
        <time>2018-03-18T13:29:46.000Z</time>
      </trkpt>
      <trkpt lat="43.03405" lon="0.55054">
        <ele>510</ele>
        <time>2018-03-18T13:29:48.000Z</time>
      </trkpt>
      <trkpt lat="43.03404" lon="0.55057">
        <ele>510</ele>
        <time>2018-03-18T13:29:50.000Z</time>
      </trkpt>
      <trkpt lat="43.03403" lon="0.55059">
        <ele>510</ele>
        <time>2018-03-18T13:29:52.000Z</time>
      </trkpt>
      <trkpt lat="43.03402" lon="0.55063">
        <ele>511</ele>
        <time>2018-03-18T13:29:54.000Z</time>
      </trkpt>
      <trkpt lat="43.03401" lon="0.55065">
        <ele>511</ele>
        <time>2018-03-18T13:29:56.000Z</time>
      </trkpt>
      <trkpt lat="43.034" lon="0.55068">
        <ele>511</ele>
        <time>2018-03-18T13:29:58.000Z</time>
      </trkpt>
      <trkpt lat="43.034" lon="0.55071">
        <ele>511</ele>
        <time>2018-03-18T13:30:00.000Z</time>
      </trkpt>
      <trkpt lat="43.034" lon="0.55074">
        <ele>511</ele>
        <time>2018-03-18T13:30:02.000Z</time>
      </trkpt>
      <trkpt lat="43.03399" lon="0.55076">
        <ele>511</ele>
        <time>2018-03-18T13:30:04.000Z</time>
      </trkpt>
      <trkpt lat="43.03398" lon="0.55079">
        <ele>511</ele>
        <time>2018-03-18T13:30:06.000Z</time>
      </trkpt>
      <trkpt lat="43.03398" lon="0.55082">
        <ele>511</ele>
        <time>2018-03-18T13:30:08.000Z</time>
      </trkpt>
      <trkpt lat="43.03398" lon="0.55085">
        <ele>511</ele>
        <time>2018-03-18T13:30:10.000Z</time>
      </trkpt>
      <trkpt lat="43.03397" lon="0.55087">
        <ele>511</ele>
        <time>2018-03-18T13:30:12.000Z</time>
      </trkpt>
      <trkpt lat="43.03397" lon="0.5509">
        <ele>510</ele>
        <time>2018-03-18T13:30:14.000Z</time>
      </trkpt>
      <trkpt lat="43.03397" lon="0.55093">
        <ele>510</ele>
        <time>2018-03-18T13:30:16.000Z</time>
      </trkpt>
      <trkpt lat="43.03396" lon="0.55095">
        <ele>510</ele>
        <time>2018-03-18T13:30:18.000Z</time>
      </trkpt>
      <trkpt lat="43.03395" lon="0.55098">
        <ele>510</ele>
        <time>2018-03-18T13:30:20.000Z</time>
      </trkpt>
      <trkpt lat="43.03395" lon="0.551">
        <ele>511</ele>
        <time>2018-03-18T13:30:22.000Z</time>
      </trkpt>
      <trkpt lat="43.03394" lon="0.55103">
        <ele>511</ele>
        <time>2018-03-18T13:30:24.000Z</time>
      </trkpt>
      <trkpt lat="43.03393" lon="0.55105">
        <ele>511</ele>
        <time>2018-03-18T13:30:26.000Z</time>
      </trkpt>
      <trkpt lat="43.03392" lon="0.55108">
        <ele>511</ele>
        <time>2018-03-18T13:30:28.000Z</time>
      </trkpt>
      <trkpt lat="43.03391" lon="0.5511">
        <ele>511</ele>
        <time>2018-03-18T13:30:30.000Z</time>
      </trkpt>
      <trkpt lat="43.03391" lon="0.55113">
        <ele>511</ele>
        <time>2018-03-18T13:30:32.000Z</time>
      </trkpt>
      <trkpt lat="43.0339" lon="0.55115">
        <ele>511</ele>
        <time>2018-03-18T13:30:34.000Z</time>
      </trkpt>
      <trkpt lat="43.03389" lon="0.55116">
        <ele>511</ele>
        <time>2018-03-18T13:30:36.000Z</time>
      </trkpt>
      <trkpt lat="43.03389" lon="0.55119">
        <ele>511</ele>
        <time>2018-03-18T13:30:38.000Z</time>
      </trkpt>
      <trkpt lat="43.03389" lon="0.55121">
        <ele>510</ele>
        <time>2018-03-18T13:30:40.000Z</time>
      </trkpt>
      <trkpt lat="43.03388" lon="0.55123">
        <ele>510</ele>
        <time>2018-03-18T13:30:42.000Z</time>
      </trkpt>
      <trkpt lat="43.03387" lon="0.55125">
        <ele>510</ele>
        <time>2018-03-18T13:30:44.000Z</time>
      </trkpt>
      <trkpt lat="43.03387" lon="0.55128">
        <ele>510</ele>
        <time>2018-03-18T13:30:46.000Z</time>
      </trkpt>
      <trkpt lat="43.03386" lon="0.5513">
        <ele>510</ele>
        <time>2018-03-18T13:30:48.000Z</time>
      </trkpt>
      <trkpt lat="43.03385" lon="0.55132">
        <ele>510</ele>
        <time>2018-03-18T13:30:50.000Z</time>
      </trkpt>
      <trkpt lat="43.03385" lon="0.55134">
        <ele>510</ele>
        <time>2018-03-18T13:30:52.000Z</time>
      </trkpt>
      <trkpt lat="43.03384" lon="0.55136">
        <ele>510</ele>
        <time>2018-03-18T13:30:54.000Z</time>
      </trkpt>
      <trkpt lat="43.03383" lon="0.55138">
        <ele>510</ele>
        <time>2018-03-18T13:30:56.000Z</time>
      </trkpt>
      <trkpt lat="43.03383" lon="0.5514">
        <ele>510</ele>
        <time>2018-03-18T13:30:58.000Z</time>
      </trkpt>
      <trkpt lat="43.03382" lon="0.55141">
        <ele>511</ele>
        <time>2018-03-18T13:31:00.000Z</time>
      </trkpt>
      <trkpt lat="43.03382" lon="0.55141">
        <ele>511</ele>
        <time>2018-03-18T13:31:02.000Z</time>
      </trkpt>
      <trkpt lat="43.03382" lon="0.55142">
        <ele>511</ele>
        <time>2018-03-18T13:31:04.000Z</time>
      </trkpt>
      <trkpt lat="43.03382" lon="0.55145">
        <ele>510</ele>
        <time>2018-03-18T13:31:06.000Z</time>
      </trkpt>
      <trkpt lat="43.03381" lon="0.55147">
        <ele>511</ele>
        <time>2018-03-18T13:31:08.000Z</time>
      </trkpt>
      <trkpt lat="43.03381" lon="0.55149">
        <ele>511</ele>
        <time>2018-03-18T13:31:10.000Z</time>
      </trkpt>
      <trkpt lat="43.0338" lon="0.55151">
        <ele>511</ele>
        <time>2018-03-18T13:31:12.000Z</time>
      </trkpt>
      <trkpt lat="43.03379" lon="0.55153">
        <ele>511</ele>
        <time>2018-03-18T13:31:14.000Z</time>
      </trkpt>
      <trkpt lat="43.03378" lon="0.55155">
        <ele>511</ele>
        <time>2018-03-18T13:31:16.000Z</time>
      </trkpt>
      <trkpt lat="43.03377" lon="0.55157">
        <ele>511</ele>
        <time>2018-03-18T13:31:18.000Z</time>
      </trkpt>
      <trkpt lat="43.03375" lon="0.55159">
        <ele>511</ele>
        <time>2018-03-18T13:31:20.000Z</time>
      </trkpt>
      <trkpt lat="43.03373" lon="0.5516">
        <ele>511</ele>
        <time>2018-03-18T13:31:22.000Z</time>
      </trkpt>
      <trkpt lat="43.03372" lon="0.55161">
        <ele>511</ele>
        <time>2018-03-18T13:31:24.000Z</time>
      </trkpt>
      <trkpt lat="43.03372" lon="0.55161">
        <ele>511</ele>
        <time>2018-03-18T13:31:26.000Z</time>
      </trkpt>
      <trkpt lat="43.03372" lon="0.55162">
        <ele>511</ele>
        <time>2018-03-18T13:31:28.000Z</time>
      </trkpt>
      <trkpt lat="43.03372" lon="0.55162">
        <ele>511</ele>
        <time>2018-03-18T13:31:30.000Z</time>
      </trkpt>
      <trkpt lat="43.03372" lon="0.55162">
        <ele>511</ele>
        <time>2018-03-18T13:31:32.000Z</time>
      </trkpt>
      <trkpt lat="43.03372" lon="0.55162">
        <ele>511</ele>
        <time>2018-03-18T13:31:34.000Z</time>
      </trkpt>
      <trkpt lat="43.03372" lon="0.55162">
        <ele>511</ele>
        <time>2018-03-18T13:31:36.000Z</time>
      </trkpt>
      <trkpt lat="43.03372" lon="0.55161">
        <ele>511</ele>
        <time>2018-03-18T13:31:38.000Z</time>
      </trkpt>
      <trkpt lat="43.03372" lon="0.5516">
        <ele>511</ele>
        <time>2018-03-18T13:31:40.000Z</time>
      </trkpt>
      <trkpt lat="43.03371" lon="0.5516">
        <ele>511</ele>
        <time>2018-03-18T13:31:42.000Z</time>
      </trkpt>
      <trkpt lat="43.0337" lon="0.5516">
        <ele>511</ele>
        <time>2018-03-18T13:31:44.000Z</time>
      </trkpt>
      <trkpt lat="43.03369" lon="0.5516">
        <ele>512</ele>
        <time>2018-03-18T13:31:46.000Z</time>
      </trkpt>
      <trkpt lat="43.03368" lon="0.5516">
        <ele>512</ele>
        <time>2018-03-18T13:31:48.000Z</time>
      </trkpt>
      <trkpt lat="43.03367" lon="0.5516">
        <ele>512</ele>
        <time>2018-03-18T13:31:50.000Z</time>
      </trkpt>
      <trkpt lat="43.03365" lon="0.5516">
        <ele>512</ele>
        <time>2018-03-18T13:31:52.000Z</time>
      </trkpt>
      <trkpt lat="43.03364" lon="0.5516">
        <ele>512</ele>
        <time>2018-03-18T13:31:54.000Z</time>
      </trkpt>
      <trkpt lat="43.03362" lon="0.55161">
        <ele>512</ele>
        <time>2018-03-18T13:31:56.000Z</time>
      </trkpt>
      <trkpt lat="43.0336" lon="0.55161">
        <ele>512</ele>
        <time>2018-03-18T13:31:58.000Z</time>
      </trkpt>
      <trkpt lat="43.03359" lon="0.55161">
        <ele>513</ele>
        <time>2018-03-18T13:32:00.000Z</time>
      </trkpt>
      <trkpt lat="43.03357" lon="0.55161">
        <ele>513</ele>
        <time>2018-03-18T13:32:02.000Z</time>
      </trkpt>
      <trkpt lat="43.03355" lon="0.5516">
        <ele>513</ele>
        <time>2018-03-18T13:32:04.000Z</time>
      </trkpt>
      <trkpt lat="43.03354" lon="0.55161">
        <ele>513</ele>
        <time>2018-03-18T13:32:06.000Z</time>
      </trkpt>
      <trkpt lat="43.03354" lon="0.55161">
        <ele>513</ele>
        <time>2018-03-18T13:32:08.000Z</time>
      </trkpt>
      <trkpt lat="43.03354" lon="0.55161">
        <ele>513</ele>
        <time>2018-03-18T13:32:10.000Z</time>
      </trkpt>
      <trkpt lat="43.03354" lon="0.55161">
        <ele>513</ele>
        <time>2018-03-18T13:32:12.000Z</time>
      </trkpt>
      <trkpt lat="43.03353" lon="0.55161">
        <ele>513</ele>
        <time>2018-03-18T13:32:14.000Z</time>
      </trkpt>
      <trkpt lat="43.03353" lon="0.55161">
        <ele>513</ele>
        <time>2018-03-18T13:32:16.000Z</time>
      </trkpt>
      <trkpt lat="43.03353" lon="0.55161">
        <ele>513</ele>
        <time>2018-03-18T13:32:18.000Z</time>
      </trkpt>
      <trkpt lat="43.03353" lon="0.55161">
        <ele>513</ele>
        <time>2018-03-18T13:32:20.000Z</time>
      </trkpt>
      <trkpt lat="43.03353" lon="0.55161">
        <ele>513</ele>
        <time>2018-03-18T13:32:22.000Z</time>
      </trkpt>
      <trkpt lat="43.03352" lon="0.55161">
        <ele>513</ele>
        <time>2018-03-18T13:32:24.000Z</time>
      </trkpt>
      <trkpt lat="43.03352" lon="0.55162">
        <ele>513</ele>
        <time>2018-03-18T13:32:26.000Z</time>
      </trkpt>
      <trkpt lat="43.03351" lon="0.55163">
        <ele>513</ele>
        <time>2018-03-18T13:32:28.000Z</time>
      </trkpt>
      <trkpt lat="43.03349" lon="0.55163">
        <ele>514</ele>
        <time>2018-03-18T13:32:30.000Z</time>
      </trkpt>
      <trkpt lat="43.03347" lon="0.55164">
        <ele>514</ele>
        <time>2018-03-18T13:32:32.000Z</time>
      </trkpt>
      <trkpt lat="43.03345" lon="0.55164">
        <ele>514</ele>
        <time>2018-03-18T13:32:34.000Z</time>
      </trkpt>
      <trkpt lat="43.03343" lon="0.55164">
        <ele>514</ele>
        <time>2018-03-18T13:32:36.000Z</time>
      </trkpt>
      <trkpt lat="43.03342" lon="0.55163">
        <ele>514</ele>
        <time>2018-03-18T13:32:38.000Z</time>
      </trkpt>
      <trkpt lat="43.0334" lon="0.55163">
        <ele>514</ele>
        <time>2018-03-18T13:32:40.000Z</time>
      </trkpt>
      <trkpt lat="43.03338" lon="0.55162">
        <ele>515</ele>
        <time>2018-03-18T13:32:42.000Z</time>
      </trkpt>
      <trkpt lat="43.03336" lon="0.55162">
        <ele>515</ele>
        <time>2018-03-18T13:32:44.000Z</time>
      </trkpt>
      <trkpt lat="43.03335" lon="0.55161">
        <ele>515</ele>
        <time>2018-03-18T13:32:46.000Z</time>
      </trkpt>
      <trkpt lat="43.03333" lon="0.55161">
        <ele>515</ele>
        <time>2018-03-18T13:32:48.000Z</time>
      </trkpt>
      <trkpt lat="43.03331" lon="0.55161">
        <ele>515</ele>
        <time>2018-03-18T13:32:50.000Z</time>
      </trkpt>
      <trkpt lat="43.03329" lon="0.5516">
        <ele>515</ele>
        <time>2018-03-18T13:32:52.000Z</time>
      </trkpt>
      <trkpt lat="43.03327" lon="0.5516">
        <ele>515</ele>
        <time>2018-03-18T13:32:54.000Z</time>
      </trkpt>
      <trkpt lat="43.03325" lon="0.5516">
        <ele>516</ele>
        <time>2018-03-18T13:32:56.000Z</time>
      </trkpt>
      <trkpt lat="43.03323" lon="0.5516">
        <ele>516</ele>
        <time>2018-03-18T13:32:58.000Z</time>
      </trkpt>
      <trkpt lat="43.03321" lon="0.55161">
        <ele>516</ele>
        <time>2018-03-18T13:33:00.000Z</time>
      </trkpt>
      <trkpt lat="43.03319" lon="0.55161">
        <ele>516</ele>
        <time>2018-03-18T13:33:02.000Z</time>
      </trkpt>
      <trkpt lat="43.03317" lon="0.55161">
        <ele>516</ele>
        <time>2018-03-18T13:33:04.000Z</time>
      </trkpt>
      <trkpt lat="43.03316" lon="0.55161">
        <ele>516</ele>
        <time>2018-03-18T13:33:06.000Z</time>
      </trkpt>
      <trkpt lat="43.03314" lon="0.55161">
        <ele>516</ele>
        <time>2018-03-18T13:33:08.000Z</time>
      </trkpt>
      <trkpt lat="43.03312" lon="0.55161">
        <ele>517</ele>
        <time>2018-03-18T13:33:10.000Z</time>
      </trkpt>
      <trkpt lat="43.0331" lon="0.5516">
        <ele>517</ele>
        <time>2018-03-18T13:33:12.000Z</time>
      </trkpt>
      <trkpt lat="43.03308" lon="0.5516">
        <ele>517</ele>
        <time>2018-03-18T13:33:14.000Z</time>
      </trkpt>
      <trkpt lat="43.03306" lon="0.5516">
        <ele>517</ele>
        <time>2018-03-18T13:33:16.000Z</time>
      </trkpt>
      <trkpt lat="43.03304" lon="0.5516">
        <ele>517</ele>
        <time>2018-03-18T13:33:18.000Z</time>
      </trkpt>
      <trkpt lat="43.03302" lon="0.5516">
        <ele>517</ele>
        <time>2018-03-18T13:33:20.000Z</time>
      </trkpt>
      <trkpt lat="43.03301" lon="0.55159">
        <ele>517</ele>
        <time>2018-03-18T13:33:22.000Z</time>
      </trkpt>
      <trkpt lat="43.03299" lon="0.55159">
        <ele>518</ele>
        <time>2018-03-18T13:33:24.000Z</time>
      </trkpt>
      <trkpt lat="43.03297" lon="0.55159">
        <ele>518</ele>
        <time>2018-03-18T13:33:26.000Z</time>
      </trkpt>
      <trkpt lat="43.03295" lon="0.55159">
        <ele>518</ele>
        <time>2018-03-18T13:33:28.000Z</time>
      </trkpt>
      <trkpt lat="43.03293" lon="0.5516">
        <ele>518</ele>
        <time>2018-03-18T13:33:30.000Z</time>
      </trkpt>
      <trkpt lat="43.03291" lon="0.55159">
        <ele>518</ele>
        <time>2018-03-18T13:33:32.000Z</time>
      </trkpt>
      <trkpt lat="43.03289" lon="0.5516">
        <ele>518</ele>
        <time>2018-03-18T13:33:34.000Z</time>
      </trkpt>
      <trkpt lat="43.03287" lon="0.5516">
        <ele>518</ele>
        <time>2018-03-18T13:33:36.000Z</time>
      </trkpt>
      <trkpt lat="43.03285" lon="0.5516">
        <ele>519</ele>
        <time>2018-03-18T13:33:38.000Z</time>
      </trkpt>
      <trkpt lat="43.03282" lon="0.5516">
        <ele>519</ele>
        <time>2018-03-18T13:33:40.000Z</time>
      </trkpt>
      <trkpt lat="43.0328" lon="0.5516">
        <ele>519</ele>
        <time>2018-03-18T13:33:42.000Z</time>
      </trkpt>
      <trkpt lat="43.03278" lon="0.5516">
        <ele>519</ele>
        <time>2018-03-18T13:33:44.000Z</time>
      </trkpt>
      <trkpt lat="43.03276" lon="0.55158">
        <ele>519</ele>
        <time>2018-03-18T13:33:46.000Z</time>
      </trkpt>
      <trkpt lat="43.03274" lon="0.55157">
        <ele>519</ele>
        <time>2018-03-18T13:33:48.000Z</time>
      </trkpt>
      <trkpt lat="43.03271" lon="0.55156">
        <ele>520</ele>
        <time>2018-03-18T13:33:50.000Z</time>
      </trkpt>
      <trkpt lat="43.0327" lon="0.55155">
        <ele>520</ele>
        <time>2018-03-18T13:33:52.000Z</time>
      </trkpt>
      <trkpt lat="43.03267" lon="0.55155">
        <ele>520</ele>
        <time>2018-03-18T13:33:54.000Z</time>
      </trkpt>
      <trkpt lat="43.03265" lon="0.55155">
        <ele>520</ele>
        <time>2018-03-18T13:33:56.000Z</time>
      </trkpt>
      <trkpt lat="43.03264" lon="0.55155">
        <ele>520</ele>
        <time>2018-03-18T13:33:58.000Z</time>
      </trkpt>
      <trkpt lat="43.03262" lon="0.55154">
        <ele>521</ele>
        <time>2018-03-18T13:34:00.000Z</time>
      </trkpt>
      <trkpt lat="43.0326" lon="0.55154">
        <ele>521</ele>
        <time>2018-03-18T13:34:02.000Z</time>
      </trkpt>
      <trkpt lat="43.03258" lon="0.55155">
        <ele>521</ele>
        <time>2018-03-18T13:34:04.000Z</time>
      </trkpt>
      <trkpt lat="43.03257" lon="0.55155">
        <ele>521</ele>
        <time>2018-03-18T13:34:06.000Z</time>
      </trkpt>
      <trkpt lat="43.03256" lon="0.55155">
        <ele>521</ele>
        <time>2018-03-18T13:34:08.000Z</time>
      </trkpt>
      <trkpt lat="43.03255" lon="0.55154">
        <ele>521</ele>
        <time>2018-03-18T13:34:10.000Z</time>
      </trkpt>
      <trkpt lat="43.03253" lon="0.55153">
        <ele>521</ele>
        <time>2018-03-18T13:34:12.000Z</time>
      </trkpt>
      <trkpt lat="43.03252" lon="0.55152">
        <ele>521</ele>
        <time>2018-03-18T13:34:14.000Z</time>
      </trkpt>
      <trkpt lat="43.03252" lon="0.55153">
        <ele>521</ele>
        <time>2018-03-18T13:34:16.000Z</time>
      </trkpt>
      <trkpt lat="43.03252" lon="0.55154">
        <ele>521</ele>
        <time>2018-03-18T13:34:18.000Z</time>
      </trkpt>
      <trkpt lat="43.03251" lon="0.55153">
        <ele>520</ele>
        <time>2018-03-18T13:34:20.000Z</time>
      </trkpt>
      <trkpt lat="43.0325" lon="0.55153">
        <ele>520</ele>
        <time>2018-03-18T13:34:22.000Z</time>
      </trkpt>
      <trkpt lat="43.03249" lon="0.55153">
        <ele>520</ele>
        <time>2018-03-18T13:34:24.000Z</time>
      </trkpt>
      <trkpt lat="43.03248" lon="0.55154">
        <ele>520</ele>
        <time>2018-03-18T13:34:26.000Z</time>
      </trkpt>
      <trkpt lat="43.03247" lon="0.55154">
        <ele>520</ele>
        <time>2018-03-18T13:34:28.000Z</time>
      </trkpt>
      <trkpt lat="43.03245" lon="0.55157">
        <ele>520</ele>
        <time>2018-03-18T13:34:30.000Z</time>
      </trkpt>
      <trkpt lat="43.03244" lon="0.55158">
        <ele>520</ele>
        <time>2018-03-18T13:34:32.000Z</time>
      </trkpt>
      <trkpt lat="43.03245" lon="0.55158">
        <ele>520</ele>
        <time>2018-03-18T13:34:34.000Z</time>
      </trkpt>
      <trkpt lat="43.03245" lon="0.55158">
        <ele>520</ele>
        <time>2018-03-18T13:34:36.000Z</time>
      </trkpt>
      <trkpt lat="43.03245" lon="0.55158">
        <ele>520</ele>
        <time>2018-03-18T13:34:38.000Z</time>
      </trkpt>
      <trkpt lat="43.03245" lon="0.55158">
        <ele>520</ele>
        <time>2018-03-18T13:34:40.000Z</time>
      </trkpt>
      <trkpt lat="43.03245" lon="0.55158">
        <ele>520</ele>
        <time>2018-03-18T13:34:42.000Z</time>
      </trkpt>
      <trkpt lat="43.03246" lon="0.55157">
        <ele>520</ele>
        <time>2018-03-18T13:34:44.000Z</time>
      </trkpt>
      <trkpt lat="43.03246" lon="0.55157">
        <ele>520</ele>
        <time>2018-03-18T13:34:46.000Z</time>
      </trkpt>
      <trkpt lat="43.03246" lon="0.55158">
        <ele>520</ele>
        <time>2018-03-18T13:34:48.000Z</time>
      </trkpt>
      <trkpt lat="43.03246" lon="0.55158">
        <ele>520</ele>
        <time>2018-03-18T13:34:50.000Z</time>
      </trkpt>
      <trkpt lat="43.03246" lon="0.55158">
        <ele>520</ele>
        <time>2018-03-18T13:34:52.000Z</time>
      </trkpt>
      <trkpt lat="43.03246" lon="0.55158">
        <ele>520</ele>
        <time>2018-03-18T13:34:54.000Z</time>
      </trkpt>
      <trkpt lat="43.03246" lon="0.55158">
        <ele>520</ele>
        <time>2018-03-18T13:34:56.000Z</time>
      </trkpt>
      <trkpt lat="43.03246" lon="0.55159">
        <ele>520</ele>
        <time>2018-03-18T13:34:58.000Z</time>
      </trkpt>
      <trkpt lat="43.03246" lon="0.55159">
        <ele>520</ele>
        <time>2018-03-18T13:35:00.000Z</time>
      </trkpt>
      <trkpt lat="43.03246" lon="0.55159">
        <ele>520</ele>
        <time>2018-03-18T13:35:02.000Z</time>
      </trkpt>
      <trkpt lat="43.03246" lon="0.55159">
        <ele>520</ele>
        <time>2018-03-18T13:35:04.000Z</time>
      </trkpt>
      <trkpt lat="43.03246" lon="0.55159">
        <ele>520</ele>
        <time>2018-03-18T13:35:06.000Z</time>
      </trkpt>
      <trkpt lat="43.03246" lon="0.55159">
        <ele>520</ele>
        <time>2018-03-18T13:35:08.000Z</time>
      </trkpt>
      <trkpt lat="43.03246" lon="0.5516">
        <ele>520</ele>
        <time>2018-03-18T13:35:10.000Z</time>
      </trkpt>
      <trkpt lat="43.03246" lon="0.5516">
        <ele>520</ele>
        <time>2018-03-18T13:35:12.000Z</time>
      </trkpt>
      <trkpt lat="43.03246" lon="0.5516">
        <ele>520</ele>
        <time>2018-03-18T13:35:14.000Z</time>
      </trkpt>
      <trkpt lat="43.03246" lon="0.5516">
        <ele>520</ele>
        <time>2018-03-18T13:35:16.000Z</time>
      </trkpt>
      <trkpt lat="43.03246" lon="0.5516">
        <ele>520</ele>
        <time>2018-03-18T13:35:18.000Z</time>
      </trkpt>
      <trkpt lat="43.03246" lon="0.5516">
        <ele>520</ele>
        <time>2018-03-18T13:35:20.000Z</time>
      </trkpt>
      <trkpt lat="43.03245" lon="0.5516">
        <ele>520</ele>
        <time>2018-03-18T13:35:22.000Z</time>
      </trkpt>
      <trkpt lat="43.03245" lon="0.55161">
        <ele>520</ele>
        <time>2018-03-18T13:35:24.000Z</time>
      </trkpt>
      <trkpt lat="43.03245" lon="0.55161">
        <ele>520</ele>
        <time>2018-03-18T13:35:26.000Z</time>
      </trkpt>
      <trkpt lat="43.03245" lon="0.55161">
        <ele>520</ele>
        <time>2018-03-18T13:35:28.000Z</time>
      </trkpt>
      <trkpt lat="43.03245" lon="0.5516">
        <ele>520</ele>
        <time>2018-03-18T13:35:30.000Z</time>
      </trkpt>
      <trkpt lat="43.03245" lon="0.5516">
        <ele>520</ele>
        <time>2018-03-18T13:35:32.000Z</time>
      </trkpt>
      <trkpt lat="43.03245" lon="0.5516">
        <ele>520</ele>
        <time>2018-03-18T13:35:34.000Z</time>
      </trkpt>
      <trkpt lat="43.03245" lon="0.5516">
        <ele>520</ele>
        <time>2018-03-18T13:35:36.000Z</time>
      </trkpt>
      <trkpt lat="43.03245" lon="0.5516">
        <ele>520</ele>
        <time>2018-03-18T13:35:38.000Z</time>
      </trkpt>
      <trkpt lat="43.03245" lon="0.5516">
        <ele>520</ele>
        <time>2018-03-18T13:35:40.000Z</time>
      </trkpt>
      <trkpt lat="43.03245" lon="0.5516">
        <ele>520</ele>
        <time>2018-03-18T13:35:42.000Z</time>
      </trkpt>
      <trkpt lat="43.03245" lon="0.55159">
        <ele>520</ele>
        <time>2018-03-18T13:35:44.000Z</time>
      </trkpt>
      <trkpt lat="43.03245" lon="0.55159">
        <ele>520</ele>
        <time>2018-03-18T13:35:46.000Z</time>
      </trkpt>
      <trkpt lat="43.03245" lon="0.55159">
        <ele>520</ele>
        <time>2018-03-18T13:35:48.000Z</time>
      </trkpt>
      <trkpt lat="43.03245" lon="0.55159">
        <ele>520</ele>
        <time>2018-03-18T13:35:50.000Z</time>
      </trkpt>
      <trkpt lat="43.03245" lon="0.55159">
        <ele>520</ele>
        <time>2018-03-18T13:35:52.000Z</time>
      </trkpt>
      <trkpt lat="43.03245" lon="0.55158">
        <ele>520</ele>
        <time>2018-03-18T13:35:54.000Z</time>
      </trkpt>
      <trkpt lat="43.03245" lon="0.55159">
        <ele>520</ele>
        <time>2018-03-18T13:35:56.000Z</time>
      </trkpt>
      <trkpt lat="43.03245" lon="0.55159">
        <ele>520</ele>
        <time>2018-03-18T13:35:58.000Z</time>
      </trkpt>
      <trkpt lat="43.03245" lon="0.55158">
        <ele>520</ele>
        <time>2018-03-18T13:36:00.000Z</time>
      </trkpt>
      <trkpt lat="43.03245" lon="0.55157">
        <ele>520</ele>
        <time>2018-03-18T13:36:02.000Z</time>
      </trkpt>
      <trkpt lat="43.03245" lon="0.55156">
        <ele>520</ele>
        <time>2018-03-18T13:36:04.000Z</time>
      </trkpt>
      <trkpt lat="43.03245" lon="0.55157">
        <ele>520</ele>
        <time>2018-03-18T13:36:06.000Z</time>
      </trkpt>
      <trkpt lat="43.03246" lon="0.55158">
        <ele>520</ele>
        <time>2018-03-18T13:36:08.000Z</time>
      </trkpt>
      <trkpt lat="43.03246" lon="0.55159">
        <ele>520</ele>
        <time>2018-03-18T13:36:10.000Z</time>
      </trkpt>
      <trkpt lat="43.03246" lon="0.55162">
        <ele>520</ele>
        <time>2018-03-18T13:36:12.000Z</time>
      </trkpt>
      <trkpt lat="43.03247" lon="0.55164">
        <ele>520</ele>
        <time>2018-03-18T13:36:14.000Z</time>
      </trkpt>
      <trkpt lat="43.03247" lon="0.55166">
        <ele>520</ele>
        <time>2018-03-18T13:36:16.000Z</time>
      </trkpt>
      <trkpt lat="43.03248" lon="0.55169">
        <ele>520</ele>
        <time>2018-03-18T13:36:18.000Z</time>
      </trkpt>
      <trkpt lat="43.03248" lon="0.55172">
        <ele>520</ele>
        <time>2018-03-18T13:36:20.000Z</time>
      </trkpt>
      <trkpt lat="43.03249" lon="0.55175">
        <ele>520</ele>
        <time>2018-03-18T13:36:22.000Z</time>
      </trkpt>
      <trkpt lat="43.03249" lon="0.55177">
        <ele>520</ele>
        <time>2018-03-18T13:36:24.000Z</time>
      </trkpt>
      <trkpt lat="43.03249" lon="0.5518">
        <ele>520</ele>
        <time>2018-03-18T13:36:26.000Z</time>
      </trkpt>
      <trkpt lat="43.0325" lon="0.55183">
        <ele>520</ele>
        <time>2018-03-18T13:36:28.000Z</time>
      </trkpt>
      <trkpt lat="43.0325" lon="0.55186">
        <ele>520</ele>
        <time>2018-03-18T13:36:30.000Z</time>
      </trkpt>
      <trkpt lat="43.03251" lon="0.55189">
        <ele>520</ele>
        <time>2018-03-18T13:36:32.000Z</time>
      </trkpt>
      <trkpt lat="43.03251" lon="0.55192">
        <ele>520</ele>
        <time>2018-03-18T13:36:34.000Z</time>
      </trkpt>
      <trkpt lat="43.03252" lon="0.55195">
        <ele>520</ele>
        <time>2018-03-18T13:36:36.000Z</time>
      </trkpt>
      <trkpt lat="43.03252" lon="0.55197">
        <ele>520</ele>
        <time>2018-03-18T13:36:38.000Z</time>
      </trkpt>
      <trkpt lat="43.03252" lon="0.552">
        <ele>520</ele>
        <time>2018-03-18T13:36:40.000Z</time>
      </trkpt>
      <trkpt lat="43.03253" lon="0.55203">
        <ele>520</ele>
        <time>2018-03-18T13:36:42.000Z</time>
      </trkpt>
      <trkpt lat="43.03253" lon="0.55206">
        <ele>520</ele>
        <time>2018-03-18T13:36:44.000Z</time>
      </trkpt>
      <trkpt lat="43.03253" lon="0.55209">
        <ele>520</ele>
        <time>2018-03-18T13:36:46.000Z</time>
      </trkpt>
      <trkpt lat="43.03254" lon="0.55211">
        <ele>520</ele>
        <time>2018-03-18T13:36:48.000Z</time>
      </trkpt>
      <trkpt lat="43.03254" lon="0.55214">
        <ele>520</ele>
        <time>2018-03-18T13:36:50.000Z</time>
      </trkpt>
      <trkpt lat="43.03255" lon="0.55217">
        <ele>520</ele>
        <time>2018-03-18T13:36:52.000Z</time>
      </trkpt>
      <trkpt lat="43.03255" lon="0.5522">
        <ele>520</ele>
        <time>2018-03-18T13:36:54.000Z</time>
      </trkpt>
      <trkpt lat="43.03255" lon="0.55223">
        <ele>520</ele>
        <time>2018-03-18T13:36:56.000Z</time>
      </trkpt>
      <trkpt lat="43.03256" lon="0.55225">
        <ele>521</ele>
        <time>2018-03-18T13:36:58.000Z</time>
      </trkpt>
      <trkpt lat="43.03256" lon="0.55228">
        <ele>521</ele>
        <time>2018-03-18T13:37:00.000Z</time>
      </trkpt>
      <trkpt lat="43.03256" lon="0.55231">
        <ele>521</ele>
        <time>2018-03-18T13:37:02.000Z</time>
      </trkpt>
      <trkpt lat="43.03257" lon="0.55234">
        <ele>521</ele>
        <time>2018-03-18T13:37:04.000Z</time>
      </trkpt>
      <trkpt lat="43.03257" lon="0.55237">
        <ele>521</ele>
        <time>2018-03-18T13:37:06.000Z</time>
      </trkpt>
      <trkpt lat="43.03257" lon="0.5524">
        <ele>522</ele>
        <time>2018-03-18T13:37:08.000Z</time>
      </trkpt>
      <trkpt lat="43.03258" lon="0.55242">
        <ele>522</ele>
        <time>2018-03-18T13:37:10.000Z</time>
      </trkpt>
      <trkpt lat="43.03259" lon="0.55245">
        <ele>522</ele>
        <time>2018-03-18T13:37:12.000Z</time>
      </trkpt>
      <trkpt lat="43.03259" lon="0.55247">
        <ele>522</ele>
        <time>2018-03-18T13:37:14.000Z</time>
      </trkpt>
      <trkpt lat="43.03259" lon="0.55249">
        <ele>522</ele>
        <time>2018-03-18T13:37:16.000Z</time>
      </trkpt>
      <trkpt lat="43.0326" lon="0.55252">
        <ele>522</ele>
        <time>2018-03-18T13:37:18.000Z</time>
      </trkpt>
      <trkpt lat="43.0326" lon="0.55255">
        <ele>523</ele>
        <time>2018-03-18T13:37:20.000Z</time>
      </trkpt>
      <trkpt lat="43.0326" lon="0.55258">
        <ele>523</ele>
        <time>2018-03-18T13:37:22.000Z</time>
      </trkpt>
      <trkpt lat="43.0326" lon="0.5526">
        <ele>523</ele>
        <time>2018-03-18T13:37:24.000Z</time>
      </trkpt>
      <trkpt lat="43.0326" lon="0.55263">
        <ele>523</ele>
        <time>2018-03-18T13:37:26.000Z</time>
      </trkpt>
      <trkpt lat="43.0326" lon="0.55266">
        <ele>523</ele>
        <time>2018-03-18T13:37:28.000Z</time>
      </trkpt>
      <trkpt lat="43.0326" lon="0.55268">
        <ele>523</ele>
        <time>2018-03-18T13:37:30.000Z</time>
      </trkpt>
      <trkpt lat="43.03261" lon="0.55271">
        <ele>524</ele>
        <time>2018-03-18T13:37:32.000Z</time>
      </trkpt>
      <trkpt lat="43.03261" lon="0.55273">
        <ele>524</ele>
        <time>2018-03-18T13:37:34.000Z</time>
      </trkpt>
      <trkpt lat="43.03262" lon="0.55276">
        <ele>524</ele>
        <time>2018-03-18T13:37:36.000Z</time>
      </trkpt>
      <trkpt lat="43.03262" lon="0.55279">
        <ele>524</ele>
        <time>2018-03-18T13:37:38.000Z</time>
      </trkpt>
      <trkpt lat="43.03263" lon="0.55281">
        <ele>524</ele>
        <time>2018-03-18T13:37:40.000Z</time>
      </trkpt>
      <trkpt lat="43.03264" lon="0.55284">
        <ele>524</ele>
        <time>2018-03-18T13:37:42.000Z</time>
      </trkpt>
      <trkpt lat="43.03264" lon="0.55287">
        <ele>524</ele>
        <time>2018-03-18T13:37:44.000Z</time>
      </trkpt>
      <trkpt lat="43.03265" lon="0.55289">
        <ele>524</ele>
        <time>2018-03-18T13:37:46.000Z</time>
      </trkpt>
      <trkpt lat="43.03265" lon="0.55292">
        <ele>524</ele>
        <time>2018-03-18T13:37:48.000Z</time>
      </trkpt>
      <trkpt lat="43.03265" lon="0.55295">
        <ele>525</ele>
        <time>2018-03-18T13:37:50.000Z</time>
      </trkpt>
      <trkpt lat="43.03265" lon="0.55298">
        <ele>525</ele>
        <time>2018-03-18T13:37:52.000Z</time>
      </trkpt>
      <trkpt lat="43.03266" lon="0.553">
        <ele>525</ele>
        <time>2018-03-18T13:37:54.000Z</time>
      </trkpt>
      <trkpt lat="43.03266" lon="0.55303">
        <ele>525</ele>
        <time>2018-03-18T13:37:56.000Z</time>
      </trkpt>
      <trkpt lat="43.03267" lon="0.55305">
        <ele>525</ele>
        <time>2018-03-18T13:37:58.000Z</time>
      </trkpt>
      <trkpt lat="43.03267" lon="0.55308">
        <ele>525</ele>
        <time>2018-03-18T13:38:00.000Z</time>
      </trkpt>
      <trkpt lat="43.03267" lon="0.55311">
        <ele>526</ele>
        <time>2018-03-18T13:38:02.000Z</time>
      </trkpt>
      <trkpt lat="43.03267" lon="0.55314">
        <ele>526</ele>
        <time>2018-03-18T13:38:04.000Z</time>
      </trkpt>
      <trkpt lat="43.03267" lon="0.55317">
        <ele>526</ele>
        <time>2018-03-18T13:38:06.000Z</time>
      </trkpt>
      <trkpt lat="43.03267" lon="0.5532">
        <ele>527</ele>
        <time>2018-03-18T13:38:08.000Z</time>
      </trkpt>
      <trkpt lat="43.03267" lon="0.55323">
        <ele>527</ele>
        <time>2018-03-18T13:38:10.000Z</time>
      </trkpt>
      <trkpt lat="43.03267" lon="0.55326">
        <ele>528</ele>
        <time>2018-03-18T13:38:12.000Z</time>
      </trkpt>
      <trkpt lat="43.03267" lon="0.55328">
        <ele>528</ele>
        <time>2018-03-18T13:38:14.000Z</time>
      </trkpt>
      <trkpt lat="43.03267" lon="0.55331">
        <ele>528</ele>
        <time>2018-03-18T13:38:16.000Z</time>
      </trkpt>
      <trkpt lat="43.03268" lon="0.55332">
        <ele>528</ele>
        <time>2018-03-18T13:38:18.000Z</time>
      </trkpt>
      <trkpt lat="43.03268" lon="0.55335">
        <ele>529</ele>
        <time>2018-03-18T13:38:20.000Z</time>
      </trkpt>
      <trkpt lat="43.03269" lon="0.55338">
        <ele>529</ele>
        <time>2018-03-18T13:38:22.000Z</time>
      </trkpt>
      <trkpt lat="43.0327" lon="0.55339">
        <ele>529</ele>
        <time>2018-03-18T13:38:24.000Z</time>
      </trkpt>
      <trkpt lat="43.0327" lon="0.55342">
        <ele>529</ele>
        <time>2018-03-18T13:38:26.000Z</time>
      </trkpt>
      <trkpt lat="43.03271" lon="0.55343">
        <ele>529</ele>
        <time>2018-03-18T13:38:28.000Z</time>
      </trkpt>
      <trkpt lat="43.03272" lon="0.55345">
        <ele>529</ele>
        <time>2018-03-18T13:38:30.000Z</time>
      </trkpt>
      <trkpt lat="43.03273" lon="0.55347">
        <ele>529</ele>
        <time>2018-03-18T13:38:32.000Z</time>
      </trkpt>
      <trkpt lat="43.03274" lon="0.55348">
        <ele>529</ele>
        <time>2018-03-18T13:38:34.000Z</time>
      </trkpt>
      <trkpt lat="43.03275" lon="0.5535">
        <ele>529</ele>
        <time>2018-03-18T13:38:36.000Z</time>
      </trkpt>
      <trkpt lat="43.03277" lon="0.55352">
        <ele>529</ele>
        <time>2018-03-18T13:38:38.000Z</time>
      </trkpt>
      <trkpt lat="43.03278" lon="0.55354">
        <ele>529</ele>
        <time>2018-03-18T13:38:40.000Z</time>
      </trkpt>
      <trkpt lat="43.03279" lon="0.55355">
        <ele>529</ele>
        <time>2018-03-18T13:38:42.000Z</time>
      </trkpt>
      <trkpt lat="43.0328" lon="0.55356">
        <ele>529</ele>
        <time>2018-03-18T13:38:44.000Z</time>
      </trkpt>
      <trkpt lat="43.0328" lon="0.55359">
        <ele>529</ele>
        <time>2018-03-18T13:38:46.000Z</time>
      </trkpt>
      <trkpt lat="43.0328" lon="0.55362">
        <ele>529</ele>
        <time>2018-03-18T13:38:48.000Z</time>
      </trkpt>
      <trkpt lat="43.03281" lon="0.55365">
        <ele>530</ele>
        <time>2018-03-18T13:38:50.000Z</time>
      </trkpt>
      <trkpt lat="43.03281" lon="0.55367">
        <ele>530</ele>
        <time>2018-03-18T13:38:52.000Z</time>
      </trkpt>
      <trkpt lat="43.03281" lon="0.5537">
        <ele>530</ele>
        <time>2018-03-18T13:38:54.000Z</time>
      </trkpt>
      <trkpt lat="43.03281" lon="0.55373">
        <ele>531</ele>
        <time>2018-03-18T13:38:56.000Z</time>
      </trkpt>
      <trkpt lat="43.03281" lon="0.55376">
        <ele>531</ele>
        <time>2018-03-18T13:38:58.000Z</time>
      </trkpt>
      <trkpt lat="43.03282" lon="0.55379">
        <ele>531</ele>
        <time>2018-03-18T13:39:00.000Z</time>
      </trkpt>
      <trkpt lat="43.03282" lon="0.55381">
        <ele>532</ele>
        <time>2018-03-18T13:39:02.000Z</time>
      </trkpt>
      <trkpt lat="43.03283" lon="0.55384">
        <ele>532</ele>
        <time>2018-03-18T13:39:04.000Z</time>
      </trkpt>
      <trkpt lat="43.03284" lon="0.55387">
        <ele>532</ele>
        <time>2018-03-18T13:39:06.000Z</time>
      </trkpt>
      <trkpt lat="43.03283" lon="0.5539">
        <ele>532</ele>
        <time>2018-03-18T13:39:08.000Z</time>
      </trkpt>
      <trkpt lat="43.03284" lon="0.55392">
        <ele>532</ele>
        <time>2018-03-18T13:39:10.000Z</time>
      </trkpt>
      <trkpt lat="43.03284" lon="0.55394">
        <ele>532</ele>
        <time>2018-03-18T13:39:12.000Z</time>
      </trkpt>
      <trkpt lat="43.03284" lon="0.55396">
        <ele>532</ele>
        <time>2018-03-18T13:39:14.000Z</time>
      </trkpt>
      <trkpt lat="43.03285" lon="0.55398">
        <ele>531</ele>
        <time>2018-03-18T13:39:16.000Z</time>
      </trkpt>
      <trkpt lat="43.03285" lon="0.55401">
        <ele>531</ele>
        <time>2018-03-18T13:39:18.000Z</time>
      </trkpt>
      <trkpt lat="43.03286" lon="0.55403">
        <ele>531</ele>
        <time>2018-03-18T13:39:20.000Z</time>
      </trkpt>
      <trkpt lat="43.03287" lon="0.55406">
        <ele>531</ele>
        <time>2018-03-18T13:39:22.000Z</time>
      </trkpt>
      <trkpt lat="43.03288" lon="0.5541">
        <ele>530</ele>
        <time>2018-03-18T13:39:24.000Z</time>
      </trkpt>
      <trkpt lat="43.03289" lon="0.55413">
        <ele>530</ele>
        <time>2018-03-18T13:39:26.000Z</time>
      </trkpt>
      <trkpt lat="43.0329" lon="0.55416">
        <ele>530</ele>
        <time>2018-03-18T13:39:28.000Z</time>
      </trkpt>
      <trkpt lat="43.0329" lon="0.55419">
        <ele>530</ele>
        <time>2018-03-18T13:39:30.000Z</time>
      </trkpt>
      <trkpt lat="43.03291" lon="0.55421">
        <ele>530</ele>
        <time>2018-03-18T13:39:32.000Z</time>
      </trkpt>
      <trkpt lat="43.03293" lon="0.55425">
        <ele>530</ele>
        <time>2018-03-18T13:39:34.000Z</time>
      </trkpt>
      <trkpt lat="43.03294" lon="0.55427">
        <ele>530</ele>
        <time>2018-03-18T13:39:36.000Z</time>
      </trkpt>
      <trkpt lat="43.03294" lon="0.5543">
        <ele>530</ele>
        <time>2018-03-18T13:39:38.000Z</time>
      </trkpt>
      <trkpt lat="43.03296" lon="0.55433">
        <ele>530</ele>
        <time>2018-03-18T13:39:40.000Z</time>
      </trkpt>
      <trkpt lat="43.03297" lon="0.55435">
        <ele>530</ele>
        <time>2018-03-18T13:39:42.000Z</time>
      </trkpt>
      <trkpt lat="43.03298" lon="0.55438">
        <ele>530</ele>
        <time>2018-03-18T13:39:44.000Z</time>
      </trkpt>
      <trkpt lat="43.03298" lon="0.5544">
        <ele>530</ele>
        <time>2018-03-18T13:39:46.000Z</time>
      </trkpt>
      <trkpt lat="43.03298" lon="0.55443">
        <ele>531</ele>
        <time>2018-03-18T13:39:48.000Z</time>
      </trkpt>
      <trkpt lat="43.03298" lon="0.55446">
        <ele>531</ele>
        <time>2018-03-18T13:39:50.000Z</time>
      </trkpt>
      <trkpt lat="43.03299" lon="0.55448">
        <ele>531</ele>
        <time>2018-03-18T13:39:52.000Z</time>
      </trkpt>
      <trkpt lat="43.033" lon="0.55451">
        <ele>531</ele>
        <time>2018-03-18T13:39:54.000Z</time>
      </trkpt>
      <trkpt lat="43.03301" lon="0.55453">
        <ele>531</ele>
        <time>2018-03-18T13:39:56.000Z</time>
      </trkpt>
      <trkpt lat="43.03302" lon="0.55456">
        <ele>531</ele>
        <time>2018-03-18T13:39:58.000Z</time>
      </trkpt>
      <trkpt lat="43.03303" lon="0.55458">
        <ele>531</ele>
        <time>2018-03-18T13:40:00.000Z</time>
      </trkpt>
      <trkpt lat="43.03303" lon="0.5546">
        <ele>531</ele>
        <time>2018-03-18T13:40:02.000Z</time>
      </trkpt>
      <trkpt lat="43.03304" lon="0.55462">
        <ele>531</ele>
        <time>2018-03-18T13:40:04.000Z</time>
      </trkpt>
      <trkpt lat="43.03305" lon="0.55465">
        <ele>531</ele>
        <time>2018-03-18T13:40:06.000Z</time>
      </trkpt>
      <trkpt lat="43.03307" lon="0.55468">
        <ele>531</ele>
        <time>2018-03-18T13:40:08.000Z</time>
      </trkpt>
      <trkpt lat="43.03307" lon="0.5547">
        <ele>531</ele>
        <time>2018-03-18T13:40:10.000Z</time>
      </trkpt>
      <trkpt lat="43.03308" lon="0.55472">
        <ele>530</ele>
        <time>2018-03-18T13:40:12.000Z</time>
      </trkpt>
      <trkpt lat="43.03309" lon="0.55474">
        <ele>530</ele>
        <time>2018-03-18T13:40:14.000Z</time>
      </trkpt>
      <trkpt lat="43.0331" lon="0.55476">
        <ele>530</ele>
        <time>2018-03-18T13:40:16.000Z</time>
      </trkpt>
      <trkpt lat="43.03311" lon="0.55479">
        <ele>529</ele>
        <time>2018-03-18T13:40:18.000Z</time>
      </trkpt>
      <trkpt lat="43.03312" lon="0.55481">
        <ele>529</ele>
        <time>2018-03-18T13:40:20.000Z</time>
      </trkpt>
      <trkpt lat="43.03313" lon="0.55483">
        <ele>529</ele>
        <time>2018-03-18T13:40:22.000Z</time>
      </trkpt>
      <trkpt lat="43.03314" lon="0.55485">
        <ele>528</ele>
        <time>2018-03-18T13:40:24.000Z</time>
      </trkpt>
      <trkpt lat="43.03315" lon="0.55486">
        <ele>528</ele>
        <time>2018-03-18T13:40:26.000Z</time>
      </trkpt>
      <trkpt lat="43.03316" lon="0.55488">
        <ele>528</ele>
        <time>2018-03-18T13:40:28.000Z</time>
      </trkpt>
      <trkpt lat="43.03317" lon="0.5549">
        <ele>527</ele>
        <time>2018-03-18T13:40:30.000Z</time>
      </trkpt>
      <trkpt lat="43.03316" lon="0.55491">
        <ele>527</ele>
        <time>2018-03-18T13:40:32.000Z</time>
      </trkpt>
      <trkpt lat="43.03316" lon="0.55492">
        <ele>527</ele>
        <time>2018-03-18T13:40:34.000Z</time>
      </trkpt>
      <trkpt lat="43.03317" lon="0.55493">
        <ele>527</ele>
        <time>2018-03-18T13:40:36.000Z</time>
      </trkpt>
      <trkpt lat="43.03317" lon="0.55494">
        <ele>527</ele>
        <time>2018-03-18T13:40:38.000Z</time>
      </trkpt>
      <trkpt lat="43.03319" lon="0.55495">
        <ele>527</ele>
        <time>2018-03-18T13:40:40.000Z</time>
      </trkpt>
      <trkpt lat="43.03319" lon="0.55496">
        <ele>526</ele>
        <time>2018-03-18T13:40:42.000Z</time>
      </trkpt>
      <trkpt lat="43.0332" lon="0.55498">
        <ele>526</ele>
        <time>2018-03-18T13:40:44.000Z</time>
      </trkpt>
      <trkpt lat="43.03321" lon="0.555">
        <ele>526</ele>
        <time>2018-03-18T13:40:46.000Z</time>
      </trkpt>
      <trkpt lat="43.03322" lon="0.55502">
        <ele>525</ele>
        <time>2018-03-18T13:40:48.000Z</time>
      </trkpt>
      <trkpt lat="43.03323" lon="0.55504">
        <ele>525</ele>
        <time>2018-03-18T13:40:50.000Z</time>
      </trkpt>
      <trkpt lat="43.03324" lon="0.55506">
        <ele>525</ele>
        <time>2018-03-18T13:40:52.000Z</time>
      </trkpt>
      <trkpt lat="43.03325" lon="0.55508">
        <ele>524</ele>
        <time>2018-03-18T13:40:54.000Z</time>
      </trkpt>
      <trkpt lat="43.03327" lon="0.5551">
        <ele>524</ele>
        <time>2018-03-18T13:40:56.000Z</time>
      </trkpt>
      <trkpt lat="43.03327" lon="0.55512">
        <ele>523</ele>
        <time>2018-03-18T13:40:58.000Z</time>
      </trkpt>
      <trkpt lat="43.03328" lon="0.55515">
        <ele>523</ele>
        <time>2018-03-18T13:41:00.000Z</time>
      </trkpt>
      <trkpt lat="43.03329" lon="0.55517">
        <ele>523</ele>
        <time>2018-03-18T13:41:02.000Z</time>
      </trkpt>
      <trkpt lat="43.03329" lon="0.5552">
        <ele>523</ele>
        <time>2018-03-18T13:41:04.000Z</time>
      </trkpt>
      <trkpt lat="43.03331" lon="0.55522">
        <ele>522</ele>
        <time>2018-03-18T13:41:06.000Z</time>
      </trkpt>
      <trkpt lat="43.03331" lon="0.55524">
        <ele>522</ele>
        <time>2018-03-18T13:41:08.000Z</time>
      </trkpt>
      <trkpt lat="43.03332" lon="0.55526">
        <ele>522</ele>
        <time>2018-03-18T13:41:10.000Z</time>
      </trkpt>
      <trkpt lat="43.03332" lon="0.55529">
        <ele>522</ele>
        <time>2018-03-18T13:41:12.000Z</time>
      </trkpt>
      <trkpt lat="43.03333" lon="0.55532">
        <ele>522</ele>
        <time>2018-03-18T13:41:14.000Z</time>
      </trkpt>
      <trkpt lat="43.03333" lon="0.55535">
        <ele>521</ele>
        <time>2018-03-18T13:41:16.000Z</time>
      </trkpt>
      <trkpt lat="43.03334" lon="0.55537">
        <ele>521</ele>
        <time>2018-03-18T13:41:18.000Z</time>
      </trkpt>
      <trkpt lat="43.03334" lon="0.55539">
        <ele>521</ele>
        <time>2018-03-18T13:41:20.000Z</time>
      </trkpt>
      <trkpt lat="43.03335" lon="0.55541">
        <ele>521</ele>
        <time>2018-03-18T13:41:22.000Z</time>
      </trkpt>
      <trkpt lat="43.03336" lon="0.55543">
        <ele>521</ele>
        <time>2018-03-18T13:41:24.000Z</time>
      </trkpt>
      <trkpt lat="43.03336" lon="0.55545">
        <ele>521</ele>
        <time>2018-03-18T13:41:26.000Z</time>
      </trkpt>
      <trkpt lat="43.03337" lon="0.55547">
        <ele>520</ele>
        <time>2018-03-18T13:41:28.000Z</time>
      </trkpt>
      <trkpt lat="43.03337" lon="0.55549">
        <ele>520</ele>
        <time>2018-03-18T13:41:30.000Z</time>
      </trkpt>
      <trkpt lat="43.03338" lon="0.55552">
        <ele>520</ele>
        <time>2018-03-18T13:41:32.000Z</time>
      </trkpt>
      <trkpt lat="43.03337" lon="0.55555">
        <ele>521</ele>
        <time>2018-03-18T13:41:34.000Z</time>
      </trkpt>
      <trkpt lat="43.03338" lon="0.55557">
        <ele>520</ele>
        <time>2018-03-18T13:41:36.000Z</time>
      </trkpt>
      <trkpt lat="43.03337" lon="0.55561">
        <ele>520</ele>
        <time>2018-03-18T13:41:38.000Z</time>
      </trkpt>
      <trkpt lat="43.03338" lon="0.55564">
        <ele>520</ele>
        <time>2018-03-18T13:41:40.000Z</time>
      </trkpt>
      <trkpt lat="43.03338" lon="0.55567">
        <ele>520</ele>
        <time>2018-03-18T13:41:42.000Z</time>
      </trkpt>
      <trkpt lat="43.03337" lon="0.5557">
        <ele>520</ele>
        <time>2018-03-18T13:41:44.000Z</time>
      </trkpt>
      <trkpt lat="43.03336" lon="0.55573">
        <ele>521</ele>
        <time>2018-03-18T13:41:46.000Z</time>
      </trkpt>
      <trkpt lat="43.03336" lon="0.55575">
        <ele>521</ele>
        <time>2018-03-18T13:41:48.000Z</time>
      </trkpt>
      <trkpt lat="43.03335" lon="0.55578">
        <ele>521</ele>
        <time>2018-03-18T13:41:50.000Z</time>
      </trkpt>
      <trkpt lat="43.03335" lon="0.5558">
        <ele>521</ele>
        <time>2018-03-18T13:41:52.000Z</time>
      </trkpt>
      <trkpt lat="43.03335" lon="0.55583">
        <ele>521</ele>
        <time>2018-03-18T13:41:54.000Z</time>
      </trkpt>
      <trkpt lat="43.03335" lon="0.55587">
        <ele>521</ele>
        <time>2018-03-18T13:41:56.000Z</time>
      </trkpt>
      <trkpt lat="43.03334" lon="0.5559">
        <ele>521</ele>
        <time>2018-03-18T13:41:58.000Z</time>
      </trkpt>
      <trkpt lat="43.03334" lon="0.55594">
        <ele>521</ele>
        <time>2018-03-18T13:42:00.000Z</time>
      </trkpt>
      <trkpt lat="43.03335" lon="0.55596">
        <ele>521</ele>
        <time>2018-03-18T13:42:02.000Z</time>
      </trkpt>
      <trkpt lat="43.03335" lon="0.55598">
        <ele>521</ele>
        <time>2018-03-18T13:42:04.000Z</time>
      </trkpt>
      <trkpt lat="43.03336" lon="0.556">
        <ele>520</ele>
        <time>2018-03-18T13:42:06.000Z</time>
      </trkpt>
      <trkpt lat="43.03337" lon="0.55603">
        <ele>520</ele>
        <time>2018-03-18T13:42:08.000Z</time>
      </trkpt>
      <trkpt lat="43.03337" lon="0.55605">
        <ele>519</ele>
        <time>2018-03-18T13:42:10.000Z</time>
      </trkpt>
      <trkpt lat="43.03337" lon="0.55608">
        <ele>520</ele>
        <time>2018-03-18T13:42:12.000Z</time>
      </trkpt>
      <trkpt lat="43.03336" lon="0.5561">
        <ele>520</ele>
        <time>2018-03-18T13:42:14.000Z</time>
      </trkpt>
      <trkpt lat="43.03337" lon="0.55613">
        <ele>519</ele>
        <time>2018-03-18T13:42:16.000Z</time>
      </trkpt>
      <trkpt lat="43.03338" lon="0.55615">
        <ele>519</ele>
        <time>2018-03-18T13:42:18.000Z</time>
      </trkpt>
      <trkpt lat="43.03338" lon="0.55618">
        <ele>519</ele>
        <time>2018-03-18T13:42:20.000Z</time>
      </trkpt>
      <trkpt lat="43.03338" lon="0.55621">
        <ele>518</ele>
        <time>2018-03-18T13:42:22.000Z</time>
      </trkpt>
      <trkpt lat="43.03339" lon="0.55624">
        <ele>518</ele>
        <time>2018-03-18T13:42:24.000Z</time>
      </trkpt>
      <trkpt lat="43.03339" lon="0.55626">
        <ele>518</ele>
        <time>2018-03-18T13:42:26.000Z</time>
      </trkpt>
      <trkpt lat="43.0334" lon="0.55629">
        <ele>517</ele>
        <time>2018-03-18T13:42:28.000Z</time>
      </trkpt>
      <trkpt lat="43.03341" lon="0.55632">
        <ele>517</ele>
        <time>2018-03-18T13:42:30.000Z</time>
      </trkpt>
      <trkpt lat="43.03342" lon="0.55635">
        <ele>516</ele>
        <time>2018-03-18T13:42:32.000Z</time>
      </trkpt>
      <trkpt lat="43.03342" lon="0.55638">
        <ele>516</ele>
        <time>2018-03-18T13:42:34.000Z</time>
      </trkpt>
      <trkpt lat="43.03343" lon="0.5564">
        <ele>516</ele>
        <time>2018-03-18T13:42:36.000Z</time>
      </trkpt>
      <trkpt lat="43.03343" lon="0.55643">
        <ele>515</ele>
        <time>2018-03-18T13:42:38.000Z</time>
      </trkpt>
      <trkpt lat="43.03342" lon="0.55647">
        <ele>515</ele>
        <time>2018-03-18T13:42:40.000Z</time>
      </trkpt>
      <trkpt lat="43.03341" lon="0.55651">
        <ele>516</ele>
        <time>2018-03-18T13:42:42.000Z</time>
      </trkpt>
      <trkpt lat="43.0334" lon="0.55654">
        <ele>517</ele>
        <time>2018-03-18T13:42:44.000Z</time>
      </trkpt>
      <trkpt lat="43.0334" lon="0.55657">
        <ele>516</ele>
        <time>2018-03-18T13:42:46.000Z</time>
      </trkpt>
      <trkpt lat="43.0334" lon="0.5566">
        <ele>516</ele>
        <time>2018-03-18T13:42:48.000Z</time>
      </trkpt>
      <trkpt lat="43.0334" lon="0.55663">
        <ele>516</ele>
        <time>2018-03-18T13:42:50.000Z</time>
      </trkpt>
      <trkpt lat="43.03339" lon="0.55666">
        <ele>517</ele>
        <time>2018-03-18T13:42:52.000Z</time>
      </trkpt>
      <trkpt lat="43.0334" lon="0.55669">
        <ele>516</ele>
        <time>2018-03-18T13:42:54.000Z</time>
      </trkpt>
      <trkpt lat="43.0334" lon="0.55671">
        <ele>516</ele>
        <time>2018-03-18T13:42:56.000Z</time>
      </trkpt>
      <trkpt lat="43.0334" lon="0.55673">
        <ele>516</ele>
        <time>2018-03-18T13:42:58.000Z</time>
      </trkpt>
      <trkpt lat="43.0334" lon="0.55676">
        <ele>516</ele>
        <time>2018-03-18T13:43:00.000Z</time>
      </trkpt>
      <trkpt lat="43.0334" lon="0.55678">
        <ele>515</ele>
        <time>2018-03-18T13:43:02.000Z</time>
      </trkpt>
      <trkpt lat="43.03341" lon="0.55681">
        <ele>515</ele>
        <time>2018-03-18T13:43:04.000Z</time>
      </trkpt>
      <trkpt lat="43.03341" lon="0.55684">
        <ele>515</ele>
        <time>2018-03-18T13:43:06.000Z</time>
      </trkpt>
      <trkpt lat="43.03342" lon="0.55686">
        <ele>514</ele>
        <time>2018-03-18T13:43:08.000Z</time>
      </trkpt>
      <trkpt lat="43.03343" lon="0.55689">
        <ele>514</ele>
        <time>2018-03-18T13:43:10.000Z</time>
      </trkpt>
      <trkpt lat="43.03345" lon="0.55692">
        <ele>513</ele>
        <time>2018-03-18T13:43:12.000Z</time>
      </trkpt>
      <trkpt lat="43.03345" lon="0.55695">
        <ele>513</ele>
        <time>2018-03-18T13:43:14.000Z</time>
      </trkpt>
      <trkpt lat="43.03346" lon="0.55698">
        <ele>513</ele>
        <time>2018-03-18T13:43:16.000Z</time>
      </trkpt>
      <trkpt lat="43.03346" lon="0.557">
        <ele>512</ele>
        <time>2018-03-18T13:43:18.000Z</time>
      </trkpt>
      <trkpt lat="43.03346" lon="0.55703">
        <ele>512</ele>
        <time>2018-03-18T13:43:20.000Z</time>
      </trkpt>
      <trkpt lat="43.03347" lon="0.55706">
        <ele>512</ele>
        <time>2018-03-18T13:43:22.000Z</time>
      </trkpt>
      <trkpt lat="43.03347" lon="0.55708">
        <ele>512</ele>
        <time>2018-03-18T13:43:24.000Z</time>
      </trkpt>
      <trkpt lat="43.03347" lon="0.5571">
        <ele>512</ele>
        <time>2018-03-18T13:43:26.000Z</time>
      </trkpt>
      <trkpt lat="43.03348" lon="0.55713">
        <ele>511</ele>
        <time>2018-03-18T13:43:28.000Z</time>
      </trkpt>
      <trkpt lat="43.03348" lon="0.55716">
        <ele>511</ele>
        <time>2018-03-18T13:43:30.000Z</time>
      </trkpt>
      <trkpt lat="43.03349" lon="0.55719">
        <ele>511</ele>
        <time>2018-03-18T13:43:32.000Z</time>
      </trkpt>
      <trkpt lat="43.03348" lon="0.55723">
        <ele>511</ele>
        <time>2018-03-18T13:43:34.000Z</time>
      </trkpt>
      <trkpt lat="43.03348" lon="0.55725">
        <ele>511</ele>
        <time>2018-03-18T13:43:36.000Z</time>
      </trkpt>
      <trkpt lat="43.03348" lon="0.55728">
        <ele>511</ele>
        <time>2018-03-18T13:43:38.000Z</time>
      </trkpt>
      <trkpt lat="43.03347" lon="0.55731">
        <ele>511</ele>
        <time>2018-03-18T13:43:40.000Z</time>
      </trkpt>
      <trkpt lat="43.03348" lon="0.55734">
        <ele>511</ele>
        <time>2018-03-18T13:43:42.000Z</time>
      </trkpt>
      <trkpt lat="43.03348" lon="0.55737">
        <ele>511</ele>
        <time>2018-03-18T13:43:44.000Z</time>
      </trkpt>
      <trkpt lat="43.03348" lon="0.5574">
        <ele>511</ele>
        <time>2018-03-18T13:43:46.000Z</time>
      </trkpt>
      <trkpt lat="43.03348" lon="0.55743">
        <ele>510</ele>
        <time>2018-03-18T13:43:48.000Z</time>
      </trkpt>
      <trkpt lat="43.03349" lon="0.55746">
        <ele>510</ele>
        <time>2018-03-18T13:43:50.000Z</time>
      </trkpt>
      <trkpt lat="43.03349" lon="0.55749">
        <ele>510</ele>
        <time>2018-03-18T13:43:52.000Z</time>
      </trkpt>
      <trkpt lat="43.0335" lon="0.55751">
        <ele>510</ele>
        <time>2018-03-18T13:43:54.000Z</time>
      </trkpt>
      <trkpt lat="43.03351" lon="0.55754">
        <ele>509</ele>
        <time>2018-03-18T13:43:56.000Z</time>
      </trkpt>
      <trkpt lat="43.03351" lon="0.55757">
        <ele>509</ele>
        <time>2018-03-18T13:43:58.000Z</time>
      </trkpt>
      <trkpt lat="43.03351" lon="0.5576">
        <ele>509</ele>
        <time>2018-03-18T13:44:00.000Z</time>
      </trkpt>
      <trkpt lat="43.0335" lon="0.55763">
        <ele>509</ele>
        <time>2018-03-18T13:44:02.000Z</time>
      </trkpt>
      <trkpt lat="43.03349" lon="0.55765">
        <ele>509</ele>
        <time>2018-03-18T13:44:04.000Z</time>
      </trkpt>
      <trkpt lat="43.03348" lon="0.55767">
        <ele>510</ele>
        <time>2018-03-18T13:44:06.000Z</time>
      </trkpt>
      <trkpt lat="43.03347" lon="0.55769">
        <ele>510</ele>
        <time>2018-03-18T13:44:08.000Z</time>
      </trkpt>
      <trkpt lat="43.03347" lon="0.55772">
        <ele>510</ele>
        <time>2018-03-18T13:44:10.000Z</time>
      </trkpt>
      <trkpt lat="43.03347" lon="0.55775">
        <ele>510</ele>
        <time>2018-03-18T13:44:12.000Z</time>
      </trkpt>
      <trkpt lat="43.03347" lon="0.55778">
        <ele>509</ele>
        <time>2018-03-18T13:44:14.000Z</time>
      </trkpt>
      <trkpt lat="43.03347" lon="0.55781">
        <ele>509</ele>
        <time>2018-03-18T13:44:16.000Z</time>
      </trkpt>
      <trkpt lat="43.03347" lon="0.55784">
        <ele>509</ele>
        <time>2018-03-18T13:44:18.000Z</time>
      </trkpt>
      <trkpt lat="43.03347" lon="0.55786">
        <ele>509</ele>
        <time>2018-03-18T13:44:20.000Z</time>
      </trkpt>
      <trkpt lat="43.03347" lon="0.55789">
        <ele>509</ele>
        <time>2018-03-18T13:44:22.000Z</time>
      </trkpt>
      <trkpt lat="43.03348" lon="0.55792">
        <ele>509</ele>
        <time>2018-03-18T13:44:24.000Z</time>
      </trkpt>
      <trkpt lat="43.03349" lon="0.55795">
        <ele>508</ele>
        <time>2018-03-18T13:44:26.000Z</time>
      </trkpt>
      <trkpt lat="43.03349" lon="0.55798">
        <ele>508</ele>
        <time>2018-03-18T13:44:28.000Z</time>
      </trkpt>
      <trkpt lat="43.03349" lon="0.55801">
        <ele>508</ele>
        <time>2018-03-18T13:44:30.000Z</time>
      </trkpt>
      <trkpt lat="43.03349" lon="0.55804">
        <ele>508</ele>
        <time>2018-03-18T13:44:32.000Z</time>
      </trkpt>
      <trkpt lat="43.03349" lon="0.55808">
        <ele>508</ele>
        <time>2018-03-18T13:44:34.000Z</time>
      </trkpt>
      <trkpt lat="43.03349" lon="0.5581">
        <ele>508</ele>
        <time>2018-03-18T13:44:36.000Z</time>
      </trkpt>
      <trkpt lat="43.03349" lon="0.55813">
        <ele>508</ele>
        <time>2018-03-18T13:44:38.000Z</time>
      </trkpt>
      <trkpt lat="43.03349" lon="0.55816">
        <ele>508</ele>
        <time>2018-03-18T13:44:40.000Z</time>
      </trkpt>
      <trkpt lat="43.03349" lon="0.55818">
        <ele>508</ele>
        <time>2018-03-18T13:44:42.000Z</time>
      </trkpt>
      <trkpt lat="43.03349" lon="0.55821">
        <ele>508</ele>
        <time>2018-03-18T13:44:44.000Z</time>
      </trkpt>
      <trkpt lat="43.0335" lon="0.55823">
        <ele>508</ele>
        <time>2018-03-18T13:44:46.000Z</time>
      </trkpt>
      <trkpt lat="43.0335" lon="0.55826">
        <ele>508</ele>
        <time>2018-03-18T13:44:48.000Z</time>
      </trkpt>
      <trkpt lat="43.0335" lon="0.5583">
        <ele>508</ele>
        <time>2018-03-18T13:44:50.000Z</time>
      </trkpt>
      <trkpt lat="43.0335" lon="0.55833">
        <ele>508</ele>
        <time>2018-03-18T13:44:52.000Z</time>
      </trkpt>
      <trkpt lat="43.0335" lon="0.55836">
        <ele>508</ele>
        <time>2018-03-18T13:44:54.000Z</time>
      </trkpt>
      <trkpt lat="43.0335" lon="0.5584">
        <ele>508</ele>
        <time>2018-03-18T13:44:56.000Z</time>
      </trkpt>
      <trkpt lat="43.0335" lon="0.55843">
        <ele>508</ele>
        <time>2018-03-18T13:44:58.000Z</time>
      </trkpt>
      <trkpt lat="43.0335" lon="0.55846">
        <ele>508</ele>
        <time>2018-03-18T13:45:00.000Z</time>
      </trkpt>
      <trkpt lat="43.0335" lon="0.55849">
        <ele>508</ele>
        <time>2018-03-18T13:45:02.000Z</time>
      </trkpt>
      <trkpt lat="43.0335" lon="0.55852">
        <ele>508</ele>
        <time>2018-03-18T13:45:04.000Z</time>
      </trkpt>
      <trkpt lat="43.03351" lon="0.55855">
        <ele>508</ele>
        <time>2018-03-18T13:45:06.000Z</time>
      </trkpt>
      <trkpt lat="43.03351" lon="0.55858">
        <ele>508</ele>
        <time>2018-03-18T13:45:08.000Z</time>
      </trkpt>
      <trkpt lat="43.03353" lon="0.5586">
        <ele>508</ele>
        <time>2018-03-18T13:45:10.000Z</time>
      </trkpt>
      <trkpt lat="43.03353" lon="0.55863">
        <ele>507</ele>
        <time>2018-03-18T13:45:12.000Z</time>
      </trkpt>
      <trkpt lat="43.03354" lon="0.55866">
        <ele>507</ele>
        <time>2018-03-18T13:45:14.000Z</time>
      </trkpt>
      <trkpt lat="43.03354" lon="0.55869">
        <ele>507</ele>
        <time>2018-03-18T13:45:16.000Z</time>
      </trkpt>
      <trkpt lat="43.03355" lon="0.55872">
        <ele>507</ele>
        <time>2018-03-18T13:45:18.000Z</time>
      </trkpt>
      <trkpt lat="43.03355" lon="0.55875">
        <ele>507</ele>
        <time>2018-03-18T13:45:20.000Z</time>
      </trkpt>
      <trkpt lat="43.03355" lon="0.55877">
        <ele>507</ele>
        <time>2018-03-18T13:45:22.000Z</time>
      </trkpt>
      <trkpt lat="43.03356" lon="0.5588">
        <ele>507</ele>
        <time>2018-03-18T13:45:24.000Z</time>
      </trkpt>
      <trkpt lat="43.03358" lon="0.55882">
        <ele>506</ele>
        <time>2018-03-18T13:45:26.000Z</time>
      </trkpt>
      <trkpt lat="43.03359" lon="0.55885">
        <ele>506</ele>
        <time>2018-03-18T13:45:28.000Z</time>
      </trkpt>
      <trkpt lat="43.03359" lon="0.55886">
        <ele>506</ele>
        <time>2018-03-18T13:45:30.000Z</time>
      </trkpt>
      <trkpt lat="43.0336" lon="0.55887">
        <ele>505</ele>
        <time>2018-03-18T13:45:32.000Z</time>
      </trkpt>
      <trkpt lat="43.03361" lon="0.55888">
        <ele>505</ele>
        <time>2018-03-18T13:45:34.000Z</time>
      </trkpt>
      <trkpt lat="43.03363" lon="0.55889">
        <ele>504</ele>
        <time>2018-03-18T13:45:36.000Z</time>
      </trkpt>
      <trkpt lat="43.03365" lon="0.55891">
        <ele>504</ele>
        <time>2018-03-18T13:45:38.000Z</time>
      </trkpt>
      <trkpt lat="43.03366" lon="0.55892">
        <ele>503</ele>
        <time>2018-03-18T13:45:40.000Z</time>
      </trkpt>
      <trkpt lat="43.03368" lon="0.55894">
        <ele>503</ele>
        <time>2018-03-18T13:45:42.000Z</time>
      </trkpt>
      <trkpt lat="43.03369" lon="0.55896">
        <ele>502</ele>
        <time>2018-03-18T13:45:44.000Z</time>
      </trkpt>
      <trkpt lat="43.0337" lon="0.55898">
        <ele>502</ele>
        <time>2018-03-18T13:45:46.000Z</time>
      </trkpt>
      <trkpt lat="43.03371" lon="0.55899">
        <ele>502</ele>
        <time>2018-03-18T13:45:48.000Z</time>
      </trkpt>
      <trkpt lat="43.03372" lon="0.559">
        <ele>501</ele>
        <time>2018-03-18T13:45:50.000Z</time>
      </trkpt>
      <trkpt lat="43.03374" lon="0.55901">
        <ele>501</ele>
        <time>2018-03-18T13:45:52.000Z</time>
      </trkpt>
      <trkpt lat="43.03375" lon="0.55903">
        <ele>500</ele>
        <time>2018-03-18T13:45:54.000Z</time>
      </trkpt>
      <trkpt lat="43.03376" lon="0.55905">
        <ele>500</ele>
        <time>2018-03-18T13:45:56.000Z</time>
      </trkpt>
      <trkpt lat="43.03376" lon="0.55907">
        <ele>500</ele>
        <time>2018-03-18T13:45:58.000Z</time>
      </trkpt>
      <trkpt lat="43.03377" lon="0.55908">
        <ele>500</ele>
        <time>2018-03-18T13:46:00.000Z</time>
      </trkpt>
      <trkpt lat="43.03377" lon="0.5591">
        <ele>500</ele>
        <time>2018-03-18T13:46:02.000Z</time>
      </trkpt>
      <trkpt lat="43.03377" lon="0.55911">
        <ele>500</ele>
        <time>2018-03-18T13:46:04.000Z</time>
      </trkpt>
      <trkpt lat="43.03377" lon="0.55911">
        <ele>500</ele>
        <time>2018-03-18T13:46:06.000Z</time>
      </trkpt>
      <trkpt lat="43.03376" lon="0.55912">
        <ele>500</ele>
        <time>2018-03-18T13:46:08.000Z</time>
      </trkpt>
      <trkpt lat="43.03376" lon="0.55912">
        <ele>500</ele>
        <time>2018-03-18T13:46:10.000Z</time>
      </trkpt>
      <trkpt lat="43.03376" lon="0.55914">
        <ele>500</ele>
        <time>2018-03-18T13:46:12.000Z</time>
      </trkpt>
      <trkpt lat="43.03376" lon="0.55915">
        <ele>500</ele>
        <time>2018-03-18T13:46:14.000Z</time>
      </trkpt>
      <trkpt lat="43.03375" lon="0.55916">
        <ele>500</ele>
        <time>2018-03-18T13:46:16.000Z</time>
      </trkpt>
      <trkpt lat="43.03375" lon="0.55916">
        <ele>500</ele>
        <time>2018-03-18T13:46:18.000Z</time>
      </trkpt>
      <trkpt lat="43.03374" lon="0.55916">
        <ele>500</ele>
        <time>2018-03-18T13:46:20.000Z</time>
      </trkpt>
      <trkpt lat="43.03373" lon="0.55915">
        <ele>501</ele>
        <time>2018-03-18T13:46:22.000Z</time>
      </trkpt>
      <trkpt lat="43.03373" lon="0.55914">
        <ele>501</ele>
        <time>2018-03-18T13:46:24.000Z</time>
      </trkpt>
      <trkpt lat="43.03371" lon="0.55915">
        <ele>501</ele>
        <time>2018-03-18T13:46:26.000Z</time>
      </trkpt>
      <trkpt lat="43.0337" lon="0.55915">
        <ele>502</ele>
        <time>2018-03-18T13:46:28.000Z</time>
      </trkpt>
      <trkpt lat="43.03369" lon="0.55915">
        <ele>502</ele>
        <time>2018-03-18T13:46:30.000Z</time>
      </trkpt>
      <trkpt lat="43.03368" lon="0.55915">
        <ele>502</ele>
        <time>2018-03-18T13:46:32.000Z</time>
      </trkpt>
      <trkpt lat="43.03366" lon="0.55916">
        <ele>503</ele>
        <time>2018-03-18T13:46:34.000Z</time>
      </trkpt>
      <trkpt lat="43.03365" lon="0.55917">
        <ele>503</ele>
        <time>2018-03-18T13:46:36.000Z</time>
      </trkpt>
      <trkpt lat="43.03364" lon="0.55918">
        <ele>503</ele>
        <time>2018-03-18T13:46:38.000Z</time>
      </trkpt>
      <trkpt lat="43.03362" lon="0.55918">
        <ele>504</ele>
        <time>2018-03-18T13:46:40.000Z</time>
      </trkpt>
      <trkpt lat="43.03361" lon="0.55919">
        <ele>504</ele>
        <time>2018-03-18T13:46:42.000Z</time>
      </trkpt>
      <trkpt lat="43.0336" lon="0.5592">
        <ele>504</ele>
        <time>2018-03-18T13:46:44.000Z</time>
      </trkpt>
      <trkpt lat="43.03359" lon="0.5592">
        <ele>505</ele>
        <time>2018-03-18T13:46:46.000Z</time>
      </trkpt>
      <trkpt lat="43.03358" lon="0.5592">
        <ele>505</ele>
        <time>2018-03-18T13:46:48.000Z</time>
      </trkpt>
      <trkpt lat="43.03357" lon="0.5592">
        <ele>505</ele>
        <time>2018-03-18T13:46:50.000Z</time>
      </trkpt>
      <trkpt lat="43.03356" lon="0.5592">
        <ele>506</ele>
        <time>2018-03-18T13:46:52.000Z</time>
      </trkpt>
      <trkpt lat="43.03355" lon="0.5592">
        <ele>506</ele>
        <time>2018-03-18T13:46:54.000Z</time>
      </trkpt>
      <trkpt lat="43.03354" lon="0.5592">
        <ele>506</ele>
        <time>2018-03-18T13:46:56.000Z</time>
      </trkpt>
      <trkpt lat="43.03353" lon="0.5592">
        <ele>507</ele>
        <time>2018-03-18T13:46:58.000Z</time>
      </trkpt>
      <trkpt lat="43.03352" lon="0.5592">
        <ele>507</ele>
        <time>2018-03-18T13:47:00.000Z</time>
      </trkpt>
      <trkpt lat="43.0335" lon="0.5592">
        <ele>507</ele>
        <time>2018-03-18T13:47:02.000Z</time>
      </trkpt>
      <trkpt lat="43.03349" lon="0.5592">
        <ele>508</ele>
        <time>2018-03-18T13:47:04.000Z</time>
      </trkpt>
      <trkpt lat="43.03348" lon="0.5592">
        <ele>508</ele>
        <time>2018-03-18T13:47:06.000Z</time>
      </trkpt>
      <trkpt lat="43.03346" lon="0.5592">
        <ele>509</ele>
        <time>2018-03-18T13:47:08.000Z</time>
      </trkpt>
      <trkpt lat="43.03345" lon="0.5592">
        <ele>509</ele>
        <time>2018-03-18T13:47:10.000Z</time>
      </trkpt>
      <trkpt lat="43.03344" lon="0.5592">
        <ele>509</ele>
        <time>2018-03-18T13:47:12.000Z</time>
      </trkpt>
      <trkpt lat="43.03343" lon="0.5592">
        <ele>509</ele>
        <time>2018-03-18T13:47:14.000Z</time>
      </trkpt>
      <trkpt lat="43.03342" lon="0.5592">
        <ele>510</ele>
        <time>2018-03-18T13:47:16.000Z</time>
      </trkpt>
      <trkpt lat="43.03341" lon="0.55918">
        <ele>510</ele>
        <time>2018-03-18T13:47:18.000Z</time>
      </trkpt>
      <trkpt lat="43.03341" lon="0.55918">
        <ele>511</ele>
        <time>2018-03-18T13:47:20.000Z</time>
      </trkpt>
      <trkpt lat="43.0334" lon="0.55917">
        <ele>511</ele>
        <time>2018-03-18T13:47:22.000Z</time>
      </trkpt>
      <trkpt lat="43.03339" lon="0.55915">
        <ele>512</ele>
        <time>2018-03-18T13:47:24.000Z</time>
      </trkpt>
      <trkpt lat="43.03338" lon="0.55913">
        <ele>512</ele>
        <time>2018-03-18T13:47:26.000Z</time>
      </trkpt>
      <trkpt lat="43.03338" lon="0.55912">
        <ele>512</ele>
        <time>2018-03-18T13:47:28.000Z</time>
      </trkpt>
      <trkpt lat="43.03338" lon="0.55912">
        <ele>513</ele>
        <time>2018-03-18T13:47:30.000Z</time>
      </trkpt>
      <trkpt lat="43.03337" lon="0.55911">
        <ele>513</ele>
        <time>2018-03-18T13:47:32.000Z</time>
      </trkpt>
      <trkpt lat="43.03337" lon="0.55911">
        <ele>513</ele>
        <time>2018-03-18T13:47:34.000Z</time>
      </trkpt>
      <trkpt lat="43.03337" lon="0.55911">
        <ele>513</ele>
        <time>2018-03-18T13:47:36.000Z</time>
      </trkpt>
      <trkpt lat="43.03339" lon="0.55912">
        <ele>512</ele>
        <time>2018-03-18T13:47:38.000Z</time>
      </trkpt>
      <trkpt lat="43.03339" lon="0.55913">
        <ele>512</ele>
        <time>2018-03-18T13:47:40.000Z</time>
      </trkpt>
      <trkpt lat="43.0334" lon="0.55914">
        <ele>511</ele>
        <time>2018-03-18T13:47:42.000Z</time>
      </trkpt>
      <trkpt lat="43.03341" lon="0.55916">
        <ele>511</ele>
        <time>2018-03-18T13:47:44.000Z</time>
      </trkpt>
      <trkpt lat="43.03341" lon="0.55918">
        <ele>511</ele>
        <time>2018-03-18T13:47:46.000Z</time>
      </trkpt>
      <trkpt lat="43.03341" lon="0.55917">
        <ele>511</ele>
        <time>2018-03-18T13:47:48.000Z</time>
      </trkpt>
      <trkpt lat="43.03341" lon="0.55917">
        <ele>510</ele>
        <time>2018-03-18T13:47:50.000Z</time>
      </trkpt>
      <trkpt lat="43.03342" lon="0.55917">
        <ele>510</ele>
        <time>2018-03-18T13:47:52.000Z</time>
      </trkpt>
      <trkpt lat="43.03342" lon="0.55917">
        <ele>510</ele>
        <time>2018-03-18T13:47:54.000Z</time>
      </trkpt>
      <trkpt lat="43.03342" lon="0.55917">
        <ele>510</ele>
        <time>2018-03-18T13:47:56.000Z</time>
      </trkpt>
      <trkpt lat="43.03342" lon="0.55917">
        <ele>510</ele>
        <time>2018-03-18T13:47:58.000Z</time>
      </trkpt>
      <trkpt lat="43.03342" lon="0.55917">
        <ele>510</ele>
        <time>2018-03-18T13:48:00.000Z</time>
      </trkpt>
      <trkpt lat="43.03342" lon="0.55917">
        <ele>510</ele>
        <time>2018-03-18T13:48:02.000Z</time>
      </trkpt>
      <trkpt lat="43.03343" lon="0.55917">
        <ele>510</ele>
        <time>2018-03-18T13:48:04.000Z</time>
      </trkpt>
      <trkpt lat="43.03343" lon="0.55917">
        <ele>510</ele>
        <time>2018-03-18T13:48:06.000Z</time>
      </trkpt>
      <trkpt lat="43.03343" lon="0.55916">
        <ele>510</ele>
        <time>2018-03-18T13:48:08.000Z</time>
      </trkpt>
      <trkpt lat="43.03343" lon="0.55916">
        <ele>510</ele>
        <time>2018-03-18T13:48:10.000Z</time>
      </trkpt>
      <trkpt lat="43.03343" lon="0.55916">
        <ele>509</ele>
        <time>2018-03-18T13:48:12.000Z</time>
      </trkpt>
      <trkpt lat="43.03344" lon="0.55916">
        <ele>509</ele>
        <time>2018-03-18T13:48:14.000Z</time>
      </trkpt>
      <trkpt lat="43.03343" lon="0.55916">
        <ele>510</ele>
        <time>2018-03-18T13:48:16.000Z</time>
      </trkpt>
      <trkpt lat="43.03343" lon="0.55916">
        <ele>510</ele>
        <time>2018-03-18T13:48:18.000Z</time>
      </trkpt>
      <trkpt lat="43.03343" lon="0.55916">
        <ele>510</ele>
        <time>2018-03-18T13:48:20.000Z</time>
      </trkpt>
      <trkpt lat="43.03344" lon="0.55916">
        <ele>509</ele>
        <time>2018-03-18T13:48:22.000Z</time>
      </trkpt>
      <trkpt lat="43.03344" lon="0.55916">
        <ele>509</ele>
        <time>2018-03-18T13:48:24.000Z</time>
      </trkpt>
      <trkpt lat="43.03344" lon="0.55916">
        <ele>509</ele>
        <time>2018-03-18T13:48:26.000Z</time>
      </trkpt>
      <trkpt lat="43.03344" lon="0.55916">
        <ele>509</ele>
        <time>2018-03-18T13:48:28.000Z</time>
      </trkpt>
      <trkpt lat="43.03344" lon="0.55915">
        <ele>509</ele>
        <time>2018-03-18T13:48:30.000Z</time>
      </trkpt>
      <trkpt lat="43.03344" lon="0.55915">
        <ele>509</ele>
        <time>2018-03-18T13:48:32.000Z</time>
      </trkpt>
      <trkpt lat="43.03344" lon="0.55915">
        <ele>509</ele>
        <time>2018-03-18T13:48:34.000Z</time>
      </trkpt>
      <trkpt lat="43.03345" lon="0.55915">
        <ele>509</ele>
        <time>2018-03-18T13:48:36.000Z</time>
      </trkpt>
      <trkpt lat="43.03345" lon="0.55916">
        <ele>509</ele>
        <time>2018-03-18T13:48:38.000Z</time>
      </trkpt>
      <trkpt lat="43.03345" lon="0.55916">
        <ele>509</ele>
        <time>2018-03-18T13:48:40.000Z</time>
      </trkpt>
      <trkpt lat="43.03345" lon="0.55916">
        <ele>509</ele>
        <time>2018-03-18T13:48:42.000Z</time>
      </trkpt>
      <trkpt lat="43.03345" lon="0.55916">
        <ele>509</ele>
        <time>2018-03-18T13:48:44.000Z</time>
      </trkpt>
      <trkpt lat="43.03345" lon="0.55916">
        <ele>509</ele>
        <time>2018-03-18T13:48:46.000Z</time>
      </trkpt>
      <trkpt lat="43.03345" lon="0.55916">
        <ele>509</ele>
        <time>2018-03-18T13:48:48.000Z</time>
      </trkpt>
      <trkpt lat="43.03345" lon="0.55916">
        <ele>509</ele>
        <time>2018-03-18T13:48:50.000Z</time>
      </trkpt>
      <trkpt lat="43.03346" lon="0.55916">
        <ele>509</ele>
        <time>2018-03-18T13:48:52.000Z</time>
      </trkpt>
      <trkpt lat="43.03345" lon="0.55915">
        <ele>509</ele>
        <time>2018-03-18T13:48:54.000Z</time>
      </trkpt>
      <trkpt lat="43.03345" lon="0.55915">
        <ele>509</ele>
        <time>2018-03-18T13:48:56.000Z</time>
      </trkpt>
      <trkpt lat="43.03345" lon="0.55915">
        <ele>509</ele>
        <time>2018-03-18T13:48:58.000Z</time>
      </trkpt>
      <trkpt lat="43.03346" lon="0.55916">
        <ele>509</ele>
        <time>2018-03-18T13:49:00.000Z</time>
      </trkpt>
      <trkpt lat="43.03346" lon="0.55916">
        <ele>509</ele>
        <time>2018-03-18T13:49:02.000Z</time>
      </trkpt>
      <trkpt lat="43.03346" lon="0.55916">
        <ele>509</ele>
        <time>2018-03-18T13:49:04.000Z</time>
      </trkpt>
      <trkpt lat="43.03346" lon="0.55916">
        <ele>509</ele>
        <time>2018-03-18T13:49:06.000Z</time>
      </trkpt>
      <trkpt lat="43.03347" lon="0.55916">
        <ele>508</ele>
        <time>2018-03-18T13:49:08.000Z</time>
      </trkpt>
      <trkpt lat="43.03348" lon="0.55916">
        <ele>508</ele>
        <time>2018-03-18T13:49:10.000Z</time>
      </trkpt>
      <trkpt lat="43.03349" lon="0.55916">
        <ele>508</ele>
        <time>2018-03-18T13:49:12.000Z</time>
      </trkpt>
      <trkpt lat="43.0335" lon="0.55916">
        <ele>508</ele>
        <time>2018-03-18T13:49:14.000Z</time>
      </trkpt>
      <trkpt lat="43.03351" lon="0.55915">
        <ele>507</ele>
        <time>2018-03-18T13:49:16.000Z</time>
      </trkpt>
      <trkpt lat="43.03351" lon="0.55915">
        <ele>507</ele>
        <time>2018-03-18T13:49:18.000Z</time>
      </trkpt>
      <trkpt lat="43.03352" lon="0.55915">
        <ele>507</ele>
        <time>2018-03-18T13:49:20.000Z</time>
      </trkpt>
      <trkpt lat="43.03354" lon="0.55914">
        <ele>507</ele>
        <time>2018-03-18T13:49:22.000Z</time>
      </trkpt>
      <trkpt lat="43.03354" lon="0.55914">
        <ele>506</ele>
        <time>2018-03-18T13:49:24.000Z</time>
      </trkpt>
      <trkpt lat="43.03355" lon="0.55914">
        <ele>506</ele>
        <time>2018-03-18T13:49:26.000Z</time>
      </trkpt>
      <trkpt lat="43.03356" lon="0.55914">
        <ele>506</ele>
        <time>2018-03-18T13:49:28.000Z</time>
      </trkpt>
      <trkpt lat="43.03357" lon="0.55914">
        <ele>506</ele>
        <time>2018-03-18T13:49:30.000Z</time>
      </trkpt>
      <trkpt lat="43.03358" lon="0.55912">
        <ele>505</ele>
        <time>2018-03-18T13:49:32.000Z</time>
      </trkpt>
      <trkpt lat="43.03359" lon="0.55912">
        <ele>505</ele>
        <time>2018-03-18T13:49:34.000Z</time>
      </trkpt>
      <trkpt lat="43.0336" lon="0.55911">
        <ele>505</ele>
        <time>2018-03-18T13:49:36.000Z</time>
      </trkpt>
      <trkpt lat="43.03362" lon="0.55911">
        <ele>504</ele>
        <time>2018-03-18T13:49:38.000Z</time>
      </trkpt>
      <trkpt lat="43.03363" lon="0.5591">
        <ele>504</ele>
        <time>2018-03-18T13:49:40.000Z</time>
      </trkpt>
      <trkpt lat="43.03364" lon="0.55909">
        <ele>504</ele>
        <time>2018-03-18T13:49:42.000Z</time>
      </trkpt>
      <trkpt lat="43.03365" lon="0.55908">
        <ele>503</ele>
        <time>2018-03-18T13:49:44.000Z</time>
      </trkpt>
      <trkpt lat="43.03367" lon="0.55907">
        <ele>503</ele>
        <time>2018-03-18T13:49:46.000Z</time>
      </trkpt>
      <trkpt lat="43.03368" lon="0.55907">
        <ele>502</ele>
        <time>2018-03-18T13:49:48.000Z</time>
      </trkpt>
      <trkpt lat="43.03369" lon="0.55906">
        <ele>502</ele>
        <time>2018-03-18T13:49:50.000Z</time>
      </trkpt>
      <trkpt lat="43.03371" lon="0.55906">
        <ele>502</ele>
        <time>2018-03-18T13:49:52.000Z</time>
      </trkpt>
      <trkpt lat="43.03373" lon="0.55906">
        <ele>501</ele>
        <time>2018-03-18T13:49:54.000Z</time>
      </trkpt>
      <trkpt lat="43.03374" lon="0.55908">
        <ele>500</ele>
        <time>2018-03-18T13:49:56.000Z</time>
      </trkpt>
      <trkpt lat="43.03375" lon="0.5591">
        <ele>500</ele>
        <time>2018-03-18T13:49:58.000Z</time>
      </trkpt>
      <trkpt lat="43.03375" lon="0.55912">
        <ele>500</ele>
        <time>2018-03-18T13:50:00.000Z</time>
      </trkpt>
      <trkpt lat="43.03375" lon="0.55915">
        <ele>500</ele>
        <time>2018-03-18T13:50:02.000Z</time>
      </trkpt>
      <trkpt lat="43.03375" lon="0.55917">
        <ele>500</ele>
        <time>2018-03-18T13:50:04.000Z</time>
      </trkpt>
      <trkpt lat="43.03374" lon="0.5592">
        <ele>500</ele>
        <time>2018-03-18T13:50:06.000Z</time>
      </trkpt>
      <trkpt lat="43.03374" lon="0.55923">
        <ele>500</ele>
        <time>2018-03-18T13:50:08.000Z</time>
      </trkpt>
      <trkpt lat="43.03374" lon="0.55926">
        <ele>500</ele>
        <time>2018-03-18T13:50:10.000Z</time>
      </trkpt>
      <trkpt lat="43.03373" lon="0.55929">
        <ele>500</ele>
        <time>2018-03-18T13:50:12.000Z</time>
      </trkpt>
      <trkpt lat="43.03374" lon="0.55932">
        <ele>500</ele>
        <time>2018-03-18T13:50:14.000Z</time>
      </trkpt>
      <trkpt lat="43.03374" lon="0.55935">
        <ele>500</ele>
        <time>2018-03-18T13:50:16.000Z</time>
      </trkpt>
      <trkpt lat="43.03373" lon="0.55938">
        <ele>500</ele>
        <time>2018-03-18T13:50:18.000Z</time>
      </trkpt>
      <trkpt lat="43.03373" lon="0.55941">
        <ele>500</ele>
        <time>2018-03-18T13:50:20.000Z</time>
      </trkpt>
      <trkpt lat="43.03373" lon="0.55944">
        <ele>500</ele>
        <time>2018-03-18T13:50:22.000Z</time>
      </trkpt>
      <trkpt lat="43.03372" lon="0.55947">
        <ele>500</ele>
        <time>2018-03-18T13:50:24.000Z</time>
      </trkpt>
      <trkpt lat="43.03371" lon="0.55949">
        <ele>500</ele>
        <time>2018-03-18T13:50:26.000Z</time>
      </trkpt>
      <trkpt lat="43.0337" lon="0.55952">
        <ele>500</ele>
        <time>2018-03-18T13:50:28.000Z</time>
      </trkpt>
      <trkpt lat="43.03369" lon="0.55955">
        <ele>500</ele>
        <time>2018-03-18T13:50:30.000Z</time>
      </trkpt>
      <trkpt lat="43.03368" lon="0.55958">
        <ele>501</ele>
        <time>2018-03-18T13:50:32.000Z</time>
      </trkpt>
      <trkpt lat="43.03367" lon="0.5596">
        <ele>501</ele>
        <time>2018-03-18T13:50:34.000Z</time>
      </trkpt>
      <trkpt lat="43.03366" lon="0.55963">
        <ele>501</ele>
        <time>2018-03-18T13:50:36.000Z</time>
      </trkpt>
      <trkpt lat="43.03365" lon="0.55965">
        <ele>501</ele>
        <time>2018-03-18T13:50:38.000Z</time>
      </trkpt>
      <trkpt lat="43.03364" lon="0.55968">
        <ele>501</ele>
        <time>2018-03-18T13:50:40.000Z</time>
      </trkpt>
      <trkpt lat="43.03363" lon="0.5597">
        <ele>502</ele>
        <time>2018-03-18T13:50:42.000Z</time>
      </trkpt>
      <trkpt lat="43.03362" lon="0.55973">
        <ele>502</ele>
        <time>2018-03-18T13:50:44.000Z</time>
      </trkpt>
      <trkpt lat="43.03361" lon="0.55975">
        <ele>503</ele>
        <time>2018-03-18T13:50:46.000Z</time>
      </trkpt>
      <trkpt lat="43.0336" lon="0.55978">
        <ele>503</ele>
        <time>2018-03-18T13:50:48.000Z</time>
      </trkpt>
      <trkpt lat="43.03359" lon="0.55981">
        <ele>503</ele>
        <time>2018-03-18T13:50:50.000Z</time>
      </trkpt>
      <trkpt lat="43.03359" lon="0.55983">
        <ele>503</ele>
        <time>2018-03-18T13:50:52.000Z</time>
      </trkpt>
      <trkpt lat="43.03357" lon="0.55986">
        <ele>504</ele>
        <time>2018-03-18T13:50:54.000Z</time>
      </trkpt>
      <trkpt lat="43.03356" lon="0.55988">
        <ele>504</ele>
        <time>2018-03-18T13:50:56.000Z</time>
      </trkpt>
      <trkpt lat="43.03356" lon="0.55991">
        <ele>504</ele>
        <time>2018-03-18T13:50:58.000Z</time>
      </trkpt>
      <trkpt lat="43.03355" lon="0.55994">
        <ele>504</ele>
        <time>2018-03-18T13:51:00.000Z</time>
      </trkpt>
      <trkpt lat="43.03355" lon="0.55997">
        <ele>504</ele>
        <time>2018-03-18T13:51:02.000Z</time>
      </trkpt>
      <trkpt lat="43.03354" lon="0.55999">
        <ele>504</ele>
        <time>2018-03-18T13:51:04.000Z</time>
      </trkpt>
      <trkpt lat="43.03354" lon="0.56002">
        <ele>504</ele>
        <time>2018-03-18T13:51:06.000Z</time>
      </trkpt>
      <trkpt lat="43.03353" lon="0.56004">
        <ele>504</ele>
        <time>2018-03-18T13:51:08.000Z</time>
      </trkpt>
      <trkpt lat="43.03352" lon="0.56006">
        <ele>504</ele>
        <time>2018-03-18T13:51:10.000Z</time>
      </trkpt>
      <trkpt lat="43.03351" lon="0.56009">
        <ele>504</ele>
        <time>2018-03-18T13:51:12.000Z</time>
      </trkpt>
      <trkpt lat="43.0335" lon="0.56011">
        <ele>504</ele>
        <time>2018-03-18T13:51:14.000Z</time>
      </trkpt>
      <trkpt lat="43.03349" lon="0.56013">
        <ele>504</ele>
        <time>2018-03-18T13:51:16.000Z</time>
      </trkpt>
      <trkpt lat="43.03347" lon="0.56015">
        <ele>505</ele>
        <time>2018-03-18T13:51:18.000Z</time>
      </trkpt>
      <trkpt lat="43.03345" lon="0.56017">
        <ele>505</ele>
        <time>2018-03-18T13:51:20.000Z</time>
      </trkpt>
      <trkpt lat="43.03344" lon="0.56019">
        <ele>505</ele>
        <time>2018-03-18T13:51:22.000Z</time>
      </trkpt>
      <trkpt lat="43.03342" lon="0.56021">
        <ele>506</ele>
        <time>2018-03-18T13:51:24.000Z</time>
      </trkpt>
      <trkpt lat="43.0334" lon="0.56023">
        <ele>506</ele>
        <time>2018-03-18T13:51:26.000Z</time>
      </trkpt>
      <trkpt lat="43.03339" lon="0.56025">
        <ele>507</ele>
        <time>2018-03-18T13:51:28.000Z</time>
      </trkpt>
      <trkpt lat="43.03338" lon="0.56027">
        <ele>507</ele>
        <time>2018-03-18T13:51:30.000Z</time>
      </trkpt>
      <trkpt lat="43.03337" lon="0.5603">
        <ele>508</ele>
        <time>2018-03-18T13:51:32.000Z</time>
      </trkpt>
      <trkpt lat="43.03336" lon="0.56032">
        <ele>508</ele>
        <time>2018-03-18T13:51:34.000Z</time>
      </trkpt>
      <trkpt lat="43.03334" lon="0.56034">
        <ele>509</ele>
        <time>2018-03-18T13:51:36.000Z</time>
      </trkpt>
      <trkpt lat="43.03333" lon="0.56035">
        <ele>509</ele>
        <time>2018-03-18T13:51:38.000Z</time>
      </trkpt>
      <trkpt lat="43.03332" lon="0.56037">
        <ele>509</ele>
        <time>2018-03-18T13:51:40.000Z</time>
      </trkpt>
      <trkpt lat="43.03332" lon="0.56038">
        <ele>509</ele>
        <time>2018-03-18T13:51:42.000Z</time>
      </trkpt>
      <trkpt lat="43.03332" lon="0.5604">
        <ele>509</ele>
        <time>2018-03-18T13:51:44.000Z</time>
      </trkpt>
      <trkpt lat="43.03333" lon="0.56042">
        <ele>509</ele>
        <time>2018-03-18T13:51:46.000Z</time>
      </trkpt>
      <trkpt lat="43.03333" lon="0.56043">
        <ele>508</ele>
        <time>2018-03-18T13:51:48.000Z</time>
      </trkpt>
      <trkpt lat="43.03334" lon="0.56045">
        <ele>508</ele>
        <time>2018-03-18T13:51:50.000Z</time>
      </trkpt>
      <trkpt lat="43.03333" lon="0.56048">
        <ele>508</ele>
        <time>2018-03-18T13:51:52.000Z</time>
      </trkpt>
      <trkpt lat="43.03331" lon="0.56051">
        <ele>508</ele>
        <time>2018-03-18T13:51:54.000Z</time>
      </trkpt>
      <trkpt lat="43.03329" lon="0.56054">
        <ele>508</ele>
        <time>2018-03-18T13:51:56.000Z</time>
      </trkpt>
      <trkpt lat="43.03327" lon="0.56056">
        <ele>509</ele>
        <time>2018-03-18T13:51:58.000Z</time>
      </trkpt>
      <trkpt lat="43.03325" lon="0.56059">
        <ele>509</ele>
        <time>2018-03-18T13:52:00.000Z</time>
      </trkpt>
      <trkpt lat="43.03323" lon="0.56062">
        <ele>509</ele>
        <time>2018-03-18T13:52:02.000Z</time>
      </trkpt>
      <trkpt lat="43.03323" lon="0.56064">
        <ele>509</ele>
        <time>2018-03-18T13:52:04.000Z</time>
      </trkpt>
      <trkpt lat="43.03322" lon="0.56067">
        <ele>509</ele>
        <time>2018-03-18T13:52:06.000Z</time>
      </trkpt>
      <trkpt lat="43.03321" lon="0.56069">
        <ele>509</ele>
        <time>2018-03-18T13:52:08.000Z</time>
      </trkpt>
      <trkpt lat="43.0332" lon="0.56071">
        <ele>510</ele>
        <time>2018-03-18T13:52:10.000Z</time>
      </trkpt>
      <trkpt lat="43.03319" lon="0.56073">
        <ele>510</ele>
        <time>2018-03-18T13:52:12.000Z</time>
      </trkpt>
      <trkpt lat="43.03318" lon="0.56076">
        <ele>510</ele>
        <time>2018-03-18T13:52:14.000Z</time>
      </trkpt>
      <trkpt lat="43.03316" lon="0.56078">
        <ele>510</ele>
        <time>2018-03-18T13:52:16.000Z</time>
      </trkpt>
      <trkpt lat="43.03315" lon="0.5608">
        <ele>510</ele>
        <time>2018-03-18T13:52:18.000Z</time>
      </trkpt>
      <trkpt lat="43.03315" lon="0.56083">
        <ele>510</ele>
        <time>2018-03-18T13:52:20.000Z</time>
      </trkpt>
      <trkpt lat="43.03314" lon="0.56085">
        <ele>510</ele>
        <time>2018-03-18T13:52:22.000Z</time>
      </trkpt>
      <trkpt lat="43.03313" lon="0.56088">
        <ele>510</ele>
        <time>2018-03-18T13:52:24.000Z</time>
      </trkpt>
      <trkpt lat="43.03312" lon="0.56092">
        <ele>510</ele>
        <time>2018-03-18T13:52:26.000Z</time>
      </trkpt>
      <trkpt lat="43.03311" lon="0.56095">
        <ele>510</ele>
        <time>2018-03-18T13:52:28.000Z</time>
      </trkpt>
      <trkpt lat="43.03309" lon="0.56099">
        <ele>511</ele>
        <time>2018-03-18T13:52:30.000Z</time>
      </trkpt>
      <trkpt lat="43.03308" lon="0.56101">
        <ele>511</ele>
        <time>2018-03-18T13:52:32.000Z</time>
      </trkpt>
      <trkpt lat="43.03307" lon="0.56104">
        <ele>511</ele>
        <time>2018-03-18T13:52:34.000Z</time>
      </trkpt>
      <trkpt lat="43.03305" lon="0.56107">
        <ele>510</ele>
        <time>2018-03-18T13:52:36.000Z</time>
      </trkpt>
      <trkpt lat="43.03304" lon="0.56108">
        <ele>510</ele>
        <time>2018-03-18T13:52:38.000Z</time>
      </trkpt>
      <trkpt lat="43.03303" lon="0.5611">
        <ele>510</ele>
        <time>2018-03-18T13:52:40.000Z</time>
      </trkpt>
      <trkpt lat="43.03302" lon="0.56111">
        <ele>510</ele>
        <time>2018-03-18T13:52:42.000Z</time>
      </trkpt>
      <trkpt lat="43.03301" lon="0.56113">
        <ele>510</ele>
        <time>2018-03-18T13:52:44.000Z</time>
      </trkpt>
      <trkpt lat="43.033" lon="0.56114">
        <ele>510</ele>
        <time>2018-03-18T13:52:46.000Z</time>
      </trkpt>
      <trkpt lat="43.03298" lon="0.56116">
        <ele>510</ele>
        <time>2018-03-18T13:52:48.000Z</time>
      </trkpt>
      <trkpt lat="43.03297" lon="0.56118">
        <ele>510</ele>
        <time>2018-03-18T13:52:50.000Z</time>
      </trkpt>
      <trkpt lat="43.03296" lon="0.56121">
        <ele>510</ele>
        <time>2018-03-18T13:52:52.000Z</time>
      </trkpt>
      <trkpt lat="43.03295" lon="0.56123">
        <ele>510</ele>
        <time>2018-03-18T13:52:54.000Z</time>
      </trkpt>
      <trkpt lat="43.03294" lon="0.56125">
        <ele>510</ele>
        <time>2018-03-18T13:52:56.000Z</time>
      </trkpt>
      <trkpt lat="43.03292" lon="0.56128">
        <ele>510</ele>
        <time>2018-03-18T13:52:58.000Z</time>
      </trkpt>
      <trkpt lat="43.03291" lon="0.5613">
        <ele>510</ele>
        <time>2018-03-18T13:53:00.000Z</time>
      </trkpt>
      <trkpt lat="43.0329" lon="0.56132">
        <ele>510</ele>
        <time>2018-03-18T13:53:02.000Z</time>
      </trkpt>
      <trkpt lat="43.03289" lon="0.56134">
        <ele>510</ele>
        <time>2018-03-18T13:53:04.000Z</time>
      </trkpt>
      <trkpt lat="43.03288" lon="0.56136">
        <ele>510</ele>
        <time>2018-03-18T13:53:06.000Z</time>
      </trkpt>
      <trkpt lat="43.03286" lon="0.56138">
        <ele>510</ele>
        <time>2018-03-18T13:53:08.000Z</time>
      </trkpt>
      <trkpt lat="43.03284" lon="0.5614">
        <ele>510</ele>
        <time>2018-03-18T13:53:10.000Z</time>
      </trkpt>
      <trkpt lat="43.03283" lon="0.56142">
        <ele>511</ele>
        <time>2018-03-18T13:53:12.000Z</time>
      </trkpt>
      <trkpt lat="43.03283" lon="0.56144">
        <ele>511</ele>
        <time>2018-03-18T13:53:14.000Z</time>
      </trkpt>
      <trkpt lat="43.03281" lon="0.56146">
        <ele>511</ele>
        <time>2018-03-18T13:53:16.000Z</time>
      </trkpt>
      <trkpt lat="43.0328" lon="0.56148">
        <ele>511</ele>
        <time>2018-03-18T13:53:18.000Z</time>
      </trkpt>
      <trkpt lat="43.0328" lon="0.56149">
        <ele>511</ele>
        <time>2018-03-18T13:53:20.000Z</time>
      </trkpt>
      <trkpt lat="43.03279" lon="0.56151">
        <ele>511</ele>
        <time>2018-03-18T13:53:22.000Z</time>
      </trkpt>
      <trkpt lat="43.03279" lon="0.56152">
        <ele>511</ele>
        <time>2018-03-18T13:53:24.000Z</time>
      </trkpt>
      <trkpt lat="43.03279" lon="0.56154">
        <ele>511</ele>
        <time>2018-03-18T13:53:26.000Z</time>
      </trkpt>
      <trkpt lat="43.03278" lon="0.56155">
        <ele>511</ele>
        <time>2018-03-18T13:53:28.000Z</time>
      </trkpt>
      <trkpt lat="43.03277" lon="0.56157">
        <ele>511</ele>
        <time>2018-03-18T13:53:30.000Z</time>
      </trkpt>
      <trkpt lat="43.03276" lon="0.56158">
        <ele>511</ele>
        <time>2018-03-18T13:53:32.000Z</time>
      </trkpt>
      <trkpt lat="43.03275" lon="0.56159">
        <ele>511</ele>
        <time>2018-03-18T13:53:34.000Z</time>
      </trkpt>
      <trkpt lat="43.03273" lon="0.5616">
        <ele>511</ele>
        <time>2018-03-18T13:53:36.000Z</time>
      </trkpt>
      <trkpt lat="43.03271" lon="0.56163">
        <ele>511</ele>
        <time>2018-03-18T13:53:38.000Z</time>
      </trkpt>
      <trkpt lat="43.03269" lon="0.56164">
        <ele>511</ele>
        <time>2018-03-18T13:53:40.000Z</time>
      </trkpt>
      <trkpt lat="43.03268" lon="0.56165">
        <ele>511</ele>
        <time>2018-03-18T13:53:42.000Z</time>
      </trkpt>
      <trkpt lat="43.03267" lon="0.56166">
        <ele>511</ele>
        <time>2018-03-18T13:53:44.000Z</time>
      </trkpt>
      <trkpt lat="43.03266" lon="0.56166">
        <ele>511</ele>
        <time>2018-03-18T13:53:46.000Z</time>
      </trkpt>
      <trkpt lat="43.03266" lon="0.56167">
        <ele>511</ele>
        <time>2018-03-18T13:53:48.000Z</time>
      </trkpt>
      <trkpt lat="43.03265" lon="0.56169">
        <ele>511</ele>
        <time>2018-03-18T13:53:50.000Z</time>
      </trkpt>
      <trkpt lat="43.03263" lon="0.56172">
        <ele>511</ele>
        <time>2018-03-18T13:53:52.000Z</time>
      </trkpt>
      <trkpt lat="43.03261" lon="0.56174">
        <ele>511</ele>
        <time>2018-03-18T13:53:54.000Z</time>
      </trkpt>
      <trkpt lat="43.0326" lon="0.56176">
        <ele>510</ele>
        <time>2018-03-18T13:53:56.000Z</time>
      </trkpt>
      <trkpt lat="43.03259" lon="0.56177">
        <ele>510</ele>
        <time>2018-03-18T13:53:58.000Z</time>
      </trkpt>
      <trkpt lat="43.03258" lon="0.56178">
        <ele>510</ele>
        <time>2018-03-18T13:54:00.000Z</time>
      </trkpt>
      <trkpt lat="43.03256" lon="0.56181">
        <ele>511</ele>
        <time>2018-03-18T13:54:02.000Z</time>
      </trkpt>
      <trkpt lat="43.03256" lon="0.56182">
        <ele>511</ele>
        <time>2018-03-18T13:54:04.000Z</time>
      </trkpt>
      <trkpt lat="43.03254" lon="0.56184">
        <ele>511</ele>
        <time>2018-03-18T13:54:06.000Z</time>
      </trkpt>
      <trkpt lat="43.03252" lon="0.56186">
        <ele>511</ele>
        <time>2018-03-18T13:54:08.000Z</time>
      </trkpt>
      <trkpt lat="43.03251" lon="0.56188">
        <ele>511</ele>
        <time>2018-03-18T13:54:10.000Z</time>
      </trkpt>
      <trkpt lat="43.0325" lon="0.56189">
        <ele>511</ele>
        <time>2018-03-18T13:54:12.000Z</time>
      </trkpt>
      <trkpt lat="43.03249" lon="0.56192">
        <ele>511</ele>
        <time>2018-03-18T13:54:14.000Z</time>
      </trkpt>
      <trkpt lat="43.03248" lon="0.56194">
        <ele>511</ele>
        <time>2018-03-18T13:54:16.000Z</time>
      </trkpt>
      <trkpt lat="43.03247" lon="0.56195">
        <ele>511</ele>
        <time>2018-03-18T13:54:18.000Z</time>
      </trkpt>
      <trkpt lat="43.03245" lon="0.56199">
        <ele>511</ele>
        <time>2018-03-18T13:54:20.000Z</time>
      </trkpt>
      <trkpt lat="43.03244" lon="0.56202">
        <ele>511</ele>
        <time>2018-03-18T13:54:22.000Z</time>
      </trkpt>
      <trkpt lat="43.03242" lon="0.56204">
        <ele>511</ele>
        <time>2018-03-18T13:54:24.000Z</time>
      </trkpt>
      <trkpt lat="43.03241" lon="0.56207">
        <ele>511</ele>
        <time>2018-03-18T13:54:26.000Z</time>
      </trkpt>
      <trkpt lat="43.0324" lon="0.56209">
        <ele>510</ele>
        <time>2018-03-18T13:54:28.000Z</time>
      </trkpt>
      <trkpt lat="43.03239" lon="0.56211">
        <ele>510</ele>
        <time>2018-03-18T13:54:30.000Z</time>
      </trkpt>
      <trkpt lat="43.03239" lon="0.56213">
        <ele>510</ele>
        <time>2018-03-18T13:54:32.000Z</time>
      </trkpt>
      <trkpt lat="43.03238" lon="0.56215">
        <ele>510</ele>
        <time>2018-03-18T13:54:34.000Z</time>
      </trkpt>
      <trkpt lat="43.03237" lon="0.56217">
        <ele>509</ele>
        <time>2018-03-18T13:54:36.000Z</time>
      </trkpt>
      <trkpt lat="43.03236" lon="0.56219">
        <ele>509</ele>
        <time>2018-03-18T13:54:38.000Z</time>
      </trkpt>
      <trkpt lat="43.03235" lon="0.5622">
        <ele>510</ele>
        <time>2018-03-18T13:54:40.000Z</time>
      </trkpt>
      <trkpt lat="43.03234" lon="0.56223">
        <ele>510</ele>
        <time>2018-03-18T13:54:42.000Z</time>
      </trkpt>
      <trkpt lat="43.03233" lon="0.56225">
        <ele>510</ele>
        <time>2018-03-18T13:54:44.000Z</time>
      </trkpt>
      <trkpt lat="43.03232" lon="0.56227">
        <ele>510</ele>
        <time>2018-03-18T13:54:46.000Z</time>
      </trkpt>
      <trkpt lat="43.03231" lon="0.5623">
        <ele>510</ele>
        <time>2018-03-18T13:54:48.000Z</time>
      </trkpt>
      <trkpt lat="43.03229" lon="0.56232">
        <ele>511</ele>
        <time>2018-03-18T13:54:50.000Z</time>
      </trkpt>
      <trkpt lat="43.03227" lon="0.56234">
        <ele>511</ele>
        <time>2018-03-18T13:54:52.000Z</time>
      </trkpt>
      <trkpt lat="43.03225" lon="0.56237">
        <ele>511</ele>
        <time>2018-03-18T13:54:54.000Z</time>
      </trkpt>
      <trkpt lat="43.03223" lon="0.56239">
        <ele>512</ele>
        <time>2018-03-18T13:54:56.000Z</time>
      </trkpt>
      <trkpt lat="43.03221" lon="0.5624">
        <ele>512</ele>
        <time>2018-03-18T13:54:58.000Z</time>
      </trkpt>
      <trkpt lat="43.0322" lon="0.56242">
        <ele>512</ele>
        <time>2018-03-18T13:55:00.000Z</time>
      </trkpt>
      <trkpt lat="43.03219" lon="0.56242">
        <ele>513</ele>
        <time>2018-03-18T13:55:02.000Z</time>
      </trkpt>
      <trkpt lat="43.03218" lon="0.56243">
        <ele>513</ele>
        <time>2018-03-18T13:55:04.000Z</time>
      </trkpt>
      <trkpt lat="43.03217" lon="0.56245">
        <ele>513</ele>
        <time>2018-03-18T13:55:06.000Z</time>
      </trkpt>
      <trkpt lat="43.03215" lon="0.56248">
        <ele>513</ele>
        <time>2018-03-18T13:55:08.000Z</time>
      </trkpt>
      <trkpt lat="43.03214" lon="0.5625">
        <ele>514</ele>
        <time>2018-03-18T13:55:10.000Z</time>
      </trkpt>
      <trkpt lat="43.03213" lon="0.56252">
        <ele>514</ele>
        <time>2018-03-18T13:55:12.000Z</time>
      </trkpt>
      <trkpt lat="43.03211" lon="0.56253">
        <ele>514</ele>
        <time>2018-03-18T13:55:14.000Z</time>
      </trkpt>
      <trkpt lat="43.03209" lon="0.56255">
        <ele>514</ele>
        <time>2018-03-18T13:55:16.000Z</time>
      </trkpt>
      <trkpt lat="43.03208" lon="0.56258">
        <ele>514</ele>
        <time>2018-03-18T13:55:18.000Z</time>
      </trkpt>
      <trkpt lat="43.03207" lon="0.5626">
        <ele>513</ele>
        <time>2018-03-18T13:55:20.000Z</time>
      </trkpt>
      <trkpt lat="43.03206" lon="0.56262">
        <ele>513</ele>
        <time>2018-03-18T13:55:22.000Z</time>
      </trkpt>
      <trkpt lat="43.03205" lon="0.56264">
        <ele>513</ele>
        <time>2018-03-18T13:55:24.000Z</time>
      </trkpt>
      <trkpt lat="43.03204" lon="0.56266">
        <ele>512</ele>
        <time>2018-03-18T13:55:26.000Z</time>
      </trkpt>
      <trkpt lat="43.03203" lon="0.56267">
        <ele>512</ele>
        <time>2018-03-18T13:55:28.000Z</time>
      </trkpt>
      <trkpt lat="43.03201" lon="0.5627">
        <ele>512</ele>
        <time>2018-03-18T13:55:30.000Z</time>
      </trkpt>
      <trkpt lat="43.032" lon="0.56271">
        <ele>512</ele>
        <time>2018-03-18T13:55:32.000Z</time>
      </trkpt>
      <trkpt lat="43.03198" lon="0.56273">
        <ele>512</ele>
        <time>2018-03-18T13:55:34.000Z</time>
      </trkpt>
      <trkpt lat="43.03196" lon="0.56273">
        <ele>512</ele>
        <time>2018-03-18T13:55:36.000Z</time>
      </trkpt>
      <trkpt lat="43.03195" lon="0.56274">
        <ele>512</ele>
        <time>2018-03-18T13:55:38.000Z</time>
      </trkpt>
      <trkpt lat="43.03193" lon="0.56275">
        <ele>512</ele>
        <time>2018-03-18T13:55:40.000Z</time>
      </trkpt>
      <trkpt lat="43.03192" lon="0.56276">
        <ele>511</ele>
        <time>2018-03-18T13:55:42.000Z</time>
      </trkpt>
      <trkpt lat="43.03191" lon="0.56277">
        <ele>511</ele>
        <time>2018-03-18T13:55:44.000Z</time>
      </trkpt>
      <trkpt lat="43.0319" lon="0.56278">
        <ele>511</ele>
        <time>2018-03-18T13:55:46.000Z</time>
      </trkpt>
      <trkpt lat="43.03188" lon="0.56279">
        <ele>511</ele>
        <time>2018-03-18T13:55:48.000Z</time>
      </trkpt>
      <trkpt lat="43.03186" lon="0.56281">
        <ele>511</ele>
        <time>2018-03-18T13:55:50.000Z</time>
      </trkpt>
      <trkpt lat="43.03184" lon="0.56282">
        <ele>511</ele>
        <time>2018-03-18T13:55:52.000Z</time>
      </trkpt>
      <trkpt lat="43.03182" lon="0.56285">
        <ele>511</ele>
        <time>2018-03-18T13:55:54.000Z</time>
      </trkpt>
      <trkpt lat="43.03181" lon="0.56286">
        <ele>510</ele>
        <time>2018-03-18T13:55:56.000Z</time>
      </trkpt>
      <trkpt lat="43.03179" lon="0.56288">
        <ele>510</ele>
        <time>2018-03-18T13:55:58.000Z</time>
      </trkpt>
      <trkpt lat="43.03178" lon="0.56289">
        <ele>510</ele>
        <time>2018-03-18T13:56:00.000Z</time>
      </trkpt>
      <trkpt lat="43.03176" lon="0.56292">
        <ele>510</ele>
        <time>2018-03-18T13:56:02.000Z</time>
      </trkpt>
      <trkpt lat="43.03174" lon="0.56294">
        <ele>510</ele>
        <time>2018-03-18T13:56:04.000Z</time>
      </trkpt>
      <trkpt lat="43.03172" lon="0.56296">
        <ele>510</ele>
        <time>2018-03-18T13:56:06.000Z</time>
      </trkpt>
      <trkpt lat="43.03172" lon="0.56298">
        <ele>509</ele>
        <time>2018-03-18T13:56:08.000Z</time>
      </trkpt>
      <trkpt lat="43.03171" lon="0.56301">
        <ele>509</ele>
        <time>2018-03-18T13:56:10.000Z</time>
      </trkpt>
      <trkpt lat="43.03171" lon="0.56303">
        <ele>509</ele>
        <time>2018-03-18T13:56:12.000Z</time>
      </trkpt>
      <trkpt lat="43.03173" lon="0.56304">
        <ele>508</ele>
        <time>2018-03-18T13:56:14.000Z</time>
      </trkpt>
      <trkpt lat="43.03174" lon="0.56305">
        <ele>508</ele>
        <time>2018-03-18T13:56:16.000Z</time>
      </trkpt>
      <trkpt lat="43.03175" lon="0.56306">
        <ele>508</ele>
        <time>2018-03-18T13:56:18.000Z</time>
      </trkpt>
      <trkpt lat="43.03176" lon="0.56309">
        <ele>507</ele>
        <time>2018-03-18T13:56:20.000Z</time>
      </trkpt>
      <trkpt lat="43.03178" lon="0.56311">
        <ele>507</ele>
        <time>2018-03-18T13:56:22.000Z</time>
      </trkpt>
      <trkpt lat="43.03179" lon="0.56313">
        <ele>507</ele>
        <time>2018-03-18T13:56:24.000Z</time>
      </trkpt>
      <trkpt lat="43.0318" lon="0.56315">
        <ele>507</ele>
        <time>2018-03-18T13:56:26.000Z</time>
      </trkpt>
      <trkpt lat="43.03182" lon="0.56317">
        <ele>507</ele>
        <time>2018-03-18T13:56:28.000Z</time>
      </trkpt>
      <trkpt lat="43.03183" lon="0.5632">
        <ele>506</ele>
        <time>2018-03-18T13:56:30.000Z</time>
      </trkpt>
      <trkpt lat="43.03185" lon="0.56322">
        <ele>506</ele>
        <time>2018-03-18T13:56:32.000Z</time>
      </trkpt>
      <trkpt lat="43.03186" lon="0.56325">
        <ele>506</ele>
        <time>2018-03-18T13:56:34.000Z</time>
      </trkpt>
      <trkpt lat="43.03188" lon="0.56326">
        <ele>506</ele>
        <time>2018-03-18T13:56:36.000Z</time>
      </trkpt>
      <trkpt lat="43.03189" lon="0.56328">
        <ele>505</ele>
        <time>2018-03-18T13:56:38.000Z</time>
      </trkpt>
      <trkpt lat="43.03191" lon="0.5633">
        <ele>505</ele>
        <time>2018-03-18T13:56:40.000Z</time>
      </trkpt>
      <trkpt lat="43.03193" lon="0.56332">
        <ele>505</ele>
        <time>2018-03-18T13:56:42.000Z</time>
      </trkpt>
      <trkpt lat="43.03194" lon="0.56335">
        <ele>505</ele>
        <time>2018-03-18T13:56:44.000Z</time>
      </trkpt>
      <trkpt lat="43.03196" lon="0.56337">
        <ele>504</ele>
        <time>2018-03-18T13:56:46.000Z</time>
      </trkpt>
      <trkpt lat="43.03198" lon="0.56339">
        <ele>504</ele>
        <time>2018-03-18T13:56:48.000Z</time>
      </trkpt>
      <trkpt lat="43.03199" lon="0.56341">
        <ele>504</ele>
        <time>2018-03-18T13:56:50.000Z</time>
      </trkpt>
      <trkpt lat="43.03201" lon="0.56343">
        <ele>504</ele>
        <time>2018-03-18T13:56:52.000Z</time>
      </trkpt>
      <trkpt lat="43.03201" lon="0.56345">
        <ele>504</ele>
        <time>2018-03-18T13:56:54.000Z</time>
      </trkpt>
      <trkpt lat="43.03201" lon="0.56347">
        <ele>503</ele>
        <time>2018-03-18T13:56:56.000Z</time>
      </trkpt>
      <trkpt lat="43.032" lon="0.56348">
        <ele>503</ele>
        <time>2018-03-18T13:56:58.000Z</time>
      </trkpt>
      <trkpt lat="43.03199" lon="0.56349">
        <ele>503</ele>
        <time>2018-03-18T13:57:00.000Z</time>
      </trkpt>
      <trkpt lat="43.03198" lon="0.56351">
        <ele>503</ele>
        <time>2018-03-18T13:57:02.000Z</time>
      </trkpt>
      <trkpt lat="43.03196" lon="0.56353">
        <ele>503</ele>
        <time>2018-03-18T13:57:04.000Z</time>
      </trkpt>
      <trkpt lat="43.03195" lon="0.56354">
        <ele>503</ele>
        <time>2018-03-18T13:57:06.000Z</time>
      </trkpt>
      <trkpt lat="43.03194" lon="0.56356">
        <ele>503</ele>
        <time>2018-03-18T13:57:08.000Z</time>
      </trkpt>
      <trkpt lat="43.03193" lon="0.56357">
        <ele>503</ele>
        <time>2018-03-18T13:57:10.000Z</time>
      </trkpt>
      <trkpt lat="43.03191" lon="0.56359">
        <ele>503</ele>
        <time>2018-03-18T13:57:12.000Z</time>
      </trkpt>
      <trkpt lat="43.03189" lon="0.5636">
        <ele>503</ele>
        <time>2018-03-18T13:57:14.000Z</time>
      </trkpt>
      <trkpt lat="43.03187" lon="0.56362">
        <ele>504</ele>
        <time>2018-03-18T13:57:16.000Z</time>
      </trkpt>
      <trkpt lat="43.03185" lon="0.56364">
        <ele>504</ele>
        <time>2018-03-18T13:57:18.000Z</time>
      </trkpt>
      <trkpt lat="43.03184" lon="0.56366">
        <ele>503</ele>
        <time>2018-03-18T13:57:20.000Z</time>
      </trkpt>
      <trkpt lat="43.03183" lon="0.56368">
        <ele>503</ele>
        <time>2018-03-18T13:57:22.000Z</time>
      </trkpt>
      <trkpt lat="43.03181" lon="0.5637">
        <ele>503</ele>
        <time>2018-03-18T13:57:24.000Z</time>
      </trkpt>
      <trkpt lat="43.0318" lon="0.56371">
        <ele>504</ele>
        <time>2018-03-18T13:57:26.000Z</time>
      </trkpt>
      <trkpt lat="43.03178" lon="0.56373">
        <ele>503</ele>
        <time>2018-03-18T13:57:28.000Z</time>
      </trkpt>
      <trkpt lat="43.03177" lon="0.56374">
        <ele>504</ele>
        <time>2018-03-18T13:57:30.000Z</time>
      </trkpt>
      <trkpt lat="43.03175" lon="0.56375">
        <ele>504</ele>
        <time>2018-03-18T13:57:32.000Z</time>
      </trkpt>
      <trkpt lat="43.03174" lon="0.56377">
        <ele>504</ele>
        <time>2018-03-18T13:57:34.000Z</time>
      </trkpt>
      <trkpt lat="43.03174" lon="0.56378">
        <ele>504</ele>
        <time>2018-03-18T13:57:36.000Z</time>
      </trkpt>
      <trkpt lat="43.03173" lon="0.5638">
        <ele>504</ele>
        <time>2018-03-18T13:57:38.000Z</time>
      </trkpt>
      <trkpt lat="43.03171" lon="0.56381">
        <ele>504</ele>
        <time>2018-03-18T13:57:40.000Z</time>
      </trkpt>
      <trkpt lat="43.0317" lon="0.56382">
        <ele>504</ele>
        <time>2018-03-18T13:57:42.000Z</time>
      </trkpt>
      <trkpt lat="43.03169" lon="0.56383">
        <ele>504</ele>
        <time>2018-03-18T13:57:44.000Z</time>
      </trkpt>
      <trkpt lat="43.03168" lon="0.56385">
        <ele>504</ele>
        <time>2018-03-18T13:57:46.000Z</time>
      </trkpt>
      <trkpt lat="43.03166" lon="0.56387">
        <ele>504</ele>
        <time>2018-03-18T13:57:48.000Z</time>
      </trkpt>
      <trkpt lat="43.03164" lon="0.56388">
        <ele>504</ele>
        <time>2018-03-18T13:57:50.000Z</time>
      </trkpt>
      <trkpt lat="43.03162" lon="0.5639">
        <ele>504</ele>
        <time>2018-03-18T13:57:52.000Z</time>
      </trkpt>
      <trkpt lat="43.03161" lon="0.56391">
        <ele>505</ele>
        <time>2018-03-18T13:57:54.000Z</time>
      </trkpt>
      <trkpt lat="43.03159" lon="0.56393">
        <ele>505</ele>
        <time>2018-03-18T13:57:56.000Z</time>
      </trkpt>
      <trkpt lat="43.03158" lon="0.56394">
        <ele>505</ele>
        <time>2018-03-18T13:57:58.000Z</time>
      </trkpt>
      <trkpt lat="43.03157" lon="0.56396">
        <ele>505</ele>
        <time>2018-03-18T13:58:00.000Z</time>
      </trkpt>
      <trkpt lat="43.03155" lon="0.56397">
        <ele>505</ele>
        <time>2018-03-18T13:58:02.000Z</time>
      </trkpt>
      <trkpt lat="43.03154" lon="0.56397">
        <ele>505</ele>
        <time>2018-03-18T13:58:04.000Z</time>
      </trkpt>
      <trkpt lat="43.03152" lon="0.56398">
        <ele>505</ele>
        <time>2018-03-18T13:58:06.000Z</time>
      </trkpt>
      <trkpt lat="43.0315" lon="0.564">
        <ele>506</ele>
        <time>2018-03-18T13:58:08.000Z</time>
      </trkpt>
      <trkpt lat="43.03147" lon="0.56402">
        <ele>506</ele>
        <time>2018-03-18T13:58:10.000Z</time>
      </trkpt>
      <trkpt lat="43.03145" lon="0.56403">
        <ele>506</ele>
        <time>2018-03-18T13:58:12.000Z</time>
      </trkpt>
      <trkpt lat="43.03144" lon="0.56404">
        <ele>506</ele>
        <time>2018-03-18T13:58:14.000Z</time>
      </trkpt>
      <trkpt lat="43.03142" lon="0.56406">
        <ele>506</ele>
        <time>2018-03-18T13:58:16.000Z</time>
      </trkpt>
      <trkpt lat="43.0314" lon="0.56407">
        <ele>506</ele>
        <time>2018-03-18T13:58:18.000Z</time>
      </trkpt>
      <trkpt lat="43.03138" lon="0.56409">
        <ele>507</ele>
        <time>2018-03-18T13:58:20.000Z</time>
      </trkpt>
      <trkpt lat="43.03137" lon="0.56411">
        <ele>507</ele>
        <time>2018-03-18T13:58:22.000Z</time>
      </trkpt>
      <trkpt lat="43.03134" lon="0.56414">
        <ele>507</ele>
        <time>2018-03-18T13:58:24.000Z</time>
      </trkpt>
      <trkpt lat="43.03133" lon="0.56416">
        <ele>507</ele>
        <time>2018-03-18T13:58:26.000Z</time>
      </trkpt>
      <trkpt lat="43.03131" lon="0.56418">
        <ele>507</ele>
        <time>2018-03-18T13:58:28.000Z</time>
      </trkpt>
      <trkpt lat="43.03129" lon="0.56419">
        <ele>507</ele>
        <time>2018-03-18T13:58:30.000Z</time>
      </trkpt>
      <trkpt lat="43.03128" lon="0.56421">
        <ele>507</ele>
        <time>2018-03-18T13:58:32.000Z</time>
      </trkpt>
      <trkpt lat="43.03126" lon="0.56424">
        <ele>508</ele>
        <time>2018-03-18T13:58:34.000Z</time>
      </trkpt>
      <trkpt lat="43.03125" lon="0.56426">
        <ele>508</ele>
        <time>2018-03-18T13:58:36.000Z</time>
      </trkpt>
      <trkpt lat="43.03123" lon="0.56429">
        <ele>508</ele>
        <time>2018-03-18T13:58:38.000Z</time>
      </trkpt>
      <trkpt lat="43.03122" lon="0.56431">
        <ele>508</ele>
        <time>2018-03-18T13:58:40.000Z</time>
      </trkpt>
      <trkpt lat="43.03121" lon="0.56433">
        <ele>508</ele>
        <time>2018-03-18T13:58:42.000Z</time>
      </trkpt>
      <trkpt lat="43.0312" lon="0.56436">
        <ele>508</ele>
        <time>2018-03-18T13:58:44.000Z</time>
      </trkpt>
      <trkpt lat="43.03119" lon="0.56438">
        <ele>508</ele>
        <time>2018-03-18T13:58:46.000Z</time>
      </trkpt>
      <trkpt lat="43.03117" lon="0.56439">
        <ele>508</ele>
        <time>2018-03-18T13:58:48.000Z</time>
      </trkpt>
      <trkpt lat="43.03115" lon="0.56441">
        <ele>508</ele>
        <time>2018-03-18T13:58:50.000Z</time>
      </trkpt>
      <trkpt lat="43.03113" lon="0.56442">
        <ele>508</ele>
        <time>2018-03-18T13:58:52.000Z</time>
      </trkpt>
      <trkpt lat="43.03111" lon="0.56443">
        <ele>509</ele>
        <time>2018-03-18T13:58:54.000Z</time>
      </trkpt>
      <trkpt lat="43.0311" lon="0.56443">
        <ele>509</ele>
        <time>2018-03-18T13:58:56.000Z</time>
      </trkpt>
      <trkpt lat="43.03108" lon="0.56443">
        <ele>509</ele>
        <time>2018-03-18T13:58:58.000Z</time>
      </trkpt>
      <trkpt lat="43.03107" lon="0.56443">
        <ele>509</ele>
        <time>2018-03-18T13:59:00.000Z</time>
      </trkpt>
      <trkpt lat="43.03106" lon="0.56441">
        <ele>509</ele>
        <time>2018-03-18T13:59:02.000Z</time>
      </trkpt>
      <trkpt lat="43.03104" lon="0.5644">
        <ele>510</ele>
        <time>2018-03-18T13:59:04.000Z</time>
      </trkpt>
      <trkpt lat="43.03103" lon="0.56439">
        <ele>510</ele>
        <time>2018-03-18T13:59:06.000Z</time>
      </trkpt>
      <trkpt lat="43.03101" lon="0.5644">
        <ele>510</ele>
        <time>2018-03-18T13:59:08.000Z</time>
      </trkpt>
      <trkpt lat="43.031" lon="0.56439">
        <ele>510</ele>
        <time>2018-03-18T13:59:10.000Z</time>
      </trkpt>
      <trkpt lat="43.03098" lon="0.56439">
        <ele>510</ele>
        <time>2018-03-18T13:59:12.000Z</time>
      </trkpt>
      <trkpt lat="43.03096" lon="0.56438">
        <ele>511</ele>
        <time>2018-03-18T13:59:14.000Z</time>
      </trkpt>
      <trkpt lat="43.03094" lon="0.56438">
        <ele>511</ele>
        <time>2018-03-18T13:59:16.000Z</time>
      </trkpt>
      <trkpt lat="43.03092" lon="0.56438">
        <ele>511</ele>
        <time>2018-03-18T13:59:18.000Z</time>
      </trkpt>
      <trkpt lat="43.0309" lon="0.56437">
        <ele>512</ele>
        <time>2018-03-18T13:59:20.000Z</time>
      </trkpt>
      <trkpt lat="43.03088" lon="0.56437">
        <ele>512</ele>
        <time>2018-03-18T13:59:22.000Z</time>
      </trkpt>
      <trkpt lat="43.03087" lon="0.56436">
        <ele>513</ele>
        <time>2018-03-18T13:59:24.000Z</time>
      </trkpt>
      <trkpt lat="43.03085" lon="0.56435">
        <ele>513</ele>
        <time>2018-03-18T13:59:26.000Z</time>
      </trkpt>
      <trkpt lat="43.03083" lon="0.56434">
        <ele>513</ele>
        <time>2018-03-18T13:59:28.000Z</time>
      </trkpt>
      <trkpt lat="43.03081" lon="0.56433">
        <ele>514</ele>
        <time>2018-03-18T13:59:30.000Z</time>
      </trkpt>
      <trkpt lat="43.03079" lon="0.56432">
        <ele>514</ele>
        <time>2018-03-18T13:59:32.000Z</time>
      </trkpt>
      <trkpt lat="43.03078" lon="0.56431">
        <ele>515</ele>
        <time>2018-03-18T13:59:34.000Z</time>
      </trkpt>
      <trkpt lat="43.03076" lon="0.56431">
        <ele>515</ele>
        <time>2018-03-18T13:59:36.000Z</time>
      </trkpt>
      <trkpt lat="43.03074" lon="0.56431">
        <ele>516</ele>
        <time>2018-03-18T13:59:38.000Z</time>
      </trkpt>
      <trkpt lat="43.03072" lon="0.56431">
        <ele>516</ele>
        <time>2018-03-18T13:59:40.000Z</time>
      </trkpt>
      <trkpt lat="43.0307" lon="0.56432">
        <ele>517</ele>
        <time>2018-03-18T13:59:42.000Z</time>
      </trkpt>
      <trkpt lat="43.03068" lon="0.56432">
        <ele>517</ele>
        <time>2018-03-18T13:59:44.000Z</time>
      </trkpt>
      <trkpt lat="43.03066" lon="0.56433">
        <ele>518</ele>
        <time>2018-03-18T13:59:46.000Z</time>
      </trkpt>
      <trkpt lat="43.03064" lon="0.56434">
        <ele>518</ele>
        <time>2018-03-18T13:59:48.000Z</time>
      </trkpt>
      <trkpt lat="43.03062" lon="0.56436">
        <ele>518</ele>
        <time>2018-03-18T13:59:50.000Z</time>
      </trkpt>
      <trkpt lat="43.03061" lon="0.56437">
        <ele>519</ele>
        <time>2018-03-18T13:59:52.000Z</time>
      </trkpt>
      <trkpt lat="43.03059" lon="0.56438">
        <ele>519</ele>
        <time>2018-03-18T13:59:54.000Z</time>
      </trkpt>
      <trkpt lat="43.03057" lon="0.56439">
        <ele>519</ele>
        <time>2018-03-18T13:59:56.000Z</time>
      </trkpt>
      <trkpt lat="43.03056" lon="0.56439">
        <ele>519</ele>
        <time>2018-03-18T13:59:58.000Z</time>
      </trkpt>
      <trkpt lat="43.03054" lon="0.5644">
        <ele>519</ele>
        <time>2018-03-18T14:00:00.000Z</time>
      </trkpt>
      <trkpt lat="43.03053" lon="0.56441">
        <ele>520</ele>
        <time>2018-03-18T14:00:02.000Z</time>
      </trkpt>
      <trkpt lat="43.03051" lon="0.56442">
        <ele>520</ele>
        <time>2018-03-18T14:00:04.000Z</time>
      </trkpt>
      <trkpt lat="43.03049" lon="0.56443">
        <ele>520</ele>
        <time>2018-03-18T14:00:06.000Z</time>
      </trkpt>
      <trkpt lat="43.03047" lon="0.56444">
        <ele>520</ele>
        <time>2018-03-18T14:00:08.000Z</time>
      </trkpt>
      <trkpt lat="43.03045" lon="0.56445">
        <ele>520</ele>
        <time>2018-03-18T14:00:10.000Z</time>
      </trkpt>
      <trkpt lat="43.03043" lon="0.56445">
        <ele>521</ele>
        <time>2018-03-18T14:00:12.000Z</time>
      </trkpt>
      <trkpt lat="43.03041" lon="0.56445">
        <ele>521</ele>
        <time>2018-03-18T14:00:14.000Z</time>
      </trkpt>
      <trkpt lat="43.03039" lon="0.56447">
        <ele>521</ele>
        <time>2018-03-18T14:00:16.000Z</time>
      </trkpt>
      <trkpt lat="43.03036" lon="0.56449">
        <ele>522</ele>
        <time>2018-03-18T14:00:18.000Z</time>
      </trkpt>
      <trkpt lat="43.03034" lon="0.5645">
        <ele>522</ele>
        <time>2018-03-18T14:00:20.000Z</time>
      </trkpt>
      <trkpt lat="43.03032" lon="0.56451">
        <ele>522</ele>
        <time>2018-03-18T14:00:22.000Z</time>
      </trkpt>
      <trkpt lat="43.0303" lon="0.56451">
        <ele>522</ele>
        <time>2018-03-18T14:00:24.000Z</time>
      </trkpt>
      <trkpt lat="43.03028" lon="0.56452">
        <ele>522</ele>
        <time>2018-03-18T14:00:26.000Z</time>
      </trkpt>
      <trkpt lat="43.03028" lon="0.56454">
        <ele>522</ele>
        <time>2018-03-18T14:00:28.000Z</time>
      </trkpt>
      <trkpt lat="43.03026" lon="0.56455">
        <ele>522</ele>
        <time>2018-03-18T14:00:30.000Z</time>
      </trkpt>
      <trkpt lat="43.03025" lon="0.56456">
        <ele>522</ele>
        <time>2018-03-18T14:00:32.000Z</time>
      </trkpt>
      <trkpt lat="43.03024" lon="0.56458">
        <ele>522</ele>
        <time>2018-03-18T14:00:34.000Z</time>
      </trkpt>
      <trkpt lat="43.03023" lon="0.56461">
        <ele>522</ele>
        <time>2018-03-18T14:00:36.000Z</time>
      </trkpt>
      <trkpt lat="43.03021" lon="0.56463">
        <ele>522</ele>
        <time>2018-03-18T14:00:38.000Z</time>
      </trkpt>
      <trkpt lat="43.03019" lon="0.56464">
        <ele>523</ele>
        <time>2018-03-18T14:00:40.000Z</time>
      </trkpt>
      <trkpt lat="43.03017" lon="0.56466">
        <ele>523</ele>
        <time>2018-03-18T14:00:42.000Z</time>
      </trkpt>
      <trkpt lat="43.03015" lon="0.56469">
        <ele>523</ele>
        <time>2018-03-18T14:00:44.000Z</time>
      </trkpt>
      <trkpt lat="43.03013" lon="0.56471">
        <ele>523</ele>
        <time>2018-03-18T14:00:46.000Z</time>
      </trkpt>
      <trkpt lat="43.03012" lon="0.56473">
        <ele>523</ele>
        <time>2018-03-18T14:00:48.000Z</time>
      </trkpt>
      <trkpt lat="43.03011" lon="0.56475">
        <ele>522</ele>
        <time>2018-03-18T14:00:50.000Z</time>
      </trkpt>
      <trkpt lat="43.0301" lon="0.56478">
        <ele>522</ele>
        <time>2018-03-18T14:00:52.000Z</time>
      </trkpt>
      <trkpt lat="43.03008" lon="0.5648">
        <ele>522</ele>
        <time>2018-03-18T14:00:54.000Z</time>
      </trkpt>
      <trkpt lat="43.03005" lon="0.56482">
        <ele>522</ele>
        <time>2018-03-18T14:00:56.000Z</time>
      </trkpt>
      <trkpt lat="43.03004" lon="0.56483">
        <ele>522</ele>
        <time>2018-03-18T14:00:58.000Z</time>
      </trkpt>
      <trkpt lat="43.03002" lon="0.56486">
        <ele>522</ele>
        <time>2018-03-18T14:01:00.000Z</time>
      </trkpt>
      <trkpt lat="43.03" lon="0.56488">
        <ele>522</ele>
        <time>2018-03-18T14:01:02.000Z</time>
      </trkpt>
      <trkpt lat="43.02999" lon="0.56489">
        <ele>522</ele>
        <time>2018-03-18T14:01:04.000Z</time>
      </trkpt>
      <trkpt lat="43.02997" lon="0.56491">
        <ele>522</ele>
        <time>2018-03-18T14:01:06.000Z</time>
      </trkpt>
      <trkpt lat="43.02996" lon="0.56492">
        <ele>522</ele>
        <time>2018-03-18T14:01:08.000Z</time>
      </trkpt>
      <trkpt lat="43.02995" lon="0.56493">
        <ele>522</ele>
        <time>2018-03-18T14:01:10.000Z</time>
      </trkpt>
      <trkpt lat="43.02994" lon="0.56495">
        <ele>522</ele>
        <time>2018-03-18T14:01:12.000Z</time>
      </trkpt>
      <trkpt lat="43.02992" lon="0.56497">
        <ele>522</ele>
        <time>2018-03-18T14:01:14.000Z</time>
      </trkpt>
      <trkpt lat="43.0299" lon="0.56499">
        <ele>522</ele>
        <time>2018-03-18T14:01:16.000Z</time>
      </trkpt>
      <trkpt lat="43.02988" lon="0.56501">
        <ele>522</ele>
        <time>2018-03-18T14:01:18.000Z</time>
      </trkpt>
      <trkpt lat="43.02987" lon="0.56502">
        <ele>522</ele>
        <time>2018-03-18T14:01:20.000Z</time>
      </trkpt>
      <trkpt lat="43.02985" lon="0.56503">
        <ele>522</ele>
        <time>2018-03-18T14:01:22.000Z</time>
      </trkpt>
      <trkpt lat="43.02984" lon="0.56505">
        <ele>522</ele>
        <time>2018-03-18T14:01:24.000Z</time>
      </trkpt>
      <trkpt lat="43.02982" lon="0.56507">
        <ele>522</ele>
        <time>2018-03-18T14:01:26.000Z</time>
      </trkpt>
      <trkpt lat="43.02981" lon="0.56509">
        <ele>522</ele>
        <time>2018-03-18T14:01:28.000Z</time>
      </trkpt>
      <trkpt lat="43.02979" lon="0.56511">
        <ele>522</ele>
        <time>2018-03-18T14:01:30.000Z</time>
      </trkpt>
      <trkpt lat="43.02977" lon="0.56512">
        <ele>522</ele>
        <time>2018-03-18T14:01:32.000Z</time>
      </trkpt>
      <trkpt lat="43.02975" lon="0.56515">
        <ele>522</ele>
        <time>2018-03-18T14:01:34.000Z</time>
      </trkpt>
      <trkpt lat="43.02973" lon="0.56517">
        <ele>521</ele>
        <time>2018-03-18T14:01:36.000Z</time>
      </trkpt>
      <trkpt lat="43.02971" lon="0.56519">
        <ele>521</ele>
        <time>2018-03-18T14:01:38.000Z</time>
      </trkpt>
      <trkpt lat="43.02968" lon="0.5652">
        <ele>521</ele>
        <time>2018-03-18T14:01:40.000Z</time>
      </trkpt>
      <trkpt lat="43.02967" lon="0.56523">
        <ele>520</ele>
        <time>2018-03-18T14:01:42.000Z</time>
      </trkpt>
      <trkpt lat="43.02964" lon="0.56525">
        <ele>520</ele>
        <time>2018-03-18T14:01:44.000Z</time>
      </trkpt>
      <trkpt lat="43.02961" lon="0.56527">
        <ele>519</ele>
        <time>2018-03-18T14:01:46.000Z</time>
      </trkpt>
      <trkpt lat="43.02959" lon="0.56528">
        <ele>519</ele>
        <time>2018-03-18T14:01:48.000Z</time>
      </trkpt>
      <trkpt lat="43.02956" lon="0.5653">
        <ele>518</ele>
        <time>2018-03-18T14:01:50.000Z</time>
      </trkpt>
      <trkpt lat="43.02955" lon="0.56531">
        <ele>518</ele>
        <time>2018-03-18T14:01:52.000Z</time>
      </trkpt>
      <trkpt lat="43.02953" lon="0.5653">
        <ele>519</ele>
        <time>2018-03-18T14:01:54.000Z</time>
      </trkpt>
      <trkpt lat="43.02952" lon="0.56528">
        <ele>519</ele>
        <time>2018-03-18T14:01:56.000Z</time>
      </trkpt>
      <trkpt lat="43.02953" lon="0.56529">
        <ele>519</ele>
        <time>2018-03-18T14:01:58.000Z</time>
      </trkpt>
      <trkpt lat="43.02953" lon="0.5653">
        <ele>519</ele>
        <time>2018-03-18T14:02:00.000Z</time>
      </trkpt>
      <trkpt lat="43.02952" lon="0.56529">
        <ele>519</ele>
        <time>2018-03-18T14:02:02.000Z</time>
      </trkpt>
      <trkpt lat="43.02952" lon="0.5653">
        <ele>519</ele>
        <time>2018-03-18T14:02:04.000Z</time>
      </trkpt>
      <trkpt lat="43.02952" lon="0.5653">
        <ele>519</ele>
        <time>2018-03-18T14:02:06.000Z</time>
      </trkpt>
      <trkpt lat="43.02953" lon="0.5653">
        <ele>519</ele>
        <time>2018-03-18T14:02:08.000Z</time>
      </trkpt>
      <trkpt lat="43.02953" lon="0.56529">
        <ele>519</ele>
        <time>2018-03-18T14:02:10.000Z</time>
      </trkpt>
      <trkpt lat="43.02953" lon="0.56529">
        <ele>519</ele>
        <time>2018-03-18T14:02:12.000Z</time>
      </trkpt>
      <trkpt lat="43.02953" lon="0.5653">
        <ele>519</ele>
        <time>2018-03-18T14:02:14.000Z</time>
      </trkpt>
      <trkpt lat="43.02953" lon="0.56529">
        <ele>519</ele>
        <time>2018-03-18T14:02:16.000Z</time>
      </trkpt>
      <trkpt lat="43.02953" lon="0.56529">
        <ele>519</ele>
        <time>2018-03-18T14:02:18.000Z</time>
      </trkpt>
      <trkpt lat="43.02953" lon="0.56529">
        <ele>519</ele>
        <time>2018-03-18T14:02:20.000Z</time>
      </trkpt>
      <trkpt lat="43.02954" lon="0.5653">
        <ele>519</ele>
        <time>2018-03-18T14:02:22.000Z</time>
      </trkpt>
      <trkpt lat="43.02953" lon="0.56531">
        <ele>518</ele>
        <time>2018-03-18T14:02:24.000Z</time>
      </trkpt>
      <trkpt lat="43.02953" lon="0.56531">
        <ele>518</ele>
        <time>2018-03-18T14:02:26.000Z</time>
      </trkpt>
      <trkpt lat="43.02953" lon="0.56532">
        <ele>518</ele>
        <time>2018-03-18T14:02:28.000Z</time>
      </trkpt>
      <trkpt lat="43.02953" lon="0.56532">
        <ele>518</ele>
        <time>2018-03-18T14:02:30.000Z</time>
      </trkpt>
      <trkpt lat="43.02953" lon="0.56531">
        <ele>518</ele>
        <time>2018-03-18T14:02:32.000Z</time>
      </trkpt>
      <trkpt lat="43.02952" lon="0.56531">
        <ele>518</ele>
        <time>2018-03-18T14:02:34.000Z</time>
      </trkpt>
      <trkpt lat="43.02952" lon="0.56531">
        <ele>518</ele>
        <time>2018-03-18T14:02:36.000Z</time>
      </trkpt>
      <trkpt lat="43.02953" lon="0.56531">
        <ele>519</ele>
        <time>2018-03-18T14:02:38.000Z</time>
      </trkpt>
      <trkpt lat="43.02953" lon="0.56531">
        <ele>519</ele>
        <time>2018-03-18T14:02:40.000Z</time>
      </trkpt>
      <trkpt lat="43.02952" lon="0.56531">
        <ele>518</ele>
        <time>2018-03-18T14:02:42.000Z</time>
      </trkpt>
      <trkpt lat="43.02952" lon="0.56531">
        <ele>518</ele>
        <time>2018-03-18T14:02:44.000Z</time>
      </trkpt>
      <trkpt lat="43.02951" lon="0.56531">
        <ele>518</ele>
        <time>2018-03-18T14:02:46.000Z</time>
      </trkpt>
      <trkpt lat="43.02951" lon="0.56531">
        <ele>518</ele>
        <time>2018-03-18T14:02:48.000Z</time>
      </trkpt>
      <trkpt lat="43.02951" lon="0.56531">
        <ele>519</ele>
        <time>2018-03-18T14:02:50.000Z</time>
      </trkpt>
      <trkpt lat="43.02951" lon="0.56531">
        <ele>519</ele>
        <time>2018-03-18T14:02:52.000Z</time>
      </trkpt>
      <trkpt lat="43.02951" lon="0.56531">
        <ele>519</ele>
        <time>2018-03-18T14:02:54.000Z</time>
      </trkpt>
      <trkpt lat="43.02951" lon="0.56531">
        <ele>518</ele>
        <time>2018-03-18T14:02:56.000Z</time>
      </trkpt>
      <trkpt lat="43.02951" lon="0.56531">
        <ele>519</ele>
        <time>2018-03-18T14:02:58.000Z</time>
      </trkpt>
      <trkpt lat="43.02951" lon="0.56531">
        <ele>519</ele>
        <time>2018-03-18T14:03:00.000Z</time>
      </trkpt>
      <trkpt lat="43.02951" lon="0.56531">
        <ele>519</ele>
        <time>2018-03-18T14:03:02.000Z</time>
      </trkpt>
      <trkpt lat="43.02951" lon="0.56531">
        <ele>519</ele>
        <time>2018-03-18T14:03:04.000Z</time>
      </trkpt>
      <trkpt lat="43.02951" lon="0.5653">
        <ele>519</ele>
        <time>2018-03-18T14:03:06.000Z</time>
      </trkpt>
      <trkpt lat="43.02951" lon="0.56531">
        <ele>519</ele>
        <time>2018-03-18T14:03:08.000Z</time>
      </trkpt>
      <trkpt lat="43.02951" lon="0.56531">
        <ele>519</ele>
        <time>2018-03-18T14:03:10.000Z</time>
      </trkpt>
      <trkpt lat="43.02951" lon="0.56531">
        <ele>519</ele>
        <time>2018-03-18T14:03:12.000Z</time>
      </trkpt>
      <trkpt lat="43.02951" lon="0.56531">
        <ele>518</ele>
        <time>2018-03-18T14:03:14.000Z</time>
      </trkpt>
      <trkpt lat="43.02951" lon="0.56532">
        <ele>518</ele>
        <time>2018-03-18T14:03:16.000Z</time>
      </trkpt>
      <trkpt lat="43.02951" lon="0.56531">
        <ele>518</ele>
        <time>2018-03-18T14:03:18.000Z</time>
      </trkpt>
      <trkpt lat="43.02951" lon="0.56531">
        <ele>518</ele>
        <time>2018-03-18T14:03:20.000Z</time>
      </trkpt>
      <trkpt lat="43.02951" lon="0.56532">
        <ele>518</ele>
        <time>2018-03-18T14:03:22.000Z</time>
      </trkpt>
      <trkpt lat="43.02951" lon="0.56532">
        <ele>518</ele>
        <time>2018-03-18T14:03:24.000Z</time>
      </trkpt>
      <trkpt lat="43.02951" lon="0.56531">
        <ele>518</ele>
        <time>2018-03-18T14:03:26.000Z</time>
      </trkpt>
      <trkpt lat="43.02951" lon="0.56531">
        <ele>519</ele>
        <time>2018-03-18T14:03:28.000Z</time>
      </trkpt>
      <trkpt lat="43.02951" lon="0.56531">
        <ele>519</ele>
        <time>2018-03-18T14:03:30.000Z</time>
      </trkpt>
      <trkpt lat="43.02952" lon="0.56531">
        <ele>519</ele>
        <time>2018-03-18T14:03:32.000Z</time>
      </trkpt>
      <trkpt lat="43.02952" lon="0.56531">
        <ele>519</ele>
        <time>2018-03-18T14:03:34.000Z</time>
      </trkpt>
      <trkpt lat="43.02951" lon="0.56531">
        <ele>519</ele>
        <time>2018-03-18T14:03:36.000Z</time>
      </trkpt>
      <trkpt lat="43.02951" lon="0.56531">
        <ele>519</ele>
        <time>2018-03-18T14:03:38.000Z</time>
      </trkpt>
      <trkpt lat="43.02951" lon="0.56531">
        <ele>518</ele>
        <time>2018-03-18T14:03:40.000Z</time>
      </trkpt>
      <trkpt lat="43.02951" lon="0.56531">
        <ele>519</ele>
        <time>2018-03-18T14:03:42.000Z</time>
      </trkpt>
      <trkpt lat="43.02951" lon="0.56531">
        <ele>519</ele>
        <time>2018-03-18T14:03:44.000Z</time>
      </trkpt>
      <trkpt lat="43.02951" lon="0.5653">
        <ele>519</ele>
        <time>2018-03-18T14:03:46.000Z</time>
      </trkpt>
      <trkpt lat="43.02951" lon="0.56529">
        <ele>519</ele>
        <time>2018-03-18T14:03:48.000Z</time>
      </trkpt>
      <trkpt lat="43.02951" lon="0.56529">
        <ele>519</ele>
        <time>2018-03-18T14:03:50.000Z</time>
      </trkpt>
      <trkpt lat="43.0295" lon="0.56528">
        <ele>520</ele>
        <time>2018-03-18T14:03:52.000Z</time>
      </trkpt>
      <trkpt lat="43.0295" lon="0.56528">
        <ele>519</ele>
        <time>2018-03-18T14:03:54.000Z</time>
      </trkpt>
      <trkpt lat="43.0295" lon="0.56528">
        <ele>519</ele>
        <time>2018-03-18T14:03:56.000Z</time>
      </trkpt>
      <trkpt lat="43.02951" lon="0.56528">
        <ele>519</ele>
        <time>2018-03-18T14:03:58.000Z</time>
      </trkpt>
      <trkpt lat="43.02951" lon="0.56529">
        <ele>519</ele>
        <time>2018-03-18T14:04:00.000Z</time>
      </trkpt>
      <trkpt lat="43.02952" lon="0.56529">
        <ele>519</ele>
        <time>2018-03-18T14:04:02.000Z</time>
      </trkpt>
      <trkpt lat="43.02952" lon="0.56529">
        <ele>519</ele>
        <time>2018-03-18T14:04:04.000Z</time>
      </trkpt>
      <trkpt lat="43.02952" lon="0.56529">
        <ele>519</ele>
        <time>2018-03-18T14:04:06.000Z</time>
      </trkpt>
      <trkpt lat="43.02951" lon="0.56529">
        <ele>519</ele>
        <time>2018-03-18T14:04:08.000Z</time>
      </trkpt>
      <trkpt lat="43.02951" lon="0.56529">
        <ele>519</ele>
        <time>2018-03-18T14:04:10.000Z</time>
      </trkpt>
      <trkpt lat="43.02951" lon="0.56529">
        <ele>519</ele>
        <time>2018-03-18T14:04:12.000Z</time>
      </trkpt>
      <trkpt lat="43.02951" lon="0.56529">
        <ele>519</ele>
        <time>2018-03-18T14:04:14.000Z</time>
      </trkpt>
      <trkpt lat="43.0295" lon="0.56529">
        <ele>519</ele>
        <time>2018-03-18T14:04:16.000Z</time>
      </trkpt>
      <trkpt lat="43.0295" lon="0.56528">
        <ele>519</ele>
        <time>2018-03-18T14:04:18.000Z</time>
      </trkpt>
      <trkpt lat="43.0295" lon="0.56528">
        <ele>520</ele>
        <time>2018-03-18T14:04:20.000Z</time>
      </trkpt>
      <trkpt lat="43.0295" lon="0.56527">
        <ele>520</ele>
        <time>2018-03-18T14:04:22.000Z</time>
      </trkpt>
      <trkpt lat="43.0295" lon="0.56528">
        <ele>520</ele>
        <time>2018-03-18T14:04:24.000Z</time>
      </trkpt>
      <trkpt lat="43.0295" lon="0.56528">
        <ele>520</ele>
        <time>2018-03-18T14:04:26.000Z</time>
      </trkpt>
      <trkpt lat="43.0295" lon="0.56527">
        <ele>520</ele>
        <time>2018-03-18T14:04:28.000Z</time>
      </trkpt>
      <trkpt lat="43.02951" lon="0.56528">
        <ele>520</ele>
        <time>2018-03-18T14:04:30.000Z</time>
      </trkpt>
      <trkpt lat="43.02951" lon="0.56528">
        <ele>519</ele>
        <time>2018-03-18T14:04:32.000Z</time>
      </trkpt>
      <trkpt lat="43.0295" lon="0.56528">
        <ele>519</ele>
        <time>2018-03-18T14:04:34.000Z</time>
      </trkpt>
      <trkpt lat="43.0295" lon="0.56529">
        <ele>519</ele>
        <time>2018-03-18T14:04:36.000Z</time>
      </trkpt>
      <trkpt lat="43.0295" lon="0.56529">
        <ele>519</ele>
        <time>2018-03-18T14:04:38.000Z</time>
      </trkpt>
      <trkpt lat="43.0295" lon="0.5653">
        <ele>519</ele>
        <time>2018-03-18T14:04:40.000Z</time>
      </trkpt>
      <trkpt lat="43.02949" lon="0.5653">
        <ele>519</ele>
        <time>2018-03-18T14:04:42.000Z</time>
      </trkpt>
      <trkpt lat="43.02949" lon="0.5653">
        <ele>519</ele>
        <time>2018-03-18T14:04:44.000Z</time>
      </trkpt>
      <trkpt lat="43.02948" lon="0.5653">
        <ele>519</ele>
        <time>2018-03-18T14:04:46.000Z</time>
      </trkpt>
      <trkpt lat="43.02948" lon="0.5653">
        <ele>519</ele>
        <time>2018-03-18T14:04:48.000Z</time>
      </trkpt>
      <trkpt lat="43.02947" lon="0.56529">
        <ele>519</ele>
        <time>2018-03-18T14:04:50.000Z</time>
      </trkpt>
      <trkpt lat="43.02947" lon="0.56529">
        <ele>519</ele>
        <time>2018-03-18T14:04:52.000Z</time>
      </trkpt>
      <trkpt lat="43.02947" lon="0.56529">
        <ele>519</ele>
        <time>2018-03-18T14:04:54.000Z</time>
      </trkpt>
      <trkpt lat="43.02947" lon="0.56529">
        <ele>519</ele>
        <time>2018-03-18T14:04:56.000Z</time>
      </trkpt>
      <trkpt lat="43.02948" lon="0.56529">
        <ele>519</ele>
        <time>2018-03-18T14:04:58.000Z</time>
      </trkpt>
      <trkpt lat="43.02947" lon="0.56529">
        <ele>519</ele>
        <time>2018-03-18T14:05:00.000Z</time>
      </trkpt>
      <trkpt lat="43.02948" lon="0.56529">
        <ele>519</ele>
        <time>2018-03-18T14:05:02.000Z</time>
      </trkpt>
      <trkpt lat="43.02948" lon="0.56528">
        <ele>520</ele>
        <time>2018-03-18T14:05:04.000Z</time>
      </trkpt>
      <trkpt lat="43.02948" lon="0.56528">
        <ele>520</ele>
        <time>2018-03-18T14:05:06.000Z</time>
      </trkpt>
      <trkpt lat="43.02949" lon="0.56528">
        <ele>519</ele>
        <time>2018-03-18T14:05:08.000Z</time>
      </trkpt>
      <trkpt lat="43.02949" lon="0.56528">
        <ele>519</ele>
        <time>2018-03-18T14:05:10.000Z</time>
      </trkpt>
      <trkpt lat="43.02949" lon="0.56528">
        <ele>520</ele>
        <time>2018-03-18T14:05:12.000Z</time>
      </trkpt>
      <trkpt lat="43.02949" lon="0.56528">
        <ele>519</ele>
        <time>2018-03-18T14:05:14.000Z</time>
      </trkpt>
      <trkpt lat="43.0295" lon="0.56528">
        <ele>519</ele>
        <time>2018-03-18T14:05:16.000Z</time>
      </trkpt>
      <trkpt lat="43.0295" lon="0.56529">
        <ele>519</ele>
        <time>2018-03-18T14:05:18.000Z</time>
      </trkpt>
      <trkpt lat="43.0295" lon="0.56529">
        <ele>519</ele>
        <time>2018-03-18T14:05:20.000Z</time>
      </trkpt>
      <trkpt lat="43.0295" lon="0.56529">
        <ele>519</ele>
        <time>2018-03-18T14:05:22.000Z</time>
      </trkpt>
      <trkpt lat="43.0295" lon="0.56529">
        <ele>519</ele>
        <time>2018-03-18T14:05:24.000Z</time>
      </trkpt>
      <trkpt lat="43.0295" lon="0.56529">
        <ele>519</ele>
        <time>2018-03-18T14:05:26.000Z</time>
      </trkpt>
      <trkpt lat="43.0295" lon="0.56529">
        <ele>519</ele>
        <time>2018-03-18T14:05:28.000Z</time>
      </trkpt>
      <trkpt lat="43.0295" lon="0.56529">
        <ele>519</ele>
        <time>2018-03-18T14:05:30.000Z</time>
      </trkpt>
      <trkpt lat="43.0295" lon="0.56529">
        <ele>519</ele>
        <time>2018-03-18T14:05:32.000Z</time>
      </trkpt>
      <trkpt lat="43.0295" lon="0.56529">
        <ele>519</ele>
        <time>2018-03-18T14:05:34.000Z</time>
      </trkpt>
      <trkpt lat="43.02949" lon="0.56528">
        <ele>519</ele>
        <time>2018-03-18T14:05:36.000Z</time>
      </trkpt>
      <trkpt lat="43.02949" lon="0.56528">
        <ele>519</ele>
        <time>2018-03-18T14:05:38.000Z</time>
      </trkpt>
      <trkpt lat="43.02949" lon="0.56528">
        <ele>519</ele>
        <time>2018-03-18T14:05:40.000Z</time>
      </trkpt>
      <trkpt lat="43.02949" lon="0.56528">
        <ele>519</ele>
        <time>2018-03-18T14:05:42.000Z</time>
      </trkpt>
      <trkpt lat="43.02949" lon="0.56528">
        <ele>519</ele>
        <time>2018-03-18T14:05:44.000Z</time>
      </trkpt>
      <trkpt lat="43.02949" lon="0.56529">
        <ele>519</ele>
        <time>2018-03-18T14:05:46.000Z</time>
      </trkpt>
      <trkpt lat="43.02949" lon="0.56529">
        <ele>519</ele>
        <time>2018-03-18T14:05:48.000Z</time>
      </trkpt>
      <trkpt lat="43.0295" lon="0.56529">
        <ele>519</ele>
        <time>2018-03-18T14:05:50.000Z</time>
      </trkpt>
      <trkpt lat="43.0295" lon="0.56529">
        <ele>519</ele>
        <time>2018-03-18T14:05:52.000Z</time>
      </trkpt>
      <trkpt lat="43.0295" lon="0.56528">
        <ele>519</ele>
        <time>2018-03-18T14:05:54.000Z</time>
      </trkpt>
      <trkpt lat="43.0295" lon="0.56528">
        <ele>519</ele>
        <time>2018-03-18T14:05:56.000Z</time>
      </trkpt>
      <trkpt lat="43.0295" lon="0.56528">
        <ele>519</ele>
        <time>2018-03-18T14:05:58.000Z</time>
      </trkpt>
      <trkpt lat="43.0295" lon="0.56528">
        <ele>519</ele>
        <time>2018-03-18T14:06:00.000Z</time>
      </trkpt>
      <trkpt lat="43.02951" lon="0.56528">
        <ele>519</ele>
        <time>2018-03-18T14:06:02.000Z</time>
      </trkpt>
      <trkpt lat="43.02951" lon="0.56528">
        <ele>519</ele>
        <time>2018-03-18T14:06:04.000Z</time>
      </trkpt>
      <trkpt lat="43.02951" lon="0.56528">
        <ele>519</ele>
        <time>2018-03-18T14:06:06.000Z</time>
      </trkpt>
      <trkpt lat="43.02951" lon="0.56528">
        <ele>519</ele>
        <time>2018-03-18T14:06:08.000Z</time>
      </trkpt>
      <trkpt lat="43.02951" lon="0.56529">
        <ele>519</ele>
        <time>2018-03-18T14:06:10.000Z</time>
      </trkpt>
      <trkpt lat="43.02951" lon="0.56529">
        <ele>519</ele>
        <time>2018-03-18T14:06:12.000Z</time>
      </trkpt>
      <trkpt lat="43.02951" lon="0.56529">
        <ele>519</ele>
        <time>2018-03-18T14:06:14.000Z</time>
      </trkpt>
      <trkpt lat="43.02951" lon="0.56529">
        <ele>519</ele>
        <time>2018-03-18T14:06:16.000Z</time>
      </trkpt>
      <trkpt lat="43.02951" lon="0.56529">
        <ele>519</ele>
        <time>2018-03-18T14:06:18.000Z</time>
      </trkpt>
      <trkpt lat="43.02951" lon="0.56529">
        <ele>519</ele>
        <time>2018-03-18T14:06:20.000Z</time>
      </trkpt>
      <trkpt lat="43.02951" lon="0.56529">
        <ele>519</ele>
        <time>2018-03-18T14:06:22.000Z</time>
      </trkpt>
      <trkpt lat="43.02951" lon="0.56529">
        <ele>519</ele>
        <time>2018-03-18T14:06:24.000Z</time>
      </trkpt>
      <trkpt lat="43.02951" lon="0.56529">
        <ele>519</ele>
        <time>2018-03-18T14:06:26.000Z</time>
      </trkpt>
      <trkpt lat="43.02952" lon="0.56529">
        <ele>519</ele>
        <time>2018-03-18T14:06:28.000Z</time>
      </trkpt>
      <trkpt lat="43.02952" lon="0.56529">
        <ele>519</ele>
        <time>2018-03-18T14:06:30.000Z</time>
      </trkpt>
      <trkpt lat="43.02952" lon="0.56529">
        <ele>519</ele>
        <time>2018-03-18T14:06:32.000Z</time>
      </trkpt>
      <trkpt lat="43.02952" lon="0.56529">
        <ele>519</ele>
        <time>2018-03-18T14:06:34.000Z</time>
      </trkpt>
      <trkpt lat="43.02952" lon="0.56529">
        <ele>519</ele>
        <time>2018-03-18T14:06:36.000Z</time>
      </trkpt>
      <trkpt lat="43.02952" lon="0.56529">
        <ele>519</ele>
        <time>2018-03-18T14:06:38.000Z</time>
      </trkpt>
      <trkpt lat="43.02951" lon="0.56529">
        <ele>519</ele>
        <time>2018-03-18T14:06:40.000Z</time>
      </trkpt>
      <trkpt lat="43.02951" lon="0.56529">
        <ele>519</ele>
        <time>2018-03-18T14:06:42.000Z</time>
      </trkpt>
      <trkpt lat="43.0295" lon="0.56529">
        <ele>519</ele>
        <time>2018-03-18T14:06:44.000Z</time>
      </trkpt>
      <trkpt lat="43.0295" lon="0.56529">
        <ele>519</ele>
        <time>2018-03-18T14:06:46.000Z</time>
      </trkpt>
      <trkpt lat="43.0295" lon="0.56529">
        <ele>519</ele>
        <time>2018-03-18T14:06:48.000Z</time>
      </trkpt>
      <trkpt lat="43.0295" lon="0.56529">
        <ele>519</ele>
        <time>2018-03-18T14:06:50.000Z</time>
      </trkpt>
      <trkpt lat="43.0295" lon="0.56529">
        <ele>519</ele>
        <time>2018-03-18T14:06:52.000Z</time>
      </trkpt>
      <trkpt lat="43.0295" lon="0.56529">
        <ele>519</ele>
        <time>2018-03-18T14:06:54.000Z</time>
      </trkpt>
      <trkpt lat="43.0295" lon="0.56529">
        <ele>519</ele>
        <time>2018-03-18T14:06:56.000Z</time>
      </trkpt>
      <trkpt lat="43.0295" lon="0.56529">
        <ele>519</ele>
        <time>2018-03-18T14:06:58.000Z</time>
      </trkpt>
      <trkpt lat="43.0295" lon="0.56529">
        <ele>519</ele>
        <time>2018-03-18T14:07:00.000Z</time>
      </trkpt>
      <trkpt lat="43.02951" lon="0.56529">
        <ele>519</ele>
        <time>2018-03-18T14:07:02.000Z</time>
      </trkpt>
      <trkpt lat="43.02951" lon="0.56529">
        <ele>519</ele>
        <time>2018-03-18T14:07:04.000Z</time>
      </trkpt>
      <trkpt lat="43.02951" lon="0.56529">
        <ele>519</ele>
        <time>2018-03-18T14:07:06.000Z</time>
      </trkpt>
      <trkpt lat="43.02951" lon="0.5653">
        <ele>519</ele>
        <time>2018-03-18T14:07:08.000Z</time>
      </trkpt>
      <trkpt lat="43.0295" lon="0.5653">
        <ele>519</ele>
        <time>2018-03-18T14:07:10.000Z</time>
      </trkpt>
      <trkpt lat="43.02951" lon="0.5653">
        <ele>519</ele>
        <time>2018-03-18T14:07:12.000Z</time>
      </trkpt>
      <trkpt lat="43.02951" lon="0.5653">
        <ele>519</ele>
        <time>2018-03-18T14:07:14.000Z</time>
      </trkpt>
      <trkpt lat="43.02951" lon="0.5653">
        <ele>519</ele>
        <time>2018-03-18T14:07:16.000Z</time>
      </trkpt>
      <trkpt lat="43.02951" lon="0.5653">
        <ele>519</ele>
        <time>2018-03-18T14:07:18.000Z</time>
      </trkpt>
      <trkpt lat="43.02951" lon="0.5653">
        <ele>519</ele>
        <time>2018-03-18T14:07:20.000Z</time>
      </trkpt>
      <trkpt lat="43.02951" lon="0.5653">
        <ele>519</ele>
        <time>2018-03-18T14:07:22.000Z</time>
      </trkpt>
      <trkpt lat="43.02951" lon="0.56529">
        <ele>519</ele>
        <time>2018-03-18T14:07:24.000Z</time>
      </trkpt>
      <trkpt lat="43.02951" lon="0.56529">
        <ele>519</ele>
        <time>2018-03-18T14:07:26.000Z</time>
      </trkpt>
      <trkpt lat="43.02951" lon="0.56529">
        <ele>519</ele>
        <time>2018-03-18T14:07:28.000Z</time>
      </trkpt>
      <trkpt lat="43.02951" lon="0.56529">
        <ele>519</ele>
        <time>2018-03-18T14:07:30.000Z</time>
      </trkpt>
      <trkpt lat="43.02951" lon="0.56529">
        <ele>519</ele>
        <time>2018-03-18T14:07:32.000Z</time>
      </trkpt>
      <trkpt lat="43.02951" lon="0.56529">
        <ele>519</ele>
        <time>2018-03-18T14:07:34.000Z</time>
      </trkpt>
      <trkpt lat="43.02951" lon="0.56529">
        <ele>519</ele>
        <time>2018-03-18T14:07:36.000Z</time>
      </trkpt>
      <trkpt lat="43.02951" lon="0.56529">
        <ele>519</ele>
        <time>2018-03-18T14:07:38.000Z</time>
      </trkpt>
      <trkpt lat="43.02951" lon="0.56529">
        <ele>519</ele>
        <time>2018-03-18T14:07:40.000Z</time>
      </trkpt>
      <trkpt lat="43.02951" lon="0.56529">
        <ele>519</ele>
        <time>2018-03-18T14:07:42.000Z</time>
      </trkpt>
      <trkpt lat="43.02951" lon="0.56528">
        <ele>519</ele>
        <time>2018-03-18T14:07:44.000Z</time>
      </trkpt>
      <trkpt lat="43.02951" lon="0.56528">
        <ele>519</ele>
        <time>2018-03-18T14:07:46.000Z</time>
      </trkpt>
      <trkpt lat="43.02951" lon="0.56528">
        <ele>519</ele>
        <time>2018-03-18T14:07:48.000Z</time>
      </trkpt>
      <trkpt lat="43.02951" lon="0.56528">
        <ele>519</ele>
        <time>2018-03-18T14:07:50.000Z</time>
      </trkpt>
      <trkpt lat="43.02951" lon="0.56528">
        <ele>519</ele>
        <time>2018-03-18T14:07:52.000Z</time>
      </trkpt>
      <trkpt lat="43.02951" lon="0.56528">
        <ele>519</ele>
        <time>2018-03-18T14:07:54.000Z</time>
      </trkpt>
      <trkpt lat="43.02951" lon="0.56528">
        <ele>519</ele>
        <time>2018-03-18T14:07:56.000Z</time>
      </trkpt>
      <trkpt lat="43.02951" lon="0.56528">
        <ele>519</ele>
        <time>2018-03-18T14:07:58.000Z</time>
      </trkpt>
      <trkpt lat="43.02951" lon="0.56528">
        <ele>519</ele>
        <time>2018-03-18T14:08:00.000Z</time>
      </trkpt>
      <trkpt lat="43.02951" lon="0.56528">
        <ele>519</ele>
        <time>2018-03-18T14:08:02.000Z</time>
      </trkpt>
      <trkpt lat="43.02951" lon="0.56528">
        <ele>519</ele>
        <time>2018-03-18T14:08:04.000Z</time>
      </trkpt>
      <trkpt lat="43.02952" lon="0.56528">
        <ele>520</ele>
        <time>2018-03-18T14:08:06.000Z</time>
      </trkpt>
      <trkpt lat="43.02951" lon="0.56527">
        <ele>520</ele>
        <time>2018-03-18T14:08:08.000Z</time>
      </trkpt>
      <trkpt lat="43.02951" lon="0.56527">
        <ele>520</ele>
        <time>2018-03-18T14:08:10.000Z</time>
      </trkpt>
      <trkpt lat="43.02951" lon="0.56527">
        <ele>520</ele>
        <time>2018-03-18T14:08:12.000Z</time>
      </trkpt>
      <trkpt lat="43.02951" lon="0.56527">
        <ele>520</ele>
        <time>2018-03-18T14:08:14.000Z</time>
      </trkpt>
      <trkpt lat="43.02951" lon="0.56528">
        <ele>519</ele>
        <time>2018-03-18T14:08:16.000Z</time>
      </trkpt>
      <trkpt lat="43.02952" lon="0.56528">
        <ele>519</ele>
        <time>2018-03-18T14:08:18.000Z</time>
      </trkpt>
      <trkpt lat="43.02952" lon="0.56529">
        <ele>519</ele>
        <time>2018-03-18T14:08:20.000Z</time>
      </trkpt>
      <trkpt lat="43.02952" lon="0.56529">
        <ele>519</ele>
        <time>2018-03-18T14:08:22.000Z</time>
      </trkpt>
      <trkpt lat="43.02951" lon="0.56529">
        <ele>519</ele>
        <time>2018-03-18T14:08:24.000Z</time>
      </trkpt>
      <trkpt lat="43.02951" lon="0.56529">
        <ele>519</ele>
        <time>2018-03-18T14:08:26.000Z</time>
      </trkpt>
      <trkpt lat="43.02952" lon="0.56529">
        <ele>519</ele>
        <time>2018-03-18T14:08:28.000Z</time>
      </trkpt>
      <trkpt lat="43.02952" lon="0.56528">
        <ele>519</ele>
        <time>2018-03-18T14:08:30.000Z</time>
      </trkpt>
      <trkpt lat="43.02952" lon="0.56528">
        <ele>519</ele>
        <time>2018-03-18T14:08:32.000Z</time>
      </trkpt>
      <trkpt lat="43.02952" lon="0.56528">
        <ele>519</ele>
        <time>2018-03-18T14:08:34.000Z</time>
      </trkpt>
      <trkpt lat="43.02952" lon="0.56528">
        <ele>519</ele>
        <time>2018-03-18T14:08:36.000Z</time>
      </trkpt>
      <trkpt lat="43.02952" lon="0.56527">
        <ele>519</ele>
        <time>2018-03-18T14:08:38.000Z</time>
      </trkpt>
      <trkpt lat="43.02953" lon="0.56527">
        <ele>520</ele>
        <time>2018-03-18T14:08:40.000Z</time>
      </trkpt>
      <trkpt lat="43.02953" lon="0.56527">
        <ele>520</ele>
        <time>2018-03-18T14:08:42.000Z</time>
      </trkpt>
      <trkpt lat="43.02953" lon="0.56527">
        <ele>520</ele>
        <time>2018-03-18T14:08:44.000Z</time>
      </trkpt>
      <trkpt lat="43.02953" lon="0.56527">
        <ele>520</ele>
        <time>2018-03-18T14:08:46.000Z</time>
      </trkpt>
      <trkpt lat="43.02954" lon="0.56527">
        <ele>520</ele>
        <time>2018-03-18T14:08:48.000Z</time>
      </trkpt>
      <trkpt lat="43.02954" lon="0.56526">
        <ele>520</ele>
        <time>2018-03-18T14:08:50.000Z</time>
      </trkpt>
      <trkpt lat="43.02954" lon="0.56526">
        <ele>520</ele>
        <time>2018-03-18T14:08:52.000Z</time>
      </trkpt>
      <trkpt lat="43.02954" lon="0.56527">
        <ele>520</ele>
        <time>2018-03-18T14:08:54.000Z</time>
      </trkpt>
      <trkpt lat="43.02954" lon="0.56527">
        <ele>520</ele>
        <time>2018-03-18T14:08:56.000Z</time>
      </trkpt>
      <trkpt lat="43.02954" lon="0.56527">
        <ele>520</ele>
        <time>2018-03-18T14:08:58.000Z</time>
      </trkpt>
      <trkpt lat="43.02954" lon="0.56527">
        <ele>520</ele>
        <time>2018-03-18T14:09:00.000Z</time>
      </trkpt>
      <trkpt lat="43.02954" lon="0.56527">
        <ele>520</ele>
        <time>2018-03-18T14:09:02.000Z</time>
      </trkpt>
      <trkpt lat="43.02954" lon="0.56527">
        <ele>520</ele>
        <time>2018-03-18T14:09:04.000Z</time>
      </trkpt>
      <trkpt lat="43.02953" lon="0.56528">
        <ele>519</ele>
        <time>2018-03-18T14:09:06.000Z</time>
      </trkpt>
      <trkpt lat="43.02952" lon="0.56528">
        <ele>519</ele>
        <time>2018-03-18T14:09:08.000Z</time>
      </trkpt>
      <trkpt lat="43.02952" lon="0.56528">
        <ele>519</ele>
        <time>2018-03-18T14:09:10.000Z</time>
      </trkpt>
      <trkpt lat="43.02951" lon="0.56528">
        <ele>519</ele>
        <time>2018-03-18T14:09:12.000Z</time>
      </trkpt>
      <trkpt lat="43.02951" lon="0.56528">
        <ele>519</ele>
        <time>2018-03-18T14:09:14.000Z</time>
      </trkpt>
      <trkpt lat="43.0295" lon="0.56529">
        <ele>519</ele>
        <time>2018-03-18T14:09:16.000Z</time>
      </trkpt>
      <trkpt lat="43.0295" lon="0.56528">
        <ele>519</ele>
        <time>2018-03-18T14:09:18.000Z</time>
      </trkpt>
      <trkpt lat="43.0295" lon="0.56528">
        <ele>519</ele>
        <time>2018-03-18T14:09:20.000Z</time>
      </trkpt>
      <trkpt lat="43.0295" lon="0.56528">
        <ele>519</ele>
        <time>2018-03-18T14:09:22.000Z</time>
      </trkpt>
      <trkpt lat="43.0295" lon="0.56529">
        <ele>519</ele>
        <time>2018-03-18T14:09:24.000Z</time>
      </trkpt>
      <trkpt lat="43.02949" lon="0.56529">
        <ele>519</ele>
        <time>2018-03-18T14:09:26.000Z</time>
      </trkpt>
      <trkpt lat="43.02949" lon="0.56529">
        <ele>519</ele>
        <time>2018-03-18T14:09:28.000Z</time>
      </trkpt>
      <trkpt lat="43.02949" lon="0.56529">
        <ele>519</ele>
        <time>2018-03-18T14:09:30.000Z</time>
      </trkpt>
      <trkpt lat="43.02949" lon="0.56529">
        <ele>519</ele>
        <time>2018-03-18T14:09:32.000Z</time>
      </trkpt>
      <trkpt lat="43.02949" lon="0.56529">
        <ele>519</ele>
        <time>2018-03-18T14:09:34.000Z</time>
      </trkpt>
      <trkpt lat="43.0295" lon="0.56529">
        <ele>519</ele>
        <time>2018-03-18T14:09:36.000Z</time>
      </trkpt>
      <trkpt lat="43.0295" lon="0.56529">
        <ele>519</ele>
        <time>2018-03-18T14:09:38.000Z</time>
      </trkpt>
      <trkpt lat="43.0295" lon="0.56529">
        <ele>519</ele>
        <time>2018-03-18T14:09:40.000Z</time>
      </trkpt>
      <trkpt lat="43.02951" lon="0.56529">
        <ele>519</ele>
        <time>2018-03-18T14:09:42.000Z</time>
      </trkpt>
      <trkpt lat="43.02951" lon="0.56529">
        <ele>519</ele>
        <time>2018-03-18T14:09:44.000Z</time>
      </trkpt>
      <trkpt lat="43.02951" lon="0.56529">
        <ele>519</ele>
        <time>2018-03-18T14:09:46.000Z</time>
      </trkpt>
      <trkpt lat="43.02952" lon="0.56529">
        <ele>519</ele>
        <time>2018-03-18T14:09:48.000Z</time>
      </trkpt>
      <trkpt lat="43.02952" lon="0.56529">
        <ele>519</ele>
        <time>2018-03-18T14:09:50.000Z</time>
      </trkpt>
      <trkpt lat="43.02952" lon="0.56529">
        <ele>519</ele>
        <time>2018-03-18T14:09:52.000Z</time>
      </trkpt>
      <trkpt lat="43.02952" lon="0.56529">
        <ele>519</ele>
        <time>2018-03-18T14:09:54.000Z</time>
      </trkpt>
      <trkpt lat="43.02952" lon="0.56529">
        <ele>519</ele>
        <time>2018-03-18T14:09:56.000Z</time>
      </trkpt>
      <trkpt lat="43.02952" lon="0.56529">
        <ele>519</ele>
        <time>2018-03-18T14:09:58.000Z</time>
      </trkpt>
      <trkpt lat="43.02952" lon="0.56529">
        <ele>519</ele>
        <time>2018-03-18T14:10:00.000Z</time>
      </trkpt>
      <trkpt lat="43.02952" lon="0.56529">
        <ele>519</ele>
        <time>2018-03-18T14:10:02.000Z</time>
      </trkpt>
      <trkpt lat="43.02952" lon="0.56529">
        <ele>519</ele>
        <time>2018-03-18T14:10:04.000Z</time>
      </trkpt>
      <trkpt lat="43.02952" lon="0.56529">
        <ele>519</ele>
        <time>2018-03-18T14:10:06.000Z</time>
      </trkpt>
      <trkpt lat="43.02952" lon="0.56529">
        <ele>519</ele>
        <time>2018-03-18T14:10:08.000Z</time>
      </trkpt>
      <trkpt lat="43.02952" lon="0.56529">
        <ele>519</ele>
        <time>2018-03-18T14:10:10.000Z</time>
      </trkpt>
      <trkpt lat="43.02952" lon="0.56529">
        <ele>519</ele>
        <time>2018-03-18T14:10:12.000Z</time>
      </trkpt>
      <trkpt lat="43.02952" lon="0.56529">
        <ele>519</ele>
        <time>2018-03-18T14:10:14.000Z</time>
      </trkpt>
      <trkpt lat="43.02952" lon="0.56529">
        <ele>519</ele>
        <time>2018-03-18T14:10:16.000Z</time>
      </trkpt>
      <trkpt lat="43.02953" lon="0.56529">
        <ele>519</ele>
        <time>2018-03-18T14:10:18.000Z</time>
      </trkpt>
      <trkpt lat="43.02953" lon="0.56529">
        <ele>519</ele>
        <time>2018-03-18T14:10:20.000Z</time>
      </trkpt>
      <trkpt lat="43.02953" lon="0.56529">
        <ele>519</ele>
        <time>2018-03-18T14:10:22.000Z</time>
      </trkpt>
      <trkpt lat="43.02953" lon="0.56529">
        <ele>519</ele>
        <time>2018-03-18T14:10:24.000Z</time>
      </trkpt>
      <trkpt lat="43.02953" lon="0.56529">
        <ele>519</ele>
        <time>2018-03-18T14:10:26.000Z</time>
      </trkpt>
      <trkpt lat="43.02953" lon="0.56529">
        <ele>519</ele>
        <time>2018-03-18T14:10:28.000Z</time>
      </trkpt>
      <trkpt lat="43.02952" lon="0.56529">
        <ele>519</ele>
        <time>2018-03-18T14:10:30.000Z</time>
      </trkpt>
      <trkpt lat="43.02952" lon="0.5653">
        <ele>519</ele>
        <time>2018-03-18T14:10:32.000Z</time>
      </trkpt>
      <trkpt lat="43.0295" lon="0.56531">
        <ele>519</ele>
        <time>2018-03-18T14:10:34.000Z</time>
      </trkpt>
      <trkpt lat="43.02948" lon="0.56533">
        <ele>518</ele>
        <time>2018-03-18T14:10:36.000Z</time>
      </trkpt>
      <trkpt lat="43.02946" lon="0.56535">
        <ele>518</ele>
        <time>2018-03-18T14:10:38.000Z</time>
      </trkpt>
      <trkpt lat="43.02943" lon="0.56536">
        <ele>517</ele>
        <time>2018-03-18T14:10:40.000Z</time>
      </trkpt>
      <trkpt lat="43.02941" lon="0.56537">
        <ele>517</ele>
        <time>2018-03-18T14:10:42.000Z</time>
      </trkpt>
      <trkpt lat="43.02939" lon="0.56538">
        <ele>517</ele>
        <time>2018-03-18T14:10:44.000Z</time>
      </trkpt>
      <trkpt lat="43.02936" lon="0.56539">
        <ele>517</ele>
        <time>2018-03-18T14:10:46.000Z</time>
      </trkpt>
      <trkpt lat="43.02933" lon="0.56539">
        <ele>517</ele>
        <time>2018-03-18T14:10:48.000Z</time>
      </trkpt>
      <trkpt lat="43.02931" lon="0.5654">
        <ele>517</ele>
        <time>2018-03-18T14:10:50.000Z</time>
      </trkpt>
      <trkpt lat="43.02929" lon="0.56541">
        <ele>517</ele>
        <time>2018-03-18T14:10:52.000Z</time>
      </trkpt>
      <trkpt lat="43.02927" lon="0.56542">
        <ele>517</ele>
        <time>2018-03-18T14:10:54.000Z</time>
      </trkpt>
      <trkpt lat="43.02924" lon="0.56543">
        <ele>516</ele>
        <time>2018-03-18T14:10:56.000Z</time>
      </trkpt>
      <trkpt lat="43.02923" lon="0.56544">
        <ele>516</ele>
        <time>2018-03-18T14:10:58.000Z</time>
      </trkpt>
      <trkpt lat="43.02921" lon="0.56544">
        <ele>516</ele>
        <time>2018-03-18T14:11:00.000Z</time>
      </trkpt>
      <trkpt lat="43.02918" lon="0.56545">
        <ele>516</ele>
        <time>2018-03-18T14:11:02.000Z</time>
      </trkpt>
      <trkpt lat="43.02916" lon="0.56544">
        <ele>516</ele>
        <time>2018-03-18T14:11:04.000Z</time>
      </trkpt>
      <trkpt lat="43.02914" lon="0.56545">
        <ele>515</ele>
        <time>2018-03-18T14:11:06.000Z</time>
      </trkpt>
      <trkpt lat="43.02912" lon="0.56546">
        <ele>515</ele>
        <time>2018-03-18T14:11:08.000Z</time>
      </trkpt>
      <trkpt lat="43.02909" lon="0.56546">
        <ele>515</ele>
        <time>2018-03-18T14:11:10.000Z</time>
      </trkpt>
      <trkpt lat="43.02907" lon="0.56547">
        <ele>515</ele>
        <time>2018-03-18T14:11:12.000Z</time>
      </trkpt>
      <trkpt lat="43.02905" lon="0.56546">
        <ele>515</ele>
        <time>2018-03-18T14:11:14.000Z</time>
      </trkpt>
      <trkpt lat="43.02902" lon="0.56547">
        <ele>515</ele>
        <time>2018-03-18T14:11:16.000Z</time>
      </trkpt>
      <trkpt lat="43.02901" lon="0.56546">
        <ele>515</ele>
        <time>2018-03-18T14:11:18.000Z</time>
      </trkpt>
      <trkpt lat="43.02899" lon="0.56546">
        <ele>515</ele>
        <time>2018-03-18T14:11:20.000Z</time>
      </trkpt>
      <trkpt lat="43.02896" lon="0.56546">
        <ele>515</ele>
        <time>2018-03-18T14:11:22.000Z</time>
      </trkpt>
      <trkpt lat="43.02894" lon="0.56547">
        <ele>515</ele>
        <time>2018-03-18T14:11:24.000Z</time>
      </trkpt>
      <trkpt lat="43.02893" lon="0.56547">
        <ele>515</ele>
        <time>2018-03-18T14:11:26.000Z</time>
      </trkpt>
      <trkpt lat="43.02891" lon="0.56547">
        <ele>515</ele>
        <time>2018-03-18T14:11:28.000Z</time>
      </trkpt>
      <trkpt lat="43.0289" lon="0.56548">
        <ele>515</ele>
        <time>2018-03-18T14:11:30.000Z</time>
      </trkpt>
      <trkpt lat="43.02888" lon="0.56549">
        <ele>515</ele>
        <time>2018-03-18T14:11:32.000Z</time>
      </trkpt>
      <trkpt lat="43.02887" lon="0.5655">
        <ele>515</ele>
        <time>2018-03-18T14:11:34.000Z</time>
      </trkpt>
      <trkpt lat="43.02885" lon="0.56551">
        <ele>515</ele>
        <time>2018-03-18T14:11:36.000Z</time>
      </trkpt>
      <trkpt lat="43.02882" lon="0.56552">
        <ele>514</ele>
        <time>2018-03-18T14:11:38.000Z</time>
      </trkpt>
      <trkpt lat="43.0288" lon="0.56552">
        <ele>514</ele>
        <time>2018-03-18T14:11:40.000Z</time>
      </trkpt>
      <trkpt lat="43.02878" lon="0.56553">
        <ele>514</ele>
        <time>2018-03-18T14:11:42.000Z</time>
      </trkpt>
      <trkpt lat="43.02876" lon="0.56554">
        <ele>514</ele>
        <time>2018-03-18T14:11:44.000Z</time>
      </trkpt>
      <trkpt lat="43.02874" lon="0.56555">
        <ele>514</ele>
        <time>2018-03-18T14:11:46.000Z</time>
      </trkpt>
      <trkpt lat="43.02873" lon="0.56555">
        <ele>514</ele>
        <time>2018-03-18T14:11:48.000Z</time>
      </trkpt>
      <trkpt lat="43.02872" lon="0.56556">
        <ele>514</ele>
        <time>2018-03-18T14:11:50.000Z</time>
      </trkpt>
      <trkpt lat="43.02871" lon="0.56556">
        <ele>513</ele>
        <time>2018-03-18T14:11:52.000Z</time>
      </trkpt>
      <trkpt lat="43.02869" lon="0.56557">
        <ele>513</ele>
        <time>2018-03-18T14:11:54.000Z</time>
      </trkpt>
      <trkpt lat="43.02867" lon="0.56557">
        <ele>513</ele>
        <time>2018-03-18T14:11:56.000Z</time>
      </trkpt>
      <trkpt lat="43.02865" lon="0.56557">
        <ele>513</ele>
        <time>2018-03-18T14:11:58.000Z</time>
      </trkpt>
      <trkpt lat="43.02863" lon="0.56558">
        <ele>513</ele>
        <time>2018-03-18T14:12:00.000Z</time>
      </trkpt>
      <trkpt lat="43.0286" lon="0.56559">
        <ele>513</ele>
        <time>2018-03-18T14:12:02.000Z</time>
      </trkpt>
      <trkpt lat="43.02859" lon="0.56559">
        <ele>513</ele>
        <time>2018-03-18T14:12:04.000Z</time>
      </trkpt>
      <trkpt lat="43.02857" lon="0.56559">
        <ele>513</ele>
        <time>2018-03-18T14:12:06.000Z</time>
      </trkpt>
      <trkpt lat="43.02855" lon="0.5656">
        <ele>513</ele>
        <time>2018-03-18T14:12:08.000Z</time>
      </trkpt>
      <trkpt lat="43.02853" lon="0.56561">
        <ele>512</ele>
        <time>2018-03-18T14:12:10.000Z</time>
      </trkpt>
      <trkpt lat="43.0285" lon="0.56562">
        <ele>513</ele>
        <time>2018-03-18T14:12:12.000Z</time>
      </trkpt>
      <trkpt lat="43.02848" lon="0.56562">
        <ele>513</ele>
        <time>2018-03-18T14:12:14.000Z</time>
      </trkpt>
      <trkpt lat="43.02845" lon="0.56562">
        <ele>513</ele>
        <time>2018-03-18T14:12:16.000Z</time>
      </trkpt>
      <trkpt lat="43.02842" lon="0.56562">
        <ele>513</ele>
        <time>2018-03-18T14:12:18.000Z</time>
      </trkpt>
      <trkpt lat="43.02839" lon="0.56561">
        <ele>513</ele>
        <time>2018-03-18T14:12:20.000Z</time>
      </trkpt>
      <trkpt lat="43.02837" lon="0.5656">
        <ele>514</ele>
        <time>2018-03-18T14:12:22.000Z</time>
      </trkpt>
      <trkpt lat="43.02834" lon="0.56561">
        <ele>513</ele>
        <time>2018-03-18T14:12:24.000Z</time>
      </trkpt>
      <trkpt lat="43.02832" lon="0.5656">
        <ele>513</ele>
        <time>2018-03-18T14:12:26.000Z</time>
      </trkpt>
      <trkpt lat="43.0283" lon="0.56561">
        <ele>513</ele>
        <time>2018-03-18T14:12:28.000Z</time>
      </trkpt>
      <trkpt lat="43.02827" lon="0.5656">
        <ele>513</ele>
        <time>2018-03-18T14:12:30.000Z</time>
      </trkpt>
      <trkpt lat="43.02825" lon="0.5656">
        <ele>513</ele>
        <time>2018-03-18T14:12:32.000Z</time>
      </trkpt>
      <trkpt lat="43.02823" lon="0.5656">
        <ele>513</ele>
        <time>2018-03-18T14:12:34.000Z</time>
      </trkpt>
      <trkpt lat="43.0282" lon="0.5656">
        <ele>513</ele>
        <time>2018-03-18T14:12:36.000Z</time>
      </trkpt>
      <trkpt lat="43.02817" lon="0.56559">
        <ele>513</ele>
        <time>2018-03-18T14:12:38.000Z</time>
      </trkpt>
      <trkpt lat="43.02815" lon="0.56558">
        <ele>513</ele>
        <time>2018-03-18T14:12:40.000Z</time>
      </trkpt>
      <trkpt lat="43.02812" lon="0.56557">
        <ele>513</ele>
        <time>2018-03-18T14:12:42.000Z</time>
      </trkpt>
      <trkpt lat="43.0281" lon="0.56556">
        <ele>513</ele>
        <time>2018-03-18T14:12:44.000Z</time>
      </trkpt>
      <trkpt lat="43.02808" lon="0.56556">
        <ele>513</ele>
        <time>2018-03-18T14:12:46.000Z</time>
      </trkpt>
      <trkpt lat="43.02806" lon="0.56555">
        <ele>513</ele>
        <time>2018-03-18T14:12:48.000Z</time>
      </trkpt>
      <trkpt lat="43.02804" lon="0.56554">
        <ele>513</ele>
        <time>2018-03-18T14:12:50.000Z</time>
      </trkpt>
      <trkpt lat="43.02802" lon="0.56552">
        <ele>513</ele>
        <time>2018-03-18T14:12:52.000Z</time>
      </trkpt>
      <trkpt lat="43.02801" lon="0.56551">
        <ele>513</ele>
        <time>2018-03-18T14:12:54.000Z</time>
      </trkpt>
      <trkpt lat="43.02799" lon="0.56551">
        <ele>513</ele>
        <time>2018-03-18T14:12:56.000Z</time>
      </trkpt>
      <trkpt lat="43.02797" lon="0.56549">
        <ele>514</ele>
        <time>2018-03-18T14:12:58.000Z</time>
      </trkpt>
      <trkpt lat="43.02797" lon="0.56548">
        <ele>514</ele>
        <time>2018-03-18T14:13:00.000Z</time>
      </trkpt>
      <trkpt lat="43.02796" lon="0.56547">
        <ele>514</ele>
        <time>2018-03-18T14:13:02.000Z</time>
      </trkpt>
      <trkpt lat="43.02796" lon="0.56547">
        <ele>514</ele>
        <time>2018-03-18T14:13:04.000Z</time>
      </trkpt>
      <trkpt lat="43.02796" lon="0.56546">
        <ele>514</ele>
        <time>2018-03-18T14:13:06.000Z</time>
      </trkpt>
      <trkpt lat="43.02796" lon="0.56546">
        <ele>514</ele>
        <time>2018-03-18T14:13:08.000Z</time>
      </trkpt>
      <trkpt lat="43.02796" lon="0.56546">
        <ele>514</ele>
        <time>2018-03-18T14:13:10.000Z</time>
      </trkpt>
      <trkpt lat="43.02796" lon="0.56546">
        <ele>515</ele>
        <time>2018-03-18T14:13:12.000Z</time>
      </trkpt>
      <trkpt lat="43.02795" lon="0.56546">
        <ele>514</ele>
        <time>2018-03-18T14:13:14.000Z</time>
      </trkpt>
      <trkpt lat="43.02795" lon="0.56546">
        <ele>514</ele>
        <time>2018-03-18T14:13:16.000Z</time>
      </trkpt>
      <trkpt lat="43.02795" lon="0.56546">
        <ele>514</ele>
        <time>2018-03-18T14:13:18.000Z</time>
      </trkpt>
      <trkpt lat="43.02795" lon="0.56545">
        <ele>515</ele>
        <time>2018-03-18T14:13:20.000Z</time>
      </trkpt>
      <trkpt lat="43.02795" lon="0.56544">
        <ele>515</ele>
        <time>2018-03-18T14:13:22.000Z</time>
      </trkpt>
      <trkpt lat="43.02795" lon="0.56544">
        <ele>515</ele>
        <time>2018-03-18T14:13:24.000Z</time>
      </trkpt>
      <trkpt lat="43.02795" lon="0.56543">
        <ele>515</ele>
        <time>2018-03-18T14:13:26.000Z</time>
      </trkpt>
      <trkpt lat="43.02795" lon="0.56543">
        <ele>515</ele>
        <time>2018-03-18T14:13:28.000Z</time>
      </trkpt>
      <trkpt lat="43.02795" lon="0.56543">
        <ele>515</ele>
        <time>2018-03-18T14:13:30.000Z</time>
      </trkpt>
      <trkpt lat="43.02795" lon="0.56543">
        <ele>515</ele>
        <time>2018-03-18T14:13:32.000Z</time>
      </trkpt>
      <trkpt lat="43.02795" lon="0.56543">
        <ele>515</ele>
        <time>2018-03-18T14:13:34.000Z</time>
      </trkpt>
      <trkpt lat="43.02795" lon="0.56542">
        <ele>515</ele>
        <time>2018-03-18T14:13:36.000Z</time>
      </trkpt>
      <trkpt lat="43.02795" lon="0.56542">
        <ele>515</ele>
        <time>2018-03-18T14:13:38.000Z</time>
      </trkpt>
      <trkpt lat="43.02795" lon="0.56542">
        <ele>515</ele>
        <time>2018-03-18T14:13:40.000Z</time>
      </trkpt>
      <trkpt lat="43.02795" lon="0.56542">
        <ele>515</ele>
        <time>2018-03-18T14:13:42.000Z</time>
      </trkpt>
      <trkpt lat="43.02795" lon="0.56542">
        <ele>515</ele>
        <time>2018-03-18T14:13:44.000Z</time>
      </trkpt>
      <trkpt lat="43.02795" lon="0.56542">
        <ele>515</ele>
        <time>2018-03-18T14:13:46.000Z</time>
      </trkpt>
      <trkpt lat="43.02795" lon="0.56543">
        <ele>515</ele>
        <time>2018-03-18T14:13:48.000Z</time>
      </trkpt>
      <trkpt lat="43.02794" lon="0.56542">
        <ele>515</ele>
        <time>2018-03-18T14:13:50.000Z</time>
      </trkpt>
      <trkpt lat="43.02793" lon="0.56542">
        <ele>515</ele>
        <time>2018-03-18T14:13:52.000Z</time>
      </trkpt>
      <trkpt lat="43.02791" lon="0.56542">
        <ele>515</ele>
        <time>2018-03-18T14:13:54.000Z</time>
      </trkpt>
      <trkpt lat="43.02789" lon="0.56542">
        <ele>515</ele>
        <time>2018-03-18T14:13:56.000Z</time>
      </trkpt>
      <trkpt lat="43.02787" lon="0.56541">
        <ele>515</ele>
        <time>2018-03-18T14:13:58.000Z</time>
      </trkpt>
      <trkpt lat="43.02785" lon="0.56541">
        <ele>515</ele>
        <time>2018-03-18T14:14:00.000Z</time>
      </trkpt>
      <trkpt lat="43.02784" lon="0.56539">
        <ele>515</ele>
        <time>2018-03-18T14:14:02.000Z</time>
      </trkpt>
      <trkpt lat="43.02782" lon="0.56538">
        <ele>516</ele>
        <time>2018-03-18T14:14:04.000Z</time>
      </trkpt>
      <trkpt lat="43.02781" lon="0.56538">
        <ele>516</ele>
        <time>2018-03-18T14:14:06.000Z</time>
      </trkpt>
      <trkpt lat="43.02779" lon="0.56536">
        <ele>516</ele>
        <time>2018-03-18T14:14:08.000Z</time>
      </trkpt>
      <trkpt lat="43.02778" lon="0.56535">
        <ele>516</ele>
        <time>2018-03-18T14:14:10.000Z</time>
      </trkpt>
      <trkpt lat="43.02777" lon="0.56534">
        <ele>516</ele>
        <time>2018-03-18T14:14:12.000Z</time>
      </trkpt>
      <trkpt lat="43.02776" lon="0.56533">
        <ele>516</ele>
        <time>2018-03-18T14:14:14.000Z</time>
      </trkpt>
      <trkpt lat="43.02774" lon="0.56532">
        <ele>517</ele>
        <time>2018-03-18T14:14:16.000Z</time>
      </trkpt>
      <trkpt lat="43.02773" lon="0.56531">
        <ele>517</ele>
        <time>2018-03-18T14:14:18.000Z</time>
      </trkpt>
      <trkpt lat="43.02771" lon="0.5653">
        <ele>517</ele>
        <time>2018-03-18T14:14:20.000Z</time>
      </trkpt>
      <trkpt lat="43.02769" lon="0.56529">
        <ele>517</ele>
        <time>2018-03-18T14:14:22.000Z</time>
      </trkpt>
      <trkpt lat="43.02767" lon="0.56528">
        <ele>517</ele>
        <time>2018-03-18T14:14:24.000Z</time>
      </trkpt>
      <trkpt lat="43.02766" lon="0.56527">
        <ele>518</ele>
        <time>2018-03-18T14:14:26.000Z</time>
      </trkpt>
      <trkpt lat="43.02764" lon="0.56526">
        <ele>518</ele>
        <time>2018-03-18T14:14:28.000Z</time>
      </trkpt>
      <trkpt lat="43.02763" lon="0.56524">
        <ele>518</ele>
        <time>2018-03-18T14:14:30.000Z</time>
      </trkpt>
      <trkpt lat="43.02761" lon="0.56523">
        <ele>518</ele>
        <time>2018-03-18T14:14:32.000Z</time>
      </trkpt>
      <trkpt lat="43.0276" lon="0.56522">
        <ele>518</ele>
        <time>2018-03-18T14:14:34.000Z</time>
      </trkpt>
      <trkpt lat="43.02758" lon="0.56522">
        <ele>518</ele>
        <time>2018-03-18T14:14:36.000Z</time>
      </trkpt>
      <trkpt lat="43.02756" lon="0.56521">
        <ele>518</ele>
        <time>2018-03-18T14:14:38.000Z</time>
      </trkpt>
      <trkpt lat="43.02755" lon="0.56519">
        <ele>519</ele>
        <time>2018-03-18T14:14:40.000Z</time>
      </trkpt>
      <trkpt lat="43.02753" lon="0.56519">
        <ele>519</ele>
        <time>2018-03-18T14:14:42.000Z</time>
      </trkpt>
      <trkpt lat="43.02751" lon="0.56518">
        <ele>519</ele>
        <time>2018-03-18T14:14:44.000Z</time>
      </trkpt>
      <trkpt lat="43.0275" lon="0.56517">
        <ele>519</ele>
        <time>2018-03-18T14:14:46.000Z</time>
      </trkpt>
      <trkpt lat="43.02748" lon="0.56516">
        <ele>519</ele>
        <time>2018-03-18T14:14:48.000Z</time>
      </trkpt>
      <trkpt lat="43.02747" lon="0.56515">
        <ele>519</ele>
        <time>2018-03-18T14:14:50.000Z</time>
      </trkpt>
      <trkpt lat="43.02746" lon="0.56514">
        <ele>520</ele>
        <time>2018-03-18T14:14:52.000Z</time>
      </trkpt>
      <trkpt lat="43.02745" lon="0.56514">
        <ele>520</ele>
        <time>2018-03-18T14:14:54.000Z</time>
      </trkpt>
      <trkpt lat="43.02744" lon="0.56514">
        <ele>519</ele>
        <time>2018-03-18T14:14:56.000Z</time>
      </trkpt>
      <trkpt lat="43.02743" lon="0.56515">
        <ele>519</ele>
        <time>2018-03-18T14:14:58.000Z</time>
      </trkpt>
      <trkpt lat="43.02742" lon="0.56515">
        <ele>519</ele>
        <time>2018-03-18T14:15:00.000Z</time>
      </trkpt>
      <trkpt lat="43.0274" lon="0.56516">
        <ele>519</ele>
        <time>2018-03-18T14:15:02.000Z</time>
      </trkpt>
      <trkpt lat="43.0274" lon="0.56518">
        <ele>519</ele>
        <time>2018-03-18T14:15:04.000Z</time>
      </trkpt>
      <trkpt lat="43.02739" lon="0.5652">
        <ele>518</ele>
        <time>2018-03-18T14:15:06.000Z</time>
      </trkpt>
      <trkpt lat="43.02738" lon="0.56521">
        <ele>518</ele>
        <time>2018-03-18T14:15:08.000Z</time>
      </trkpt>
      <trkpt lat="43.02737" lon="0.56523">
        <ele>517</ele>
        <time>2018-03-18T14:15:10.000Z</time>
      </trkpt>
      <trkpt lat="43.02736" lon="0.56524">
        <ele>517</ele>
        <time>2018-03-18T14:15:12.000Z</time>
      </trkpt>
      <trkpt lat="43.02736" lon="0.56525">
        <ele>517</ele>
        <time>2018-03-18T14:15:14.000Z</time>
      </trkpt>
      <trkpt lat="43.02735" lon="0.56525">
        <ele>517</ele>
        <time>2018-03-18T14:15:16.000Z</time>
      </trkpt>
      <trkpt lat="43.02735" lon="0.56524">
        <ele>517</ele>
        <time>2018-03-18T14:15:18.000Z</time>
      </trkpt>
      <trkpt lat="43.02736" lon="0.56523">
        <ele>517</ele>
        <time>2018-03-18T14:15:20.000Z</time>
      </trkpt>
      <trkpt lat="43.02736" lon="0.56522">
        <ele>517</ele>
        <time>2018-03-18T14:15:22.000Z</time>
      </trkpt>
      <trkpt lat="43.02736" lon="0.56522">
        <ele>517</ele>
        <time>2018-03-18T14:15:24.000Z</time>
      </trkpt>
      <trkpt lat="43.02736" lon="0.56522">
        <ele>517</ele>
        <time>2018-03-18T14:15:26.000Z</time>
      </trkpt>
      <trkpt lat="43.02736" lon="0.56522">
        <ele>517</ele>
        <time>2018-03-18T14:15:28.000Z</time>
      </trkpt>
      <trkpt lat="43.02736" lon="0.56522">
        <ele>518</ele>
        <time>2018-03-18T14:15:30.000Z</time>
      </trkpt>
      <trkpt lat="43.02736" lon="0.56522">
        <ele>518</ele>
        <time>2018-03-18T14:15:32.000Z</time>
      </trkpt>
      <trkpt lat="43.02736" lon="0.56522">
        <ele>518</ele>
        <time>2018-03-18T14:15:34.000Z</time>
      </trkpt>
      <trkpt lat="43.02737" lon="0.56521">
        <ele>518</ele>
        <time>2018-03-18T14:15:36.000Z</time>
      </trkpt>
      <trkpt lat="43.02737" lon="0.56521">
        <ele>518</ele>
        <time>2018-03-18T14:15:38.000Z</time>
      </trkpt>
      <trkpt lat="43.02737" lon="0.56521">
        <ele>518</ele>
        <time>2018-03-18T14:15:40.000Z</time>
      </trkpt>
      <trkpt lat="43.02737" lon="0.56521">
        <ele>518</ele>
        <time>2018-03-18T14:15:42.000Z</time>
      </trkpt>
      <trkpt lat="43.02736" lon="0.56521">
        <ele>518</ele>
        <time>2018-03-18T14:15:44.000Z</time>
      </trkpt>
      <trkpt lat="43.02736" lon="0.56521">
        <ele>518</ele>
        <time>2018-03-18T14:15:46.000Z</time>
      </trkpt>
      <trkpt lat="43.02736" lon="0.56521">
        <ele>518</ele>
        <time>2018-03-18T14:15:48.000Z</time>
      </trkpt>
      <trkpt lat="43.02736" lon="0.5652">
        <ele>518</ele>
        <time>2018-03-18T14:15:50.000Z</time>
      </trkpt>
      <trkpt lat="43.02736" lon="0.5652">
        <ele>518</ele>
        <time>2018-03-18T14:15:52.000Z</time>
      </trkpt>
      <trkpt lat="43.02736" lon="0.5652">
        <ele>518</ele>
        <time>2018-03-18T14:15:54.000Z</time>
      </trkpt>
      <trkpt lat="43.02736" lon="0.5652">
        <ele>518</ele>
        <time>2018-03-18T14:15:56.000Z</time>
      </trkpt>
      <trkpt lat="43.02736" lon="0.5652">
        <ele>518</ele>
        <time>2018-03-18T14:15:58.000Z</time>
      </trkpt>
      <trkpt lat="43.02737" lon="0.5652">
        <ele>518</ele>
        <time>2018-03-18T14:16:00.000Z</time>
      </trkpt>
      <trkpt lat="43.02737" lon="0.56521">
        <ele>518</ele>
        <time>2018-03-18T14:16:02.000Z</time>
      </trkpt>
      <trkpt lat="43.02736" lon="0.56521">
        <ele>518</ele>
        <time>2018-03-18T14:16:04.000Z</time>
      </trkpt>
      <trkpt lat="43.02736" lon="0.56521">
        <ele>518</ele>
        <time>2018-03-18T14:16:06.000Z</time>
      </trkpt>
      <trkpt lat="43.02736" lon="0.56521">
        <ele>518</ele>
        <time>2018-03-18T14:16:08.000Z</time>
      </trkpt>
      <trkpt lat="43.02736" lon="0.56523">
        <ele>517</ele>
        <time>2018-03-18T14:16:10.000Z</time>
      </trkpt>
      <trkpt lat="43.02735" lon="0.56525">
        <ele>517</ele>
        <time>2018-03-18T14:16:12.000Z</time>
      </trkpt>
      <trkpt lat="43.02735" lon="0.56528">
        <ele>516</ele>
        <time>2018-03-18T14:16:14.000Z</time>
      </trkpt>
      <trkpt lat="43.02734" lon="0.5653">
        <ele>516</ele>
        <time>2018-03-18T14:16:16.000Z</time>
      </trkpt>
      <trkpt lat="43.02733" lon="0.56532">
        <ele>516</ele>
        <time>2018-03-18T14:16:18.000Z</time>
      </trkpt>
      <trkpt lat="43.02733" lon="0.56533">
        <ele>515</ele>
        <time>2018-03-18T14:16:20.000Z</time>
      </trkpt>
      <trkpt lat="43.02732" lon="0.56535">
        <ele>515</ele>
        <time>2018-03-18T14:16:22.000Z</time>
      </trkpt>
      <trkpt lat="43.02731" lon="0.56537">
        <ele>515</ele>
        <time>2018-03-18T14:16:24.000Z</time>
      </trkpt>
      <trkpt lat="43.0273" lon="0.5654">
        <ele>515</ele>
        <time>2018-03-18T14:16:26.000Z</time>
      </trkpt>
      <trkpt lat="43.02729" lon="0.56542">
        <ele>514</ele>
        <time>2018-03-18T14:16:28.000Z</time>
      </trkpt>
      <trkpt lat="43.02728" lon="0.56545">
        <ele>514</ele>
        <time>2018-03-18T14:16:30.000Z</time>
      </trkpt>
      <trkpt lat="43.02727" lon="0.56547">
        <ele>514</ele>
        <time>2018-03-18T14:16:32.000Z</time>
      </trkpt>
      <trkpt lat="43.02725" lon="0.56549">
        <ele>513</ele>
        <time>2018-03-18T14:16:34.000Z</time>
      </trkpt>
      <trkpt lat="43.02724" lon="0.56552">
        <ele>513</ele>
        <time>2018-03-18T14:16:36.000Z</time>
      </trkpt>
      <trkpt lat="43.02724" lon="0.56554">
        <ele>513</ele>
        <time>2018-03-18T14:16:38.000Z</time>
      </trkpt>
      <trkpt lat="43.02722" lon="0.56556">
        <ele>513</ele>
        <time>2018-03-18T14:16:40.000Z</time>
      </trkpt>
      <trkpt lat="43.02721" lon="0.56558">
        <ele>513</ele>
        <time>2018-03-18T14:16:42.000Z</time>
      </trkpt>
      <trkpt lat="43.02719" lon="0.56559">
        <ele>513</ele>
        <time>2018-03-18T14:16:44.000Z</time>
      </trkpt>
      <trkpt lat="43.02718" lon="0.5656">
        <ele>513</ele>
        <time>2018-03-18T14:16:46.000Z</time>
      </trkpt>
      <trkpt lat="43.02717" lon="0.56562">
        <ele>513</ele>
        <time>2018-03-18T14:16:48.000Z</time>
      </trkpt>
      <trkpt lat="43.02715" lon="0.56563">
        <ele>513</ele>
        <time>2018-03-18T14:16:50.000Z</time>
      </trkpt>
      <trkpt lat="43.02713" lon="0.56563">
        <ele>513</ele>
        <time>2018-03-18T14:16:52.000Z</time>
      </trkpt>
      <trkpt lat="43.02711" lon="0.56563">
        <ele>513</ele>
        <time>2018-03-18T14:16:54.000Z</time>
      </trkpt>
      <trkpt lat="43.02709" lon="0.56564">
        <ele>513</ele>
        <time>2018-03-18T14:16:56.000Z</time>
      </trkpt>
      <trkpt lat="43.02707" lon="0.56564">
        <ele>513</ele>
        <time>2018-03-18T14:16:58.000Z</time>
      </trkpt>
      <trkpt lat="43.02704" lon="0.56565">
        <ele>513</ele>
        <time>2018-03-18T14:17:00.000Z</time>
      </trkpt>
      <trkpt lat="43.02702" lon="0.56565">
        <ele>513</ele>
        <time>2018-03-18T14:17:02.000Z</time>
      </trkpt>
      <trkpt lat="43.027" lon="0.56565">
        <ele>513</ele>
        <time>2018-03-18T14:17:04.000Z</time>
      </trkpt>
      <trkpt lat="43.02697" lon="0.56566">
        <ele>513</ele>
        <time>2018-03-18T14:17:06.000Z</time>
      </trkpt>
      <trkpt lat="43.02695" lon="0.56566">
        <ele>513</ele>
        <time>2018-03-18T14:17:08.000Z</time>
      </trkpt>
      <trkpt lat="43.02693" lon="0.56567">
        <ele>513</ele>
        <time>2018-03-18T14:17:10.000Z</time>
      </trkpt>
      <trkpt lat="43.0269" lon="0.56568">
        <ele>513</ele>
        <time>2018-03-18T14:17:12.000Z</time>
      </trkpt>
      <trkpt lat="43.02687" lon="0.56568">
        <ele>513</ele>
        <time>2018-03-18T14:17:14.000Z</time>
      </trkpt>
      <trkpt lat="43.02685" lon="0.56569">
        <ele>513</ele>
        <time>2018-03-18T14:17:16.000Z</time>
      </trkpt>
      <trkpt lat="43.02682" lon="0.56569">
        <ele>513</ele>
        <time>2018-03-18T14:17:18.000Z</time>
      </trkpt>
      <trkpt lat="43.0268" lon="0.56569">
        <ele>513</ele>
        <time>2018-03-18T14:17:20.000Z</time>
      </trkpt>
      <trkpt lat="43.02678" lon="0.56569">
        <ele>513</ele>
        <time>2018-03-18T14:17:22.000Z</time>
      </trkpt>
      <trkpt lat="43.02676" lon="0.5657">
        <ele>513</ele>
        <time>2018-03-18T14:17:24.000Z</time>
      </trkpt>
      <trkpt lat="43.02674" lon="0.56571">
        <ele>513</ele>
        <time>2018-03-18T14:17:26.000Z</time>
      </trkpt>
      <trkpt lat="43.02672" lon="0.56572">
        <ele>513</ele>
        <time>2018-03-18T14:17:28.000Z</time>
      </trkpt>
      <trkpt lat="43.02671" lon="0.56572">
        <ele>513</ele>
        <time>2018-03-18T14:17:30.000Z</time>
      </trkpt>
      <trkpt lat="43.02668" lon="0.56572">
        <ele>514</ele>
        <time>2018-03-18T14:17:32.000Z</time>
      </trkpt>
      <trkpt lat="43.02666" lon="0.56573">
        <ele>514</ele>
        <time>2018-03-18T14:17:34.000Z</time>
      </trkpt>
      <trkpt lat="43.02664" lon="0.56573">
        <ele>514</ele>
        <time>2018-03-18T14:17:36.000Z</time>
      </trkpt>
      <trkpt lat="43.02663" lon="0.56574">
        <ele>514</ele>
        <time>2018-03-18T14:17:38.000Z</time>
      </trkpt>
      <trkpt lat="43.02661" lon="0.56576">
        <ele>514</ele>
        <time>2018-03-18T14:17:40.000Z</time>
      </trkpt>
      <trkpt lat="43.0266" lon="0.56577">
        <ele>514</ele>
        <time>2018-03-18T14:17:42.000Z</time>
      </trkpt>
      <trkpt lat="43.0266" lon="0.56578">
        <ele>514</ele>
        <time>2018-03-18T14:17:44.000Z</time>
      </trkpt>
      <trkpt lat="43.02659" lon="0.56578">
        <ele>514</ele>
        <time>2018-03-18T14:17:46.000Z</time>
      </trkpt>
      <trkpt lat="43.02659" lon="0.56578">
        <ele>514</ele>
        <time>2018-03-18T14:17:48.000Z</time>
      </trkpt>
      <trkpt lat="43.02659" lon="0.56578">
        <ele>514</ele>
        <time>2018-03-18T14:17:50.000Z</time>
      </trkpt>
      <trkpt lat="43.02659" lon="0.56578">
        <ele>514</ele>
        <time>2018-03-18T14:17:52.000Z</time>
      </trkpt>
      <trkpt lat="43.02658" lon="0.56578">
        <ele>514</ele>
        <time>2018-03-18T14:17:54.000Z</time>
      </trkpt>
      <trkpt lat="43.02658" lon="0.56578">
        <ele>514</ele>
        <time>2018-03-18T14:17:56.000Z</time>
      </trkpt>
      <trkpt lat="43.02658" lon="0.56579">
        <ele>514</ele>
        <time>2018-03-18T14:17:58.000Z</time>
      </trkpt>
      <trkpt lat="43.02658" lon="0.56579">
        <ele>514</ele>
        <time>2018-03-18T14:18:00.000Z</time>
      </trkpt>
      <trkpt lat="43.02658" lon="0.56579">
        <ele>514</ele>
        <time>2018-03-18T14:18:02.000Z</time>
      </trkpt>
      <trkpt lat="43.02658" lon="0.56579">
        <ele>514</ele>
        <time>2018-03-18T14:18:04.000Z</time>
      </trkpt>
      <trkpt lat="43.02658" lon="0.56579">
        <ele>514</ele>
        <time>2018-03-18T14:18:06.000Z</time>
      </trkpt>
      <trkpt lat="43.02659" lon="0.56579">
        <ele>514</ele>
        <time>2018-03-18T14:18:08.000Z</time>
      </trkpt>
      <trkpt lat="43.02659" lon="0.56579">
        <ele>514</ele>
        <time>2018-03-18T14:18:10.000Z</time>
      </trkpt>
      <trkpt lat="43.02659" lon="0.56579">
        <ele>514</ele>
        <time>2018-03-18T14:18:12.000Z</time>
      </trkpt>
      <trkpt lat="43.02659" lon="0.56579">
        <ele>514</ele>
        <time>2018-03-18T14:18:14.000Z</time>
      </trkpt>
      <trkpt lat="43.02659" lon="0.56579">
        <ele>514</ele>
        <time>2018-03-18T14:18:16.000Z</time>
      </trkpt>
      <trkpt lat="43.02659" lon="0.56578">
        <ele>514</ele>
        <time>2018-03-18T14:18:18.000Z</time>
      </trkpt>
      <trkpt lat="43.02659" lon="0.56578">
        <ele>514</ele>
        <time>2018-03-18T14:18:20.000Z</time>
      </trkpt>
      <trkpt lat="43.02659" lon="0.56578">
        <ele>514</ele>
        <time>2018-03-18T14:18:22.000Z</time>
      </trkpt>
      <trkpt lat="43.02659" lon="0.56578">
        <ele>514</ele>
        <time>2018-03-18T14:18:24.000Z</time>
      </trkpt>
      <trkpt lat="43.02659" lon="0.56578">
        <ele>514</ele>
        <time>2018-03-18T14:18:26.000Z</time>
      </trkpt>
      <trkpt lat="43.02658" lon="0.56578">
        <ele>514</ele>
        <time>2018-03-18T14:18:28.000Z</time>
      </trkpt>
      <trkpt lat="43.02657" lon="0.56578">
        <ele>514</ele>
        <time>2018-03-18T14:18:30.000Z</time>
      </trkpt>
      <trkpt lat="43.02657" lon="0.56578">
        <ele>514</ele>
        <time>2018-03-18T14:18:32.000Z</time>
      </trkpt>
      <trkpt lat="43.02656" lon="0.56578">
        <ele>514</ele>
        <time>2018-03-18T14:18:34.000Z</time>
      </trkpt>
      <trkpt lat="43.02656" lon="0.56578">
        <ele>514</ele>
        <time>2018-03-18T14:18:36.000Z</time>
      </trkpt>
      <trkpt lat="43.02656" lon="0.56578">
        <ele>514</ele>
        <time>2018-03-18T14:18:38.000Z</time>
      </trkpt>
      <trkpt lat="43.02655" lon="0.56578">
        <ele>514</ele>
        <time>2018-03-18T14:18:40.000Z</time>
      </trkpt>
      <trkpt lat="43.02655" lon="0.56579">
        <ele>514</ele>
        <time>2018-03-18T14:18:42.000Z</time>
      </trkpt>
      <trkpt lat="43.02655" lon="0.56579">
        <ele>514</ele>
        <time>2018-03-18T14:18:44.000Z</time>
      </trkpt>
      <trkpt lat="43.02655" lon="0.56578">
        <ele>514</ele>
        <time>2018-03-18T14:18:46.000Z</time>
      </trkpt>
      <trkpt lat="43.02656" lon="0.56578">
        <ele>514</ele>
        <time>2018-03-18T14:18:48.000Z</time>
      </trkpt>
      <trkpt lat="43.02656" lon="0.56578">
        <ele>514</ele>
        <time>2018-03-18T14:18:50.000Z</time>
      </trkpt>
      <trkpt lat="43.02656" lon="0.56578">
        <ele>514</ele>
        <time>2018-03-18T14:18:52.000Z</time>
      </trkpt>
      <trkpt lat="43.02657" lon="0.56578">
        <ele>514</ele>
        <time>2018-03-18T14:18:54.000Z</time>
      </trkpt>
      <trkpt lat="43.02657" lon="0.56579">
        <ele>514</ele>
        <time>2018-03-18T14:18:56.000Z</time>
      </trkpt>
      <trkpt lat="43.02657" lon="0.56579">
        <ele>514</ele>
        <time>2018-03-18T14:18:58.000Z</time>
      </trkpt>
      <trkpt lat="43.02656" lon="0.56579">
        <ele>514</ele>
        <time>2018-03-18T14:19:00.000Z</time>
      </trkpt>
      <trkpt lat="43.02656" lon="0.56579">
        <ele>514</ele>
        <time>2018-03-18T14:19:02.000Z</time>
      </trkpt>
      <trkpt lat="43.02656" lon="0.56578">
        <ele>514</ele>
        <time>2018-03-18T14:19:04.000Z</time>
      </trkpt>
      <trkpt lat="43.02656" lon="0.56578">
        <ele>514</ele>
        <time>2018-03-18T14:19:06.000Z</time>
      </trkpt>
      <trkpt lat="43.02656" lon="0.56578">
        <ele>514</ele>
        <time>2018-03-18T14:19:08.000Z</time>
      </trkpt>
      <trkpt lat="43.02656" lon="0.56578">
        <ele>514</ele>
        <time>2018-03-18T14:19:10.000Z</time>
      </trkpt>
      <trkpt lat="43.02656" lon="0.56579">
        <ele>514</ele>
        <time>2018-03-18T14:19:12.000Z</time>
      </trkpt>
      <trkpt lat="43.02656" lon="0.56579">
        <ele>514</ele>
        <time>2018-03-18T14:19:14.000Z</time>
      </trkpt>
      <trkpt lat="43.02657" lon="0.5658">
        <ele>514</ele>
        <time>2018-03-18T14:19:16.000Z</time>
      </trkpt>
      <trkpt lat="43.02656" lon="0.56581">
        <ele>514</ele>
        <time>2018-03-18T14:19:18.000Z</time>
      </trkpt>
      <trkpt lat="43.02654" lon="0.56581">
        <ele>514</ele>
        <time>2018-03-18T14:19:20.000Z</time>
      </trkpt>
      <trkpt lat="43.02653" lon="0.56581">
        <ele>514</ele>
        <time>2018-03-18T14:19:22.000Z</time>
      </trkpt>
      <trkpt lat="43.02653" lon="0.56581">
        <ele>514</ele>
        <time>2018-03-18T14:19:24.000Z</time>
      </trkpt>
      <trkpt lat="43.02653" lon="0.56581">
        <ele>514</ele>
        <time>2018-03-18T14:19:26.000Z</time>
      </trkpt>
      <trkpt lat="43.02653" lon="0.56581">
        <ele>514</ele>
        <time>2018-03-18T14:19:28.000Z</time>
      </trkpt>
      <trkpt lat="43.02652" lon="0.56581">
        <ele>514</ele>
        <time>2018-03-18T14:19:30.000Z</time>
      </trkpt>
      <trkpt lat="43.02652" lon="0.56581">
        <ele>514</ele>
        <time>2018-03-18T14:19:32.000Z</time>
      </trkpt>
      <trkpt lat="43.02652" lon="0.56581">
        <ele>514</ele>
        <time>2018-03-18T14:19:34.000Z</time>
      </trkpt>
      <trkpt lat="43.02652" lon="0.56581">
        <ele>514</ele>
        <time>2018-03-18T14:19:36.000Z</time>
      </trkpt>
      <trkpt lat="43.02653" lon="0.5658">
        <ele>514</ele>
        <time>2018-03-18T14:19:38.000Z</time>
      </trkpt>
      <trkpt lat="43.02655" lon="0.5658">
        <ele>514</ele>
        <time>2018-03-18T14:19:40.000Z</time>
      </trkpt>
      <trkpt lat="43.02657" lon="0.56581">
        <ele>513</ele>
        <time>2018-03-18T14:19:42.000Z</time>
      </trkpt>
      <trkpt lat="43.02658" lon="0.56582">
        <ele>513</ele>
        <time>2018-03-18T14:19:44.000Z</time>
      </trkpt>
      <trkpt lat="43.0266" lon="0.56583">
        <ele>513</ele>
        <time>2018-03-18T14:19:46.000Z</time>
      </trkpt>
      <trkpt lat="43.02662" lon="0.56584">
        <ele>513</ele>
        <time>2018-03-18T14:19:48.000Z</time>
      </trkpt>
      <trkpt lat="43.02663" lon="0.56585">
        <ele>513</ele>
        <time>2018-03-18T14:19:50.000Z</time>
      </trkpt>
      <trkpt lat="43.02664" lon="0.56586">
        <ele>512</ele>
        <time>2018-03-18T14:19:52.000Z</time>
      </trkpt>
      <trkpt lat="43.02665" lon="0.56588">
        <ele>512</ele>
        <time>2018-03-18T14:19:54.000Z</time>
      </trkpt>
      <trkpt lat="43.02667" lon="0.56589">
        <ele>512</ele>
        <time>2018-03-18T14:19:56.000Z</time>
      </trkpt>
      <trkpt lat="43.02668" lon="0.5659">
        <ele>512</ele>
        <time>2018-03-18T14:19:58.000Z</time>
      </trkpt>
      <trkpt lat="43.02669" lon="0.56592">
        <ele>512</ele>
        <time>2018-03-18T14:20:00.000Z</time>
      </trkpt>
      <trkpt lat="43.02671" lon="0.56593">
        <ele>511</ele>
        <time>2018-03-18T14:20:02.000Z</time>
      </trkpt>
      <trkpt lat="43.02672" lon="0.56594">
        <ele>511</ele>
        <time>2018-03-18T14:20:04.000Z</time>
      </trkpt>
      <trkpt lat="43.02673" lon="0.56596">
        <ele>511</ele>
        <time>2018-03-18T14:20:06.000Z</time>
      </trkpt>
      <trkpt lat="43.02675" lon="0.56597">
        <ele>511</ele>
        <time>2018-03-18T14:20:08.000Z</time>
      </trkpt>
      <trkpt lat="43.02676" lon="0.56598">
        <ele>510</ele>
        <time>2018-03-18T14:20:10.000Z</time>
      </trkpt>
      <trkpt lat="43.02678" lon="0.56599">
        <ele>510</ele>
        <time>2018-03-18T14:20:12.000Z</time>
      </trkpt>
      <trkpt lat="43.02679" lon="0.56601">
        <ele>510</ele>
        <time>2018-03-18T14:20:14.000Z</time>
      </trkpt>
      <trkpt lat="43.0268" lon="0.56602">
        <ele>510</ele>
        <time>2018-03-18T14:20:16.000Z</time>
      </trkpt>
      <trkpt lat="43.02681" lon="0.56604">
        <ele>510</ele>
        <time>2018-03-18T14:20:18.000Z</time>
      </trkpt>
      <trkpt lat="43.02682" lon="0.56605">
        <ele>510</ele>
        <time>2018-03-18T14:20:20.000Z</time>
      </trkpt>
      <trkpt lat="43.02683" lon="0.56607">
        <ele>509</ele>
        <time>2018-03-18T14:20:22.000Z</time>
      </trkpt>
      <trkpt lat="43.02684" lon="0.56608">
        <ele>509</ele>
        <time>2018-03-18T14:20:24.000Z</time>
      </trkpt>
      <trkpt lat="43.02684" lon="0.56609">
        <ele>509</ele>
        <time>2018-03-18T14:20:26.000Z</time>
      </trkpt>
      <trkpt lat="43.02685" lon="0.5661">
        <ele>509</ele>
        <time>2018-03-18T14:20:28.000Z</time>
      </trkpt>
      <trkpt lat="43.02686" lon="0.56612">
        <ele>509</ele>
        <time>2018-03-18T14:20:30.000Z</time>
      </trkpt>
      <trkpt lat="43.02686" lon="0.56614">
        <ele>509</ele>
        <time>2018-03-18T14:20:32.000Z</time>
      </trkpt>
      <trkpt lat="43.02686" lon="0.56616">
        <ele>509</ele>
        <time>2018-03-18T14:20:34.000Z</time>
      </trkpt>
      <trkpt lat="43.02687" lon="0.56618">
        <ele>508</ele>
        <time>2018-03-18T14:20:36.000Z</time>
      </trkpt>
      <trkpt lat="43.02688" lon="0.56621">
        <ele>508</ele>
        <time>2018-03-18T14:20:38.000Z</time>
      </trkpt>
      <trkpt lat="43.02688" lon="0.56623">
        <ele>508</ele>
        <time>2018-03-18T14:20:40.000Z</time>
      </trkpt>
      <trkpt lat="43.02689" lon="0.56625">
        <ele>508</ele>
        <time>2018-03-18T14:20:42.000Z</time>
      </trkpt>
      <trkpt lat="43.02689" lon="0.56627">
        <ele>507</ele>
        <time>2018-03-18T14:20:44.000Z</time>
      </trkpt>
      <trkpt lat="43.02689" lon="0.56629">
        <ele>507</ele>
        <time>2018-03-18T14:20:46.000Z</time>
      </trkpt>
      <trkpt lat="43.02689" lon="0.5663">
        <ele>507</ele>
        <time>2018-03-18T14:20:48.000Z</time>
      </trkpt>
      <trkpt lat="43.02689" lon="0.56632">
        <ele>507</ele>
        <time>2018-03-18T14:20:50.000Z</time>
      </trkpt>
      <trkpt lat="43.0269" lon="0.56634">
        <ele>507</ele>
        <time>2018-03-18T14:20:52.000Z</time>
      </trkpt>
      <trkpt lat="43.02691" lon="0.56636">
        <ele>507</ele>
        <time>2018-03-18T14:20:54.000Z</time>
      </trkpt>
      <trkpt lat="43.02692" lon="0.56638">
        <ele>506</ele>
        <time>2018-03-18T14:20:56.000Z</time>
      </trkpt>
      <trkpt lat="43.02693" lon="0.5664">
        <ele>506</ele>
        <time>2018-03-18T14:20:58.000Z</time>
      </trkpt>
      <trkpt lat="43.02695" lon="0.56642">
        <ele>506</ele>
        <time>2018-03-18T14:21:00.000Z</time>
      </trkpt>
      <trkpt lat="43.02695" lon="0.56643">
        <ele>506</ele>
        <time>2018-03-18T14:21:02.000Z</time>
      </trkpt>
      <trkpt lat="43.02696" lon="0.56645">
        <ele>505</ele>
        <time>2018-03-18T14:21:04.000Z</time>
      </trkpt>
      <trkpt lat="43.02697" lon="0.56647">
        <ele>505</ele>
        <time>2018-03-18T14:21:06.000Z</time>
      </trkpt>
      <trkpt lat="43.02698" lon="0.5665">
        <ele>505</ele>
        <time>2018-03-18T14:21:08.000Z</time>
      </trkpt>
      <trkpt lat="43.02699" lon="0.56653">
        <ele>504</ele>
        <time>2018-03-18T14:21:10.000Z</time>
      </trkpt>
      <trkpt lat="43.02701" lon="0.56655">
        <ele>504</ele>
        <time>2018-03-18T14:21:12.000Z</time>
      </trkpt>
      <trkpt lat="43.02702" lon="0.56657">
        <ele>504</ele>
        <time>2018-03-18T14:21:14.000Z</time>
      </trkpt>
      <trkpt lat="43.02703" lon="0.56659">
        <ele>504</ele>
        <time>2018-03-18T14:21:16.000Z</time>
      </trkpt>
      <trkpt lat="43.02705" lon="0.56661">
        <ele>503</ele>
        <time>2018-03-18T14:21:18.000Z</time>
      </trkpt>
      <trkpt lat="43.02706" lon="0.56663">
        <ele>503</ele>
        <time>2018-03-18T14:21:20.000Z</time>
      </trkpt>
      <trkpt lat="43.02707" lon="0.56665">
        <ele>503</ele>
        <time>2018-03-18T14:21:22.000Z</time>
      </trkpt>
      <trkpt lat="43.02708" lon="0.56667">
        <ele>503</ele>
        <time>2018-03-18T14:21:24.000Z</time>
      </trkpt>
      <trkpt lat="43.02709" lon="0.56668">
        <ele>503</ele>
        <time>2018-03-18T14:21:26.000Z</time>
      </trkpt>
      <trkpt lat="43.02709" lon="0.56669">
        <ele>502</ele>
        <time>2018-03-18T14:21:28.000Z</time>
      </trkpt>
      <trkpt lat="43.02711" lon="0.56671">
        <ele>502</ele>
        <time>2018-03-18T14:21:30.000Z</time>
      </trkpt>
      <trkpt lat="43.02712" lon="0.56671">
        <ele>502</ele>
        <time>2018-03-18T14:21:32.000Z</time>
      </trkpt>
      <trkpt lat="43.02712" lon="0.56674">
        <ele>502</ele>
        <time>2018-03-18T14:21:34.000Z</time>
      </trkpt>
      <trkpt lat="43.02713" lon="0.56676">
        <ele>502</ele>
        <time>2018-03-18T14:21:36.000Z</time>
      </trkpt>
      <trkpt lat="43.02714" lon="0.56677">
        <ele>502</ele>
        <time>2018-03-18T14:21:38.000Z</time>
      </trkpt>
      <trkpt lat="43.02715" lon="0.56679">
        <ele>501</ele>
        <time>2018-03-18T14:21:40.000Z</time>
      </trkpt>
      <trkpt lat="43.02716" lon="0.56681">
        <ele>501</ele>
        <time>2018-03-18T14:21:42.000Z</time>
      </trkpt>
      <trkpt lat="43.02717" lon="0.56684">
        <ele>501</ele>
        <time>2018-03-18T14:21:44.000Z</time>
      </trkpt>
      <trkpt lat="43.02719" lon="0.56686">
        <ele>501</ele>
        <time>2018-03-18T14:21:46.000Z</time>
      </trkpt>
      <trkpt lat="43.02721" lon="0.5669">
        <ele>500</ele>
        <time>2018-03-18T14:21:48.000Z</time>
      </trkpt>
      <trkpt lat="43.02722" lon="0.56692">
        <ele>500</ele>
        <time>2018-03-18T14:21:50.000Z</time>
      </trkpt>
      <trkpt lat="43.02724" lon="0.56694">
        <ele>500</ele>
        <time>2018-03-18T14:21:52.000Z</time>
      </trkpt>
      <trkpt lat="43.02724" lon="0.56696">
        <ele>500</ele>
        <time>2018-03-18T14:21:54.000Z</time>
      </trkpt>
      <trkpt lat="43.02726" lon="0.56698">
        <ele>499</ele>
        <time>2018-03-18T14:21:56.000Z</time>
      </trkpt>
      <trkpt lat="43.02727" lon="0.56699">
        <ele>499</ele>
        <time>2018-03-18T14:21:58.000Z</time>
      </trkpt>
      <trkpt lat="43.02729" lon="0.567">
        <ele>499</ele>
        <time>2018-03-18T14:22:00.000Z</time>
      </trkpt>
      <trkpt lat="43.0273" lon="0.56701">
        <ele>499</ele>
        <time>2018-03-18T14:22:02.000Z</time>
      </trkpt>
      <trkpt lat="43.02731" lon="0.56702">
        <ele>499</ele>
        <time>2018-03-18T14:22:04.000Z</time>
      </trkpt>
      <trkpt lat="43.02732" lon="0.56702">
        <ele>499</ele>
        <time>2018-03-18T14:22:06.000Z</time>
      </trkpt>
      <trkpt lat="43.02733" lon="0.56703">
        <ele>499</ele>
        <time>2018-03-18T14:22:08.000Z</time>
      </trkpt>
      <trkpt lat="43.02734" lon="0.56704">
        <ele>498</ele>
        <time>2018-03-18T14:22:10.000Z</time>
      </trkpt>
      <trkpt lat="43.02735" lon="0.56705">
        <ele>498</ele>
        <time>2018-03-18T14:22:12.000Z</time>
      </trkpt>
      <trkpt lat="43.02736" lon="0.56706">
        <ele>498</ele>
        <time>2018-03-18T14:22:14.000Z</time>
      </trkpt>
      <trkpt lat="43.02737" lon="0.56707">
        <ele>498</ele>
        <time>2018-03-18T14:22:16.000Z</time>
      </trkpt>
      <trkpt lat="43.02738" lon="0.56708">
        <ele>498</ele>
        <time>2018-03-18T14:22:18.000Z</time>
      </trkpt>
      <trkpt lat="43.02739" lon="0.56709">
        <ele>498</ele>
        <time>2018-03-18T14:22:20.000Z</time>
      </trkpt>
      <trkpt lat="43.0274" lon="0.56709">
        <ele>498</ele>
        <time>2018-03-18T14:22:22.000Z</time>
      </trkpt>
      <trkpt lat="43.02741" lon="0.5671">
        <ele>498</ele>
        <time>2018-03-18T14:22:24.000Z</time>
      </trkpt>
      <trkpt lat="43.02742" lon="0.5671">
        <ele>498</ele>
        <time>2018-03-18T14:22:26.000Z</time>
      </trkpt>
      <trkpt lat="43.02743" lon="0.56711">
        <ele>497</ele>
        <time>2018-03-18T14:22:28.000Z</time>
      </trkpt>
      <trkpt lat="43.02744" lon="0.56712">
        <ele>497</ele>
        <time>2018-03-18T14:22:30.000Z</time>
      </trkpt>
      <trkpt lat="43.02745" lon="0.56713">
        <ele>497</ele>
        <time>2018-03-18T14:22:32.000Z</time>
      </trkpt>
      <trkpt lat="43.02746" lon="0.56713">
        <ele>497</ele>
        <time>2018-03-18T14:22:34.000Z</time>
      </trkpt>
      <trkpt lat="43.02747" lon="0.56713">
        <ele>497</ele>
        <time>2018-03-18T14:22:36.000Z</time>
      </trkpt>
      <trkpt lat="43.02749" lon="0.56713">
        <ele>497</ele>
        <time>2018-03-18T14:22:38.000Z</time>
      </trkpt>
      <trkpt lat="43.0275" lon="0.56714">
        <ele>497</ele>
        <time>2018-03-18T14:22:40.000Z</time>
      </trkpt>
      <trkpt lat="43.02751" lon="0.56714">
        <ele>497</ele>
        <time>2018-03-18T14:22:42.000Z</time>
      </trkpt>
      <trkpt lat="43.02752" lon="0.56715">
        <ele>497</ele>
        <time>2018-03-18T14:22:44.000Z</time>
      </trkpt>
      <trkpt lat="43.02753" lon="0.56715">
        <ele>497</ele>
        <time>2018-03-18T14:22:46.000Z</time>
      </trkpt>
      <trkpt lat="43.02754" lon="0.56715">
        <ele>496</ele>
        <time>2018-03-18T14:22:48.000Z</time>
      </trkpt>
      <trkpt lat="43.02756" lon="0.56717">
        <ele>496</ele>
        <time>2018-03-18T14:22:50.000Z</time>
      </trkpt>
      <trkpt lat="43.02757" lon="0.56717">
        <ele>496</ele>
        <time>2018-03-18T14:22:52.000Z</time>
      </trkpt>
      <trkpt lat="43.02758" lon="0.56717">
        <ele>496</ele>
        <time>2018-03-18T14:22:54.000Z</time>
      </trkpt>
      <trkpt lat="43.02759" lon="0.56719">
        <ele>496</ele>
        <time>2018-03-18T14:22:56.000Z</time>
      </trkpt>
      <trkpt lat="43.0276" lon="0.5672">
        <ele>495</ele>
        <time>2018-03-18T14:22:58.000Z</time>
      </trkpt>
      <trkpt lat="43.02762" lon="0.5672">
        <ele>495</ele>
        <time>2018-03-18T14:23:00.000Z</time>
      </trkpt>
      <trkpt lat="43.02763" lon="0.5672">
        <ele>495</ele>
        <time>2018-03-18T14:23:02.000Z</time>
      </trkpt>
      <trkpt lat="43.02765" lon="0.5672">
        <ele>495</ele>
        <time>2018-03-18T14:23:04.000Z</time>
      </trkpt>
      <trkpt lat="43.02766" lon="0.56721">
        <ele>495</ele>
        <time>2018-03-18T14:23:06.000Z</time>
      </trkpt>
      <trkpt lat="43.02769" lon="0.56722">
        <ele>494</ele>
        <time>2018-03-18T14:23:08.000Z</time>
      </trkpt>
      <trkpt lat="43.02771" lon="0.56723">
        <ele>494</ele>
        <time>2018-03-18T14:23:10.000Z</time>
      </trkpt>
      <trkpt lat="43.02773" lon="0.56724">
        <ele>493</ele>
        <time>2018-03-18T14:23:12.000Z</time>
      </trkpt>
      <trkpt lat="43.02774" lon="0.56725">
        <ele>493</ele>
        <time>2018-03-18T14:23:14.000Z</time>
      </trkpt>
      <trkpt lat="43.02775" lon="0.56725">
        <ele>493</ele>
        <time>2018-03-18T14:23:16.000Z</time>
      </trkpt>
      <trkpt lat="43.02776" lon="0.56725">
        <ele>493</ele>
        <time>2018-03-18T14:23:18.000Z</time>
      </trkpt>
      <trkpt lat="43.02777" lon="0.56725">
        <ele>493</ele>
        <time>2018-03-18T14:23:20.000Z</time>
      </trkpt>
      <trkpt lat="43.0278" lon="0.56726">
        <ele>492</ele>
        <time>2018-03-18T14:23:22.000Z</time>
      </trkpt>
      <trkpt lat="43.02782" lon="0.56727">
        <ele>492</ele>
        <time>2018-03-18T14:23:24.000Z</time>
      </trkpt>
      <trkpt lat="43.02783" lon="0.56728">
        <ele>492</ele>
        <time>2018-03-18T14:23:26.000Z</time>
      </trkpt>
      <trkpt lat="43.02784" lon="0.56729">
        <ele>491</ele>
        <time>2018-03-18T14:23:28.000Z</time>
      </trkpt>
      <trkpt lat="43.02785" lon="0.5673">
        <ele>491</ele>
        <time>2018-03-18T14:23:30.000Z</time>
      </trkpt>
      <trkpt lat="43.02786" lon="0.56731">
        <ele>491</ele>
        <time>2018-03-18T14:23:32.000Z</time>
      </trkpt>
      <trkpt lat="43.02786" lon="0.56731">
        <ele>491</ele>
        <time>2018-03-18T14:23:34.000Z</time>
      </trkpt>
      <trkpt lat="43.02787" lon="0.56732">
        <ele>491</ele>
        <time>2018-03-18T14:23:36.000Z</time>
      </trkpt>
      <trkpt lat="43.02787" lon="0.56733">
        <ele>490</ele>
        <time>2018-03-18T14:23:38.000Z</time>
      </trkpt>
      <trkpt lat="43.02788" lon="0.56732">
        <ele>490</ele>
        <time>2018-03-18T14:23:40.000Z</time>
      </trkpt>
      <trkpt lat="43.02788" lon="0.56732">
        <ele>490</ele>
        <time>2018-03-18T14:23:42.000Z</time>
      </trkpt>
      <trkpt lat="43.02789" lon="0.56732">
        <ele>490</ele>
        <time>2018-03-18T14:23:44.000Z</time>
      </trkpt>
      <trkpt lat="43.02789" lon="0.56731">
        <ele>490</ele>
        <time>2018-03-18T14:23:46.000Z</time>
      </trkpt>
      <trkpt lat="43.0279" lon="0.56731">
        <ele>490</ele>
        <time>2018-03-18T14:23:48.000Z</time>
      </trkpt>
      <trkpt lat="43.02791" lon="0.56732">
        <ele>490</ele>
        <time>2018-03-18T14:23:50.000Z</time>
      </trkpt>
      <trkpt lat="43.02791" lon="0.56732">
        <ele>490</ele>
        <time>2018-03-18T14:23:52.000Z</time>
      </trkpt>
      <trkpt lat="43.02792" lon="0.56733">
        <ele>490</ele>
        <time>2018-03-18T14:23:54.000Z</time>
      </trkpt>
      <trkpt lat="43.02793" lon="0.56733">
        <ele>490</ele>
        <time>2018-03-18T14:23:56.000Z</time>
      </trkpt>
      <trkpt lat="43.02793" lon="0.56733">
        <ele>490</ele>
        <time>2018-03-18T14:23:58.000Z</time>
      </trkpt>
      <trkpt lat="43.02793" lon="0.56734">
        <ele>490</ele>
        <time>2018-03-18T14:24:00.000Z</time>
      </trkpt>
      <trkpt lat="43.02794" lon="0.56735">
        <ele>489</ele>
        <time>2018-03-18T14:24:02.000Z</time>
      </trkpt>
      <trkpt lat="43.02795" lon="0.56735">
        <ele>489</ele>
        <time>2018-03-18T14:24:04.000Z</time>
      </trkpt>
      <trkpt lat="43.02796" lon="0.56735">
        <ele>489</ele>
        <time>2018-03-18T14:24:06.000Z</time>
      </trkpt>
      <trkpt lat="43.02798" lon="0.56735">
        <ele>489</ele>
        <time>2018-03-18T14:24:08.000Z</time>
      </trkpt>
      <trkpt lat="43.028" lon="0.56735">
        <ele>489</ele>
        <time>2018-03-18T14:24:10.000Z</time>
      </trkpt>
      <trkpt lat="43.028" lon="0.56733">
        <ele>489</ele>
        <time>2018-03-18T14:24:12.000Z</time>
      </trkpt>
      <trkpt lat="43.028" lon="0.56732">
        <ele>489</ele>
        <time>2018-03-18T14:24:14.000Z</time>
      </trkpt>
      <trkpt lat="43.02802" lon="0.56733">
        <ele>489</ele>
        <time>2018-03-18T14:24:16.000Z</time>
      </trkpt>
      <trkpt lat="43.02802" lon="0.56733">
        <ele>489</ele>
        <time>2018-03-18T14:24:18.000Z</time>
      </trkpt>
      <trkpt lat="43.02802" lon="0.56733">
        <ele>489</ele>
        <time>2018-03-18T14:24:20.000Z</time>
      </trkpt>
      <trkpt lat="43.02803" lon="0.56734">
        <ele>488</ele>
        <time>2018-03-18T14:24:22.000Z</time>
      </trkpt>
      <trkpt lat="43.02803" lon="0.56734">
        <ele>488</ele>
        <time>2018-03-18T14:24:24.000Z</time>
      </trkpt>
      <trkpt lat="43.02804" lon="0.56734">
        <ele>488</ele>
        <time>2018-03-18T14:24:26.000Z</time>
      </trkpt>
      <trkpt lat="43.02805" lon="0.56736">
        <ele>488</ele>
        <time>2018-03-18T14:24:28.000Z</time>
      </trkpt>
      <trkpt lat="43.02806" lon="0.56736">
        <ele>488</ele>
        <time>2018-03-18T14:24:30.000Z</time>
      </trkpt>
      <trkpt lat="43.02807" lon="0.56737">
        <ele>488</ele>
        <time>2018-03-18T14:24:32.000Z</time>
      </trkpt>
      <trkpt lat="43.02808" lon="0.56737">
        <ele>487</ele>
        <time>2018-03-18T14:24:34.000Z</time>
      </trkpt>
      <trkpt lat="43.02809" lon="0.56738">
        <ele>487</ele>
        <time>2018-03-18T14:24:36.000Z</time>
      </trkpt>
      <trkpt lat="43.02811" lon="0.56739">
        <ele>487</ele>
        <time>2018-03-18T14:24:38.000Z</time>
      </trkpt>
      <trkpt lat="43.02813" lon="0.5674">
        <ele>486</ele>
        <time>2018-03-18T14:24:40.000Z</time>
      </trkpt>
      <trkpt lat="43.02814" lon="0.5674">
        <ele>486</ele>
        <time>2018-03-18T14:24:42.000Z</time>
      </trkpt>
      <trkpt lat="43.02814" lon="0.56741">
        <ele>486</ele>
        <time>2018-03-18T14:24:44.000Z</time>
      </trkpt>
      <trkpt lat="43.02815" lon="0.56742">
        <ele>486</ele>
        <time>2018-03-18T14:24:46.000Z</time>
      </trkpt>
      <trkpt lat="43.02815" lon="0.56744">
        <ele>486</ele>
        <time>2018-03-18T14:24:48.000Z</time>
      </trkpt>
      <trkpt lat="43.02816" lon="0.56745">
        <ele>485</ele>
        <time>2018-03-18T14:24:50.000Z</time>
      </trkpt>
      <trkpt lat="43.02816" lon="0.56746">
        <ele>485</ele>
        <time>2018-03-18T14:24:52.000Z</time>
      </trkpt>
      <trkpt lat="43.02817" lon="0.56746">
        <ele>485</ele>
        <time>2018-03-18T14:24:54.000Z</time>
      </trkpt>
      <trkpt lat="43.02818" lon="0.56748">
        <ele>485</ele>
        <time>2018-03-18T14:24:56.000Z</time>
      </trkpt>
      <trkpt lat="43.02819" lon="0.56749">
        <ele>484</ele>
        <time>2018-03-18T14:24:58.000Z</time>
      </trkpt>
      <trkpt lat="43.02819" lon="0.56752">
        <ele>484</ele>
        <time>2018-03-18T14:25:00.000Z</time>
      </trkpt>
      <trkpt lat="43.02819" lon="0.56753">
        <ele>484</ele>
        <time>2018-03-18T14:25:02.000Z</time>
      </trkpt>
      <trkpt lat="43.02819" lon="0.56754">
        <ele>483</ele>
        <time>2018-03-18T14:25:04.000Z</time>
      </trkpt>
      <trkpt lat="43.02821" lon="0.56756">
        <ele>483</ele>
        <time>2018-03-18T14:25:06.000Z</time>
      </trkpt>
      <trkpt lat="43.02821" lon="0.56758">
        <ele>483</ele>
        <time>2018-03-18T14:25:08.000Z</time>
      </trkpt>
      <trkpt lat="43.02822" lon="0.56759">
        <ele>483</ele>
        <time>2018-03-18T14:25:10.000Z</time>
      </trkpt>
      <trkpt lat="43.02822" lon="0.56761">
        <ele>482</ele>
        <time>2018-03-18T14:25:12.000Z</time>
      </trkpt>
      <trkpt lat="43.02822" lon="0.56763">
        <ele>482</ele>
        <time>2018-03-18T14:25:14.000Z</time>
      </trkpt>
      <trkpt lat="43.02822" lon="0.56764">
        <ele>482</ele>
        <time>2018-03-18T14:25:16.000Z</time>
      </trkpt>
      <trkpt lat="43.02822" lon="0.56765">
        <ele>482</ele>
        <time>2018-03-18T14:25:18.000Z</time>
      </trkpt>
      <trkpt lat="43.02823" lon="0.56766">
        <ele>481</ele>
        <time>2018-03-18T14:25:20.000Z</time>
      </trkpt>
      <trkpt lat="43.02823" lon="0.56767">
        <ele>481</ele>
        <time>2018-03-18T14:25:22.000Z</time>
      </trkpt>
      <trkpt lat="43.02823" lon="0.56768">
        <ele>481</ele>
        <time>2018-03-18T14:25:24.000Z</time>
      </trkpt>
      <trkpt lat="43.02823" lon="0.56769">
        <ele>481</ele>
        <time>2018-03-18T14:25:26.000Z</time>
      </trkpt>
      <trkpt lat="43.02825" lon="0.5677">
        <ele>481</ele>
        <time>2018-03-18T14:25:28.000Z</time>
      </trkpt>
      <trkpt lat="43.02824" lon="0.56772">
        <ele>480</ele>
        <time>2018-03-18T14:25:30.000Z</time>
      </trkpt>
      <trkpt lat="43.02824" lon="0.56774">
        <ele>480</ele>
        <time>2018-03-18T14:25:32.000Z</time>
      </trkpt>
      <trkpt lat="43.02825" lon="0.56775">
        <ele>480</ele>
        <time>2018-03-18T14:25:34.000Z</time>
      </trkpt>
      <trkpt lat="43.02824" lon="0.56776">
        <ele>480</ele>
        <time>2018-03-18T14:25:36.000Z</time>
      </trkpt>
      <trkpt lat="43.02825" lon="0.56777">
        <ele>480</ele>
        <time>2018-03-18T14:25:38.000Z</time>
      </trkpt>
      <trkpt lat="43.02825" lon="0.56777">
        <ele>479</ele>
        <time>2018-03-18T14:25:40.000Z</time>
      </trkpt>
      <trkpt lat="43.02826" lon="0.56779">
        <ele>479</ele>
        <time>2018-03-18T14:25:42.000Z</time>
      </trkpt>
      <trkpt lat="43.02827" lon="0.56779">
        <ele>479</ele>
        <time>2018-03-18T14:25:44.000Z</time>
      </trkpt>
      <trkpt lat="43.02827" lon="0.56779">
        <ele>479</ele>
        <time>2018-03-18T14:25:46.000Z</time>
      </trkpt>
      <trkpt lat="43.02828" lon="0.5678">
        <ele>479</ele>
        <time>2018-03-18T14:25:48.000Z</time>
      </trkpt>
      <trkpt lat="43.02828" lon="0.56782">
        <ele>479</ele>
        <time>2018-03-18T14:25:50.000Z</time>
      </trkpt>
      <trkpt lat="43.02827" lon="0.56782">
        <ele>479</ele>
        <time>2018-03-18T14:25:52.000Z</time>
      </trkpt>
      <trkpt lat="43.02827" lon="0.56783">
        <ele>478</ele>
        <time>2018-03-18T14:25:54.000Z</time>
      </trkpt>
      <trkpt lat="43.02827" lon="0.56784">
        <ele>478</ele>
        <time>2018-03-18T14:25:56.000Z</time>
      </trkpt>
      <trkpt lat="43.02827" lon="0.56785">
        <ele>478</ele>
        <time>2018-03-18T14:25:58.000Z</time>
      </trkpt>
      <trkpt lat="43.02827" lon="0.56787">
        <ele>478</ele>
        <time>2018-03-18T14:26:00.000Z</time>
      </trkpt>
      <trkpt lat="43.02827" lon="0.56788">
        <ele>478</ele>
        <time>2018-03-18T14:26:02.000Z</time>
      </trkpt>
      <trkpt lat="43.02827" lon="0.5679">
        <ele>477</ele>
        <time>2018-03-18T14:26:04.000Z</time>
      </trkpt>
      <trkpt lat="43.02827" lon="0.56791">
        <ele>477</ele>
        <time>2018-03-18T14:26:06.000Z</time>
      </trkpt>
      <trkpt lat="43.02827" lon="0.56792">
        <ele>477</ele>
        <time>2018-03-18T14:26:08.000Z</time>
      </trkpt>
      <trkpt lat="43.02828" lon="0.56793">
        <ele>477</ele>
        <time>2018-03-18T14:26:10.000Z</time>
      </trkpt>
      <trkpt lat="43.02829" lon="0.56794">
        <ele>476</ele>
        <time>2018-03-18T14:26:12.000Z</time>
      </trkpt>
      <trkpt lat="43.0283" lon="0.56796">
        <ele>476</ele>
        <time>2018-03-18T14:26:14.000Z</time>
      </trkpt>
      <trkpt lat="43.0283" lon="0.56798">
        <ele>475</ele>
        <time>2018-03-18T14:26:16.000Z</time>
      </trkpt>
      <trkpt lat="43.0283" lon="0.56801">
        <ele>475</ele>
        <time>2018-03-18T14:26:18.000Z</time>
      </trkpt>
      <trkpt lat="43.0283" lon="0.56801">
        <ele>475</ele>
        <time>2018-03-18T14:26:20.000Z</time>
      </trkpt>
      <trkpt lat="43.0283" lon="0.56802">
        <ele>475</ele>
        <time>2018-03-18T14:26:22.000Z</time>
      </trkpt>
      <trkpt lat="43.02829" lon="0.56803">
        <ele>475</ele>
        <time>2018-03-18T14:26:24.000Z</time>
      </trkpt>
      <trkpt lat="43.02828" lon="0.56806">
        <ele>474</ele>
        <time>2018-03-18T14:26:26.000Z</time>
      </trkpt>
      <trkpt lat="43.02828" lon="0.56808">
        <ele>474</ele>
        <time>2018-03-18T14:26:28.000Z</time>
      </trkpt>
      <trkpt lat="43.02827" lon="0.56811">
        <ele>474</ele>
        <time>2018-03-18T14:26:30.000Z</time>
      </trkpt>
      <trkpt lat="43.02827" lon="0.56814">
        <ele>474</ele>
        <time>2018-03-18T14:26:32.000Z</time>
      </trkpt>
      <trkpt lat="43.02826" lon="0.56816">
        <ele>474</ele>
        <time>2018-03-18T14:26:34.000Z</time>
      </trkpt>
      <trkpt lat="43.02825" lon="0.56819">
        <ele>474</ele>
        <time>2018-03-18T14:26:36.000Z</time>
      </trkpt>
      <trkpt lat="43.02825" lon="0.56821">
        <ele>474</ele>
        <time>2018-03-18T14:26:38.000Z</time>
      </trkpt>
      <trkpt lat="43.02824" lon="0.56824">
        <ele>474</ele>
        <time>2018-03-18T14:26:40.000Z</time>
      </trkpt>
      <trkpt lat="43.02823" lon="0.56826">
        <ele>473</ele>
        <time>2018-03-18T14:26:42.000Z</time>
      </trkpt>
      <trkpt lat="43.02822" lon="0.56829">
        <ele>473</ele>
        <time>2018-03-18T14:26:44.000Z</time>
      </trkpt>
      <trkpt lat="43.02822" lon="0.56832">
        <ele>473</ele>
        <time>2018-03-18T14:26:46.000Z</time>
      </trkpt>
      <trkpt lat="43.02822" lon="0.56836">
        <ele>473</ele>
        <time>2018-03-18T14:26:48.000Z</time>
      </trkpt>
      <trkpt lat="43.02821" lon="0.56839">
        <ele>473</ele>
        <time>2018-03-18T14:26:50.000Z</time>
      </trkpt>
      <trkpt lat="43.02821" lon="0.56841">
        <ele>473</ele>
        <time>2018-03-18T14:26:52.000Z</time>
      </trkpt>
      <trkpt lat="43.0282" lon="0.56844">
        <ele>472</ele>
        <time>2018-03-18T14:26:54.000Z</time>
      </trkpt>
      <trkpt lat="43.02819" lon="0.56847">
        <ele>472</ele>
        <time>2018-03-18T14:26:56.000Z</time>
      </trkpt>
      <trkpt lat="43.02818" lon="0.5685">
        <ele>472</ele>
        <time>2018-03-18T14:26:58.000Z</time>
      </trkpt>
      <trkpt lat="43.02818" lon="0.56853">
        <ele>472</ele>
        <time>2018-03-18T14:27:00.000Z</time>
      </trkpt>
      <trkpt lat="43.02817" lon="0.56855">
        <ele>472</ele>
        <time>2018-03-18T14:27:02.000Z</time>
      </trkpt>
      <trkpt lat="43.02817" lon="0.56858">
        <ele>472</ele>
        <time>2018-03-18T14:27:04.000Z</time>
      </trkpt>
      <trkpt lat="43.02816" lon="0.5686">
        <ele>472</ele>
        <time>2018-03-18T14:27:06.000Z</time>
      </trkpt>
      <trkpt lat="43.02816" lon="0.56862">
        <ele>472</ele>
        <time>2018-03-18T14:27:08.000Z</time>
      </trkpt>
      <trkpt lat="43.02816" lon="0.56865">
        <ele>473</ele>
        <time>2018-03-18T14:27:10.000Z</time>
      </trkpt>
      <trkpt lat="43.02816" lon="0.56867">
        <ele>473</ele>
        <time>2018-03-18T14:27:12.000Z</time>
      </trkpt>
      <trkpt lat="43.02816" lon="0.5687">
        <ele>474</ele>
        <time>2018-03-18T14:27:14.000Z</time>
      </trkpt>
      <trkpt lat="43.02816" lon="0.56872">
        <ele>474</ele>
        <time>2018-03-18T14:27:16.000Z</time>
      </trkpt>
      <trkpt lat="43.02816" lon="0.56875">
        <ele>474</ele>
        <time>2018-03-18T14:27:18.000Z</time>
      </trkpt>
      <trkpt lat="43.02816" lon="0.56877">
        <ele>475</ele>
        <time>2018-03-18T14:27:20.000Z</time>
      </trkpt>
      <trkpt lat="43.02816" lon="0.56879">
        <ele>475</ele>
        <time>2018-03-18T14:27:22.000Z</time>
      </trkpt>
      <trkpt lat="43.02817" lon="0.5688">
        <ele>475</ele>
        <time>2018-03-18T14:27:24.000Z</time>
      </trkpt>
      <trkpt lat="43.02817" lon="0.56881">
        <ele>475</ele>
        <time>2018-03-18T14:27:26.000Z</time>
      </trkpt>
      <trkpt lat="43.02818" lon="0.56883">
        <ele>475</ele>
        <time>2018-03-18T14:27:28.000Z</time>
      </trkpt>
      <trkpt lat="43.02819" lon="0.56884">
        <ele>475</ele>
        <time>2018-03-18T14:27:30.000Z</time>
      </trkpt>
      <trkpt lat="43.0282" lon="0.56885">
        <ele>475</ele>
        <time>2018-03-18T14:27:32.000Z</time>
      </trkpt>
      <trkpt lat="43.02822" lon="0.56886">
        <ele>474</ele>
        <time>2018-03-18T14:27:34.000Z</time>
      </trkpt>
      <trkpt lat="43.02823" lon="0.56887">
        <ele>474</ele>
        <time>2018-03-18T14:27:36.000Z</time>
      </trkpt>
      <trkpt lat="43.02824" lon="0.56888">
        <ele>474</ele>
        <time>2018-03-18T14:27:38.000Z</time>
      </trkpt>
      <trkpt lat="43.02824" lon="0.56888">
        <ele>474</ele>
        <time>2018-03-18T14:27:40.000Z</time>
      </trkpt>
      <trkpt lat="43.02824" lon="0.56888">
        <ele>474</ele>
        <time>2018-03-18T14:27:42.000Z</time>
      </trkpt>
      <trkpt lat="43.02824" lon="0.56888">
        <ele>474</ele>
        <time>2018-03-18T14:27:44.000Z</time>
      </trkpt>
      <trkpt lat="43.02824" lon="0.56888">
        <ele>474</ele>
        <time>2018-03-18T14:27:46.000Z</time>
      </trkpt>
      <trkpt lat="43.02824" lon="0.56888">
        <ele>474</ele>
        <time>2018-03-18T14:27:48.000Z</time>
      </trkpt>
      <trkpt lat="43.02824" lon="0.56889">
        <ele>474</ele>
        <time>2018-03-18T14:27:50.000Z</time>
      </trkpt>
      <trkpt lat="43.02824" lon="0.56889">
        <ele>474</ele>
        <time>2018-03-18T14:27:52.000Z</time>
      </trkpt>
      <trkpt lat="43.02824" lon="0.56889">
        <ele>474</ele>
        <time>2018-03-18T14:27:54.000Z</time>
      </trkpt>
      <trkpt lat="43.02824" lon="0.56889">
        <ele>474</ele>
        <time>2018-03-18T14:27:56.000Z</time>
      </trkpt>
      <trkpt lat="43.02824" lon="0.5689">
        <ele>474</ele>
        <time>2018-03-18T14:27:58.000Z</time>
      </trkpt>
      <trkpt lat="43.02825" lon="0.56889">
        <ele>474</ele>
        <time>2018-03-18T14:28:00.000Z</time>
      </trkpt>
      <trkpt lat="43.02825" lon="0.56889">
        <ele>474</ele>
        <time>2018-03-18T14:28:02.000Z</time>
      </trkpt>
      <trkpt lat="43.02826" lon="0.56889">
        <ele>474</ele>
        <time>2018-03-18T14:28:04.000Z</time>
      </trkpt>
      <trkpt lat="43.02827" lon="0.5689">
        <ele>474</ele>
        <time>2018-03-18T14:28:06.000Z</time>
      </trkpt>
      <trkpt lat="43.02829" lon="0.56892">
        <ele>473</ele>
        <time>2018-03-18T14:28:08.000Z</time>
      </trkpt>
      <trkpt lat="43.02831" lon="0.56893">
        <ele>473</ele>
        <time>2018-03-18T14:28:10.000Z</time>
      </trkpt>
      <trkpt lat="43.02833" lon="0.56894">
        <ele>472</ele>
        <time>2018-03-18T14:28:12.000Z</time>
      </trkpt>
      <trkpt lat="43.02834" lon="0.56896">
        <ele>472</ele>
        <time>2018-03-18T14:28:14.000Z</time>
      </trkpt>
      <trkpt lat="43.02835" lon="0.56897">
        <ele>472</ele>
        <time>2018-03-18T14:28:16.000Z</time>
      </trkpt>
      <trkpt lat="43.02836" lon="0.56898">
        <ele>472</ele>
        <time>2018-03-18T14:28:18.000Z</time>
      </trkpt>
      <trkpt lat="43.02837" lon="0.569">
        <ele>472</ele>
        <time>2018-03-18T14:28:20.000Z</time>
      </trkpt>
      <trkpt lat="43.02839" lon="0.56901">
        <ele>471</ele>
        <time>2018-03-18T14:28:22.000Z</time>
      </trkpt>
      <trkpt lat="43.02841" lon="0.56903">
        <ele>471</ele>
        <time>2018-03-18T14:28:24.000Z</time>
      </trkpt>
      <trkpt lat="43.02843" lon="0.56904">
        <ele>471</ele>
        <time>2018-03-18T14:28:26.000Z</time>
      </trkpt>
      <trkpt lat="43.02844" lon="0.56906">
        <ele>471</ele>
        <time>2018-03-18T14:28:28.000Z</time>
      </trkpt>
      <trkpt lat="43.02848" lon="0.56907">
        <ele>470</ele>
        <time>2018-03-18T14:28:30.000Z</time>
      </trkpt>
      <trkpt lat="43.02849" lon="0.56908">
        <ele>470</ele>
        <time>2018-03-18T14:28:32.000Z</time>
      </trkpt>
      <trkpt lat="43.02851" lon="0.56909">
        <ele>470</ele>
        <time>2018-03-18T14:28:34.000Z</time>
      </trkpt>
      <trkpt lat="43.02855" lon="0.5691">
        <ele>469</ele>
        <time>2018-03-18T14:28:36.000Z</time>
      </trkpt>
      <trkpt lat="43.02857" lon="0.56912">
        <ele>469</ele>
        <time>2018-03-18T14:28:38.000Z</time>
      </trkpt>
      <trkpt lat="43.02859" lon="0.56914">
        <ele>469</ele>
        <time>2018-03-18T14:28:40.000Z</time>
      </trkpt>
      <trkpt lat="43.02861" lon="0.56915">
        <ele>468</ele>
        <time>2018-03-18T14:28:42.000Z</time>
      </trkpt>
      <trkpt lat="43.02864" lon="0.56915">
        <ele>468</ele>
        <time>2018-03-18T14:28:44.000Z</time>
      </trkpt>
      <trkpt lat="43.02866" lon="0.56917">
        <ele>468</ele>
        <time>2018-03-18T14:28:46.000Z</time>
      </trkpt>
      <trkpt lat="43.02865" lon="0.56919">
        <ele>468</ele>
        <time>2018-03-18T14:28:48.000Z</time>
      </trkpt>
      <trkpt lat="43.02866" lon="0.5692">
        <ele>468</ele>
        <time>2018-03-18T14:28:50.000Z</time>
      </trkpt>
      <trkpt lat="43.02867" lon="0.56921">
        <ele>468</ele>
        <time>2018-03-18T14:28:52.000Z</time>
      </trkpt>
      <trkpt lat="43.02867" lon="0.56923">
        <ele>468</ele>
        <time>2018-03-18T14:28:54.000Z</time>
      </trkpt>
      <trkpt lat="43.02868" lon="0.56924">
        <ele>468</ele>
        <time>2018-03-18T14:28:56.000Z</time>
      </trkpt>
      <trkpt lat="43.0287" lon="0.56926">
        <ele>468</ele>
        <time>2018-03-18T14:28:58.000Z</time>
      </trkpt>
      <trkpt lat="43.02871" lon="0.56928">
        <ele>468</ele>
        <time>2018-03-18T14:29:00.000Z</time>
      </trkpt>
      <trkpt lat="43.02874" lon="0.56931">
        <ele>467</ele>
        <time>2018-03-18T14:29:02.000Z</time>
      </trkpt>
      <trkpt lat="43.02874" lon="0.56933">
        <ele>468</ele>
        <time>2018-03-18T14:29:04.000Z</time>
      </trkpt>
      <trkpt lat="43.02875" lon="0.56936">
        <ele>468</ele>
        <time>2018-03-18T14:29:06.000Z</time>
      </trkpt>
      <trkpt lat="43.02877" lon="0.56938">
        <ele>468</ele>
        <time>2018-03-18T14:29:08.000Z</time>
      </trkpt>
      <trkpt lat="43.02877" lon="0.56941">
        <ele>468</ele>
        <time>2018-03-18T14:29:10.000Z</time>
      </trkpt>
      <trkpt lat="43.02877" lon="0.56943">
        <ele>468</ele>
        <time>2018-03-18T14:29:12.000Z</time>
      </trkpt>
      <trkpt lat="43.02878" lon="0.56945">
        <ele>468</ele>
        <time>2018-03-18T14:29:14.000Z</time>
      </trkpt>
      <trkpt lat="43.0288" lon="0.56946">
        <ele>468</ele>
        <time>2018-03-18T14:29:16.000Z</time>
      </trkpt>
      <trkpt lat="43.02881" lon="0.56948">
        <ele>468</ele>
        <time>2018-03-18T14:29:18.000Z</time>
      </trkpt>
      <trkpt lat="43.02883" lon="0.56949">
        <ele>467</ele>
        <time>2018-03-18T14:29:20.000Z</time>
      </trkpt>
      <trkpt lat="43.02884" lon="0.56951">
        <ele>467</ele>
        <time>2018-03-18T14:29:22.000Z</time>
      </trkpt>
      <trkpt lat="43.02884" lon="0.56953">
        <ele>467</ele>
        <time>2018-03-18T14:29:24.000Z</time>
      </trkpt>
      <trkpt lat="43.02886" lon="0.56955">
        <ele>467</ele>
        <time>2018-03-18T14:29:26.000Z</time>
      </trkpt>
      <trkpt lat="43.02887" lon="0.56956">
        <ele>467</ele>
        <time>2018-03-18T14:29:28.000Z</time>
      </trkpt>
      <trkpt lat="43.02889" lon="0.56959">
        <ele>467</ele>
        <time>2018-03-18T14:29:30.000Z</time>
      </trkpt>
      <trkpt lat="43.0289" lon="0.5696">
        <ele>467</ele>
        <time>2018-03-18T14:29:32.000Z</time>
      </trkpt>
      <trkpt lat="43.02892" lon="0.56962">
        <ele>467</ele>
        <time>2018-03-18T14:29:34.000Z</time>
      </trkpt>
      <trkpt lat="43.02893" lon="0.56963">
        <ele>467</ele>
        <time>2018-03-18T14:29:36.000Z</time>
      </trkpt>
      <trkpt lat="43.02895" lon="0.56964">
        <ele>467</ele>
        <time>2018-03-18T14:29:38.000Z</time>
      </trkpt>
      <trkpt lat="43.02897" lon="0.56966">
        <ele>466</ele>
        <time>2018-03-18T14:29:40.000Z</time>
      </trkpt>
      <trkpt lat="43.02899" lon="0.56966">
        <ele>466</ele>
        <time>2018-03-18T14:29:42.000Z</time>
      </trkpt>
      <trkpt lat="43.029" lon="0.56967">
        <ele>466</ele>
        <time>2018-03-18T14:29:44.000Z</time>
      </trkpt>
      <trkpt lat="43.02902" lon="0.56968">
        <ele>465</ele>
        <time>2018-03-18T14:29:46.000Z</time>
      </trkpt>
      <trkpt lat="43.02904" lon="0.56969">
        <ele>465</ele>
        <time>2018-03-18T14:29:48.000Z</time>
      </trkpt>
      <trkpt lat="43.02905" lon="0.56971">
        <ele>465</ele>
        <time>2018-03-18T14:29:50.000Z</time>
      </trkpt>
      <trkpt lat="43.02907" lon="0.56972">
        <ele>465</ele>
        <time>2018-03-18T14:29:52.000Z</time>
      </trkpt>
      <trkpt lat="43.02908" lon="0.56974">
        <ele>464</ele>
        <time>2018-03-18T14:29:54.000Z</time>
      </trkpt>
      <trkpt lat="43.0291" lon="0.56975">
        <ele>464</ele>
        <time>2018-03-18T14:29:56.000Z</time>
      </trkpt>
      <trkpt lat="43.02911" lon="0.56977">
        <ele>464</ele>
        <time>2018-03-18T14:29:58.000Z</time>
      </trkpt>
      <trkpt lat="43.02913" lon="0.56978">
        <ele>463</ele>
        <time>2018-03-18T14:30:00.000Z</time>
      </trkpt>
      <trkpt lat="43.02915" lon="0.56979">
        <ele>463</ele>
        <time>2018-03-18T14:30:02.000Z</time>
      </trkpt>
      <trkpt lat="43.02917" lon="0.56981">
        <ele>463</ele>
        <time>2018-03-18T14:30:04.000Z</time>
      </trkpt>
      <trkpt lat="43.02919" lon="0.56982">
        <ele>462</ele>
        <time>2018-03-18T14:30:06.000Z</time>
      </trkpt>
      <trkpt lat="43.02921" lon="0.56983">
        <ele>462</ele>
        <time>2018-03-18T14:30:08.000Z</time>
      </trkpt>
      <trkpt lat="43.02923" lon="0.56985">
        <ele>462</ele>
        <time>2018-03-18T14:30:10.000Z</time>
      </trkpt>
      <trkpt lat="43.02925" lon="0.56986">
        <ele>461</ele>
        <time>2018-03-18T14:30:12.000Z</time>
      </trkpt>
      <trkpt lat="43.02927" lon="0.56987">
        <ele>461</ele>
        <time>2018-03-18T14:30:14.000Z</time>
      </trkpt>
      <trkpt lat="43.02929" lon="0.56988">
        <ele>461</ele>
        <time>2018-03-18T14:30:16.000Z</time>
      </trkpt>
      <trkpt lat="43.02931" lon="0.56989">
        <ele>461</ele>
        <time>2018-03-18T14:30:18.000Z</time>
      </trkpt>
      <trkpt lat="43.02932" lon="0.56991">
        <ele>461</ele>
        <time>2018-03-18T14:30:20.000Z</time>
      </trkpt>
      <trkpt lat="43.02934" lon="0.56992">
        <ele>461</ele>
        <time>2018-03-18T14:30:22.000Z</time>
      </trkpt>
      <trkpt lat="43.02936" lon="0.56993">
        <ele>461</ele>
        <time>2018-03-18T14:30:24.000Z</time>
      </trkpt>
      <trkpt lat="43.02939" lon="0.56995">
        <ele>461</ele>
        <time>2018-03-18T14:30:26.000Z</time>
      </trkpt>
      <trkpt lat="43.0294" lon="0.56996">
        <ele>461</ele>
        <time>2018-03-18T14:30:28.000Z</time>
      </trkpt>
      <trkpt lat="43.02942" lon="0.56998">
        <ele>461</ele>
        <time>2018-03-18T14:30:30.000Z</time>
      </trkpt>
      <trkpt lat="43.02943" lon="0.57">
        <ele>461</ele>
        <time>2018-03-18T14:30:32.000Z</time>
      </trkpt>
      <trkpt lat="43.02945" lon="0.57002">
        <ele>461</ele>
        <time>2018-03-18T14:30:34.000Z</time>
      </trkpt>
      <trkpt lat="43.02946" lon="0.57003">
        <ele>461</ele>
        <time>2018-03-18T14:30:36.000Z</time>
      </trkpt>
      <trkpt lat="43.02948" lon="0.57004">
        <ele>461</ele>
        <time>2018-03-18T14:30:38.000Z</time>
      </trkpt>
      <trkpt lat="43.02949" lon="0.57006">
        <ele>461</ele>
        <time>2018-03-18T14:30:40.000Z</time>
      </trkpt>
      <trkpt lat="43.02951" lon="0.57007">
        <ele>461</ele>
        <time>2018-03-18T14:30:42.000Z</time>
      </trkpt>
      <trkpt lat="43.02953" lon="0.57009">
        <ele>461</ele>
        <time>2018-03-18T14:30:44.000Z</time>
      </trkpt>
      <trkpt lat="43.02954" lon="0.57011">
        <ele>460</ele>
        <time>2018-03-18T14:30:46.000Z</time>
      </trkpt>
      <trkpt lat="43.02956" lon="0.57013">
        <ele>460</ele>
        <time>2018-03-18T14:30:48.000Z</time>
      </trkpt>
      <trkpt lat="43.02957" lon="0.57014">
        <ele>460</ele>
        <time>2018-03-18T14:30:50.000Z</time>
      </trkpt>
      <trkpt lat="43.02959" lon="0.57016">
        <ele>460</ele>
        <time>2018-03-18T14:30:52.000Z</time>
      </trkpt>
      <trkpt lat="43.0296" lon="0.57017">
        <ele>460</ele>
        <time>2018-03-18T14:30:54.000Z</time>
      </trkpt>
      <trkpt lat="43.02961" lon="0.57019">
        <ele>460</ele>
        <time>2018-03-18T14:30:56.000Z</time>
      </trkpt>
      <trkpt lat="43.02963" lon="0.5702">
        <ele>460</ele>
        <time>2018-03-18T14:30:58.000Z</time>
      </trkpt>
      <trkpt lat="43.02964" lon="0.57022">
        <ele>460</ele>
        <time>2018-03-18T14:31:00.000Z</time>
      </trkpt>
      <trkpt lat="43.02965" lon="0.57024">
        <ele>460</ele>
        <time>2018-03-18T14:31:02.000Z</time>
      </trkpt>
      <trkpt lat="43.02967" lon="0.57026">
        <ele>460</ele>
        <time>2018-03-18T14:31:04.000Z</time>
      </trkpt>
      <trkpt lat="43.02968" lon="0.57027">
        <ele>460</ele>
        <time>2018-03-18T14:31:06.000Z</time>
      </trkpt>
      <trkpt lat="43.0297" lon="0.57029">
        <ele>460</ele>
        <time>2018-03-18T14:31:08.000Z</time>
      </trkpt>
      <trkpt lat="43.02972" lon="0.57031">
        <ele>460</ele>
        <time>2018-03-18T14:31:10.000Z</time>
      </trkpt>
      <trkpt lat="43.02973" lon="0.57033">
        <ele>460</ele>
        <time>2018-03-18T14:31:12.000Z</time>
      </trkpt>
      <trkpt lat="43.02975" lon="0.57035">
        <ele>460</ele>
        <time>2018-03-18T14:31:14.000Z</time>
      </trkpt>
      <trkpt lat="43.02976" lon="0.57037">
        <ele>460</ele>
        <time>2018-03-18T14:31:16.000Z</time>
      </trkpt>
      <trkpt lat="43.02978" lon="0.57039">
        <ele>460</ele>
        <time>2018-03-18T14:31:18.000Z</time>
      </trkpt>
      <trkpt lat="43.02979" lon="0.57041">
        <ele>460</ele>
        <time>2018-03-18T14:31:20.000Z</time>
      </trkpt>
      <trkpt lat="43.02981" lon="0.57043">
        <ele>460</ele>
        <time>2018-03-18T14:31:22.000Z</time>
      </trkpt>
      <trkpt lat="43.02982" lon="0.57045">
        <ele>460</ele>
        <time>2018-03-18T14:31:24.000Z</time>
      </trkpt>
      <trkpt lat="43.02983" lon="0.57047">
        <ele>460</ele>
        <time>2018-03-18T14:31:26.000Z</time>
      </trkpt>
      <trkpt lat="43.02985" lon="0.57049">
        <ele>460</ele>
        <time>2018-03-18T14:31:28.000Z</time>
      </trkpt>
      <trkpt lat="43.02987" lon="0.57051">
        <ele>460</ele>
        <time>2018-03-18T14:31:30.000Z</time>
      </trkpt>
      <trkpt lat="43.02988" lon="0.57053">
        <ele>460</ele>
        <time>2018-03-18T14:31:32.000Z</time>
      </trkpt>
      <trkpt lat="43.0299" lon="0.57055">
        <ele>460</ele>
        <time>2018-03-18T14:31:34.000Z</time>
      </trkpt>
      <trkpt lat="43.02991" lon="0.57057">
        <ele>460</ele>
        <time>2018-03-18T14:31:36.000Z</time>
      </trkpt>
      <trkpt lat="43.02992" lon="0.5706">
        <ele>460</ele>
        <time>2018-03-18T14:31:38.000Z</time>
      </trkpt>
      <trkpt lat="43.02993" lon="0.57062">
        <ele>460</ele>
        <time>2018-03-18T14:31:40.000Z</time>
      </trkpt>
      <trkpt lat="43.02995" lon="0.57064">
        <ele>460</ele>
        <time>2018-03-18T14:31:42.000Z</time>
      </trkpt>
      <trkpt lat="43.02996" lon="0.57066">
        <ele>460</ele>
        <time>2018-03-18T14:31:44.000Z</time>
      </trkpt>
      <trkpt lat="43.02997" lon="0.57069">
        <ele>460</ele>
        <time>2018-03-18T14:31:46.000Z</time>
      </trkpt>
      <trkpt lat="43.02998" lon="0.57071">
        <ele>460</ele>
        <time>2018-03-18T14:31:48.000Z</time>
      </trkpt>
      <trkpt lat="43.02999" lon="0.57074">
        <ele>460</ele>
        <time>2018-03-18T14:31:50.000Z</time>
      </trkpt>
      <trkpt lat="43.03" lon="0.57076">
        <ele>460</ele>
        <time>2018-03-18T14:31:52.000Z</time>
      </trkpt>
      <trkpt lat="43.03001" lon="0.57079">
        <ele>460</ele>
        <time>2018-03-18T14:31:54.000Z</time>
      </trkpt>
      <trkpt lat="43.03002" lon="0.57082">
        <ele>460</ele>
        <time>2018-03-18T14:31:56.000Z</time>
      </trkpt>
      <trkpt lat="43.03002" lon="0.57085">
        <ele>460</ele>
        <time>2018-03-18T14:31:58.000Z</time>
      </trkpt>
      <trkpt lat="43.03002" lon="0.57088">
        <ele>460</ele>
        <time>2018-03-18T14:32:00.000Z</time>
      </trkpt>
      <trkpt lat="43.03003" lon="0.5709">
        <ele>460</ele>
        <time>2018-03-18T14:32:02.000Z</time>
      </trkpt>
      <trkpt lat="43.03003" lon="0.57094">
        <ele>460</ele>
        <time>2018-03-18T14:32:04.000Z</time>
      </trkpt>
      <trkpt lat="43.03003" lon="0.57096">
        <ele>460</ele>
        <time>2018-03-18T14:32:06.000Z</time>
      </trkpt>
      <trkpt lat="43.03003" lon="0.57099">
        <ele>460</ele>
        <time>2018-03-18T14:32:08.000Z</time>
      </trkpt>
      <trkpt lat="43.03003" lon="0.57102">
        <ele>460</ele>
        <time>2018-03-18T14:32:10.000Z</time>
      </trkpt>
      <trkpt lat="43.03003" lon="0.57104">
        <ele>460</ele>
        <time>2018-03-18T14:32:12.000Z</time>
      </trkpt>
      <trkpt lat="43.03003" lon="0.57107">
        <ele>461</ele>
        <time>2018-03-18T14:32:14.000Z</time>
      </trkpt>
      <trkpt lat="43.03002" lon="0.5711">
        <ele>461</ele>
        <time>2018-03-18T14:32:16.000Z</time>
      </trkpt>
      <trkpt lat="43.03001" lon="0.57113">
        <ele>461</ele>
        <time>2018-03-18T14:32:18.000Z</time>
      </trkpt>
      <trkpt lat="43.02999" lon="0.57117">
        <ele>461</ele>
        <time>2018-03-18T14:32:20.000Z</time>
      </trkpt>
      <trkpt lat="43.02997" lon="0.57119">
        <ele>461</ele>
        <time>2018-03-18T14:32:22.000Z</time>
      </trkpt>
      <trkpt lat="43.02996" lon="0.57122">
        <ele>461</ele>
        <time>2018-03-18T14:32:24.000Z</time>
      </trkpt>
      <trkpt lat="43.02995" lon="0.57125">
        <ele>461</ele>
        <time>2018-03-18T14:32:26.000Z</time>
      </trkpt>
      <trkpt lat="43.02994" lon="0.57127">
        <ele>461</ele>
        <time>2018-03-18T14:32:28.000Z</time>
      </trkpt>
      <trkpt lat="43.02992" lon="0.5713">
        <ele>461</ele>
        <time>2018-03-18T14:32:30.000Z</time>
      </trkpt>
      <trkpt lat="43.02991" lon="0.57132">
        <ele>461</ele>
        <time>2018-03-18T14:32:32.000Z</time>
      </trkpt>
      <trkpt lat="43.02989" lon="0.57134">
        <ele>461</ele>
        <time>2018-03-18T14:32:34.000Z</time>
      </trkpt>
      <trkpt lat="43.02988" lon="0.57136">
        <ele>461</ele>
        <time>2018-03-18T14:32:36.000Z</time>
      </trkpt>
      <trkpt lat="43.02986" lon="0.57138">
        <ele>461</ele>
        <time>2018-03-18T14:32:38.000Z</time>
      </trkpt>
      <trkpt lat="43.02984" lon="0.5714">
        <ele>461</ele>
        <time>2018-03-18T14:32:40.000Z</time>
      </trkpt>
      <trkpt lat="43.02982" lon="0.57141">
        <ele>461</ele>
        <time>2018-03-18T14:32:42.000Z</time>
      </trkpt>
      <trkpt lat="43.02981" lon="0.57143">
        <ele>461</ele>
        <time>2018-03-18T14:32:44.000Z</time>
      </trkpt>
      <trkpt lat="43.0298" lon="0.57146">
        <ele>461</ele>
        <time>2018-03-18T14:32:46.000Z</time>
      </trkpt>
      <trkpt lat="43.02979" lon="0.57148">
        <ele>461</ele>
        <time>2018-03-18T14:32:48.000Z</time>
      </trkpt>
      <trkpt lat="43.02978" lon="0.57151">
        <ele>461</ele>
        <time>2018-03-18T14:32:50.000Z</time>
      </trkpt>
      <trkpt lat="43.02977" lon="0.57153">
        <ele>461</ele>
        <time>2018-03-18T14:32:52.000Z</time>
      </trkpt>
      <trkpt lat="43.02975" lon="0.57155">
        <ele>461</ele>
        <time>2018-03-18T14:32:54.000Z</time>
      </trkpt>
      <trkpt lat="43.02974" lon="0.57158">
        <ele>461</ele>
        <time>2018-03-18T14:32:56.000Z</time>
      </trkpt>
      <trkpt lat="43.02973" lon="0.5716">
        <ele>461</ele>
        <time>2018-03-18T14:32:58.000Z</time>
      </trkpt>
      <trkpt lat="43.02972" lon="0.57163">
        <ele>461</ele>
        <time>2018-03-18T14:33:00.000Z</time>
      </trkpt>
      <trkpt lat="43.02971" lon="0.57166">
        <ele>461</ele>
        <time>2018-03-18T14:33:02.000Z</time>
      </trkpt>
      <trkpt lat="43.0297" lon="0.57169">
        <ele>461</ele>
        <time>2018-03-18T14:33:04.000Z</time>
      </trkpt>
      <trkpt lat="43.02969" lon="0.57171">
        <ele>461</ele>
        <time>2018-03-18T14:33:06.000Z</time>
      </trkpt>
      <trkpt lat="43.02967" lon="0.57173">
        <ele>461</ele>
        <time>2018-03-18T14:33:08.000Z</time>
      </trkpt>
      <trkpt lat="43.02966" lon="0.57175">
        <ele>461</ele>
        <time>2018-03-18T14:33:10.000Z</time>
      </trkpt>
      <trkpt lat="43.02965" lon="0.57178">
        <ele>461</ele>
        <time>2018-03-18T14:33:12.000Z</time>
      </trkpt>
      <trkpt lat="43.02964" lon="0.5718">
        <ele>461</ele>
        <time>2018-03-18T14:33:14.000Z</time>
      </trkpt>
      <trkpt lat="43.02963" lon="0.57183">
        <ele>461</ele>
        <time>2018-03-18T14:33:16.000Z</time>
      </trkpt>
      <trkpt lat="43.02962" lon="0.57185">
        <ele>461</ele>
        <time>2018-03-18T14:33:18.000Z</time>
      </trkpt>
      <trkpt lat="43.02961" lon="0.57188">
        <ele>461</ele>
        <time>2018-03-18T14:33:20.000Z</time>
      </trkpt>
      <trkpt lat="43.0296" lon="0.5719">
        <ele>461</ele>
        <time>2018-03-18T14:33:22.000Z</time>
      </trkpt>
      <trkpt lat="43.02959" lon="0.57193">
        <ele>462</ele>
        <time>2018-03-18T14:33:24.000Z</time>
      </trkpt>
      <trkpt lat="43.02959" lon="0.57195">
        <ele>462</ele>
        <time>2018-03-18T14:33:26.000Z</time>
      </trkpt>
      <trkpt lat="43.02958" lon="0.57198">
        <ele>462</ele>
        <time>2018-03-18T14:33:28.000Z</time>
      </trkpt>
      <trkpt lat="43.02957" lon="0.572">
        <ele>462</ele>
        <time>2018-03-18T14:33:30.000Z</time>
      </trkpt>
      <trkpt lat="43.02957" lon="0.57203">
        <ele>462</ele>
        <time>2018-03-18T14:33:32.000Z</time>
      </trkpt>
      <trkpt lat="43.02956" lon="0.57206">
        <ele>462</ele>
        <time>2018-03-18T14:33:34.000Z</time>
      </trkpt>
      <trkpt lat="43.02955" lon="0.57208">
        <ele>462</ele>
        <time>2018-03-18T14:33:36.000Z</time>
      </trkpt>
      <trkpt lat="43.02954" lon="0.5721">
        <ele>462</ele>
        <time>2018-03-18T14:33:38.000Z</time>
      </trkpt>
      <trkpt lat="43.02953" lon="0.57213">
        <ele>462</ele>
        <time>2018-03-18T14:33:40.000Z</time>
      </trkpt>
      <trkpt lat="43.02953" lon="0.57216">
        <ele>462</ele>
        <time>2018-03-18T14:33:42.000Z</time>
      </trkpt>
      <trkpt lat="43.02951" lon="0.57217">
        <ele>462</ele>
        <time>2018-03-18T14:33:44.000Z</time>
      </trkpt>
      <trkpt lat="43.0295" lon="0.5722">
        <ele>462</ele>
        <time>2018-03-18T14:33:46.000Z</time>
      </trkpt>
      <trkpt lat="43.02948" lon="0.57222">
        <ele>462</ele>
        <time>2018-03-18T14:33:48.000Z</time>
      </trkpt>
      <trkpt lat="43.02947" lon="0.57224">
        <ele>462</ele>
        <time>2018-03-18T14:33:50.000Z</time>
      </trkpt>
      <trkpt lat="43.02946" lon="0.57226">
        <ele>462</ele>
        <time>2018-03-18T14:33:52.000Z</time>
      </trkpt>
      <trkpt lat="43.02945" lon="0.57228">
        <ele>462</ele>
        <time>2018-03-18T14:33:54.000Z</time>
      </trkpt>
      <trkpt lat="43.02943" lon="0.5723">
        <ele>462</ele>
        <time>2018-03-18T14:33:56.000Z</time>
      </trkpt>
      <trkpt lat="43.02942" lon="0.57232">
        <ele>462</ele>
        <time>2018-03-18T14:33:58.000Z</time>
      </trkpt>
      <trkpt lat="43.02942" lon="0.57234">
        <ele>462</ele>
        <time>2018-03-18T14:34:00.000Z</time>
      </trkpt>
      <trkpt lat="43.02941" lon="0.57236">
        <ele>462</ele>
        <time>2018-03-18T14:34:02.000Z</time>
      </trkpt>
      <trkpt lat="43.0294" lon="0.57238">
        <ele>462</ele>
        <time>2018-03-18T14:34:04.000Z</time>
      </trkpt>
      <trkpt lat="43.02938" lon="0.5724">
        <ele>462</ele>
        <time>2018-03-18T14:34:06.000Z</time>
      </trkpt>
      <trkpt lat="43.02937" lon="0.57241">
        <ele>462</ele>
        <time>2018-03-18T14:34:08.000Z</time>
      </trkpt>
      <trkpt lat="43.02935" lon="0.57243">
        <ele>462</ele>
        <time>2018-03-18T14:34:10.000Z</time>
      </trkpt>
      <trkpt lat="43.02933" lon="0.57244">
        <ele>463</ele>
        <time>2018-03-18T14:34:12.000Z</time>
      </trkpt>
      <trkpt lat="43.02932" lon="0.57245">
        <ele>463</ele>
        <time>2018-03-18T14:34:14.000Z</time>
      </trkpt>
      <trkpt lat="43.02932" lon="0.57247">
        <ele>462</ele>
        <time>2018-03-18T14:34:16.000Z</time>
      </trkpt>
      <trkpt lat="43.02931" lon="0.57248">
        <ele>462</ele>
        <time>2018-03-18T14:34:18.000Z</time>
      </trkpt>
      <trkpt lat="43.02931" lon="0.57249">
        <ele>462</ele>
        <time>2018-03-18T14:34:20.000Z</time>
      </trkpt>
      <trkpt lat="43.0293" lon="0.5725">
        <ele>462</ele>
        <time>2018-03-18T14:34:22.000Z</time>
      </trkpt>
      <trkpt lat="43.02931" lon="0.57252">
        <ele>462</ele>
        <time>2018-03-18T14:34:24.000Z</time>
      </trkpt>
      <trkpt lat="43.02931" lon="0.57252">
        <ele>462</ele>
        <time>2018-03-18T14:34:26.000Z</time>
      </trkpt>
      <trkpt lat="43.02931" lon="0.57251">
        <ele>462</ele>
        <time>2018-03-18T14:34:28.000Z</time>
      </trkpt>
      <trkpt lat="43.02931" lon="0.57252">
        <ele>462</ele>
        <time>2018-03-18T14:34:30.000Z</time>
      </trkpt>
      <trkpt lat="43.02932" lon="0.57252">
        <ele>462</ele>
        <time>2018-03-18T14:34:32.000Z</time>
      </trkpt>
      <trkpt lat="43.02932" lon="0.57252">
        <ele>462</ele>
        <time>2018-03-18T14:34:34.000Z</time>
      </trkpt>
      <trkpt lat="43.02932" lon="0.57252">
        <ele>462</ele>
        <time>2018-03-18T14:34:36.000Z</time>
      </trkpt>
      <trkpt lat="43.02932" lon="0.5725">
        <ele>462</ele>
        <time>2018-03-18T14:34:38.000Z</time>
      </trkpt>
      <trkpt lat="43.02931" lon="0.57247">
        <ele>463</ele>
        <time>2018-03-18T14:34:40.000Z</time>
      </trkpt>
      <trkpt lat="43.02933" lon="0.57247">
        <ele>462</ele>
        <time>2018-03-18T14:34:42.000Z</time>
      </trkpt>
      <trkpt lat="43.02934" lon="0.57249">
        <ele>462</ele>
        <time>2018-03-18T14:34:44.000Z</time>
      </trkpt>
      <trkpt lat="43.02934" lon="0.57251">
        <ele>462</ele>
        <time>2018-03-18T14:34:46.000Z</time>
      </trkpt>
      <trkpt lat="43.02934" lon="0.57252">
        <ele>462</ele>
        <time>2018-03-18T14:34:48.000Z</time>
      </trkpt>
      <trkpt lat="43.02935" lon="0.57253">
        <ele>462</ele>
        <time>2018-03-18T14:34:50.000Z</time>
      </trkpt>
      <trkpt lat="43.02935" lon="0.57253">
        <ele>462</ele>
        <time>2018-03-18T14:34:52.000Z</time>
      </trkpt>
      <trkpt lat="43.02935" lon="0.57253">
        <ele>462</ele>
        <time>2018-03-18T14:34:54.000Z</time>
      </trkpt>
      <trkpt lat="43.02935" lon="0.57253">
        <ele>462</ele>
        <time>2018-03-18T14:34:56.000Z</time>
      </trkpt>
      <trkpt lat="43.02935" lon="0.57253">
        <ele>462</ele>
        <time>2018-03-18T14:34:58.000Z</time>
      </trkpt>
      <trkpt lat="43.02935" lon="0.57254">
        <ele>462</ele>
        <time>2018-03-18T14:35:00.000Z</time>
      </trkpt>
      <trkpt lat="43.02936" lon="0.57254">
        <ele>462</ele>
        <time>2018-03-18T14:35:02.000Z</time>
      </trkpt>
      <trkpt lat="43.02936" lon="0.57254">
        <ele>462</ele>
        <time>2018-03-18T14:35:04.000Z</time>
      </trkpt>
      <trkpt lat="43.02936" lon="0.57254">
        <ele>462</ele>
        <time>2018-03-18T14:35:06.000Z</time>
      </trkpt>
      <trkpt lat="43.02936" lon="0.57254">
        <ele>462</ele>
        <time>2018-03-18T14:35:08.000Z</time>
      </trkpt>
      <trkpt lat="43.02936" lon="0.57254">
        <ele>462</ele>
        <time>2018-03-18T14:35:10.000Z</time>
      </trkpt>
      <trkpt lat="43.02936" lon="0.57254">
        <ele>462</ele>
        <time>2018-03-18T14:35:12.000Z</time>
      </trkpt>
      <trkpt lat="43.02936" lon="0.57255">
        <ele>462</ele>
        <time>2018-03-18T14:35:14.000Z</time>
      </trkpt>
      <trkpt lat="43.02935" lon="0.57254">
        <ele>462</ele>
        <time>2018-03-18T14:35:16.000Z</time>
      </trkpt>
      <trkpt lat="43.02935" lon="0.57254">
        <ele>462</ele>
        <time>2018-03-18T14:35:18.000Z</time>
      </trkpt>
      <trkpt lat="43.02935" lon="0.57253">
        <ele>462</ele>
        <time>2018-03-18T14:35:20.000Z</time>
      </trkpt>
      <trkpt lat="43.02935" lon="0.57253">
        <ele>462</ele>
        <time>2018-03-18T14:35:22.000Z</time>
      </trkpt>
      <trkpt lat="43.02935" lon="0.57254">
        <ele>462</ele>
        <time>2018-03-18T14:35:24.000Z</time>
      </trkpt>
      <trkpt lat="43.02934" lon="0.57253">
        <ele>462</ele>
        <time>2018-03-18T14:35:26.000Z</time>
      </trkpt>
      <trkpt lat="43.02935" lon="0.57254">
        <ele>462</ele>
        <time>2018-03-18T14:35:28.000Z</time>
      </trkpt>
      <trkpt lat="43.02935" lon="0.57254">
        <ele>462</ele>
        <time>2018-03-18T14:35:30.000Z</time>
      </trkpt>
      <trkpt lat="43.02932" lon="0.57252">
        <ele>462</ele>
        <time>2018-03-18T14:35:32.000Z</time>
      </trkpt>
      <trkpt lat="43.02931" lon="0.57252">
        <ele>462</ele>
        <time>2018-03-18T14:35:34.000Z</time>
      </trkpt>
      <trkpt lat="43.02931" lon="0.57251">
        <ele>462</ele>
        <time>2018-03-18T14:35:36.000Z</time>
      </trkpt>
      <trkpt lat="43.0293" lon="0.57251">
        <ele>462</ele>
        <time>2018-03-18T14:35:38.000Z</time>
      </trkpt>
      <trkpt lat="43.02929" lon="0.57251">
        <ele>463</ele>
        <time>2018-03-18T14:35:40.000Z</time>
      </trkpt>
      <trkpt lat="43.02929" lon="0.57251">
        <ele>463</ele>
        <time>2018-03-18T14:35:42.000Z</time>
      </trkpt>
      <trkpt lat="43.02929" lon="0.57251">
        <ele>463</ele>
        <time>2018-03-18T14:35:44.000Z</time>
      </trkpt>
      <trkpt lat="43.02929" lon="0.57251">
        <ele>463</ele>
        <time>2018-03-18T14:35:46.000Z</time>
      </trkpt>
      <trkpt lat="43.02929" lon="0.57251">
        <ele>463</ele>
        <time>2018-03-18T14:35:48.000Z</time>
      </trkpt>
      <trkpt lat="43.0293" lon="0.57251">
        <ele>463</ele>
        <time>2018-03-18T14:35:50.000Z</time>
      </trkpt>
    </trkseg>
  </trk>
</gpx>